<?xml version="1.0" encoding="UTF-8" standalone="no" ?>
<gpx xmlns="http://www.topografix.com/GPX/1/1" xmlns:xsi="http://www.w3.org/2001/XMLSchema-instance" xsi:schemaLocation="http://www.topografix.com/GPX/1/1 http://www.topografix.com/GPX/1/1/gpx.xsd" version="1.1" creator="VisuGPX - https://www.visugpx.com">
  <metadata>
    <name>1ère journée Thodure </name>
    <desc><![CDATA[


]]></desc>
  </metadata>
  <trk>
    <name><![CDATA[1ère journée Thodure _1]]></name>
    <trkseg>
      <trkpt lat="45.30753" lon="5.14331">
        <ele>377.4</ele>
        <time>2014-05-31T10:00:46Z</time>
      </trkpt>
      <trkpt lat="45.30753" lon="5.14331">
        <ele>377.4</ele>
        <time>2014-05-31T10:00:51Z</time>
      </trkpt>
      <trkpt lat="45.30753" lon="5.14331">
        <ele>377.4</ele>
        <time>2014-05-31T10:00:56Z</time>
      </trkpt>
      <trkpt lat="45.30753" lon="5.14331">
        <ele>377.4</ele>
        <time>2014-05-31T10:01:01Z</time>
      </trkpt>
      <trkpt lat="45.30753" lon="5.14331">
        <ele>377.4</ele>
        <time>2014-05-31T10:01:06Z</time>
      </trkpt>
      <trkpt lat="45.30753" lon="5.14331">
        <ele>377.4</ele>
        <time>2014-05-31T10:01:11Z</time>
      </trkpt>
      <trkpt lat="45.30753" lon="5.14331">
        <ele>377.4</ele>
        <time>2014-05-31T10:01:16Z</time>
      </trkpt>
      <trkpt lat="45.30753" lon="5.14331">
        <ele>377.4</ele>
        <time>2014-05-31T10:01:21Z</time>
      </trkpt>
      <trkpt lat="45.30755" lon="5.14335">
        <ele>377.4</ele>
        <time>2014-05-31T10:01:26Z</time>
      </trkpt>
      <trkpt lat="45.30759" lon="5.14336">
        <ele>377.4</ele>
        <time>2014-05-31T10:01:31Z</time>
      </trkpt>
      <trkpt lat="45.30766" lon="5.14337">
        <ele>373.08246584619</ele>
        <time>2014-05-31T10:01:36Z</time>
      </trkpt>
      <trkpt lat="45.30772" lon="5.14337">
        <ele>373.08246584619</ele>
        <time>2014-05-31T10:01:41Z</time>
      </trkpt>
      <trkpt lat="45.30779" lon="5.14336">
        <ele>375.51844561391</ele>
        <time>2014-05-31T10:01:46Z</time>
      </trkpt>
      <trkpt lat="45.30783" lon="5.14338">
        <ele>375.51844561391</ele>
        <time>2014-05-31T10:01:51Z</time>
      </trkpt>
      <trkpt lat="45.30787" lon="5.14339">
        <ele>375.51844561391</ele>
        <time>2014-05-31T10:01:56Z</time>
      </trkpt>
      <trkpt lat="45.30794" lon="5.14339">
        <ele>376.70327246424</ele>
        <time>2014-05-31T10:02:01Z</time>
      </trkpt>
      <trkpt lat="45.30801" lon="5.14341">
        <ele>376.70327246424</ele>
        <time>2014-05-31T10:02:06Z</time>
      </trkpt>
      <trkpt lat="45.30808" lon="5.14342">
        <ele>377.80832934832</ele>
        <time>2014-05-31T10:02:11Z</time>
      </trkpt>
      <trkpt lat="45.30814" lon="5.14346">
        <ele>377.80832934832</ele>
        <time>2014-05-31T10:02:16Z</time>
      </trkpt>
      <trkpt lat="45.3082" lon="5.14347">
        <ele>379.83449458286</ele>
        <time>2014-05-31T10:02:21Z</time>
      </trkpt>
      <trkpt lat="45.30826" lon="5.14348">
        <ele>379.83449458286</ele>
        <time>2014-05-31T10:02:26Z</time>
      </trkpt>
      <trkpt lat="45.3083" lon="5.14349">
        <ele>381.12719960524</ele>
        <time>2014-05-31T10:02:31Z</time>
      </trkpt>
      <trkpt lat="45.30835" lon="5.14349">
        <ele>381.12719960524</ele>
        <time>2014-05-31T10:02:36Z</time>
      </trkpt>
      <trkpt lat="45.30841" lon="5.14351">
        <ele>382.05606318138</ele>
        <time>2014-05-31T10:02:41Z</time>
      </trkpt>
      <trkpt lat="45.30848" lon="5.14349">
        <ele>382.05606318138</ele>
        <time>2014-05-31T10:02:46Z</time>
      </trkpt>
      <trkpt lat="45.30853" lon="5.14343">
        <ele>383.02185911354</ele>
        <time>2014-05-31T10:02:51Z</time>
      </trkpt>
      <trkpt lat="45.30857" lon="5.14332">
        <ele>383.02185911354</ele>
        <time>2014-05-31T10:02:56Z</time>
      </trkpt>
      <trkpt lat="45.30862" lon="5.14323">
        <ele>384.96517522021</ele>
        <time>2014-05-31T10:03:01Z</time>
      </trkpt>
      <trkpt lat="45.30865" lon="5.14312">
        <ele>384.96517522021</ele>
        <time>2014-05-31T10:03:06Z</time>
      </trkpt>
      <trkpt lat="45.30867" lon="5.14303">
        <ele>385.62436686297</ele>
        <time>2014-05-31T10:03:11Z</time>
      </trkpt>
      <trkpt lat="45.30867" lon="5.14294">
        <ele>385.62436686297</ele>
        <time>2014-05-31T10:03:16Z</time>
      </trkpt>
      <trkpt lat="45.30867" lon="5.14286">
        <ele>386.29105209275</ele>
        <time>2014-05-31T10:03:21Z</time>
      </trkpt>
      <trkpt lat="45.30867" lon="5.14276">
        <ele>386.29105209275</ele>
        <time>2014-05-31T10:03:26Z</time>
      </trkpt>
      <trkpt lat="45.30867" lon="5.14268">
        <ele>386.80299073057</ele>
        <time>2014-05-31T10:03:31Z</time>
      </trkpt>
      <trkpt lat="45.30867" lon="5.14261">
        <ele>386.80299073057</ele>
        <time>2014-05-31T10:03:36Z</time>
      </trkpt>
      <trkpt lat="45.30868" lon="5.14255">
        <ele>386.47121282123</ele>
        <time>2014-05-31T10:03:41Z</time>
      </trkpt>
      <trkpt lat="45.30868" lon="5.14248">
        <ele>386.47121282123</ele>
        <time>2014-05-31T10:03:46Z</time>
      </trkpt>
      <trkpt lat="45.30867" lon="5.1424">
        <ele>386.01099231005</ele>
        <time>2014-05-31T10:03:51Z</time>
      </trkpt>
      <trkpt lat="45.30865" lon="5.14238">
        <ele>386.01099231005</ele>
        <time>2014-05-31T10:03:56Z</time>
      </trkpt>
      <trkpt lat="45.30864" lon="5.14236">
        <ele>386.01099231005</ele>
        <time>2014-05-31T10:04:01Z</time>
      </trkpt>
      <trkpt lat="45.30864" lon="5.14236">
        <ele>386.01099231005</ele>
        <time>2014-05-31T10:04:06Z</time>
      </trkpt>
      <trkpt lat="45.30864" lon="5.14236">
        <ele>386.01099231005</ele>
        <time>2014-05-31T10:04:11Z</time>
      </trkpt>
      <trkpt lat="45.30864" lon="5.14234">
        <ele>386.01099231005</ele>
        <time>2014-05-31T10:04:16Z</time>
      </trkpt>
      <trkpt lat="45.30867" lon="5.14235">
        <ele>386.01099231005</ele>
        <time>2014-05-31T10:04:21Z</time>
      </trkpt>
      <trkpt lat="45.30867" lon="5.14236">
        <ele>385.79532852126</ele>
        <time>2014-05-31T10:04:26Z</time>
      </trkpt>
      <trkpt lat="45.30869" lon="5.14236">
        <ele>385.79532852126</ele>
        <time>2014-05-31T10:04:31Z</time>
      </trkpt>
      <trkpt lat="45.30874" lon="5.14236">
        <ele>385.79532852126</ele>
        <time>2014-05-31T10:04:36Z</time>
      </trkpt>
      <trkpt lat="45.30881" lon="5.14237">
        <ele>385.14871566513</ele>
        <time>2014-05-31T10:04:41Z</time>
      </trkpt>
      <trkpt lat="45.30888" lon="5.14238">
        <ele>385.14871566513</ele>
        <time>2014-05-31T10:04:46Z</time>
      </trkpt>
      <trkpt lat="45.30894" lon="5.14239">
        <ele>384.53070147378</ele>
        <time>2014-05-31T10:04:51Z</time>
      </trkpt>
      <trkpt lat="45.309" lon="5.1424">
        <ele>384.53070147378</ele>
        <time>2014-05-31T10:04:56Z</time>
      </trkpt>
      <trkpt lat="45.30906" lon="5.14241">
        <ele>383.92513681566</ele>
        <time>2014-05-31T10:05:01Z</time>
      </trkpt>
      <trkpt lat="45.30913" lon="5.14243">
        <ele>383.92513681566</ele>
        <time>2014-05-31T10:05:06Z</time>
      </trkpt>
      <trkpt lat="45.3092" lon="5.14243">
        <ele>383.32971934562</ele>
        <time>2014-05-31T10:05:11Z</time>
      </trkpt>
      <trkpt lat="45.30926" lon="5.14245">
        <ele>383.32971934562</ele>
        <time>2014-05-31T10:05:16Z</time>
      </trkpt>
      <trkpt lat="45.30932" lon="5.14247">
        <ele>382.7390658252</ele>
        <time>2014-05-31T10:05:21Z</time>
      </trkpt>
      <trkpt lat="45.30938" lon="5.14248">
        <ele>382.7390658252</ele>
        <time>2014-05-31T10:05:26Z</time>
      </trkpt>
      <trkpt lat="45.30944" lon="5.14249">
        <ele>382.06847766585</ele>
        <time>2014-05-31T10:05:31Z</time>
      </trkpt>
      <trkpt lat="45.3095" lon="5.14249">
        <ele>382.06847766585</ele>
        <time>2014-05-31T10:05:36Z</time>
      </trkpt>
      <trkpt lat="45.30956" lon="5.14247">
        <ele>381.45531377116</ele>
        <time>2014-05-31T10:05:41Z</time>
      </trkpt>
      <trkpt lat="45.30959" lon="5.14244">
        <ele>381.45531377116</ele>
        <time>2014-05-31T10:05:46Z</time>
      </trkpt>
      <trkpt lat="45.30959" lon="5.14244">
        <ele>381.45531377116</ele>
        <time>2014-05-31T10:05:51Z</time>
      </trkpt>
      <trkpt lat="45.30958" lon="5.14245">
        <ele>381.45531377116</ele>
        <time>2014-05-31T10:05:56Z</time>
      </trkpt>
      <trkpt lat="45.30958" lon="5.14245">
        <ele>381.45531377116</ele>
        <time>2014-05-31T10:06:01Z</time>
      </trkpt>
      <trkpt lat="45.30959" lon="5.14244">
        <ele>381.45531377116</ele>
        <time>2014-05-31T10:06:06Z</time>
      </trkpt>
      <trkpt lat="45.30959" lon="5.14245">
        <ele>381.45531377116</ele>
        <time>2014-05-31T10:06:11Z</time>
      </trkpt>
      <trkpt lat="45.30959" lon="5.14244">
        <ele>381.45531377116</ele>
        <time>2014-05-31T10:06:16Z</time>
      </trkpt>
      <trkpt lat="45.30959" lon="5.14244">
        <ele>381.45531377116</ele>
        <time>2014-05-31T10:06:21Z</time>
      </trkpt>
      <trkpt lat="45.30959" lon="5.14243">
        <ele>381.45531377116</ele>
        <time>2014-05-31T10:06:26Z</time>
      </trkpt>
      <trkpt lat="45.3096" lon="5.14243">
        <ele>381.45531377116</ele>
        <time>2014-05-31T10:06:31Z</time>
      </trkpt>
      <trkpt lat="45.30959" lon="5.14243">
        <ele>381.45531377116</ele>
        <time>2014-05-31T10:06:36Z</time>
      </trkpt>
      <trkpt lat="45.30959" lon="5.14243">
        <ele>381.45531377116</ele>
        <time>2014-05-31T10:06:41Z</time>
      </trkpt>
      <trkpt lat="45.30961" lon="5.14242">
        <ele>381.45531377116</ele>
        <time>2014-05-31T10:06:46Z</time>
      </trkpt>
      <trkpt lat="45.3096" lon="5.14243">
        <ele>380.9273601793</ele>
        <time>2014-05-31T10:06:51Z</time>
      </trkpt>
      <trkpt lat="45.30959" lon="5.14242">
        <ele>380.9273601793</ele>
        <time>2014-05-31T10:06:56Z</time>
      </trkpt>
      <trkpt lat="45.3096" lon="5.14241">
        <ele>380.9273601793</ele>
        <time>2014-05-31T10:07:01Z</time>
      </trkpt>
      <trkpt lat="45.3096" lon="5.14241">
        <ele>380.9273601793</ele>
        <time>2014-05-31T10:07:06Z</time>
      </trkpt>
      <trkpt lat="45.30961" lon="5.14238">
        <ele>380.9273601793</ele>
        <time>2014-05-31T10:07:11Z</time>
      </trkpt>
      <trkpt lat="45.30964" lon="5.1423">
        <ele>380.64019668986</ele>
        <time>2014-05-31T10:07:16Z</time>
      </trkpt>
      <trkpt lat="45.30966" lon="5.14226">
        <ele>380.64019668986</ele>
        <time>2014-05-31T10:07:21Z</time>
      </trkpt>
      <trkpt lat="45.30965" lon="5.14229">
        <ele>380.64019668986</ele>
        <time>2014-05-31T10:07:26Z</time>
      </trkpt>
      <trkpt lat="45.30965" lon="5.1423">
        <ele>380.64019668986</ele>
        <time>2014-05-31T10:07:31Z</time>
      </trkpt>
      <trkpt lat="45.30964" lon="5.1423">
        <ele>380.64019668986</ele>
        <time>2014-05-31T10:07:36Z</time>
      </trkpt>
      <trkpt lat="45.30964" lon="5.1423">
        <ele>380.64019668986</ele>
        <time>2014-05-31T10:07:41Z</time>
      </trkpt>
      <trkpt lat="45.30964" lon="5.14226">
        <ele>380.2044788489</ele>
        <time>2014-05-31T10:07:46Z</time>
      </trkpt>
      <trkpt lat="45.30965" lon="5.14216">
        <ele>380.2044788489</ele>
        <time>2014-05-31T10:07:51Z</time>
      </trkpt>
      <trkpt lat="45.30967" lon="5.14206">
        <ele>379.82351944718</ele>
        <time>2014-05-31T10:07:56Z</time>
      </trkpt>
      <trkpt lat="45.30968" lon="5.14196">
        <ele>379.82351944718</ele>
        <time>2014-05-31T10:08:01Z</time>
      </trkpt>
      <trkpt lat="45.3097" lon="5.14186">
        <ele>379.61989809534</ele>
        <time>2014-05-31T10:08:06Z</time>
      </trkpt>
      <trkpt lat="45.30972" lon="5.14176">
        <ele>379.61989809534</ele>
        <time>2014-05-31T10:08:11Z</time>
      </trkpt>
      <trkpt lat="45.30973" lon="5.14166">
        <ele>379.50542721871</ele>
        <time>2014-05-31T10:08:16Z</time>
      </trkpt>
      <trkpt lat="45.30975" lon="5.14156">
        <ele>379.50542721871</ele>
        <time>2014-05-31T10:08:21Z</time>
      </trkpt>
      <trkpt lat="45.30976" lon="5.14146">
        <ele>379.33113617103</ele>
        <time>2014-05-31T10:08:26Z</time>
      </trkpt>
      <trkpt lat="45.30978" lon="5.14135">
        <ele>379.33113617103</ele>
        <time>2014-05-31T10:08:31Z</time>
      </trkpt>
      <trkpt lat="45.30979" lon="5.14126">
        <ele>379.18524267061</ele>
        <time>2014-05-31T10:08:36Z</time>
      </trkpt>
      <trkpt lat="45.3098" lon="5.14116">
        <ele>379.18524267061</ele>
        <time>2014-05-31T10:08:41Z</time>
      </trkpt>
      <trkpt lat="45.30982" lon="5.14106">
        <ele>379.16211851517</ele>
        <time>2014-05-31T10:08:46Z</time>
      </trkpt>
      <trkpt lat="45.30983" lon="5.14096">
        <ele>379.16211851517</ele>
        <time>2014-05-31T10:08:51Z</time>
      </trkpt>
      <trkpt lat="45.30985" lon="5.14086">
        <ele>379.16859397531</ele>
        <time>2014-05-31T10:08:56Z</time>
      </trkpt>
      <trkpt lat="45.30985" lon="5.14076">
        <ele>379.16859397531</ele>
        <time>2014-05-31T10:09:01Z</time>
      </trkpt>
      <trkpt lat="45.30987" lon="5.14067">
        <ele>379.18840943562</ele>
        <time>2014-05-31T10:09:06Z</time>
      </trkpt>
      <trkpt lat="45.30989" lon="5.14057">
        <ele>379.18840943562</ele>
        <time>2014-05-31T10:09:11Z</time>
      </trkpt>
      <trkpt lat="45.3099" lon="5.14047">
        <ele>379.09547380179</ele>
        <time>2014-05-31T10:09:16Z</time>
      </trkpt>
      <trkpt lat="45.30992" lon="5.14037">
        <ele>379.09547380179</ele>
        <time>2014-05-31T10:09:21Z</time>
      </trkpt>
      <trkpt lat="45.30994" lon="5.14027">
        <ele>378.93930446573</ele>
        <time>2014-05-31T10:09:26Z</time>
      </trkpt>
      <trkpt lat="45.30995" lon="5.14017">
        <ele>378.93930446573</ele>
        <time>2014-05-31T10:09:31Z</time>
      </trkpt>
      <trkpt lat="45.30997" lon="5.14007">
        <ele>378.66845639114</ele>
        <time>2014-05-31T10:09:36Z</time>
      </trkpt>
      <trkpt lat="45.30999" lon="5.13997">
        <ele>378.66845639114</ele>
        <time>2014-05-31T10:09:41Z</time>
      </trkpt>
      <trkpt lat="45.31001" lon="5.13987">
        <ele>378.27689542046</ele>
        <time>2014-05-31T10:09:46Z</time>
      </trkpt>
      <trkpt lat="45.31004" lon="5.13977">
        <ele>378.27689542046</ele>
        <time>2014-05-31T10:09:51Z</time>
      </trkpt>
      <trkpt lat="45.31004" lon="5.13967">
        <ele>377.78763401956</ele>
        <time>2014-05-31T10:09:56Z</time>
      </trkpt>
      <trkpt lat="45.30999" lon="5.1396">
        <ele>377.78763401956</ele>
        <time>2014-05-31T10:10:01Z</time>
      </trkpt>
      <trkpt lat="45.30993" lon="5.13958">
        <ele>377.33716514351</ele>
        <time>2014-05-31T10:10:06Z</time>
      </trkpt>
      <trkpt lat="45.30987" lon="5.13955">
        <ele>377.33716514351</ele>
        <time>2014-05-31T10:10:11Z</time>
      </trkpt>
      <trkpt lat="45.3098" lon="5.13952">
        <ele>376.98348321565</ele>
        <time>2014-05-31T10:10:16Z</time>
      </trkpt>
      <trkpt lat="45.30973" lon="5.13948">
        <ele>376.98348321565</ele>
        <time>2014-05-31T10:10:21Z</time>
      </trkpt>
      <trkpt lat="45.30966" lon="5.13945">
        <ele>376.88288105358</ele>
        <time>2014-05-31T10:10:26Z</time>
      </trkpt>
      <trkpt lat="45.30957" lon="5.13941">
        <ele>376.77489181231</ele>
        <time>2014-05-31T10:10:31Z</time>
      </trkpt>
      <trkpt lat="45.3095" lon="5.13939">
        <ele>376.77489181231</ele>
        <time>2014-05-31T10:10:36Z</time>
      </trkpt>
      <trkpt lat="45.30944" lon="5.13936">
        <ele>376.73489438909</ele>
        <time>2014-05-31T10:10:41Z</time>
      </trkpt>
      <trkpt lat="45.30938" lon="5.13932">
        <ele>376.73489438909</ele>
        <time>2014-05-31T10:10:46Z</time>
      </trkpt>
      <trkpt lat="45.30932" lon="5.13927">
        <ele>376.5093852477</ele>
        <time>2014-05-31T10:10:51Z</time>
      </trkpt>
      <trkpt lat="45.30926" lon="5.13924">
        <ele>376.5093852477</ele>
        <time>2014-05-31T10:10:56Z</time>
      </trkpt>
      <trkpt lat="45.30919" lon="5.13921">
        <ele>376.39352402792</ele>
        <time>2014-05-31T10:11:01Z</time>
      </trkpt>
      <trkpt lat="45.30912" lon="5.13918">
        <ele>376.39352402792</ele>
        <time>2014-05-31T10:11:06Z</time>
      </trkpt>
      <trkpt lat="45.30906" lon="5.13915">
        <ele>376.48618718845</ele>
        <time>2014-05-31T10:11:11Z</time>
      </trkpt>
      <trkpt lat="45.30899" lon="5.13912">
        <ele>376.48618718845</ele>
        <time>2014-05-31T10:11:16Z</time>
      </trkpt>
      <trkpt lat="45.30893" lon="5.13909">
        <ele>376.69946354929</ele>
        <time>2014-05-31T10:11:21Z</time>
      </trkpt>
      <trkpt lat="45.30886" lon="5.13906">
        <ele>376.69946354929</ele>
        <time>2014-05-31T10:11:26Z</time>
      </trkpt>
      <trkpt lat="45.30879" lon="5.13903">
        <ele>377.04007388914</ele>
        <time>2014-05-31T10:11:31Z</time>
      </trkpt>
      <trkpt lat="45.30872" lon="5.139">
        <ele>377.04007388914</ele>
        <time>2014-05-31T10:11:36Z</time>
      </trkpt>
      <trkpt lat="45.30865" lon="5.13897">
        <ele>377.58867431918</ele>
        <time>2014-05-31T10:11:41Z</time>
      </trkpt>
      <trkpt lat="45.30859" lon="5.13894">
        <ele>377.58867431918</ele>
        <time>2014-05-31T10:11:46Z</time>
      </trkpt>
      <trkpt lat="45.30853" lon="5.13891">
        <ele>378.10268911934</ele>
        <time>2014-05-31T10:11:51Z</time>
      </trkpt>
      <trkpt lat="45.30846" lon="5.13888">
        <ele>378.10268911934</ele>
        <time>2014-05-31T10:11:56Z</time>
      </trkpt>
      <trkpt lat="45.3084" lon="5.13885">
        <ele>378.74909362621</ele>
        <time>2014-05-31T10:12:01Z</time>
      </trkpt>
      <trkpt lat="45.30833" lon="5.13881">
        <ele>378.74909362621</ele>
        <time>2014-05-31T10:12:06Z</time>
      </trkpt>
      <trkpt lat="45.30828" lon="5.13879">
        <ele>379.36504904938</ele>
        <time>2014-05-31T10:12:11Z</time>
      </trkpt>
      <trkpt lat="45.30823" lon="5.13876">
        <ele>379.36504904938</ele>
        <time>2014-05-31T10:12:16Z</time>
      </trkpt>
      <trkpt lat="45.30817" lon="5.13873">
        <ele>379.81523051366</ele>
        <time>2014-05-31T10:12:21Z</time>
      </trkpt>
      <trkpt lat="45.30811" lon="5.13869">
        <ele>379.81523051366</ele>
        <time>2014-05-31T10:12:26Z</time>
      </trkpt>
      <trkpt lat="45.30805" lon="5.13866">
        <ele>380.08127080165</ele>
        <time>2014-05-31T10:12:31Z</time>
      </trkpt>
      <trkpt lat="45.30798" lon="5.13862">
        <ele>380.08127080165</ele>
        <time>2014-05-31T10:12:36Z</time>
      </trkpt>
      <trkpt lat="45.30792" lon="5.13857">
        <ele>380.25273656521</ele>
        <time>2014-05-31T10:12:41Z</time>
      </trkpt>
      <trkpt lat="45.30785" lon="5.13853">
        <ele>380.25273656521</ele>
        <time>2014-05-31T10:12:46Z</time>
      </trkpt>
      <trkpt lat="45.30779" lon="5.1385">
        <ele>380.21682286739</ele>
        <time>2014-05-31T10:12:51Z</time>
      </trkpt>
      <trkpt lat="45.30772" lon="5.13846">
        <ele>380.21682286739</ele>
        <time>2014-05-31T10:12:56Z</time>
      </trkpt>
      <trkpt lat="45.30765" lon="5.13841">
        <ele>380.24645337421</ele>
        <time>2014-05-31T10:13:01Z</time>
      </trkpt>
      <trkpt lat="45.30759" lon="5.13838">
        <ele>380.24645337421</ele>
        <time>2014-05-31T10:13:06Z</time>
      </trkpt>
      <trkpt lat="45.30752" lon="5.13834">
        <ele>380.29187685243</ele>
        <time>2014-05-31T10:13:11Z</time>
      </trkpt>
      <trkpt lat="45.30745" lon="5.1383">
        <ele>380.29187685243</ele>
        <time>2014-05-31T10:13:16Z</time>
      </trkpt>
      <trkpt lat="45.30738" lon="5.13826">
        <ele>380.29241322133</ele>
        <time>2014-05-31T10:13:21Z</time>
      </trkpt>
      <trkpt lat="45.30731" lon="5.13822">
        <ele>380.29241322133</ele>
        <time>2014-05-31T10:13:26Z</time>
      </trkpt>
      <trkpt lat="45.30725" lon="5.13818">
        <ele>380.38667897982</ele>
        <time>2014-05-31T10:13:31Z</time>
      </trkpt>
      <trkpt lat="45.30718" lon="5.13814">
        <ele>380.38667897982</ele>
        <time>2014-05-31T10:13:36Z</time>
      </trkpt>
      <trkpt lat="45.30711" lon="5.13809">
        <ele>380.52259264851</ele>
        <time>2014-05-31T10:13:41Z</time>
      </trkpt>
      <trkpt lat="45.30705" lon="5.13804">
        <ele>380.52259264851</ele>
        <time>2014-05-31T10:13:46Z</time>
      </trkpt>
      <trkpt lat="45.30699" lon="5.138">
        <ele>380.48888818879</ele>
        <time>2014-05-31T10:13:51Z</time>
      </trkpt>
      <trkpt lat="45.30693" lon="5.13796">
        <ele>380.48888818879</ele>
        <time>2014-05-31T10:13:56Z</time>
      </trkpt>
      <trkpt lat="45.30688" lon="5.13792">
        <ele>380.13703384286</ele>
        <time>2014-05-31T10:14:01Z</time>
      </trkpt>
      <trkpt lat="45.3069" lon="5.13793">
        <ele>380.13703384286</ele>
        <time>2014-05-31T10:14:06Z</time>
      </trkpt>
      <trkpt lat="45.3069" lon="5.13794">
        <ele>380.13703384286</ele>
        <time>2014-05-31T10:14:11Z</time>
      </trkpt>
      <trkpt lat="45.3069" lon="5.13794">
        <ele>380.13703384286</ele>
        <time>2014-05-31T10:14:16Z</time>
      </trkpt>
      <trkpt lat="45.3069" lon="5.13793">
        <ele>380.13703384286</ele>
        <time>2014-05-31T10:14:21Z</time>
      </trkpt>
      <trkpt lat="45.30692" lon="5.13794">
        <ele>380.13703384286</ele>
        <time>2014-05-31T10:14:26Z</time>
      </trkpt>
      <trkpt lat="45.30698" lon="5.13797">
        <ele>379.67184404745</ele>
        <time>2014-05-31T10:14:31Z</time>
      </trkpt>
      <trkpt lat="45.30705" lon="5.13801">
        <ele>379.67184404745</ele>
        <time>2014-05-31T10:14:36Z</time>
      </trkpt>
      <trkpt lat="45.30712" lon="5.13806">
        <ele>379.19272582383</ele>
        <time>2014-05-31T10:14:41Z</time>
      </trkpt>
      <trkpt lat="45.30719" lon="5.13811">
        <ele>379.19272582383</ele>
        <time>2014-05-31T10:14:46Z</time>
      </trkpt>
      <trkpt lat="45.30727" lon="5.13816">
        <ele>378.52595968438</ele>
        <time>2014-05-31T10:14:51Z</time>
      </trkpt>
      <trkpt lat="45.30735" lon="5.13821">
        <ele>378.52595968438</ele>
        <time>2014-05-31T10:14:56Z</time>
      </trkpt>
      <trkpt lat="45.30743" lon="5.13825">
        <ele>377.85028322436</ele>
        <time>2014-05-31T10:15:01Z</time>
      </trkpt>
      <trkpt lat="45.30751" lon="5.1383">
        <ele>377.85028322436</ele>
        <time>2014-05-31T10:15:06Z</time>
      </trkpt>
      <trkpt lat="45.30758" lon="5.13835">
        <ele>377.08064144929</ele>
        <time>2014-05-31T10:15:11Z</time>
      </trkpt>
      <trkpt lat="45.30765" lon="5.13841">
        <ele>377.08064144929</ele>
        <time>2014-05-31T10:15:16Z</time>
      </trkpt>
      <trkpt lat="45.30773" lon="5.13845">
        <ele>376.47534307543</ele>
        <time>2014-05-31T10:15:21Z</time>
      </trkpt>
      <trkpt lat="45.30781" lon="5.13849">
        <ele>376.47534307543</ele>
        <time>2014-05-31T10:15:26Z</time>
      </trkpt>
      <trkpt lat="45.30788" lon="5.13854">
        <ele>375.77518178855</ele>
        <time>2014-05-31T10:15:31Z</time>
      </trkpt>
      <trkpt lat="45.30795" lon="5.13859">
        <ele>375.77518178855</ele>
        <time>2014-05-31T10:15:36Z</time>
      </trkpt>
      <trkpt lat="45.30802" lon="5.13863">
        <ele>375.45579371163</ele>
        <time>2014-05-31T10:15:41Z</time>
      </trkpt>
      <trkpt lat="45.30809" lon="5.13867">
        <ele>375.45579371163</ele>
        <time>2014-05-31T10:15:46Z</time>
      </trkpt>
      <trkpt lat="45.30816" lon="5.1387">
        <ele>375.29939472599</ele>
        <time>2014-05-31T10:15:51Z</time>
      </trkpt>
      <trkpt lat="45.3082" lon="5.13866">
        <ele>375.29939472599</ele>
        <time>2014-05-31T10:15:56Z</time>
      </trkpt>
      <trkpt lat="45.30818" lon="5.13856">
        <ele>375.1487387786</ele>
        <time>2014-05-31T10:16:01Z</time>
      </trkpt>
      <trkpt lat="45.30816" lon="5.13846">
        <ele>375.1487387786</ele>
        <time>2014-05-31T10:16:06Z</time>
      </trkpt>
      <trkpt lat="45.30815" lon="5.13835">
        <ele>375.00399244915</ele>
        <time>2014-05-31T10:16:11Z</time>
      </trkpt>
      <trkpt lat="45.30813" lon="5.13824">
        <ele>375.00399244915</ele>
        <time>2014-05-31T10:16:16Z</time>
      </trkpt>
      <trkpt lat="45.3081" lon="5.13813">
        <ele>374.87974750942</ele>
        <time>2014-05-31T10:16:21Z</time>
      </trkpt>
      <trkpt lat="45.30809" lon="5.13802">
        <ele>374.87974750942</ele>
        <time>2014-05-31T10:16:26Z</time>
      </trkpt>
      <trkpt lat="45.30807" lon="5.13792">
        <ele>374.86174723763</ele>
        <time>2014-05-31T10:16:31Z</time>
      </trkpt>
      <trkpt lat="45.30805" lon="5.13781">
        <ele>374.86174723763</ele>
        <time>2014-05-31T10:16:36Z</time>
      </trkpt>
      <trkpt lat="45.30803" lon="5.13771">
        <ele>374.84084562201</ele>
        <time>2014-05-31T10:16:41Z</time>
      </trkpt>
      <trkpt lat="45.30802" lon="5.1376">
        <ele>374.84084562201</ele>
        <time>2014-05-31T10:16:46Z</time>
      </trkpt>
      <trkpt lat="45.30804" lon="5.13749">
        <ele>374.84629717971</ele>
        <time>2014-05-31T10:16:51Z</time>
      </trkpt>
      <trkpt lat="45.30807" lon="5.13739">
        <ele>374.84629717971</ele>
        <time>2014-05-31T10:16:56Z</time>
      </trkpt>
      <trkpt lat="45.30811" lon="5.13729">
        <ele>374.74615996037</ele>
        <time>2014-05-31T10:17:01Z</time>
      </trkpt>
      <trkpt lat="45.30815" lon="5.13718">
        <ele>374.74615996037</ele>
        <time>2014-05-31T10:17:06Z</time>
      </trkpt>
      <trkpt lat="45.30819" lon="5.13708">
        <ele>374.67853788301</ele>
        <time>2014-05-31T10:17:11Z</time>
      </trkpt>
      <trkpt lat="45.30823" lon="5.13699">
        <ele>374.67853788301</ele>
        <time>2014-05-31T10:17:16Z</time>
      </trkpt>
      <trkpt lat="45.30828" lon="5.13689">
        <ele>374.61228908724</ele>
        <time>2014-05-31T10:17:21Z</time>
      </trkpt>
      <trkpt lat="45.30831" lon="5.13679">
        <ele>374.61228908724</ele>
        <time>2014-05-31T10:17:26Z</time>
      </trkpt>
      <trkpt lat="45.30835" lon="5.13669">
        <ele>374.57627575823</ele>
        <time>2014-05-31T10:17:31Z</time>
      </trkpt>
      <trkpt lat="45.30839" lon="5.1366">
        <ele>374.57627575823</ele>
        <time>2014-05-31T10:17:36Z</time>
      </trkpt>
      <trkpt lat="45.30844" lon="5.13652">
        <ele>374.42403094208</ele>
        <time>2014-05-31T10:17:41Z</time>
      </trkpt>
      <trkpt lat="45.30848" lon="5.13642">
        <ele>374.42403094208</ele>
        <time>2014-05-31T10:17:46Z</time>
      </trkpt>
      <trkpt lat="45.30852" lon="5.13633">
        <ele>374.1211845733</ele>
        <time>2014-05-31T10:17:51Z</time>
      </trkpt>
      <trkpt lat="45.30855" lon="5.13623">
        <ele>374.1211845733</ele>
        <time>2014-05-31T10:17:56Z</time>
      </trkpt>
      <trkpt lat="45.30859" lon="5.13614">
        <ele>373.73720534989</ele>
        <time>2014-05-31T10:18:01Z</time>
      </trkpt>
      <trkpt lat="45.30862" lon="5.13604">
        <ele>373.73720534989</ele>
        <time>2014-05-31T10:18:06Z</time>
      </trkpt>
      <trkpt lat="45.30865" lon="5.13594">
        <ele>373.39428841114</ele>
        <time>2014-05-31T10:18:11Z</time>
      </trkpt>
      <trkpt lat="45.30869" lon="5.13584">
        <ele>373.39428841114</ele>
        <time>2014-05-31T10:18:16Z</time>
      </trkpt>
      <trkpt lat="45.30872" lon="5.13574">
        <ele>373.1478188492</ele>
        <time>2014-05-31T10:18:21Z</time>
      </trkpt>
      <trkpt lat="45.30875" lon="5.13563">
        <ele>373.1478188492</ele>
        <time>2014-05-31T10:18:26Z</time>
      </trkpt>
      <trkpt lat="45.30877" lon="5.13552">
        <ele>372.87581328195</ele>
        <time>2014-05-31T10:18:31Z</time>
      </trkpt>
      <trkpt lat="45.3088" lon="5.13541">
        <ele>372.87581328195</ele>
        <time>2014-05-31T10:18:36Z</time>
      </trkpt>
      <trkpt lat="45.30881" lon="5.13529">
        <ele>372.52297192381</ele>
        <time>2014-05-31T10:18:41Z</time>
      </trkpt>
      <trkpt lat="45.30883" lon="5.13517">
        <ele>372.52297192381</ele>
        <time>2014-05-31T10:18:46Z</time>
      </trkpt>
      <trkpt lat="45.30884" lon="5.13505">
        <ele>372.41313848047</ele>
        <time>2014-05-31T10:18:51Z</time>
      </trkpt>
      <trkpt lat="45.30886" lon="5.13496">
        <ele>372.41313848047</ele>
        <time>2014-05-31T10:18:56Z</time>
      </trkpt>
      <trkpt lat="45.30887" lon="5.13487">
        <ele>371.9805370368</ele>
        <time>2014-05-31T10:19:01Z</time>
      </trkpt>
      <trkpt lat="45.30886" lon="5.13477">
        <ele>371.9805370368</ele>
        <time>2014-05-31T10:19:06Z</time>
      </trkpt>
      <trkpt lat="45.30886" lon="5.13468">
        <ele>371.26414624128</ele>
        <time>2014-05-31T10:19:11Z</time>
      </trkpt>
      <trkpt lat="45.30886" lon="5.13464">
        <ele>371.26414624128</ele>
        <time>2014-05-31T10:19:16Z</time>
      </trkpt>
      <trkpt lat="45.30887" lon="5.13456">
        <ele>371.26414624128</ele>
        <time>2014-05-31T10:19:21Z</time>
      </trkpt>
      <trkpt lat="45.30887" lon="5.13448">
        <ele>369.81054176475</ele>
        <time>2014-05-31T10:19:26Z</time>
      </trkpt>
      <trkpt lat="45.30886" lon="5.13438">
        <ele>369.81054176475</ele>
        <time>2014-05-31T10:19:31Z</time>
      </trkpt>
      <trkpt lat="45.30886" lon="5.1343">
        <ele>369.32161104508</ele>
        <time>2014-05-31T10:19:36Z</time>
      </trkpt>
      <trkpt lat="45.30886" lon="5.13419">
        <ele>369.32161104508</ele>
        <time>2014-05-31T10:19:41Z</time>
      </trkpt>
      <trkpt lat="45.30885" lon="5.13406">
        <ele>368.87658124687</ele>
        <time>2014-05-31T10:19:46Z</time>
      </trkpt>
      <trkpt lat="45.30884" lon="5.13394">
        <ele>368.87658124687</ele>
        <time>2014-05-31T10:19:51Z</time>
      </trkpt>
      <trkpt lat="45.30884" lon="5.13383">
        <ele>368.4730221798</ele>
        <time>2014-05-31T10:19:56Z</time>
      </trkpt>
      <trkpt lat="45.30884" lon="5.13373">
        <ele>368.4730221798</ele>
        <time>2014-05-31T10:20:01Z</time>
      </trkpt>
      <trkpt lat="45.30885" lon="5.13364">
        <ele>367.90659596406</ele>
        <time>2014-05-31T10:20:06Z</time>
      </trkpt>
      <trkpt lat="45.30885" lon="5.13354">
        <ele>367.90659596406</ele>
        <time>2014-05-31T10:20:11Z</time>
      </trkpt>
      <trkpt lat="45.30884" lon="5.13344">
        <ele>367.03166328689</ele>
        <time>2014-05-31T10:20:16Z</time>
      </trkpt>
      <trkpt lat="45.30883" lon="5.13335">
        <ele>367.03166328689</ele>
        <time>2014-05-31T10:20:21Z</time>
      </trkpt>
      <trkpt lat="45.30884" lon="5.13325">
        <ele>366.39206535768</ele>
        <time>2014-05-31T10:20:26Z</time>
      </trkpt>
      <trkpt lat="45.30884" lon="5.13315">
        <ele>366.39206535768</ele>
        <time>2014-05-31T10:20:31Z</time>
      </trkpt>
      <trkpt lat="45.30884" lon="5.13303">
        <ele>366.34673700182</ele>
        <time>2014-05-31T10:20:36Z</time>
      </trkpt>
      <trkpt lat="45.30882" lon="5.13293">
        <ele>366.34673700182</ele>
        <time>2014-05-31T10:20:41Z</time>
      </trkpt>
      <trkpt lat="45.30881" lon="5.13283">
        <ele>366.40431324548</ele>
        <time>2014-05-31T10:20:46Z</time>
      </trkpt>
      <trkpt lat="45.30879" lon="5.13273">
        <ele>366.40431324548</ele>
        <time>2014-05-31T10:20:51Z</time>
      </trkpt>
      <trkpt lat="45.30877" lon="5.13263">
        <ele>366.31117242307</ele>
        <time>2014-05-31T10:20:56Z</time>
      </trkpt>
      <trkpt lat="45.30877" lon="5.13256">
        <ele>366.31117242307</ele>
        <time>2014-05-31T10:21:01Z</time>
      </trkpt>
      <trkpt lat="45.30876" lon="5.13247">
        <ele>366.36643289647</ele>
        <time>2014-05-31T10:21:06Z</time>
      </trkpt>
      <trkpt lat="45.30875" lon="5.13238">
        <ele>366.36643289647</ele>
        <time>2014-05-31T10:21:11Z</time>
      </trkpt>
      <trkpt lat="45.30874" lon="5.1323">
        <ele>366.67367460883</ele>
        <time>2014-05-31T10:21:16Z</time>
      </trkpt>
      <trkpt lat="45.30873" lon="5.13222">
        <ele>366.67367460883</ele>
        <time>2014-05-31T10:21:21Z</time>
      </trkpt>
      <trkpt lat="45.30872" lon="5.13211">
        <ele>366.98196942922</ele>
        <time>2014-05-31T10:21:26Z</time>
      </trkpt>
      <trkpt lat="45.30873" lon="5.132">
        <ele>366.98196942922</ele>
        <time>2014-05-31T10:21:31Z</time>
      </trkpt>
      <trkpt lat="45.30873" lon="5.13187">
        <ele>367.33287563173</ele>
        <time>2014-05-31T10:21:36Z</time>
      </trkpt>
      <trkpt lat="45.30872" lon="5.13176">
        <ele>367.33287563173</ele>
        <time>2014-05-31T10:21:41Z</time>
      </trkpt>
      <trkpt lat="45.30872" lon="5.13165">
        <ele>367.38979909205</ele>
        <time>2014-05-31T10:21:46Z</time>
      </trkpt>
      <trkpt lat="45.30873" lon="5.13156">
        <ele>367.38979909205</ele>
        <time>2014-05-31T10:21:51Z</time>
      </trkpt>
      <trkpt lat="45.30874" lon="5.13147">
        <ele>367.21671330342</ele>
        <time>2014-05-31T10:21:56Z</time>
      </trkpt>
      <trkpt lat="45.30874" lon="5.13138">
        <ele>367.21671330342</ele>
        <time>2014-05-31T10:22:01Z</time>
      </trkpt>
      <trkpt lat="45.30873" lon="5.13132">
        <ele>367.11867148191</ele>
        <time>2014-05-31T10:22:06Z</time>
      </trkpt>
      <trkpt lat="45.30874" lon="5.13124">
        <ele>367.11867148191</ele>
        <time>2014-05-31T10:22:11Z</time>
      </trkpt>
      <trkpt lat="45.30874" lon="5.13113">
        <ele>367.0031339702</ele>
        <time>2014-05-31T10:22:16Z</time>
      </trkpt>
      <trkpt lat="45.30873" lon="5.13103">
        <ele>367.0031339702</ele>
        <time>2014-05-31T10:22:21Z</time>
      </trkpt>
      <trkpt lat="45.30871" lon="5.13093">
        <ele>366.78443114789</ele>
        <time>2014-05-31T10:22:26Z</time>
      </trkpt>
      <trkpt lat="45.30871" lon="5.13091">
        <ele>366.78443114789</ele>
        <time>2014-05-31T10:22:31Z</time>
      </trkpt>
      <trkpt lat="45.30871" lon="5.13082">
        <ele>366.78443114789</ele>
        <time>2014-05-31T10:22:36Z</time>
      </trkpt>
      <trkpt lat="45.30871" lon="5.13073">
        <ele>366.26815284977</ele>
        <time>2014-05-31T10:22:41Z</time>
      </trkpt>
      <trkpt lat="45.30869" lon="5.13064">
        <ele>366.26815284977</ele>
        <time>2014-05-31T10:22:46Z</time>
      </trkpt>
      <trkpt lat="45.30872" lon="5.13052">
        <ele>365.98149749868</ele>
        <time>2014-05-31T10:22:51Z</time>
      </trkpt>
      <trkpt lat="45.30874" lon="5.1304">
        <ele>365.98149749868</ele>
        <time>2014-05-31T10:22:56Z</time>
      </trkpt>
      <trkpt lat="45.30876" lon="5.13029">
        <ele>365.70577190476</ele>
        <time>2014-05-31T10:23:01Z</time>
      </trkpt>
      <trkpt lat="45.30878" lon="5.13018">
        <ele>365.70577190476</ele>
        <time>2014-05-31T10:23:06Z</time>
      </trkpt>
      <trkpt lat="45.30878" lon="5.13007">
        <ele>365.39693776006</ele>
        <time>2014-05-31T10:23:11Z</time>
      </trkpt>
      <trkpt lat="45.30878" lon="5.12998">
        <ele>365.39693776006</ele>
        <time>2014-05-31T10:23:16Z</time>
      </trkpt>
      <trkpt lat="45.30878" lon="5.12987">
        <ele>364.92780105117</ele>
        <time>2014-05-31T10:23:21Z</time>
      </trkpt>
      <trkpt lat="45.30879" lon="5.12977">
        <ele>364.92780105117</ele>
        <time>2014-05-31T10:23:26Z</time>
      </trkpt>
      <trkpt lat="45.3088" lon="5.12967">
        <ele>364.87289113254</ele>
        <time>2014-05-31T10:23:31Z</time>
      </trkpt>
      <trkpt lat="45.30882" lon="5.12955">
        <ele>364.87289113254</ele>
        <time>2014-05-31T10:23:36Z</time>
      </trkpt>
      <trkpt lat="45.30882" lon="5.12943">
        <ele>364.92725975724</ele>
        <time>2014-05-31T10:23:41Z</time>
      </trkpt>
      <trkpt lat="45.30883" lon="5.12932">
        <ele>364.92725975724</ele>
        <time>2014-05-31T10:23:46Z</time>
      </trkpt>
      <trkpt lat="45.30883" lon="5.12922">
        <ele>364.86575655598</ele>
        <time>2014-05-31T10:23:51Z</time>
      </trkpt>
      <trkpt lat="45.30885" lon="5.12911">
        <ele>364.86575655598</ele>
        <time>2014-05-31T10:23:56Z</time>
      </trkpt>
      <trkpt lat="45.30884" lon="5.12901">
        <ele>364.84045978078</ele>
        <time>2014-05-31T10:24:01Z</time>
      </trkpt>
      <trkpt lat="45.30885" lon="5.12889">
        <ele>364.84045978078</ele>
        <time>2014-05-31T10:24:06Z</time>
      </trkpt>
      <trkpt lat="45.30886" lon="5.12878">
        <ele>364.71831601704</ele>
        <time>2014-05-31T10:24:11Z</time>
      </trkpt>
      <trkpt lat="45.30887" lon="5.12867">
        <ele>364.71831601704</ele>
        <time>2014-05-31T10:24:16Z</time>
      </trkpt>
      <trkpt lat="45.30889" lon="5.12857">
        <ele>364.63576296696</ele>
        <time>2014-05-31T10:24:21Z</time>
      </trkpt>
      <trkpt lat="45.30893" lon="5.12848">
        <ele>364.63576296696</ele>
        <time>2014-05-31T10:24:26Z</time>
      </trkpt>
      <trkpt lat="45.30899" lon="5.1284">
        <ele>364.47409077274</ele>
        <time>2014-05-31T10:24:31Z</time>
      </trkpt>
      <trkpt lat="45.30904" lon="5.12833">
        <ele>364.47409077274</ele>
        <time>2014-05-31T10:24:36Z</time>
      </trkpt>
      <trkpt lat="45.30908" lon="5.12825">
        <ele>364.26766853861</ele>
        <time>2014-05-31T10:24:41Z</time>
      </trkpt>
      <trkpt lat="45.30913" lon="5.12819">
        <ele>364.26766853861</ele>
        <time>2014-05-31T10:24:46Z</time>
      </trkpt>
      <trkpt lat="45.30917" lon="5.12815">
        <ele>363.76023401366</ele>
        <time>2014-05-31T10:24:51Z</time>
      </trkpt>
      <trkpt lat="45.30922" lon="5.12809">
        <ele>363.76023401366</ele>
        <time>2014-05-31T10:24:56Z</time>
      </trkpt>
      <trkpt lat="45.30927" lon="5.12803">
        <ele>363.47903109445</ele>
        <time>2014-05-31T10:25:01Z</time>
      </trkpt>
      <trkpt lat="45.30932" lon="5.12795">
        <ele>363.47903109445</ele>
        <time>2014-05-31T10:25:06Z</time>
      </trkpt>
      <trkpt lat="45.30937" lon="5.12788">
        <ele>363.11928792341</ele>
        <time>2014-05-31T10:25:11Z</time>
      </trkpt>
      <trkpt lat="45.30942" lon="5.1278">
        <ele>363.11928792341</ele>
        <time>2014-05-31T10:25:16Z</time>
      </trkpt>
      <trkpt lat="45.30947" lon="5.12773">
        <ele>362.7159082443</ele>
        <time>2014-05-31T10:25:21Z</time>
      </trkpt>
      <trkpt lat="45.30952" lon="5.12766">
        <ele>362.7159082443</ele>
        <time>2014-05-31T10:25:26Z</time>
      </trkpt>
      <trkpt lat="45.30957" lon="5.1276">
        <ele>362.34459037663</ele>
        <time>2014-05-31T10:25:31Z</time>
      </trkpt>
      <trkpt lat="45.30962" lon="5.12754">
        <ele>362.34459037663</ele>
        <time>2014-05-31T10:25:36Z</time>
      </trkpt>
      <trkpt lat="45.30966" lon="5.12747">
        <ele>361.80156773298</ele>
        <time>2014-05-31T10:25:41Z</time>
      </trkpt>
      <trkpt lat="45.30965" lon="5.1274">
        <ele>361.80156773298</ele>
        <time>2014-05-31T10:25:46Z</time>
      </trkpt>
      <trkpt lat="45.30959" lon="5.12735">
        <ele>361.74879206916</ele>
        <time>2014-05-31T10:25:51Z</time>
      </trkpt>
      <trkpt lat="45.30954" lon="5.12727">
        <ele>361.74879206916</ele>
        <time>2014-05-31T10:25:56Z</time>
      </trkpt>
      <trkpt lat="45.30952" lon="5.12716">
        <ele>361.84706709455</ele>
        <time>2014-05-31T10:26:01Z</time>
      </trkpt>
      <trkpt lat="45.30949" lon="5.12706">
        <ele>361.84706709455</ele>
        <time>2014-05-31T10:26:06Z</time>
      </trkpt>
      <trkpt lat="45.30946" lon="5.12696">
        <ele>362.22844306401</ele>
        <time>2014-05-31T10:26:11Z</time>
      </trkpt>
      <trkpt lat="45.30943" lon="5.12686">
        <ele>362.22844306401</ele>
        <time>2014-05-31T10:26:16Z</time>
      </trkpt>
      <trkpt lat="45.3094" lon="5.12675">
        <ele>362.72625546064</ele>
        <time>2014-05-31T10:26:21Z</time>
      </trkpt>
      <trkpt lat="45.30938" lon="5.12665">
        <ele>362.72625546064</ele>
        <time>2014-05-31T10:26:26Z</time>
      </trkpt>
      <trkpt lat="45.30935" lon="5.12655">
        <ele>363.2578212845</ele>
        <time>2014-05-31T10:26:31Z</time>
      </trkpt>
      <trkpt lat="45.30931" lon="5.12646">
        <ele>363.2578212845</ele>
        <time>2014-05-31T10:26:36Z</time>
      </trkpt>
      <trkpt lat="45.30929" lon="5.12636">
        <ele>363.77527254588</ele>
        <time>2014-05-31T10:26:41Z</time>
      </trkpt>
      <trkpt lat="45.30927" lon="5.12625">
        <ele>363.77527254588</ele>
        <time>2014-05-31T10:26:46Z</time>
      </trkpt>
      <trkpt lat="45.30926" lon="5.12615">
        <ele>364.33519493908</ele>
        <time>2014-05-31T10:26:51Z</time>
      </trkpt>
      <trkpt lat="45.30924" lon="5.12604">
        <ele>364.33519493908</ele>
        <time>2014-05-31T10:26:56Z</time>
      </trkpt>
      <trkpt lat="45.30923" lon="5.12593">
        <ele>364.9322769911</ele>
        <time>2014-05-31T10:27:01Z</time>
      </trkpt>
      <trkpt lat="45.30922" lon="5.12582">
        <ele>364.9322769911</ele>
        <time>2014-05-31T10:27:06Z</time>
      </trkpt>
      <trkpt lat="45.30923" lon="5.12571">
        <ele>365.60475605593</ele>
        <time>2014-05-31T10:27:11Z</time>
      </trkpt>
      <trkpt lat="45.30925" lon="5.12562">
        <ele>365.60475605593</ele>
        <time>2014-05-31T10:27:16Z</time>
      </trkpt>
      <trkpt lat="45.30927" lon="5.12552">
        <ele>366.1428887861</ele>
        <time>2014-05-31T10:27:21Z</time>
      </trkpt>
      <trkpt lat="45.30928" lon="5.12542">
        <ele>366.1428887861</ele>
        <time>2014-05-31T10:27:26Z</time>
      </trkpt>
      <trkpt lat="45.3093" lon="5.12531">
        <ele>366.65539275668</ele>
        <time>2014-05-31T10:27:31Z</time>
      </trkpt>
      <trkpt lat="45.30932" lon="5.1252">
        <ele>366.65539275668</ele>
        <time>2014-05-31T10:27:36Z</time>
      </trkpt>
      <trkpt lat="45.30933" lon="5.1251">
        <ele>366.94047195242</ele>
        <time>2014-05-31T10:27:41Z</time>
      </trkpt>
      <trkpt lat="45.30936" lon="5.125">
        <ele>366.94047195242</ele>
        <time>2014-05-31T10:27:46Z</time>
      </trkpt>
      <trkpt lat="45.30937" lon="5.1249">
        <ele>366.95594881682</ele>
        <time>2014-05-31T10:27:51Z</time>
      </trkpt>
      <trkpt lat="45.30939" lon="5.1248">
        <ele>366.95594881682</ele>
        <time>2014-05-31T10:27:56Z</time>
      </trkpt>
      <trkpt lat="45.3094" lon="5.1247">
        <ele>366.72118909031</ele>
        <time>2014-05-31T10:28:01Z</time>
      </trkpt>
      <trkpt lat="45.30941" lon="5.12459">
        <ele>366.72118909031</ele>
        <time>2014-05-31T10:28:06Z</time>
      </trkpt>
      <trkpt lat="45.30942" lon="5.12449">
        <ele>366.80251604301</ele>
        <time>2014-05-31T10:28:11Z</time>
      </trkpt>
      <trkpt lat="45.30943" lon="5.12439">
        <ele>366.80251604301</ele>
        <time>2014-05-31T10:28:16Z</time>
      </trkpt>
      <trkpt lat="45.30944" lon="5.1243">
        <ele>366.88793788736</ele>
        <time>2014-05-31T10:28:21Z</time>
      </trkpt>
      <trkpt lat="45.30943" lon="5.1242">
        <ele>366.88793788736</ele>
        <time>2014-05-31T10:28:26Z</time>
      </trkpt>
      <trkpt lat="45.30939" lon="5.12412">
        <ele>367.00546050993</ele>
        <time>2014-05-31T10:28:31Z</time>
      </trkpt>
      <trkpt lat="45.30935" lon="5.12404">
        <ele>367.00546050993</ele>
        <time>2014-05-31T10:28:36Z</time>
      </trkpt>
      <trkpt lat="45.30931" lon="5.12398">
        <ele>367.13774392343</ele>
        <time>2014-05-31T10:28:41Z</time>
      </trkpt>
      <trkpt lat="45.30928" lon="5.12391">
        <ele>367.13774392343</ele>
        <time>2014-05-31T10:28:46Z</time>
      </trkpt>
      <trkpt lat="45.30927" lon="5.12385">
        <ele>366.87960497647</ele>
        <time>2014-05-31T10:28:51Z</time>
      </trkpt>
      <trkpt lat="45.30926" lon="5.1238">
        <ele>366.87960497647</ele>
        <time>2014-05-31T10:28:56Z</time>
      </trkpt>
      <trkpt lat="45.30924" lon="5.12372">
        <ele>366.83673400641</ele>
        <time>2014-05-31T10:29:01Z</time>
      </trkpt>
      <trkpt lat="45.30921" lon="5.12363">
        <ele>366.83673400641</ele>
        <time>2014-05-31T10:29:06Z</time>
      </trkpt>
      <trkpt lat="45.30918" lon="5.12353">
        <ele>366.92123635623</ele>
        <time>2014-05-31T10:29:11Z</time>
      </trkpt>
      <trkpt lat="45.30918" lon="5.12343">
        <ele>366.92123635623</ele>
        <time>2014-05-31T10:29:16Z</time>
      </trkpt>
      <trkpt lat="45.30919" lon="5.12329">
        <ele>366.20106928873</ele>
        <time>2014-05-31T10:29:21Z</time>
      </trkpt>
      <trkpt lat="45.3092" lon="5.12316">
        <ele>366.20106928873</ele>
        <time>2014-05-31T10:29:26Z</time>
      </trkpt>
      <trkpt lat="45.30922" lon="5.12305">
        <ele>365.4866674653</ele>
        <time>2014-05-31T10:29:31Z</time>
      </trkpt>
      <trkpt lat="45.30924" lon="5.12294">
        <ele>365.4866674653</ele>
        <time>2014-05-31T10:29:36Z</time>
      </trkpt>
      <trkpt lat="45.30926" lon="5.12283">
        <ele>364.69306724092</ele>
        <time>2014-05-31T10:29:41Z</time>
      </trkpt>
      <trkpt lat="45.30928" lon="5.12272">
        <ele>364.69306724092</ele>
        <time>2014-05-31T10:29:46Z</time>
      </trkpt>
      <trkpt lat="45.3093" lon="5.12262">
        <ele>363.91471691119</ele>
        <time>2014-05-31T10:29:51Z</time>
      </trkpt>
      <trkpt lat="45.30932" lon="5.12252">
        <ele>363.91471691119</ele>
        <time>2014-05-31T10:29:56Z</time>
      </trkpt>
      <trkpt lat="45.30934" lon="5.12242">
        <ele>363.15261936156</ele>
        <time>2014-05-31T10:30:01Z</time>
      </trkpt>
      <trkpt lat="45.30935" lon="5.12232">
        <ele>363.15261936156</ele>
        <time>2014-05-31T10:30:06Z</time>
      </trkpt>
      <trkpt lat="45.30936" lon="5.12221">
        <ele>362.45088991851</ele>
        <time>2014-05-31T10:30:11Z</time>
      </trkpt>
      <trkpt lat="45.30938" lon="5.1221">
        <ele>362.45088991851</ele>
        <time>2014-05-31T10:30:16Z</time>
      </trkpt>
      <trkpt lat="45.30939" lon="5.12199">
        <ele>362.08080701762</ele>
        <time>2014-05-31T10:30:21Z</time>
      </trkpt>
      <trkpt lat="45.3094" lon="5.12152">
        <ele>362.08004816126</ele>
        <time>2014-05-31T10:30:59Z</time>
      </trkpt>
      <trkpt lat="45.30942" lon="5.12146">
        <ele>362.08004816126</ele>
        <time>2014-05-31T10:31:04Z</time>
      </trkpt>
      <trkpt lat="45.30944" lon="5.12135">
        <ele>362.20831921628</ele>
        <time>2014-05-31T10:31:09Z</time>
      </trkpt>
      <trkpt lat="45.30945" lon="5.12126">
        <ele>362.20831921628</ele>
        <time>2014-05-31T10:31:14Z</time>
      </trkpt>
      <trkpt lat="45.30947" lon="5.12116">
        <ele>364.05672171031</ele>
        <time>2014-05-31T10:31:19Z</time>
      </trkpt>
      <trkpt lat="45.30947" lon="5.12105">
        <ele>364.05672171031</ele>
        <time>2014-05-31T10:31:24Z</time>
      </trkpt>
      <trkpt lat="45.30949" lon="5.12094">
        <ele>365.9618299892</ele>
        <time>2014-05-31T10:31:29Z</time>
      </trkpt>
      <trkpt lat="45.3095" lon="5.12083">
        <ele>365.9618299892</ele>
        <time>2014-05-31T10:31:34Z</time>
      </trkpt>
      <trkpt lat="45.3095" lon="5.12075">
        <ele>367.80578396993</ele>
        <time>2014-05-31T10:31:39Z</time>
      </trkpt>
      <trkpt lat="45.30953" lon="5.12065">
        <ele>367.80578396993</ele>
        <time>2014-05-31T10:31:44Z</time>
      </trkpt>
      <trkpt lat="45.30955" lon="5.12052">
        <ele>369.1844102595</ele>
        <time>2014-05-31T10:31:49Z</time>
      </trkpt>
      <trkpt lat="45.30956" lon="5.12039">
        <ele>370.42629318418</ele>
        <time>2014-05-31T10:31:54Z</time>
      </trkpt>
      <trkpt lat="45.30962" lon="5.1203">
        <ele>370.42629318418</ele>
        <time>2014-05-31T10:32:00Z</time>
      </trkpt>
      <trkpt lat="45.30967" lon="5.12026">
        <ele>371.48569150854</ele>
        <time>2014-05-31T10:32:04Z</time>
      </trkpt>
      <trkpt lat="45.30974" lon="5.12023">
        <ele>371.48569150854</ele>
        <time>2014-05-31T10:32:09Z</time>
      </trkpt>
      <trkpt lat="45.30981" lon="5.12018">
        <ele>372.18982729165</ele>
        <time>2014-05-31T10:32:14Z</time>
      </trkpt>
      <trkpt lat="45.30987" lon="5.12014">
        <ele>372.18982729165</ele>
        <time>2014-05-31T10:32:19Z</time>
      </trkpt>
      <trkpt lat="45.30994" lon="5.1201">
        <ele>372.60701774948</ele>
        <time>2014-05-31T10:32:24Z</time>
      </trkpt>
      <trkpt lat="45.31002" lon="5.12004">
        <ele>372.60701774948</ele>
        <time>2014-05-31T10:32:29Z</time>
      </trkpt>
      <trkpt lat="45.31007" lon="5.11998">
        <ele>372.71689061379</ele>
        <time>2014-05-31T10:32:34Z</time>
      </trkpt>
      <trkpt lat="45.31011" lon="5.11988">
        <ele>372.71689061379</ele>
        <time>2014-05-31T10:32:39Z</time>
      </trkpt>
      <trkpt lat="45.31014" lon="5.11978">
        <ele>372.33479924414</ele>
        <time>2014-05-31T10:32:44Z</time>
      </trkpt>
      <trkpt lat="45.31017" lon="5.11968">
        <ele>372.33479924414</ele>
        <time>2014-05-31T10:32:49Z</time>
      </trkpt>
      <trkpt lat="45.3102" lon="5.11958">
        <ele>371.60543878915</ele>
        <time>2014-05-31T10:32:54Z</time>
      </trkpt>
      <trkpt lat="45.31023" lon="5.11946">
        <ele>371.60543878915</ele>
        <time>2014-05-31T10:32:59Z</time>
      </trkpt>
      <trkpt lat="45.31025" lon="5.11939">
        <ele>370.68757061392</ele>
        <time>2014-05-31T10:33:04Z</time>
      </trkpt>
      <trkpt lat="45.31028" lon="5.1193">
        <ele>370.68757061392</ele>
        <time>2014-05-31T10:33:09Z</time>
      </trkpt>
      <trkpt lat="45.31034" lon="5.1191">
        <ele>369.91154169227</ele>
        <time>2014-05-31T10:33:14Z</time>
      </trkpt>
      <trkpt lat="45.31044" lon="5.11876">
        <ele>369.10890794354</ele>
        <time>2014-05-31T10:33:19Z</time>
      </trkpt>
      <trkpt lat="45.31052" lon="5.11845">
        <ele>368.27207871642</ele>
        <time>2014-05-31T10:33:24Z</time>
      </trkpt>
      <trkpt lat="45.31063" lon="5.11814">
        <ele>367.40693506912</ele>
        <time>2014-05-31T10:33:29Z</time>
      </trkpt>
      <trkpt lat="45.31079" lon="5.11788">
        <ele>366.67454137569</ele>
        <time>2014-05-31T10:33:34Z</time>
      </trkpt>
      <trkpt lat="45.31088" lon="5.11777">
        <ele>365.85070078362</ele>
        <time>2014-05-31T10:33:39Z</time>
      </trkpt>
      <trkpt lat="45.31094" lon="5.11769">
        <ele>365.85070078362</ele>
        <time>2014-05-31T10:33:44Z</time>
      </trkpt>
      <trkpt lat="45.311" lon="5.11761">
        <ele>365.00050521037</ele>
        <time>2014-05-31T10:33:49Z</time>
      </trkpt>
      <trkpt lat="45.31106" lon="5.11754">
        <ele>365.00050521037</ele>
        <time>2014-05-31T10:33:54Z</time>
      </trkpt>
      <trkpt lat="45.31111" lon="5.11746">
        <ele>364.22434899076</ele>
        <time>2014-05-31T10:33:59Z</time>
      </trkpt>
      <trkpt lat="45.31116" lon="5.11738">
        <ele>364.22434899076</ele>
        <time>2014-05-31T10:34:04Z</time>
      </trkpt>
      <trkpt lat="45.3112" lon="5.11729">
        <ele>363.41294597842</ele>
        <time>2014-05-31T10:34:09Z</time>
      </trkpt>
      <trkpt lat="45.31125" lon="5.1172">
        <ele>363.41294597842</ele>
        <time>2014-05-31T10:34:14Z</time>
      </trkpt>
      <trkpt lat="45.31129" lon="5.11712">
        <ele>362.55812250304</ele>
        <time>2014-05-31T10:34:19Z</time>
      </trkpt>
      <trkpt lat="45.31133" lon="5.11703">
        <ele>362.55812250304</ele>
        <time>2014-05-31T10:34:24Z</time>
      </trkpt>
      <trkpt lat="45.31137" lon="5.11694">
        <ele>361.68076274228</ele>
        <time>2014-05-31T10:34:29Z</time>
      </trkpt>
      <trkpt lat="45.31142" lon="5.11685">
        <ele>361.68076274228</ele>
        <time>2014-05-31T10:34:34Z</time>
      </trkpt>
      <trkpt lat="45.31147" lon="5.11676">
        <ele>360.82715432572</ele>
        <time>2014-05-31T10:34:39Z</time>
      </trkpt>
      <trkpt lat="45.31151" lon="5.11667">
        <ele>360.82715432572</ele>
        <time>2014-05-31T10:34:44Z</time>
      </trkpt>
      <trkpt lat="45.31155" lon="5.11658">
        <ele>359.93800151022</ele>
        <time>2014-05-31T10:34:49Z</time>
      </trkpt>
      <trkpt lat="45.3116" lon="5.1165">
        <ele>359.93800151022</ele>
        <time>2014-05-31T10:34:54Z</time>
      </trkpt>
      <trkpt lat="45.31164" lon="5.1164">
        <ele>359.08700886033</ele>
        <time>2014-05-31T10:34:59Z</time>
      </trkpt>
      <trkpt lat="45.31169" lon="5.11631">
        <ele>359.08700886033</ele>
        <time>2014-05-31T10:35:04Z</time>
      </trkpt>
      <trkpt lat="45.31174" lon="5.11623">
        <ele>358.27015335922</ele>
        <time>2014-05-31T10:35:09Z</time>
      </trkpt>
      <trkpt lat="45.31178" lon="5.11615">
        <ele>358.27015335922</ele>
        <time>2014-05-31T10:35:14Z</time>
      </trkpt>
      <trkpt lat="45.31183" lon="5.11604">
        <ele>357.55365602672</ele>
        <time>2014-05-31T10:35:19Z</time>
      </trkpt>
      <trkpt lat="45.31187" lon="5.11597">
        <ele>357.55365602672</ele>
        <time>2014-05-31T10:35:24Z</time>
      </trkpt>
      <trkpt lat="45.31192" lon="5.11588">
        <ele>356.87330770539</ele>
        <time>2014-05-31T10:35:29Z</time>
      </trkpt>
      <trkpt lat="45.31196" lon="5.11579">
        <ele>356.87330770539</ele>
        <time>2014-05-31T10:35:34Z</time>
      </trkpt>
      <trkpt lat="45.31201" lon="5.11571">
        <ele>356.26779643024</ele>
        <time>2014-05-31T10:35:39Z</time>
      </trkpt>
      <trkpt lat="45.31206" lon="5.11561">
        <ele>356.26779643024</ele>
        <time>2014-05-31T10:35:44Z</time>
      </trkpt>
      <trkpt lat="45.3121" lon="5.11553">
        <ele>355.62075929453</ele>
        <time>2014-05-31T10:35:49Z</time>
      </trkpt>
      <trkpt lat="45.31214" lon="5.11544">
        <ele>355.62075929453</ele>
        <time>2014-05-31T10:35:54Z</time>
      </trkpt>
      <trkpt lat="45.31219" lon="5.11537">
        <ele>354.92161576848</ele>
        <time>2014-05-31T10:35:59Z</time>
      </trkpt>
      <trkpt lat="45.31222" lon="5.11528">
        <ele>354.92161576848</ele>
        <time>2014-05-31T10:36:04Z</time>
      </trkpt>
      <trkpt lat="45.31227" lon="5.1152">
        <ele>354.18857730075</ele>
        <time>2014-05-31T10:36:09Z</time>
      </trkpt>
      <trkpt lat="45.31228" lon="5.11511">
        <ele>354.18857730075</ele>
        <time>2014-05-31T10:36:14Z</time>
      </trkpt>
      <trkpt lat="45.31222" lon="5.11508">
        <ele>353.55116935262</ele>
        <time>2014-05-31T10:36:19Z</time>
      </trkpt>
      <trkpt lat="45.31214" lon="5.11507">
        <ele>353.55116935262</ele>
        <time>2014-05-31T10:36:24Z</time>
      </trkpt>
      <trkpt lat="45.31207" lon="5.11506">
        <ele>353.07562039649</ele>
        <time>2014-05-31T10:36:29Z</time>
      </trkpt>
      <trkpt lat="45.312" lon="5.11506">
        <ele>353.07562039649</ele>
        <time>2014-05-31T10:36:34Z</time>
      </trkpt>
      <trkpt lat="45.31191" lon="5.11506">
        <ele>352.54122765827</ele>
        <time>2014-05-31T10:36:39Z</time>
      </trkpt>
      <trkpt lat="45.31185" lon="5.11506">
        <ele>352.54122765827</ele>
        <time>2014-05-31T10:36:44Z</time>
      </trkpt>
      <trkpt lat="45.31178" lon="5.11505">
        <ele>351.96724706073</ele>
        <time>2014-05-31T10:36:49Z</time>
      </trkpt>
      <trkpt lat="45.31171" lon="5.11505">
        <ele>351.96724706073</ele>
        <time>2014-05-31T10:36:54Z</time>
      </trkpt>
      <trkpt lat="45.31163" lon="5.11506">
        <ele>351.32904747911</ele>
        <time>2014-05-31T10:36:59Z</time>
      </trkpt>
      <trkpt lat="45.31155" lon="5.11505">
        <ele>351.32904747911</ele>
        <time>2014-05-31T10:37:04Z</time>
      </trkpt>
      <trkpt lat="45.31147" lon="5.11504">
        <ele>350.84954196811</ele>
        <time>2014-05-31T10:37:09Z</time>
      </trkpt>
      <trkpt lat="45.31139" lon="5.11503">
        <ele>350.84954196811</ele>
        <time>2014-05-31T10:37:14Z</time>
      </trkpt>
      <trkpt lat="45.3113" lon="5.11502">
        <ele>350.71074523841</ele>
        <time>2014-05-31T10:37:19Z</time>
      </trkpt>
      <trkpt lat="45.31123" lon="5.115">
        <ele>350.71074523841</ele>
        <time>2014-05-31T10:37:24Z</time>
      </trkpt>
      <trkpt lat="45.31115" lon="5.11499">
        <ele>350.51179729218</ele>
        <time>2014-05-31T10:37:29Z</time>
      </trkpt>
      <trkpt lat="45.31107" lon="5.11499">
        <ele>350.51179729218</ele>
        <time>2014-05-31T10:37:34Z</time>
      </trkpt>
      <trkpt lat="45.31099" lon="5.11498">
        <ele>350.40407280167</ele>
        <time>2014-05-31T10:37:39Z</time>
      </trkpt>
      <trkpt lat="45.31091" lon="5.11497">
        <ele>350.40407280167</ele>
        <time>2014-05-31T10:37:44Z</time>
      </trkpt>
      <trkpt lat="45.31083" lon="5.11496">
        <ele>350.29283551398</ele>
        <time>2014-05-31T10:37:49Z</time>
      </trkpt>
      <trkpt lat="45.31076" lon="5.11496">
        <ele>350.29283551398</ele>
        <time>2014-05-31T10:37:54Z</time>
      </trkpt>
      <trkpt lat="45.31068" lon="5.11497">
        <ele>350.35685157735</ele>
        <time>2014-05-31T10:37:59Z</time>
      </trkpt>
      <trkpt lat="45.31059" lon="5.11498">
        <ele>350.40414744593</ele>
        <time>2014-05-31T10:38:04Z</time>
      </trkpt>
      <trkpt lat="45.31052" lon="5.11499">
        <ele>350.40414744593</ele>
        <time>2014-05-31T10:38:09Z</time>
      </trkpt>
      <trkpt lat="45.31045" lon="5.115">
        <ele>350.47983872668</ele>
        <time>2014-05-31T10:38:14Z</time>
      </trkpt>
      <trkpt lat="45.31037" lon="5.11501">
        <ele>350.47983872668</ele>
        <time>2014-05-31T10:38:19Z</time>
      </trkpt>
      <trkpt lat="45.3103" lon="5.11502">
        <ele>350.53569810081</ele>
        <time>2014-05-31T10:38:24Z</time>
      </trkpt>
      <trkpt lat="45.31021" lon="5.11503">
        <ele>350.53569810081</ele>
        <time>2014-05-31T10:38:29Z</time>
      </trkpt>
      <trkpt lat="45.31015" lon="5.11503">
        <ele>350.63240965475</ele>
        <time>2014-05-31T10:38:34Z</time>
      </trkpt>
      <trkpt lat="45.31007" lon="5.11504">
        <ele>350.63240965475</ele>
        <time>2014-05-31T10:38:39Z</time>
      </trkpt>
      <trkpt lat="45.30998" lon="5.11506">
        <ele>350.97709756665</ele>
        <time>2014-05-31T10:38:44Z</time>
      </trkpt>
      <trkpt lat="45.30993" lon="5.11507">
        <ele>350.97709756665</ele>
        <time>2014-05-31T10:38:49Z</time>
      </trkpt>
      <trkpt lat="45.30986" lon="5.11508">
        <ele>351.12643557689</ele>
        <time>2014-05-31T10:38:54Z</time>
      </trkpt>
      <trkpt lat="45.3098" lon="5.11509">
        <ele>351.12643557689</ele>
        <time>2014-05-31T10:38:59Z</time>
      </trkpt>
      <trkpt lat="45.30972" lon="5.11511">
        <ele>351.4563711449</ele>
        <time>2014-05-31T10:39:04Z</time>
      </trkpt>
      <trkpt lat="45.30964" lon="5.11513">
        <ele>351.4563711449</ele>
        <time>2014-05-31T10:39:09Z</time>
      </trkpt>
      <trkpt lat="45.30956" lon="5.11515">
        <ele>351.83036894474</ele>
        <time>2014-05-31T10:39:14Z</time>
      </trkpt>
      <trkpt lat="45.30949" lon="5.11519">
        <ele>351.83036894474</ele>
        <time>2014-05-31T10:39:19Z</time>
      </trkpt>
      <trkpt lat="45.30942" lon="5.1152">
        <ele>352.12247154243</ele>
        <time>2014-05-31T10:39:24Z</time>
      </trkpt>
      <trkpt lat="45.30934" lon="5.11522">
        <ele>352.12247154243</ele>
        <time>2014-05-31T10:39:29Z</time>
      </trkpt>
      <trkpt lat="45.30926" lon="5.11523">
        <ele>352.56348141505</ele>
        <time>2014-05-31T10:39:34Z</time>
      </trkpt>
      <trkpt lat="45.30919" lon="5.11524">
        <ele>352.56348141505</ele>
        <time>2014-05-31T10:39:39Z</time>
      </trkpt>
      <trkpt lat="45.30911" lon="5.11525">
        <ele>352.91410873972</ele>
        <time>2014-05-31T10:39:44Z</time>
      </trkpt>
      <trkpt lat="45.30902" lon="5.11527">
        <ele>353.19515078031</ele>
        <time>2014-05-31T10:39:49Z</time>
      </trkpt>
      <trkpt lat="45.30896" lon="5.1153">
        <ele>353.19515078031</ele>
        <time>2014-05-31T10:39:54Z</time>
      </trkpt>
      <trkpt lat="45.30896" lon="5.11531">
        <ele>353.19515078031</ele>
        <time>2014-05-31T10:39:59Z</time>
      </trkpt>
      <trkpt lat="45.30891" lon="5.11531">
        <ele>353.68043037223</ele>
        <time>2014-05-31T10:40:04Z</time>
      </trkpt>
      <trkpt lat="45.30883" lon="5.11532">
        <ele>353.68043037223</ele>
        <time>2014-05-31T10:40:09Z</time>
      </trkpt>
      <trkpt lat="45.30876" lon="5.11533">
        <ele>354.05288641166</ele>
        <time>2014-05-31T10:40:14Z</time>
      </trkpt>
      <trkpt lat="45.30871" lon="5.11534">
        <ele>354.05288641166</ele>
        <time>2014-05-31T10:40:19Z</time>
      </trkpt>
      <trkpt lat="45.30862" lon="5.11531">
        <ele>354.52891279824</ele>
        <time>2014-05-31T10:40:24Z</time>
      </trkpt>
      <trkpt lat="45.30857" lon="5.11528">
        <ele>354.52891279824</ele>
        <time>2014-05-31T10:40:29Z</time>
      </trkpt>
      <trkpt lat="45.30851" lon="5.11526">
        <ele>354.93501271347</ele>
        <time>2014-05-31T10:40:34Z</time>
      </trkpt>
      <trkpt lat="45.30845" lon="5.11524">
        <ele>354.93501271347</ele>
        <time>2014-05-31T10:40:39Z</time>
      </trkpt>
      <trkpt lat="45.30838" lon="5.1152">
        <ele>355.32003550256</ele>
        <time>2014-05-31T10:40:44Z</time>
      </trkpt>
      <trkpt lat="45.3083" lon="5.11517">
        <ele>355.32003550256</ele>
        <time>2014-05-31T10:40:49Z</time>
      </trkpt>
      <trkpt lat="45.30821" lon="5.11514">
        <ele>355.7288281932</ele>
        <time>2014-05-31T10:40:54Z</time>
      </trkpt>
      <trkpt lat="45.30816" lon="5.11513">
        <ele>355.7288281932</ele>
        <time>2014-05-31T10:40:59Z</time>
      </trkpt>
      <trkpt lat="45.30809" lon="5.1151">
        <ele>356.11397552222</ele>
        <time>2014-05-31T10:41:04Z</time>
      </trkpt>
      <trkpt lat="45.30801" lon="5.11509">
        <ele>356.11397552222</ele>
        <time>2014-05-31T10:41:09Z</time>
      </trkpt>
      <trkpt lat="45.30795" lon="5.11507">
        <ele>356.56452734694</ele>
        <time>2014-05-31T10:41:14Z</time>
      </trkpt>
      <trkpt lat="45.30788" lon="5.11505">
        <ele>356.56452734694</ele>
        <time>2014-05-31T10:41:19Z</time>
      </trkpt>
      <trkpt lat="45.30781" lon="5.11504">
        <ele>357.22072316132</ele>
        <time>2014-05-31T10:41:24Z</time>
      </trkpt>
      <trkpt lat="45.30775" lon="5.11503">
        <ele>357.22072316132</ele>
        <time>2014-05-31T10:41:29Z</time>
      </trkpt>
      <trkpt lat="45.30768" lon="5.11502">
        <ele>357.94712935573</ele>
        <time>2014-05-31T10:41:34Z</time>
      </trkpt>
      <trkpt lat="45.30761" lon="5.11498">
        <ele>357.94712935573</ele>
        <time>2014-05-31T10:41:39Z</time>
      </trkpt>
      <trkpt lat="45.30755" lon="5.11495">
        <ele>358.13693196012</ele>
        <time>2014-05-31T10:41:44Z</time>
      </trkpt>
      <trkpt lat="45.30751" lon="5.11491">
        <ele>358.13693196012</ele>
        <time>2014-05-31T10:41:49Z</time>
      </trkpt>
      <trkpt lat="45.30747" lon="5.11488">
        <ele>358.08021504909</ele>
        <time>2014-05-31T10:41:54Z</time>
      </trkpt>
      <trkpt lat="45.30743" lon="5.11485">
        <ele>358.08021504909</ele>
        <time>2014-05-31T10:41:59Z</time>
      </trkpt>
      <trkpt lat="45.30736" lon="5.11482">
        <ele>357.94218631422</ele>
        <time>2014-05-31T10:42:04Z</time>
      </trkpt>
      <trkpt lat="45.30732" lon="5.11478">
        <ele>357.94218631422</ele>
        <time>2014-05-31T10:42:09Z</time>
      </trkpt>
      <trkpt lat="45.30727" lon="5.11474">
        <ele>357.67139913413</ele>
        <time>2014-05-31T10:42:14Z</time>
      </trkpt>
      <trkpt lat="45.30722" lon="5.11466">
        <ele>357.67139913413</ele>
        <time>2014-05-31T10:42:19Z</time>
      </trkpt>
      <trkpt lat="45.30715" lon="5.11455">
        <ele>357.99047739319</ele>
        <time>2014-05-31T10:42:24Z</time>
      </trkpt>
      <trkpt lat="45.30713" lon="5.11448">
        <ele>357.99047739319</ele>
        <time>2014-05-31T10:42:29Z</time>
      </trkpt>
      <trkpt lat="45.30711" lon="5.11442">
        <ele>357.44621567747</ele>
        <time>2014-05-31T10:42:34Z</time>
      </trkpt>
      <trkpt lat="45.30709" lon="5.11435">
        <ele>357.44621567747</ele>
        <time>2014-05-31T10:42:39Z</time>
      </trkpt>
      <trkpt lat="45.30707" lon="5.11427">
        <ele>356.93226180948</ele>
        <time>2014-05-31T10:42:44Z</time>
      </trkpt>
      <trkpt lat="45.30705" lon="5.11419">
        <ele>356.93226180948</ele>
        <time>2014-05-31T10:42:49Z</time>
      </trkpt>
      <trkpt lat="45.30702" lon="5.1141">
        <ele>356.24509136617</ele>
        <time>2014-05-31T10:42:54Z</time>
      </trkpt>
      <trkpt lat="45.307" lon="5.11401">
        <ele>356.24509136617</ele>
        <time>2014-05-31T10:42:59Z</time>
      </trkpt>
      <trkpt lat="45.30699" lon="5.11393">
        <ele>355.862539309</ele>
        <time>2014-05-31T10:43:04Z</time>
      </trkpt>
      <trkpt lat="45.30697" lon="5.11384">
        <ele>355.862539309</ele>
        <time>2014-05-31T10:43:09Z</time>
      </trkpt>
      <trkpt lat="45.30695" lon="5.11369">
        <ele>356.16734372971</ele>
        <time>2014-05-31T10:43:14Z</time>
      </trkpt>
      <trkpt lat="45.30696" lon="5.11356">
        <ele>356.52943872223</ele>
        <time>2014-05-31T10:43:19Z</time>
      </trkpt>
      <trkpt lat="45.30695" lon="5.11345">
        <ele>356.52943872223</ele>
        <time>2014-05-31T10:43:24Z</time>
      </trkpt>
      <trkpt lat="45.30691" lon="5.11337">
        <ele>356.29417887227</ele>
        <time>2014-05-31T10:43:29Z</time>
      </trkpt>
      <trkpt lat="45.30688" lon="5.11331">
        <ele>356.29417887227</ele>
        <time>2014-05-31T10:43:34Z</time>
      </trkpt>
      <trkpt lat="45.30685" lon="5.11325">
        <ele>354.79992689561</ele>
        <time>2014-05-31T10:43:39Z</time>
      </trkpt>
      <trkpt lat="45.30681" lon="5.11317">
        <ele>354.79992689561</ele>
        <time>2014-05-31T10:43:44Z</time>
      </trkpt>
      <trkpt lat="45.30679" lon="5.11309">
        <ele>352.86585114043</ele>
        <time>2014-05-31T10:43:49Z</time>
      </trkpt>
      <trkpt lat="45.30676" lon="5.11299">
        <ele>352.86585114043</ele>
        <time>2014-05-31T10:43:54Z</time>
      </trkpt>
      <trkpt lat="45.30673" lon="5.11291">
        <ele>350.03958826973</ele>
        <time>2014-05-31T10:43:59Z</time>
      </trkpt>
      <trkpt lat="45.30671" lon="5.11283">
        <ele>350.03958826973</ele>
        <time>2014-05-31T10:44:04Z</time>
      </trkpt>
      <trkpt lat="45.30669" lon="5.11275">
        <ele>347.20250452943</ele>
        <time>2014-05-31T10:44:09Z</time>
      </trkpt>
      <trkpt lat="45.30667" lon="5.11266">
        <ele>347.20250452943</ele>
        <time>2014-05-31T10:44:14Z</time>
      </trkpt>
      <trkpt lat="45.30664" lon="5.1126">
        <ele>344.40649602299</ele>
        <time>2014-05-31T10:44:19Z</time>
      </trkpt>
      <trkpt lat="45.30662" lon="5.11253">
        <ele>344.40649602299</ele>
        <time>2014-05-31T10:44:24Z</time>
      </trkpt>
      <trkpt lat="45.3066" lon="5.11246">
        <ele>340.87769134912</ele>
        <time>2014-05-31T10:44:29Z</time>
      </trkpt>
      <trkpt lat="45.30657" lon="5.11237">
        <ele>340.87769134912</ele>
        <time>2014-05-31T10:44:34Z</time>
      </trkpt>
      <trkpt lat="45.30653" lon="5.11227">
        <ele>337.93406164536</ele>
        <time>2014-05-31T10:44:39Z</time>
      </trkpt>
      <trkpt lat="45.30649" lon="5.11217">
        <ele>337.93406164536</ele>
        <time>2014-05-31T10:44:44Z</time>
      </trkpt>
      <trkpt lat="45.30647" lon="5.11209">
        <ele>334.64671386237</ele>
        <time>2014-05-31T10:44:49Z</time>
      </trkpt>
      <trkpt lat="45.30645" lon="5.11204">
        <ele>334.64671386237</ele>
        <time>2014-05-31T10:44:54Z</time>
      </trkpt>
      <trkpt lat="45.30643" lon="5.11199">
        <ele>334.64671386237</ele>
        <time>2014-05-31T10:44:59Z</time>
      </trkpt>
      <trkpt lat="45.3064" lon="5.11192">
        <ele>330.96328119792</ele>
        <time>2014-05-31T10:45:04Z</time>
      </trkpt>
      <trkpt lat="45.30637" lon="5.11185">
        <ele>330.96328119792</ele>
        <time>2014-05-31T10:45:09Z</time>
      </trkpt>
      <trkpt lat="45.30635" lon="5.11175">
        <ele>327.2399343952</ele>
        <time>2014-05-31T10:45:14Z</time>
      </trkpt>
      <trkpt lat="45.30633" lon="5.11163">
        <ele>327.2399343952</ele>
        <time>2014-05-31T10:45:19Z</time>
      </trkpt>
      <trkpt lat="45.3063" lon="5.1115">
        <ele>324.31136718257</ele>
        <time>2014-05-31T10:45:24Z</time>
      </trkpt>
      <trkpt lat="45.30628" lon="5.11135">
        <ele>322.31419945441</ele>
        <time>2014-05-31T10:45:29Z</time>
      </trkpt>
      <trkpt lat="45.30624" lon="5.11115">
        <ele>321.18477089274</ele>
        <time>2014-05-31T10:45:34Z</time>
      </trkpt>
      <trkpt lat="45.30621" lon="5.11104">
        <ele>321.18477089274</ele>
        <time>2014-05-31T10:45:39Z</time>
      </trkpt>
      <trkpt lat="45.3062" lon="5.11092">
        <ele>320.39995508504</ele>
        <time>2014-05-31T10:45:44Z</time>
      </trkpt>
      <trkpt lat="45.30619" lon="5.11082">
        <ele>320.39995508504</ele>
        <time>2014-05-31T10:45:49Z</time>
      </trkpt>
      <trkpt lat="45.30617" lon="5.11071">
        <ele>320.09399572677</ele>
        <time>2014-05-31T10:45:54Z</time>
      </trkpt>
      <trkpt lat="45.30614" lon="5.11057">
        <ele>320.37533520775</ele>
        <time>2014-05-31T10:45:59Z</time>
      </trkpt>
      <trkpt lat="45.30609" lon="5.11016">
        <ele>320.67914018749</ele>
        <time>2014-05-31T10:46:04Z</time>
      </trkpt>
      <trkpt lat="45.30605" lon="5.10983">
        <ele>321.37612819497</ele>
        <time>2014-05-31T10:46:09Z</time>
      </trkpt>
      <trkpt lat="45.30601" lon="5.10932">
        <ele>322.37582855125</ele>
        <time>2014-05-31T10:46:14Z</time>
      </trkpt>
      <trkpt lat="45.30597" lon="5.10901">
        <ele>323.91079845744</ele>
        <time>2014-05-31T10:46:19Z</time>
      </trkpt>
      <trkpt lat="45.30592" lon="5.10863">
        <ele>325.87757374875</ele>
        <time>2014-05-31T10:46:24Z</time>
      </trkpt>
      <trkpt lat="45.3059" lon="5.10846">
        <ele>328.3521182761</ele>
        <time>2014-05-31T10:46:29Z</time>
      </trkpt>
      <trkpt lat="45.30587" lon="5.10832">
        <ele>330.69658289648</ele>
        <time>2014-05-31T10:46:34Z</time>
      </trkpt>
      <trkpt lat="45.30587" lon="5.10828">
        <ele>330.69658289648</ele>
        <time>2014-05-31T10:46:39Z</time>
      </trkpt>
      <trkpt lat="45.30586" lon="5.10821">
        <ele>330.69658289648</ele>
        <time>2014-05-31T10:46:44Z</time>
      </trkpt>
      <trkpt lat="45.30584" lon="5.10808">
        <ele>332.73872252198</ele>
        <time>2014-05-31T10:46:49Z</time>
      </trkpt>
      <trkpt lat="45.30583" lon="5.10792">
        <ele>334.89678635117</ele>
        <time>2014-05-31T10:46:54Z</time>
      </trkpt>
      <trkpt lat="45.30582" lon="5.10783">
        <ele>334.89678635117</ele>
        <time>2014-05-31T10:46:59Z</time>
      </trkpt>
      <trkpt lat="45.3058" lon="5.10771">
        <ele>336.7358847126</ele>
        <time>2014-05-31T10:47:04Z</time>
      </trkpt>
      <trkpt lat="45.30578" lon="5.10759">
        <ele>338.90692330008</ele>
        <time>2014-05-31T10:47:09Z</time>
      </trkpt>
      <trkpt lat="45.30575" lon="5.10747">
        <ele>338.90692330008</ele>
        <time>2014-05-31T10:47:14Z</time>
      </trkpt>
      <trkpt lat="45.30574" lon="5.10736">
        <ele>340.75739092509</ele>
        <time>2014-05-31T10:47:19Z</time>
      </trkpt>
      <trkpt lat="45.30573" lon="5.10729">
        <ele>340.75739092509</ele>
        <time>2014-05-31T10:47:24Z</time>
      </trkpt>
      <trkpt lat="45.30572" lon="5.10718">
        <ele>342.46255639347</ele>
        <time>2014-05-31T10:47:29Z</time>
      </trkpt>
      <trkpt lat="45.30571" lon="5.10706">
        <ele>342.46255639347</ele>
        <time>2014-05-31T10:47:34Z</time>
      </trkpt>
      <trkpt lat="45.3057" lon="5.10695">
        <ele>343.88249444913</ele>
        <time>2014-05-31T10:47:39Z</time>
      </trkpt>
      <trkpt lat="45.30568" lon="5.10684">
        <ele>343.88249444913</ele>
        <time>2014-05-31T10:47:44Z</time>
      </trkpt>
      <trkpt lat="45.30567" lon="5.10672">
        <ele>345.24899031566</ele>
        <time>2014-05-31T10:47:49Z</time>
      </trkpt>
      <trkpt lat="45.30565" lon="5.10664">
        <ele>345.24899031566</ele>
        <time>2014-05-31T10:47:54Z</time>
      </trkpt>
      <trkpt lat="45.30563" lon="5.10655">
        <ele>346.47425927223</ele>
        <time>2014-05-31T10:47:59Z</time>
      </trkpt>
      <trkpt lat="45.30561" lon="5.10648">
        <ele>346.47425927223</ele>
        <time>2014-05-31T10:48:04Z</time>
      </trkpt>
      <trkpt lat="45.30559" lon="5.10638">
        <ele>347.20359027988</ele>
        <time>2014-05-31T10:48:09Z</time>
      </trkpt>
      <trkpt lat="45.30557" lon="5.10629">
        <ele>347.20359027988</ele>
        <time>2014-05-31T10:48:14Z</time>
      </trkpt>
      <trkpt lat="45.30554" lon="5.10618">
        <ele>347.67218047389</ele>
        <time>2014-05-31T10:48:19Z</time>
      </trkpt>
      <trkpt lat="45.30552" lon="5.10609">
        <ele>347.67218047389</ele>
        <time>2014-05-31T10:48:24Z</time>
      </trkpt>
      <trkpt lat="45.30549" lon="5.106">
        <ele>347.82486908689</ele>
        <time>2014-05-31T10:48:29Z</time>
      </trkpt>
      <trkpt lat="45.30547" lon="5.10589">
        <ele>347.82486908689</ele>
        <time>2014-05-31T10:48:34Z</time>
      </trkpt>
      <trkpt lat="45.30545" lon="5.10579">
        <ele>347.68365329167</ele>
        <time>2014-05-31T10:48:39Z</time>
      </trkpt>
      <trkpt lat="45.30543" lon="5.10567">
        <ele>347.68365329167</ele>
        <time>2014-05-31T10:48:44Z</time>
      </trkpt>
      <trkpt lat="45.30542" lon="5.10559">
        <ele>347.4140089514</ele>
        <time>2014-05-31T10:48:49Z</time>
      </trkpt>
      <trkpt lat="45.30541" lon="5.10549">
        <ele>347.4140089514</ele>
        <time>2014-05-31T10:48:54Z</time>
      </trkpt>
      <trkpt lat="45.30539" lon="5.10539">
        <ele>347.11205328471</ele>
        <time>2014-05-31T10:48:59Z</time>
      </trkpt>
      <trkpt lat="45.30536" lon="5.1053">
        <ele>347.11205328471</ele>
        <time>2014-05-31T10:49:04Z</time>
      </trkpt>
      <trkpt lat="45.30533" lon="5.10521">
        <ele>346.62199785796</ele>
        <time>2014-05-31T10:49:09Z</time>
      </trkpt>
      <trkpt lat="45.30531" lon="5.10515">
        <ele>346.62199785796</ele>
        <time>2014-05-31T10:49:14Z</time>
      </trkpt>
      <trkpt lat="45.30527" lon="5.10505">
        <ele>346.34785346387</ele>
        <time>2014-05-31T10:49:19Z</time>
      </trkpt>
      <trkpt lat="45.30524" lon="5.10499">
        <ele>346.34785346387</ele>
        <time>2014-05-31T10:49:24Z</time>
      </trkpt>
      <trkpt lat="45.30521" lon="5.10489">
        <ele>345.78420671279</ele>
        <time>2014-05-31T10:49:29Z</time>
      </trkpt>
      <trkpt lat="45.30518" lon="5.10482">
        <ele>345.78420671279</ele>
        <time>2014-05-31T10:49:34Z</time>
      </trkpt>
      <trkpt lat="45.30513" lon="5.10474">
        <ele>345.55907384801</ele>
        <time>2014-05-31T10:49:39Z</time>
      </trkpt>
      <trkpt lat="45.30508" lon="5.10465">
        <ele>345.55907384801</ele>
        <time>2014-05-31T10:49:44Z</time>
      </trkpt>
      <trkpt lat="45.30504" lon="5.10458">
        <ele>344.91306577223</ele>
        <time>2014-05-31T10:49:49Z</time>
      </trkpt>
      <trkpt lat="45.30501" lon="5.10449">
        <ele>344.91306577223</ele>
        <time>2014-05-31T10:49:54Z</time>
      </trkpt>
      <trkpt lat="45.30497" lon="5.10439">
        <ele>344.48419925739</ele>
        <time>2014-05-31T10:49:59Z</time>
      </trkpt>
      <trkpt lat="45.30494" lon="5.10427">
        <ele>344.48419925739</ele>
        <time>2014-05-31T10:50:04Z</time>
      </trkpt>
      <trkpt lat="45.30492" lon="5.10416">
        <ele>344.38744059239</ele>
        <time>2014-05-31T10:50:09Z</time>
      </trkpt>
      <trkpt lat="45.30489" lon="5.10407">
        <ele>344.38744059239</ele>
        <time>2014-05-31T10:50:14Z</time>
      </trkpt>
      <trkpt lat="45.30489" lon="5.10398">
        <ele>344.15195991898</ele>
        <time>2014-05-31T10:50:19Z</time>
      </trkpt>
      <trkpt lat="45.30487" lon="5.10388">
        <ele>344.15195991898</ele>
        <time>2014-05-31T10:50:24Z</time>
      </trkpt>
      <trkpt lat="45.30486" lon="5.10375">
        <ele>343.99048642674</ele>
        <time>2014-05-31T10:50:29Z</time>
      </trkpt>
      <trkpt lat="45.30484" lon="5.10366">
        <ele>343.99048642674</ele>
        <time>2014-05-31T10:50:34Z</time>
      </trkpt>
      <trkpt lat="45.30482" lon="5.10355">
        <ele>343.91259732644</ele>
        <time>2014-05-31T10:50:39Z</time>
      </trkpt>
      <trkpt lat="45.3048" lon="5.10345">
        <ele>343.91259732644</ele>
        <time>2014-05-31T10:50:44Z</time>
      </trkpt>
      <trkpt lat="45.30478" lon="5.10335">
        <ele>343.50903607719</ele>
        <time>2014-05-31T10:50:49Z</time>
      </trkpt>
      <trkpt lat="45.30475" lon="5.10324">
        <ele>343.50903607719</ele>
        <time>2014-05-31T10:50:54Z</time>
      </trkpt>
      <trkpt lat="45.30473" lon="5.10316">
        <ele>343.09330052599</ele>
        <time>2014-05-31T10:50:59Z</time>
      </trkpt>
      <trkpt lat="45.3047" lon="5.10306">
        <ele>343.09330052599</ele>
        <time>2014-05-31T10:51:04Z</time>
      </trkpt>
      <trkpt lat="45.30468" lon="5.10295">
        <ele>342.9270892145</ele>
        <time>2014-05-31T10:51:09Z</time>
      </trkpt>
      <trkpt lat="45.30465" lon="5.10285">
        <ele>342.9270892145</ele>
        <time>2014-05-31T10:51:14Z</time>
      </trkpt>
      <trkpt lat="45.30462" lon="5.10275">
        <ele>342.96396895768</ele>
        <time>2014-05-31T10:51:19Z</time>
      </trkpt>
      <trkpt lat="45.30459" lon="5.10262">
        <ele>343.08830778732</ele>
        <time>2014-05-31T10:51:24Z</time>
      </trkpt>
      <trkpt lat="45.30457" lon="5.10254">
        <ele>343.08830778732</ele>
        <time>2014-05-31T10:51:29Z</time>
      </trkpt>
      <trkpt lat="45.30454" lon="5.10244">
        <ele>343.2359696254</ele>
        <time>2014-05-31T10:51:34Z</time>
      </trkpt>
      <trkpt lat="45.30452" lon="5.10233">
        <ele>343.2359696254</ele>
        <time>2014-05-31T10:51:39Z</time>
      </trkpt>
      <trkpt lat="45.30449" lon="5.10222">
        <ele>343.41953217034</ele>
        <time>2014-05-31T10:51:44Z</time>
      </trkpt>
      <trkpt lat="45.30447" lon="5.1021">
        <ele>343.41953217034</ele>
        <time>2014-05-31T10:51:49Z</time>
      </trkpt>
      <trkpt lat="45.30446" lon="5.10201">
        <ele>343.62173678046</ele>
        <time>2014-05-31T10:51:54Z</time>
      </trkpt>
      <trkpt lat="45.30444" lon="5.10191">
        <ele>343.62173678046</ele>
        <time>2014-05-31T10:51:59Z</time>
      </trkpt>
      <trkpt lat="45.30443" lon="5.1018">
        <ele>343.78331678338</ele>
        <time>2014-05-31T10:52:04Z</time>
      </trkpt>
      <trkpt lat="45.30441" lon="5.10168">
        <ele>343.78331678338</ele>
        <time>2014-05-31T10:52:09Z</time>
      </trkpt>
      <trkpt lat="45.3044" lon="5.10156">
        <ele>343.90712838871</ele>
        <time>2014-05-31T10:52:14Z</time>
      </trkpt>
      <trkpt lat="45.30438" lon="5.10147">
        <ele>343.90712838871</ele>
        <time>2014-05-31T10:52:19Z</time>
      </trkpt>
      <trkpt lat="45.30435" lon="5.10135">
        <ele>344.05357922926</ele>
        <time>2014-05-31T10:52:24Z</time>
      </trkpt>
      <trkpt lat="45.30434" lon="5.10126">
        <ele>344.05357922926</ele>
        <time>2014-05-31T10:52:29Z</time>
      </trkpt>
      <trkpt lat="45.30433" lon="5.10114">
        <ele>344.3794656245</ele>
        <time>2014-05-31T10:52:34Z</time>
      </trkpt>
      <trkpt lat="45.30432" lon="5.10101">
        <ele>344.84222432502</ele>
        <time>2014-05-31T10:52:39Z</time>
      </trkpt>
      <trkpt lat="45.30432" lon="5.1009">
        <ele>344.84222432502</ele>
        <time>2014-05-31T10:52:44Z</time>
      </trkpt>
      <trkpt lat="45.30432" lon="5.10081">
        <ele>345.51733694913</ele>
        <time>2014-05-31T10:52:49Z</time>
      </trkpt>
      <trkpt lat="45.30432" lon="5.1007">
        <ele>345.51733694913</ele>
        <time>2014-05-31T10:52:54Z</time>
      </trkpt>
      <trkpt lat="45.30432" lon="5.10059">
        <ele>346.24357421979</ele>
        <time>2014-05-31T10:52:59Z</time>
      </trkpt>
      <trkpt lat="45.30431" lon="5.10048">
        <ele>346.24357421979</ele>
        <time>2014-05-31T10:53:04Z</time>
      </trkpt>
      <trkpt lat="45.30431" lon="5.10035">
        <ele>346.95789144717</ele>
        <time>2014-05-31T10:53:09Z</time>
      </trkpt>
      <trkpt lat="45.30431" lon="5.10026">
        <ele>346.95789144717</ele>
        <time>2014-05-31T10:53:14Z</time>
      </trkpt>
      <trkpt lat="45.30429" lon="5.10016">
        <ele>347.5875160246</ele>
        <time>2014-05-31T10:53:19Z</time>
      </trkpt>
      <trkpt lat="45.30428" lon="5.10005">
        <ele>347.5875160246</ele>
        <time>2014-05-31T10:53:24Z</time>
      </trkpt>
      <trkpt lat="45.30427" lon="5.09996">
        <ele>348.10851516928</ele>
        <time>2014-05-31T10:53:29Z</time>
      </trkpt>
      <trkpt lat="45.30427" lon="5.09987">
        <ele>348.10851516928</ele>
        <time>2014-05-31T10:53:34Z</time>
      </trkpt>
      <trkpt lat="45.30427" lon="5.09977">
        <ele>348.51345455007</ele>
        <time>2014-05-31T10:53:39Z</time>
      </trkpt>
      <trkpt lat="45.30426" lon="5.09966">
        <ele>348.51345455007</ele>
        <time>2014-05-31T10:53:44Z</time>
      </trkpt>
      <trkpt lat="45.30425" lon="5.09959">
        <ele>348.27698259099</ele>
        <time>2014-05-31T10:53:49Z</time>
      </trkpt>
      <trkpt lat="45.30422" lon="5.09951">
        <ele>348.27698259099</ele>
        <time>2014-05-31T10:53:54Z</time>
      </trkpt>
      <trkpt lat="45.30418" lon="5.09945">
        <ele>347.92296694385</ele>
        <time>2014-05-31T10:53:59Z</time>
      </trkpt>
      <trkpt lat="45.30414" lon="5.09936">
        <ele>347.92296694385</ele>
        <time>2014-05-31T10:54:04Z</time>
      </trkpt>
      <trkpt lat="45.30411" lon="5.09933">
        <ele>347.53361867824</ele>
        <time>2014-05-31T10:54:09Z</time>
      </trkpt>
      <trkpt lat="45.30408" lon="5.0993">
        <ele>347.53361867824</ele>
        <time>2014-05-31T10:54:14Z</time>
      </trkpt>
      <trkpt lat="45.30403" lon="5.09921">
        <ele>347.9057967211</ele>
        <time>2014-05-31T10:54:19Z</time>
      </trkpt>
      <trkpt lat="45.30398" lon="5.09913">
        <ele>347.9057967211</ele>
        <time>2014-05-31T10:54:24Z</time>
      </trkpt>
      <trkpt lat="45.30394" lon="5.09907">
        <ele>348.01749908326</ele>
        <time>2014-05-31T10:54:29Z</time>
      </trkpt>
      <trkpt lat="45.30389" lon="5.09901">
        <ele>348.01749908326</ele>
        <time>2014-05-31T10:54:34Z</time>
      </trkpt>
      <trkpt lat="45.30382" lon="5.09895">
        <ele>348.27721820173</ele>
        <time>2014-05-31T10:54:39Z</time>
      </trkpt>
      <trkpt lat="45.30375" lon="5.09886">
        <ele>348.73156757086</ele>
        <time>2014-05-31T10:54:44Z</time>
      </trkpt>
      <trkpt lat="45.30368" lon="5.09879">
        <ele>348.73156757086</ele>
        <time>2014-05-31T10:54:49Z</time>
      </trkpt>
      <trkpt lat="45.3036" lon="5.09875">
        <ele>349.99965556945</ele>
        <time>2014-05-31T10:54:54Z</time>
      </trkpt>
      <trkpt lat="45.30356" lon="5.09872">
        <ele>349.99965556945</ele>
        <time>2014-05-31T10:54:59Z</time>
      </trkpt>
      <trkpt lat="45.30351" lon="5.09865">
        <ele>351.98991636699</ele>
        <time>2014-05-31T10:55:04Z</time>
      </trkpt>
      <trkpt lat="45.30346" lon="5.0986">
        <ele>351.98991636699</ele>
        <time>2014-05-31T10:55:09Z</time>
      </trkpt>
      <trkpt lat="45.30341" lon="5.09855">
        <ele>354.97579186512</ele>
        <time>2014-05-31T10:55:14Z</time>
      </trkpt>
      <trkpt lat="45.30338" lon="5.09852">
        <ele>354.97579186512</ele>
        <time>2014-05-31T10:55:19Z</time>
      </trkpt>
      <trkpt lat="45.30332" lon="5.09849">
        <ele>357.0173561757</ele>
        <time>2014-05-31T10:55:24Z</time>
      </trkpt>
      <trkpt lat="45.30326" lon="5.09844">
        <ele>357.0173561757</ele>
        <time>2014-05-31T10:55:29Z</time>
      </trkpt>
      <trkpt lat="45.30319" lon="5.09838">
        <ele>358.56805969729</ele>
        <time>2014-05-31T10:55:34Z</time>
      </trkpt>
      <trkpt lat="45.30313" lon="5.0983">
        <ele>358.56805969729</ele>
        <time>2014-05-31T10:55:39Z</time>
      </trkpt>
      <trkpt lat="45.30307" lon="5.09823">
        <ele>360.04947582999</ele>
        <time>2014-05-31T10:55:44Z</time>
      </trkpt>
      <trkpt lat="45.30301" lon="5.09817">
        <ele>360.04947582999</ele>
        <time>2014-05-31T10:55:49Z</time>
      </trkpt>
      <trkpt lat="45.30294" lon="5.09812">
        <ele>361.79482482802</ele>
        <time>2014-05-31T10:55:54Z</time>
      </trkpt>
      <trkpt lat="45.30288" lon="5.09808">
        <ele>361.79482482802</ele>
        <time>2014-05-31T10:55:59Z</time>
      </trkpt>
      <trkpt lat="45.30283" lon="5.09803">
        <ele>362.71428955903</ele>
        <time>2014-05-31T10:56:04Z</time>
      </trkpt>
      <trkpt lat="45.30277" lon="5.098">
        <ele>362.71428955903</ele>
        <time>2014-05-31T10:56:09Z</time>
      </trkpt>
      <trkpt lat="45.30271" lon="5.09795">
        <ele>363.58750098198</ele>
        <time>2014-05-31T10:56:14Z</time>
      </trkpt>
      <trkpt lat="45.30264" lon="5.09791">
        <ele>363.58750098198</ele>
        <time>2014-05-31T10:56:19Z</time>
      </trkpt>
      <trkpt lat="45.30258" lon="5.09787">
        <ele>365.33878132821</ele>
        <time>2014-05-31T10:56:24Z</time>
      </trkpt>
      <trkpt lat="45.30251" lon="5.09784">
        <ele>365.33878132821</ele>
        <time>2014-05-31T10:56:29Z</time>
      </trkpt>
      <trkpt lat="45.30245" lon="5.09779">
        <ele>368.00073070686</ele>
        <time>2014-05-31T10:56:34Z</time>
      </trkpt>
      <trkpt lat="45.30239" lon="5.09774">
        <ele>368.00073070686</ele>
        <time>2014-05-31T10:56:39Z</time>
      </trkpt>
      <trkpt lat="45.30233" lon="5.0977">
        <ele>370.15996876333</ele>
        <time>2014-05-31T10:56:44Z</time>
      </trkpt>
      <trkpt lat="45.30227" lon="5.09767">
        <ele>370.15996876333</ele>
        <time>2014-05-31T10:56:49Z</time>
      </trkpt>
      <trkpt lat="45.30221" lon="5.09762">
        <ele>372.51160333247</ele>
        <time>2014-05-31T10:56:54Z</time>
      </trkpt>
      <trkpt lat="45.30216" lon="5.09755">
        <ele>372.51160333247</ele>
        <time>2014-05-31T10:56:59Z</time>
      </trkpt>
      <trkpt lat="45.30213" lon="5.09753">
        <ele>374.43105730937</ele>
        <time>2014-05-31T10:57:04Z</time>
      </trkpt>
      <trkpt lat="45.30207" lon="5.09749">
        <ele>374.43105730937</ele>
        <time>2014-05-31T10:57:09Z</time>
      </trkpt>
      <trkpt lat="45.30201" lon="5.09745">
        <ele>376.42179338456</ele>
        <time>2014-05-31T10:57:14Z</time>
      </trkpt>
      <trkpt lat="45.30196" lon="5.0974">
        <ele>376.42179338456</ele>
        <time>2014-05-31T10:57:19Z</time>
      </trkpt>
      <trkpt lat="45.3019" lon="5.09735">
        <ele>377.52349697387</ele>
        <time>2014-05-31T10:57:24Z</time>
      </trkpt>
      <trkpt lat="45.30186" lon="5.09726">
        <ele>377.52349697387</ele>
        <time>2014-05-31T10:57:29Z</time>
      </trkpt>
      <trkpt lat="45.30181" lon="5.09719">
        <ele>378.2324746054</ele>
        <time>2014-05-31T10:57:34Z</time>
      </trkpt>
      <trkpt lat="45.30175" lon="5.09709">
        <ele>379.41329679632</ele>
        <time>2014-05-31T10:57:39Z</time>
      </trkpt>
      <trkpt lat="45.30169" lon="5.09698">
        <ele>381.14524874068</ele>
        <time>2014-05-31T10:57:44Z</time>
      </trkpt>
      <trkpt lat="45.30163" lon="5.0969">
        <ele>381.14524874068</ele>
        <time>2014-05-31T10:57:49Z</time>
      </trkpt>
      <trkpt lat="45.30159" lon="5.09685">
        <ele>382.89508142818</ele>
        <time>2014-05-31T10:57:54Z</time>
      </trkpt>
      <trkpt lat="45.30155" lon="5.09679">
        <ele>382.89508142818</ele>
        <time>2014-05-31T10:57:59Z</time>
      </trkpt>
      <trkpt lat="45.3015" lon="5.0967">
        <ele>384.96138227162</ele>
        <time>2014-05-31T10:58:04Z</time>
      </trkpt>
      <trkpt lat="45.30148" lon="5.09666">
        <ele>384.96138227162</ele>
        <time>2014-05-31T10:58:09Z</time>
      </trkpt>
      <trkpt lat="45.30145" lon="5.0966">
        <ele>384.96138227162</ele>
        <time>2014-05-31T10:58:14Z</time>
      </trkpt>
      <trkpt lat="45.3014" lon="5.09653">
        <ele>388.02353258</ele>
        <time>2014-05-31T10:58:19Z</time>
      </trkpt>
      <trkpt lat="45.30136" lon="5.09646">
        <ele>388.02353258</ele>
        <time>2014-05-31T10:58:24Z</time>
      </trkpt>
      <trkpt lat="45.30131" lon="5.09636">
        <ele>391.51219962809</ele>
        <time>2014-05-31T10:58:29Z</time>
      </trkpt>
      <trkpt lat="45.30124" lon="5.09626">
        <ele>394.59616083085</ele>
        <time>2014-05-31T10:58:34Z</time>
      </trkpt>
      <trkpt lat="45.30117" lon="5.09617">
        <ele>397.80351737242</ele>
        <time>2014-05-31T10:58:39Z</time>
      </trkpt>
      <trkpt lat="45.30112" lon="5.0961">
        <ele>397.80351737242</ele>
        <time>2014-05-31T10:58:44Z</time>
      </trkpt>
      <trkpt lat="45.30105" lon="5.09603">
        <ele>400.94604351829</ele>
        <time>2014-05-31T10:58:49Z</time>
      </trkpt>
      <trkpt lat="45.30099" lon="5.09596">
        <ele>400.94604351829</ele>
        <time>2014-05-31T10:58:54Z</time>
      </trkpt>
      <trkpt lat="45.30092" lon="5.09589">
        <ele>404.25317840485</ele>
        <time>2014-05-31T10:58:59Z</time>
      </trkpt>
      <trkpt lat="45.30086" lon="5.09584">
        <ele>404.25317840485</ele>
        <time>2014-05-31T10:59:04Z</time>
      </trkpt>
      <trkpt lat="45.30081" lon="5.0958">
        <ele>407.53368555828</ele>
        <time>2014-05-31T10:59:09Z</time>
      </trkpt>
      <trkpt lat="45.30076" lon="5.09572">
        <ele>407.53368555828</ele>
        <time>2014-05-31T10:59:14Z</time>
      </trkpt>
      <trkpt lat="45.30069" lon="5.09566">
        <ele>411.41763384072</ele>
        <time>2014-05-31T10:59:19Z</time>
      </trkpt>
      <trkpt lat="45.30064" lon="5.0956">
        <ele>411.41763384072</ele>
        <time>2014-05-31T10:59:24Z</time>
      </trkpt>
      <trkpt lat="45.30058" lon="5.09557">
        <ele>414.71471315266</ele>
        <time>2014-05-31T10:59:29Z</time>
      </trkpt>
      <trkpt lat="45.30052" lon="5.09552">
        <ele>414.71471315266</ele>
        <time>2014-05-31T10:59:34Z</time>
      </trkpt>
      <trkpt lat="45.30047" lon="5.09548">
        <ele>417.01560380134</ele>
        <time>2014-05-31T10:59:39Z</time>
      </trkpt>
      <trkpt lat="45.3004" lon="5.0955">
        <ele>417.01560380134</ele>
        <time>2014-05-31T10:59:44Z</time>
      </trkpt>
      <trkpt lat="45.30032" lon="5.09552">
        <ele>419.63012414502</ele>
        <time>2014-05-31T10:59:49Z</time>
      </trkpt>
      <trkpt lat="45.30027" lon="5.09553">
        <ele>419.63012414502</ele>
        <time>2014-05-31T10:59:54Z</time>
      </trkpt>
      <trkpt lat="45.30019" lon="5.09556">
        <ele>422.67592341355</ele>
        <time>2014-05-31T10:59:59Z</time>
      </trkpt>
      <trkpt lat="45.30012" lon="5.09559">
        <ele>422.67592341355</ele>
        <time>2014-05-31T11:00:04Z</time>
      </trkpt>
      <trkpt lat="45.30005" lon="5.09563">
        <ele>426.43390642881</ele>
        <time>2014-05-31T11:00:09Z</time>
      </trkpt>
      <trkpt lat="45.29995" lon="5.09567">
        <ele>429.72140658302</ele>
        <time>2014-05-31T11:00:14Z</time>
      </trkpt>
      <trkpt lat="45.2999" lon="5.09569">
        <ele>429.72140658302</ele>
        <time>2014-05-31T11:00:19Z</time>
      </trkpt>
      <trkpt lat="45.29984" lon="5.09569">
        <ele>432.75554244866</ele>
        <time>2014-05-31T11:00:24Z</time>
      </trkpt>
      <trkpt lat="45.29978" lon="5.09573">
        <ele>432.75554244866</ele>
        <time>2014-05-31T11:00:29Z</time>
      </trkpt>
      <trkpt lat="45.29974" lon="5.09578">
        <ele>435.69513637913</ele>
        <time>2014-05-31T11:00:34Z</time>
      </trkpt>
      <trkpt lat="45.29967" lon="5.09585">
        <ele>435.69513637913</ele>
        <time>2014-05-31T11:00:39Z</time>
      </trkpt>
      <trkpt lat="45.29959" lon="5.09589">
        <ele>438.86071824329</ele>
        <time>2014-05-31T11:00:44Z</time>
      </trkpt>
      <trkpt lat="45.29952" lon="5.09594">
        <ele>438.86071824329</ele>
        <time>2014-05-31T11:00:49Z</time>
      </trkpt>
      <trkpt lat="45.29946" lon="5.09598">
        <ele>441.79943323167</ele>
        <time>2014-05-31T11:00:54Z</time>
      </trkpt>
      <trkpt lat="45.29939" lon="5.09599">
        <ele>441.79943323167</ele>
        <time>2014-05-31T11:00:59Z</time>
      </trkpt>
      <trkpt lat="45.29933" lon="5.09599">
        <ele>444.20778860142</ele>
        <time>2014-05-31T11:01:04Z</time>
      </trkpt>
      <trkpt lat="45.29927" lon="5.09597">
        <ele>444.20778860142</ele>
        <time>2014-05-31T11:01:09Z</time>
      </trkpt>
      <trkpt lat="45.29921" lon="5.09595">
        <ele>446.00799399167</ele>
        <time>2014-05-31T11:01:14Z</time>
      </trkpt>
      <trkpt lat="45.29917" lon="5.09589">
        <ele>446.00799399167</ele>
        <time>2014-05-31T11:01:19Z</time>
      </trkpt>
      <trkpt lat="45.29915" lon="5.09582">
        <ele>446.78396720217</ele>
        <time>2014-05-31T11:01:24Z</time>
      </trkpt>
      <trkpt lat="45.29915" lon="5.09575">
        <ele>446.78396720217</ele>
        <time>2014-05-31T11:01:29Z</time>
      </trkpt>
      <trkpt lat="45.29913" lon="5.09565">
        <ele>446.94581665904</ele>
        <time>2014-05-31T11:01:34Z</time>
      </trkpt>
      <trkpt lat="45.29908" lon="5.09553">
        <ele>447.29329175234</ele>
        <time>2014-05-31T11:01:39Z</time>
      </trkpt>
      <trkpt lat="45.29905" lon="5.09544">
        <ele>447.29329175234</ele>
        <time>2014-05-31T11:01:44Z</time>
      </trkpt>
      <trkpt lat="45.29902" lon="5.09535">
        <ele>447.02498117008</ele>
        <time>2014-05-31T11:01:49Z</time>
      </trkpt>
      <trkpt lat="45.29899" lon="5.09529">
        <ele>447.02498117008</ele>
        <time>2014-05-31T11:01:54Z</time>
      </trkpt>
      <trkpt lat="45.29896" lon="5.0952">
        <ele>446.25040356153</ele>
        <time>2014-05-31T11:01:59Z</time>
      </trkpt>
      <trkpt lat="45.29891" lon="5.09508">
        <ele>445.59130256924</ele>
        <time>2014-05-31T11:02:04Z</time>
      </trkpt>
      <trkpt lat="45.29888" lon="5.09501">
        <ele>445.59130256924</ele>
        <time>2014-05-31T11:02:09Z</time>
      </trkpt>
      <trkpt lat="45.29885" lon="5.09492">
        <ele>444.72995892648</ele>
        <time>2014-05-31T11:02:14Z</time>
      </trkpt>
      <trkpt lat="45.2988" lon="5.09483">
        <ele>444.72995892648</ele>
        <time>2014-05-31T11:02:19Z</time>
      </trkpt>
      <trkpt lat="45.29877" lon="5.09473">
        <ele>443.96341439676</ele>
        <time>2014-05-31T11:02:24Z</time>
      </trkpt>
      <trkpt lat="45.29875" lon="5.09463">
        <ele>443.96341439676</ele>
        <time>2014-05-31T11:02:29Z</time>
      </trkpt>
      <trkpt lat="45.29873" lon="5.09452">
        <ele>443.20631993369</ele>
        <time>2014-05-31T11:02:34Z</time>
      </trkpt>
      <trkpt lat="45.29872" lon="5.0944">
        <ele>443.20631993369</ele>
        <time>2014-05-31T11:02:39Z</time>
      </trkpt>
      <trkpt lat="45.2987" lon="5.09427">
        <ele>443.11448933869</ele>
        <time>2014-05-31T11:02:44Z</time>
      </trkpt>
      <trkpt lat="45.29868" lon="5.09417">
        <ele>443.11448933869</ele>
        <time>2014-05-31T11:02:49Z</time>
      </trkpt>
      <trkpt lat="45.29868" lon="5.09407">
        <ele>443.06868284638</ele>
        <time>2014-05-31T11:02:54Z</time>
      </trkpt>
      <trkpt lat="45.29867" lon="5.09397">
        <ele>443.06868284638</ele>
        <time>2014-05-31T11:02:59Z</time>
      </trkpt>
      <trkpt lat="45.29865" lon="5.09387">
        <ele>443.5325406143</ele>
        <time>2014-05-31T11:03:04Z</time>
      </trkpt>
      <trkpt lat="45.29864" lon="5.09377">
        <ele>443.5325406143</ele>
        <time>2014-05-31T11:03:09Z</time>
      </trkpt>
      <trkpt lat="45.29862" lon="5.09363">
        <ele>444.09827761692</ele>
        <time>2014-05-31T11:03:14Z</time>
      </trkpt>
      <trkpt lat="45.29862" lon="5.09355">
        <ele>444.09827761692</ele>
        <time>2014-05-31T11:03:19Z</time>
      </trkpt>
      <trkpt lat="45.29861" lon="5.09347">
        <ele>444.20033410571</ele>
        <time>2014-05-31T11:03:24Z</time>
      </trkpt>
      <trkpt lat="45.29859" lon="5.09337">
        <ele>444.20033410571</ele>
        <time>2014-05-31T11:03:29Z</time>
      </trkpt>
      <trkpt lat="45.29858" lon="5.09326">
        <ele>444.41113523566</ele>
        <time>2014-05-31T11:03:34Z</time>
      </trkpt>
      <trkpt lat="45.29857" lon="5.09316">
        <ele>444.41113523566</ele>
        <time>2014-05-31T11:03:39Z</time>
      </trkpt>
      <trkpt lat="45.29857" lon="5.09304">
        <ele>444.38155994725</ele>
        <time>2014-05-31T11:03:44Z</time>
      </trkpt>
      <trkpt lat="45.29857" lon="5.09294">
        <ele>444.38155994725</ele>
        <time>2014-05-31T11:03:49Z</time>
      </trkpt>
      <trkpt lat="45.29859" lon="5.09288">
        <ele>443.3851757575</ele>
        <time>2014-05-31T11:03:54Z</time>
      </trkpt>
      <trkpt lat="45.29858" lon="5.09283">
        <ele>443.3851757575</ele>
        <time>2014-05-31T11:03:59Z</time>
      </trkpt>
      <trkpt lat="45.29856" lon="5.09274">
        <ele>442.06290712471</ele>
        <time>2014-05-31T11:04:04Z</time>
      </trkpt>
      <trkpt lat="45.29855" lon="5.09264">
        <ele>442.06290712471</ele>
        <time>2014-05-31T11:04:09Z</time>
      </trkpt>
      <trkpt lat="45.29854" lon="5.09253">
        <ele>440.62026863271</ele>
        <time>2014-05-31T11:04:14Z</time>
      </trkpt>
      <trkpt lat="45.29853" lon="5.09242">
        <ele>440.62026863271</ele>
        <time>2014-05-31T11:04:19Z</time>
      </trkpt>
      <trkpt lat="45.29853" lon="5.09232">
        <ele>438.95963761402</ele>
        <time>2014-05-31T11:04:24Z</time>
      </trkpt>
      <trkpt lat="45.29852" lon="5.09225">
        <ele>438.95963761402</ele>
        <time>2014-05-31T11:04:29Z</time>
      </trkpt>
      <trkpt lat="45.29853" lon="5.09222">
        <ele>438.95963761402</ele>
        <time>2014-05-31T11:04:34Z</time>
      </trkpt>
      <trkpt lat="45.29851" lon="5.09216">
        <ele>436.42896890895</ele>
        <time>2014-05-31T11:04:39Z</time>
      </trkpt>
      <trkpt lat="45.29847" lon="5.09207">
        <ele>436.42896890895</ele>
        <time>2014-05-31T11:04:44Z</time>
      </trkpt>
      <trkpt lat="45.29845" lon="5.09203">
        <ele>433.44955703697</ele>
        <time>2014-05-31T11:04:49Z</time>
      </trkpt>
      <trkpt lat="45.29843" lon="5.09195">
        <ele>433.44955703697</ele>
        <time>2014-05-31T11:04:54Z</time>
      </trkpt>
      <trkpt lat="45.29842" lon="5.09189">
        <ele>429.80753138838</ele>
        <time>2014-05-31T11:04:59Z</time>
      </trkpt>
      <trkpt lat="45.29838" lon="5.09181">
        <ele>429.80753138838</ele>
        <time>2014-05-31T11:05:04Z</time>
      </trkpt>
      <trkpt lat="45.29835" lon="5.09175">
        <ele>426.41601701294</ele>
        <time>2014-05-31T11:05:09Z</time>
      </trkpt>
      <trkpt lat="45.2983" lon="5.0917">
        <ele>426.41601701294</ele>
        <time>2014-05-31T11:05:14Z</time>
      </trkpt>
      <trkpt lat="45.29826" lon="5.09163">
        <ele>422.93839499078</ele>
        <time>2014-05-31T11:05:19Z</time>
      </trkpt>
      <trkpt lat="45.29821" lon="5.09157">
        <ele>422.93839499078</ele>
        <time>2014-05-31T11:05:24Z</time>
      </trkpt>
      <trkpt lat="45.29817" lon="5.09151">
        <ele>419.23567579252</ele>
        <time>2014-05-31T11:05:29Z</time>
      </trkpt>
      <trkpt lat="45.29811" lon="5.09142">
        <ele>419.23567579252</ele>
        <time>2014-05-31T11:05:34Z</time>
      </trkpt>
      <trkpt lat="45.29807" lon="5.09135">
        <ele>416.10173063915</ele>
        <time>2014-05-31T11:05:39Z</time>
      </trkpt>
      <trkpt lat="45.29801" lon="5.09122">
        <ele>414.37108974088</ele>
        <time>2014-05-31T11:05:44Z</time>
      </trkpt>
      <trkpt lat="45.29794" lon="5.09106">
        <ele>413.47249499367</ele>
        <time>2014-05-31T11:05:49Z</time>
      </trkpt>
      <trkpt lat="45.29789" lon="5.09096">
        <ele>413.47249499367</ele>
        <time>2014-05-31T11:05:54Z</time>
      </trkpt>
      <trkpt lat="45.29785" lon="5.09089">
        <ele>412.29755825782</ele>
        <time>2014-05-31T11:05:59Z</time>
      </trkpt>
      <trkpt lat="45.2978" lon="5.09078">
        <ele>412.09673493146</ele>
        <time>2014-05-31T11:06:04Z</time>
      </trkpt>
      <trkpt lat="45.29774" lon="5.09066">
        <ele>412.78623649184</ele>
        <time>2014-05-31T11:06:09Z</time>
      </trkpt>
      <trkpt lat="45.29769" lon="5.09056">
        <ele>413.63715032922</ele>
        <time>2014-05-31T11:06:14Z</time>
      </trkpt>
      <trkpt lat="45.29764" lon="5.09048">
        <ele>413.63715032922</ele>
        <time>2014-05-31T11:06:19Z</time>
      </trkpt>
      <trkpt lat="45.29758" lon="5.09043">
        <ele>414.2327943564</ele>
        <time>2014-05-31T11:06:24Z</time>
      </trkpt>
      <trkpt lat="45.29751" lon="5.0904">
        <ele>414.2327943564</ele>
        <time>2014-05-31T11:06:29Z</time>
      </trkpt>
      <trkpt lat="45.29744" lon="5.0904">
        <ele>415.51339492429</ele>
        <time>2014-05-31T11:06:35Z</time>
      </trkpt>
      <trkpt lat="45.29737" lon="5.0904">
        <ele>415.51339492429</ele>
        <time>2014-05-31T11:06:39Z</time>
      </trkpt>
      <trkpt lat="45.29729" lon="5.09043">
        <ele>416.97891654978</ele>
        <time>2014-05-31T11:06:44Z</time>
      </trkpt>
      <trkpt lat="45.29724" lon="5.09045">
        <ele>416.97891654978</ele>
        <time>2014-05-31T11:06:49Z</time>
      </trkpt>
      <trkpt lat="45.29716" lon="5.09048">
        <ele>418.4968013948</ele>
        <time>2014-05-31T11:06:54Z</time>
      </trkpt>
      <trkpt lat="45.29711" lon="5.09049">
        <ele>418.4968013948</ele>
        <time>2014-05-31T11:06:59Z</time>
      </trkpt>
      <trkpt lat="45.29704" lon="5.09052">
        <ele>419.41070275053</ele>
        <time>2014-05-31T11:07:04Z</time>
      </trkpt>
      <trkpt lat="45.29699" lon="5.09055">
        <ele>419.41070275053</ele>
        <time>2014-05-31T11:07:09Z</time>
      </trkpt>
      <trkpt lat="45.29693" lon="5.09059">
        <ele>420.28133786754</ele>
        <time>2014-05-31T11:07:14Z</time>
      </trkpt>
      <trkpt lat="45.29688" lon="5.09064">
        <ele>420.28133786754</ele>
        <time>2014-05-31T11:07:19Z</time>
      </trkpt>
      <trkpt lat="45.29681" lon="5.0907">
        <ele>421.35441919248</ele>
        <time>2014-05-31T11:07:24Z</time>
      </trkpt>
      <trkpt lat="45.29678" lon="5.09073">
        <ele>421.35441919248</ele>
        <time>2014-05-31T11:07:29Z</time>
      </trkpt>
      <trkpt lat="45.29675" lon="5.09075">
        <ele>421.35441919248</ele>
        <time>2014-05-31T11:07:34Z</time>
      </trkpt>
      <trkpt lat="45.29672" lon="5.09078">
        <ele>422.43901253923</ele>
        <time>2014-05-31T11:07:39Z</time>
      </trkpt>
      <trkpt lat="45.29665" lon="5.09084">
        <ele>422.43901253923</ele>
        <time>2014-05-31T11:07:44Z</time>
      </trkpt>
      <trkpt lat="45.29661" lon="5.09089">
        <ele>423.47337675838</ele>
        <time>2014-05-31T11:07:49Z</time>
      </trkpt>
      <trkpt lat="45.29658" lon="5.09096">
        <ele>423.47337675838</ele>
        <time>2014-05-31T11:07:54Z</time>
      </trkpt>
      <trkpt lat="45.29657" lon="5.091">
        <ele>423.00249279879</ele>
        <time>2014-05-31T11:07:59Z</time>
      </trkpt>
      <trkpt lat="45.29654" lon="5.09108">
        <ele>423.00249279879</ele>
        <time>2014-05-31T11:08:04Z</time>
      </trkpt>
      <trkpt lat="45.29652" lon="5.09114">
        <ele>422.62225213713</ele>
        <time>2014-05-31T11:08:09Z</time>
      </trkpt>
      <trkpt lat="45.2965" lon="5.09124">
        <ele>422.62225213713</ele>
        <time>2014-05-31T11:08:14Z</time>
      </trkpt>
      <trkpt lat="45.29647" lon="5.0913">
        <ele>422.55723465901</ele>
        <time>2014-05-31T11:08:19Z</time>
      </trkpt>
      <trkpt lat="45.29644" lon="5.0914">
        <ele>422.55723465901</ele>
        <time>2014-05-31T11:08:24Z</time>
      </trkpt>
      <trkpt lat="45.29642" lon="5.09146">
        <ele>422.06345214987</ele>
        <time>2014-05-31T11:08:29Z</time>
      </trkpt>
      <trkpt lat="45.29639" lon="5.09152">
        <ele>422.06345214987</ele>
        <time>2014-05-31T11:08:34Z</time>
      </trkpt>
      <trkpt lat="45.29635" lon="5.09159">
        <ele>421.53355561313</ele>
        <time>2014-05-31T11:08:39Z</time>
      </trkpt>
      <trkpt lat="45.29631" lon="5.09166">
        <ele>421.53355561313</ele>
        <time>2014-05-31T11:08:44Z</time>
      </trkpt>
      <trkpt lat="45.29629" lon="5.09171">
        <ele>420.25057015403</ele>
        <time>2014-05-31T11:08:49Z</time>
      </trkpt>
      <trkpt lat="45.29626" lon="5.09177">
        <ele>420.25057015403</ele>
        <time>2014-05-31T11:08:54Z</time>
      </trkpt>
      <trkpt lat="45.29623" lon="5.09182">
        <ele>418.66190736372</ele>
        <time>2014-05-31T11:08:59Z</time>
      </trkpt>
      <trkpt lat="45.29619" lon="5.09189">
        <ele>418.66190736372</ele>
        <time>2014-05-31T11:09:04Z</time>
      </trkpt>
      <trkpt lat="45.29616" lon="5.09194">
        <ele>416.63529229396</ele>
        <time>2014-05-31T11:09:09Z</time>
      </trkpt>
      <trkpt lat="45.29611" lon="5.09203">
        <ele>416.63529229396</ele>
        <time>2014-05-31T11:09:14Z</time>
      </trkpt>
      <trkpt lat="45.29609" lon="5.09209">
        <ele>414.13579969944</ele>
        <time>2014-05-31T11:09:19Z</time>
      </trkpt>
      <trkpt lat="45.29608" lon="5.09217">
        <ele>414.13579969944</ele>
        <time>2014-05-31T11:09:24Z</time>
      </trkpt>
      <trkpt lat="45.29607" lon="5.09223">
        <ele>410.62793339751</ele>
        <time>2014-05-31T11:09:29Z</time>
      </trkpt>
      <trkpt lat="45.29606" lon="5.09229">
        <ele>410.62793339751</ele>
        <time>2014-05-31T11:09:34Z</time>
      </trkpt>
      <trkpt lat="45.29602" lon="5.09236">
        <ele>407.21790929157</ele>
        <time>2014-05-31T11:09:39Z</time>
      </trkpt>
      <trkpt lat="45.296" lon="5.09245">
        <ele>407.21790929157</ele>
        <time>2014-05-31T11:09:44Z</time>
      </trkpt>
      <trkpt lat="45.29598" lon="5.0925">
        <ele>403.56124633646</ele>
        <time>2014-05-31T11:09:49Z</time>
      </trkpt>
      <trkpt lat="45.29594" lon="5.09257">
        <ele>403.56124633646</ele>
        <time>2014-05-31T11:09:54Z</time>
      </trkpt>
      <trkpt lat="45.29589" lon="5.09266">
        <ele>399.90137220823</ele>
        <time>2014-05-31T11:09:59Z</time>
      </trkpt>
      <trkpt lat="45.29584" lon="5.09276">
        <ele>399.90137220823</ele>
        <time>2014-05-31T11:10:04Z</time>
      </trkpt>
      <trkpt lat="45.29581" lon="5.09285">
        <ele>396.70869155485</ele>
        <time>2014-05-31T11:10:09Z</time>
      </trkpt>
      <trkpt lat="45.29579" lon="5.09301">
        <ele>394.5040573162</ele>
        <time>2014-05-31T11:10:14Z</time>
      </trkpt>
      <trkpt lat="45.29578" lon="5.09311">
        <ele>394.5040573162</ele>
        <time>2014-05-31T11:10:19Z</time>
      </trkpt>
      <trkpt lat="45.29579" lon="5.09324">
        <ele>392.93128353607</ele>
        <time>2014-05-31T11:10:24Z</time>
      </trkpt>
      <trkpt lat="45.29579" lon="5.09326">
        <ele>392.93128353607</ele>
        <time>2014-05-31T11:10:29Z</time>
      </trkpt>
      <trkpt lat="45.29579" lon="5.09334">
        <ele>392.93128353607</ele>
        <time>2014-05-31T11:10:34Z</time>
      </trkpt>
      <trkpt lat="45.29579" lon="5.09344">
        <ele>391.88899118555</ele>
        <time>2014-05-31T11:10:39Z</time>
      </trkpt>
      <trkpt lat="45.29579" lon="5.09356">
        <ele>391.88899118555</ele>
        <time>2014-05-31T11:10:44Z</time>
      </trkpt>
      <trkpt lat="45.29579" lon="5.09367">
        <ele>390.9789660374</ele>
        <time>2014-05-31T11:10:49Z</time>
      </trkpt>
      <trkpt lat="45.29579" lon="5.09378">
        <ele>390.9789660374</ele>
        <time>2014-05-31T11:10:54Z</time>
      </trkpt>
      <trkpt lat="45.29581" lon="5.09385">
        <ele>389.71643193004</ele>
        <time>2014-05-31T11:10:59Z</time>
      </trkpt>
      <trkpt lat="45.29584" lon="5.09394">
        <ele>389.71643193004</ele>
        <time>2014-05-31T11:11:04Z</time>
      </trkpt>
      <trkpt lat="45.29585" lon="5.09402">
        <ele>387.73953188868</ele>
        <time>2014-05-31T11:11:09Z</time>
      </trkpt>
      <trkpt lat="45.29586" lon="5.0941">
        <ele>387.73953188868</ele>
        <time>2014-05-31T11:11:14Z</time>
      </trkpt>
      <trkpt lat="45.29587" lon="5.09418">
        <ele>386.18478759783</ele>
        <time>2014-05-31T11:11:19Z</time>
      </trkpt>
      <trkpt lat="45.29589" lon="5.09426">
        <ele>386.18478759783</ele>
        <time>2014-05-31T11:11:24Z</time>
      </trkpt>
      <trkpt lat="45.2959" lon="5.09433">
        <ele>384.7780899319</ele>
        <time>2014-05-31T11:11:29Z</time>
      </trkpt>
      <trkpt lat="45.29593" lon="5.09443">
        <ele>384.7780899319</ele>
        <time>2014-05-31T11:11:34Z</time>
      </trkpt>
      <trkpt lat="45.29594" lon="5.09451">
        <ele>383.50990861443</ele>
        <time>2014-05-31T11:11:39Z</time>
      </trkpt>
      <trkpt lat="45.29596" lon="5.09463">
        <ele>383.50990861443</ele>
        <time>2014-05-31T11:11:44Z</time>
      </trkpt>
      <trkpt lat="45.29598" lon="5.09474">
        <ele>382.63030019202</ele>
        <time>2014-05-31T11:11:49Z</time>
      </trkpt>
      <trkpt lat="45.29601" lon="5.09485">
        <ele>382.63030019202</ele>
        <time>2014-05-31T11:11:54Z</time>
      </trkpt>
      <trkpt lat="45.29603" lon="5.09495">
        <ele>382.09593426895</ele>
        <time>2014-05-31T11:11:59Z</time>
      </trkpt>
      <trkpt lat="45.29607" lon="5.09504">
        <ele>382.09593426895</ele>
        <time>2014-05-31T11:12:04Z</time>
      </trkpt>
      <trkpt lat="45.2961" lon="5.09515">
        <ele>381.70706588409</ele>
        <time>2014-05-31T11:12:09Z</time>
      </trkpt>
      <trkpt lat="45.29613" lon="5.09524">
        <ele>381.70706588409</ele>
        <time>2014-05-31T11:12:14Z</time>
      </trkpt>
      <trkpt lat="45.29617" lon="5.09533">
        <ele>381.20606377755</ele>
        <time>2014-05-31T11:12:19Z</time>
      </trkpt>
      <trkpt lat="45.2962" lon="5.09542">
        <ele>381.20606377755</ele>
        <time>2014-05-31T11:12:24Z</time>
      </trkpt>
      <trkpt lat="45.29623" lon="5.09555">
        <ele>380.72914198319</ele>
        <time>2014-05-31T11:12:29Z</time>
      </trkpt>
      <trkpt lat="45.29626" lon="5.09564">
        <ele>380.72914198319</ele>
        <time>2014-05-31T11:12:34Z</time>
      </trkpt>
      <trkpt lat="45.29629" lon="5.09571">
        <ele>380.27266886972</ele>
        <time>2014-05-31T11:12:39Z</time>
      </trkpt>
      <trkpt lat="45.29633" lon="5.09582">
        <ele>380.27266886972</ele>
        <time>2014-05-31T11:12:44Z</time>
      </trkpt>
      <trkpt lat="45.29634" lon="5.0959">
        <ele>379.29994939607</ele>
        <time>2014-05-31T11:12:49Z</time>
      </trkpt>
      <trkpt lat="45.29638" lon="5.09599">
        <ele>379.29994939607</ele>
        <time>2014-05-31T11:12:54Z</time>
      </trkpt>
      <trkpt lat="45.29642" lon="5.09608">
        <ele>378.41035454639</ele>
        <time>2014-05-31T11:12:59Z</time>
      </trkpt>
      <trkpt lat="45.29643" lon="5.09615">
        <ele>378.41035454639</ele>
        <time>2014-05-31T11:13:04Z</time>
      </trkpt>
      <trkpt lat="45.29644" lon="5.09622">
        <ele>377.33751406499</ele>
        <time>2014-05-31T11:13:09Z</time>
      </trkpt>
      <trkpt lat="45.2965" lon="5.09629">
        <ele>377.33751406499</ele>
        <time>2014-05-31T11:13:14Z</time>
      </trkpt>
      <trkpt lat="45.29654" lon="5.09637">
        <ele>376.06567761717</ele>
        <time>2014-05-31T11:13:19Z</time>
      </trkpt>
      <trkpt lat="45.29657" lon="5.09646">
        <ele>376.06567761717</ele>
        <time>2014-05-31T11:13:24Z</time>
      </trkpt>
      <trkpt lat="45.2966" lon="5.09656">
        <ele>375.05634209192</ele>
        <time>2014-05-31T11:13:29Z</time>
      </trkpt>
      <trkpt lat="45.2966" lon="5.0967">
        <ele>374.69310356843</ele>
        <time>2014-05-31T11:13:34Z</time>
      </trkpt>
      <trkpt lat="45.2966" lon="5.0968">
        <ele>374.69310356843</ele>
        <time>2014-05-31T11:13:39Z</time>
      </trkpt>
      <trkpt lat="45.29656" lon="5.09692">
        <ele>374.34958677938</ele>
        <time>2014-05-31T11:13:44Z</time>
      </trkpt>
      <trkpt lat="45.2965" lon="5.097">
        <ele>374.34958677938</ele>
        <time>2014-05-31T11:13:49Z</time>
      </trkpt>
      <trkpt lat="45.29643" lon="5.09705">
        <ele>374.18032421756</ele>
        <time>2014-05-31T11:13:54Z</time>
      </trkpt>
      <trkpt lat="45.29641" lon="5.09705">
        <ele>374.18032421756</ele>
        <time>2014-05-31T11:13:59Z</time>
      </trkpt>
      <trkpt lat="45.29641" lon="5.09705">
        <ele>374.18032421756</ele>
        <time>2014-05-31T11:14:04Z</time>
      </trkpt>
      <trkpt lat="45.2964" lon="5.09706">
        <ele>374.18032421756</ele>
        <time>2014-05-31T11:14:09Z</time>
      </trkpt>
      <trkpt lat="45.29635" lon="5.0971">
        <ele>374.05418809159</ele>
        <time>2014-05-31T11:14:14Z</time>
      </trkpt>
      <trkpt lat="45.29629" lon="5.09716">
        <ele>374.05418809159</ele>
        <time>2014-05-31T11:14:19Z</time>
      </trkpt>
      <trkpt lat="45.29624" lon="5.09721">
        <ele>374.0801413162</ele>
        <time>2014-05-31T11:14:24Z</time>
      </trkpt>
      <trkpt lat="45.29617" lon="5.0973">
        <ele>374.28667132967</ele>
        <time>2014-05-31T11:14:29Z</time>
      </trkpt>
      <trkpt lat="45.29612" lon="5.09737">
        <ele>374.28667132967</ele>
        <time>2014-05-31T11:14:34Z</time>
      </trkpt>
      <trkpt lat="45.29608" lon="5.09744">
        <ele>374.54116519727</ele>
        <time>2014-05-31T11:14:39Z</time>
      </trkpt>
      <trkpt lat="45.29601" lon="5.09753">
        <ele>374.95122639467</ele>
        <time>2014-05-31T11:14:44Z</time>
      </trkpt>
      <trkpt lat="45.29595" lon="5.0976">
        <ele>374.95122639467</ele>
        <time>2014-05-31T11:14:49Z</time>
      </trkpt>
      <trkpt lat="45.29591" lon="5.09765">
        <ele>375.51528164855</ele>
        <time>2014-05-31T11:14:54Z</time>
      </trkpt>
      <trkpt lat="45.29586" lon="5.09771">
        <ele>375.51528164855</ele>
        <time>2014-05-31T11:14:59Z</time>
      </trkpt>
      <trkpt lat="45.29579" lon="5.09779">
        <ele>376.39001652632</ele>
        <time>2014-05-31T11:15:04Z</time>
      </trkpt>
      <trkpt lat="45.29574" lon="5.09783">
        <ele>376.39001652632</ele>
        <time>2014-05-31T11:15:09Z</time>
      </trkpt>
      <trkpt lat="45.29567" lon="5.09791">
        <ele>377.28746566703</ele>
        <time>2014-05-31T11:15:14Z</time>
      </trkpt>
      <trkpt lat="45.29563" lon="5.09798">
        <ele>377.28746566703</ele>
        <time>2014-05-31T11:15:19Z</time>
      </trkpt>
      <trkpt lat="45.29557" lon="5.09804">
        <ele>378.07052906268</ele>
        <time>2014-05-31T11:15:24Z</time>
      </trkpt>
      <trkpt lat="45.29552" lon="5.09811">
        <ele>378.07052906268</ele>
        <time>2014-05-31T11:15:29Z</time>
      </trkpt>
      <trkpt lat="45.29546" lon="5.09818">
        <ele>379.17461899709</ele>
        <time>2014-05-31T11:15:34Z</time>
      </trkpt>
      <trkpt lat="45.2954" lon="5.09824">
        <ele>379.17461899709</ele>
        <time>2014-05-31T11:15:39Z</time>
      </trkpt>
      <trkpt lat="45.29534" lon="5.0983">
        <ele>380.78619360368</ele>
        <time>2014-05-31T11:15:44Z</time>
      </trkpt>
      <trkpt lat="45.29528" lon="5.09837">
        <ele>380.78619360368</ele>
        <time>2014-05-31T11:15:49Z</time>
      </trkpt>
      <trkpt lat="45.29521" lon="5.09843">
        <ele>382.84612316934</ele>
        <time>2014-05-31T11:15:54Z</time>
      </trkpt>
      <trkpt lat="45.29514" lon="5.09845">
        <ele>382.84612316934</ele>
        <time>2014-05-31T11:15:59Z</time>
      </trkpt>
      <trkpt lat="45.29506" lon="5.09847">
        <ele>385.25525518277</ele>
        <time>2014-05-31T11:16:04Z</time>
      </trkpt>
      <trkpt lat="45.295" lon="5.09847">
        <ele>385.25525518277</ele>
        <time>2014-05-31T11:16:09Z</time>
      </trkpt>
      <trkpt lat="45.29491" lon="5.09846">
        <ele>387.45972511545</ele>
        <time>2014-05-31T11:16:14Z</time>
      </trkpt>
      <trkpt lat="45.29485" lon="5.09843">
        <ele>387.45972511545</ele>
        <time>2014-05-31T11:16:19Z</time>
      </trkpt>
      <trkpt lat="45.29478" lon="5.09843">
        <ele>389.79734032428</ele>
        <time>2014-05-31T11:16:24Z</time>
      </trkpt>
      <trkpt lat="45.29471" lon="5.09847">
        <ele>389.79734032428</ele>
        <time>2014-05-31T11:16:29Z</time>
      </trkpt>
      <trkpt lat="45.29465" lon="5.09851">
        <ele>391.88915585475</ele>
        <time>2014-05-31T11:16:34Z</time>
      </trkpt>
      <trkpt lat="45.2946" lon="5.09854">
        <ele>391.88915585475</ele>
        <time>2014-05-31T11:16:39Z</time>
      </trkpt>
      <trkpt lat="45.29454" lon="5.09857">
        <ele>393.84609180319</ele>
        <time>2014-05-31T11:16:44Z</time>
      </trkpt>
      <trkpt lat="45.29448" lon="5.09861">
        <ele>393.84609180319</ele>
        <time>2014-05-31T11:16:49Z</time>
      </trkpt>
      <trkpt lat="45.29446" lon="5.09863">
        <ele>393.84609180319</ele>
        <time>2014-05-31T11:16:54Z</time>
      </trkpt>
      <trkpt lat="45.29442" lon="5.09865">
        <ele>396.40558194968</ele>
        <time>2014-05-31T11:16:59Z</time>
      </trkpt>
      <trkpt lat="45.29437" lon="5.0987">
        <ele>396.40558194968</ele>
        <time>2014-05-31T11:17:04Z</time>
      </trkpt>
      <trkpt lat="45.29433" lon="5.09877">
        <ele>398.93799126085</ele>
        <time>2014-05-31T11:17:09Z</time>
      </trkpt>
      <trkpt lat="45.2943" lon="5.09883">
        <ele>398.93799126085</ele>
        <time>2014-05-31T11:17:14Z</time>
      </trkpt>
      <trkpt lat="45.29425" lon="5.09891">
        <ele>401.35020514053</ele>
        <time>2014-05-31T11:17:19Z</time>
      </trkpt>
      <trkpt lat="45.29418" lon="5.09899">
        <ele>404.33471022645</ele>
        <time>2014-05-31T11:17:24Z</time>
      </trkpt>
      <trkpt lat="45.29412" lon="5.09904">
        <ele>404.33471022645</ele>
        <time>2014-05-31T11:17:29Z</time>
      </trkpt>
      <trkpt lat="45.29408" lon="5.09906">
        <ele>407.04740576089</ele>
        <time>2014-05-31T11:17:34Z</time>
      </trkpt>
      <trkpt lat="45.29404" lon="5.09905">
        <ele>407.04740576089</ele>
        <time>2014-05-31T11:17:39Z</time>
      </trkpt>
      <trkpt lat="45.29396" lon="5.0991">
        <ele>410.50859250458</ele>
        <time>2014-05-31T11:17:44Z</time>
      </trkpt>
      <trkpt lat="45.29391" lon="5.09912">
        <ele>410.50859250458</ele>
        <time>2014-05-31T11:17:49Z</time>
      </trkpt>
      <trkpt lat="45.29386" lon="5.09915">
        <ele>413.42804856529</ele>
        <time>2014-05-31T11:17:54Z</time>
      </trkpt>
      <trkpt lat="45.29381" lon="5.09916">
        <ele>413.42804856529</ele>
        <time>2014-05-31T11:17:59Z</time>
      </trkpt>
      <trkpt lat="45.29374" lon="5.09918">
        <ele>416.28379920159</ele>
        <time>2014-05-31T11:18:04Z</time>
      </trkpt>
      <trkpt lat="45.29369" lon="5.09921">
        <ele>416.28379920159</ele>
        <time>2014-05-31T11:18:09Z</time>
      </trkpt>
      <trkpt lat="45.29362" lon="5.09923">
        <ele>419.01480921544</ele>
        <time>2014-05-31T11:18:14Z</time>
      </trkpt>
      <trkpt lat="45.29357" lon="5.09922">
        <ele>419.01480921544</ele>
        <time>2014-05-31T11:18:19Z</time>
      </trkpt>
      <trkpt lat="45.29354" lon="5.09921">
        <ele>419.01480921544</ele>
        <time>2014-05-31T11:18:24Z</time>
      </trkpt>
      <trkpt lat="45.2935" lon="5.09922">
        <ele>420.61401140677</ele>
        <time>2014-05-31T11:18:29Z</time>
      </trkpt>
      <trkpt lat="45.29347" lon="5.09923">
        <ele>420.61401140677</ele>
        <time>2014-05-31T11:18:34Z</time>
      </trkpt>
      <trkpt lat="45.29343" lon="5.09923">
        <ele>420.61401140677</ele>
        <time>2014-05-31T11:18:39Z</time>
      </trkpt>
      <trkpt lat="45.29339" lon="5.09926">
        <ele>420.78584612209</ele>
        <time>2014-05-31T11:18:44Z</time>
      </trkpt>
      <trkpt lat="45.29336" lon="5.09927">
        <ele>420.78584612209</ele>
        <time>2014-05-31T11:18:49Z</time>
      </trkpt>
      <trkpt lat="45.2933" lon="5.09931">
        <ele>420.86035962434</ele>
        <time>2014-05-31T11:18:54Z</time>
      </trkpt>
      <trkpt lat="45.29325" lon="5.09935">
        <ele>420.86035962434</ele>
        <time>2014-05-31T11:18:59Z</time>
      </trkpt>
      <trkpt lat="45.2932" lon="5.09938">
        <ele>420.97516386181</ele>
        <time>2014-05-31T11:19:04Z</time>
      </trkpt>
      <trkpt lat="45.29312" lon="5.09944">
        <ele>420.97516386181</ele>
        <time>2014-05-31T11:19:09Z</time>
      </trkpt>
      <trkpt lat="45.293" lon="5.09958">
        <ele>422.85750946848</ele>
        <time>2014-05-31T11:19:14Z</time>
      </trkpt>
      <trkpt lat="45.29295" lon="5.09962">
        <ele>422.85750946848</ele>
        <time>2014-05-31T11:19:19Z</time>
      </trkpt>
      <trkpt lat="45.29288" lon="5.09967">
        <ele>424.03908183623</ele>
        <time>2014-05-31T11:19:24Z</time>
      </trkpt>
      <trkpt lat="45.29284" lon="5.09969">
        <ele>424.03908183623</ele>
        <time>2014-05-31T11:19:29Z</time>
      </trkpt>
      <trkpt lat="45.29279" lon="5.09971">
        <ele>424.06526141581</ele>
        <time>2014-05-31T11:19:34Z</time>
      </trkpt>
      <trkpt lat="45.29276" lon="5.09973">
        <ele>424.06526141581</ele>
        <time>2014-05-31T11:19:39Z</time>
      </trkpt>
      <trkpt lat="45.29271" lon="5.09975">
        <ele>424.06526141581</ele>
        <time>2014-05-31T11:19:44Z</time>
      </trkpt>
      <trkpt lat="45.29266" lon="5.09978">
        <ele>424.17552753148</ele>
        <time>2014-05-31T11:19:49Z</time>
      </trkpt>
      <trkpt lat="45.2926" lon="5.09984">
        <ele>424.17552753148</ele>
        <time>2014-05-31T11:19:54Z</time>
      </trkpt>
      <trkpt lat="45.29256" lon="5.09988">
        <ele>424.07712925126</ele>
        <time>2014-05-31T11:19:59Z</time>
      </trkpt>
      <trkpt lat="45.29251" lon="5.0999">
        <ele>424.07712925126</ele>
        <time>2014-05-31T11:20:04Z</time>
      </trkpt>
      <trkpt lat="45.29248" lon="5.09992">
        <ele>424.07712925126</ele>
        <time>2014-05-31T11:20:09Z</time>
      </trkpt>
      <trkpt lat="45.29243" lon="5.09997">
        <ele>422.63488849442</ele>
        <time>2014-05-31T11:20:14Z</time>
      </trkpt>
      <trkpt lat="45.2924" lon="5.10001">
        <ele>422.63488849442</ele>
        <time>2014-05-31T11:20:19Z</time>
      </trkpt>
      <trkpt lat="45.29233" lon="5.10005">
        <ele>421.52461522702</ele>
        <time>2014-05-31T11:20:24Z</time>
      </trkpt>
      <trkpt lat="45.29226" lon="5.10009">
        <ele>421.52461522702</ele>
        <time>2014-05-31T11:20:29Z</time>
      </trkpt>
      <trkpt lat="45.29221" lon="5.10012">
        <ele>419.96358713665</ele>
        <time>2014-05-31T11:20:34Z</time>
      </trkpt>
      <trkpt lat="45.29216" lon="5.10018">
        <ele>419.96358713665</ele>
        <time>2014-05-31T11:20:39Z</time>
      </trkpt>
      <trkpt lat="45.29206" lon="5.1003">
        <ele>419.76428243083</ele>
        <time>2014-05-31T11:20:44Z</time>
      </trkpt>
      <trkpt lat="45.29197" lon="5.1004">
        <ele>420.52707623173</ele>
        <time>2014-05-31T11:20:49Z</time>
      </trkpt>
      <trkpt lat="45.29188" lon="5.10049">
        <ele>421.17290244796</ele>
        <time>2014-05-31T11:20:54Z</time>
      </trkpt>
      <trkpt lat="45.29183" lon="5.10056">
        <ele>421.17290244796</ele>
        <time>2014-05-31T11:20:59Z</time>
      </trkpt>
      <trkpt lat="45.29178" lon="5.10058">
        <ele>421.78316049383</ele>
        <time>2014-05-31T11:21:04Z</time>
      </trkpt>
      <trkpt lat="45.29173" lon="5.10063">
        <ele>421.78316049383</ele>
        <time>2014-05-31T11:21:09Z</time>
      </trkpt>
      <trkpt lat="45.29163" lon="5.10076">
        <ele>424.19155938635</ele>
        <time>2014-05-31T11:21:14Z</time>
      </trkpt>
      <trkpt lat="45.29154" lon="5.10086">
        <ele>426.95047157839</ele>
        <time>2014-05-31T11:21:19Z</time>
      </trkpt>
      <trkpt lat="45.29144" lon="5.10095">
        <ele>429.85614590169</ele>
        <time>2014-05-31T11:21:24Z</time>
      </trkpt>
      <trkpt lat="45.29139" lon="5.101">
        <ele>429.85614590169</ele>
        <time>2014-05-31T11:21:29Z</time>
      </trkpt>
      <trkpt lat="45.29132" lon="5.10104">
        <ele>432.01328964505</ele>
        <time>2014-05-31T11:21:34Z</time>
      </trkpt>
      <trkpt lat="45.29128" lon="5.10105">
        <ele>432.01328964505</ele>
        <time>2014-05-31T11:21:39Z</time>
      </trkpt>
      <trkpt lat="45.29125" lon="5.10105">
        <ele>432.01328964505</ele>
        <time>2014-05-31T11:21:44Z</time>
      </trkpt>
      <trkpt lat="45.29121" lon="5.1011">
        <ele>434.20857974832</ele>
        <time>2014-05-31T11:21:49Z</time>
      </trkpt>
      <trkpt lat="45.29115" lon="5.10116">
        <ele>434.20857974832</ele>
        <time>2014-05-31T11:21:54Z</time>
      </trkpt>
      <trkpt lat="45.29109" lon="5.1012">
        <ele>435.80180523773</ele>
        <time>2014-05-31T11:21:59Z</time>
      </trkpt>
      <trkpt lat="45.29103" lon="5.10124">
        <ele>435.80180523773</ele>
        <time>2014-05-31T11:22:04Z</time>
      </trkpt>
      <trkpt lat="45.29098" lon="5.1013">
        <ele>437.57059822242</ele>
        <time>2014-05-31T11:22:09Z</time>
      </trkpt>
      <trkpt lat="45.29089" lon="5.10141">
        <ele>439.55772231288</ele>
        <time>2014-05-31T11:22:14Z</time>
      </trkpt>
      <trkpt lat="45.29082" lon="5.10145">
        <ele>439.55772231288</ele>
        <time>2014-05-31T11:22:19Z</time>
      </trkpt>
      <trkpt lat="45.29072" lon="5.10148">
        <ele>442.55163946206</ele>
        <time>2014-05-31T11:22:24Z</time>
      </trkpt>
      <trkpt lat="45.29066" lon="5.10152">
        <ele>442.55163946206</ele>
        <time>2014-05-31T11:22:29Z</time>
      </trkpt>
      <trkpt lat="45.29058" lon="5.10157">
        <ele>445.53640044769</ele>
        <time>2014-05-31T11:22:34Z</time>
      </trkpt>
      <trkpt lat="45.29052" lon="5.10162">
        <ele>445.53640044769</ele>
        <time>2014-05-31T11:22:39Z</time>
      </trkpt>
      <trkpt lat="45.29047" lon="5.10164">
        <ele>448.3922307104</ele>
        <time>2014-05-31T11:22:44Z</time>
      </trkpt>
      <trkpt lat="45.29043" lon="5.10165">
        <ele>448.3922307104</ele>
        <time>2014-05-31T11:22:49Z</time>
      </trkpt>
      <trkpt lat="45.29039" lon="5.1017">
        <ele>448.3922307104</ele>
        <time>2014-05-31T11:22:54Z</time>
      </trkpt>
      <trkpt lat="45.29036" lon="5.10174">
        <ele>450.76361786619</ele>
        <time>2014-05-31T11:22:59Z</time>
      </trkpt>
      <trkpt lat="45.29031" lon="5.1018">
        <ele>450.76361786619</ele>
        <time>2014-05-31T11:23:04Z</time>
      </trkpt>
      <trkpt lat="45.29028" lon="5.10181">
        <ele>452.98553253565</ele>
        <time>2014-05-31T11:23:09Z</time>
      </trkpt>
      <trkpt lat="45.29024" lon="5.10183">
        <ele>452.98553253565</ele>
        <time>2014-05-31T11:23:14Z</time>
      </trkpt>
      <trkpt lat="45.29021" lon="5.10182">
        <ele>452.98553253565</ele>
        <time>2014-05-31T11:23:19Z</time>
      </trkpt>
      <trkpt lat="45.29017" lon="5.10185">
        <ele>454.76359092353</ele>
        <time>2014-05-31T11:23:24Z</time>
      </trkpt>
      <trkpt lat="45.29013" lon="5.10189">
        <ele>454.76359092353</ele>
        <time>2014-05-31T11:23:29Z</time>
      </trkpt>
      <trkpt lat="45.29007" lon="5.10198">
        <ele>456.11460158346</ele>
        <time>2014-05-31T11:23:34Z</time>
      </trkpt>
      <trkpt lat="45.29002" lon="5.10201">
        <ele>456.11460158346</ele>
        <time>2014-05-31T11:23:39Z</time>
      </trkpt>
      <trkpt lat="45.28997" lon="5.10205">
        <ele>457.17072131891</ele>
        <time>2014-05-31T11:23:44Z</time>
      </trkpt>
      <trkpt lat="45.28993" lon="5.10206">
        <ele>457.17072131891</ele>
        <time>2014-05-31T11:23:49Z</time>
      </trkpt>
      <trkpt lat="45.28988" lon="5.10209">
        <ele>457.17072131891</ele>
        <time>2014-05-31T11:23:54Z</time>
      </trkpt>
      <trkpt lat="45.28985" lon="5.10212">
        <ele>457.65180390827</ele>
        <time>2014-05-31T11:23:59Z</time>
      </trkpt>
      <trkpt lat="45.2898" lon="5.10215">
        <ele>457.65180390827</ele>
        <time>2014-05-31T11:24:04Z</time>
      </trkpt>
      <trkpt lat="45.28976" lon="5.10219">
        <ele>457.06939559004</ele>
        <time>2014-05-31T11:24:09Z</time>
      </trkpt>
      <trkpt lat="45.28974" lon="5.10221">
        <ele>457.06939559004</ele>
        <time>2014-05-31T11:24:14Z</time>
      </trkpt>
      <trkpt lat="45.28969" lon="5.10224">
        <ele>457.06939559004</ele>
        <time>2014-05-31T11:24:19Z</time>
      </trkpt>
      <trkpt lat="45.28962" lon="5.10229">
        <ele>456.04039269788</ele>
        <time>2014-05-31T11:24:24Z</time>
      </trkpt>
      <trkpt lat="45.28955" lon="5.10234">
        <ele>456.04039269788</ele>
        <time>2014-05-31T11:24:29Z</time>
      </trkpt>
      <trkpt lat="45.28948" lon="5.1024">
        <ele>455.52677250113</ele>
        <time>2014-05-31T11:24:34Z</time>
      </trkpt>
      <trkpt lat="45.2894" lon="5.10247">
        <ele>455.52677250113</ele>
        <time>2014-05-31T11:24:39Z</time>
      </trkpt>
      <trkpt lat="45.2893" lon="5.10259">
        <ele>456.57695034033</ele>
        <time>2014-05-31T11:24:44Z</time>
      </trkpt>
      <trkpt lat="45.2892" lon="5.1027">
        <ele>457.82335108788</ele>
        <time>2014-05-31T11:24:49Z</time>
      </trkpt>
      <trkpt lat="45.28913" lon="5.10277">
        <ele>457.82335108788</ele>
        <time>2014-05-31T11:24:54Z</time>
      </trkpt>
      <trkpt lat="45.28906" lon="5.10283">
        <ele>458.96385878441</ele>
        <time>2014-05-31T11:24:59Z</time>
      </trkpt>
      <trkpt lat="45.28899" lon="5.10287">
        <ele>458.96385878441</ele>
        <time>2014-05-31T11:25:04Z</time>
      </trkpt>
      <trkpt lat="45.28892" lon="5.10291">
        <ele>460.62674764574</ele>
        <time>2014-05-31T11:25:09Z</time>
      </trkpt>
      <trkpt lat="45.28885" lon="5.10294">
        <ele>460.62674764574</ele>
        <time>2014-05-31T11:25:14Z</time>
      </trkpt>
      <trkpt lat="45.28878" lon="5.10298">
        <ele>462.06684944654</ele>
        <time>2014-05-31T11:25:19Z</time>
      </trkpt>
      <trkpt lat="45.28871" lon="5.10301">
        <ele>462.06684944654</ele>
        <time>2014-05-31T11:25:24Z</time>
      </trkpt>
      <trkpt lat="45.28865" lon="5.10304">
        <ele>463.17080282132</ele>
        <time>2014-05-31T11:25:29Z</time>
      </trkpt>
      <trkpt lat="45.28858" lon="5.10308">
        <ele>463.17080282132</ele>
        <time>2014-05-31T11:25:34Z</time>
      </trkpt>
      <trkpt lat="45.28852" lon="5.1031">
        <ele>463.82010181025</ele>
        <time>2014-05-31T11:25:39Z</time>
      </trkpt>
      <trkpt lat="45.28845" lon="5.1031">
        <ele>463.82010181025</ele>
        <time>2014-05-31T11:25:44Z</time>
      </trkpt>
      <trkpt lat="45.28838" lon="5.10313">
        <ele>464.25208132967</ele>
        <time>2014-05-31T11:25:49Z</time>
      </trkpt>
      <trkpt lat="45.28832" lon="5.10314">
        <ele>464.25208132967</ele>
        <time>2014-05-31T11:25:54Z</time>
      </trkpt>
      <trkpt lat="45.28826" lon="5.10316">
        <ele>464.37019483053</ele>
        <time>2014-05-31T11:25:59Z</time>
      </trkpt>
      <trkpt lat="45.2882" lon="5.10318">
        <ele>464.37019483053</ele>
        <time>2014-05-31T11:26:04Z</time>
      </trkpt>
      <trkpt lat="45.28815" lon="5.1032">
        <ele>464.35966032663</ele>
        <time>2014-05-31T11:26:09Z</time>
      </trkpt>
      <trkpt lat="45.2881" lon="5.1032">
        <ele>464.35966032663</ele>
        <time>2014-05-31T11:26:14Z</time>
      </trkpt>
      <trkpt lat="45.28805" lon="5.10323">
        <ele>463.65745459254</ele>
        <time>2014-05-31T11:26:19Z</time>
      </trkpt>
      <trkpt lat="45.28799" lon="5.10325">
        <ele>463.65745459254</ele>
        <time>2014-05-31T11:26:24Z</time>
      </trkpt>
      <trkpt lat="45.28791" lon="5.10326">
        <ele>462.69494710201</ele>
        <time>2014-05-31T11:26:29Z</time>
      </trkpt>
      <trkpt lat="45.28785" lon="5.10327">
        <ele>462.69494710201</ele>
        <time>2014-05-31T11:26:34Z</time>
      </trkpt>
      <trkpt lat="45.28778" lon="5.10326">
        <ele>461.69956227905</ele>
        <time>2014-05-31T11:26:39Z</time>
      </trkpt>
      <trkpt lat="45.28772" lon="5.10326">
        <ele>461.69956227905</ele>
        <time>2014-05-31T11:26:44Z</time>
      </trkpt>
      <trkpt lat="45.28766" lon="5.10324">
        <ele>460.11825238187</ele>
        <time>2014-05-31T11:26:49Z</time>
      </trkpt>
      <trkpt lat="45.2876" lon="5.10325">
        <ele>460.11825238187</ele>
        <time>2014-05-31T11:26:54Z</time>
      </trkpt>
      <trkpt lat="45.28753" lon="5.10322">
        <ele>458.30482178681</ele>
        <time>2014-05-31T11:26:59Z</time>
      </trkpt>
      <trkpt lat="45.28747" lon="5.10322">
        <ele>458.30482178681</ele>
        <time>2014-05-31T11:27:04Z</time>
      </trkpt>
      <trkpt lat="45.2874" lon="5.10322">
        <ele>455.89589919039</ele>
        <time>2014-05-31T11:27:09Z</time>
      </trkpt>
      <trkpt lat="45.28732" lon="5.10321">
        <ele>455.89589919039</ele>
        <time>2014-05-31T11:27:14Z</time>
      </trkpt>
      <trkpt lat="45.28726" lon="5.10321">
        <ele>452.95986555921</ele>
        <time>2014-05-31T11:27:19Z</time>
      </trkpt>
      <trkpt lat="45.2872" lon="5.10321">
        <ele>452.95986555921</ele>
        <time>2014-05-31T11:27:24Z</time>
      </trkpt>
      <trkpt lat="45.28714" lon="5.10318">
        <ele>450.13785872139</ele>
        <time>2014-05-31T11:27:29Z</time>
      </trkpt>
      <trkpt lat="45.28707" lon="5.10315">
        <ele>450.13785872139</ele>
        <time>2014-05-31T11:27:34Z</time>
      </trkpt>
      <trkpt lat="45.28701" lon="5.10315">
        <ele>447.37493445843</ele>
        <time>2014-05-31T11:27:39Z</time>
      </trkpt>
      <trkpt lat="45.28694" lon="5.10313">
        <ele>447.37493445843</ele>
        <time>2014-05-31T11:27:44Z</time>
      </trkpt>
      <trkpt lat="45.28686" lon="5.10308">
        <ele>445.68625869251</ele>
        <time>2014-05-31T11:27:49Z</time>
      </trkpt>
      <trkpt lat="45.28678" lon="5.10302">
        <ele>445.02925765351</ele>
        <time>2014-05-31T11:27:54Z</time>
      </trkpt>
      <trkpt lat="45.2867" lon="5.10297">
        <ele>445.02925765351</ele>
        <time>2014-05-31T11:27:59Z</time>
      </trkpt>
      <trkpt lat="45.28664" lon="5.10292">
        <ele>444.61200827532</ele>
        <time>2014-05-31T11:28:04Z</time>
      </trkpt>
      <trkpt lat="45.28657" lon="5.1029">
        <ele>444.61200827532</ele>
        <time>2014-05-31T11:28:09Z</time>
      </trkpt>
      <trkpt lat="45.2865" lon="5.10288">
        <ele>444.6654282765</ele>
        <time>2014-05-31T11:28:14Z</time>
      </trkpt>
      <trkpt lat="45.28644" lon="5.10287">
        <ele>444.6654282765</ele>
        <time>2014-05-31T11:28:19Z</time>
      </trkpt>
      <trkpt lat="45.28638" lon="5.10283">
        <ele>444.72462800915</ele>
        <time>2014-05-31T11:28:24Z</time>
      </trkpt>
      <trkpt lat="45.28633" lon="5.10279">
        <ele>444.72462800915</ele>
        <time>2014-05-31T11:28:29Z</time>
      </trkpt>
      <trkpt lat="45.28629" lon="5.10272">
        <ele>444.77658042966</ele>
        <time>2014-05-31T11:28:34Z</time>
      </trkpt>
      <trkpt lat="45.28624" lon="5.10264">
        <ele>444.77658042966</ele>
        <time>2014-05-31T11:28:39Z</time>
      </trkpt>
      <trkpt lat="45.28619" lon="5.10258">
        <ele>444.95316172784</ele>
        <time>2014-05-31T11:28:44Z</time>
      </trkpt>
      <trkpt lat="45.28613" lon="5.10252">
        <ele>444.95316172784</ele>
        <time>2014-05-31T11:28:49Z</time>
      </trkpt>
      <trkpt lat="45.28608" lon="5.10247">
        <ele>445.37603568061</ele>
        <time>2014-05-31T11:28:54Z</time>
      </trkpt>
      <trkpt lat="45.28602" lon="5.10243">
        <ele>445.37603568061</ele>
        <time>2014-05-31T11:28:59Z</time>
      </trkpt>
      <trkpt lat="45.28597" lon="5.10238">
        <ele>446.41647404838</ele>
        <time>2014-05-31T11:29:04Z</time>
      </trkpt>
      <trkpt lat="45.28592" lon="5.10236">
        <ele>446.41647404838</ele>
        <time>2014-05-31T11:29:09Z</time>
      </trkpt>
      <trkpt lat="45.28586" lon="5.10234">
        <ele>446.77372300853</ele>
        <time>2014-05-31T11:29:14Z</time>
      </trkpt>
      <trkpt lat="45.2858" lon="5.10231">
        <ele>446.77372300853</ele>
        <time>2014-05-31T11:29:19Z</time>
      </trkpt>
      <trkpt lat="45.28573" lon="5.10228">
        <ele>447.56454802201</ele>
        <time>2014-05-31T11:29:24Z</time>
      </trkpt>
      <trkpt lat="45.28566" lon="5.10224">
        <ele>447.56454802201</ele>
        <time>2014-05-31T11:29:29Z</time>
      </trkpt>
      <trkpt lat="45.28559" lon="5.10224">
        <ele>447.57419905807</ele>
        <time>2014-05-31T11:29:34Z</time>
      </trkpt>
      <trkpt lat="45.28552" lon="5.10222">
        <ele>447.57419905807</ele>
        <time>2014-05-31T11:29:39Z</time>
      </trkpt>
      <trkpt lat="45.28545" lon="5.1022">
        <ele>447.84090265476</ele>
        <time>2014-05-31T11:29:44Z</time>
      </trkpt>
      <trkpt lat="45.28538" lon="5.10217">
        <ele>447.84090265476</ele>
        <time>2014-05-31T11:29:49Z</time>
      </trkpt>
      <trkpt lat="45.28532" lon="5.10215">
        <ele>447.98555456939</ele>
        <time>2014-05-31T11:29:54Z</time>
      </trkpt>
      <trkpt lat="45.28526" lon="5.10212">
        <ele>447.98555456939</ele>
        <time>2014-05-31T11:29:59Z</time>
      </trkpt>
      <trkpt lat="45.2852" lon="5.1021">
        <ele>448.10388589426</ele>
        <time>2014-05-31T11:30:04Z</time>
      </trkpt>
      <trkpt lat="45.28513" lon="5.1021">
        <ele>448.10388589426</ele>
        <time>2014-05-31T11:30:09Z</time>
      </trkpt>
      <trkpt lat="45.28507" lon="5.10213">
        <ele>448.2413421801</ele>
        <time>2014-05-31T11:30:14Z</time>
      </trkpt>
      <trkpt lat="45.28502" lon="5.10213">
        <ele>448.2413421801</ele>
        <time>2014-05-31T11:30:19Z</time>
      </trkpt>
      <trkpt lat="45.28496" lon="5.10214">
        <ele>448.05078913714</ele>
        <time>2014-05-31T11:30:24Z</time>
      </trkpt>
      <trkpt lat="45.2849" lon="5.10213">
        <ele>448.05078913714</ele>
        <time>2014-05-31T11:30:29Z</time>
      </trkpt>
      <trkpt lat="45.28483" lon="5.10212">
        <ele>447.88875304328</ele>
        <time>2014-05-31T11:30:34Z</time>
      </trkpt>
      <trkpt lat="45.28477" lon="5.10212">
        <ele>447.88875304328</ele>
        <time>2014-05-31T11:30:39Z</time>
      </trkpt>
      <trkpt lat="45.2847" lon="5.10212">
        <ele>447.68190075455</ele>
        <time>2014-05-31T11:30:44Z</time>
      </trkpt>
      <trkpt lat="45.28464" lon="5.10213">
        <ele>447.68190075455</ele>
        <time>2014-05-31T11:30:49Z</time>
      </trkpt>
      <trkpt lat="45.28457" lon="5.10212">
        <ele>447.70820480026</ele>
        <time>2014-05-31T11:30:54Z</time>
      </trkpt>
      <trkpt lat="45.2845" lon="5.10212">
        <ele>447.70820480026</ele>
        <time>2014-05-31T11:30:59Z</time>
      </trkpt>
      <trkpt lat="45.28442" lon="5.10212">
        <ele>448.09479448828</ele>
        <time>2014-05-31T11:31:04Z</time>
      </trkpt>
      <trkpt lat="45.28436" lon="5.10213">
        <ele>448.09479448828</ele>
        <time>2014-05-31T11:31:09Z</time>
      </trkpt>
      <trkpt lat="45.2843" lon="5.10215">
        <ele>448.56928541768</ele>
        <time>2014-05-31T11:31:14Z</time>
      </trkpt>
      <trkpt lat="45.28425" lon="5.10219">
        <ele>448.56928541768</ele>
        <time>2014-05-31T11:31:19Z</time>
      </trkpt>
      <trkpt lat="45.28419" lon="5.1022">
        <ele>448.30255227305</ele>
        <time>2014-05-31T11:31:24Z</time>
      </trkpt>
      <trkpt lat="45.28413" lon="5.10218">
        <ele>448.30255227305</ele>
        <time>2014-05-31T11:31:29Z</time>
      </trkpt>
      <trkpt lat="45.28407" lon="5.10216">
        <ele>447.81099143963</ele>
        <time>2014-05-31T11:31:34Z</time>
      </trkpt>
      <trkpt lat="45.284" lon="5.10216">
        <ele>447.81099143963</ele>
        <time>2014-05-31T11:31:39Z</time>
      </trkpt>
      <trkpt lat="45.28395" lon="5.10219">
        <ele>447.08366677213</ele>
        <time>2014-05-31T11:31:44Z</time>
      </trkpt>
      <trkpt lat="45.2839" lon="5.10219">
        <ele>447.08366677213</ele>
        <time>2014-05-31T11:31:49Z</time>
      </trkpt>
      <trkpt lat="45.28384" lon="5.10217">
        <ele>445.75077759207</ele>
        <time>2014-05-31T11:31:54Z</time>
      </trkpt>
      <trkpt lat="45.28379" lon="5.10215">
        <ele>445.75077759207</ele>
        <time>2014-05-31T11:31:59Z</time>
      </trkpt>
      <trkpt lat="45.28372" lon="5.10212">
        <ele>444.71068967698</ele>
        <time>2014-05-31T11:32:04Z</time>
      </trkpt>
      <trkpt lat="45.28365" lon="5.10209">
        <ele>444.71068967698</ele>
        <time>2014-05-31T11:32:09Z</time>
      </trkpt>
      <trkpt lat="45.28356" lon="5.10206">
        <ele>444.6796094818</ele>
        <time>2014-05-31T11:32:14Z</time>
      </trkpt>
      <trkpt lat="45.28347" lon="5.10204">
        <ele>444.6796094818</ele>
        <time>2014-05-31T11:32:19Z</time>
      </trkpt>
      <trkpt lat="45.28339" lon="5.10202">
        <ele>445.85709045628</ele>
        <time>2014-05-31T11:32:24Z</time>
      </trkpt>
      <trkpt lat="45.28331" lon="5.10199">
        <ele>445.85709045628</ele>
        <time>2014-05-31T11:32:29Z</time>
      </trkpt>
      <trkpt lat="45.28325" lon="5.10199">
        <ele>446.85377448854</ele>
        <time>2014-05-31T11:32:34Z</time>
      </trkpt>
      <trkpt lat="45.28318" lon="5.10199">
        <ele>446.85377448854</ele>
        <time>2014-05-31T11:32:39Z</time>
      </trkpt>
      <trkpt lat="45.28312" lon="5.10199">
        <ele>447.33396318008</ele>
        <time>2014-05-31T11:32:44Z</time>
      </trkpt>
      <trkpt lat="45.28306" lon="5.102">
        <ele>447.33396318008</ele>
        <time>2014-05-31T11:32:49Z</time>
      </trkpt>
      <trkpt lat="45.283" lon="5.10201">
        <ele>447.53565664734</ele>
        <time>2014-05-31T11:32:54Z</time>
      </trkpt>
      <trkpt lat="45.28295" lon="5.10203">
        <ele>447.53565664734</ele>
        <time>2014-05-31T11:32:59Z</time>
      </trkpt>
      <trkpt lat="45.28289" lon="5.10203">
        <ele>447.30543886307</ele>
        <time>2014-05-31T11:33:04Z</time>
      </trkpt>
      <trkpt lat="45.28281" lon="5.102">
        <ele>447.30543886307</ele>
        <time>2014-05-31T11:33:09Z</time>
      </trkpt>
      <trkpt lat="45.28276" lon="5.10198">
        <ele>448.24610247639</ele>
        <time>2014-05-31T11:33:14Z</time>
      </trkpt>
      <trkpt lat="45.28275" lon="5.10197">
        <ele>448.24610247639</ele>
        <time>2014-05-31T11:33:19Z</time>
      </trkpt>
      <trkpt lat="45.28271" lon="5.10196">
        <ele>448.24610247639</ele>
        <time>2014-05-31T11:33:24Z</time>
      </trkpt>
      <trkpt lat="45.28263" lon="5.10201">
        <ele>450.05242640945</ele>
        <time>2014-05-31T11:33:29Z</time>
      </trkpt>
      <trkpt lat="45.28257" lon="5.10207">
        <ele>450.05242640945</ele>
        <time>2014-05-31T11:33:34Z</time>
      </trkpt>
      <trkpt lat="45.28252" lon="5.10216">
        <ele>452.17978190911</ele>
        <time>2014-05-31T11:33:39Z</time>
      </trkpt>
      <trkpt lat="45.28246" lon="5.10225">
        <ele>452.17978190911</ele>
        <time>2014-05-31T11:33:44Z</time>
      </trkpt>
      <trkpt lat="45.28241" lon="5.10235">
        <ele>454.49734969338</ele>
        <time>2014-05-31T11:33:49Z</time>
      </trkpt>
      <trkpt lat="45.28237" lon="5.10244">
        <ele>454.49734969338</ele>
        <time>2014-05-31T11:33:54Z</time>
      </trkpt>
      <trkpt lat="45.28234" lon="5.10254">
        <ele>456.71048271464</ele>
        <time>2014-05-31T11:33:59Z</time>
      </trkpt>
      <trkpt lat="45.28231" lon="5.10263">
        <ele>456.71048271464</ele>
        <time>2014-05-31T11:34:04Z</time>
      </trkpt>
      <trkpt lat="45.28228" lon="5.10272">
        <ele>458.67621757927</ele>
        <time>2014-05-31T11:34:09Z</time>
      </trkpt>
      <trkpt lat="45.28225" lon="5.10282">
        <ele>458.67621757927</ele>
        <time>2014-05-31T11:34:14Z</time>
      </trkpt>
      <trkpt lat="45.28222" lon="5.10291">
        <ele>460.43578156351</ele>
        <time>2014-05-31T11:34:19Z</time>
      </trkpt>
      <trkpt lat="45.2822" lon="5.10301">
        <ele>460.43578156351</ele>
        <time>2014-05-31T11:34:24Z</time>
      </trkpt>
      <trkpt lat="45.28217" lon="5.10309">
        <ele>461.85509215267</ele>
        <time>2014-05-31T11:34:29Z</time>
      </trkpt>
      <trkpt lat="45.28213" lon="5.10312">
        <ele>461.85509215267</ele>
        <time>2014-05-31T11:34:34Z</time>
      </trkpt>
      <trkpt lat="45.28213" lon="5.10319">
        <ele>462.95506518481</ele>
        <time>2014-05-31T11:34:39Z</time>
      </trkpt>
      <trkpt lat="45.28213" lon="5.1033">
        <ele>462.95506518481</ele>
        <time>2014-05-31T11:34:44Z</time>
      </trkpt>
      <trkpt lat="45.28212" lon="5.10341">
        <ele>463.72724256555</ele>
        <time>2014-05-31T11:34:49Z</time>
      </trkpt>
      <trkpt lat="45.28211" lon="5.10352">
        <ele>463.72724256555</ele>
        <time>2014-05-31T11:34:54Z</time>
      </trkpt>
      <trkpt lat="45.28212" lon="5.10363">
        <ele>464.35214338625</ele>
        <time>2014-05-31T11:34:59Z</time>
      </trkpt>
      <trkpt lat="45.28211" lon="5.10374">
        <ele>464.35214338625</ele>
        <time>2014-05-31T11:35:04Z</time>
      </trkpt>
      <trkpt lat="45.28211" lon="5.10384">
        <ele>464.7381307137</ele>
        <time>2014-05-31T11:35:09Z</time>
      </trkpt>
      <trkpt lat="45.28211" lon="5.10394">
        <ele>464.7381307137</ele>
        <time>2014-05-31T11:35:14Z</time>
      </trkpt>
      <trkpt lat="45.2821" lon="5.10404">
        <ele>464.9595811592</ele>
        <time>2014-05-31T11:35:19Z</time>
      </trkpt>
      <trkpt lat="45.28209" lon="5.10414">
        <ele>464.9595811592</ele>
        <time>2014-05-31T11:35:24Z</time>
      </trkpt>
      <trkpt lat="45.28206" lon="5.10423">
        <ele>465.15801038288</ele>
        <time>2014-05-31T11:35:29Z</time>
      </trkpt>
      <trkpt lat="45.28201" lon="5.10429">
        <ele>465.15801038288</ele>
        <time>2014-05-31T11:35:34Z</time>
      </trkpt>
      <trkpt lat="45.28193" lon="5.10431">
        <ele>465.32057239537</ele>
        <time>2014-05-31T11:35:39Z</time>
      </trkpt>
      <trkpt lat="45.28186" lon="5.10431">
        <ele>465.32057239537</ele>
        <time>2014-05-31T11:35:44Z</time>
      </trkpt>
      <trkpt lat="45.28178" lon="5.1043">
        <ele>465.42112927859</ele>
        <time>2014-05-31T11:35:49Z</time>
      </trkpt>
      <trkpt lat="45.28171" lon="5.1043">
        <ele>465.42112927859</ele>
        <time>2014-05-31T11:35:54Z</time>
      </trkpt>
      <trkpt lat="45.28164" lon="5.10429">
        <ele>465.23395000925</ele>
        <time>2014-05-31T11:35:59Z</time>
      </trkpt>
      <trkpt lat="45.28157" lon="5.10429">
        <ele>465.23395000925</ele>
        <time>2014-05-31T11:36:04Z</time>
      </trkpt>
      <trkpt lat="45.2815" lon="5.10429">
        <ele>465.06955482786</ele>
        <time>2014-05-31T11:36:09Z</time>
      </trkpt>
      <trkpt lat="45.28143" lon="5.10428">
        <ele>465.06955482786</ele>
        <time>2014-05-31T11:36:14Z</time>
      </trkpt>
      <trkpt lat="45.28144" lon="5.10426">
        <ele>465.06955482786</ele>
        <time>2014-05-31T11:36:19Z</time>
      </trkpt>
      <trkpt lat="45.28145" lon="5.10425">
        <ele>464.62478785778</ele>
        <time>2014-05-31T11:36:24Z</time>
      </trkpt>
      <trkpt lat="45.28146" lon="5.10424">
        <ele>464.62478785778</ele>
        <time>2014-05-31T11:36:29Z</time>
      </trkpt>
      <trkpt lat="45.28144" lon="5.10426">
        <ele>464.62478785778</ele>
        <time>2014-05-31T11:36:34Z</time>
      </trkpt>
      <trkpt lat="45.28144" lon="5.10425">
        <ele>464.62478785778</ele>
        <time>2014-05-31T11:36:39Z</time>
      </trkpt>
      <trkpt lat="45.28144" lon="5.10426">
        <ele>464.62478785778</ele>
        <time>2014-05-31T11:36:44Z</time>
      </trkpt>
      <trkpt lat="45.28145" lon="5.10426">
        <ele>464.62478785778</ele>
        <time>2014-05-31T11:36:49Z</time>
      </trkpt>
      <trkpt lat="45.28145" lon="5.10426">
        <ele>464.62478785778</ele>
        <time>2014-05-31T11:36:54Z</time>
      </trkpt>
      <trkpt lat="45.28146" lon="5.10426">
        <ele>464.62478785778</ele>
        <time>2014-05-31T11:36:59Z</time>
      </trkpt>
      <trkpt lat="45.28146" lon="5.10426">
        <ele>464.62478785778</ele>
        <time>2014-05-31T11:37:04Z</time>
      </trkpt>
      <trkpt lat="45.28146" lon="5.10425">
        <ele>464.62478785778</ele>
        <time>2014-05-31T11:37:09Z</time>
      </trkpt>
      <trkpt lat="45.28143" lon="5.10426">
        <ele>463.80693931692</ele>
        <time>2014-05-31T11:37:14Z</time>
      </trkpt>
      <trkpt lat="45.28143" lon="5.10427">
        <ele>463.80693931692</ele>
        <time>2014-05-31T11:37:19Z</time>
      </trkpt>
      <trkpt lat="45.28143" lon="5.10427">
        <ele>463.80693931692</ele>
        <time>2014-05-31T11:37:24Z</time>
      </trkpt>
      <trkpt lat="45.28142" lon="5.10429">
        <ele>463.80693931692</ele>
        <time>2014-05-31T11:37:29Z</time>
      </trkpt>
      <trkpt lat="45.28142" lon="5.10429">
        <ele>463.80693931692</ele>
        <time>2014-05-31T11:37:34Z</time>
      </trkpt>
      <trkpt lat="45.28142" lon="5.1043">
        <ele>463.80693931692</ele>
        <time>2014-05-31T11:37:39Z</time>
      </trkpt>
      <trkpt lat="45.28141" lon="5.10429">
        <ele>463.80693931692</ele>
        <time>2014-05-31T11:37:44Z</time>
      </trkpt>
      <trkpt lat="45.28141" lon="5.1043">
        <ele>463.80693931692</ele>
        <time>2014-05-31T11:37:49Z</time>
      </trkpt>
      <trkpt lat="45.2814" lon="5.10428">
        <ele>463.80693931692</ele>
        <time>2014-05-31T11:37:54Z</time>
      </trkpt>
      <trkpt lat="45.28141" lon="5.10427">
        <ele>463.80693931692</ele>
        <time>2014-05-31T11:37:59Z</time>
      </trkpt>
      <trkpt lat="45.28141" lon="5.10427">
        <ele>463.80693931692</ele>
        <time>2014-05-31T11:38:04Z</time>
      </trkpt>
      <trkpt lat="45.28141" lon="5.10427">
        <ele>463.80693931692</ele>
        <time>2014-05-31T11:38:09Z</time>
      </trkpt>
      <trkpt lat="45.28141" lon="5.10428">
        <ele>463.80693931692</ele>
        <time>2014-05-31T11:38:14Z</time>
      </trkpt>
      <trkpt lat="45.28141" lon="5.10428">
        <ele>463.80693931692</ele>
        <time>2014-05-31T11:38:20Z</time>
      </trkpt>
      <trkpt lat="45.28139" lon="5.10427">
        <ele>462.53119133315</ele>
        <time>2014-05-31T11:38:24Z</time>
      </trkpt>
      <trkpt lat="45.28137" lon="5.10424">
        <ele>462.53119133315</ele>
        <time>2014-05-31T11:38:29Z</time>
      </trkpt>
      <trkpt lat="45.28134" lon="5.10423">
        <ele>462.53119133315</ele>
        <time>2014-05-31T11:38:34Z</time>
      </trkpt>
      <trkpt lat="45.28134" lon="5.10423">
        <ele>462.53119133315</ele>
        <time>2014-05-31T11:38:39Z</time>
      </trkpt>
      <trkpt lat="45.28134" lon="5.10423">
        <ele>462.53119133315</ele>
        <time>2014-05-31T11:38:44Z</time>
      </trkpt>
      <trkpt lat="45.28133" lon="5.10423">
        <ele>462.53119133315</ele>
        <time>2014-05-31T11:38:49Z</time>
      </trkpt>
      <trkpt lat="45.28127" lon="5.10423">
        <ele>461.10936432922</ele>
        <time>2014-05-31T11:38:54Z</time>
      </trkpt>
      <trkpt lat="45.28121" lon="5.10423">
        <ele>461.10936432922</ele>
        <time>2014-05-31T11:38:59Z</time>
      </trkpt>
      <trkpt lat="45.28115" lon="5.10423">
        <ele>459.55698047754</ele>
        <time>2014-05-31T11:39:04Z</time>
      </trkpt>
      <trkpt lat="45.28109" lon="5.10422">
        <ele>459.55698047754</ele>
        <time>2014-05-31T11:39:09Z</time>
      </trkpt>
      <trkpt lat="45.28103" lon="5.1042">
        <ele>457.91760484936</ele>
        <time>2014-05-31T11:39:14Z</time>
      </trkpt>
      <trkpt lat="45.28096" lon="5.10419">
        <ele>457.91760484936</ele>
        <time>2014-05-31T11:39:19Z</time>
      </trkpt>
      <trkpt lat="45.28088" lon="5.10419">
        <ele>455.98683664739</ele>
        <time>2014-05-31T11:39:24Z</time>
      </trkpt>
      <trkpt lat="45.2808" lon="5.10417">
        <ele>455.98683664739</ele>
        <time>2014-05-31T11:39:29Z</time>
      </trkpt>
      <trkpt lat="45.28074" lon="5.10415">
        <ele>453.83547161563</ele>
        <time>2014-05-31T11:39:34Z</time>
      </trkpt>
      <trkpt lat="45.28067" lon="5.10412">
        <ele>453.83547161563</ele>
        <time>2014-05-31T11:39:39Z</time>
      </trkpt>
      <trkpt lat="45.28062" lon="5.10409">
        <ele>451.68819439191</ele>
        <time>2014-05-31T11:39:44Z</time>
      </trkpt>
      <trkpt lat="45.28055" lon="5.10406">
        <ele>451.68819439191</ele>
        <time>2014-05-31T11:39:49Z</time>
      </trkpt>
      <trkpt lat="45.28049" lon="5.10403">
        <ele>449.49370588381</ele>
        <time>2014-05-31T11:39:54Z</time>
      </trkpt>
      <trkpt lat="45.28043" lon="5.10397">
        <ele>449.49370588381</ele>
        <time>2014-05-31T11:39:59Z</time>
      </trkpt>
      <trkpt lat="45.28035" lon="5.10394">
        <ele>447.70891581085</ele>
        <time>2014-05-31T11:40:04Z</time>
      </trkpt>
      <trkpt lat="45.28028" lon="5.1039">
        <ele>447.70891581085</ele>
        <time>2014-05-31T11:40:09Z</time>
      </trkpt>
      <trkpt lat="45.28022" lon="5.10384">
        <ele>446.1218376792</ele>
        <time>2014-05-31T11:40:14Z</time>
      </trkpt>
      <trkpt lat="45.28017" lon="5.10379">
        <ele>446.1218376792</ele>
        <time>2014-05-31T11:40:19Z</time>
      </trkpt>
      <trkpt lat="45.28011" lon="5.10375">
        <ele>443.85807558173</ele>
        <time>2014-05-31T11:40:24Z</time>
      </trkpt>
      <trkpt lat="45.28005" lon="5.10371">
        <ele>443.85807558173</ele>
        <time>2014-05-31T11:40:29Z</time>
      </trkpt>
      <trkpt lat="45.27999" lon="5.10364">
        <ele>442.01151811798</ele>
        <time>2014-05-31T11:40:34Z</time>
      </trkpt>
      <trkpt lat="45.27994" lon="5.10357">
        <ele>442.01151811798</ele>
        <time>2014-05-31T11:40:39Z</time>
      </trkpt>
      <trkpt lat="45.27987" lon="5.10352">
        <ele>439.86507082537</ele>
        <time>2014-05-31T11:40:44Z</time>
      </trkpt>
      <trkpt lat="45.2798" lon="5.10347">
        <ele>439.86507082537</ele>
        <time>2014-05-31T11:40:49Z</time>
      </trkpt>
      <trkpt lat="45.27972" lon="5.10344">
        <ele>437.80703918112</ele>
        <time>2014-05-31T11:40:54Z</time>
      </trkpt>
      <trkpt lat="45.27968" lon="5.10341">
        <ele>437.80703918112</ele>
        <time>2014-05-31T11:40:59Z</time>
      </trkpt>
      <trkpt lat="45.27962" lon="5.10335">
        <ele>435.44743964321</ele>
        <time>2014-05-31T11:41:04Z</time>
      </trkpt>
      <trkpt lat="45.27957" lon="5.10331">
        <ele>435.44743964321</ele>
        <time>2014-05-31T11:41:09Z</time>
      </trkpt>
      <trkpt lat="45.2795" lon="5.10329">
        <ele>432.88679251324</ele>
        <time>2014-05-31T11:41:14Z</time>
      </trkpt>
      <trkpt lat="45.27944" lon="5.10326">
        <ele>432.88679251324</ele>
        <time>2014-05-31T11:41:20Z</time>
      </trkpt>
      <trkpt lat="45.27941" lon="5.10322">
        <ele>430.18982191176</ele>
        <time>2014-05-31T11:41:24Z</time>
      </trkpt>
      <trkpt lat="45.27944" lon="5.10321">
        <ele>430.18982191176</ele>
        <time>2014-05-31T11:41:29Z</time>
      </trkpt>
      <trkpt lat="45.27945" lon="5.1032">
        <ele>430.18982191176</ele>
        <time>2014-05-31T11:41:34Z</time>
      </trkpt>
      <trkpt lat="45.27945" lon="5.1032">
        <ele>430.18982191176</ele>
        <time>2014-05-31T11:41:39Z</time>
      </trkpt>
      <trkpt lat="45.27945" lon="5.1032">
        <ele>430.18982191176</ele>
        <time>2014-05-31T11:41:44Z</time>
      </trkpt>
      <trkpt lat="45.27945" lon="5.1032">
        <ele>430.18982191176</ele>
        <time>2014-05-31T11:41:49Z</time>
      </trkpt>
      <trkpt lat="45.27945" lon="5.1032">
        <ele>430.18982191176</ele>
        <time>2014-05-31T11:41:54Z</time>
      </trkpt>
      <trkpt lat="45.27945" lon="5.1032">
        <ele>430.18982191176</ele>
        <time>2014-05-31T11:41:59Z</time>
      </trkpt>
      <trkpt lat="45.27945" lon="5.1032">
        <ele>430.18982191176</ele>
        <time>2014-05-31T11:42:04Z</time>
      </trkpt>
      <trkpt lat="45.27945" lon="5.10319">
        <ele>430.18982191176</ele>
        <time>2014-05-31T11:42:09Z</time>
      </trkpt>
      <trkpt lat="45.27944" lon="5.1032">
        <ele>430.18982191176</ele>
        <time>2014-05-31T11:42:14Z</time>
      </trkpt>
      <trkpt lat="45.27944" lon="5.10321">
        <ele>430.18982191176</ele>
        <time>2014-05-31T11:42:19Z</time>
      </trkpt>
      <trkpt lat="45.27943" lon="5.10324">
        <ele>427.25819536496</ele>
        <time>2014-05-31T11:42:24Z</time>
      </trkpt>
      <trkpt lat="45.27943" lon="5.10324">
        <ele>427.25819536496</ele>
        <time>2014-05-31T11:42:29Z</time>
      </trkpt>
      <trkpt lat="45.27942" lon="5.10325">
        <ele>427.25819536496</ele>
        <time>2014-05-31T11:42:34Z</time>
      </trkpt>
      <trkpt lat="45.27942" lon="5.10324">
        <ele>427.25819536496</ele>
        <time>2014-05-31T11:42:39Z</time>
      </trkpt>
      <trkpt lat="45.27941" lon="5.10323">
        <ele>427.25819536496</ele>
        <time>2014-05-31T11:42:44Z</time>
      </trkpt>
      <trkpt lat="45.27941" lon="5.10322">
        <ele>427.25819536496</ele>
        <time>2014-05-31T11:42:49Z</time>
      </trkpt>
      <trkpt lat="45.27941" lon="5.10322">
        <ele>427.25819536496</ele>
        <time>2014-05-31T11:42:54Z</time>
      </trkpt>
      <trkpt lat="45.27941" lon="5.10322">
        <ele>427.25819536496</ele>
        <time>2014-05-31T11:42:59Z</time>
      </trkpt>
      <trkpt lat="45.2794" lon="5.10322">
        <ele>427.25819536496</ele>
        <time>2014-05-31T11:43:04Z</time>
      </trkpt>
      <trkpt lat="45.27935" lon="5.1032">
        <ele>425.44240494893</ele>
        <time>2014-05-31T11:43:09Z</time>
      </trkpt>
      <trkpt lat="45.2793" lon="5.10319">
        <ele>425.44240494893</ele>
        <time>2014-05-31T11:43:14Z</time>
      </trkpt>
      <trkpt lat="45.27923" lon="5.10316">
        <ele>423.64142010174</ele>
        <time>2014-05-31T11:43:19Z</time>
      </trkpt>
      <trkpt lat="45.27917" lon="5.10313">
        <ele>423.64142010174</ele>
        <time>2014-05-31T11:43:24Z</time>
      </trkpt>
      <trkpt lat="45.27909" lon="5.10312">
        <ele>422.14628531569</ele>
        <time>2014-05-31T11:43:29Z</time>
      </trkpt>
      <trkpt lat="45.27902" lon="5.10311">
        <ele>422.14628531569</ele>
        <time>2014-05-31T11:43:34Z</time>
      </trkpt>
      <trkpt lat="45.27896" lon="5.1031">
        <ele>420.5771316355</ele>
        <time>2014-05-31T11:43:39Z</time>
      </trkpt>
      <trkpt lat="45.2789" lon="5.10309">
        <ele>420.5771316355</ele>
        <time>2014-05-31T11:43:44Z</time>
      </trkpt>
      <trkpt lat="45.27883" lon="5.10308">
        <ele>418.8702529377</ele>
        <time>2014-05-31T11:43:49Z</time>
      </trkpt>
      <trkpt lat="45.27874" lon="5.10306">
        <ele>418.8702529377</ele>
        <time>2014-05-31T11:43:54Z</time>
      </trkpt>
      <trkpt lat="45.27867" lon="5.10304">
        <ele>417.29829681282</ele>
        <time>2014-05-31T11:43:59Z</time>
      </trkpt>
      <trkpt lat="45.2786" lon="5.10303">
        <ele>417.29829681282</ele>
        <time>2014-05-31T11:44:04Z</time>
      </trkpt>
      <trkpt lat="45.27854" lon="5.10299">
        <ele>415.78188441936</ele>
        <time>2014-05-31T11:44:09Z</time>
      </trkpt>
      <trkpt lat="45.27848" lon="5.10296">
        <ele>415.78188441936</ele>
        <time>2014-05-31T11:44:14Z</time>
      </trkpt>
      <trkpt lat="45.27841" lon="5.10295">
        <ele>414.47773129629</ele>
        <time>2014-05-31T11:44:19Z</time>
      </trkpt>
      <trkpt lat="45.27834" lon="5.10293">
        <ele>414.47773129629</ele>
        <time>2014-05-31T11:44:24Z</time>
      </trkpt>
      <trkpt lat="45.27828" lon="5.10289">
        <ele>413.12678067422</ele>
        <time>2014-05-31T11:44:29Z</time>
      </trkpt>
      <trkpt lat="45.27821" lon="5.10286">
        <ele>413.12678067422</ele>
        <time>2014-05-31T11:44:34Z</time>
      </trkpt>
      <trkpt lat="45.27822" lon="5.10279">
        <ele>411.86367919678</ele>
        <time>2014-05-31T11:44:39Z</time>
      </trkpt>
      <trkpt lat="45.27823" lon="5.10279">
        <ele>411.86367919678</ele>
        <time>2014-05-31T11:44:44Z</time>
      </trkpt>
      <trkpt lat="45.27823" lon="5.10278">
        <ele>411.86367919678</ele>
        <time>2014-05-31T11:44:49Z</time>
      </trkpt>
      <trkpt lat="45.27823" lon="5.10279">
        <ele>411.86367919678</ele>
        <time>2014-05-31T11:44:54Z</time>
      </trkpt>
      <trkpt lat="45.27823" lon="5.1028">
        <ele>411.86367919678</ele>
        <time>2014-05-31T11:44:59Z</time>
      </trkpt>
      <trkpt lat="45.27819" lon="5.10279">
        <ele>411.86367919678</ele>
        <time>2014-05-31T11:45:04Z</time>
      </trkpt>
      <trkpt lat="45.27814" lon="5.10277">
        <ele>410.68309582318</ele>
        <time>2014-05-31T11:45:09Z</time>
      </trkpt>
      <trkpt lat="45.27811" lon="5.10281">
        <ele>410.68309582318</ele>
        <time>2014-05-31T11:45:14Z</time>
      </trkpt>
      <trkpt lat="45.27806" lon="5.10287">
        <ele>409.34914869087</ele>
        <time>2014-05-31T11:45:19Z</time>
      </trkpt>
      <trkpt lat="45.27799" lon="5.10291">
        <ele>409.34914869087</ele>
        <time>2014-05-31T11:45:24Z</time>
      </trkpt>
      <trkpt lat="45.27794" lon="5.10293">
        <ele>408.03268799468</ele>
        <time>2014-05-31T11:45:29Z</time>
      </trkpt>
      <trkpt lat="45.27788" lon="5.10295">
        <ele>408.03268799468</ele>
        <time>2014-05-31T11:45:34Z</time>
      </trkpt>
      <trkpt lat="45.27783" lon="5.10297">
        <ele>406.74773399775</ele>
        <time>2014-05-31T11:45:39Z</time>
      </trkpt>
      <trkpt lat="45.27776" lon="5.103">
        <ele>406.74773399775</ele>
        <time>2014-05-31T11:45:44Z</time>
      </trkpt>
      <trkpt lat="45.27771" lon="5.10304">
        <ele>405.44943164023</ele>
        <time>2014-05-31T11:45:49Z</time>
      </trkpt>
      <trkpt lat="45.27765" lon="5.10307">
        <ele>405.44943164023</ele>
        <time>2014-05-31T11:45:54Z</time>
      </trkpt>
      <trkpt lat="45.2776" lon="5.10311">
        <ele>404.11056314576</ele>
        <time>2014-05-31T11:45:59Z</time>
      </trkpt>
      <trkpt lat="45.27754" lon="5.10315">
        <ele>404.11056314576</ele>
        <time>2014-05-31T11:46:04Z</time>
      </trkpt>
      <trkpt lat="45.27748" lon="5.1032">
        <ele>402.89326845729</ele>
        <time>2014-05-31T11:46:09Z</time>
      </trkpt>
      <trkpt lat="45.27741" lon="5.10328">
        <ele>401.64470848353</ele>
        <time>2014-05-31T11:46:14Z</time>
      </trkpt>
      <trkpt lat="45.27737" lon="5.10334">
        <ele>401.64470848353</ele>
        <time>2014-05-31T11:46:19Z</time>
      </trkpt>
      <trkpt lat="45.27731" lon="5.10341">
        <ele>400.59796095826</ele>
        <time>2014-05-31T11:46:24Z</time>
      </trkpt>
      <trkpt lat="45.27726" lon="5.10346">
        <ele>400.59796095826</ele>
        <time>2014-05-31T11:46:29Z</time>
      </trkpt>
      <trkpt lat="45.27719" lon="5.10353">
        <ele>399.63687940853</ele>
        <time>2014-05-31T11:46:34Z</time>
      </trkpt>
      <trkpt lat="45.27715" lon="5.10357">
        <ele>399.63687940853</ele>
        <time>2014-05-31T11:46:39Z</time>
      </trkpt>
      <trkpt lat="45.27708" lon="5.10362">
        <ele>398.84088039172</ele>
        <time>2014-05-31T11:46:44Z</time>
      </trkpt>
      <trkpt lat="45.27704" lon="5.10366">
        <ele>398.84088039172</ele>
        <time>2014-05-31T11:46:49Z</time>
      </trkpt>
      <trkpt lat="45.27697" lon="5.10369">
        <ele>398.0812624989</ele>
        <time>2014-05-31T11:46:54Z</time>
      </trkpt>
      <trkpt lat="45.27692" lon="5.10372">
        <ele>398.0812624989</ele>
        <time>2014-05-31T11:46:59Z</time>
      </trkpt>
      <trkpt lat="45.27686" lon="5.10373">
        <ele>397.36831970273</ele>
        <time>2014-05-31T11:47:04Z</time>
      </trkpt>
      <trkpt lat="45.27681" lon="5.10372">
        <ele>397.36831970273</ele>
        <time>2014-05-31T11:47:11Z</time>
      </trkpt>
      <trkpt lat="45.27682" lon="5.10371">
        <ele>397.36831970273</ele>
        <time>2014-05-31T11:47:14Z</time>
      </trkpt>
      <trkpt lat="45.27682" lon="5.10371">
        <ele>397.36831970273</ele>
        <time>2014-05-31T11:47:19Z</time>
      </trkpt>
      <trkpt lat="45.27681" lon="5.10371">
        <ele>397.36831970273</ele>
        <time>2014-05-31T11:47:24Z</time>
      </trkpt>
      <trkpt lat="45.27681" lon="5.10371">
        <ele>397.36831970273</ele>
        <time>2014-05-31T11:47:29Z</time>
      </trkpt>
      <trkpt lat="45.27681" lon="5.10371">
        <ele>397.36831970273</ele>
        <time>2014-05-31T11:47:34Z</time>
      </trkpt>
      <trkpt lat="45.27681" lon="5.10371">
        <ele>397.36831970273</ele>
        <time>2014-05-31T11:47:39Z</time>
      </trkpt>
      <trkpt lat="45.27681" lon="5.10371">
        <ele>397.36831970273</ele>
        <time>2014-05-31T11:47:44Z</time>
      </trkpt>
      <trkpt lat="45.2768" lon="5.10373">
        <ele>397.12933362885</ele>
        <time>2014-05-31T11:47:49Z</time>
      </trkpt>
      <trkpt lat="45.27679" lon="5.10374">
        <ele>397.12933362885</ele>
        <time>2014-05-31T11:47:54Z</time>
      </trkpt>
      <trkpt lat="45.2768" lon="5.10374">
        <ele>397.12933362885</ele>
        <time>2014-05-31T11:47:59Z</time>
      </trkpt>
      <trkpt lat="45.27679" lon="5.10374">
        <ele>397.12933362885</ele>
        <time>2014-05-31T11:48:04Z</time>
      </trkpt>
      <trkpt lat="45.27679" lon="5.10374">
        <ele>397.12933362885</ele>
        <time>2014-05-31T11:48:09Z</time>
      </trkpt>
      <trkpt lat="45.27679" lon="5.10374">
        <ele>397.12933362885</ele>
        <time>2014-05-31T11:48:14Z</time>
      </trkpt>
      <trkpt lat="45.27679" lon="5.10374">
        <ele>397.12933362885</ele>
        <time>2014-05-31T11:48:19Z</time>
      </trkpt>
      <trkpt lat="45.27679" lon="5.10374">
        <ele>397.12933362885</ele>
        <time>2014-05-31T11:48:24Z</time>
      </trkpt>
      <trkpt lat="45.27679" lon="5.10374">
        <ele>397.12933362885</ele>
        <time>2014-05-31T11:48:29Z</time>
      </trkpt>
      <trkpt lat="45.27679" lon="5.10374">
        <ele>397.12933362885</ele>
        <time>2014-05-31T11:48:34Z</time>
      </trkpt>
      <trkpt lat="45.27679" lon="5.10375">
        <ele>397.12933362885</ele>
        <time>2014-05-31T11:48:40Z</time>
      </trkpt>
      <trkpt lat="45.27679" lon="5.10375">
        <ele>397.12933362885</ele>
        <time>2014-05-31T11:48:44Z</time>
      </trkpt>
      <trkpt lat="45.27676" lon="5.10377">
        <ele>397.12933362885</ele>
        <time>2014-05-31T11:48:49Z</time>
      </trkpt>
      <trkpt lat="45.27669" lon="5.10378">
        <ele>396.76446338231</ele>
        <time>2014-05-31T11:48:54Z</time>
      </trkpt>
      <trkpt lat="45.27664" lon="5.10379">
        <ele>396.76446338231</ele>
        <time>2014-05-31T11:48:59Z</time>
      </trkpt>
      <trkpt lat="45.27656" lon="5.10379">
        <ele>396.56851323026</ele>
        <time>2014-05-31T11:49:04Z</time>
      </trkpt>
      <trkpt lat="45.27651" lon="5.10383">
        <ele>396.56851323026</ele>
        <time>2014-05-31T11:49:09Z</time>
      </trkpt>
      <trkpt lat="45.27647" lon="5.10395">
        <ele>396.82855199456</ele>
        <time>2014-05-31T11:49:14Z</time>
      </trkpt>
      <trkpt lat="45.27648" lon="5.10403">
        <ele>396.82855199456</ele>
        <time>2014-05-31T11:49:19Z</time>
      </trkpt>
      <trkpt lat="45.27651" lon="5.10415">
        <ele>397.31929911968</ele>
        <time>2014-05-31T11:49:24Z</time>
      </trkpt>
      <trkpt lat="45.27654" lon="5.10424">
        <ele>397.31929911968</ele>
        <time>2014-05-31T11:49:29Z</time>
      </trkpt>
      <trkpt lat="45.27659" lon="5.10435">
        <ele>398.00431795556</ele>
        <time>2014-05-31T11:49:34Z</time>
      </trkpt>
      <trkpt lat="45.27661" lon="5.10442">
        <ele>398.00431795556</ele>
        <time>2014-05-31T11:49:39Z</time>
      </trkpt>
      <trkpt lat="45.27665" lon="5.1045">
        <ele>398.97902667085</ele>
        <time>2014-05-31T11:49:44Z</time>
      </trkpt>
      <trkpt lat="45.27667" lon="5.10459">
        <ele>398.97902667085</ele>
        <time>2014-05-31T11:49:49Z</time>
      </trkpt>
      <trkpt lat="45.2767" lon="5.10468">
        <ele>400.14371547196</ele>
        <time>2014-05-31T11:49:54Z</time>
      </trkpt>
      <trkpt lat="45.27671" lon="5.10476">
        <ele>400.14371547196</ele>
        <time>2014-05-31T11:49:59Z</time>
      </trkpt>
      <trkpt lat="45.27675" lon="5.10486">
        <ele>401.54963210275</ele>
        <time>2014-05-31T11:50:04Z</time>
      </trkpt>
      <trkpt lat="45.27677" lon="5.10492">
        <ele>401.54963210275</ele>
        <time>2014-05-31T11:50:09Z</time>
      </trkpt>
      <trkpt lat="45.27681" lon="5.10502">
        <ele>403.25806558087</ele>
        <time>2014-05-31T11:50:14Z</time>
      </trkpt>
      <trkpt lat="45.27683" lon="5.10509">
        <ele>403.25806558087</ele>
        <time>2014-05-31T11:50:19Z</time>
      </trkpt>
      <trkpt lat="45.27685" lon="5.1052">
        <ele>405.35386540806</ele>
        <time>2014-05-31T11:50:24Z</time>
      </trkpt>
      <trkpt lat="45.27688" lon="5.1053">
        <ele>405.35386540806</ele>
        <time>2014-05-31T11:50:29Z</time>
      </trkpt>
      <trkpt lat="45.2769" lon="5.10539">
        <ele>407.64085760416</ele>
        <time>2014-05-31T11:50:34Z</time>
      </trkpt>
      <trkpt lat="45.27693" lon="5.10548">
        <ele>407.64085760416</ele>
        <time>2014-05-31T11:50:39Z</time>
      </trkpt>
      <trkpt lat="45.27695" lon="5.10556">
        <ele>410.31155828754</ele>
        <time>2014-05-31T11:50:44Z</time>
      </trkpt>
      <trkpt lat="45.27698" lon="5.10562">
        <ele>410.31155828754</ele>
        <time>2014-05-31T11:50:49Z</time>
      </trkpt>
      <trkpt lat="45.27702" lon="5.1057">
        <ele>413.05343321974</ele>
        <time>2014-05-31T11:50:54Z</time>
      </trkpt>
      <trkpt lat="45.27705" lon="5.10578">
        <ele>413.05343321974</ele>
        <time>2014-05-31T11:50:59Z</time>
      </trkpt>
      <trkpt lat="45.2771" lon="5.10588">
        <ele>415.92273965911</ele>
        <time>2014-05-31T11:51:04Z</time>
      </trkpt>
      <trkpt lat="45.27714" lon="5.10596">
        <ele>415.92273965911</ele>
        <time>2014-05-31T11:51:09Z</time>
      </trkpt>
      <trkpt lat="45.27719" lon="5.10603">
        <ele>418.81290726735</ele>
        <time>2014-05-31T11:51:14Z</time>
      </trkpt>
      <trkpt lat="45.27724" lon="5.10609">
        <ele>418.81290726735</ele>
        <time>2014-05-31T11:51:19Z</time>
      </trkpt>
      <trkpt lat="45.2773" lon="5.10615">
        <ele>421.68298296339</ele>
        <time>2014-05-31T11:51:24Z</time>
      </trkpt>
      <trkpt lat="45.27736" lon="5.10618">
        <ele>421.68298296339</ele>
        <time>2014-05-31T11:51:29Z</time>
      </trkpt>
      <trkpt lat="45.27741" lon="5.10624">
        <ele>424.58176419672</ele>
        <time>2014-05-31T11:51:34Z</time>
      </trkpt>
      <trkpt lat="45.27747" lon="5.1063">
        <ele>424.58176419672</ele>
        <time>2014-05-31T11:51:39Z</time>
      </trkpt>
      <trkpt lat="45.27751" lon="5.10637">
        <ele>427.42491684962</ele>
        <time>2014-05-31T11:51:44Z</time>
      </trkpt>
      <trkpt lat="45.27757" lon="5.10643">
        <ele>427.42491684962</ele>
        <time>2014-05-31T11:51:49Z</time>
      </trkpt>
      <trkpt lat="45.27763" lon="5.10648">
        <ele>430.1635264067</ele>
        <time>2014-05-31T11:51:54Z</time>
      </trkpt>
      <trkpt lat="45.27769" lon="5.10655">
        <ele>430.1635264067</ele>
        <time>2014-05-31T11:51:59Z</time>
      </trkpt>
      <trkpt lat="45.27773" lon="5.10663">
        <ele>432.83928824067</ele>
        <time>2014-05-31T11:52:04Z</time>
      </trkpt>
      <trkpt lat="45.27777" lon="5.10672">
        <ele>432.83928824067</ele>
        <time>2014-05-31T11:52:09Z</time>
      </trkpt>
      <trkpt lat="45.2778" lon="5.10681">
        <ele>435.37598717424</ele>
        <time>2014-05-31T11:52:14Z</time>
      </trkpt>
      <trkpt lat="45.27785" lon="5.10689">
        <ele>435.37598717424</ele>
        <time>2014-05-31T11:52:20Z</time>
      </trkpt>
      <trkpt lat="45.27787" lon="5.10693">
        <ele>437.87660147246</ele>
        <time>2014-05-31T11:52:24Z</time>
      </trkpt>
      <trkpt lat="45.27786" lon="5.10695">
        <ele>437.87660147246</ele>
        <time>2014-05-31T11:52:29Z</time>
      </trkpt>
      <trkpt lat="45.2778" lon="5.107">
        <ele>437.87660147246</ele>
        <time>2014-05-31T11:52:34Z</time>
      </trkpt>
      <trkpt lat="45.27774" lon="5.10707">
        <ele>440.45133267643</ele>
        <time>2014-05-31T11:52:39Z</time>
      </trkpt>
      <trkpt lat="45.2777" lon="5.10716">
        <ele>440.45133267643</ele>
        <time>2014-05-31T11:52:44Z</time>
      </trkpt>
      <trkpt lat="45.27766" lon="5.10723">
        <ele>442.79884599543</ele>
        <time>2014-05-31T11:52:49Z</time>
      </trkpt>
      <trkpt lat="45.27762" lon="5.10732">
        <ele>442.79884599543</ele>
        <time>2014-05-31T11:52:54Z</time>
      </trkpt>
      <trkpt lat="45.27756" lon="5.10741">
        <ele>445.11642601238</ele>
        <time>2014-05-31T11:52:59Z</time>
      </trkpt>
      <trkpt lat="45.27752" lon="5.10749">
        <ele>445.11642601238</ele>
        <time>2014-05-31T11:53:04Z</time>
      </trkpt>
      <trkpt lat="45.27748" lon="5.10756">
        <ele>447.35664981238</ele>
        <time>2014-05-31T11:53:09Z</time>
      </trkpt>
      <trkpt lat="45.27745" lon="5.10765">
        <ele>447.35664981238</ele>
        <time>2014-05-31T11:53:14Z</time>
      </trkpt>
      <trkpt lat="45.27743" lon="5.10774">
        <ele>449.02932659368</ele>
        <time>2014-05-31T11:53:19Z</time>
      </trkpt>
      <trkpt lat="45.2774" lon="5.10783">
        <ele>449.02932659368</ele>
        <time>2014-05-31T11:53:24Z</time>
      </trkpt>
      <trkpt lat="45.27737" lon="5.10791">
        <ele>450.30181554394</ele>
        <time>2014-05-31T11:53:29Z</time>
      </trkpt>
      <trkpt lat="45.27734" lon="5.108">
        <ele>450.30181554394</ele>
        <time>2014-05-31T11:53:34Z</time>
      </trkpt>
      <trkpt lat="45.27732" lon="5.10808">
        <ele>451.3882115751</ele>
        <time>2014-05-31T11:53:39Z</time>
      </trkpt>
      <trkpt lat="45.27729" lon="5.10817">
        <ele>451.3882115751</ele>
        <time>2014-05-31T11:53:44Z</time>
      </trkpt>
      <trkpt lat="45.27727" lon="5.10826">
        <ele>452.19943378356</ele>
        <time>2014-05-31T11:53:49Z</time>
      </trkpt>
      <trkpt lat="45.27725" lon="5.10835">
        <ele>452.19943378356</ele>
        <time>2014-05-31T11:53:54Z</time>
      </trkpt>
      <trkpt lat="45.27723" lon="5.10846">
        <ele>452.76924410345</ele>
        <time>2014-05-31T11:53:59Z</time>
      </trkpt>
      <trkpt lat="45.27721" lon="5.10856">
        <ele>452.76924410345</ele>
        <time>2014-05-31T11:54:04Z</time>
      </trkpt>
      <trkpt lat="45.27719" lon="5.10866">
        <ele>453.11541307879</ele>
        <time>2014-05-31T11:54:09Z</time>
      </trkpt>
      <trkpt lat="45.27716" lon="5.10876">
        <ele>453.11541307879</ele>
        <time>2014-05-31T11:54:14Z</time>
      </trkpt>
      <trkpt lat="45.27714" lon="5.10886">
        <ele>453.31288346197</ele>
        <time>2014-05-31T11:54:19Z</time>
      </trkpt>
      <trkpt lat="45.27711" lon="5.10895">
        <ele>453.31288346197</ele>
        <time>2014-05-31T11:54:24Z</time>
      </trkpt>
      <trkpt lat="45.27708" lon="5.10904">
        <ele>453.37405326664</ele>
        <time>2014-05-31T11:54:29Z</time>
      </trkpt>
      <trkpt lat="45.27707" lon="5.10912">
        <ele>453.37405326664</ele>
        <time>2014-05-31T11:54:34Z</time>
      </trkpt>
      <trkpt lat="45.27704" lon="5.10923">
        <ele>453.26772790931</ele>
        <time>2014-05-31T11:54:39Z</time>
      </trkpt>
      <trkpt lat="45.27702" lon="5.10932">
        <ele>453.26772790931</ele>
        <time>2014-05-31T11:54:44Z</time>
      </trkpt>
      <trkpt lat="45.27699" lon="5.10941">
        <ele>453.12414668788</ele>
        <time>2014-05-31T11:54:49Z</time>
      </trkpt>
      <trkpt lat="45.27697" lon="5.1095">
        <ele>453.12414668788</ele>
        <time>2014-05-31T11:54:54Z</time>
      </trkpt>
      <trkpt lat="45.27694" lon="5.10959">
        <ele>452.84805049191</ele>
        <time>2014-05-31T11:54:59Z</time>
      </trkpt>
      <trkpt lat="45.27693" lon="5.10969">
        <ele>452.84805049191</ele>
        <time>2014-05-31T11:55:04Z</time>
      </trkpt>
      <trkpt lat="45.2769" lon="5.10978">
        <ele>452.59665101266</ele>
        <time>2014-05-31T11:55:09Z</time>
      </trkpt>
      <trkpt lat="45.27688" lon="5.10987">
        <ele>452.59665101266</ele>
        <time>2014-05-31T11:55:14Z</time>
      </trkpt>
      <trkpt lat="45.27685" lon="5.10996">
        <ele>452.29946936269</ele>
        <time>2014-05-31T11:55:20Z</time>
      </trkpt>
      <trkpt lat="45.27681" lon="5.11002">
        <ele>452.29946936269</ele>
        <time>2014-05-31T11:55:24Z</time>
      </trkpt>
      <trkpt lat="45.27673" lon="5.11004">
        <ele>451.8625865964</ele>
        <time>2014-05-31T11:55:29Z</time>
      </trkpt>
      <trkpt lat="45.27666" lon="5.11004">
        <ele>451.8625865964</ele>
        <time>2014-05-31T11:55:34Z</time>
      </trkpt>
      <trkpt lat="45.27659" lon="5.11003">
        <ele>451.45883444599</ele>
        <time>2014-05-31T11:55:39Z</time>
      </trkpt>
      <trkpt lat="45.27652" lon="5.11002">
        <ele>451.45883444599</ele>
        <time>2014-05-31T11:55:44Z</time>
      </trkpt>
      <trkpt lat="45.27645" lon="5.11">
        <ele>450.78714268341</ele>
        <time>2014-05-31T11:55:49Z</time>
      </trkpt>
      <trkpt lat="45.27642" lon="5.10999">
        <ele>450.78714268341</ele>
        <time>2014-05-31T11:55:54Z</time>
      </trkpt>
      <trkpt lat="45.27638" lon="5.10996">
        <ele>450.78714268341</ele>
        <time>2014-05-31T11:55:59Z</time>
      </trkpt>
      <trkpt lat="45.27632" lon="5.10993">
        <ele>449.79991321299</ele>
        <time>2014-05-31T11:56:04Z</time>
      </trkpt>
      <trkpt lat="45.27626" lon="5.10987">
        <ele>449.79991321299</ele>
        <time>2014-05-31T11:56:09Z</time>
      </trkpt>
      <trkpt lat="45.2762" lon="5.10982">
        <ele>448.77098374747</ele>
        <time>2014-05-31T11:56:14Z</time>
      </trkpt>
      <trkpt lat="45.27614" lon="5.10977">
        <ele>448.77098374747</ele>
        <time>2014-05-31T11:56:19Z</time>
      </trkpt>
      <trkpt lat="45.27607" lon="5.10973">
        <ele>447.69478578758</ele>
        <time>2014-05-31T11:56:24Z</time>
      </trkpt>
      <trkpt lat="45.276" lon="5.10974">
        <ele>447.69478578758</ele>
        <time>2014-05-31T11:56:29Z</time>
      </trkpt>
      <trkpt lat="45.27595" lon="5.1098">
        <ele>446.46539075367</ele>
        <time>2014-05-31T11:56:34Z</time>
      </trkpt>
      <trkpt lat="45.27591" lon="5.10989">
        <ele>446.46539075367</ele>
        <time>2014-05-31T11:56:39Z</time>
      </trkpt>
      <trkpt lat="45.27589" lon="5.10999">
        <ele>445.28767464446</ele>
        <time>2014-05-31T11:56:44Z</time>
      </trkpt>
      <trkpt lat="45.27589" lon="5.11009">
        <ele>445.28767464446</ele>
        <time>2014-05-31T11:56:49Z</time>
      </trkpt>
      <trkpt lat="45.27589" lon="5.11018">
        <ele>444.20715212665</ele>
        <time>2014-05-31T11:56:54Z</time>
      </trkpt>
      <trkpt lat="45.27588" lon="5.11028">
        <ele>444.20715212665</ele>
        <time>2014-05-31T11:56:59Z</time>
      </trkpt>
      <trkpt lat="45.27589" lon="5.11037">
        <ele>443.03507472889</ele>
        <time>2014-05-31T11:57:04Z</time>
      </trkpt>
      <trkpt lat="45.27589" lon="5.11046">
        <ele>443.03507472889</ele>
        <time>2014-05-31T11:57:09Z</time>
      </trkpt>
      <trkpt lat="45.2759" lon="5.11056">
        <ele>441.88495664308</ele>
        <time>2014-05-31T11:57:14Z</time>
      </trkpt>
      <trkpt lat="45.2759" lon="5.11066">
        <ele>441.88495664308</ele>
        <time>2014-05-31T11:57:19Z</time>
      </trkpt>
      <trkpt lat="45.27589" lon="5.11075">
        <ele>440.74652959749</ele>
        <time>2014-05-31T11:57:24Z</time>
      </trkpt>
      <trkpt lat="45.27586" lon="5.11085">
        <ele>440.74652959749</ele>
        <time>2014-05-31T11:57:29Z</time>
      </trkpt>
      <trkpt lat="45.27584" lon="5.11093">
        <ele>439.50926537238</ele>
        <time>2014-05-31T11:57:34Z</time>
      </trkpt>
      <trkpt lat="45.27581" lon="5.11102">
        <ele>439.50926537238</ele>
        <time>2014-05-31T11:57:39Z</time>
      </trkpt>
      <trkpt lat="45.27578" lon="5.11111">
        <ele>438.02768546627</ele>
        <time>2014-05-31T11:57:44Z</time>
      </trkpt>
      <trkpt lat="45.27575" lon="5.11119">
        <ele>438.02768546627</ele>
        <time>2014-05-31T11:57:49Z</time>
      </trkpt>
      <trkpt lat="45.27572" lon="5.11129">
        <ele>436.54224972871</ele>
        <time>2014-05-31T11:57:54Z</time>
      </trkpt>
      <trkpt lat="45.27569" lon="5.11138">
        <ele>436.54224972871</ele>
        <time>2014-05-31T11:57:59Z</time>
      </trkpt>
      <trkpt lat="45.27566" lon="5.11148">
        <ele>435.08828860388</ele>
        <time>2014-05-31T11:58:04Z</time>
      </trkpt>
      <trkpt lat="45.27563" lon="5.11157">
        <ele>435.08828860388</ele>
        <time>2014-05-31T11:58:09Z</time>
      </trkpt>
      <trkpt lat="45.2756" lon="5.11167">
        <ele>433.65507555027</ele>
        <time>2014-05-31T11:58:14Z</time>
      </trkpt>
      <trkpt lat="45.27556" lon="5.11177">
        <ele>433.65507555027</ele>
        <time>2014-05-31T11:58:19Z</time>
      </trkpt>
      <trkpt lat="45.27553" lon="5.11186">
        <ele>432.41981115262</ele>
        <time>2014-05-31T11:58:24Z</time>
      </trkpt>
      <trkpt lat="45.27551" lon="5.11196">
        <ele>432.41981115262</ele>
        <time>2014-05-31T11:58:29Z</time>
      </trkpt>
      <trkpt lat="45.27549" lon="5.11206">
        <ele>431.28657075957</ele>
        <time>2014-05-31T11:58:34Z</time>
      </trkpt>
      <trkpt lat="45.27547" lon="5.11216">
        <ele>431.28657075957</ele>
        <time>2014-05-31T11:58:39Z</time>
      </trkpt>
      <trkpt lat="45.27546" lon="5.11226">
        <ele>430.49748947091</ele>
        <time>2014-05-31T11:58:44Z</time>
      </trkpt>
      <trkpt lat="45.27544" lon="5.11236">
        <ele>430.49748947091</ele>
        <time>2014-05-31T11:58:49Z</time>
      </trkpt>
      <trkpt lat="45.27543" lon="5.11246">
        <ele>429.91551429087</ele>
        <time>2014-05-31T11:58:54Z</time>
      </trkpt>
      <trkpt lat="45.27542" lon="5.11257">
        <ele>429.91551429087</ele>
        <time>2014-05-31T11:58:59Z</time>
      </trkpt>
      <trkpt lat="45.2754" lon="5.11267">
        <ele>429.31204431814</ele>
        <time>2014-05-31T11:59:04Z</time>
      </trkpt>
      <trkpt lat="45.27538" lon="5.11277">
        <ele>429.31204431814</ele>
        <time>2014-05-31T11:59:09Z</time>
      </trkpt>
      <trkpt lat="45.27536" lon="5.11287">
        <ele>428.73457738211</ele>
        <time>2014-05-31T11:59:14Z</time>
      </trkpt>
      <trkpt lat="45.27535" lon="5.11296">
        <ele>428.73457738211</ele>
        <time>2014-05-31T11:59:19Z</time>
      </trkpt>
      <trkpt lat="45.27534" lon="5.11304">
        <ele>428.16925373124</ele>
        <time>2014-05-31T11:59:24Z</time>
      </trkpt>
      <trkpt lat="45.27533" lon="5.11314">
        <ele>428.16925373124</ele>
        <time>2014-05-31T11:59:29Z</time>
      </trkpt>
      <trkpt lat="45.27532" lon="5.11316">
        <ele>428.16925373124</ele>
        <time>2014-05-31T11:59:34Z</time>
      </trkpt>
      <trkpt lat="45.27533" lon="5.11316">
        <ele>427.60305071582</ele>
        <time>2014-05-31T11:59:39Z</time>
      </trkpt>
      <trkpt lat="45.27531" lon="5.11322">
        <ele>427.60305071582</ele>
        <time>2014-05-31T11:59:44Z</time>
      </trkpt>
      <trkpt lat="45.2753" lon="5.11331">
        <ele>426.8940617556</ele>
        <time>2014-05-31T11:59:49Z</time>
      </trkpt>
      <trkpt lat="45.27528" lon="5.1134">
        <ele>426.8940617556</ele>
        <time>2014-05-31T11:59:54Z</time>
      </trkpt>
      <trkpt lat="45.27526" lon="5.11349">
        <ele>426.09841055673</ele>
        <time>2014-05-31T11:59:59Z</time>
      </trkpt>
      <trkpt lat="45.27524" lon="5.11357">
        <ele>426.09841055673</ele>
        <time>2014-05-31T12:00:04Z</time>
      </trkpt>
      <trkpt lat="45.27523" lon="5.11366">
        <ele>425.08086061832</ele>
        <time>2014-05-31T12:00:09Z</time>
      </trkpt>
      <trkpt lat="45.27521" lon="5.11374">
        <ele>425.08086061832</ele>
        <time>2014-05-31T12:00:14Z</time>
      </trkpt>
      <trkpt lat="45.27519" lon="5.11384">
        <ele>423.97599886282</ele>
        <time>2014-05-31T12:00:19Z</time>
      </trkpt>
      <trkpt lat="45.27516" lon="5.11394">
        <ele>423.97599886282</ele>
        <time>2014-05-31T12:00:24Z</time>
      </trkpt>
      <trkpt lat="45.27514" lon="5.11403">
        <ele>422.87981639831</ele>
        <time>2014-05-31T12:00:29Z</time>
      </trkpt>
      <trkpt lat="45.27512" lon="5.11412">
        <ele>422.87981639831</ele>
        <time>2014-05-31T12:00:34Z</time>
      </trkpt>
      <trkpt lat="45.27509" lon="5.11421">
        <ele>421.72257556602</ele>
        <time>2014-05-31T12:00:39Z</time>
      </trkpt>
      <trkpt lat="45.27506" lon="5.11431">
        <ele>421.72257556602</ele>
        <time>2014-05-31T12:00:44Z</time>
      </trkpt>
      <trkpt lat="45.27504" lon="5.11441">
        <ele>420.54058089224</ele>
        <time>2014-05-31T12:00:49Z</time>
      </trkpt>
      <trkpt lat="45.27501" lon="5.1145">
        <ele>420.54058089224</ele>
        <time>2014-05-31T12:00:54Z</time>
      </trkpt>
      <trkpt lat="45.27499" lon="5.11453">
        <ele>419.36741059102</ele>
        <time>2014-05-31T12:00:59Z</time>
      </trkpt>
      <trkpt lat="45.27497" lon="5.11456">
        <ele>419.36741059102</ele>
        <time>2014-05-31T12:01:04Z</time>
      </trkpt>
      <trkpt lat="45.27494" lon="5.11465">
        <ele>418.23402383816</ele>
        <time>2014-05-31T12:01:09Z</time>
      </trkpt>
      <trkpt lat="45.27493" lon="5.11474">
        <ele>418.23402383816</ele>
        <time>2014-05-31T12:01:14Z</time>
      </trkpt>
      <trkpt lat="45.27493" lon="5.11475">
        <ele>418.23402383816</ele>
        <time>2014-05-31T12:01:19Z</time>
      </trkpt>
      <trkpt lat="45.27493" lon="5.11476">
        <ele>418.23402383816</ele>
        <time>2014-05-31T12:01:24Z</time>
      </trkpt>
      <trkpt lat="45.27492" lon="5.1148">
        <ele>417.25533471522</ele>
        <time>2014-05-31T12:01:29Z</time>
      </trkpt>
      <trkpt lat="45.27489" lon="5.1149">
        <ele>417.25533471522</ele>
        <time>2014-05-31T12:01:34Z</time>
      </trkpt>
      <trkpt lat="45.27486" lon="5.11499">
        <ele>416.32109141667</ele>
        <time>2014-05-31T12:01:39Z</time>
      </trkpt>
      <trkpt lat="45.27483" lon="5.11508">
        <ele>416.32109141667</ele>
        <time>2014-05-31T12:01:44Z</time>
      </trkpt>
      <trkpt lat="45.2748" lon="5.11517">
        <ele>415.44418484564</ele>
        <time>2014-05-31T12:01:49Z</time>
      </trkpt>
      <trkpt lat="45.27477" lon="5.11525">
        <ele>415.44418484564</ele>
        <time>2014-05-31T12:01:54Z</time>
      </trkpt>
      <trkpt lat="45.27474" lon="5.11533">
        <ele>414.30482511942</ele>
        <time>2014-05-31T12:01:59Z</time>
      </trkpt>
      <trkpt lat="45.27471" lon="5.1154">
        <ele>414.30482511942</ele>
        <time>2014-05-31T12:02:04Z</time>
      </trkpt>
      <trkpt lat="45.27468" lon="5.11546">
        <ele>413.27024788564</ele>
        <time>2014-05-31T12:02:09Z</time>
      </trkpt>
      <trkpt lat="45.27463" lon="5.1155">
        <ele>413.27024788564</ele>
        <time>2014-05-31T12:02:14Z</time>
      </trkpt>
      <trkpt lat="45.27462" lon="5.11552">
        <ele>413.27024788564</ele>
        <time>2014-05-31T12:02:19Z</time>
      </trkpt>
      <trkpt lat="45.2746" lon="5.11553">
        <ele>413.27024788564</ele>
        <time>2014-05-31T12:02:24Z</time>
      </trkpt>
      <trkpt lat="45.27456" lon="5.11558">
        <ele>411.80122885948</ele>
        <time>2014-05-31T12:02:29Z</time>
      </trkpt>
      <trkpt lat="45.27452" lon="5.11559">
        <ele>411.80122885948</ele>
        <time>2014-05-31T12:02:34Z</time>
      </trkpt>
      <trkpt lat="45.27449" lon="5.11558">
        <ele>411.80122885948</ele>
        <time>2014-05-31T12:02:39Z</time>
      </trkpt>
      <trkpt lat="45.27447" lon="5.11558">
        <ele>410.46568753154</ele>
        <time>2014-05-31T12:02:44Z</time>
      </trkpt>
      <trkpt lat="45.27445" lon="5.11555">
        <ele>410.46568753154</ele>
        <time>2014-05-31T12:02:49Z</time>
      </trkpt>
      <trkpt lat="45.27442" lon="5.11555">
        <ele>410.46568753154</ele>
        <time>2014-05-31T12:02:54Z</time>
      </trkpt>
      <trkpt lat="45.27438" lon="5.11553">
        <ele>408.62204144787</ele>
        <time>2014-05-31T12:02:59Z</time>
      </trkpt>
      <trkpt lat="45.27433" lon="5.11552">
        <ele>408.62204144787</ele>
        <time>2014-05-31T12:03:04Z</time>
      </trkpt>
      <trkpt lat="45.27431" lon="5.1155">
        <ele>408.62204144787</ele>
        <time>2014-05-31T12:03:09Z</time>
      </trkpt>
      <trkpt lat="45.27428" lon="5.11545">
        <ele>406.58505561987</ele>
        <time>2014-05-31T12:03:14Z</time>
      </trkpt>
      <trkpt lat="45.27425" lon="5.11542">
        <ele>406.58505561987</ele>
        <time>2014-05-31T12:03:19Z</time>
      </trkpt>
      <trkpt lat="45.27417" lon="5.11541">
        <ele>404.92061652947</ele>
        <time>2014-05-31T12:03:24Z</time>
      </trkpt>
      <trkpt lat="45.2741" lon="5.11537">
        <ele>404.92061652947</ele>
        <time>2014-05-31T12:03:29Z</time>
      </trkpt>
      <trkpt lat="45.27404" lon="5.11534">
        <ele>403.4889737952</ele>
        <time>2014-05-31T12:03:34Z</time>
      </trkpt>
      <trkpt lat="45.27398" lon="5.11528">
        <ele>403.4889737952</ele>
        <time>2014-05-31T12:03:39Z</time>
      </trkpt>
      <trkpt lat="45.27392" lon="5.11522">
        <ele>402.2751679401</ele>
        <time>2014-05-31T12:03:44Z</time>
      </trkpt>
      <trkpt lat="45.27386" lon="5.11516">
        <ele>402.2751679401</ele>
        <time>2014-05-31T12:03:49Z</time>
      </trkpt>
      <trkpt lat="45.27381" lon="5.1151">
        <ele>401.37990720876</ele>
        <time>2014-05-31T12:03:54Z</time>
      </trkpt>
      <trkpt lat="45.27373" lon="5.11504">
        <ele>401.37990720876</ele>
        <time>2014-05-31T12:03:59Z</time>
      </trkpt>
      <trkpt lat="45.27367" lon="5.11497">
        <ele>401.12608216369</ele>
        <time>2014-05-31T12:04:04Z</time>
      </trkpt>
      <trkpt lat="45.27361" lon="5.11491">
        <ele>401.12608216369</ele>
        <time>2014-05-31T12:04:09Z</time>
      </trkpt>
      <trkpt lat="45.27356" lon="5.11486">
        <ele>400.80218960299</ele>
        <time>2014-05-31T12:04:14Z</time>
      </trkpt>
      <trkpt lat="45.2735" lon="5.1148">
        <ele>400.80218960299</ele>
        <time>2014-05-31T12:04:19Z</time>
      </trkpt>
      <trkpt lat="45.27344" lon="5.11474">
        <ele>400.84434720303</ele>
        <time>2014-05-31T12:04:24Z</time>
      </trkpt>
      <trkpt lat="45.27339" lon="5.11468">
        <ele>400.84434720303</ele>
        <time>2014-05-31T12:04:29Z</time>
      </trkpt>
      <trkpt lat="45.27334" lon="5.11462">
        <ele>401.2376111481</ele>
        <time>2014-05-31T12:04:34Z</time>
      </trkpt>
      <trkpt lat="45.27329" lon="5.11455">
        <ele>401.2376111481</ele>
        <time>2014-05-31T12:04:39Z</time>
      </trkpt>
      <trkpt lat="45.27325" lon="5.11447">
        <ele>401.99591116535</ele>
        <time>2014-05-31T12:04:44Z</time>
      </trkpt>
      <trkpt lat="45.27322" lon="5.11439">
        <ele>401.99591116535</ele>
        <time>2014-05-31T12:04:49Z</time>
      </trkpt>
      <trkpt lat="45.27318" lon="5.11431">
        <ele>403.0446167524</ele>
        <time>2014-05-31T12:04:54Z</time>
      </trkpt>
      <trkpt lat="45.27314" lon="5.11423">
        <ele>403.0446167524</ele>
        <time>2014-05-31T12:04:59Z</time>
      </trkpt>
      <trkpt lat="45.27311" lon="5.11416">
        <ele>404.21285779591</ele>
        <time>2014-05-31T12:05:04Z</time>
      </trkpt>
      <trkpt lat="45.27308" lon="5.11409">
        <ele>404.21285779591</ele>
        <time>2014-05-31T12:05:09Z</time>
      </trkpt>
      <trkpt lat="45.27304" lon="5.11401">
        <ele>405.50049148851</ele>
        <time>2014-05-31T12:05:14Z</time>
      </trkpt>
      <trkpt lat="45.273" lon="5.11395">
        <ele>405.50049148851</ele>
        <time>2014-05-31T12:05:19Z</time>
      </trkpt>
      <trkpt lat="45.27295" lon="5.11388">
        <ele>407.0079350493</ele>
        <time>2014-05-31T12:05:24Z</time>
      </trkpt>
      <trkpt lat="45.2729" lon="5.1138">
        <ele>407.0079350493</ele>
        <time>2014-05-31T12:05:29Z</time>
      </trkpt>
      <trkpt lat="45.27284" lon="5.11374">
        <ele>408.87087116575</ele>
        <time>2014-05-31T12:05:34Z</time>
      </trkpt>
      <trkpt lat="45.27278" lon="5.1137">
        <ele>408.87087116575</ele>
        <time>2014-05-31T12:05:39Z</time>
      </trkpt>
      <trkpt lat="45.27273" lon="5.11367">
        <ele>410.709672825</ele>
        <time>2014-05-31T12:05:44Z</time>
      </trkpt>
      <trkpt lat="45.27267" lon="5.11363">
        <ele>410.709672825</ele>
        <time>2014-05-31T12:05:49Z</time>
      </trkpt>
      <trkpt lat="45.27261" lon="5.11362">
        <ele>412.38889641491</ele>
        <time>2014-05-31T12:05:54Z</time>
      </trkpt>
      <trkpt lat="45.27257" lon="5.11359">
        <ele>412.38889641491</ele>
        <time>2014-05-31T12:05:59Z</time>
      </trkpt>
      <trkpt lat="45.27249" lon="5.11356">
        <ele>414.44648653085</ele>
        <time>2014-05-31T12:06:04Z</time>
      </trkpt>
      <trkpt lat="45.27242" lon="5.11353">
        <ele>414.44648653085</ele>
        <time>2014-05-31T12:06:09Z</time>
      </trkpt>
      <trkpt lat="45.27235" lon="5.11351">
        <ele>416.58729435982</ele>
        <time>2014-05-31T12:06:14Z</time>
      </trkpt>
      <trkpt lat="45.27228" lon="5.1135">
        <ele>416.58729435982</ele>
        <time>2014-05-31T12:06:19Z</time>
      </trkpt>
      <trkpt lat="45.2722" lon="5.11348">
        <ele>418.69625377031</ele>
        <time>2014-05-31T12:06:24Z</time>
      </trkpt>
      <trkpt lat="45.27211" lon="5.11346">
        <ele>418.69625377031</ele>
        <time>2014-05-31T12:06:29Z</time>
      </trkpt>
      <trkpt lat="45.27204" lon="5.11345">
        <ele>420.92636834188</ele>
        <time>2014-05-31T12:06:34Z</time>
      </trkpt>
      <trkpt lat="45.27198" lon="5.11344">
        <ele>420.92636834188</ele>
        <time>2014-05-31T12:06:39Z</time>
      </trkpt>
      <trkpt lat="45.27191" lon="5.11341">
        <ele>423.33273782772</ele>
        <time>2014-05-31T12:06:44Z</time>
      </trkpt>
      <trkpt lat="45.27185" lon="5.11338">
        <ele>423.33273782772</ele>
        <time>2014-05-31T12:06:49Z</time>
      </trkpt>
      <trkpt lat="45.27179" lon="5.11339">
        <ele>425.92284291795</ele>
        <time>2014-05-31T12:06:54Z</time>
      </trkpt>
      <trkpt lat="45.27174" lon="5.11339">
        <ele>425.92284291795</ele>
        <time>2014-05-31T12:06:59Z</time>
      </trkpt>
      <trkpt lat="45.27171" lon="5.11333">
        <ele>428.34299075231</ele>
        <time>2014-05-31T12:07:04Z</time>
      </trkpt>
      <trkpt lat="45.2717" lon="5.11327">
        <ele>428.34299075231</ele>
        <time>2014-05-31T12:07:09Z</time>
      </trkpt>
      <trkpt lat="45.2717" lon="5.11325">
        <ele>428.34299075231</ele>
        <time>2014-05-31T12:07:14Z</time>
      </trkpt>
      <trkpt lat="45.2717" lon="5.11323">
        <ele>428.34299075231</ele>
        <time>2014-05-31T12:07:19Z</time>
      </trkpt>
      <trkpt lat="45.27171" lon="5.11328">
        <ele>430.95786274227</ele>
        <time>2014-05-31T12:07:24Z</time>
      </trkpt>
      <trkpt lat="45.27175" lon="5.11335">
        <ele>430.95786274227</ele>
        <time>2014-05-31T12:07:29Z</time>
      </trkpt>
      <trkpt lat="45.2718" lon="5.11337">
        <ele>433.44208649931</ele>
        <time>2014-05-31T12:07:34Z</time>
      </trkpt>
      <trkpt lat="45.27183" lon="5.11339">
        <ele>433.44208649931</ele>
        <time>2014-05-31T12:07:39Z</time>
      </trkpt>
      <trkpt lat="45.27185" lon="5.11342">
        <ele>433.44208649931</ele>
        <time>2014-05-31T12:07:44Z</time>
      </trkpt>
      <trkpt lat="45.27184" lon="5.11342">
        <ele>433.44208649931</ele>
        <time>2014-05-31T12:07:49Z</time>
      </trkpt>
      <trkpt lat="45.27183" lon="5.11342">
        <ele>433.44208649931</ele>
        <time>2014-05-31T12:07:54Z</time>
      </trkpt>
      <trkpt lat="45.27183" lon="5.11342">
        <ele>435.37947100424</ele>
        <time>2014-05-31T12:07:59Z</time>
      </trkpt>
      <trkpt lat="45.27183" lon="5.11342">
        <ele>435.37947100424</ele>
        <time>2014-05-31T12:08:04Z</time>
      </trkpt>
      <trkpt lat="45.27182" lon="5.11341">
        <ele>435.37947100424</ele>
        <time>2014-05-31T12:08:09Z</time>
      </trkpt>
      <trkpt lat="45.27182" lon="5.11341">
        <ele>435.37947100424</ele>
        <time>2014-05-31T12:08:14Z</time>
      </trkpt>
      <trkpt lat="45.27181" lon="5.11341">
        <ele>435.37947100424</ele>
        <time>2014-05-31T12:08:19Z</time>
      </trkpt>
      <trkpt lat="45.27181" lon="5.11341">
        <ele>435.37947100424</ele>
        <time>2014-05-31T12:08:24Z</time>
      </trkpt>
      <trkpt lat="45.27182" lon="5.11341">
        <ele>435.37947100424</ele>
        <time>2014-05-31T12:08:29Z</time>
      </trkpt>
      <trkpt lat="45.27182" lon="5.11341">
        <ele>435.37947100424</ele>
        <time>2014-05-31T12:08:34Z</time>
      </trkpt>
      <trkpt lat="45.27183" lon="5.11341">
        <ele>435.37947100424</ele>
        <time>2014-05-31T12:08:39Z</time>
      </trkpt>
      <trkpt lat="45.27184" lon="5.11339">
        <ele>435.37947100424</ele>
        <time>2014-05-31T12:08:44Z</time>
      </trkpt>
      <trkpt lat="45.27183" lon="5.11338">
        <ele>435.37947100424</ele>
        <time>2014-05-31T12:08:49Z</time>
      </trkpt>
      <trkpt lat="45.27179" lon="5.11341">
        <ele>436.77524064974</ele>
        <time>2014-05-31T12:08:54Z</time>
      </trkpt>
      <trkpt lat="45.27179" lon="5.11352">
        <ele>436.77524064974</ele>
        <time>2014-05-31T12:08:59Z</time>
      </trkpt>
      <trkpt lat="45.2718" lon="5.11363">
        <ele>438.3853449528</ele>
        <time>2014-05-31T12:09:04Z</time>
      </trkpt>
      <trkpt lat="45.27182" lon="5.11372">
        <ele>438.3853449528</ele>
        <time>2014-05-31T12:09:09Z</time>
      </trkpt>
      <trkpt lat="45.27183" lon="5.11383">
        <ele>439.3101772501</ele>
        <time>2014-05-31T12:09:14Z</time>
      </trkpt>
      <trkpt lat="45.27183" lon="5.11394">
        <ele>439.3101772501</ele>
        <time>2014-05-31T12:09:19Z</time>
      </trkpt>
      <trkpt lat="45.27186" lon="5.11403">
        <ele>440.00093378717</ele>
        <time>2014-05-31T12:09:24Z</time>
      </trkpt>
      <trkpt lat="45.27188" lon="5.11413">
        <ele>440.00093378717</ele>
        <time>2014-05-31T12:09:29Z</time>
      </trkpt>
      <trkpt lat="45.2719" lon="5.11423">
        <ele>440.7468230236</ele>
        <time>2014-05-31T12:09:34Z</time>
      </trkpt>
      <trkpt lat="45.27193" lon="5.11433">
        <ele>440.7468230236</ele>
        <time>2014-05-31T12:09:39Z</time>
      </trkpt>
      <trkpt lat="45.27194" lon="5.11444">
        <ele>440.87912230429</ele>
        <time>2014-05-31T12:09:44Z</time>
      </trkpt>
      <trkpt lat="45.27199" lon="5.11454">
        <ele>440.87912230429</ele>
        <time>2014-05-31T12:09:49Z</time>
      </trkpt>
      <trkpt lat="45.27204" lon="5.11463">
        <ele>441.12036849286</ele>
        <time>2014-05-31T12:09:54Z</time>
      </trkpt>
      <trkpt lat="45.27208" lon="5.11471">
        <ele>441.12036849286</ele>
        <time>2014-05-31T12:09:59Z</time>
      </trkpt>
      <trkpt lat="45.27211" lon="5.1148">
        <ele>441.28962821659</ele>
        <time>2014-05-31T12:10:04Z</time>
      </trkpt>
      <trkpt lat="45.27214" lon="5.1149">
        <ele>441.28962821659</ele>
        <time>2014-05-31T12:10:09Z</time>
      </trkpt>
      <trkpt lat="45.27215" lon="5.11501">
        <ele>441.00344956635</ele>
        <time>2014-05-31T12:10:14Z</time>
      </trkpt>
      <trkpt lat="45.27217" lon="5.1151">
        <ele>441.00344956635</ele>
        <time>2014-05-31T12:10:19Z</time>
      </trkpt>
      <trkpt lat="45.27221" lon="5.1152">
        <ele>440.72940088524</ele>
        <time>2014-05-31T12:10:24Z</time>
      </trkpt>
      <trkpt lat="45.27225" lon="5.11529">
        <ele>440.72940088524</ele>
        <time>2014-05-31T12:10:29Z</time>
      </trkpt>
      <trkpt lat="45.27228" lon="5.11538">
        <ele>440.32435065296</ele>
        <time>2014-05-31T12:10:34Z</time>
      </trkpt>
      <trkpt lat="45.27231" lon="5.11548">
        <ele>440.32435065296</ele>
        <time>2014-05-31T12:10:39Z</time>
      </trkpt>
      <trkpt lat="45.27235" lon="5.11556">
        <ele>439.80027118622</ele>
        <time>2014-05-31T12:10:44Z</time>
      </trkpt>
      <trkpt lat="45.27238" lon="5.11566">
        <ele>439.80027118622</ele>
        <time>2014-05-31T12:10:49Z</time>
      </trkpt>
      <trkpt lat="45.27241" lon="5.11575">
        <ele>439.08221750987</ele>
        <time>2014-05-31T12:10:54Z</time>
      </trkpt>
      <trkpt lat="45.27244" lon="5.11585">
        <ele>439.08221750987</ele>
        <time>2014-05-31T12:10:59Z</time>
      </trkpt>
      <trkpt lat="45.27246" lon="5.11594">
        <ele>438.24548448363</ele>
        <time>2014-05-31T12:11:04Z</time>
      </trkpt>
      <trkpt lat="45.27248" lon="5.11604">
        <ele>438.24548448363</ele>
        <time>2014-05-31T12:11:09Z</time>
      </trkpt>
      <trkpt lat="45.2725" lon="5.11615">
        <ele>437.07200908489</ele>
        <time>2014-05-31T12:11:14Z</time>
      </trkpt>
      <trkpt lat="45.27253" lon="5.11623">
        <ele>437.07200908489</ele>
        <time>2014-05-31T12:11:19Z</time>
      </trkpt>
      <trkpt lat="45.27257" lon="5.11632">
        <ele>436.0092381704</ele>
        <time>2014-05-31T12:11:24Z</time>
      </trkpt>
      <trkpt lat="45.2726" lon="5.11641">
        <ele>436.0092381704</ele>
        <time>2014-05-31T12:11:29Z</time>
      </trkpt>
      <trkpt lat="45.27263" lon="5.11651">
        <ele>434.89502390744</ele>
        <time>2014-05-31T12:11:34Z</time>
      </trkpt>
      <trkpt lat="45.27266" lon="5.1166">
        <ele>434.89502390744</ele>
        <time>2014-05-31T12:11:39Z</time>
      </trkpt>
      <trkpt lat="45.27269" lon="5.11669">
        <ele>433.88192142887</ele>
        <time>2014-05-31T12:11:44Z</time>
      </trkpt>
      <trkpt lat="45.27272" lon="5.11679">
        <ele>433.88192142887</ele>
        <time>2014-05-31T12:11:49Z</time>
      </trkpt>
      <trkpt lat="45.27275" lon="5.11688">
        <ele>432.90923911887</ele>
        <time>2014-05-31T12:11:54Z</time>
      </trkpt>
      <trkpt lat="45.27277" lon="5.11697">
        <ele>432.90923911887</ele>
        <time>2014-05-31T12:11:59Z</time>
      </trkpt>
      <trkpt lat="45.27281" lon="5.11705">
        <ele>431.77650470461</ele>
        <time>2014-05-31T12:12:04Z</time>
      </trkpt>
      <trkpt lat="45.27283" lon="5.11714">
        <ele>431.77650470461</ele>
        <time>2014-05-31T12:12:09Z</time>
      </trkpt>
      <trkpt lat="45.27286" lon="5.11724">
        <ele>430.716316989</ele>
        <time>2014-05-31T12:12:14Z</time>
      </trkpt>
      <trkpt lat="45.27288" lon="5.11732">
        <ele>430.716316989</ele>
        <time>2014-05-31T12:12:19Z</time>
      </trkpt>
      <trkpt lat="45.27291" lon="5.11741">
        <ele>429.87189121262</ele>
        <time>2014-05-31T12:12:24Z</time>
      </trkpt>
      <trkpt lat="45.27294" lon="5.11749">
        <ele>429.87189121262</ele>
        <time>2014-05-31T12:12:29Z</time>
      </trkpt>
      <trkpt lat="45.27297" lon="5.11759">
        <ele>429.05822453938</ele>
        <time>2014-05-31T12:12:34Z</time>
      </trkpt>
      <trkpt lat="45.27299" lon="5.11768">
        <ele>429.05822453938</ele>
        <time>2014-05-31T12:12:39Z</time>
      </trkpt>
      <trkpt lat="45.27302" lon="5.11777">
        <ele>428.08935040333</ele>
        <time>2014-05-31T12:12:44Z</time>
      </trkpt>
      <trkpt lat="45.27306" lon="5.11787">
        <ele>428.08935040333</ele>
        <time>2014-05-31T12:12:49Z</time>
      </trkpt>
      <trkpt lat="45.27307" lon="5.11796">
        <ele>427.13920137175</ele>
        <time>2014-05-31T12:12:54Z</time>
      </trkpt>
      <trkpt lat="45.2731" lon="5.11805">
        <ele>427.13920137175</ele>
        <time>2014-05-31T12:12:59Z</time>
      </trkpt>
      <trkpt lat="45.27313" lon="5.11814">
        <ele>425.70589751835</ele>
        <time>2014-05-31T12:13:04Z</time>
      </trkpt>
      <trkpt lat="45.27315" lon="5.11823">
        <ele>425.70589751835</ele>
        <time>2014-05-31T12:13:09Z</time>
      </trkpt>
      <trkpt lat="45.27317" lon="5.11831">
        <ele>424.10390286969</ele>
        <time>2014-05-31T12:13:14Z</time>
      </trkpt>
      <trkpt lat="45.27319" lon="5.11839">
        <ele>424.10390286969</ele>
        <time>2014-05-31T12:13:19Z</time>
      </trkpt>
      <trkpt lat="45.27321" lon="5.11848">
        <ele>422.68261109855</ele>
        <time>2014-05-31T12:13:24Z</time>
      </trkpt>
      <trkpt lat="45.27324" lon="5.11857">
        <ele>422.68261109855</ele>
        <time>2014-05-31T12:13:29Z</time>
      </trkpt>
      <trkpt lat="45.27327" lon="5.11867">
        <ele>421.36163558477</ele>
        <time>2014-05-31T12:13:34Z</time>
      </trkpt>
      <trkpt lat="45.27331" lon="5.11876">
        <ele>421.36163558477</ele>
        <time>2014-05-31T12:13:39Z</time>
      </trkpt>
      <trkpt lat="45.27334" lon="5.11885">
        <ele>420.02287649832</ele>
        <time>2014-05-31T12:13:44Z</time>
      </trkpt>
      <trkpt lat="45.27337" lon="5.11894">
        <ele>420.02287649832</ele>
        <time>2014-05-31T12:13:49Z</time>
      </trkpt>
      <trkpt lat="45.2734" lon="5.11904">
        <ele>418.39832653332</ele>
        <time>2014-05-31T12:13:54Z</time>
      </trkpt>
      <trkpt lat="45.2734" lon="5.11915">
        <ele>418.39832653332</ele>
        <time>2014-05-31T12:13:59Z</time>
      </trkpt>
      <trkpt lat="45.27336" lon="5.11921">
        <ele>416.83120689652</ele>
        <time>2014-05-31T12:14:04Z</time>
      </trkpt>
      <trkpt lat="45.27336" lon="5.1192">
        <ele>416.83120689652</ele>
        <time>2014-05-31T12:14:09Z</time>
      </trkpt>
      <trkpt lat="45.27336" lon="5.11919">
        <ele>416.83120689652</ele>
        <time>2014-05-31T12:14:14Z</time>
      </trkpt>
      <trkpt lat="45.27335" lon="5.11919">
        <ele>416.83120689652</ele>
        <time>2014-05-31T12:14:19Z</time>
      </trkpt>
      <trkpt lat="45.27335" lon="5.11919">
        <ele>416.83120689652</ele>
        <time>2014-05-31T12:14:24Z</time>
      </trkpt>
      <trkpt lat="45.27335" lon="5.11919">
        <ele>416.83120689652</ele>
        <time>2014-05-31T12:14:29Z</time>
      </trkpt>
      <trkpt lat="45.27335" lon="5.11918">
        <ele>416.83120689652</ele>
        <time>2014-05-31T12:14:34Z</time>
      </trkpt>
      <trkpt lat="45.27335" lon="5.11918">
        <ele>416.83120689652</ele>
        <time>2014-05-31T12:14:39Z</time>
      </trkpt>
      <trkpt lat="45.27336" lon="5.11914">
        <ele>416.83120689652</ele>
        <time>2014-05-31T12:14:44Z</time>
      </trkpt>
      <trkpt lat="45.27336" lon="5.1192">
        <ele>415.82658806609</ele>
        <time>2014-05-31T12:14:49Z</time>
      </trkpt>
      <trkpt lat="45.27336" lon="5.11919">
        <ele>415.82658806609</ele>
        <time>2014-05-31T12:14:54Z</time>
      </trkpt>
      <trkpt lat="45.27335" lon="5.11919">
        <ele>415.82658806609</ele>
        <time>2014-05-31T12:14:59Z</time>
      </trkpt>
      <trkpt lat="45.27334" lon="5.1192">
        <ele>415.82658806609</ele>
        <time>2014-05-31T12:15:04Z</time>
      </trkpt>
      <trkpt lat="45.27335" lon="5.1192">
        <ele>415.82658806609</ele>
        <time>2014-05-31T12:15:09Z</time>
      </trkpt>
      <trkpt lat="45.27334" lon="5.11921">
        <ele>415.82658806609</ele>
        <time>2014-05-31T12:15:14Z</time>
      </trkpt>
      <trkpt lat="45.27332" lon="5.11924">
        <ele>415.82658806609</ele>
        <time>2014-05-31T12:15:19Z</time>
      </trkpt>
      <trkpt lat="45.27332" lon="5.11924">
        <ele>415.82658806609</ele>
        <time>2014-05-31T12:15:24Z</time>
      </trkpt>
      <trkpt lat="45.27333" lon="5.11925">
        <ele>415.82658806609</ele>
        <time>2014-05-31T12:15:29Z</time>
      </trkpt>
      <trkpt lat="45.27333" lon="5.11925">
        <ele>415.82658806609</ele>
        <time>2014-05-31T12:15:34Z</time>
      </trkpt>
      <trkpt lat="45.27333" lon="5.11926">
        <ele>415.07253553733</ele>
        <time>2014-05-31T12:15:39Z</time>
      </trkpt>
      <trkpt lat="45.27333" lon="5.11926">
        <ele>415.07253553733</ele>
        <time>2014-05-31T12:15:44Z</time>
      </trkpt>
      <trkpt lat="45.27333" lon="5.11926">
        <ele>415.07253553733</ele>
        <time>2014-05-31T12:15:49Z</time>
      </trkpt>
      <trkpt lat="45.27333" lon="5.11926">
        <ele>415.07253553733</ele>
        <time>2014-05-31T12:15:54Z</time>
      </trkpt>
      <trkpt lat="45.27332" lon="5.11932">
        <ele>415.07253553733</ele>
        <time>2014-05-31T12:15:59Z</time>
      </trkpt>
      <trkpt lat="45.2733" lon="5.11938">
        <ele>413.97656647863</ele>
        <time>2014-05-31T12:16:04Z</time>
      </trkpt>
      <trkpt lat="45.27328" lon="5.11945">
        <ele>413.97656647863</ele>
        <time>2014-05-31T12:16:09Z</time>
      </trkpt>
      <trkpt lat="45.27325" lon="5.11951">
        <ele>413.30196635467</ele>
        <time>2014-05-31T12:16:14Z</time>
      </trkpt>
      <trkpt lat="45.27321" lon="5.11959">
        <ele>413.30196635467</ele>
        <time>2014-05-31T12:16:19Z</time>
      </trkpt>
      <trkpt lat="45.27316" lon="5.11963">
        <ele>413.14937815479</ele>
        <time>2014-05-31T12:16:24Z</time>
      </trkpt>
      <trkpt lat="45.2731" lon="5.11965">
        <ele>413.14937815479</ele>
        <time>2014-05-31T12:16:29Z</time>
      </trkpt>
      <trkpt lat="45.27304" lon="5.11965">
        <ele>413.01961284377</ele>
        <time>2014-05-31T12:16:34Z</time>
      </trkpt>
      <trkpt lat="45.27298" lon="5.11966">
        <ele>413.01961284377</ele>
        <time>2014-05-31T12:16:39Z</time>
      </trkpt>
      <trkpt lat="45.27292" lon="5.11966">
        <ele>413.01200843561</ele>
        <time>2014-05-31T12:16:44Z</time>
      </trkpt>
      <trkpt lat="45.27285" lon="5.11965">
        <ele>413.01200843561</ele>
        <time>2014-05-31T12:16:49Z</time>
      </trkpt>
      <trkpt lat="45.27278" lon="5.11964">
        <ele>412.43995680963</ele>
        <time>2014-05-31T12:16:54Z</time>
      </trkpt>
      <trkpt lat="45.27271" lon="5.11967">
        <ele>412.43995680963</ele>
        <time>2014-05-31T12:16:59Z</time>
      </trkpt>
      <trkpt lat="45.27265" lon="5.11975">
        <ele>412.49898503489</ele>
        <time>2014-05-31T12:17:04Z</time>
      </trkpt>
      <trkpt lat="45.27261" lon="5.11982">
        <ele>412.49898503489</ele>
        <time>2014-05-31T12:17:09Z</time>
      </trkpt>
      <trkpt lat="45.27258" lon="5.11989">
        <ele>413.27174874616</ele>
        <time>2014-05-31T12:17:14Z</time>
      </trkpt>
      <trkpt lat="45.27255" lon="5.11996">
        <ele>413.27174874616</ele>
        <time>2014-05-31T12:17:19Z</time>
      </trkpt>
      <trkpt lat="45.27254" lon="5.12005">
        <ele>414.05454986936</ele>
        <time>2014-05-31T12:17:24Z</time>
      </trkpt>
      <trkpt lat="45.27253" lon="5.12015">
        <ele>414.05454986936</ele>
        <time>2014-05-31T12:17:29Z</time>
      </trkpt>
      <trkpt lat="45.27253" lon="5.12025">
        <ele>414.94466554025</ele>
        <time>2014-05-31T12:17:34Z</time>
      </trkpt>
      <trkpt lat="45.27257" lon="5.12034">
        <ele>414.94466554025</ele>
        <time>2014-05-31T12:17:39Z</time>
      </trkpt>
      <trkpt lat="45.2726" lon="5.12043">
        <ele>416.32009432977</ele>
        <time>2014-05-31T12:17:44Z</time>
      </trkpt>
      <trkpt lat="45.27263" lon="5.12053">
        <ele>416.32009432977</ele>
        <time>2014-05-31T12:17:49Z</time>
      </trkpt>
      <trkpt lat="45.27267" lon="5.12062">
        <ele>417.96763377858</ele>
        <time>2014-05-31T12:17:54Z</time>
      </trkpt>
      <trkpt lat="45.27271" lon="5.12072">
        <ele>417.96763377858</ele>
        <time>2014-05-31T12:17:59Z</time>
      </trkpt>
      <trkpt lat="45.27274" lon="5.1208">
        <ele>419.54484600938</ele>
        <time>2014-05-31T12:18:04Z</time>
      </trkpt>
      <trkpt lat="45.27277" lon="5.12089">
        <ele>419.54484600938</ele>
        <time>2014-05-31T12:18:09Z</time>
      </trkpt>
      <trkpt lat="45.27281" lon="5.12098">
        <ele>421.39755122718</ele>
        <time>2014-05-31T12:18:14Z</time>
      </trkpt>
      <trkpt lat="45.27285" lon="5.12107">
        <ele>421.39755122718</ele>
        <time>2014-05-31T12:18:19Z</time>
      </trkpt>
      <trkpt lat="45.27289" lon="5.12115">
        <ele>423.18249264396</ele>
        <time>2014-05-31T12:18:24Z</time>
      </trkpt>
      <trkpt lat="45.27292" lon="5.12124">
        <ele>423.18249264396</ele>
        <time>2014-05-31T12:18:29Z</time>
      </trkpt>
      <trkpt lat="45.27295" lon="5.12132">
        <ele>424.59625665136</ele>
        <time>2014-05-31T12:18:34Z</time>
      </trkpt>
      <trkpt lat="45.27298" lon="5.1214">
        <ele>424.59625665136</ele>
        <time>2014-05-31T12:18:39Z</time>
      </trkpt>
      <trkpt lat="45.273" lon="5.12149">
        <ele>425.69025525106</ele>
        <time>2014-05-31T12:18:44Z</time>
      </trkpt>
      <trkpt lat="45.27302" lon="5.12158">
        <ele>425.69025525106</ele>
        <time>2014-05-31T12:18:49Z</time>
      </trkpt>
      <trkpt lat="45.27305" lon="5.12166">
        <ele>426.527482983</ele>
        <time>2014-05-31T12:18:54Z</time>
      </trkpt>
      <trkpt lat="45.27308" lon="5.12175">
        <ele>426.527482983</ele>
        <time>2014-05-31T12:18:59Z</time>
      </trkpt>
      <trkpt lat="45.27312" lon="5.12184">
        <ele>427.05179694014</ele>
        <time>2014-05-31T12:19:04Z</time>
      </trkpt>
      <trkpt lat="45.27316" lon="5.12193">
        <ele>427.05179694014</ele>
        <time>2014-05-31T12:19:09Z</time>
      </trkpt>
      <trkpt lat="45.27318" lon="5.12201">
        <ele>427.71650907295</ele>
        <time>2014-05-31T12:19:14Z</time>
      </trkpt>
      <trkpt lat="45.27322" lon="5.12207">
        <ele>427.71650907295</ele>
        <time>2014-05-31T12:19:19Z</time>
      </trkpt>
      <trkpt lat="45.27326" lon="5.12216">
        <ele>428.53779323127</ele>
        <time>2014-05-31T12:19:24Z</time>
      </trkpt>
      <trkpt lat="45.2733" lon="5.12225">
        <ele>428.53779323127</ele>
        <time>2014-05-31T12:19:29Z</time>
      </trkpt>
      <trkpt lat="45.27331" lon="5.12233">
        <ele>428.37737431632</ele>
        <time>2014-05-31T12:19:34Z</time>
      </trkpt>
      <trkpt lat="45.27333" lon="5.12242">
        <ele>428.37737431632</ele>
        <time>2014-05-31T12:19:39Z</time>
      </trkpt>
      <trkpt lat="45.27335" lon="5.12252">
        <ele>428.51801665757</ele>
        <time>2014-05-31T12:19:44Z</time>
      </trkpt>
      <trkpt lat="45.27338" lon="5.1226">
        <ele>428.51801665757</ele>
        <time>2014-05-31T12:19:49Z</time>
      </trkpt>
      <trkpt lat="45.27336" lon="5.12267">
        <ele>428.12991770519</ele>
        <time>2014-05-31T12:19:54Z</time>
      </trkpt>
      <trkpt lat="45.27338" lon="5.12275">
        <ele>428.12991770519</ele>
        <time>2014-05-31T12:19:59Z</time>
      </trkpt>
      <trkpt lat="45.27341" lon="5.12285">
        <ele>427.72836522118</ele>
        <time>2014-05-31T12:20:04Z</time>
      </trkpt>
      <trkpt lat="45.27344" lon="5.12296">
        <ele>427.72836522118</ele>
        <time>2014-05-31T12:20:09Z</time>
      </trkpt>
      <trkpt lat="45.27347" lon="5.12306">
        <ele>427.38737567807</ele>
        <time>2014-05-31T12:20:14Z</time>
      </trkpt>
      <trkpt lat="45.2735" lon="5.12316">
        <ele>427.38737567807</ele>
        <time>2014-05-31T12:20:19Z</time>
      </trkpt>
      <trkpt lat="45.27352" lon="5.12327">
        <ele>427.36275229789</ele>
        <time>2014-05-31T12:20:24Z</time>
      </trkpt>
      <trkpt lat="45.27354" lon="5.12338">
        <ele>427.36275229789</ele>
        <time>2014-05-31T12:20:29Z</time>
      </trkpt>
      <trkpt lat="45.27356" lon="5.12347">
        <ele>427.57361927693</ele>
        <time>2014-05-31T12:20:34Z</time>
      </trkpt>
      <trkpt lat="45.27357" lon="5.12356">
        <ele>427.57361927693</ele>
        <time>2014-05-31T12:20:39Z</time>
      </trkpt>
      <trkpt lat="45.2736" lon="5.12365">
        <ele>427.78589938131</ele>
        <time>2014-05-31T12:20:44Z</time>
      </trkpt>
      <trkpt lat="45.27362" lon="5.12373">
        <ele>427.78589938131</ele>
        <time>2014-05-31T12:20:49Z</time>
      </trkpt>
      <trkpt lat="45.27365" lon="5.12382">
        <ele>427.9556778552</ele>
        <time>2014-05-31T12:20:54Z</time>
      </trkpt>
      <trkpt lat="45.27367" lon="5.12391">
        <ele>427.9556778552</ele>
        <time>2014-05-31T12:20:59Z</time>
      </trkpt>
      <trkpt lat="45.27371" lon="5.12401">
        <ele>428.38828865249</ele>
        <time>2014-05-31T12:21:04Z</time>
      </trkpt>
      <trkpt lat="45.27375" lon="5.12409">
        <ele>428.38828865249</ele>
        <time>2014-05-31T12:21:09Z</time>
      </trkpt>
      <trkpt lat="45.27379" lon="5.12418">
        <ele>428.90477931888</ele>
        <time>2014-05-31T12:21:14Z</time>
      </trkpt>
      <trkpt lat="45.27383" lon="5.12426">
        <ele>428.90477931888</ele>
        <time>2014-05-31T12:21:19Z</time>
      </trkpt>
      <trkpt lat="45.27387" lon="5.12433">
        <ele>429.20944378043</ele>
        <time>2014-05-31T12:21:24Z</time>
      </trkpt>
      <trkpt lat="45.2739" lon="5.12441">
        <ele>429.20944378043</ele>
        <time>2014-05-31T12:21:29Z</time>
      </trkpt>
      <trkpt lat="45.27394" lon="5.1245">
        <ele>429.54772881136</ele>
        <time>2014-05-31T12:21:34Z</time>
      </trkpt>
      <trkpt lat="45.27398" lon="5.12459">
        <ele>429.54772881136</ele>
        <time>2014-05-31T12:21:39Z</time>
      </trkpt>
      <trkpt lat="45.27402" lon="5.12467">
        <ele>429.77230332957</ele>
        <time>2014-05-31T12:21:44Z</time>
      </trkpt>
      <trkpt lat="45.27407" lon="5.12473">
        <ele>429.77230332957</ele>
        <time>2014-05-31T12:21:49Z</time>
      </trkpt>
      <trkpt lat="45.2741" lon="5.12482">
        <ele>429.74701289258</ele>
        <time>2014-05-31T12:21:54Z</time>
      </trkpt>
      <trkpt lat="45.27411" lon="5.12492">
        <ele>429.74701289258</ele>
        <time>2014-05-31T12:21:59Z</time>
      </trkpt>
      <trkpt lat="45.27413" lon="5.12499">
        <ele>429.7355389073</ele>
        <time>2014-05-31T12:22:04Z</time>
      </trkpt>
      <trkpt lat="45.27413" lon="5.12505">
        <ele>429.7355389073</ele>
        <time>2014-05-31T12:22:09Z</time>
      </trkpt>
      <trkpt lat="45.27414" lon="5.12512">
        <ele>429.42015049434</ele>
        <time>2014-05-31T12:22:14Z</time>
      </trkpt>
      <trkpt lat="45.27413" lon="5.12521">
        <ele>429.42015049434</ele>
        <time>2014-05-31T12:22:19Z</time>
      </trkpt>
      <trkpt lat="45.27413" lon="5.12531">
        <ele>428.75232402342</ele>
        <time>2014-05-31T12:22:24Z</time>
      </trkpt>
      <trkpt lat="45.27412" lon="5.12541">
        <ele>428.75232402342</ele>
        <time>2014-05-31T12:22:29Z</time>
      </trkpt>
      <trkpt lat="45.27413" lon="5.1255">
        <ele>426.99637328417</ele>
        <time>2014-05-31T12:22:34Z</time>
      </trkpt>
      <trkpt lat="45.27415" lon="5.12553">
        <ele>426.99637328417</ele>
        <time>2014-05-31T12:22:39Z</time>
      </trkpt>
      <trkpt lat="45.27416" lon="5.12553">
        <ele>426.99637328417</ele>
        <time>2014-05-31T12:22:44Z</time>
      </trkpt>
      <trkpt lat="45.27417" lon="5.12554">
        <ele>426.99637328417</ele>
        <time>2014-05-31T12:22:49Z</time>
      </trkpt>
      <trkpt lat="45.27416" lon="5.12555">
        <ele>426.99637328417</ele>
        <time>2014-05-31T12:22:54Z</time>
      </trkpt>
      <trkpt lat="45.27417" lon="5.12556">
        <ele>426.99637328417</ele>
        <time>2014-05-31T12:22:59Z</time>
      </trkpt>
      <trkpt lat="45.27417" lon="5.12557">
        <ele>426.99637328417</ele>
        <time>2014-05-31T12:23:04Z</time>
      </trkpt>
      <trkpt lat="45.27417" lon="5.12557">
        <ele>426.99637328417</ele>
        <time>2014-05-31T12:23:09Z</time>
      </trkpt>
      <trkpt lat="45.27417" lon="5.12557">
        <ele>426.99637328417</ele>
        <time>2014-05-31T12:23:14Z</time>
      </trkpt>
      <trkpt lat="45.27417" lon="5.12557">
        <ele>426.99637328417</ele>
        <time>2014-05-31T12:23:19Z</time>
      </trkpt>
      <trkpt lat="45.27417" lon="5.12557">
        <ele>426.99637328417</ele>
        <time>2014-05-31T12:23:24Z</time>
      </trkpt>
      <trkpt lat="45.27417" lon="5.12557">
        <ele>426.99637328417</ele>
        <time>2014-05-31T12:23:29Z</time>
      </trkpt>
      <trkpt lat="45.27418" lon="5.1256">
        <ele>425.83713981691</ele>
        <time>2014-05-31T12:23:34Z</time>
      </trkpt>
      <trkpt lat="45.27421" lon="5.1257">
        <ele>425.83713981691</ele>
        <time>2014-05-31T12:23:39Z</time>
      </trkpt>
      <trkpt lat="45.27424" lon="5.1258">
        <ele>425.39291164985</ele>
        <time>2014-05-31T12:23:44Z</time>
      </trkpt>
      <trkpt lat="45.27425" lon="5.12587">
        <ele>425.39291164985</ele>
        <time>2014-05-31T12:23:49Z</time>
      </trkpt>
      <trkpt lat="45.27427" lon="5.12598">
        <ele>425.03630525132</ele>
        <time>2014-05-31T12:23:54Z</time>
      </trkpt>
      <trkpt lat="45.2743" lon="5.12617">
        <ele>424.81985143185</ele>
        <time>2014-05-31T12:23:59Z</time>
      </trkpt>
      <trkpt lat="45.27436" lon="5.12638">
        <ele>424.67652033238</ele>
        <time>2014-05-31T12:24:04Z</time>
      </trkpt>
      <trkpt lat="45.27442" lon="5.12662">
        <ele>424.44310166262</ele>
        <time>2014-05-31T12:24:09Z</time>
      </trkpt>
      <trkpt lat="45.27449" lon="5.12685">
        <ele>424.48740526557</ele>
        <time>2014-05-31T12:24:14Z</time>
      </trkpt>
      <trkpt lat="45.27455" lon="5.12709">
        <ele>424.50092035181</ele>
        <time>2014-05-31T12:24:19Z</time>
      </trkpt>
      <trkpt lat="45.27469" lon="5.12746">
        <ele>424.77430889413</ele>
        <time>2014-05-31T12:24:24Z</time>
      </trkpt>
      <trkpt lat="45.27476" lon="5.12767">
        <ele>425.33114381165</ele>
        <time>2014-05-31T12:24:29Z</time>
      </trkpt>
      <trkpt lat="45.2748" lon="5.12776">
        <ele>425.33114381165</ele>
        <time>2014-05-31T12:24:34Z</time>
      </trkpt>
      <trkpt lat="45.27482" lon="5.12786">
        <ele>425.90423295711</ele>
        <time>2014-05-31T12:24:39Z</time>
      </trkpt>
      <trkpt lat="45.27484" lon="5.12795">
        <ele>425.90423295711</ele>
        <time>2014-05-31T12:24:44Z</time>
      </trkpt>
      <trkpt lat="45.27486" lon="5.12805">
        <ele>426.67828842436</ele>
        <time>2014-05-31T12:24:49Z</time>
      </trkpt>
      <trkpt lat="45.27489" lon="5.12814">
        <ele>426.67828842436</ele>
        <time>2014-05-31T12:24:54Z</time>
      </trkpt>
      <trkpt lat="45.27491" lon="5.12825">
        <ele>427.86711773286</ele>
        <time>2014-05-31T12:24:59Z</time>
      </trkpt>
      <trkpt lat="45.27493" lon="5.12835">
        <ele>427.86711773286</ele>
        <time>2014-05-31T12:25:04Z</time>
      </trkpt>
      <trkpt lat="45.27495" lon="5.12843">
        <ele>429.29297179288</ele>
        <time>2014-05-31T12:25:09Z</time>
      </trkpt>
      <trkpt lat="45.27495" lon="5.12853">
        <ele>429.29297179288</ele>
        <time>2014-05-31T12:25:14Z</time>
      </trkpt>
      <trkpt lat="45.27496" lon="5.12863">
        <ele>430.34375931877</ele>
        <time>2014-05-31T12:25:19Z</time>
      </trkpt>
      <trkpt lat="45.27497" lon="5.12873">
        <ele>430.34375931877</ele>
        <time>2014-05-31T12:25:24Z</time>
      </trkpt>
      <trkpt lat="45.27495" lon="5.12882">
        <ele>431.34691250948</ele>
        <time>2014-05-31T12:25:29Z</time>
      </trkpt>
      <trkpt lat="45.27493" lon="5.12889">
        <ele>431.34691250948</ele>
        <time>2014-05-31T12:25:34Z</time>
      </trkpt>
      <trkpt lat="45.27494" lon="5.12887">
        <ele>431.34691250948</ele>
        <time>2014-05-31T12:25:39Z</time>
      </trkpt>
      <trkpt lat="45.27494" lon="5.12886">
        <ele>431.34691250948</ele>
        <time>2014-05-31T12:25:44Z</time>
      </trkpt>
      <trkpt lat="45.27493" lon="5.12887">
        <ele>432.37539233887</ele>
        <time>2014-05-31T12:25:49Z</time>
      </trkpt>
      <trkpt lat="45.2749" lon="5.12896">
        <ele>432.37539233887</ele>
        <time>2014-05-31T12:25:54Z</time>
      </trkpt>
      <trkpt lat="45.27485" lon="5.12904">
        <ele>433.45352840276</ele>
        <time>2014-05-31T12:25:59Z</time>
      </trkpt>
      <trkpt lat="45.2748" lon="5.12911">
        <ele>433.45352840276</ele>
        <time>2014-05-31T12:26:04Z</time>
      </trkpt>
      <trkpt lat="45.27477" lon="5.1292">
        <ele>434.47406190499</ele>
        <time>2014-05-31T12:26:09Z</time>
      </trkpt>
      <trkpt lat="45.27478" lon="5.12919">
        <ele>434.47406190499</ele>
        <time>2014-05-31T12:26:14Z</time>
      </trkpt>
      <trkpt lat="45.27483" lon="5.12911">
        <ele>434.47406190499</ele>
        <time>2014-05-31T12:26:19Z</time>
      </trkpt>
      <trkpt lat="45.27487" lon="5.12902">
        <ele>435.62604054777</ele>
        <time>2014-05-31T12:26:24Z</time>
      </trkpt>
      <trkpt lat="45.27491" lon="5.12894">
        <ele>435.62604054777</ele>
        <time>2014-05-31T12:26:29Z</time>
      </trkpt>
      <trkpt lat="45.27493" lon="5.12893">
        <ele>435.62604054777</ele>
        <time>2014-05-31T12:26:34Z</time>
      </trkpt>
      <trkpt lat="45.27493" lon="5.12894">
        <ele>436.46462567379</ele>
        <time>2014-05-31T12:26:39Z</time>
      </trkpt>
      <trkpt lat="45.27493" lon="5.12894">
        <ele>436.46462567379</ele>
        <time>2014-05-31T12:26:44Z</time>
      </trkpt>
      <trkpt lat="45.27493" lon="5.12893">
        <ele>436.46462567379</ele>
        <time>2014-05-31T12:26:49Z</time>
      </trkpt>
      <trkpt lat="45.27493" lon="5.12893">
        <ele>436.46462567379</ele>
        <time>2014-05-31T12:26:54Z</time>
      </trkpt>
      <trkpt lat="45.27493" lon="5.12893">
        <ele>436.46462567379</ele>
        <time>2014-05-31T12:26:59Z</time>
      </trkpt>
      <trkpt lat="45.27493" lon="5.12893">
        <ele>436.46462567379</ele>
        <time>2014-05-31T12:27:04Z</time>
      </trkpt>
      <trkpt lat="45.27493" lon="5.12893">
        <ele>436.46462567379</ele>
        <time>2014-05-31T12:27:09Z</time>
      </trkpt>
      <trkpt lat="45.27493" lon="5.12893">
        <ele>436.46462567379</ele>
        <time>2014-05-31T12:27:14Z</time>
      </trkpt>
      <trkpt lat="45.27493" lon="5.12893">
        <ele>436.46462567379</ele>
        <time>2014-05-31T12:27:19Z</time>
      </trkpt>
      <trkpt lat="45.27493" lon="5.12893">
        <ele>436.46462567379</ele>
        <time>2014-05-31T12:27:24Z</time>
      </trkpt>
      <trkpt lat="45.27493" lon="5.12893">
        <ele>436.46462567379</ele>
        <time>2014-05-31T12:27:29Z</time>
      </trkpt>
      <trkpt lat="45.27493" lon="5.12893">
        <ele>436.46462567379</ele>
        <time>2014-05-31T12:27:34Z</time>
      </trkpt>
      <trkpt lat="45.27493" lon="5.12893">
        <ele>436.46462567379</ele>
        <time>2014-05-31T12:27:39Z</time>
      </trkpt>
      <trkpt lat="45.27493" lon="5.12893">
        <ele>436.46462567379</ele>
        <time>2014-05-31T12:27:44Z</time>
      </trkpt>
      <trkpt lat="45.27493" lon="5.12893">
        <ele>436.46462567379</ele>
        <time>2014-05-31T12:27:49Z</time>
      </trkpt>
      <trkpt lat="45.27493" lon="5.12893">
        <ele>436.46462567379</ele>
        <time>2014-05-31T12:27:54Z</time>
      </trkpt>
      <trkpt lat="45.27493" lon="5.12893">
        <ele>436.46462567379</ele>
        <time>2014-05-31T12:27:59Z</time>
      </trkpt>
      <trkpt lat="45.27493" lon="5.12893">
        <ele>436.46462567379</ele>
        <time>2014-05-31T12:28:04Z</time>
      </trkpt>
      <trkpt lat="45.27493" lon="5.12893">
        <ele>436.46462567379</ele>
        <time>2014-05-31T12:28:09Z</time>
      </trkpt>
      <trkpt lat="45.27495" lon="5.12896">
        <ele>436.46462567379</ele>
        <time>2014-05-31T12:28:14Z</time>
      </trkpt>
      <trkpt lat="45.27495" lon="5.12896">
        <ele>436.46462567379</ele>
        <time>2014-05-31T12:28:19Z</time>
      </trkpt>
      <trkpt lat="45.27495" lon="5.12897">
        <ele>436.46462567379</ele>
        <time>2014-05-31T12:28:24Z</time>
      </trkpt>
      <trkpt lat="45.27496" lon="5.12897">
        <ele>436.46462567379</ele>
        <time>2014-05-31T12:28:29Z</time>
      </trkpt>
      <trkpt lat="45.27496" lon="5.12897">
        <ele>436.46462567379</ele>
        <time>2014-05-31T12:28:34Z</time>
      </trkpt>
      <trkpt lat="45.27496" lon="5.12897">
        <ele>436.46462567379</ele>
        <time>2014-05-31T12:28:39Z</time>
      </trkpt>
      <trkpt lat="45.27496" lon="5.12897">
        <ele>436.46462567379</ele>
        <time>2014-05-31T12:28:44Z</time>
      </trkpt>
      <trkpt lat="45.27496" lon="5.12897">
        <ele>436.46462567379</ele>
        <time>2014-05-31T12:28:49Z</time>
      </trkpt>
      <trkpt lat="45.27496" lon="5.12897">
        <ele>436.46462567379</ele>
        <time>2014-05-31T12:28:54Z</time>
      </trkpt>
      <trkpt lat="45.27496" lon="5.12898">
        <ele>436.46462567379</ele>
        <time>2014-05-31T12:28:59Z</time>
      </trkpt>
      <trkpt lat="45.27502" lon="5.12897">
        <ele>437.22708687712</ele>
        <time>2014-05-31T12:29:04Z</time>
      </trkpt>
      <trkpt lat="45.2751" lon="5.129">
        <ele>437.22708687712</ele>
        <time>2014-05-31T12:29:09Z</time>
      </trkpt>
      <trkpt lat="45.27518" lon="5.12902">
        <ele>438.04706480752</ele>
        <time>2014-05-31T12:29:14Z</time>
      </trkpt>
      <trkpt lat="45.27526" lon="5.12905">
        <ele>438.04706480752</ele>
        <time>2014-05-31T12:29:19Z</time>
      </trkpt>
      <trkpt lat="45.27534" lon="5.12908">
        <ele>438.63035444202</ele>
        <time>2014-05-31T12:29:24Z</time>
      </trkpt>
      <trkpt lat="45.27542" lon="5.1291">
        <ele>438.63035444202</ele>
        <time>2014-05-31T12:29:29Z</time>
      </trkpt>
      <trkpt lat="45.27549" lon="5.12911">
        <ele>438.92124862172</ele>
        <time>2014-05-31T12:29:34Z</time>
      </trkpt>
      <trkpt lat="45.27556" lon="5.12912">
        <ele>438.92124862172</ele>
        <time>2014-05-31T12:29:39Z</time>
      </trkpt>
      <trkpt lat="45.27564" lon="5.12913">
        <ele>438.95547268084</ele>
        <time>2014-05-31T12:29:44Z</time>
      </trkpt>
      <trkpt lat="45.27571" lon="5.12914">
        <ele>438.95547268084</ele>
        <time>2014-05-31T12:29:49Z</time>
      </trkpt>
      <trkpt lat="45.27579" lon="5.12917">
        <ele>438.57955266404</ele>
        <time>2014-05-31T12:29:54Z</time>
      </trkpt>
      <trkpt lat="45.27586" lon="5.12917">
        <ele>438.57955266404</ele>
        <time>2014-05-31T12:29:59Z</time>
      </trkpt>
      <trkpt lat="45.27594" lon="5.12919">
        <ele>437.71012684563</ele>
        <time>2014-05-31T12:30:04Z</time>
      </trkpt>
      <trkpt lat="45.27602" lon="5.12922">
        <ele>437.71012684563</ele>
        <time>2014-05-31T12:30:09Z</time>
      </trkpt>
      <trkpt lat="45.27609" lon="5.12925">
        <ele>436.61724260129</ele>
        <time>2014-05-31T12:30:14Z</time>
      </trkpt>
      <trkpt lat="45.27617" lon="5.12928">
        <ele>436.61724260129</ele>
        <time>2014-05-31T12:30:19Z</time>
      </trkpt>
      <trkpt lat="45.27624" lon="5.1293">
        <ele>435.32118178405</ele>
        <time>2014-05-31T12:30:24Z</time>
      </trkpt>
      <trkpt lat="45.27624" lon="5.12929">
        <ele>435.32118178405</ele>
        <time>2014-05-31T12:30:29Z</time>
      </trkpt>
      <trkpt lat="45.27624" lon="5.12928">
        <ele>435.32118178405</ele>
        <time>2014-05-31T12:30:34Z</time>
      </trkpt>
      <trkpt lat="45.27624" lon="5.12928">
        <ele>435.32118178405</ele>
        <time>2014-05-31T12:30:39Z</time>
      </trkpt>
      <trkpt lat="45.27624" lon="5.12928">
        <ele>435.32118178405</ele>
        <time>2014-05-31T12:30:44Z</time>
      </trkpt>
      <trkpt lat="45.27625" lon="5.12928">
        <ele>435.32118178405</ele>
        <time>2014-05-31T12:30:49Z</time>
      </trkpt>
      <trkpt lat="45.27625" lon="5.12929">
        <ele>435.32118178405</ele>
        <time>2014-05-31T12:30:54Z</time>
      </trkpt>
      <trkpt lat="45.27625" lon="5.12928">
        <ele>435.32118178405</ele>
        <time>2014-05-31T12:30:59Z</time>
      </trkpt>
      <trkpt lat="45.27623" lon="5.12928">
        <ele>435.32118178405</ele>
        <time>2014-05-31T12:31:04Z</time>
      </trkpt>
      <trkpt lat="45.27617" lon="5.12926">
        <ele>434.41776200962</ele>
        <time>2014-05-31T12:31:09Z</time>
      </trkpt>
      <trkpt lat="45.27608" lon="5.12923">
        <ele>433.69414105166</ele>
        <time>2014-05-31T12:31:14Z</time>
      </trkpt>
      <trkpt lat="45.27598" lon="5.1292">
        <ele>433.13994104591</ele>
        <time>2014-05-31T12:31:19Z</time>
      </trkpt>
      <trkpt lat="45.27589" lon="5.12918">
        <ele>432.68740754654</ele>
        <time>2014-05-31T12:31:24Z</time>
      </trkpt>
      <trkpt lat="45.27582" lon="5.12916">
        <ele>432.68740754654</ele>
        <time>2014-05-31T12:31:29Z</time>
      </trkpt>
      <trkpt lat="45.27574" lon="5.12915">
        <ele>432.40315315297</ele>
        <time>2014-05-31T12:31:34Z</time>
      </trkpt>
      <trkpt lat="45.27566" lon="5.12914">
        <ele>432.40315315297</ele>
        <time>2014-05-31T12:31:39Z</time>
      </trkpt>
      <trkpt lat="45.27559" lon="5.12911">
        <ele>432.47809646695</ele>
        <time>2014-05-31T12:31:44Z</time>
      </trkpt>
      <trkpt lat="45.27561" lon="5.1291">
        <ele>432.47809646695</ele>
        <time>2014-05-31T12:31:49Z</time>
      </trkpt>
      <trkpt lat="45.27556" lon="5.12911">
        <ele>432.47809646695</ele>
        <time>2014-05-31T12:31:54Z</time>
      </trkpt>
      <trkpt lat="45.27547" lon="5.12909">
        <ele>432.7998710853</ele>
        <time>2014-05-31T12:31:59Z</time>
      </trkpt>
      <trkpt lat="45.27538" lon="5.12908">
        <ele>432.7998710853</ele>
        <time>2014-05-31T12:32:04Z</time>
      </trkpt>
      <trkpt lat="45.27531" lon="5.12906">
        <ele>433.35010955048</ele>
        <time>2014-05-31T12:32:09Z</time>
      </trkpt>
      <trkpt lat="45.27523" lon="5.12904">
        <ele>433.35010955048</ele>
        <time>2014-05-31T12:32:14Z</time>
      </trkpt>
      <trkpt lat="45.27515" lon="5.12902">
        <ele>434.01024780871</ele>
        <time>2014-05-31T12:32:19Z</time>
      </trkpt>
      <trkpt lat="45.27507" lon="5.129">
        <ele>434.01024780871</ele>
        <time>2014-05-31T12:32:24Z</time>
      </trkpt>
      <trkpt lat="45.275" lon="5.12895">
        <ele>434.84303375721</ele>
        <time>2014-05-31T12:32:29Z</time>
      </trkpt>
      <trkpt lat="45.27494" lon="5.12892">
        <ele>434.84303375721</ele>
        <time>2014-05-31T12:32:34Z</time>
      </trkpt>
      <trkpt lat="45.27489" lon="5.12887">
        <ele>435.7187596339</ele>
        <time>2014-05-31T12:32:39Z</time>
      </trkpt>
      <trkpt lat="45.27484" lon="5.12882">
        <ele>435.7187596339</ele>
        <time>2014-05-31T12:32:44Z</time>
      </trkpt>
      <trkpt lat="45.27477" lon="5.12876">
        <ele>436.89180361648</ele>
        <time>2014-05-31T12:32:49Z</time>
      </trkpt>
      <trkpt lat="45.2747" lon="5.12873">
        <ele>436.89180361648</ele>
        <time>2014-05-31T12:32:54Z</time>
      </trkpt>
      <trkpt lat="45.27463" lon="5.12872">
        <ele>438.09263044126</ele>
        <time>2014-05-31T12:32:59Z</time>
      </trkpt>
      <trkpt lat="45.27456" lon="5.12869">
        <ele>438.09263044126</ele>
        <time>2014-05-31T12:33:04Z</time>
      </trkpt>
      <trkpt lat="45.27449" lon="5.12863">
        <ele>439.56140892676</ele>
        <time>2014-05-31T12:33:09Z</time>
      </trkpt>
      <trkpt lat="45.27443" lon="5.12856">
        <ele>439.56140892676</ele>
        <time>2014-05-31T12:33:14Z</time>
      </trkpt>
      <trkpt lat="45.27438" lon="5.12849">
        <ele>441.18847071534</ele>
        <time>2014-05-31T12:33:19Z</time>
      </trkpt>
      <trkpt lat="45.27432" lon="5.12842">
        <ele>441.18847071534</ele>
        <time>2014-05-31T12:33:24Z</time>
      </trkpt>
      <trkpt lat="45.27426" lon="5.12836">
        <ele>442.98707089125</ele>
        <time>2014-05-31T12:33:29Z</time>
      </trkpt>
      <trkpt lat="45.2742" lon="5.12831">
        <ele>442.98707089125</ele>
        <time>2014-05-31T12:33:34Z</time>
      </trkpt>
      <trkpt lat="45.27414" lon="5.12826">
        <ele>444.89698644025</ele>
        <time>2014-05-31T12:33:39Z</time>
      </trkpt>
      <trkpt lat="45.27406" lon="5.12822">
        <ele>444.89698644025</ele>
        <time>2014-05-31T12:33:44Z</time>
      </trkpt>
      <trkpt lat="45.274" lon="5.12822">
        <ele>446.89097117557</ele>
        <time>2014-05-31T12:33:49Z</time>
      </trkpt>
      <trkpt lat="45.27393" lon="5.12825">
        <ele>446.89097117557</ele>
        <time>2014-05-31T12:33:54Z</time>
      </trkpt>
      <trkpt lat="45.27389" lon="5.12826">
        <ele>448.91477577414</ele>
        <time>2014-05-31T12:33:59Z</time>
      </trkpt>
      <trkpt lat="45.27384" lon="5.1283">
        <ele>448.91477577414</ele>
        <time>2014-05-31T12:34:04Z</time>
      </trkpt>
      <trkpt lat="45.27378" lon="5.12835">
        <ele>451.16310543424</ele>
        <time>2014-05-31T12:34:09Z</time>
      </trkpt>
      <trkpt lat="45.27372" lon="5.1284">
        <ele>451.16310543424</ele>
        <time>2014-05-31T12:34:14Z</time>
      </trkpt>
      <trkpt lat="45.27367" lon="5.12846">
        <ele>453.57081822703</ele>
        <time>2014-05-31T12:34:19Z</time>
      </trkpt>
      <trkpt lat="45.27361" lon="5.12852">
        <ele>453.57081822703</ele>
        <time>2014-05-31T12:34:24Z</time>
      </trkpt>
      <trkpt lat="45.27355" lon="5.12857">
        <ele>455.93308418671</ele>
        <time>2014-05-31T12:34:29Z</time>
      </trkpt>
      <trkpt lat="45.27349" lon="5.12862">
        <ele>455.93308418671</ele>
        <time>2014-05-31T12:34:34Z</time>
      </trkpt>
      <trkpt lat="45.27344" lon="5.12868">
        <ele>458.33415379589</ele>
        <time>2014-05-31T12:34:39Z</time>
      </trkpt>
      <trkpt lat="45.27337" lon="5.12873">
        <ele>458.33415379589</ele>
        <time>2014-05-31T12:34:44Z</time>
      </trkpt>
      <trkpt lat="45.27331" lon="5.12879">
        <ele>460.67915086157</ele>
        <time>2014-05-31T12:34:49Z</time>
      </trkpt>
      <trkpt lat="45.27325" lon="5.12884">
        <ele>460.67915086157</ele>
        <time>2014-05-31T12:34:54Z</time>
      </trkpt>
      <trkpt lat="45.27319" lon="5.12889">
        <ele>462.93808353551</ele>
        <time>2014-05-31T12:34:59Z</time>
      </trkpt>
      <trkpt lat="45.27313" lon="5.12894">
        <ele>462.93808353551</ele>
        <time>2014-05-31T12:35:04Z</time>
      </trkpt>
      <trkpt lat="45.27307" lon="5.12898">
        <ele>465.14116924308</ele>
        <time>2014-05-31T12:35:09Z</time>
      </trkpt>
      <trkpt lat="45.27301" lon="5.12902">
        <ele>465.14116924308</ele>
        <time>2014-05-31T12:35:14Z</time>
      </trkpt>
      <trkpt lat="45.27294" lon="5.12907">
        <ele>467.37433296692</ele>
        <time>2014-05-31T12:35:19Z</time>
      </trkpt>
      <trkpt lat="45.27288" lon="5.1291">
        <ele>467.37433296692</ele>
        <time>2014-05-31T12:35:24Z</time>
      </trkpt>
      <trkpt lat="45.27281" lon="5.12914">
        <ele>469.58753423588</ele>
        <time>2014-05-31T12:35:29Z</time>
      </trkpt>
      <trkpt lat="45.27274" lon="5.12917">
        <ele>469.58753423588</ele>
        <time>2014-05-31T12:35:34Z</time>
      </trkpt>
      <trkpt lat="45.27267" lon="5.12921">
        <ele>471.72018807844</ele>
        <time>2014-05-31T12:35:39Z</time>
      </trkpt>
      <trkpt lat="45.2726" lon="5.12925">
        <ele>471.72018807844</ele>
        <time>2014-05-31T12:35:44Z</time>
      </trkpt>
      <trkpt lat="45.27254" lon="5.12928">
        <ele>473.58682302333</ele>
        <time>2014-05-31T12:35:49Z</time>
      </trkpt>
      <trkpt lat="45.27247" lon="5.12932">
        <ele>473.58682302333</ele>
        <time>2014-05-31T12:35:54Z</time>
      </trkpt>
      <trkpt lat="45.27241" lon="5.12936">
        <ele>475.17499860393</ele>
        <time>2014-05-31T12:35:59Z</time>
      </trkpt>
      <trkpt lat="45.27235" lon="5.12939">
        <ele>475.17499860393</ele>
        <time>2014-05-31T12:36:04Z</time>
      </trkpt>
      <trkpt lat="45.27229" lon="5.12941">
        <ele>476.40205020232</ele>
        <time>2014-05-31T12:36:09Z</time>
      </trkpt>
      <trkpt lat="45.27223" lon="5.12944">
        <ele>476.40205020232</ele>
        <time>2014-05-31T12:36:14Z</time>
      </trkpt>
      <trkpt lat="45.27217" lon="5.12946">
        <ele>477.40869808933</ele>
        <time>2014-05-31T12:36:19Z</time>
      </trkpt>
      <trkpt lat="45.2721" lon="5.12949">
        <ele>477.40869808933</ele>
        <time>2014-05-31T12:36:24Z</time>
      </trkpt>
      <trkpt lat="45.27204" lon="5.12954">
        <ele>478.21078101957</ele>
        <time>2014-05-31T12:36:29Z</time>
      </trkpt>
      <trkpt lat="45.27197" lon="5.12958">
        <ele>478.21078101957</ele>
        <time>2014-05-31T12:36:34Z</time>
      </trkpt>
      <trkpt lat="45.2719" lon="5.12962">
        <ele>478.93895528955</ele>
        <time>2014-05-31T12:36:39Z</time>
      </trkpt>
      <trkpt lat="45.27184" lon="5.12967">
        <ele>478.93895528955</ele>
        <time>2014-05-31T12:36:44Z</time>
      </trkpt>
      <trkpt lat="45.27177" lon="5.1297">
        <ele>479.57048422247</ele>
        <time>2014-05-31T12:36:49Z</time>
      </trkpt>
      <trkpt lat="45.2717" lon="5.12973">
        <ele>479.57048422247</ele>
        <time>2014-05-31T12:36:54Z</time>
      </trkpt>
      <trkpt lat="45.27164" lon="5.12977">
        <ele>480.12790444264</ele>
        <time>2014-05-31T12:36:59Z</time>
      </trkpt>
      <trkpt lat="45.27157" lon="5.12982">
        <ele>480.12790444264</ele>
        <time>2014-05-31T12:37:04Z</time>
      </trkpt>
      <trkpt lat="45.2715" lon="5.12985">
        <ele>480.63239303338</ele>
        <time>2014-05-31T12:37:09Z</time>
      </trkpt>
      <trkpt lat="45.27142" lon="5.12989">
        <ele>480.63239303338</ele>
        <time>2014-05-31T12:37:14Z</time>
      </trkpt>
      <trkpt lat="45.27135" lon="5.12992">
        <ele>481.13261972498</ele>
        <time>2014-05-31T12:37:19Z</time>
      </trkpt>
      <trkpt lat="45.27129" lon="5.12996">
        <ele>481.13261972498</ele>
        <time>2014-05-31T12:37:24Z</time>
      </trkpt>
      <trkpt lat="45.27121" lon="5.13">
        <ele>481.57288027836</ele>
        <time>2014-05-31T12:37:29Z</time>
      </trkpt>
      <trkpt lat="45.27114" lon="5.13002">
        <ele>481.57288027836</ele>
        <time>2014-05-31T12:37:34Z</time>
      </trkpt>
      <trkpt lat="45.27108" lon="5.13005">
        <ele>481.95943204973</ele>
        <time>2014-05-31T12:37:39Z</time>
      </trkpt>
      <trkpt lat="45.271" lon="5.13009">
        <ele>481.95943204973</ele>
        <time>2014-05-31T12:37:44Z</time>
      </trkpt>
      <trkpt lat="45.27094" lon="5.13012">
        <ele>482.1973923298</ele>
        <time>2014-05-31T12:37:49Z</time>
      </trkpt>
      <trkpt lat="45.27087" lon="5.13015">
        <ele>482.1973923298</ele>
        <time>2014-05-31T12:37:54Z</time>
      </trkpt>
      <trkpt lat="45.27081" lon="5.13018">
        <ele>482.3145907839</ele>
        <time>2014-05-31T12:37:59Z</time>
      </trkpt>
      <trkpt lat="45.27074" lon="5.13022">
        <ele>482.3145907839</ele>
        <time>2014-05-31T12:38:04Z</time>
      </trkpt>
      <trkpt lat="45.27067" lon="5.13026">
        <ele>482.39482230738</ele>
        <time>2014-05-31T12:38:09Z</time>
      </trkpt>
      <trkpt lat="45.2706" lon="5.13029">
        <ele>482.39482230738</ele>
        <time>2014-05-31T12:38:14Z</time>
      </trkpt>
      <trkpt lat="45.27053" lon="5.13032">
        <ele>482.37173477482</ele>
        <time>2014-05-31T12:38:19Z</time>
      </trkpt>
      <trkpt lat="45.27047" lon="5.13035">
        <ele>482.37173477482</ele>
        <time>2014-05-31T12:38:24Z</time>
      </trkpt>
      <trkpt lat="45.27039" lon="5.13038">
        <ele>482.34266803882</ele>
        <time>2014-05-31T12:38:29Z</time>
      </trkpt>
      <trkpt lat="45.27032" lon="5.13042">
        <ele>482.34266803882</ele>
        <time>2014-05-31T12:38:34Z</time>
      </trkpt>
      <trkpt lat="45.27026" lon="5.13045">
        <ele>482.21047917743</ele>
        <time>2014-05-31T12:38:39Z</time>
      </trkpt>
      <trkpt lat="45.27019" lon="5.13049">
        <ele>482.21047917743</ele>
        <time>2014-05-31T12:38:44Z</time>
      </trkpt>
      <trkpt lat="45.27012" lon="5.13053">
        <ele>482.07278083519</ele>
        <time>2014-05-31T12:38:49Z</time>
      </trkpt>
      <trkpt lat="45.27005" lon="5.13058">
        <ele>482.07278083519</ele>
        <time>2014-05-31T12:38:54Z</time>
      </trkpt>
      <trkpt lat="45.26999" lon="5.13063">
        <ele>482.10647386463</ele>
        <time>2014-05-31T12:38:59Z</time>
      </trkpt>
      <trkpt lat="45.26992" lon="5.13067">
        <ele>482.10647386463</ele>
        <time>2014-05-31T12:39:04Z</time>
      </trkpt>
      <trkpt lat="45.26986" lon="5.13072">
        <ele>482.25878504642</ele>
        <time>2014-05-31T12:39:09Z</time>
      </trkpt>
      <trkpt lat="45.26979" lon="5.13076">
        <ele>482.25878504642</ele>
        <time>2014-05-31T12:39:14Z</time>
      </trkpt>
      <trkpt lat="45.26973" lon="5.13081">
        <ele>482.52368011977</ele>
        <time>2014-05-31T12:39:19Z</time>
      </trkpt>
      <trkpt lat="45.26967" lon="5.13086">
        <ele>482.52368011977</ele>
        <time>2014-05-31T12:39:24Z</time>
      </trkpt>
      <trkpt lat="45.26961" lon="5.1309">
        <ele>482.83756409284</ele>
        <time>2014-05-31T12:39:29Z</time>
      </trkpt>
      <trkpt lat="45.26955" lon="5.13094">
        <ele>482.83756409284</ele>
        <time>2014-05-31T12:39:34Z</time>
      </trkpt>
      <trkpt lat="45.26949" lon="5.13098">
        <ele>483.24220638889</ele>
        <time>2014-05-31T12:39:39Z</time>
      </trkpt>
      <trkpt lat="45.26945" lon="5.13102">
        <ele>483.24220638889</ele>
        <time>2014-05-31T12:39:44Z</time>
      </trkpt>
      <trkpt lat="45.26941" lon="5.13104">
        <ele>483.24220638889</ele>
        <time>2014-05-31T12:39:49Z</time>
      </trkpt>
      <trkpt lat="45.26935" lon="5.1311">
        <ele>483.51660265371</ele>
        <time>2014-05-31T12:39:54Z</time>
      </trkpt>
      <trkpt lat="45.26935" lon="5.13121">
        <ele>483.51660265371</ele>
        <time>2014-05-31T12:39:59Z</time>
      </trkpt>
      <trkpt lat="45.26936" lon="5.13132">
        <ele>483.513939589</ele>
        <time>2014-05-31T12:40:04Z</time>
      </trkpt>
      <trkpt lat="45.26936" lon="5.13142">
        <ele>483.513939589</ele>
        <time>2014-05-31T12:40:09Z</time>
      </trkpt>
      <trkpt lat="45.26937" lon="5.13152">
        <ele>483.40154263829</ele>
        <time>2014-05-31T12:40:14Z</time>
      </trkpt>
      <trkpt lat="45.26937" lon="5.13162">
        <ele>483.40154263829</ele>
        <time>2014-05-31T12:40:19Z</time>
      </trkpt>
      <trkpt lat="45.26937" lon="5.13172">
        <ele>483.16175950721</ele>
        <time>2014-05-31T12:40:24Z</time>
      </trkpt>
      <trkpt lat="45.26937" lon="5.13182">
        <ele>483.16175950721</ele>
        <time>2014-05-31T12:40:29Z</time>
      </trkpt>
      <trkpt lat="45.26937" lon="5.13192">
        <ele>482.6920598997</ele>
        <time>2014-05-31T12:40:34Z</time>
      </trkpt>
      <trkpt lat="45.26937" lon="5.13202">
        <ele>482.6920598997</ele>
        <time>2014-05-31T12:40:39Z</time>
      </trkpt>
      <trkpt lat="45.26938" lon="5.13213">
        <ele>482.20065290755</ele>
        <time>2014-05-31T12:40:44Z</time>
      </trkpt>
      <trkpt lat="45.26939" lon="5.13223">
        <ele>482.20065290755</ele>
        <time>2014-05-31T12:40:49Z</time>
      </trkpt>
      <trkpt lat="45.2694" lon="5.13233">
        <ele>481.96690413888</ele>
        <time>2014-05-31T12:40:54Z</time>
      </trkpt>
      <trkpt lat="45.26941" lon="5.13243">
        <ele>481.96690413888</ele>
        <time>2014-05-31T12:40:59Z</time>
      </trkpt>
      <trkpt lat="45.26941" lon="5.13253">
        <ele>481.75887528135</ele>
        <time>2014-05-31T12:41:04Z</time>
      </trkpt>
      <trkpt lat="45.26942" lon="5.13265">
        <ele>481.75887528135</ele>
        <time>2014-05-31T12:41:09Z</time>
      </trkpt>
      <trkpt lat="45.26942" lon="5.1328">
        <ele>481.46238635193</ele>
        <time>2014-05-31T12:41:14Z</time>
      </trkpt>
      <trkpt lat="45.26942" lon="5.13319">
        <ele>481.2456158152</ele>
        <time>2014-05-31T12:41:19Z</time>
      </trkpt>
      <trkpt lat="45.26942" lon="5.13357">
        <ele>481.10555124189</ele>
        <time>2014-05-31T12:41:24Z</time>
      </trkpt>
      <trkpt lat="45.26944" lon="5.13386">
        <ele>480.93821616024</ele>
        <time>2014-05-31T12:41:29Z</time>
      </trkpt>
      <trkpt lat="45.26948" lon="5.13431">
        <ele>480.73372186847</ele>
        <time>2014-05-31T12:41:34Z</time>
      </trkpt>
      <trkpt lat="45.26952" lon="5.13468">
        <ele>480.42527157365</ele>
        <time>2014-05-31T12:41:39Z</time>
      </trkpt>
      <trkpt lat="45.26957" lon="5.13502">
        <ele>480.02322747597</ele>
        <time>2014-05-31T12:41:44Z</time>
      </trkpt>
      <trkpt lat="45.26963" lon="5.13545">
        <ele>479.62382387841</ele>
        <time>2014-05-31T12:41:49Z</time>
      </trkpt>
      <trkpt lat="45.2697" lon="5.13592">
        <ele>479.4890552944</ele>
        <time>2014-05-31T12:41:54Z</time>
      </trkpt>
      <trkpt lat="45.26973" lon="5.13612">
        <ele>479.6302538931</ele>
        <time>2014-05-31T12:41:59Z</time>
      </trkpt>
      <trkpt lat="45.26975" lon="5.13623">
        <ele>479.6302538931</ele>
        <time>2014-05-31T12:42:04Z</time>
      </trkpt>
      <trkpt lat="45.26976" lon="5.13633">
        <ele>479.95617297834</ele>
        <time>2014-05-31T12:42:09Z</time>
      </trkpt>
      <trkpt lat="45.26977" lon="5.13645">
        <ele>479.95617297834</ele>
        <time>2014-05-31T12:42:14Z</time>
      </trkpt>
      <trkpt lat="45.26978" lon="5.13653">
        <ele>480.36724840626</ele>
        <time>2014-05-31T12:42:19Z</time>
      </trkpt>
      <trkpt lat="45.2698" lon="5.13665">
        <ele>480.36724840626</ele>
        <time>2014-05-31T12:42:24Z</time>
      </trkpt>
      <trkpt lat="45.26981" lon="5.13675">
        <ele>480.81413819967</ele>
        <time>2014-05-31T12:42:29Z</time>
      </trkpt>
      <trkpt lat="45.26981" lon="5.13685">
        <ele>480.81413819967</ele>
        <time>2014-05-31T12:42:34Z</time>
      </trkpt>
      <trkpt lat="45.26982" lon="5.13695">
        <ele>481.30858857922</ele>
        <time>2014-05-31T12:42:39Z</time>
      </trkpt>
      <trkpt lat="45.26983" lon="5.13706">
        <ele>481.30858857922</ele>
        <time>2014-05-31T12:42:44Z</time>
      </trkpt>
      <trkpt lat="45.26983" lon="5.13716">
        <ele>481.83245300679</ele>
        <time>2014-05-31T12:42:49Z</time>
      </trkpt>
      <trkpt lat="45.26983" lon="5.13726">
        <ele>481.83245300679</ele>
        <time>2014-05-31T12:42:54Z</time>
      </trkpt>
      <trkpt lat="45.26984" lon="5.13736">
        <ele>482.39758980909</ele>
        <time>2014-05-31T12:42:59Z</time>
      </trkpt>
      <trkpt lat="45.26984" lon="5.13746">
        <ele>482.39758980909</ele>
        <time>2014-05-31T12:43:04Z</time>
      </trkpt>
      <trkpt lat="45.26984" lon="5.13754">
        <ele>482.89951982245</ele>
        <time>2014-05-31T12:43:09Z</time>
      </trkpt>
      <trkpt lat="45.26983" lon="5.13767">
        <ele>482.89951982245</ele>
        <time>2014-05-31T12:43:14Z</time>
      </trkpt>
      <trkpt lat="45.26981" lon="5.13777">
        <ele>483.52978311374</ele>
        <time>2014-05-31T12:43:19Z</time>
      </trkpt>
      <trkpt lat="45.2698" lon="5.13788">
        <ele>483.52978311374</ele>
        <time>2014-05-31T12:43:24Z</time>
      </trkpt>
      <trkpt lat="45.26977" lon="5.13799">
        <ele>484.42220715774</ele>
        <time>2014-05-31T12:43:29Z</time>
      </trkpt>
      <trkpt lat="45.26974" lon="5.13808">
        <ele>484.42220715774</ele>
        <time>2014-05-31T12:43:34Z</time>
      </trkpt>
      <trkpt lat="45.26971" lon="5.13816">
        <ele>485.08033264798</ele>
        <time>2014-05-31T12:43:39Z</time>
      </trkpt>
      <trkpt lat="45.26967" lon="5.13824">
        <ele>485.08033264798</ele>
        <time>2014-05-31T12:43:44Z</time>
      </trkpt>
      <trkpt lat="45.26963" lon="5.13832">
        <ele>485.6932913018</ele>
        <time>2014-05-31T12:43:49Z</time>
      </trkpt>
      <trkpt lat="45.26959" lon="5.1384">
        <ele>485.6932913018</ele>
        <time>2014-05-31T12:43:54Z</time>
      </trkpt>
      <trkpt lat="45.26956" lon="5.13846">
        <ele>486.19142885406</ele>
        <time>2014-05-31T12:43:59Z</time>
      </trkpt>
      <trkpt lat="45.26952" lon="5.13857">
        <ele>486.19142885406</ele>
        <time>2014-05-31T12:44:04Z</time>
      </trkpt>
      <trkpt lat="45.26948" lon="5.13866">
        <ele>486.62579372216</ele>
        <time>2014-05-31T12:44:09Z</time>
      </trkpt>
      <trkpt lat="45.26946" lon="5.13874">
        <ele>486.62579372216</ele>
        <time>2014-05-31T12:44:14Z</time>
      </trkpt>
      <trkpt lat="45.26942" lon="5.1388">
        <ele>486.98619756397</ele>
        <time>2014-05-31T12:44:19Z</time>
      </trkpt>
      <trkpt lat="45.26943" lon="5.1388">
        <ele>486.98619756397</ele>
        <time>2014-05-31T12:44:24Z</time>
      </trkpt>
      <trkpt lat="45.2694" lon="5.13887">
        <ele>486.98619756397</ele>
        <time>2014-05-31T12:44:29Z</time>
      </trkpt>
      <trkpt lat="45.26937" lon="5.13897">
        <ele>487.27780089603</ele>
        <time>2014-05-31T12:44:34Z</time>
      </trkpt>
      <trkpt lat="45.26933" lon="5.13906">
        <ele>487.27780089603</ele>
        <time>2014-05-31T12:44:39Z</time>
      </trkpt>
      <trkpt lat="45.2693" lon="5.13915">
        <ele>487.41909535389</ele>
        <time>2014-05-31T12:44:44Z</time>
      </trkpt>
      <trkpt lat="45.26927" lon="5.13922">
        <ele>487.41909535389</ele>
        <time>2014-05-31T12:44:49Z</time>
      </trkpt>
      <trkpt lat="45.26922" lon="5.13933">
        <ele>487.50790038589</ele>
        <time>2014-05-31T12:44:54Z</time>
      </trkpt>
      <trkpt lat="45.26919" lon="5.13941">
        <ele>487.50790038589</ele>
        <time>2014-05-31T12:44:59Z</time>
      </trkpt>
      <trkpt lat="45.26914" lon="5.13949">
        <ele>487.51969368097</ele>
        <time>2014-05-31T12:45:04Z</time>
      </trkpt>
      <trkpt lat="45.26907" lon="5.13963">
        <ele>487.47518919064</ele>
        <time>2014-05-31T12:45:09Z</time>
      </trkpt>
      <trkpt lat="45.26894" lon="5.13982">
        <ele>487.43695531158</ele>
        <time>2014-05-31T12:45:14Z</time>
      </trkpt>
      <trkpt lat="45.2688" lon="5.13999">
        <ele>487.36205261583</ele>
        <time>2014-05-31T12:45:19Z</time>
      </trkpt>
      <trkpt lat="45.26866" lon="5.14015">
        <ele>487.29724827819</ele>
        <time>2014-05-31T12:45:24Z</time>
      </trkpt>
      <trkpt lat="45.26855" lon="5.14045">
        <ele>487.32906082408</ele>
        <time>2014-05-31T12:45:29Z</time>
      </trkpt>
      <trkpt lat="45.26854" lon="5.14086">
        <ele>487.63824155582</ele>
        <time>2014-05-31T12:45:34Z</time>
      </trkpt>
      <trkpt lat="45.26853" lon="5.14116">
        <ele>488.08883458126</ele>
        <time>2014-05-31T12:45:39Z</time>
      </trkpt>
      <trkpt lat="45.2685" lon="5.14154">
        <ele>488.61210298877</ele>
        <time>2014-05-31T12:45:44Z</time>
      </trkpt>
      <trkpt lat="45.26849" lon="5.14172">
        <ele>489.10090865775</ele>
        <time>2014-05-31T12:45:49Z</time>
      </trkpt>
      <trkpt lat="45.26849" lon="5.14182">
        <ele>489.10090865775</ele>
        <time>2014-05-31T12:45:54Z</time>
      </trkpt>
      <trkpt lat="45.26848" lon="5.14192">
        <ele>489.57135925971</ele>
        <time>2014-05-31T12:45:59Z</time>
      </trkpt>
      <trkpt lat="45.26848" lon="5.14202">
        <ele>489.57135925971</ele>
        <time>2014-05-31T12:46:04Z</time>
      </trkpt>
      <trkpt lat="45.26848" lon="5.14212">
        <ele>489.85107898601</ele>
        <time>2014-05-31T12:46:09Z</time>
      </trkpt>
      <trkpt lat="45.26848" lon="5.14223">
        <ele>489.85107898601</ele>
        <time>2014-05-31T12:46:14Z</time>
      </trkpt>
      <trkpt lat="45.26847" lon="5.14233">
        <ele>490.06910720312</ele>
        <time>2014-05-31T12:46:19Z</time>
      </trkpt>
      <trkpt lat="45.26847" lon="5.14243">
        <ele>490.06910720312</ele>
        <time>2014-05-31T12:46:24Z</time>
      </trkpt>
      <trkpt lat="45.26846" lon="5.14253">
        <ele>490.08577352647</ele>
        <time>2014-05-31T12:46:29Z</time>
      </trkpt>
      <trkpt lat="45.26845" lon="5.14264">
        <ele>490.08577352647</ele>
        <time>2014-05-31T12:46:34Z</time>
      </trkpt>
      <trkpt lat="45.26845" lon="5.14274">
        <ele>490.00280708274</ele>
        <time>2014-05-31T12:46:39Z</time>
      </trkpt>
      <trkpt lat="45.26844" lon="5.14285">
        <ele>490.00280708274</ele>
        <time>2014-05-31T12:46:44Z</time>
      </trkpt>
      <trkpt lat="45.26844" lon="5.14296">
        <ele>490.03002860446</ele>
        <time>2014-05-31T12:46:49Z</time>
      </trkpt>
      <trkpt lat="45.26844" lon="5.14306">
        <ele>490.03002860446</ele>
        <time>2014-05-31T12:46:54Z</time>
      </trkpt>
      <trkpt lat="45.26843" lon="5.14317">
        <ele>490.18859835416</ele>
        <time>2014-05-31T12:46:59Z</time>
      </trkpt>
      <trkpt lat="45.26842" lon="5.14328">
        <ele>490.18859835416</ele>
        <time>2014-05-31T12:47:04Z</time>
      </trkpt>
      <trkpt lat="45.26841" lon="5.14337">
        <ele>490.46892624595</ele>
        <time>2014-05-31T12:47:09Z</time>
      </trkpt>
      <trkpt lat="45.2684" lon="5.14348">
        <ele>490.46892624595</ele>
        <time>2014-05-31T12:47:14Z</time>
      </trkpt>
      <trkpt lat="45.26839" lon="5.14358">
        <ele>490.76090209398</ele>
        <time>2014-05-31T12:47:19Z</time>
      </trkpt>
      <trkpt lat="45.2684" lon="5.14369">
        <ele>490.76090209398</ele>
        <time>2014-05-31T12:47:24Z</time>
      </trkpt>
      <trkpt lat="45.2684" lon="5.14379">
        <ele>490.96246702833</ele>
        <time>2014-05-31T12:47:29Z</time>
      </trkpt>
      <trkpt lat="45.26839" lon="5.14391">
        <ele>490.96246702833</ele>
        <time>2014-05-31T12:47:34Z</time>
      </trkpt>
      <trkpt lat="45.26838" lon="5.14402">
        <ele>491.32517629057</ele>
        <time>2014-05-31T12:47:39Z</time>
      </trkpt>
      <trkpt lat="45.26837" lon="5.14412">
        <ele>491.32517629057</ele>
        <time>2014-05-31T12:47:44Z</time>
      </trkpt>
      <trkpt lat="45.26837" lon="5.14422">
        <ele>491.98077443379</ele>
        <time>2014-05-31T12:47:49Z</time>
      </trkpt>
      <trkpt lat="45.26836" lon="5.14432">
        <ele>491.98077443379</ele>
        <time>2014-05-31T12:47:54Z</time>
      </trkpt>
      <trkpt lat="45.26836" lon="5.14443">
        <ele>492.53170661476</ele>
        <time>2014-05-31T12:47:59Z</time>
      </trkpt>
      <trkpt lat="45.26835" lon="5.14452">
        <ele>492.53170661476</ele>
        <time>2014-05-31T12:48:04Z</time>
      </trkpt>
      <trkpt lat="45.26834" lon="5.14462">
        <ele>492.82608491721</ele>
        <time>2014-05-31T12:48:09Z</time>
      </trkpt>
      <trkpt lat="45.26836" lon="5.14471">
        <ele>492.82608491721</ele>
        <time>2014-05-31T12:48:14Z</time>
      </trkpt>
      <trkpt lat="45.26838" lon="5.14479">
        <ele>492.68066919911</ele>
        <time>2014-05-31T12:48:19Z</time>
      </trkpt>
      <trkpt lat="45.26839" lon="5.14488">
        <ele>492.68066919911</ele>
        <time>2014-05-31T12:48:24Z</time>
      </trkpt>
      <trkpt lat="45.26839" lon="5.14497">
        <ele>492.1142617432</ele>
        <time>2014-05-31T12:48:29Z</time>
      </trkpt>
      <trkpt lat="45.26838" lon="5.14507">
        <ele>492.1142617432</ele>
        <time>2014-05-31T12:48:34Z</time>
      </trkpt>
      <trkpt lat="45.26835" lon="5.14517">
        <ele>491.93807769142</ele>
        <time>2014-05-31T12:48:39Z</time>
      </trkpt>
      <trkpt lat="45.26832" lon="5.14525">
        <ele>491.93807769142</ele>
        <time>2014-05-31T12:48:44Z</time>
      </trkpt>
      <trkpt lat="45.26829" lon="5.14533">
        <ele>491.2597763408</ele>
        <time>2014-05-31T12:48:49Z</time>
      </trkpt>
      <trkpt lat="45.26827" lon="5.14543">
        <ele>491.2597763408</ele>
        <time>2014-05-31T12:48:54Z</time>
      </trkpt>
      <trkpt lat="45.26827" lon="5.14551">
        <ele>490.11863502957</ele>
        <time>2014-05-31T12:48:59Z</time>
      </trkpt>
      <trkpt lat="45.26827" lon="5.14561">
        <ele>490.11863502957</ele>
        <time>2014-05-31T12:49:04Z</time>
      </trkpt>
      <trkpt lat="45.2683" lon="5.14571">
        <ele>488.86937334474</ele>
        <time>2014-05-31T12:49:09Z</time>
      </trkpt>
      <trkpt lat="45.26835" lon="5.1458">
        <ele>488.86937334474</ele>
        <time>2014-05-31T12:49:14Z</time>
      </trkpt>
      <trkpt lat="45.26837" lon="5.1459">
        <ele>488.01386730047</ele>
        <time>2014-05-31T12:49:19Z</time>
      </trkpt>
      <trkpt lat="45.2684" lon="5.14599">
        <ele>488.01386730047</ele>
        <time>2014-05-31T12:49:24Z</time>
      </trkpt>
      <trkpt lat="45.26843" lon="5.14608">
        <ele>487.00721154644</ele>
        <time>2014-05-31T12:49:29Z</time>
      </trkpt>
      <trkpt lat="45.26846" lon="5.14616">
        <ele>487.00721154644</ele>
        <time>2014-05-31T12:49:34Z</time>
      </trkpt>
      <trkpt lat="45.26848" lon="5.14626">
        <ele>486.20958165787</ele>
        <time>2014-05-31T12:49:39Z</time>
      </trkpt>
      <trkpt lat="45.2685" lon="5.14636">
        <ele>486.20958165787</ele>
        <time>2014-05-31T12:49:44Z</time>
      </trkpt>
      <trkpt lat="45.26853" lon="5.14645">
        <ele>485.19027430974</ele>
        <time>2014-05-31T12:49:49Z</time>
      </trkpt>
      <trkpt lat="45.26855" lon="5.14656">
        <ele>485.19027430974</ele>
        <time>2014-05-31T12:49:54Z</time>
      </trkpt>
      <trkpt lat="45.26859" lon="5.14667">
        <ele>484.8766206351</ele>
        <time>2014-05-31T12:49:59Z</time>
      </trkpt>
      <trkpt lat="45.26863" lon="5.14676">
        <ele>484.8766206351</ele>
        <time>2014-05-31T12:50:04Z</time>
      </trkpt>
      <trkpt lat="45.26865" lon="5.14685">
        <ele>484.49734222166</ele>
        <time>2014-05-31T12:50:09Z</time>
      </trkpt>
      <trkpt lat="45.26868" lon="5.14696">
        <ele>484.49734222166</ele>
        <time>2014-05-31T12:50:14Z</time>
      </trkpt>
      <trkpt lat="45.2687" lon="5.14706">
        <ele>484.07291505857</ele>
        <time>2014-05-31T12:50:19Z</time>
      </trkpt>
      <trkpt lat="45.26873" lon="5.14715">
        <ele>484.07291505857</ele>
        <time>2014-05-31T12:50:24Z</time>
      </trkpt>
      <trkpt lat="45.26876" lon="5.14726">
        <ele>483.83854991158</ele>
        <time>2014-05-31T12:50:29Z</time>
      </trkpt>
      <trkpt lat="45.26878" lon="5.14736">
        <ele>483.83854991158</ele>
        <time>2014-05-31T12:50:34Z</time>
      </trkpt>
      <trkpt lat="45.26879" lon="5.14747">
        <ele>483.50720319228</ele>
        <time>2014-05-31T12:50:39Z</time>
      </trkpt>
      <trkpt lat="45.2688" lon="5.14758">
        <ele>483.50720319228</ele>
        <time>2014-05-31T12:50:44Z</time>
      </trkpt>
      <trkpt lat="45.26882" lon="5.14767">
        <ele>482.76990273369</ele>
        <time>2014-05-31T12:50:49Z</time>
      </trkpt>
      <trkpt lat="45.26884" lon="5.14778">
        <ele>482.76990273369</ele>
        <time>2014-05-31T12:50:54Z</time>
      </trkpt>
      <trkpt lat="45.26887" lon="5.1479">
        <ele>483.27255056062</ele>
        <time>2014-05-31T12:50:59Z</time>
      </trkpt>
      <trkpt lat="45.2689" lon="5.14799">
        <ele>483.27255056062</ele>
        <time>2014-05-31T12:51:04Z</time>
      </trkpt>
      <trkpt lat="45.26893" lon="5.14809">
        <ele>483.8417364638</ele>
        <time>2014-05-31T12:51:09Z</time>
      </trkpt>
      <trkpt lat="45.26897" lon="5.14817">
        <ele>483.8417364638</ele>
        <time>2014-05-31T12:51:14Z</time>
      </trkpt>
      <trkpt lat="45.26901" lon="5.14825">
        <ele>484.67260820346</ele>
        <time>2014-05-31T12:51:19Z</time>
      </trkpt>
      <trkpt lat="45.26906" lon="5.14833">
        <ele>484.67260820346</ele>
        <time>2014-05-31T12:51:24Z</time>
      </trkpt>
      <trkpt lat="45.26911" lon="5.1484">
        <ele>485.35435254016</ele>
        <time>2014-05-31T12:51:29Z</time>
      </trkpt>
      <trkpt lat="45.26914" lon="5.14848">
        <ele>485.35435254016</ele>
        <time>2014-05-31T12:51:34Z</time>
      </trkpt>
      <trkpt lat="45.26915" lon="5.14856">
        <ele>484.75734554727</ele>
        <time>2014-05-31T12:51:39Z</time>
      </trkpt>
      <trkpt lat="45.26915" lon="5.14867">
        <ele>484.75734554727</ele>
        <time>2014-05-31T12:51:44Z</time>
      </trkpt>
      <trkpt lat="45.26913" lon="5.14877">
        <ele>483.82724131284</ele>
        <time>2014-05-31T12:51:49Z</time>
      </trkpt>
      <trkpt lat="45.26913" lon="5.1489">
        <ele>483.21055991353</ele>
        <time>2014-05-31T12:51:54Z</time>
      </trkpt>
      <trkpt lat="45.26913" lon="5.14907">
        <ele>482.75604644764</ele>
        <time>2014-05-31T12:51:59Z</time>
      </trkpt>
      <trkpt lat="45.26913" lon="5.14922">
        <ele>482.74099798174</ele>
        <time>2014-05-31T12:52:04Z</time>
      </trkpt>
      <trkpt lat="45.26914" lon="5.14937">
        <ele>483.43549386542</ele>
        <time>2014-05-31T12:52:09Z</time>
      </trkpt>
      <trkpt lat="45.26917" lon="5.1495">
        <ele>484.32397161645</ele>
        <time>2014-05-31T12:52:14Z</time>
      </trkpt>
      <trkpt lat="45.26919" lon="5.14962">
        <ele>484.32397161645</ele>
        <time>2014-05-31T12:52:19Z</time>
      </trkpt>
      <trkpt lat="45.26922" lon="5.14973">
        <ele>485.54786002904</ele>
        <time>2014-05-31T12:52:24Z</time>
      </trkpt>
      <trkpt lat="45.26924" lon="5.14982">
        <ele>485.54786002904</ele>
        <time>2014-05-31T12:52:29Z</time>
      </trkpt>
      <trkpt lat="45.26928" lon="5.1499">
        <ele>486.74727341174</ele>
        <time>2014-05-31T12:52:34Z</time>
      </trkpt>
      <trkpt lat="45.26932" lon="5.15">
        <ele>486.74727341174</ele>
        <time>2014-05-31T12:52:39Z</time>
      </trkpt>
      <trkpt lat="45.26936" lon="5.15009">
        <ele>488.13645865998</ele>
        <time>2014-05-31T12:52:44Z</time>
      </trkpt>
      <trkpt lat="45.26939" lon="5.15019">
        <ele>488.13645865998</ele>
        <time>2014-05-31T12:52:49Z</time>
      </trkpt>
      <trkpt lat="45.26942" lon="5.15029">
        <ele>489.45225161306</ele>
        <time>2014-05-31T12:52:54Z</time>
      </trkpt>
      <trkpt lat="45.26944" lon="5.15039">
        <ele>489.45225161306</ele>
        <time>2014-05-31T12:52:59Z</time>
      </trkpt>
      <trkpt lat="45.26946" lon="5.15049">
        <ele>490.7680967465</ele>
        <time>2014-05-31T12:53:04Z</time>
      </trkpt>
      <trkpt lat="45.26947" lon="5.15058">
        <ele>490.7680967465</ele>
        <time>2014-05-31T12:53:09Z</time>
      </trkpt>
      <trkpt lat="45.26948" lon="5.15068">
        <ele>491.87826802101</ele>
        <time>2014-05-31T12:53:14Z</time>
      </trkpt>
      <trkpt lat="45.2695" lon="5.15077">
        <ele>491.87826802101</ele>
        <time>2014-05-31T12:53:19Z</time>
      </trkpt>
      <trkpt lat="45.26951" lon="5.15084">
        <ele>492.63600638187</ele>
        <time>2014-05-31T12:53:24Z</time>
      </trkpt>
      <trkpt lat="45.26952" lon="5.15094">
        <ele>492.63600638187</ele>
        <time>2014-05-31T12:53:29Z</time>
      </trkpt>
      <trkpt lat="45.26953" lon="5.15105">
        <ele>493.72780702282</ele>
        <time>2014-05-31T12:53:34Z</time>
      </trkpt>
      <trkpt lat="45.26955" lon="5.15115">
        <ele>493.72780702282</ele>
        <time>2014-05-31T12:53:39Z</time>
      </trkpt>
      <trkpt lat="45.26955" lon="5.15125">
        <ele>495.52945625413</ele>
        <time>2014-05-31T12:53:44Z</time>
      </trkpt>
      <trkpt lat="45.26956" lon="5.15136">
        <ele>495.52945625413</ele>
        <time>2014-05-31T12:53:49Z</time>
      </trkpt>
      <trkpt lat="45.26957" lon="5.15147">
        <ele>497.73870913144</ele>
        <time>2014-05-31T12:53:54Z</time>
      </trkpt>
      <trkpt lat="45.26957" lon="5.15156">
        <ele>497.73870913144</ele>
        <time>2014-05-31T12:53:59Z</time>
      </trkpt>
      <trkpt lat="45.26956" lon="5.15166">
        <ele>499.51241996631</ele>
        <time>2014-05-31T12:54:04Z</time>
      </trkpt>
      <trkpt lat="45.26956" lon="5.15176">
        <ele>499.51241996631</ele>
        <time>2014-05-31T12:54:09Z</time>
      </trkpt>
      <trkpt lat="45.26955" lon="5.15183">
        <ele>501.23798518994</ele>
        <time>2014-05-31T12:54:14Z</time>
      </trkpt>
      <trkpt lat="45.26954" lon="5.1519">
        <ele>501.23798518994</ele>
        <time>2014-05-31T12:54:19Z</time>
      </trkpt>
      <trkpt lat="45.26954" lon="5.15199">
        <ele>503.13045956172</ele>
        <time>2014-05-31T12:54:24Z</time>
      </trkpt>
      <trkpt lat="45.26954" lon="5.15209">
        <ele>503.13045956172</ele>
        <time>2014-05-31T12:54:29Z</time>
      </trkpt>
      <trkpt lat="45.26954" lon="5.15219">
        <ele>504.74023171412</ele>
        <time>2014-05-31T12:54:34Z</time>
      </trkpt>
      <trkpt lat="45.26955" lon="5.15229">
        <ele>504.74023171412</ele>
        <time>2014-05-31T12:54:39Z</time>
      </trkpt>
      <trkpt lat="45.26955" lon="5.15238">
        <ele>505.69485006861</ele>
        <time>2014-05-31T12:54:44Z</time>
      </trkpt>
      <trkpt lat="45.26949" lon="5.15238">
        <ele>505.69485006861</ele>
        <time>2014-05-31T12:54:49Z</time>
      </trkpt>
      <trkpt lat="45.26944" lon="5.15234">
        <ele>506.80405895564</ele>
        <time>2014-05-31T12:54:54Z</time>
      </trkpt>
      <trkpt lat="45.26939" lon="5.15231">
        <ele>506.80405895564</ele>
        <time>2014-05-31T12:54:59Z</time>
      </trkpt>
      <trkpt lat="45.26935" lon="5.15227">
        <ele>507.52079446116</ele>
        <time>2014-05-31T12:55:04Z</time>
      </trkpt>
      <trkpt lat="45.2693" lon="5.15222">
        <ele>507.52079446116</ele>
        <time>2014-05-31T12:55:09Z</time>
      </trkpt>
      <trkpt lat="45.26925" lon="5.15217">
        <ele>508.24728868838</ele>
        <time>2014-05-31T12:55:14Z</time>
      </trkpt>
      <trkpt lat="45.26919" lon="5.15212">
        <ele>508.24728868838</ele>
        <time>2014-05-31T12:55:19Z</time>
      </trkpt>
      <trkpt lat="45.26913" lon="5.15202">
        <ele>509.06808095494</ele>
        <time>2014-05-31T12:55:25Z</time>
      </trkpt>
      <trkpt lat="45.26909" lon="5.15197">
        <ele>509.06808095494</ele>
        <time>2014-05-31T12:55:29Z</time>
      </trkpt>
      <trkpt lat="45.26905" lon="5.1519">
        <ele>509.64341415743</ele>
        <time>2014-05-31T12:55:34Z</time>
      </trkpt>
      <trkpt lat="45.269" lon="5.15183">
        <ele>509.64341415743</ele>
        <time>2014-05-31T12:55:39Z</time>
      </trkpt>
      <trkpt lat="45.26895" lon="5.15176">
        <ele>510.46629719626</ele>
        <time>2014-05-31T12:55:44Z</time>
      </trkpt>
      <trkpt lat="45.2689" lon="5.1517">
        <ele>510.46629719626</ele>
        <time>2014-05-31T12:55:49Z</time>
      </trkpt>
      <trkpt lat="45.26885" lon="5.15164">
        <ele>511.69028803397</ele>
        <time>2014-05-31T12:55:54Z</time>
      </trkpt>
      <trkpt lat="45.2688" lon="5.15159">
        <ele>511.69028803397</ele>
        <time>2014-05-31T12:55:59Z</time>
      </trkpt>
      <trkpt lat="45.26877" lon="5.15156">
        <ele>512.93782931985</ele>
        <time>2014-05-31T12:56:04Z</time>
      </trkpt>
      <trkpt lat="45.26871" lon="5.15151">
        <ele>512.93782931985</ele>
        <time>2014-05-31T12:56:09Z</time>
      </trkpt>
      <trkpt lat="45.26867" lon="5.15148">
        <ele>513.91676540116</ele>
        <time>2014-05-31T12:56:14Z</time>
      </trkpt>
      <trkpt lat="45.2686" lon="5.15143">
        <ele>513.91676540116</ele>
        <time>2014-05-31T12:56:19Z</time>
      </trkpt>
      <trkpt lat="45.26853" lon="5.15137">
        <ele>514.63105313127</ele>
        <time>2014-05-31T12:56:24Z</time>
      </trkpt>
      <trkpt lat="45.26847" lon="5.1513">
        <ele>514.63105313127</ele>
        <time>2014-05-31T12:56:29Z</time>
      </trkpt>
      <trkpt lat="45.26843" lon="5.15124">
        <ele>515.87779725142</ele>
        <time>2014-05-31T12:56:34Z</time>
      </trkpt>
      <trkpt lat="45.26838" lon="5.15119">
        <ele>515.87779725142</ele>
        <time>2014-05-31T12:56:39Z</time>
      </trkpt>
      <trkpt lat="45.26833" lon="5.15113">
        <ele>516.54951280725</ele>
        <time>2014-05-31T12:56:44Z</time>
      </trkpt>
      <trkpt lat="45.26829" lon="5.15108">
        <ele>516.54951280725</ele>
        <time>2014-05-31T12:56:49Z</time>
      </trkpt>
      <trkpt lat="45.26824" lon="5.15101">
        <ele>516.44319370175</ele>
        <time>2014-05-31T12:56:54Z</time>
      </trkpt>
      <trkpt lat="45.26818" lon="5.15091">
        <ele>516.44319370175</ele>
        <time>2014-05-31T12:56:59Z</time>
      </trkpt>
      <trkpt lat="45.26813" lon="5.15085">
        <ele>516.35295573945</ele>
        <time>2014-05-31T12:57:04Z</time>
      </trkpt>
      <trkpt lat="45.26807" lon="5.1508">
        <ele>516.35295573945</ele>
        <time>2014-05-31T12:57:09Z</time>
      </trkpt>
      <trkpt lat="45.26801" lon="5.15077">
        <ele>516.7551977476</ele>
        <time>2014-05-31T12:57:14Z</time>
      </trkpt>
      <trkpt lat="45.26795" lon="5.15073">
        <ele>516.7551977476</ele>
        <time>2014-05-31T12:57:19Z</time>
      </trkpt>
      <trkpt lat="45.2679" lon="5.15071">
        <ele>516.73535042402</ele>
        <time>2014-05-31T12:57:24Z</time>
      </trkpt>
      <trkpt lat="45.26783" lon="5.15068">
        <ele>516.73535042402</ele>
        <time>2014-05-31T12:57:29Z</time>
      </trkpt>
      <trkpt lat="45.26776" lon="5.15064">
        <ele>516.74425799423</ele>
        <time>2014-05-31T12:57:34Z</time>
      </trkpt>
      <trkpt lat="45.26769" lon="5.15064">
        <ele>516.74425799423</ele>
        <time>2014-05-31T12:57:39Z</time>
      </trkpt>
      <trkpt lat="45.26762" lon="5.1506">
        <ele>516.63756832601</ele>
        <time>2014-05-31T12:57:44Z</time>
      </trkpt>
      <trkpt lat="45.26755" lon="5.15053">
        <ele>516.63756832601</ele>
        <time>2014-05-31T12:57:49Z</time>
      </trkpt>
      <trkpt lat="45.26749" lon="5.15047">
        <ele>516.62775283801</ele>
        <time>2014-05-31T12:57:54Z</time>
      </trkpt>
      <trkpt lat="45.26744" lon="5.1504">
        <ele>516.62775283801</ele>
        <time>2014-05-31T12:57:59Z</time>
      </trkpt>
      <trkpt lat="45.26738" lon="5.15033">
        <ele>516.68084559711</ele>
        <time>2014-05-31T12:58:04Z</time>
      </trkpt>
      <trkpt lat="45.26733" lon="5.15026">
        <ele>516.68084559711</ele>
        <time>2014-05-31T12:58:09Z</time>
      </trkpt>
      <trkpt lat="45.26727" lon="5.1502">
        <ele>516.73638989184</ele>
        <time>2014-05-31T12:58:14Z</time>
      </trkpt>
      <trkpt lat="45.26721" lon="5.15014">
        <ele>516.73638989184</ele>
        <time>2014-05-31T12:58:19Z</time>
      </trkpt>
      <trkpt lat="45.26717" lon="5.15008">
        <ele>516.69513575713</ele>
        <time>2014-05-31T12:58:24Z</time>
      </trkpt>
      <trkpt lat="45.26712" lon="5.15002">
        <ele>516.69513575713</ele>
        <time>2014-05-31T12:58:29Z</time>
      </trkpt>
      <trkpt lat="45.26707" lon="5.14996">
        <ele>516.71038425079</ele>
        <time>2014-05-31T12:58:34Z</time>
      </trkpt>
      <trkpt lat="45.26701" lon="5.1499">
        <ele>516.71038425079</ele>
        <time>2014-05-31T12:58:39Z</time>
      </trkpt>
      <trkpt lat="45.26696" lon="5.14986">
        <ele>516.99606644975</ele>
        <time>2014-05-31T12:58:44Z</time>
      </trkpt>
      <trkpt lat="45.26692" lon="5.14984">
        <ele>516.99606644975</ele>
        <time>2014-05-31T12:58:49Z</time>
      </trkpt>
      <trkpt lat="45.26693" lon="5.14984">
        <ele>516.99606644975</ele>
        <time>2014-05-31T12:58:54Z</time>
      </trkpt>
      <trkpt lat="45.26694" lon="5.14985">
        <ele>516.99606644975</ele>
        <time>2014-05-31T12:58:59Z</time>
      </trkpt>
      <trkpt lat="45.26694" lon="5.14985">
        <ele>516.99606644975</ele>
        <time>2014-05-31T12:59:04Z</time>
      </trkpt>
      <trkpt lat="45.26693" lon="5.14984">
        <ele>516.99606644975</ele>
        <time>2014-05-31T12:59:09Z</time>
      </trkpt>
      <trkpt lat="45.26693" lon="5.14984">
        <ele>516.99606644975</ele>
        <time>2014-05-31T12:59:14Z</time>
      </trkpt>
      <trkpt lat="45.26693" lon="5.14983">
        <ele>516.99606644975</ele>
        <time>2014-05-31T12:59:19Z</time>
      </trkpt>
      <trkpt lat="45.2669" lon="5.14982">
        <ele>517.12995101257</ele>
        <time>2014-05-31T12:59:24Z</time>
      </trkpt>
      <trkpt lat="45.26683" lon="5.14978">
        <ele>517.12995101257</ele>
        <time>2014-05-31T12:59:29Z</time>
      </trkpt>
      <trkpt lat="45.26676" lon="5.14976">
        <ele>517.18239027017</ele>
        <time>2014-05-31T12:59:34Z</time>
      </trkpt>
      <trkpt lat="45.26669" lon="5.14977">
        <ele>517.18239027017</ele>
        <time>2014-05-31T12:59:39Z</time>
      </trkpt>
      <trkpt lat="45.26662" lon="5.14981">
        <ele>517.20436736226</ele>
        <time>2014-05-31T12:59:44Z</time>
      </trkpt>
      <trkpt lat="45.26656" lon="5.14984">
        <ele>517.20436736226</ele>
        <time>2014-05-31T12:59:49Z</time>
      </trkpt>
      <trkpt lat="45.2665" lon="5.14986">
        <ele>516.95496082583</ele>
        <time>2014-05-31T12:59:54Z</time>
      </trkpt>
      <trkpt lat="45.26643" lon="5.14988">
        <ele>516.95496082583</ele>
        <time>2014-05-31T12:59:59Z</time>
      </trkpt>
      <trkpt lat="45.26636" lon="5.14995">
        <ele>516.24050290698</ele>
        <time>2014-05-31T13:00:04Z</time>
      </trkpt>
      <trkpt lat="45.26631" lon="5.15002">
        <ele>516.24050290698</ele>
        <time>2014-05-31T13:00:09Z</time>
      </trkpt>
      <trkpt lat="45.26629" lon="5.15011">
        <ele>515.02693357192</ele>
        <time>2014-05-31T13:00:14Z</time>
      </trkpt>
      <trkpt lat="45.26627" lon="5.15022">
        <ele>515.02693357192</ele>
        <time>2014-05-31T13:00:19Z</time>
      </trkpt>
      <trkpt lat="45.26626" lon="5.15032">
        <ele>514.39370863245</ele>
        <time>2014-05-31T13:00:24Z</time>
      </trkpt>
      <trkpt lat="45.26627" lon="5.15041">
        <ele>514.39370863245</ele>
        <time>2014-05-31T13:00:29Z</time>
      </trkpt>
      <trkpt lat="45.26626" lon="5.15042">
        <ele>514.39370863245</ele>
        <time>2014-05-31T13:00:34Z</time>
      </trkpt>
      <trkpt lat="45.26626" lon="5.15042">
        <ele>514.39370863245</ele>
        <time>2014-05-31T13:00:39Z</time>
      </trkpt>
      <trkpt lat="45.26627" lon="5.15037">
        <ele>514.15759808804</ele>
        <time>2014-05-31T13:00:44Z</time>
      </trkpt>
      <trkpt lat="45.26626" lon="5.15029">
        <ele>514.15759808804</ele>
        <time>2014-05-31T13:00:49Z</time>
      </trkpt>
      <trkpt lat="45.26624" lon="5.15021">
        <ele>514.04678340372</ele>
        <time>2014-05-31T13:00:54Z</time>
      </trkpt>
      <trkpt lat="45.26623" lon="5.15013">
        <ele>514.04678340372</ele>
        <time>2014-05-31T13:01:00Z</time>
      </trkpt>
      <trkpt lat="45.26625" lon="5.15009">
        <ele>514.04678340372</ele>
        <time>2014-05-31T13:01:04Z</time>
      </trkpt>
      <trkpt lat="45.26625" lon="5.15008">
        <ele>514.27015733264</ele>
        <time>2014-05-31T13:01:09Z</time>
      </trkpt>
      <trkpt lat="45.26625" lon="5.15007">
        <ele>514.27015733264</ele>
        <time>2014-05-31T13:01:14Z</time>
      </trkpt>
      <trkpt lat="45.26627" lon="5.15005">
        <ele>514.27015733264</ele>
        <time>2014-05-31T13:01:19Z</time>
      </trkpt>
      <trkpt lat="45.26627" lon="5.15005">
        <ele>514.27015733264</ele>
        <time>2014-05-31T13:01:24Z</time>
      </trkpt>
      <trkpt lat="45.26627" lon="5.15005">
        <ele>514.27015733264</ele>
        <time>2014-05-31T13:01:29Z</time>
      </trkpt>
      <trkpt lat="45.26627" lon="5.15005">
        <ele>514.27015733264</ele>
        <time>2014-05-31T13:01:34Z</time>
      </trkpt>
      <trkpt lat="45.26627" lon="5.15005">
        <ele>514.27015733264</ele>
        <time>2014-05-31T13:01:39Z</time>
      </trkpt>
      <trkpt lat="45.26627" lon="5.15005">
        <ele>514.27015733264</ele>
        <time>2014-05-31T13:01:44Z</time>
      </trkpt>
      <trkpt lat="45.26636" lon="5.14996">
        <ele>534.61819265799</ele>
        <time>2014-05-31T14:16:35Z</time>
      </trkpt>
      <trkpt lat="45.26649" lon="5.15011">
        <ele>534.61933329047</ele>
        <time>2014-05-31T14:16:40Z</time>
      </trkpt>
      <trkpt lat="45.26631" lon="5.14998">
        <ele>533.20610680396</ele>
        <time>2014-05-31T14:16:45Z</time>
      </trkpt>
      <trkpt lat="45.26637" lon="5.14995">
        <ele>533.20610680396</ele>
        <time>2014-05-31T14:16:50Z</time>
      </trkpt>
      <trkpt lat="45.2664" lon="5.14991">
        <ele>532.56487461085</ele>
        <time>2014-05-31T14:16:55Z</time>
      </trkpt>
      <trkpt lat="45.26646" lon="5.14986">
        <ele>532.56487461085</ele>
        <time>2014-05-31T14:17:00Z</time>
      </trkpt>
      <trkpt lat="45.26652" lon="5.1498">
        <ele>532.71185273271</ele>
        <time>2014-05-31T14:17:05Z</time>
      </trkpt>
      <trkpt lat="45.26656" lon="5.14976">
        <ele>532.71185273271</ele>
        <time>2014-05-31T14:17:10Z</time>
      </trkpt>
      <trkpt lat="45.26659" lon="5.14972">
        <ele>533.2673733969</ele>
        <time>2014-05-31T14:17:15Z</time>
      </trkpt>
      <trkpt lat="45.26661" lon="5.1497">
        <ele>533.2673733969</ele>
        <time>2014-05-31T14:17:20Z</time>
      </trkpt>
      <trkpt lat="45.26666" lon="5.14972">
        <ele>533.2673733969</ele>
        <time>2014-05-31T14:17:25Z</time>
      </trkpt>
      <trkpt lat="45.26666" lon="5.14975">
        <ele>533.7850898843</ele>
        <time>2014-05-31T14:17:30Z</time>
      </trkpt>
      <trkpt lat="45.26662" lon="5.14977">
        <ele>533.7850898843</ele>
        <time>2014-05-31T14:17:35Z</time>
      </trkpt>
      <trkpt lat="45.26664" lon="5.14976">
        <ele>533.7850898843</ele>
        <time>2014-05-31T14:17:40Z</time>
      </trkpt>
      <trkpt lat="45.26667" lon="5.14979">
        <ele>534.24433228177</ele>
        <time>2014-05-31T14:17:45Z</time>
      </trkpt>
      <trkpt lat="45.26666" lon="5.1498">
        <ele>534.24433228177</ele>
        <time>2014-05-31T14:17:50Z</time>
      </trkpt>
      <trkpt lat="45.26666" lon="5.14978">
        <ele>534.24433228177</ele>
        <time>2014-05-31T14:17:55Z</time>
      </trkpt>
      <trkpt lat="45.26666" lon="5.14978">
        <ele>534.24433228177</ele>
        <time>2014-05-31T14:18:00Z</time>
      </trkpt>
      <trkpt lat="45.26667" lon="5.14978">
        <ele>534.24433228177</ele>
        <time>2014-05-31T14:18:05Z</time>
      </trkpt>
      <trkpt lat="45.26667" lon="5.14978">
        <ele>534.24433228177</ele>
        <time>2014-05-31T14:18:10Z</time>
      </trkpt>
      <trkpt lat="45.26667" lon="5.1498">
        <ele>534.24433228177</ele>
        <time>2014-05-31T14:18:15Z</time>
      </trkpt>
      <trkpt lat="45.26667" lon="5.14978">
        <ele>534.24433228177</ele>
        <time>2014-05-31T14:18:20Z</time>
      </trkpt>
      <trkpt lat="45.26667" lon="5.14978">
        <ele>534.24433228177</ele>
        <time>2014-05-31T14:18:25Z</time>
      </trkpt>
      <trkpt lat="45.26667" lon="5.14978">
        <ele>534.24433228177</ele>
        <time>2014-05-31T14:18:30Z</time>
      </trkpt>
      <trkpt lat="45.26668" lon="5.14977">
        <ele>534.24433228177</ele>
        <time>2014-05-31T14:18:35Z</time>
      </trkpt>
      <trkpt lat="45.26667" lon="5.14978">
        <ele>534.24433228177</ele>
        <time>2014-05-31T14:18:40Z</time>
      </trkpt>
      <trkpt lat="45.2667" lon="5.14977">
        <ele>534.09432032592</ele>
        <time>2014-05-31T14:18:45Z</time>
      </trkpt>
      <trkpt lat="45.26676" lon="5.14977">
        <ele>534.09432032592</ele>
        <time>2014-05-31T14:18:50Z</time>
      </trkpt>
      <trkpt lat="45.26682" lon="5.1498">
        <ele>533.569247759</ele>
        <time>2014-05-31T14:18:55Z</time>
      </trkpt>
      <trkpt lat="45.26686" lon="5.14986">
        <ele>533.569247759</ele>
        <time>2014-05-31T14:19:00Z</time>
      </trkpt>
      <trkpt lat="45.26687" lon="5.14992">
        <ele>533.07997128461</ele>
        <time>2014-05-31T14:19:05Z</time>
      </trkpt>
      <trkpt lat="45.26687" lon="5.14993">
        <ele>533.07997128461</ele>
        <time>2014-05-31T14:19:10Z</time>
      </trkpt>
      <trkpt lat="45.26687" lon="5.1499">
        <ele>533.07997128461</ele>
        <time>2014-05-31T14:19:15Z</time>
      </trkpt>
      <trkpt lat="45.26688" lon="5.1499">
        <ele>533.07997128461</ele>
        <time>2014-05-31T14:19:20Z</time>
      </trkpt>
      <trkpt lat="45.26688" lon="5.14988">
        <ele>533.07997128461</ele>
        <time>2014-05-31T14:19:25Z</time>
      </trkpt>
      <trkpt lat="45.26689" lon="5.14988">
        <ele>533.07997128461</ele>
        <time>2014-05-31T14:19:30Z</time>
      </trkpt>
      <trkpt lat="45.26688" lon="5.1499">
        <ele>533.07997128461</ele>
        <time>2014-05-31T14:19:35Z</time>
      </trkpt>
      <trkpt lat="45.26688" lon="5.14993">
        <ele>533.07997128461</ele>
        <time>2014-05-31T14:19:40Z</time>
      </trkpt>
      <trkpt lat="45.2669" lon="5.14994">
        <ele>532.76683154055</ele>
        <time>2014-05-31T14:19:45Z</time>
      </trkpt>
      <trkpt lat="45.26695" lon="5.14996">
        <ele>532.76683154055</ele>
        <time>2014-05-31T14:19:50Z</time>
      </trkpt>
      <trkpt lat="45.267" lon="5.15001">
        <ele>531.9739434157</ele>
        <time>2014-05-31T14:19:55Z</time>
      </trkpt>
      <trkpt lat="45.26705" lon="5.15008">
        <ele>531.9739434157</ele>
        <time>2014-05-31T14:20:00Z</time>
      </trkpt>
      <trkpt lat="45.2671" lon="5.15015">
        <ele>531.41081425373</ele>
        <time>2014-05-31T14:20:05Z</time>
      </trkpt>
      <trkpt lat="45.26716" lon="5.1502">
        <ele>531.41081425373</ele>
        <time>2014-05-31T14:20:10Z</time>
      </trkpt>
      <trkpt lat="45.26721" lon="5.15025">
        <ele>530.87451307982</ele>
        <time>2014-05-31T14:20:15Z</time>
      </trkpt>
      <trkpt lat="45.26726" lon="5.15031">
        <ele>530.87451307982</ele>
        <time>2014-05-31T14:20:20Z</time>
      </trkpt>
      <trkpt lat="45.26731" lon="5.15037">
        <ele>529.97955487383</ele>
        <time>2014-05-31T14:20:25Z</time>
      </trkpt>
      <trkpt lat="45.26734" lon="5.15042">
        <ele>529.97955487383</ele>
        <time>2014-05-31T14:20:30Z</time>
      </trkpt>
      <trkpt lat="45.26738" lon="5.15049">
        <ele>529.28014362801</ele>
        <time>2014-05-31T14:20:35Z</time>
      </trkpt>
      <trkpt lat="45.26742" lon="5.15056">
        <ele>529.28014362801</ele>
        <time>2014-05-31T14:20:40Z</time>
      </trkpt>
      <trkpt lat="45.26746" lon="5.15063">
        <ele>528.79260772077</ele>
        <time>2014-05-31T14:20:45Z</time>
      </trkpt>
      <trkpt lat="45.26751" lon="5.15069">
        <ele>528.79260772077</ele>
        <time>2014-05-31T14:20:50Z</time>
      </trkpt>
      <trkpt lat="45.26757" lon="5.15074">
        <ele>528.15832927142</ele>
        <time>2014-05-31T14:20:55Z</time>
      </trkpt>
      <trkpt lat="45.26763" lon="5.15074">
        <ele>528.15832927142</ele>
        <time>2014-05-31T14:21:00Z</time>
      </trkpt>
      <trkpt lat="45.26766" lon="5.15073">
        <ele>527.37497196678</ele>
        <time>2014-05-31T14:21:05Z</time>
      </trkpt>
      <trkpt lat="45.2677" lon="5.15072">
        <ele>527.37497196678</ele>
        <time>2014-05-31T14:21:10Z</time>
      </trkpt>
      <trkpt lat="45.26772" lon="5.15073">
        <ele>527.37497196678</ele>
        <time>2014-05-31T14:21:15Z</time>
      </trkpt>
      <trkpt lat="45.26773" lon="5.15073">
        <ele>527.37497196678</ele>
        <time>2014-05-31T14:21:20Z</time>
      </trkpt>
      <trkpt lat="45.26773" lon="5.15074">
        <ele>527.37497196678</ele>
        <time>2014-05-31T14:21:25Z</time>
      </trkpt>
      <trkpt lat="45.26775" lon="5.15075">
        <ele>525.52715269951</ele>
        <time>2014-05-31T14:21:30Z</time>
      </trkpt>
      <trkpt lat="45.26777" lon="5.15075">
        <ele>525.52715269951</ele>
        <time>2014-05-31T14:21:35Z</time>
      </trkpt>
      <trkpt lat="45.26785" lon="5.15075">
        <ele>523.64566725756</ele>
        <time>2014-05-31T14:21:40Z</time>
      </trkpt>
      <trkpt lat="45.26794" lon="5.15077">
        <ele>522.28173303595</ele>
        <time>2014-05-31T14:21:45Z</time>
      </trkpt>
      <trkpt lat="45.26799" lon="5.15082">
        <ele>522.28173303595</ele>
        <time>2014-05-31T14:21:50Z</time>
      </trkpt>
      <trkpt lat="45.26805" lon="5.15088">
        <ele>521.42604294685</ele>
        <time>2014-05-31T14:21:55Z</time>
      </trkpt>
      <trkpt lat="45.26807" lon="5.15089">
        <ele>521.42604294685</ele>
        <time>2014-05-31T14:22:00Z</time>
      </trkpt>
      <trkpt lat="45.26808" lon="5.15088">
        <ele>521.42604294685</ele>
        <time>2014-05-31T14:22:05Z</time>
      </trkpt>
      <trkpt lat="45.26807" lon="5.15082">
        <ele>521.42604294685</ele>
        <time>2014-05-31T14:22:10Z</time>
      </trkpt>
      <trkpt lat="45.26804" lon="5.15079">
        <ele>520.51493608101</ele>
        <time>2014-05-31T14:22:15Z</time>
      </trkpt>
      <trkpt lat="45.26801" lon="5.15078">
        <ele>520.51493608101</ele>
        <time>2014-05-31T14:22:20Z</time>
      </trkpt>
      <trkpt lat="45.26797" lon="5.15079">
        <ele>520.51493608101</ele>
        <time>2014-05-31T14:22:25Z</time>
      </trkpt>
      <trkpt lat="45.26791" lon="5.15079">
        <ele>520.49059270301</ele>
        <time>2014-05-31T14:22:30Z</time>
      </trkpt>
      <trkpt lat="45.26785" lon="5.15076">
        <ele>520.49059270301</ele>
        <time>2014-05-31T14:22:35Z</time>
      </trkpt>
      <trkpt lat="45.26778" lon="5.15072">
        <ele>520.36543655799</ele>
        <time>2014-05-31T14:22:40Z</time>
      </trkpt>
      <trkpt lat="45.2677" lon="5.15071">
        <ele>520.36543655799</ele>
        <time>2014-05-31T14:22:45Z</time>
      </trkpt>
      <trkpt lat="45.26765" lon="5.15078">
        <ele>519.79552739536</ele>
        <time>2014-05-31T14:22:50Z</time>
      </trkpt>
      <trkpt lat="45.26766" lon="5.15086">
        <ele>519.79552739536</ele>
        <time>2014-05-31T14:22:55Z</time>
      </trkpt>
      <trkpt lat="45.26767" lon="5.15093">
        <ele>518.97495329563</ele>
        <time>2014-05-31T14:23:00Z</time>
      </trkpt>
      <trkpt lat="45.26766" lon="5.15099">
        <ele>518.97495329563</ele>
        <time>2014-05-31T14:23:05Z</time>
      </trkpt>
      <trkpt lat="45.26766" lon="5.15105">
        <ele>518.97495329563</ele>
        <time>2014-05-31T14:23:10Z</time>
      </trkpt>
      <trkpt lat="45.26765" lon="5.15109">
        <ele>517.95231282849</ele>
        <time>2014-05-31T14:23:15Z</time>
      </trkpt>
      <trkpt lat="45.26762" lon="5.15113">
        <ele>517.95231282849</ele>
        <time>2014-05-31T14:23:20Z</time>
      </trkpt>
      <trkpt lat="45.2676" lon="5.15114">
        <ele>517.95231282849</ele>
        <time>2014-05-31T14:23:25Z</time>
      </trkpt>
      <trkpt lat="45.26757" lon="5.15117">
        <ele>517.45192810232</ele>
        <time>2014-05-31T14:23:30Z</time>
      </trkpt>
      <trkpt lat="45.26754" lon="5.15118">
        <ele>517.45192810232</ele>
        <time>2014-05-31T14:23:35Z</time>
      </trkpt>
      <trkpt lat="45.26754" lon="5.15117">
        <ele>517.45192810232</ele>
        <time>2014-05-31T14:23:40Z</time>
      </trkpt>
      <trkpt lat="45.26753" lon="5.15117">
        <ele>517.45192810232</ele>
        <time>2014-05-31T14:23:45Z</time>
      </trkpt>
      <trkpt lat="45.26752" lon="5.15117">
        <ele>517.45192810232</ele>
        <time>2014-05-31T14:23:50Z</time>
      </trkpt>
      <trkpt lat="45.2675" lon="5.1512">
        <ele>517.45192810232</ele>
        <time>2014-05-31T14:23:55Z</time>
      </trkpt>
      <trkpt lat="45.26745" lon="5.1512">
        <ele>517.40493385367</ele>
        <time>2014-05-31T14:24:00Z</time>
      </trkpt>
      <trkpt lat="45.2674" lon="5.1512">
        <ele>517.40493385367</ele>
        <time>2014-05-31T14:24:05Z</time>
      </trkpt>
      <trkpt lat="45.26737" lon="5.1512">
        <ele>517.40493385367</ele>
        <time>2014-05-31T14:24:10Z</time>
      </trkpt>
      <trkpt lat="45.26737" lon="5.1512">
        <ele>517.40493385367</ele>
        <time>2014-05-31T14:24:15Z</time>
      </trkpt>
      <trkpt lat="45.26737" lon="5.1512">
        <ele>517.40493385367</ele>
        <time>2014-05-31T14:24:20Z</time>
      </trkpt>
      <trkpt lat="45.26737" lon="5.1512">
        <ele>517.40493385367</ele>
        <time>2014-05-31T14:24:25Z</time>
      </trkpt>
      <trkpt lat="45.26737" lon="5.1512">
        <ele>517.40493385367</ele>
        <time>2014-05-31T14:24:30Z</time>
      </trkpt>
      <trkpt lat="45.26737" lon="5.1512">
        <ele>517.40493385367</ele>
        <time>2014-05-31T14:24:35Z</time>
      </trkpt>
      <trkpt lat="45.26737" lon="5.1512">
        <ele>517.40493385367</ele>
        <time>2014-05-31T14:24:40Z</time>
      </trkpt>
      <trkpt lat="45.26737" lon="5.1512">
        <ele>517.40493385367</ele>
        <time>2014-05-31T14:24:45Z</time>
      </trkpt>
      <trkpt lat="45.26736" lon="5.1512">
        <ele>517.40493385367</ele>
        <time>2014-05-31T14:24:50Z</time>
      </trkpt>
      <trkpt lat="45.26736" lon="5.15118">
        <ele>517.90273747248</ele>
        <time>2014-05-31T14:24:55Z</time>
      </trkpt>
      <trkpt lat="45.26738" lon="5.15118">
        <ele>517.90273747248</ele>
        <time>2014-05-31T14:25:00Z</time>
      </trkpt>
      <trkpt lat="45.26739" lon="5.15119">
        <ele>517.90273747248</ele>
        <time>2014-05-31T14:25:05Z</time>
      </trkpt>
      <trkpt lat="45.26742" lon="5.15118">
        <ele>517.90273747248</ele>
        <time>2014-05-31T14:25:10Z</time>
      </trkpt>
      <trkpt lat="45.26746" lon="5.15117">
        <ele>517.72524073309</ele>
        <time>2014-05-31T14:25:15Z</time>
      </trkpt>
      <trkpt lat="45.26752" lon="5.15116">
        <ele>517.72524073309</ele>
        <time>2014-05-31T14:25:20Z</time>
      </trkpt>
      <trkpt lat="45.26756" lon="5.15114">
        <ele>517.04196631139</ele>
        <time>2014-05-31T14:25:25Z</time>
      </trkpt>
      <trkpt lat="45.26759" lon="5.15111">
        <ele>517.04196631139</ele>
        <time>2014-05-31T14:25:30Z</time>
      </trkpt>
      <trkpt lat="45.2676" lon="5.15109">
        <ele>517.04196631139</ele>
        <time>2014-05-31T14:25:35Z</time>
      </trkpt>
      <trkpt lat="45.26762" lon="5.15102">
        <ele>515.94127238943</ele>
        <time>2014-05-31T14:25:40Z</time>
      </trkpt>
      <trkpt lat="45.26766" lon="5.15098">
        <ele>515.94127238943</ele>
        <time>2014-05-31T14:25:45Z</time>
      </trkpt>
      <trkpt lat="45.26766" lon="5.15093">
        <ele>515.94127238943</ele>
        <time>2014-05-31T14:25:50Z</time>
      </trkpt>
      <trkpt lat="45.26765" lon="5.15086">
        <ele>515.1971601559</ele>
        <time>2014-05-31T14:25:55Z</time>
      </trkpt>
      <trkpt lat="45.26765" lon="5.15077">
        <ele>515.1971601559</ele>
        <time>2014-05-31T14:26:00Z</time>
      </trkpt>
      <trkpt lat="45.26769" lon="5.15071">
        <ele>514.37991773528</ele>
        <time>2014-05-31T14:26:05Z</time>
      </trkpt>
      <trkpt lat="45.26774" lon="5.15072">
        <ele>514.37991773528</ele>
        <time>2014-05-31T14:26:10Z</time>
      </trkpt>
      <trkpt lat="45.26773" lon="5.15072">
        <ele>514.37991773528</ele>
        <time>2014-05-31T14:26:15Z</time>
      </trkpt>
      <trkpt lat="45.26773" lon="5.15071">
        <ele>514.37991773528</ele>
        <time>2014-05-31T14:26:20Z</time>
      </trkpt>
      <trkpt lat="45.26773" lon="5.15071">
        <ele>514.37991773528</ele>
        <time>2014-05-31T14:26:25Z</time>
      </trkpt>
      <trkpt lat="45.26773" lon="5.15071">
        <ele>514.37991773528</ele>
        <time>2014-05-31T14:26:30Z</time>
      </trkpt>
      <trkpt lat="45.26773" lon="5.15071">
        <ele>514.37991773528</ele>
        <time>2014-05-31T14:26:35Z</time>
      </trkpt>
      <trkpt lat="45.26773" lon="5.15071">
        <ele>514.37991773528</ele>
        <time>2014-05-31T14:26:40Z</time>
      </trkpt>
      <trkpt lat="45.26773" lon="5.15071">
        <ele>514.37991773528</ele>
        <time>2014-05-31T14:26:45Z</time>
      </trkpt>
      <trkpt lat="45.26772" lon="5.15071">
        <ele>514.37991773528</ele>
        <time>2014-05-31T14:26:50Z</time>
      </trkpt>
      <trkpt lat="45.26772" lon="5.15071">
        <ele>514.37991773528</ele>
        <time>2014-05-31T14:26:55Z</time>
      </trkpt>
      <trkpt lat="45.26772" lon="5.15071">
        <ele>514.37991773528</ele>
        <time>2014-05-31T14:27:00Z</time>
      </trkpt>
      <trkpt lat="45.26773" lon="5.15072">
        <ele>514.37991773528</ele>
        <time>2014-05-31T14:27:05Z</time>
      </trkpt>
      <trkpt lat="45.26774" lon="5.15072">
        <ele>514.37991773528</ele>
        <time>2014-05-31T14:27:10Z</time>
      </trkpt>
      <trkpt lat="45.26774" lon="5.15071">
        <ele>514.37991773528</ele>
        <time>2014-05-31T14:27:15Z</time>
      </trkpt>
      <trkpt lat="45.26774" lon="5.15071">
        <ele>514.37991773528</ele>
        <time>2014-05-31T14:27:20Z</time>
      </trkpt>
      <trkpt lat="45.26772" lon="5.15069">
        <ele>513.32516484306</ele>
        <time>2014-05-31T14:27:25Z</time>
      </trkpt>
      <trkpt lat="45.26766" lon="5.15068">
        <ele>513.32516484306</ele>
        <time>2014-05-31T14:27:30Z</time>
      </trkpt>
      <trkpt lat="45.26761" lon="5.15065">
        <ele>512.36638429594</ele>
        <time>2014-05-31T14:27:35Z</time>
      </trkpt>
      <trkpt lat="45.26756" lon="5.15059">
        <ele>512.36638429594</ele>
        <time>2014-05-31T14:27:40Z</time>
      </trkpt>
      <trkpt lat="45.26753" lon="5.15053">
        <ele>511.64685427862</ele>
        <time>2014-05-31T14:27:45Z</time>
      </trkpt>
      <trkpt lat="45.26748" lon="5.15047">
        <ele>511.64685427862</ele>
        <time>2014-05-31T14:27:50Z</time>
      </trkpt>
      <trkpt lat="45.26744" lon="5.15041">
        <ele>511.02502882888</ele>
        <time>2014-05-31T14:27:55Z</time>
      </trkpt>
      <trkpt lat="45.26739" lon="5.15036">
        <ele>511.02502882888</ele>
        <time>2014-05-31T14:28:00Z</time>
      </trkpt>
      <trkpt lat="45.26734" lon="5.15032">
        <ele>510.73268149511</ele>
        <time>2014-05-31T14:28:05Z</time>
      </trkpt>
      <trkpt lat="45.26729" lon="5.15027">
        <ele>510.73268149511</ele>
        <time>2014-05-31T14:28:10Z</time>
      </trkpt>
      <trkpt lat="45.26724" lon="5.15021">
        <ele>510.47130344283</ele>
        <time>2014-05-31T14:28:15Z</time>
      </trkpt>
      <trkpt lat="45.26721" lon="5.15015">
        <ele>510.47130344283</ele>
        <time>2014-05-31T14:28:20Z</time>
      </trkpt>
      <trkpt lat="45.26717" lon="5.1501">
        <ele>510.26973091895</ele>
        <time>2014-05-31T14:28:25Z</time>
      </trkpt>
      <trkpt lat="45.26713" lon="5.15005">
        <ele>510.26973091895</ele>
        <time>2014-05-31T14:28:30Z</time>
      </trkpt>
      <trkpt lat="45.26709" lon="5.15">
        <ele>510.229187363</ele>
        <time>2014-05-31T14:28:35Z</time>
      </trkpt>
      <trkpt lat="45.26705" lon="5.14994">
        <ele>510.229187363</ele>
        <time>2014-05-31T14:28:40Z</time>
      </trkpt>
      <trkpt lat="45.26702" lon="5.14989">
        <ele>509.89035040101</ele>
        <time>2014-05-31T14:28:45Z</time>
      </trkpt>
      <trkpt lat="45.26698" lon="5.14984">
        <ele>509.89035040101</ele>
        <time>2014-05-31T14:28:50Z</time>
      </trkpt>
      <trkpt lat="45.26693" lon="5.14979">
        <ele>509.55952812657</ele>
        <time>2014-05-31T14:28:55Z</time>
      </trkpt>
      <trkpt lat="45.26689" lon="5.14975">
        <ele>509.55952812657</ele>
        <time>2014-05-31T14:29:00Z</time>
      </trkpt>
      <trkpt lat="45.26686" lon="5.14971">
        <ele>508.96646154054</ele>
        <time>2014-05-31T14:29:05Z</time>
      </trkpt>
      <trkpt lat="45.26681" lon="5.1497">
        <ele>508.96646154054</ele>
        <time>2014-05-31T14:29:10Z</time>
      </trkpt>
      <trkpt lat="45.26678" lon="5.14966">
        <ele>508.96646154054</ele>
        <time>2014-05-31T14:29:15Z</time>
      </trkpt>
      <trkpt lat="45.26677" lon="5.1496">
        <ele>508.11687350639</ele>
        <time>2014-05-31T14:29:20Z</time>
      </trkpt>
      <trkpt lat="45.26674" lon="5.14955">
        <ele>508.11687350639</ele>
        <time>2014-05-31T14:29:25Z</time>
      </trkpt>
      <trkpt lat="45.26672" lon="5.14949">
        <ele>508.11687350639</ele>
        <time>2014-05-31T14:29:30Z</time>
      </trkpt>
      <trkpt lat="45.2667" lon="5.14942">
        <ele>507.37965037675</ele>
        <time>2014-05-31T14:29:35Z</time>
      </trkpt>
      <trkpt lat="45.26667" lon="5.14935">
        <ele>507.37965037675</ele>
        <time>2014-05-31T14:29:40Z</time>
      </trkpt>
      <trkpt lat="45.26663" lon="5.14929">
        <ele>507.51885678667</ele>
        <time>2014-05-31T14:29:45Z</time>
      </trkpt>
      <trkpt lat="45.2666" lon="5.14922">
        <ele>507.51885678667</ele>
        <time>2014-05-31T14:29:50Z</time>
      </trkpt>
      <trkpt lat="45.26659" lon="5.14915">
        <ele>507.77217151889</ele>
        <time>2014-05-31T14:29:55Z</time>
      </trkpt>
      <trkpt lat="45.26656" lon="5.14908">
        <ele>507.77217151889</ele>
        <time>2014-05-31T14:30:00Z</time>
      </trkpt>
      <trkpt lat="45.26652" lon="5.14901">
        <ele>508.29509321227</ele>
        <time>2014-05-31T14:30:05Z</time>
      </trkpt>
      <trkpt lat="45.26649" lon="5.14895">
        <ele>508.29509321227</ele>
        <time>2014-05-31T14:30:10Z</time>
      </trkpt>
      <trkpt lat="45.26646" lon="5.14889">
        <ele>508.55138376319</ele>
        <time>2014-05-31T14:30:15Z</time>
      </trkpt>
      <trkpt lat="45.26643" lon="5.14883">
        <ele>508.55138376319</ele>
        <time>2014-05-31T14:30:20Z</time>
      </trkpt>
      <trkpt lat="45.26638" lon="5.14877">
        <ele>509.14783857404</ele>
        <time>2014-05-31T14:30:25Z</time>
      </trkpt>
      <trkpt lat="45.26635" lon="5.14874">
        <ele>509.14783857404</ele>
        <time>2014-05-31T14:30:30Z</time>
      </trkpt>
      <trkpt lat="45.26634" lon="5.14872">
        <ele>509.14783857404</ele>
        <time>2014-05-31T14:30:35Z</time>
      </trkpt>
      <trkpt lat="45.26632" lon="5.14871">
        <ele>509.14783857404</ele>
        <time>2014-05-31T14:30:40Z</time>
      </trkpt>
      <trkpt lat="45.26629" lon="5.14868">
        <ele>510.26496261414</ele>
        <time>2014-05-31T14:30:45Z</time>
      </trkpt>
      <trkpt lat="45.26626" lon="5.14864">
        <ele>510.26496261414</ele>
        <time>2014-05-31T14:30:50Z</time>
      </trkpt>
      <trkpt lat="45.26619" lon="5.14863">
        <ele>511.30156318703</ele>
        <time>2014-05-31T14:30:55Z</time>
      </trkpt>
      <trkpt lat="45.26611" lon="5.14862">
        <ele>511.30156318703</ele>
        <time>2014-05-31T14:31:00Z</time>
      </trkpt>
      <trkpt lat="45.26604" lon="5.14861">
        <ele>512.35031451545</ele>
        <time>2014-05-31T14:31:05Z</time>
      </trkpt>
      <trkpt lat="45.26597" lon="5.14859">
        <ele>512.35031451545</ele>
        <time>2014-05-31T14:31:10Z</time>
      </trkpt>
      <trkpt lat="45.26591" lon="5.14854">
        <ele>513.16782242575</ele>
        <time>2014-05-31T14:31:15Z</time>
      </trkpt>
      <trkpt lat="45.26586" lon="5.14853">
        <ele>513.16782242575</ele>
        <time>2014-05-31T14:31:20Z</time>
      </trkpt>
      <trkpt lat="45.26579" lon="5.14853">
        <ele>514.17248146387</ele>
        <time>2014-05-31T14:31:25Z</time>
      </trkpt>
      <trkpt lat="45.26571" lon="5.14851">
        <ele>514.17248146387</ele>
        <time>2014-05-31T14:31:30Z</time>
      </trkpt>
      <trkpt lat="45.26563" lon="5.14848">
        <ele>515.36073403684</ele>
        <time>2014-05-31T14:31:35Z</time>
      </trkpt>
      <trkpt lat="45.26555" lon="5.14845">
        <ele>515.36073403684</ele>
        <time>2014-05-31T14:31:40Z</time>
      </trkpt>
      <trkpt lat="45.26547" lon="5.14844">
        <ele>516.56588526349</ele>
        <time>2014-05-31T14:31:45Z</time>
      </trkpt>
      <trkpt lat="45.26539" lon="5.14843">
        <ele>516.56588526349</ele>
        <time>2014-05-31T14:31:50Z</time>
      </trkpt>
      <trkpt lat="45.26531" lon="5.14841">
        <ele>518.03445984515</ele>
        <time>2014-05-31T14:31:55Z</time>
      </trkpt>
      <trkpt lat="45.26525" lon="5.14846">
        <ele>518.03445984515</ele>
        <time>2014-05-31T14:32:00Z</time>
      </trkpt>
      <trkpt lat="45.26521" lon="5.14855">
        <ele>518.6792698691</ele>
        <time>2014-05-31T14:32:05Z</time>
      </trkpt>
      <trkpt lat="45.26519" lon="5.14862">
        <ele>518.6792698691</ele>
        <time>2014-05-31T14:32:10Z</time>
      </trkpt>
      <trkpt lat="45.26516" lon="5.14865">
        <ele>519.60989825971</ele>
        <time>2014-05-31T14:32:15Z</time>
      </trkpt>
      <trkpt lat="45.26514" lon="5.1487">
        <ele>519.60989825971</ele>
        <time>2014-05-31T14:32:20Z</time>
      </trkpt>
      <trkpt lat="45.26514" lon="5.14879">
        <ele>520.06694354792</ele>
        <time>2014-05-31T14:32:25Z</time>
      </trkpt>
      <trkpt lat="45.26515" lon="5.14888">
        <ele>520.06694354792</ele>
        <time>2014-05-31T14:32:30Z</time>
      </trkpt>
      <trkpt lat="45.26513" lon="5.14899">
        <ele>520.42414843757</ele>
        <time>2014-05-31T14:32:35Z</time>
      </trkpt>
      <trkpt lat="45.26512" lon="5.14913">
        <ele>520.79094804572</ele>
        <time>2014-05-31T14:32:40Z</time>
      </trkpt>
      <trkpt lat="45.26512" lon="5.14925">
        <ele>520.79094804572</ele>
        <time>2014-05-31T14:32:45Z</time>
      </trkpt>
      <trkpt lat="45.26513" lon="5.14934">
        <ele>520.87393940612</ele>
        <time>2014-05-31T14:32:50Z</time>
      </trkpt>
      <trkpt lat="45.26512" lon="5.14943">
        <ele>520.87393940612</ele>
        <time>2014-05-31T14:32:55Z</time>
      </trkpt>
      <trkpt lat="45.26512" lon="5.14953">
        <ele>521.49649736274</ele>
        <time>2014-05-31T14:33:00Z</time>
      </trkpt>
      <trkpt lat="45.2651" lon="5.14965">
        <ele>521.49649736274</ele>
        <time>2014-05-31T14:33:05Z</time>
      </trkpt>
      <trkpt lat="45.26508" lon="5.14976">
        <ele>522.29504175938</ele>
        <time>2014-05-31T14:33:10Z</time>
      </trkpt>
      <trkpt lat="45.26506" lon="5.14987">
        <ele>522.29504175938</ele>
        <time>2014-05-31T14:33:15Z</time>
      </trkpt>
      <trkpt lat="45.26505" lon="5.14995">
        <ele>522.73131425702</ele>
        <time>2014-05-31T14:33:20Z</time>
      </trkpt>
      <trkpt lat="45.26504" lon="5.15004">
        <ele>522.73131425702</ele>
        <time>2014-05-31T14:33:25Z</time>
      </trkpt>
      <trkpt lat="45.26502" lon="5.15014">
        <ele>523.81875968822</ele>
        <time>2014-05-31T14:33:30Z</time>
      </trkpt>
      <trkpt lat="45.26502" lon="5.15025">
        <ele>523.81875968822</ele>
        <time>2014-05-31T14:33:35Z</time>
      </trkpt>
      <trkpt lat="45.26504" lon="5.15032">
        <ele>524.20101037328</ele>
        <time>2014-05-31T14:33:40Z</time>
      </trkpt>
      <trkpt lat="45.26504" lon="5.15043">
        <ele>524.20101037328</ele>
        <time>2014-05-31T14:33:45Z</time>
      </trkpt>
      <trkpt lat="45.26505" lon="5.15056">
        <ele>524.30769449346</ele>
        <time>2014-05-31T14:33:50Z</time>
      </trkpt>
      <trkpt lat="45.26507" lon="5.15067">
        <ele>524.30769449346</ele>
        <time>2014-05-31T14:33:55Z</time>
      </trkpt>
      <trkpt lat="45.26505" lon="5.15074">
        <ele>524.23221496865</ele>
        <time>2014-05-31T14:34:00Z</time>
      </trkpt>
      <trkpt lat="45.26504" lon="5.1508">
        <ele>524.23221496865</ele>
        <time>2014-05-31T14:34:05Z</time>
      </trkpt>
      <trkpt lat="45.26505" lon="5.15089">
        <ele>523.13639359219</ele>
        <time>2014-05-31T14:34:10Z</time>
      </trkpt>
      <trkpt lat="45.26503" lon="5.15098">
        <ele>523.13639359219</ele>
        <time>2014-05-31T14:34:15Z</time>
      </trkpt>
      <trkpt lat="45.26502" lon="5.15113">
        <ele>522.55912795005</ele>
        <time>2014-05-31T14:34:20Z</time>
      </trkpt>
      <trkpt lat="45.26501" lon="5.15128">
        <ele>521.75625585907</ele>
        <time>2014-05-31T14:34:25Z</time>
      </trkpt>
      <trkpt lat="45.26498" lon="5.15133">
        <ele>521.75625585907</ele>
        <time>2014-05-31T14:34:30Z</time>
      </trkpt>
      <trkpt lat="45.26494" lon="5.1514">
        <ele>522.21922600864</ele>
        <time>2014-05-31T14:34:35Z</time>
      </trkpt>
      <trkpt lat="45.26492" lon="5.15147">
        <ele>522.21922600864</ele>
        <time>2014-05-31T14:34:40Z</time>
      </trkpt>
      <trkpt lat="45.26494" lon="5.15154">
        <ele>522.02115075313</ele>
        <time>2014-05-31T14:34:45Z</time>
      </trkpt>
      <trkpt lat="45.26494" lon="5.15162">
        <ele>522.02115075313</ele>
        <time>2014-05-31T14:34:50Z</time>
      </trkpt>
      <trkpt lat="45.26493" lon="5.15174">
        <ele>522.33724699041</ele>
        <time>2014-05-31T14:34:55Z</time>
      </trkpt>
      <trkpt lat="45.26492" lon="5.15182">
        <ele>522.33724699041</ele>
        <time>2014-05-31T14:35:00Z</time>
      </trkpt>
      <trkpt lat="45.2649" lon="5.15189">
        <ele>523.18696728641</ele>
        <time>2014-05-31T14:35:05Z</time>
      </trkpt>
      <trkpt lat="45.26488" lon="5.152">
        <ele>523.18696728641</ele>
        <time>2014-05-31T14:35:11Z</time>
      </trkpt>
      <trkpt lat="45.26486" lon="5.15212">
        <ele>523.92370527163</ele>
        <time>2014-05-31T14:35:15Z</time>
      </trkpt>
      <trkpt lat="45.26484" lon="5.1522">
        <ele>523.92370527163</ele>
        <time>2014-05-31T14:35:20Z</time>
      </trkpt>
      <trkpt lat="45.26482" lon="5.15227">
        <ele>524.26613302597</ele>
        <time>2014-05-31T14:35:25Z</time>
      </trkpt>
      <trkpt lat="45.26481" lon="5.15236">
        <ele>524.26613302597</ele>
        <time>2014-05-31T14:35:30Z</time>
      </trkpt>
      <trkpt lat="45.2648" lon="5.15243">
        <ele>524.63233762886</ele>
        <time>2014-05-31T14:35:35Z</time>
      </trkpt>
      <trkpt lat="45.26478" lon="5.15251">
        <ele>524.63233762886</ele>
        <time>2014-05-31T14:35:40Z</time>
      </trkpt>
      <trkpt lat="45.26476" lon="5.15261">
        <ele>524.78962067744</ele>
        <time>2014-05-31T14:35:45Z</time>
      </trkpt>
      <trkpt lat="45.26472" lon="5.15274">
        <ele>525.57548400134</ele>
        <time>2014-05-31T14:35:50Z</time>
      </trkpt>
      <trkpt lat="45.26471" lon="5.15287">
        <ele>526.32236457473</ele>
        <time>2014-05-31T14:35:55Z</time>
      </trkpt>
      <trkpt lat="45.26471" lon="5.15298">
        <ele>526.32236457473</ele>
        <time>2014-05-31T14:36:00Z</time>
      </trkpt>
      <trkpt lat="45.26471" lon="5.15309">
        <ele>527.26254159501</ele>
        <time>2014-05-31T14:36:05Z</time>
      </trkpt>
      <trkpt lat="45.26472" lon="5.15318">
        <ele>527.26254159501</ele>
        <time>2014-05-31T14:36:10Z</time>
      </trkpt>
      <trkpt lat="45.26472" lon="5.15329">
        <ele>528.20696938539</ele>
        <time>2014-05-31T14:36:15Z</time>
      </trkpt>
      <trkpt lat="45.26471" lon="5.15338">
        <ele>528.20696938539</ele>
        <time>2014-05-31T14:36:20Z</time>
      </trkpt>
      <trkpt lat="45.26472" lon="5.15347">
        <ele>529.03815281285</ele>
        <time>2014-05-31T14:36:25Z</time>
      </trkpt>
      <trkpt lat="45.26473" lon="5.15358">
        <ele>529.03815281285</ele>
        <time>2014-05-31T14:36:30Z</time>
      </trkpt>
      <trkpt lat="45.26473" lon="5.1537">
        <ele>530.39749113544</ele>
        <time>2014-05-31T14:36:35Z</time>
      </trkpt>
      <trkpt lat="45.26474" lon="5.15379">
        <ele>530.39749113544</ele>
        <time>2014-05-31T14:36:40Z</time>
      </trkpt>
      <trkpt lat="45.26476" lon="5.15387">
        <ele>531.03179254534</ele>
        <time>2014-05-31T14:36:45Z</time>
      </trkpt>
      <trkpt lat="45.26477" lon="5.15396">
        <ele>531.03179254534</ele>
        <time>2014-05-31T14:36:50Z</time>
      </trkpt>
      <trkpt lat="45.26477" lon="5.15406">
        <ele>531.93092915366</ele>
        <time>2014-05-31T14:36:55Z</time>
      </trkpt>
      <trkpt lat="45.26477" lon="5.15416">
        <ele>531.93092915366</ele>
        <time>2014-05-31T14:37:00Z</time>
      </trkpt>
      <trkpt lat="45.26477" lon="5.15425">
        <ele>532.49693783624</ele>
        <time>2014-05-31T14:37:05Z</time>
      </trkpt>
      <trkpt lat="45.26477" lon="5.15436">
        <ele>532.49693783624</ele>
        <time>2014-05-31T14:37:10Z</time>
      </trkpt>
      <trkpt lat="45.26477" lon="5.15444">
        <ele>532.46521150214</ele>
        <time>2014-05-31T14:37:15Z</time>
      </trkpt>
      <trkpt lat="45.26478" lon="5.15454">
        <ele>532.46521150214</ele>
        <time>2014-05-31T14:37:20Z</time>
      </trkpt>
      <trkpt lat="45.26479" lon="5.1546">
        <ele>532.44334630777</ele>
        <time>2014-05-31T14:37:25Z</time>
      </trkpt>
      <trkpt lat="45.26481" lon="5.15467">
        <ele>532.44334630777</ele>
        <time>2014-05-31T14:37:30Z</time>
      </trkpt>
      <trkpt lat="45.26484" lon="5.15476">
        <ele>532.53272074896</ele>
        <time>2014-05-31T14:37:35Z</time>
      </trkpt>
      <trkpt lat="45.26485" lon="5.15486">
        <ele>532.53272074896</ele>
        <time>2014-05-31T14:37:40Z</time>
      </trkpt>
      <trkpt lat="45.26486" lon="5.15494">
        <ele>532.32211562223</ele>
        <time>2014-05-31T14:37:45Z</time>
      </trkpt>
      <trkpt lat="45.26486" lon="5.15504">
        <ele>532.32211562223</ele>
        <time>2014-05-31T14:37:50Z</time>
      </trkpt>
      <trkpt lat="45.26488" lon="5.15514">
        <ele>532.1670528928</ele>
        <time>2014-05-31T14:37:55Z</time>
      </trkpt>
      <trkpt lat="45.26492" lon="5.15525">
        <ele>532.12270133256</ele>
        <time>2014-05-31T14:38:00Z</time>
      </trkpt>
      <trkpt lat="45.26496" lon="5.15536">
        <ele>532.12270133256</ele>
        <time>2014-05-31T14:38:05Z</time>
      </trkpt>
      <trkpt lat="45.26499" lon="5.15546">
        <ele>532.00908604013</ele>
        <time>2014-05-31T14:38:10Z</time>
      </trkpt>
      <trkpt lat="45.26502" lon="5.15554">
        <ele>532.00908604013</ele>
        <time>2014-05-31T14:38:15Z</time>
      </trkpt>
      <trkpt lat="45.26505" lon="5.15562">
        <ele>531.31352692946</ele>
        <time>2014-05-31T14:38:20Z</time>
      </trkpt>
      <trkpt lat="45.26509" lon="5.15569">
        <ele>531.31352692946</ele>
        <time>2014-05-31T14:38:25Z</time>
      </trkpt>
      <trkpt lat="45.26512" lon="5.15577">
        <ele>530.38480942771</ele>
        <time>2014-05-31T14:38:30Z</time>
      </trkpt>
      <trkpt lat="45.26517" lon="5.15584">
        <ele>530.38480942771</ele>
        <time>2014-05-31T14:38:35Z</time>
      </trkpt>
      <trkpt lat="45.26521" lon="5.15591">
        <ele>529.20055274539</ele>
        <time>2014-05-31T14:38:40Z</time>
      </trkpt>
      <trkpt lat="45.26527" lon="5.15597">
        <ele>529.20055274539</ele>
        <time>2014-05-31T14:38:45Z</time>
      </trkpt>
      <trkpt lat="45.26532" lon="5.15603">
        <ele>528.14450828422</ele>
        <time>2014-05-31T14:38:50Z</time>
      </trkpt>
      <trkpt lat="45.26535" lon="5.15606">
        <ele>528.14450828422</ele>
        <time>2014-05-31T14:38:55Z</time>
      </trkpt>
      <trkpt lat="45.26539" lon="5.15604">
        <ele>528.14450828422</ele>
        <time>2014-05-31T14:39:00Z</time>
      </trkpt>
      <trkpt lat="45.26544" lon="5.15605">
        <ele>527.51407866125</ele>
        <time>2014-05-31T14:39:05Z</time>
      </trkpt>
      <trkpt lat="45.26544" lon="5.15605">
        <ele>527.51407866125</ele>
        <time>2014-05-31T14:39:10Z</time>
      </trkpt>
      <trkpt lat="45.26545" lon="5.15606">
        <ele>527.51407866125</ele>
        <time>2014-05-31T14:39:15Z</time>
      </trkpt>
      <trkpt lat="45.26545" lon="5.15605">
        <ele>527.51407866125</ele>
        <time>2014-05-31T14:39:20Z</time>
      </trkpt>
      <trkpt lat="45.26546" lon="5.15605">
        <ele>527.51407866125</ele>
        <time>2014-05-31T14:39:25Z</time>
      </trkpt>
      <trkpt lat="45.26546" lon="5.15605">
        <ele>527.51407866125</ele>
        <time>2014-05-31T14:39:30Z</time>
      </trkpt>
      <trkpt lat="45.26546" lon="5.15605">
        <ele>527.51407866125</ele>
        <time>2014-05-31T14:39:35Z</time>
      </trkpt>
      <trkpt lat="45.26546" lon="5.15605">
        <ele>527.51407866125</ele>
        <time>2014-05-31T14:39:40Z</time>
      </trkpt>
      <trkpt lat="45.26543" lon="5.15605">
        <ele>527.51407866125</ele>
        <time>2014-05-31T14:39:45Z</time>
      </trkpt>
      <trkpt lat="45.26539" lon="5.15604">
        <ele>527.68445396519</ele>
        <time>2014-05-31T14:39:50Z</time>
      </trkpt>
      <trkpt lat="45.26537" lon="5.15608">
        <ele>527.68445396519</ele>
        <time>2014-05-31T14:39:55Z</time>
      </trkpt>
      <trkpt lat="45.26539" lon="5.15615">
        <ele>527.68445396519</ele>
        <time>2014-05-31T14:40:00Z</time>
      </trkpt>
      <trkpt lat="45.26544" lon="5.15621">
        <ele>527.38598142168</ele>
        <time>2014-05-31T14:40:05Z</time>
      </trkpt>
      <trkpt lat="45.26549" lon="5.15626">
        <ele>527.38598142168</ele>
        <time>2014-05-31T14:40:10Z</time>
      </trkpt>
      <trkpt lat="45.26554" lon="5.15633">
        <ele>526.72702621356</ele>
        <time>2014-05-31T14:40:15Z</time>
      </trkpt>
      <trkpt lat="45.26559" lon="5.15639">
        <ele>526.72702621356</ele>
        <time>2014-05-31T14:40:20Z</time>
      </trkpt>
      <trkpt lat="45.26564" lon="5.15646">
        <ele>525.7656770948</ele>
        <time>2014-05-31T14:40:25Z</time>
      </trkpt>
      <trkpt lat="45.26568" lon="5.15654">
        <ele>525.7656770948</ele>
        <time>2014-05-31T14:40:30Z</time>
      </trkpt>
      <trkpt lat="45.26573" lon="5.15662">
        <ele>525.23411883923</ele>
        <time>2014-05-31T14:40:35Z</time>
      </trkpt>
      <trkpt lat="45.26578" lon="5.1567">
        <ele>525.23411883923</ele>
        <time>2014-05-31T14:40:40Z</time>
      </trkpt>
      <trkpt lat="45.26582" lon="5.15678">
        <ele>524.95880598115</ele>
        <time>2014-05-31T14:40:45Z</time>
      </trkpt>
      <trkpt lat="45.26587" lon="5.15684">
        <ele>524.95880598115</ele>
        <time>2014-05-31T14:40:50Z</time>
      </trkpt>
      <trkpt lat="45.26592" lon="5.1569">
        <ele>524.66287613145</ele>
        <time>2014-05-31T14:40:55Z</time>
      </trkpt>
      <trkpt lat="45.26597" lon="5.15697">
        <ele>524.66287613145</ele>
        <time>2014-05-31T14:41:00Z</time>
      </trkpt>
      <trkpt lat="45.26602" lon="5.15704">
        <ele>524.3349014488</ele>
        <time>2014-05-31T14:41:05Z</time>
      </trkpt>
      <trkpt lat="45.26608" lon="5.15711">
        <ele>524.3349014488</ele>
        <time>2014-05-31T14:41:10Z</time>
      </trkpt>
      <trkpt lat="45.26614" lon="5.15717">
        <ele>523.99315279147</ele>
        <time>2014-05-31T14:41:15Z</time>
      </trkpt>
      <trkpt lat="45.2662" lon="5.15722">
        <ele>523.99315279147</ele>
        <time>2014-05-31T14:41:20Z</time>
      </trkpt>
      <trkpt lat="45.26625" lon="5.15729">
        <ele>523.72660321926</ele>
        <time>2014-05-31T14:41:25Z</time>
      </trkpt>
      <trkpt lat="45.26631" lon="5.15736">
        <ele>523.72660321926</ele>
        <time>2014-05-31T14:41:30Z</time>
      </trkpt>
      <trkpt lat="45.26636" lon="5.15743">
        <ele>523.84802246401</ele>
        <time>2014-05-31T14:41:35Z</time>
      </trkpt>
      <trkpt lat="45.26641" lon="5.1575">
        <ele>523.84802246401</ele>
        <time>2014-05-31T14:41:40Z</time>
      </trkpt>
      <trkpt lat="45.26645" lon="5.15758">
        <ele>524.27129191751</ele>
        <time>2014-05-31T14:41:45Z</time>
      </trkpt>
      <trkpt lat="45.26647" lon="5.15766">
        <ele>524.27129191751</ele>
        <time>2014-05-31T14:41:50Z</time>
      </trkpt>
      <trkpt lat="45.26651" lon="5.15774">
        <ele>525.04544674327</ele>
        <time>2014-05-31T14:41:55Z</time>
      </trkpt>
      <trkpt lat="45.26655" lon="5.15783">
        <ele>525.04544674327</ele>
        <time>2014-05-31T14:42:00Z</time>
      </trkpt>
      <trkpt lat="45.26658" lon="5.15791">
        <ele>525.47986137073</ele>
        <time>2014-05-31T14:42:05Z</time>
      </trkpt>
      <trkpt lat="45.2666" lon="5.15801">
        <ele>525.47986137073</ele>
        <time>2014-05-31T14:42:10Z</time>
      </trkpt>
      <trkpt lat="45.26662" lon="5.15809">
        <ele>525.32472928385</ele>
        <time>2014-05-31T14:42:15Z</time>
      </trkpt>
      <trkpt lat="45.26664" lon="5.15817">
        <ele>525.32472928385</ele>
        <time>2014-05-31T14:42:20Z</time>
      </trkpt>
      <trkpt lat="45.26667" lon="5.15824">
        <ele>524.22051209585</ele>
        <time>2014-05-31T14:42:25Z</time>
      </trkpt>
      <trkpt lat="45.2667" lon="5.15831">
        <ele>524.22051209585</ele>
        <time>2014-05-31T14:42:30Z</time>
      </trkpt>
      <trkpt lat="45.26673" lon="5.15834">
        <ele>523.43641281675</ele>
        <time>2014-05-31T14:42:35Z</time>
      </trkpt>
      <trkpt lat="45.26678" lon="5.15838">
        <ele>523.43641281675</ele>
        <time>2014-05-31T14:42:40Z</time>
      </trkpt>
      <trkpt lat="45.26683" lon="5.15846">
        <ele>523.03772002164</ele>
        <time>2014-05-31T14:42:45Z</time>
      </trkpt>
      <trkpt lat="45.26686" lon="5.15854">
        <ele>523.03772002164</ele>
        <time>2014-05-31T14:42:50Z</time>
      </trkpt>
      <trkpt lat="45.26687" lon="5.15861">
        <ele>522.3199987465</ele>
        <time>2014-05-31T14:42:55Z</time>
      </trkpt>
      <trkpt lat="45.26694" lon="5.15869">
        <ele>521.42405313864</ele>
        <time>2014-05-31T14:43:00Z</time>
      </trkpt>
      <trkpt lat="45.26708" lon="5.15876">
        <ele>520.78342933519</ele>
        <time>2014-05-31T14:43:05Z</time>
      </trkpt>
      <trkpt lat="45.2672" lon="5.15879">
        <ele>520.55406347514</ele>
        <time>2014-05-31T14:43:10Z</time>
      </trkpt>
      <trkpt lat="45.26731" lon="5.15881">
        <ele>520.24513811422</ele>
        <time>2014-05-31T14:43:15Z</time>
      </trkpt>
      <trkpt lat="45.26738" lon="5.15881">
        <ele>520.24513811422</ele>
        <time>2014-05-31T14:43:20Z</time>
      </trkpt>
      <trkpt lat="45.26745" lon="5.15881">
        <ele>519.90646013456</ele>
        <time>2014-05-31T14:43:25Z</time>
      </trkpt>
      <trkpt lat="45.26753" lon="5.15882">
        <ele>519.90646013456</ele>
        <time>2014-05-31T14:43:30Z</time>
      </trkpt>
      <trkpt lat="45.2676" lon="5.15881">
        <ele>519.65626821362</ele>
        <time>2014-05-31T14:43:35Z</time>
      </trkpt>
      <trkpt lat="45.26767" lon="5.15884">
        <ele>519.65626821362</ele>
        <time>2014-05-31T14:43:40Z</time>
      </trkpt>
      <trkpt lat="45.26775" lon="5.15885">
        <ele>519.57499799424</ele>
        <time>2014-05-31T14:43:45Z</time>
      </trkpt>
      <trkpt lat="45.26782" lon="5.15886">
        <ele>519.57499799424</ele>
        <time>2014-05-31T14:43:50Z</time>
      </trkpt>
      <trkpt lat="45.26789" lon="5.15893">
        <ele>519.52048918572</ele>
        <time>2014-05-31T14:43:55Z</time>
      </trkpt>
      <trkpt lat="45.26794" lon="5.15901">
        <ele>519.52048918572</ele>
        <time>2014-05-31T14:44:00Z</time>
      </trkpt>
      <trkpt lat="45.26799" lon="5.15909">
        <ele>520.09588589763</ele>
        <time>2014-05-31T14:44:05Z</time>
      </trkpt>
      <trkpt lat="45.26804" lon="5.15916">
        <ele>520.09588589763</ele>
        <time>2014-05-31T14:44:10Z</time>
      </trkpt>
      <trkpt lat="45.26809" lon="5.15926">
        <ele>520.92148929684</ele>
        <time>2014-05-31T14:44:15Z</time>
      </trkpt>
      <trkpt lat="45.26814" lon="5.15935">
        <ele>520.92148929684</ele>
        <time>2014-05-31T14:44:20Z</time>
      </trkpt>
      <trkpt lat="45.26819" lon="5.15945">
        <ele>521.9185779982</ele>
        <time>2014-05-31T14:44:25Z</time>
      </trkpt>
      <trkpt lat="45.26824" lon="5.15955">
        <ele>521.9185779982</ele>
        <time>2014-05-31T14:44:30Z</time>
      </trkpt>
      <trkpt lat="45.26828" lon="5.15965">
        <ele>523.27311947643</ele>
        <time>2014-05-31T14:44:35Z</time>
      </trkpt>
      <trkpt lat="45.26832" lon="5.15974">
        <ele>523.27311947643</ele>
        <time>2014-05-31T14:44:40Z</time>
      </trkpt>
      <trkpt lat="45.26837" lon="5.15983">
        <ele>524.40701733228</ele>
        <time>2014-05-31T14:44:45Z</time>
      </trkpt>
      <trkpt lat="45.26843" lon="5.15991">
        <ele>524.40701733228</ele>
        <time>2014-05-31T14:44:50Z</time>
      </trkpt>
      <trkpt lat="45.26849" lon="5.15999">
        <ele>525.41936627703</ele>
        <time>2014-05-31T14:44:55Z</time>
      </trkpt>
      <trkpt lat="45.26855" lon="5.16006">
        <ele>525.41936627703</ele>
        <time>2014-05-31T14:45:00Z</time>
      </trkpt>
      <trkpt lat="45.2686" lon="5.16013">
        <ele>526.27263431836</ele>
        <time>2014-05-31T14:45:05Z</time>
      </trkpt>
      <trkpt lat="45.26865" lon="5.16022">
        <ele>526.27263431836</ele>
        <time>2014-05-31T14:45:10Z</time>
      </trkpt>
      <trkpt lat="45.26869" lon="5.16032">
        <ele>526.77398946427</ele>
        <time>2014-05-31T14:45:15Z</time>
      </trkpt>
      <trkpt lat="45.2687" lon="5.16042">
        <ele>526.77398946427</ele>
        <time>2014-05-31T14:45:20Z</time>
      </trkpt>
      <trkpt lat="45.26872" lon="5.16052">
        <ele>526.28461238366</ele>
        <time>2014-05-31T14:45:25Z</time>
      </trkpt>
      <trkpt lat="45.26873" lon="5.1606">
        <ele>526.28461238366</ele>
        <time>2014-05-31T14:45:30Z</time>
      </trkpt>
      <trkpt lat="45.26873" lon="5.16066">
        <ele>525.49804167515</ele>
        <time>2014-05-31T14:45:36Z</time>
      </trkpt>
      <trkpt lat="45.26875" lon="5.16074">
        <ele>525.49804167515</ele>
        <time>2014-05-31T14:45:40Z</time>
      </trkpt>
      <trkpt lat="45.26878" lon="5.16081">
        <ele>525.27390166489</ele>
        <time>2014-05-31T14:45:45Z</time>
      </trkpt>
      <trkpt lat="45.26884" lon="5.16089">
        <ele>525.27390166489</ele>
        <time>2014-05-31T14:45:50Z</time>
      </trkpt>
      <trkpt lat="45.26887" lon="5.16098">
        <ele>525.02361003491</ele>
        <time>2014-05-31T14:45:55Z</time>
      </trkpt>
      <trkpt lat="45.26891" lon="5.16109">
        <ele>525.02361003491</ele>
        <time>2014-05-31T14:46:00Z</time>
      </trkpt>
      <trkpt lat="45.26895" lon="5.16122">
        <ele>525.38365649967</ele>
        <time>2014-05-31T14:46:05Z</time>
      </trkpt>
      <trkpt lat="45.26897" lon="5.16134">
        <ele>525.38365649967</ele>
        <time>2014-05-31T14:46:10Z</time>
      </trkpt>
      <trkpt lat="45.26898" lon="5.16146">
        <ele>525.86121791947</ele>
        <time>2014-05-31T14:46:15Z</time>
      </trkpt>
      <trkpt lat="45.26898" lon="5.16154">
        <ele>525.86121791947</ele>
        <time>2014-05-31T14:46:20Z</time>
      </trkpt>
      <trkpt lat="45.26898" lon="5.16163">
        <ele>526.2011246311</ele>
        <time>2014-05-31T14:46:25Z</time>
      </trkpt>
      <trkpt lat="45.26898" lon="5.16172">
        <ele>526.2011246311</ele>
        <time>2014-05-31T14:46:30Z</time>
      </trkpt>
      <trkpt lat="45.26897" lon="5.16182">
        <ele>526.39794187336</ele>
        <time>2014-05-31T14:46:35Z</time>
      </trkpt>
      <trkpt lat="45.26896" lon="5.16191">
        <ele>526.39794187336</ele>
        <time>2014-05-31T14:46:40Z</time>
      </trkpt>
      <trkpt lat="45.26895" lon="5.16199">
        <ele>526.0435365833</ele>
        <time>2014-05-31T14:46:45Z</time>
      </trkpt>
      <trkpt lat="45.26897" lon="5.16206">
        <ele>526.0435365833</ele>
        <time>2014-05-31T14:46:51Z</time>
      </trkpt>
      <trkpt lat="45.269" lon="5.16212">
        <ele>525.32336999248</ele>
        <time>2014-05-31T14:46:55Z</time>
      </trkpt>
      <trkpt lat="45.26905" lon="5.16217">
        <ele>525.32336999248</ele>
        <time>2014-05-31T14:47:00Z</time>
      </trkpt>
      <trkpt lat="45.26911" lon="5.16221">
        <ele>524.26620658075</ele>
        <time>2014-05-31T14:47:05Z</time>
      </trkpt>
      <trkpt lat="45.26918" lon="5.16223">
        <ele>524.26620658075</ele>
        <time>2014-05-31T14:47:11Z</time>
      </trkpt>
      <trkpt lat="45.26923" lon="5.16226">
        <ele>523.2022914473</ele>
        <time>2014-05-31T14:47:15Z</time>
      </trkpt>
      <trkpt lat="45.26927" lon="5.16236">
        <ele>523.2022914473</ele>
        <time>2014-05-31T14:47:20Z</time>
      </trkpt>
      <trkpt lat="45.26928" lon="5.1624">
        <ele>521.7314726049</ele>
        <time>2014-05-31T14:47:25Z</time>
      </trkpt>
      <trkpt lat="45.26929" lon="5.16244">
        <ele>521.7314726049</ele>
        <time>2014-05-31T14:47:30Z</time>
      </trkpt>
      <trkpt lat="45.26929" lon="5.16248">
        <ele>521.7314726049</ele>
        <time>2014-05-31T14:47:35Z</time>
      </trkpt>
      <trkpt lat="45.26932" lon="5.16256">
        <ele>519.95970167402</ele>
        <time>2014-05-31T14:47:40Z</time>
      </trkpt>
      <trkpt lat="45.26934" lon="5.16263">
        <ele>519.95970167402</ele>
        <time>2014-05-31T14:47:45Z</time>
      </trkpt>
      <trkpt lat="45.26939" lon="5.1627">
        <ele>517.20775901825</ele>
        <time>2014-05-31T14:47:50Z</time>
      </trkpt>
      <trkpt lat="45.26945" lon="5.16272">
        <ele>517.20775901825</ele>
        <time>2014-05-31T14:47:55Z</time>
      </trkpt>
      <trkpt lat="45.26953" lon="5.16274">
        <ele>514.33339927436</ele>
        <time>2014-05-31T14:48:00Z</time>
      </trkpt>
      <trkpt lat="45.26957" lon="5.16278">
        <ele>514.33339927436</ele>
        <time>2014-05-31T14:48:05Z</time>
      </trkpt>
      <trkpt lat="45.2696" lon="5.16283">
        <ele>512.05959741456</ele>
        <time>2014-05-31T14:48:10Z</time>
      </trkpt>
      <trkpt lat="45.26966" lon="5.16285">
        <ele>512.05959741456</ele>
        <time>2014-05-31T14:48:15Z</time>
      </trkpt>
      <trkpt lat="45.26974" lon="5.16291">
        <ele>509.94479724097</ele>
        <time>2014-05-31T14:48:20Z</time>
      </trkpt>
      <trkpt lat="45.26979" lon="5.16296">
        <ele>509.94479724097</ele>
        <time>2014-05-31T14:48:25Z</time>
      </trkpt>
      <trkpt lat="45.26987" lon="5.16296">
        <ele>507.73787630353</ele>
        <time>2014-05-31T14:48:30Z</time>
      </trkpt>
      <trkpt lat="45.26993" lon="5.16296">
        <ele>507.73787630353</ele>
        <time>2014-05-31T14:48:35Z</time>
      </trkpt>
      <trkpt lat="45.26998" lon="5.16298">
        <ele>505.45131493229</ele>
        <time>2014-05-31T14:48:40Z</time>
      </trkpt>
      <trkpt lat="45.27002" lon="5.163">
        <ele>505.45131493229</ele>
        <time>2014-05-31T14:48:45Z</time>
      </trkpt>
      <trkpt lat="45.27007" lon="5.16304">
        <ele>503.64442144749</ele>
        <time>2014-05-31T14:48:50Z</time>
      </trkpt>
      <trkpt lat="45.27014" lon="5.16309">
        <ele>503.64442144749</ele>
        <time>2014-05-31T14:48:55Z</time>
      </trkpt>
      <trkpt lat="45.27015" lon="5.16309">
        <ele>503.64442144749</ele>
        <time>2014-05-31T14:49:00Z</time>
      </trkpt>
      <trkpt lat="45.27018" lon="5.16313">
        <ele>502.01252100385</ele>
        <time>2014-05-31T14:49:05Z</time>
      </trkpt>
      <trkpt lat="45.27025" lon="5.16316">
        <ele>502.01252100385</ele>
        <time>2014-05-31T14:49:10Z</time>
      </trkpt>
      <trkpt lat="45.27029" lon="5.16317">
        <ele>500.25830155678</ele>
        <time>2014-05-31T14:49:15Z</time>
      </trkpt>
      <trkpt lat="45.27033" lon="5.16309">
        <ele>500.25830155678</ele>
        <time>2014-05-31T14:49:20Z</time>
      </trkpt>
      <trkpt lat="45.27034" lon="5.16308">
        <ele>500.25830155678</ele>
        <time>2014-05-31T14:49:25Z</time>
      </trkpt>
      <trkpt lat="45.27035" lon="5.16308">
        <ele>500.25830155678</ele>
        <time>2014-05-31T14:49:30Z</time>
      </trkpt>
      <trkpt lat="45.27036" lon="5.16312">
        <ele>498.00563488466</ele>
        <time>2014-05-31T14:49:35Z</time>
      </trkpt>
      <trkpt lat="45.27041" lon="5.16315">
        <ele>498.00563488466</ele>
        <time>2014-05-31T14:49:40Z</time>
      </trkpt>
      <trkpt lat="45.27048" lon="5.16317">
        <ele>495.41168534784</ele>
        <time>2014-05-31T14:49:45Z</time>
      </trkpt>
      <trkpt lat="45.27052" lon="5.16317">
        <ele>495.41168534784</ele>
        <time>2014-05-31T14:49:50Z</time>
      </trkpt>
      <trkpt lat="45.27053" lon="5.16315">
        <ele>495.41168534784</ele>
        <time>2014-05-31T14:49:55Z</time>
      </trkpt>
      <trkpt lat="45.27053" lon="5.16315">
        <ele>495.41168534784</ele>
        <time>2014-05-31T14:50:00Z</time>
      </trkpt>
      <trkpt lat="45.27053" lon="5.16316">
        <ele>495.41168534784</ele>
        <time>2014-05-31T14:50:05Z</time>
      </trkpt>
      <trkpt lat="45.27054" lon="5.16315">
        <ele>495.41168534784</ele>
        <time>2014-05-31T14:50:10Z</time>
      </trkpt>
      <trkpt lat="45.27057" lon="5.16313">
        <ele>494.35223677001</ele>
        <time>2014-05-31T14:50:15Z</time>
      </trkpt>
      <trkpt lat="45.27058" lon="5.16314">
        <ele>494.35223677001</ele>
        <time>2014-05-31T14:50:20Z</time>
      </trkpt>
      <trkpt lat="45.27058" lon="5.16316">
        <ele>494.35223677001</ele>
        <time>2014-05-31T14:50:25Z</time>
      </trkpt>
      <trkpt lat="45.27058" lon="5.16318">
        <ele>494.35223677001</ele>
        <time>2014-05-31T14:50:30Z</time>
      </trkpt>
      <trkpt lat="45.2706" lon="5.16324">
        <ele>494.35223677001</ele>
        <time>2014-05-31T14:50:35Z</time>
      </trkpt>
      <trkpt lat="45.27061" lon="5.16329">
        <ele>492.39601800915</ele>
        <time>2014-05-31T14:50:40Z</time>
      </trkpt>
      <trkpt lat="45.27064" lon="5.16333">
        <ele>492.39601800915</ele>
        <time>2014-05-31T14:50:45Z</time>
      </trkpt>
      <trkpt lat="45.27065" lon="5.16339">
        <ele>492.39601800915</ele>
        <time>2014-05-31T14:50:50Z</time>
      </trkpt>
      <trkpt lat="45.27067" lon="5.16346">
        <ele>490.50642487461</ele>
        <time>2014-05-31T14:50:55Z</time>
      </trkpt>
      <trkpt lat="45.27066" lon="5.16354">
        <ele>490.50642487461</ele>
        <time>2014-05-31T14:51:00Z</time>
      </trkpt>
      <trkpt lat="45.27068" lon="5.16359">
        <ele>488.40845618753</ele>
        <time>2014-05-31T14:51:05Z</time>
      </trkpt>
      <trkpt lat="45.27068" lon="5.16366">
        <ele>488.40845618753</ele>
        <time>2014-05-31T14:51:10Z</time>
      </trkpt>
      <trkpt lat="45.27072" lon="5.1637">
        <ele>485.94863720653</ele>
        <time>2014-05-31T14:51:15Z</time>
      </trkpt>
      <trkpt lat="45.27078" lon="5.16375">
        <ele>485.94863720653</ele>
        <time>2014-05-31T14:51:20Z</time>
      </trkpt>
      <trkpt lat="45.27083" lon="5.16381">
        <ele>483.46120930903</ele>
        <time>2014-05-31T14:51:25Z</time>
      </trkpt>
      <trkpt lat="45.27083" lon="5.16389">
        <ele>483.46120930903</ele>
        <time>2014-05-31T14:51:30Z</time>
      </trkpt>
      <trkpt lat="45.27083" lon="5.16394">
        <ele>481.09727235596</ele>
        <time>2014-05-31T14:51:35Z</time>
      </trkpt>
      <trkpt lat="45.27078" lon="5.16401">
        <ele>481.09727235596</ele>
        <time>2014-05-31T14:51:40Z</time>
      </trkpt>
      <trkpt lat="45.27074" lon="5.16404">
        <ele>479.3133793772</ele>
        <time>2014-05-31T14:51:45Z</time>
      </trkpt>
      <trkpt lat="45.27072" lon="5.16411">
        <ele>479.3133793772</ele>
        <time>2014-05-31T14:51:50Z</time>
      </trkpt>
      <trkpt lat="45.27071" lon="5.1642">
        <ele>476.90231391719</ele>
        <time>2014-05-31T14:51:55Z</time>
      </trkpt>
      <trkpt lat="45.27072" lon="5.16421">
        <ele>476.90231391719</ele>
        <time>2014-05-31T14:52:00Z</time>
      </trkpt>
      <trkpt lat="45.27072" lon="5.16421">
        <ele>476.90231391719</ele>
        <time>2014-05-31T14:52:05Z</time>
      </trkpt>
      <trkpt lat="45.27071" lon="5.16423">
        <ele>476.90231391719</ele>
        <time>2014-05-31T14:52:10Z</time>
      </trkpt>
      <trkpt lat="45.27069" lon="5.16429">
        <ele>476.90231391719</ele>
        <time>2014-05-31T14:52:15Z</time>
      </trkpt>
      <trkpt lat="45.27065" lon="5.16435">
        <ele>474.90882093982</ele>
        <time>2014-05-31T14:52:20Z</time>
      </trkpt>
      <trkpt lat="45.27061" lon="5.16438">
        <ele>474.90882093982</ele>
        <time>2014-05-31T14:52:25Z</time>
      </trkpt>
      <trkpt lat="45.27055" lon="5.16443">
        <ele>472.77200168744</ele>
        <time>2014-05-31T14:52:30Z</time>
      </trkpt>
      <trkpt lat="45.27048" lon="5.16447">
        <ele>472.77200168744</ele>
        <time>2014-05-31T14:52:35Z</time>
      </trkpt>
      <trkpt lat="45.27047" lon="5.16454">
        <ele>471.88909810554</ele>
        <time>2014-05-31T14:52:40Z</time>
      </trkpt>
      <trkpt lat="45.27046" lon="5.16463">
        <ele>471.88909810554</ele>
        <time>2014-05-31T14:52:45Z</time>
      </trkpt>
      <trkpt lat="45.27043" lon="5.16474">
        <ele>470.52471897171</ele>
        <time>2014-05-31T14:52:50Z</time>
      </trkpt>
      <trkpt lat="45.27038" lon="5.16483">
        <ele>470.52471897171</ele>
        <time>2014-05-31T14:52:55Z</time>
      </trkpt>
      <trkpt lat="45.27037" lon="5.16484">
        <ele>470.52471897171</ele>
        <time>2014-05-31T14:53:00Z</time>
      </trkpt>
      <trkpt lat="45.27037" lon="5.16486">
        <ele>469.68058509989</ele>
        <time>2014-05-31T14:53:05Z</time>
      </trkpt>
      <trkpt lat="45.27035" lon="5.16487">
        <ele>469.68058509989</ele>
        <time>2014-05-31T14:53:10Z</time>
      </trkpt>
      <trkpt lat="45.27034" lon="5.16488">
        <ele>469.68058509989</ele>
        <time>2014-05-31T14:53:15Z</time>
      </trkpt>
      <trkpt lat="45.27033" lon="5.16488">
        <ele>469.68058509989</ele>
        <time>2014-05-31T14:53:20Z</time>
      </trkpt>
      <trkpt lat="45.27033" lon="5.16488">
        <ele>469.68058509989</ele>
        <time>2014-05-31T14:53:25Z</time>
      </trkpt>
      <trkpt lat="45.27033" lon="5.16488">
        <ele>469.68058509989</ele>
        <time>2014-05-31T14:53:30Z</time>
      </trkpt>
      <trkpt lat="45.27032" lon="5.16491">
        <ele>469.68058509989</ele>
        <time>2014-05-31T14:53:35Z</time>
      </trkpt>
      <trkpt lat="45.27027" lon="5.16495">
        <ele>468.94301476879</ele>
        <time>2014-05-31T14:53:40Z</time>
      </trkpt>
      <trkpt lat="45.27028" lon="5.16494">
        <ele>468.94301476879</ele>
        <time>2014-05-31T14:53:45Z</time>
      </trkpt>
      <trkpt lat="45.27034" lon="5.16491">
        <ele>468.94301476879</ele>
        <time>2014-05-31T14:53:50Z</time>
      </trkpt>
      <trkpt lat="45.27038" lon="5.16488">
        <ele>468.23093766984</ele>
        <time>2014-05-31T14:53:55Z</time>
      </trkpt>
      <trkpt lat="45.27041" lon="5.16487">
        <ele>468.23093766984</ele>
        <time>2014-05-31T14:54:00Z</time>
      </trkpt>
      <trkpt lat="45.27042" lon="5.16488">
        <ele>468.23093766984</ele>
        <time>2014-05-31T14:54:05Z</time>
      </trkpt>
      <trkpt lat="45.27042" lon="5.16489">
        <ele>468.23093766984</ele>
        <time>2014-05-31T14:54:10Z</time>
      </trkpt>
      <trkpt lat="45.27043" lon="5.16488">
        <ele>468.23093766984</ele>
        <time>2014-05-31T14:54:15Z</time>
      </trkpt>
      <trkpt lat="45.27046" lon="5.16489">
        <ele>468.23093766984</ele>
        <time>2014-05-31T14:54:20Z</time>
      </trkpt>
      <trkpt lat="45.27046" lon="5.16491">
        <ele>467.61317789633</ele>
        <time>2014-05-31T14:54:25Z</time>
      </trkpt>
      <trkpt lat="45.27047" lon="5.16493">
        <ele>467.61317789633</ele>
        <time>2014-05-31T14:54:30Z</time>
      </trkpt>
      <trkpt lat="45.27049" lon="5.16493">
        <ele>467.61317789633</ele>
        <time>2014-05-31T14:54:35Z</time>
      </trkpt>
      <trkpt lat="45.2705" lon="5.16494">
        <ele>467.61317789633</ele>
        <time>2014-05-31T14:54:40Z</time>
      </trkpt>
      <trkpt lat="45.27048" lon="5.16494">
        <ele>467.61317789633</ele>
        <time>2014-05-31T14:54:45Z</time>
      </trkpt>
      <trkpt lat="45.27047" lon="5.16493">
        <ele>467.61317789633</ele>
        <time>2014-05-31T14:54:50Z</time>
      </trkpt>
      <trkpt lat="45.27045" lon="5.16491">
        <ele>467.71518544974</ele>
        <time>2014-05-31T14:54:55Z</time>
      </trkpt>
      <trkpt lat="45.27044" lon="5.16489">
        <ele>467.71518544974</ele>
        <time>2014-05-31T14:55:00Z</time>
      </trkpt>
      <trkpt lat="45.27046" lon="5.16483">
        <ele>467.71518544974</ele>
        <time>2014-05-31T14:55:05Z</time>
      </trkpt>
      <trkpt lat="45.27049" lon="5.16475">
        <ele>467.39944758371</ele>
        <time>2014-05-31T14:55:10Z</time>
      </trkpt>
      <trkpt lat="45.27054" lon="5.16465">
        <ele>467.39944758371</ele>
        <time>2014-05-31T14:55:15Z</time>
      </trkpt>
      <trkpt lat="45.27057" lon="5.16456">
        <ele>466.99659104749</ele>
        <time>2014-05-31T14:55:20Z</time>
      </trkpt>
      <trkpt lat="45.27061" lon="5.1645">
        <ele>466.99659104749</ele>
        <time>2014-05-31T14:55:25Z</time>
      </trkpt>
      <trkpt lat="45.27066" lon="5.16445">
        <ele>466.92844057938</ele>
        <time>2014-05-31T14:55:30Z</time>
      </trkpt>
      <trkpt lat="45.2707" lon="5.16436">
        <ele>466.92844057938</ele>
        <time>2014-05-31T14:55:35Z</time>
      </trkpt>
      <trkpt lat="45.27072" lon="5.16424">
        <ele>466.21580218071</ele>
        <time>2014-05-31T14:55:40Z</time>
      </trkpt>
      <trkpt lat="45.27073" lon="5.16416">
        <ele>466.21580218071</ele>
        <time>2014-05-31T14:55:45Z</time>
      </trkpt>
      <trkpt lat="45.27078" lon="5.16411">
        <ele>466.21574334494</ele>
        <time>2014-05-31T14:55:50Z</time>
      </trkpt>
      <trkpt lat="45.27085" lon="5.16405">
        <ele>466.21574334494</ele>
        <time>2014-05-31T14:55:55Z</time>
      </trkpt>
      <trkpt lat="45.2709" lon="5.16403">
        <ele>466.51193955691</ele>
        <time>2014-05-31T14:56:00Z</time>
      </trkpt>
      <trkpt lat="45.27093" lon="5.16401">
        <ele>466.51193955691</ele>
        <time>2014-05-31T14:56:05Z</time>
      </trkpt>
      <trkpt lat="45.27093" lon="5.164">
        <ele>466.51193955691</ele>
        <time>2014-05-31T14:56:10Z</time>
      </trkpt>
      <trkpt lat="45.27095" lon="5.164">
        <ele>466.51193955691</ele>
        <time>2014-05-31T14:56:15Z</time>
      </trkpt>
      <trkpt lat="45.27096" lon="5.16399">
        <ele>466.51193955691</ele>
        <time>2014-05-31T14:56:20Z</time>
      </trkpt>
      <trkpt lat="45.27098" lon="5.16399">
        <ele>466.51193955691</ele>
        <time>2014-05-31T14:56:25Z</time>
      </trkpt>
      <trkpt lat="45.27098" lon="5.16397">
        <ele>466.32871556632</ele>
        <time>2014-05-31T14:56:30Z</time>
      </trkpt>
      <trkpt lat="45.27097" lon="5.16393">
        <ele>466.32871556632</ele>
        <time>2014-05-31T14:56:35Z</time>
      </trkpt>
      <trkpt lat="45.27098" lon="5.16388">
        <ele>466.32871556632</ele>
        <time>2014-05-31T14:56:40Z</time>
      </trkpt>
      <trkpt lat="45.27101" lon="5.16383">
        <ele>466.14485347398</ele>
        <time>2014-05-31T14:56:45Z</time>
      </trkpt>
      <trkpt lat="45.27102" lon="5.16379">
        <ele>466.14485347398</ele>
        <time>2014-05-31T14:56:50Z</time>
      </trkpt>
      <trkpt lat="45.27102" lon="5.16371">
        <ele>466.14485347398</ele>
        <time>2014-05-31T14:56:55Z</time>
      </trkpt>
      <trkpt lat="45.27105" lon="5.16367">
        <ele>466.07252883394</ele>
        <time>2014-05-31T14:57:00Z</time>
      </trkpt>
      <trkpt lat="45.27107" lon="5.16365">
        <ele>466.07252883394</ele>
        <time>2014-05-31T14:57:05Z</time>
      </trkpt>
      <trkpt lat="45.27111" lon="5.16361">
        <ele>466.07252883394</ele>
        <time>2014-05-31T14:57:10Z</time>
      </trkpt>
      <trkpt lat="45.27113" lon="5.16361">
        <ele>466.35950360994</ele>
        <time>2014-05-31T14:57:15Z</time>
      </trkpt>
      <trkpt lat="45.27113" lon="5.16354">
        <ele>466.35950360994</ele>
        <time>2014-05-31T14:57:20Z</time>
      </trkpt>
      <trkpt lat="45.27112" lon="5.16346">
        <ele>466.47057879306</ele>
        <time>2014-05-31T14:57:25Z</time>
      </trkpt>
      <trkpt lat="45.27114" lon="5.1634">
        <ele>466.47057879306</ele>
        <time>2014-05-31T14:57:30Z</time>
      </trkpt>
      <trkpt lat="45.27118" lon="5.16338">
        <ele>466.47057879306</ele>
        <time>2014-05-31T14:57:35Z</time>
      </trkpt>
      <trkpt lat="45.2712" lon="5.16332">
        <ele>466.18422071782</ele>
        <time>2014-05-31T14:57:40Z</time>
      </trkpt>
      <trkpt lat="45.27123" lon="5.16327">
        <ele>466.18422071782</ele>
        <time>2014-05-31T14:57:45Z</time>
      </trkpt>
      <trkpt lat="45.27126" lon="5.16322">
        <ele>466.01689305679</ele>
        <time>2014-05-31T14:57:50Z</time>
      </trkpt>
      <trkpt lat="45.27126" lon="5.1632">
        <ele>466.01689305679</ele>
        <time>2014-05-31T14:57:55Z</time>
      </trkpt>
      <trkpt lat="45.27126" lon="5.16319">
        <ele>466.01689305679</ele>
        <time>2014-05-31T14:58:00Z</time>
      </trkpt>
      <trkpt lat="45.27125" lon="5.16319">
        <ele>466.01689305679</ele>
        <time>2014-05-31T14:58:05Z</time>
      </trkpt>
      <trkpt lat="45.27125" lon="5.1632">
        <ele>466.01689305679</ele>
        <time>2014-05-31T14:58:10Z</time>
      </trkpt>
      <trkpt lat="45.27125" lon="5.16321">
        <ele>466.01689305679</ele>
        <time>2014-05-31T14:58:15Z</time>
      </trkpt>
      <trkpt lat="45.27124" lon="5.16322">
        <ele>466.01689305679</ele>
        <time>2014-05-31T14:58:20Z</time>
      </trkpt>
      <trkpt lat="45.27125" lon="5.16324">
        <ele>466.01689305679</ele>
        <time>2014-05-31T14:58:25Z</time>
      </trkpt>
      <trkpt lat="45.27124" lon="5.16323">
        <ele>466.01689305679</ele>
        <time>2014-05-31T14:58:30Z</time>
      </trkpt>
      <trkpt lat="45.27125" lon="5.16327">
        <ele>466.01689305679</ele>
        <time>2014-05-31T14:58:35Z</time>
      </trkpt>
      <trkpt lat="45.27127" lon="5.16328">
        <ele>466.28832333541</ele>
        <time>2014-05-31T14:58:40Z</time>
      </trkpt>
      <trkpt lat="45.27128" lon="5.16326">
        <ele>466.28832333541</ele>
        <time>2014-05-31T14:58:45Z</time>
      </trkpt>
      <trkpt lat="45.27129" lon="5.16319">
        <ele>466.28832333541</ele>
        <time>2014-05-31T14:58:50Z</time>
      </trkpt>
      <trkpt lat="45.27131" lon="5.16314">
        <ele>465.89570638008</ele>
        <time>2014-05-31T14:58:55Z</time>
      </trkpt>
      <trkpt lat="45.27135" lon="5.16311">
        <ele>465.89570638008</ele>
        <time>2014-05-31T14:59:00Z</time>
      </trkpt>
      <trkpt lat="45.27139" lon="5.16307">
        <ele>465.41881412727</ele>
        <time>2014-05-31T14:59:05Z</time>
      </trkpt>
      <trkpt lat="45.27142" lon="5.16303">
        <ele>465.41881412727</ele>
        <time>2014-05-31T14:59:10Z</time>
      </trkpt>
      <trkpt lat="45.27148" lon="5.16302">
        <ele>465.97158273736</ele>
        <time>2014-05-31T14:59:15Z</time>
      </trkpt>
      <trkpt lat="45.2715" lon="5.16308">
        <ele>465.97158273736</ele>
        <time>2014-05-31T14:59:20Z</time>
      </trkpt>
      <trkpt lat="45.27147" lon="5.16311">
        <ele>465.97158273736</ele>
        <time>2014-05-31T14:59:25Z</time>
      </trkpt>
      <trkpt lat="45.27142" lon="5.16312">
        <ele>466.58016206046</ele>
        <time>2014-05-31T14:59:30Z</time>
      </trkpt>
      <trkpt lat="45.27141" lon="5.16311">
        <ele>466.58016206046</ele>
        <time>2014-05-31T14:59:35Z</time>
      </trkpt>
      <trkpt lat="45.27142" lon="5.16312">
        <ele>466.58016206046</ele>
        <time>2014-05-31T14:59:40Z</time>
      </trkpt>
      <trkpt lat="45.27142" lon="5.16312">
        <ele>466.58016206046</ele>
        <time>2014-05-31T14:59:45Z</time>
      </trkpt>
      <trkpt lat="45.27142" lon="5.16312">
        <ele>466.58016206046</ele>
        <time>2014-05-31T14:59:50Z</time>
      </trkpt>
      <trkpt lat="45.27142" lon="5.16312">
        <ele>466.58016206046</ele>
        <time>2014-05-31T14:59:55Z</time>
      </trkpt>
      <trkpt lat="45.27142" lon="5.16312">
        <ele>466.58016206046</ele>
        <time>2014-05-31T15:00:00Z</time>
      </trkpt>
      <trkpt lat="45.27142" lon="5.16312">
        <ele>466.58016206046</ele>
        <time>2014-05-31T15:00:05Z</time>
      </trkpt>
      <trkpt lat="45.27142" lon="5.16312">
        <ele>466.58016206046</ele>
        <time>2014-05-31T15:00:10Z</time>
      </trkpt>
      <trkpt lat="45.27142" lon="5.16312">
        <ele>466.58016206046</ele>
        <time>2014-05-31T15:00:15Z</time>
      </trkpt>
      <trkpt lat="45.27142" lon="5.16312">
        <ele>466.58016206046</ele>
        <time>2014-05-31T15:00:20Z</time>
      </trkpt>
      <trkpt lat="45.27145" lon="5.16311">
        <ele>466.58016206046</ele>
        <time>2014-05-31T15:00:25Z</time>
      </trkpt>
      <trkpt lat="45.27146" lon="5.16311">
        <ele>466.58016206046</ele>
        <time>2014-05-31T15:00:30Z</time>
      </trkpt>
      <trkpt lat="45.27146" lon="5.16311">
        <ele>466.58016206046</ele>
        <time>2014-05-31T15:00:35Z</time>
      </trkpt>
      <trkpt lat="45.27146" lon="5.16311">
        <ele>466.58016206046</ele>
        <time>2014-05-31T15:00:40Z</time>
      </trkpt>
      <trkpt lat="45.27146" lon="5.16311">
        <ele>466.58016206046</ele>
        <time>2014-05-31T15:00:45Z</time>
      </trkpt>
      <trkpt lat="45.27146" lon="5.16311">
        <ele>466.58016206046</ele>
        <time>2014-05-31T15:00:50Z</time>
      </trkpt>
      <trkpt lat="45.27146" lon="5.16311">
        <ele>466.58016206046</ele>
        <time>2014-05-31T15:00:55Z</time>
      </trkpt>
      <trkpt lat="45.27146" lon="5.16311">
        <ele>466.58016206046</ele>
        <time>2014-05-31T15:01:00Z</time>
      </trkpt>
      <trkpt lat="45.27146" lon="5.16311">
        <ele>466.58016206046</ele>
        <time>2014-05-31T15:01:05Z</time>
      </trkpt>
      <trkpt lat="45.27146" lon="5.16311">
        <ele>466.58016206046</ele>
        <time>2014-05-31T15:01:10Z</time>
      </trkpt>
      <trkpt lat="45.27145" lon="5.16311">
        <ele>466.58016206046</ele>
        <time>2014-05-31T15:01:15Z</time>
      </trkpt>
      <trkpt lat="45.27144" lon="5.16311">
        <ele>466.58016206046</ele>
        <time>2014-05-31T15:01:20Z</time>
      </trkpt>
      <trkpt lat="45.27144" lon="5.16313">
        <ele>467.61034602707</ele>
        <time>2014-05-31T15:01:25Z</time>
      </trkpt>
      <trkpt lat="45.27143" lon="5.16319">
        <ele>467.61034602707</ele>
        <time>2014-05-31T15:01:30Z</time>
      </trkpt>
      <trkpt lat="45.27142" lon="5.16329">
        <ele>468.53529857723</ele>
        <time>2014-05-31T15:01:35Z</time>
      </trkpt>
      <trkpt lat="45.27142" lon="5.16339">
        <ele>468.53529857723</ele>
        <time>2014-05-31T15:01:40Z</time>
      </trkpt>
      <trkpt lat="45.27145" lon="5.16349">
        <ele>469.81841466578</ele>
        <time>2014-05-31T15:01:45Z</time>
      </trkpt>
      <trkpt lat="45.27145" lon="5.16359">
        <ele>469.81841466578</ele>
        <time>2014-05-31T15:01:50Z</time>
      </trkpt>
      <trkpt lat="45.27147" lon="5.16368">
        <ele>471.00907578524</ele>
        <time>2014-05-31T15:01:55Z</time>
      </trkpt>
      <trkpt lat="45.27148" lon="5.16374">
        <ele>471.00907578524</ele>
        <time>2014-05-31T15:02:00Z</time>
      </trkpt>
      <trkpt lat="45.27148" lon="5.16382">
        <ele>472.35305672787</ele>
        <time>2014-05-31T15:02:05Z</time>
      </trkpt>
      <trkpt lat="45.27148" lon="5.16383">
        <ele>472.35305672787</ele>
        <time>2014-05-31T15:02:10Z</time>
      </trkpt>
      <trkpt lat="45.27147" lon="5.16384">
        <ele>472.35305672787</ele>
        <time>2014-05-31T15:02:15Z</time>
      </trkpt>
      <trkpt lat="45.27147" lon="5.16386">
        <ele>472.35305672787</ele>
        <time>2014-05-31T15:02:20Z</time>
      </trkpt>
      <trkpt lat="45.27148" lon="5.16392">
        <ele>472.35305672787</ele>
        <time>2014-05-31T15:02:25Z</time>
      </trkpt>
      <trkpt lat="45.27148" lon="5.164">
        <ele>473.80396612233</ele>
        <time>2014-05-31T15:02:30Z</time>
      </trkpt>
      <trkpt lat="45.27148" lon="5.16409">
        <ele>473.80396612233</ele>
        <time>2014-05-31T15:02:35Z</time>
      </trkpt>
      <trkpt lat="45.2715" lon="5.16415">
        <ele>475.13131460221</ele>
        <time>2014-05-31T15:02:40Z</time>
      </trkpt>
      <trkpt lat="45.27153" lon="5.16413">
        <ele>475.13131460221</ele>
        <time>2014-05-31T15:02:45Z</time>
      </trkpt>
      <trkpt lat="45.27154" lon="5.16413">
        <ele>475.13131460221</ele>
        <time>2014-05-31T15:02:50Z</time>
      </trkpt>
      <trkpt lat="45.27154" lon="5.16413">
        <ele>475.13131460221</ele>
        <time>2014-05-31T15:02:55Z</time>
      </trkpt>
      <trkpt lat="45.27155" lon="5.16413">
        <ele>475.13131460221</ele>
        <time>2014-05-31T15:03:00Z</time>
      </trkpt>
      <trkpt lat="45.27153" lon="5.16413">
        <ele>475.13131460221</ele>
        <time>2014-05-31T15:03:05Z</time>
      </trkpt>
      <trkpt lat="45.27151" lon="5.16413">
        <ele>475.13131460221</ele>
        <time>2014-05-31T15:03:10Z</time>
      </trkpt>
      <trkpt lat="45.27151" lon="5.16413">
        <ele>475.13131460221</ele>
        <time>2014-05-31T15:03:15Z</time>
      </trkpt>
      <trkpt lat="45.2715" lon="5.16412">
        <ele>476.19409287092</ele>
        <time>2014-05-31T15:03:20Z</time>
      </trkpt>
      <trkpt lat="45.2715" lon="5.16411">
        <ele>476.19409287092</ele>
        <time>2014-05-31T15:03:25Z</time>
      </trkpt>
      <trkpt lat="45.2715" lon="5.16411">
        <ele>476.19409287092</ele>
        <time>2014-05-31T15:03:30Z</time>
      </trkpt>
      <trkpt lat="45.27149" lon="5.1641">
        <ele>476.19409287092</ele>
        <time>2014-05-31T15:03:35Z</time>
      </trkpt>
      <trkpt lat="45.27148" lon="5.1641">
        <ele>476.19409287092</ele>
        <time>2014-05-31T15:03:40Z</time>
      </trkpt>
      <trkpt lat="45.27148" lon="5.16409">
        <ele>476.19409287092</ele>
        <time>2014-05-31T15:03:45Z</time>
      </trkpt>
      <trkpt lat="45.27148" lon="5.16409">
        <ele>476.19409287092</ele>
        <time>2014-05-31T15:03:50Z</time>
      </trkpt>
      <trkpt lat="45.27148" lon="5.16409">
        <ele>476.19409287092</ele>
        <time>2014-05-31T15:03:55Z</time>
      </trkpt>
      <trkpt lat="45.27148" lon="5.16409">
        <ele>476.19409287092</ele>
        <time>2014-05-31T15:04:00Z</time>
      </trkpt>
      <trkpt lat="45.27147" lon="5.16408">
        <ele>476.19409287092</ele>
        <time>2014-05-31T15:04:05Z</time>
      </trkpt>
      <trkpt lat="45.27147" lon="5.16397">
        <ele>477.4245787981</ele>
        <time>2014-05-31T15:04:10Z</time>
      </trkpt>
      <trkpt lat="45.27147" lon="5.16387">
        <ele>477.4245787981</ele>
        <time>2014-05-31T15:04:15Z</time>
      </trkpt>
      <trkpt lat="45.27147" lon="5.16377">
        <ele>478.47360461271</ele>
        <time>2014-05-31T15:04:20Z</time>
      </trkpt>
      <trkpt lat="45.27148" lon="5.16366">
        <ele>478.47360461271</ele>
        <time>2014-05-31T15:04:25Z</time>
      </trkpt>
      <trkpt lat="45.27147" lon="5.16356">
        <ele>479.4794783446</ele>
        <time>2014-05-31T15:04:30Z</time>
      </trkpt>
      <trkpt lat="45.27146" lon="5.16348">
        <ele>479.4794783446</ele>
        <time>2014-05-31T15:04:35Z</time>
      </trkpt>
      <trkpt lat="45.27145" lon="5.16339">
        <ele>479.99418703831</ele>
        <time>2014-05-31T15:04:40Z</time>
      </trkpt>
      <trkpt lat="45.27145" lon="5.16328">
        <ele>479.99418703831</ele>
        <time>2014-05-31T15:04:45Z</time>
      </trkpt>
      <trkpt lat="45.27146" lon="5.16318">
        <ele>480.52648051497</ele>
        <time>2014-05-31T15:04:50Z</time>
      </trkpt>
      <trkpt lat="45.27147" lon="5.1631">
        <ele>480.52648051497</ele>
        <time>2014-05-31T15:04:55Z</time>
      </trkpt>
      <trkpt lat="45.27148" lon="5.16301">
        <ele>481.04345840858</ele>
        <time>2014-05-31T15:05:00Z</time>
      </trkpt>
      <trkpt lat="45.27147" lon="5.16295">
        <ele>481.04345840858</ele>
        <time>2014-05-31T15:05:05Z</time>
      </trkpt>
      <trkpt lat="45.27145" lon="5.16295">
        <ele>481.04345840858</ele>
        <time>2014-05-31T15:05:10Z</time>
      </trkpt>
      <trkpt lat="45.2714" lon="5.16298">
        <ele>480.6357578797</ele>
        <time>2014-05-31T15:05:15Z</time>
      </trkpt>
      <trkpt lat="45.27138" lon="5.16303">
        <ele>480.6357578797</ele>
        <time>2014-05-31T15:05:20Z</time>
      </trkpt>
      <trkpt lat="45.27135" lon="5.1631">
        <ele>480.38023915736</ele>
        <time>2014-05-31T15:05:25Z</time>
      </trkpt>
      <trkpt lat="45.27134" lon="5.16315">
        <ele>480.38023915736</ele>
        <time>2014-05-31T15:05:30Z</time>
      </trkpt>
      <trkpt lat="45.27136" lon="5.1632">
        <ele>480.38023915736</ele>
        <time>2014-05-31T15:05:35Z</time>
      </trkpt>
      <trkpt lat="45.27136" lon="5.16326">
        <ele>480.32323762947</ele>
        <time>2014-05-31T15:05:40Z</time>
      </trkpt>
      <trkpt lat="45.27135" lon="5.16326">
        <ele>480.32323762947</ele>
        <time>2014-05-31T15:05:45Z</time>
      </trkpt>
      <trkpt lat="45.27135" lon="5.16326">
        <ele>480.32323762947</ele>
        <time>2014-05-31T15:05:50Z</time>
      </trkpt>
      <trkpt lat="45.27134" lon="5.16327">
        <ele>480.32323762947</ele>
        <time>2014-05-31T15:05:55Z</time>
      </trkpt>
      <trkpt lat="45.27134" lon="5.16326">
        <ele>480.32323762947</ele>
        <time>2014-05-31T15:06:00Z</time>
      </trkpt>
      <trkpt lat="45.27134" lon="5.16326">
        <ele>480.32323762947</ele>
        <time>2014-05-31T15:06:05Z</time>
      </trkpt>
      <trkpt lat="45.27131" lon="5.16327">
        <ele>480.32323762947</ele>
        <time>2014-05-31T15:06:10Z</time>
      </trkpt>
      <trkpt lat="45.27126" lon="5.1633">
        <ele>480.56490530301</ele>
        <time>2014-05-31T15:06:15Z</time>
      </trkpt>
      <trkpt lat="45.27122" lon="5.16331">
        <ele>480.56490530301</ele>
        <time>2014-05-31T15:06:20Z</time>
      </trkpt>
      <trkpt lat="45.27122" lon="5.16328">
        <ele>480.56490530301</ele>
        <time>2014-05-31T15:06:25Z</time>
      </trkpt>
      <trkpt lat="45.27119" lon="5.16329">
        <ele>480.75057892236</ele>
        <time>2014-05-31T15:06:30Z</time>
      </trkpt>
      <trkpt lat="45.27112" lon="5.16335">
        <ele>480.75057892236</ele>
        <time>2014-05-31T15:06:35Z</time>
      </trkpt>
      <trkpt lat="45.27109" lon="5.16341">
        <ele>479.93224313508</ele>
        <time>2014-05-31T15:06:40Z</time>
      </trkpt>
      <trkpt lat="45.27107" lon="5.16346">
        <ele>479.93224313508</ele>
        <time>2014-05-31T15:06:45Z</time>
      </trkpt>
      <trkpt lat="45.27103" lon="5.16352">
        <ele>478.77643506982</ele>
        <time>2014-05-31T15:06:50Z</time>
      </trkpt>
      <trkpt lat="45.27102" lon="5.16361">
        <ele>478.77643506982</ele>
        <time>2014-05-31T15:06:55Z</time>
      </trkpt>
      <trkpt lat="45.271" lon="5.1637">
        <ele>477.52708023427</ele>
        <time>2014-05-31T15:07:00Z</time>
      </trkpt>
      <trkpt lat="45.27098" lon="5.16379">
        <ele>477.52708023427</ele>
        <time>2014-05-31T15:07:05Z</time>
      </trkpt>
      <trkpt lat="45.27094" lon="5.16385">
        <ele>476.20877236314</ele>
        <time>2014-05-31T15:07:10Z</time>
      </trkpt>
      <trkpt lat="45.2709" lon="5.16389">
        <ele>476.20877236314</ele>
        <time>2014-05-31T15:07:15Z</time>
      </trkpt>
      <trkpt lat="45.27083" lon="5.16395">
        <ele>476.61712684484</ele>
        <time>2014-05-31T15:07:20Z</time>
      </trkpt>
      <trkpt lat="45.27079" lon="5.164">
        <ele>476.61712684484</ele>
        <time>2014-05-31T15:07:25Z</time>
      </trkpt>
      <trkpt lat="45.2708" lon="5.16401">
        <ele>476.61712684484</ele>
        <time>2014-05-31T15:07:30Z</time>
      </trkpt>
      <trkpt lat="45.2708" lon="5.16402">
        <ele>476.61712684484</ele>
        <time>2014-05-31T15:07:35Z</time>
      </trkpt>
      <trkpt lat="45.27079" lon="5.16402">
        <ele>476.61712684484</ele>
        <time>2014-05-31T15:07:40Z</time>
      </trkpt>
      <trkpt lat="45.27073" lon="5.16399">
        <ele>477.88912370735</ele>
        <time>2014-05-31T15:07:45Z</time>
      </trkpt>
      <trkpt lat="45.27066" lon="5.16397">
        <ele>477.88912370735</ele>
        <time>2014-05-31T15:07:50Z</time>
      </trkpt>
      <trkpt lat="45.27059" lon="5.16397">
        <ele>479.45335040315</ele>
        <time>2014-05-31T15:07:55Z</time>
      </trkpt>
      <trkpt lat="45.27055" lon="5.16399">
        <ele>479.45335040315</ele>
        <time>2014-05-31T15:08:00Z</time>
      </trkpt>
      <trkpt lat="45.27051" lon="5.16401">
        <ele>481.09665259136</ele>
        <time>2014-05-31T15:08:05Z</time>
      </trkpt>
      <trkpt lat="45.27044" lon="5.16401">
        <ele>481.09665259136</ele>
        <time>2014-05-31T15:08:10Z</time>
      </trkpt>
      <trkpt lat="45.27038" lon="5.16402">
        <ele>482.03051989364</ele>
        <time>2014-05-31T15:08:15Z</time>
      </trkpt>
      <trkpt lat="45.27036" lon="5.16409">
        <ele>482.03051989364</ele>
        <time>2014-05-31T15:08:20Z</time>
      </trkpt>
      <trkpt lat="45.27029" lon="5.16417">
        <ele>482.11727926292</ele>
        <time>2014-05-31T15:08:25Z</time>
      </trkpt>
      <trkpt lat="45.27015" lon="5.16423">
        <ele>483.04761935372</ele>
        <time>2014-05-31T15:08:30Z</time>
      </trkpt>
      <trkpt lat="45.27006" lon="5.16425">
        <ele>484.44023752466</ele>
        <time>2014-05-31T15:08:35Z</time>
      </trkpt>
      <trkpt lat="45.26996" lon="5.1643">
        <ele>486.81969850006</ele>
        <time>2014-05-31T15:08:40Z</time>
      </trkpt>
      <trkpt lat="45.26982" lon="5.16437">
        <ele>488.78148834321</ele>
        <time>2014-05-31T15:08:45Z</time>
      </trkpt>
      <trkpt lat="45.26972" lon="5.16442">
        <ele>490.19282675939</ele>
        <time>2014-05-31T15:08:50Z</time>
      </trkpt>
      <trkpt lat="45.26961" lon="5.16445">
        <ele>491.43671381053</ele>
        <time>2014-05-31T15:08:55Z</time>
      </trkpt>
      <trkpt lat="45.2694" lon="5.16446">
        <ele>493.66119539737</ele>
        <time>2014-05-31T15:09:00Z</time>
      </trkpt>
      <trkpt lat="45.26919" lon="5.16446">
        <ele>495.01628927998</ele>
        <time>2014-05-31T15:09:05Z</time>
      </trkpt>
      <trkpt lat="45.26887" lon="5.16455">
        <ele>495.89447875267</ele>
        <time>2014-05-31T15:09:10Z</time>
      </trkpt>
      <trkpt lat="45.26869" lon="5.16463">
        <ele>496.2285245818</ele>
        <time>2014-05-31T15:09:15Z</time>
      </trkpt>
      <trkpt lat="45.26853" lon="5.16476">
        <ele>496.83683403139</ele>
        <time>2014-05-31T15:09:20Z</time>
      </trkpt>
      <trkpt lat="45.26843" lon="5.16486">
        <ele>497.94381211653</ele>
        <time>2014-05-31T15:09:25Z</time>
      </trkpt>
      <trkpt lat="45.26834" lon="5.16494">
        <ele>498.81935065582</ele>
        <time>2014-05-31T15:09:30Z</time>
      </trkpt>
      <trkpt lat="45.26825" lon="5.165">
        <ele>499.94060221992</ele>
        <time>2014-05-31T15:09:35Z</time>
      </trkpt>
      <trkpt lat="45.26818" lon="5.16505">
        <ele>499.94060221992</ele>
        <time>2014-05-31T15:09:40Z</time>
      </trkpt>
      <trkpt lat="45.26816" lon="5.16508">
        <ele>501.53289874869</ele>
        <time>2014-05-31T15:09:45Z</time>
      </trkpt>
      <trkpt lat="45.26812" lon="5.16512">
        <ele>501.53289874869</ele>
        <time>2014-05-31T15:09:50Z</time>
      </trkpt>
      <trkpt lat="45.26805" lon="5.16519">
        <ele>503.70290715314</ele>
        <time>2014-05-31T15:09:55Z</time>
      </trkpt>
      <trkpt lat="45.26802" lon="5.16527">
        <ele>503.70290715314</ele>
        <time>2014-05-31T15:10:00Z</time>
      </trkpt>
      <trkpt lat="45.26798" lon="5.16535">
        <ele>505.20769178071</ele>
        <time>2014-05-31T15:10:05Z</time>
      </trkpt>
      <trkpt lat="45.26793" lon="5.16539">
        <ele>505.20769178071</ele>
        <time>2014-05-31T15:10:10Z</time>
      </trkpt>
      <trkpt lat="45.26788" lon="5.16542">
        <ele>506.49721161432</ele>
        <time>2014-05-31T15:10:15Z</time>
      </trkpt>
      <trkpt lat="45.26786" lon="5.16546">
        <ele>506.49721161432</ele>
        <time>2014-05-31T15:10:20Z</time>
      </trkpt>
      <trkpt lat="45.26787" lon="5.16548">
        <ele>506.49721161432</ele>
        <time>2014-05-31T15:10:25Z</time>
      </trkpt>
      <trkpt lat="45.26788" lon="5.16549">
        <ele>506.49721161432</ele>
        <time>2014-05-31T15:10:30Z</time>
      </trkpt>
      <trkpt lat="45.26788" lon="5.16549">
        <ele>506.49721161432</ele>
        <time>2014-05-31T15:10:35Z</time>
      </trkpt>
      <trkpt lat="45.26788" lon="5.16549">
        <ele>506.49721161432</ele>
        <time>2014-05-31T15:10:40Z</time>
      </trkpt>
      <trkpt lat="45.26788" lon="5.16549">
        <ele>506.49721161432</ele>
        <time>2014-05-31T15:10:45Z</time>
      </trkpt>
      <trkpt lat="45.26788" lon="5.16549">
        <ele>506.49721161432</ele>
        <time>2014-05-31T15:10:50Z</time>
      </trkpt>
      <trkpt lat="45.26788" lon="5.16549">
        <ele>506.49721161432</ele>
        <time>2014-05-31T15:10:55Z</time>
      </trkpt>
      <trkpt lat="45.26788" lon="5.16549">
        <ele>506.49721161432</ele>
        <time>2014-05-31T15:11:00Z</time>
      </trkpt>
      <trkpt lat="45.26788" lon="5.16549">
        <ele>506.49721161432</ele>
        <time>2014-05-31T15:11:05Z</time>
      </trkpt>
      <trkpt lat="45.26788" lon="5.16549">
        <ele>506.49721161432</ele>
        <time>2014-05-31T15:11:10Z</time>
      </trkpt>
      <trkpt lat="45.26788" lon="5.1655">
        <ele>506.49721161432</ele>
        <time>2014-05-31T15:11:15Z</time>
      </trkpt>
      <trkpt lat="45.26788" lon="5.16551">
        <ele>506.49721161432</ele>
        <time>2014-05-31T15:11:20Z</time>
      </trkpt>
      <trkpt lat="45.26788" lon="5.16551">
        <ele>508.82491286883</ele>
        <time>2014-05-31T15:11:25Z</time>
      </trkpt>
      <trkpt lat="45.26787" lon="5.16551">
        <ele>508.82491286883</ele>
        <time>2014-05-31T15:11:30Z</time>
      </trkpt>
      <trkpt lat="45.26787" lon="5.16551">
        <ele>508.82491286883</ele>
        <time>2014-05-31T15:11:35Z</time>
      </trkpt>
      <trkpt lat="45.26786" lon="5.16554">
        <ele>508.82491286883</ele>
        <time>2014-05-31T15:11:40Z</time>
      </trkpt>
      <trkpt lat="45.26783" lon="5.16556">
        <ele>508.82491286883</ele>
        <time>2014-05-31T15:11:45Z</time>
      </trkpt>
      <trkpt lat="45.26779" lon="5.16559">
        <ele>509.80421016167</ele>
        <time>2014-05-31T15:11:50Z</time>
      </trkpt>
      <trkpt lat="45.26774" lon="5.16562">
        <ele>509.80421016167</ele>
        <time>2014-05-31T15:11:55Z</time>
      </trkpt>
      <trkpt lat="45.26769" lon="5.16564">
        <ele>509.7928872813</ele>
        <time>2014-05-31T15:12:00Z</time>
      </trkpt>
      <trkpt lat="45.26765" lon="5.16567">
        <ele>509.7928872813</ele>
        <time>2014-05-31T15:12:05Z</time>
      </trkpt>
      <trkpt lat="45.26761" lon="5.16572">
        <ele>510.3502560508</ele>
        <time>2014-05-31T15:12:10Z</time>
      </trkpt>
      <trkpt lat="45.2676" lon="5.16581">
        <ele>510.3502560508</ele>
        <time>2014-05-31T15:12:15Z</time>
      </trkpt>
      <trkpt lat="45.26758" lon="5.1659">
        <ele>511.50727877764</ele>
        <time>2014-05-31T15:12:20Z</time>
      </trkpt>
      <trkpt lat="45.26755" lon="5.16598">
        <ele>511.50727877764</ele>
        <time>2014-05-31T15:12:25Z</time>
      </trkpt>
      <trkpt lat="45.2675" lon="5.16605">
        <ele>512.55606836942</ele>
        <time>2014-05-31T15:12:30Z</time>
      </trkpt>
      <trkpt lat="45.26747" lon="5.16612">
        <ele>512.55606836942</ele>
        <time>2014-05-31T15:12:35Z</time>
      </trkpt>
      <trkpt lat="45.2674" lon="5.16615">
        <ele>513.82106689882</ele>
        <time>2014-05-31T15:12:40Z</time>
      </trkpt>
      <trkpt lat="45.26734" lon="5.16621">
        <ele>513.82106689882</ele>
        <time>2014-05-31T15:12:45Z</time>
      </trkpt>
      <trkpt lat="45.26727" lon="5.16625">
        <ele>515.12677509069</ele>
        <time>2014-05-31T15:12:50Z</time>
      </trkpt>
      <trkpt lat="45.2672" lon="5.16632">
        <ele>515.12677509069</ele>
        <time>2014-05-31T15:12:55Z</time>
      </trkpt>
      <trkpt lat="45.26716" lon="5.1664">
        <ele>516.59875739756</ele>
        <time>2014-05-31T15:13:00Z</time>
      </trkpt>
      <trkpt lat="45.26712" lon="5.16648">
        <ele>516.59875739756</ele>
        <time>2014-05-31T15:13:05Z</time>
      </trkpt>
      <trkpt lat="45.26708" lon="5.16658">
        <ele>518.98704088604</ele>
        <time>2014-05-31T15:13:10Z</time>
      </trkpt>
      <trkpt lat="45.26706" lon="5.16667">
        <ele>518.98704088604</ele>
        <time>2014-05-31T15:13:15Z</time>
      </trkpt>
      <trkpt lat="45.26701" lon="5.16673">
        <ele>521.08178351413</ele>
        <time>2014-05-31T15:13:20Z</time>
      </trkpt>
      <trkpt lat="45.26697" lon="5.16684">
        <ele>521.08178351413</ele>
        <time>2014-05-31T15:13:25Z</time>
      </trkpt>
      <trkpt lat="45.26693" lon="5.16694">
        <ele>523.31931026124</ele>
        <time>2014-05-31T15:13:30Z</time>
      </trkpt>
      <trkpt lat="45.26692" lon="5.16706">
        <ele>523.31931026124</ele>
        <time>2014-05-31T15:13:35Z</time>
      </trkpt>
      <trkpt lat="45.2669" lon="5.16715">
        <ele>525.09478758178</ele>
        <time>2014-05-31T15:13:40Z</time>
      </trkpt>
      <trkpt lat="45.26687" lon="5.16723">
        <ele>525.09478758178</ele>
        <time>2014-05-31T15:13:45Z</time>
      </trkpt>
      <trkpt lat="45.26684" lon="5.1673">
        <ele>526.78590717539</ele>
        <time>2014-05-31T15:13:50Z</time>
      </trkpt>
      <trkpt lat="45.26678" lon="5.16735">
        <ele>526.78590717539</ele>
        <time>2014-05-31T15:13:55Z</time>
      </trkpt>
      <trkpt lat="45.26675" lon="5.16743">
        <ele>527.37387186309</ele>
        <time>2014-05-31T15:14:00Z</time>
      </trkpt>
      <trkpt lat="45.26673" lon="5.16755">
        <ele>527.37387186309</ele>
        <time>2014-05-31T15:14:05Z</time>
      </trkpt>
      <trkpt lat="45.26673" lon="5.16764">
        <ele>528.74247238328</ele>
        <time>2014-05-31T15:14:10Z</time>
      </trkpt>
      <trkpt lat="45.2667" lon="5.16768">
        <ele>528.74247238328</ele>
        <time>2014-05-31T15:14:15Z</time>
      </trkpt>
      <trkpt lat="45.26665" lon="5.16777">
        <ele>530.30039740137</ele>
        <time>2014-05-31T15:14:20Z</time>
      </trkpt>
      <trkpt lat="45.26658" lon="5.16784">
        <ele>530.30039740137</ele>
        <time>2014-05-31T15:14:25Z</time>
      </trkpt>
      <trkpt lat="45.26651" lon="5.16788">
        <ele>532.72425551996</ele>
        <time>2014-05-31T15:14:30Z</time>
      </trkpt>
      <trkpt lat="45.26648" lon="5.1679">
        <ele>532.72425551996</ele>
        <time>2014-05-31T15:14:35Z</time>
      </trkpt>
      <trkpt lat="45.26641" lon="5.16794">
        <ele>534.69308949713</ele>
        <time>2014-05-31T15:14:40Z</time>
      </trkpt>
      <trkpt lat="45.26634" lon="5.16797">
        <ele>534.69308949713</ele>
        <time>2014-05-31T15:14:45Z</time>
      </trkpt>
      <trkpt lat="45.26629" lon="5.168">
        <ele>534.3069972379</ele>
        <time>2014-05-31T15:14:50Z</time>
      </trkpt>
      <trkpt lat="45.26622" lon="5.16805">
        <ele>534.3069972379</ele>
        <time>2014-05-31T15:14:55Z</time>
      </trkpt>
      <trkpt lat="45.26612" lon="5.16811">
        <ele>535.80733577601</ele>
        <time>2014-05-31T15:15:00Z</time>
      </trkpt>
      <trkpt lat="45.26605" lon="5.16816">
        <ele>535.80733577601</ele>
        <time>2014-05-31T15:15:05Z</time>
      </trkpt>
      <trkpt lat="45.26597" lon="5.16819">
        <ele>537.25333676718</ele>
        <time>2014-05-31T15:15:10Z</time>
      </trkpt>
      <trkpt lat="45.26593" lon="5.16826">
        <ele>537.25333676718</ele>
        <time>2014-05-31T15:15:15Z</time>
      </trkpt>
      <trkpt lat="45.26589" lon="5.16832">
        <ele>538.30252744566</ele>
        <time>2014-05-31T15:15:20Z</time>
      </trkpt>
      <trkpt lat="45.26583" lon="5.1684">
        <ele>538.30252744566</ele>
        <time>2014-05-31T15:15:25Z</time>
      </trkpt>
      <trkpt lat="45.26577" lon="5.1685">
        <ele>539.41695332838</ele>
        <time>2014-05-31T15:15:30Z</time>
      </trkpt>
      <trkpt lat="45.26571" lon="5.16857">
        <ele>539.41695332838</ele>
        <time>2014-05-31T15:15:35Z</time>
      </trkpt>
      <trkpt lat="45.26566" lon="5.16867">
        <ele>540.62106751228</ele>
        <time>2014-05-31T15:15:40Z</time>
      </trkpt>
      <trkpt lat="45.26559" lon="5.16875">
        <ele>541.79320340615</ele>
        <time>2014-05-31T15:15:45Z</time>
      </trkpt>
      <trkpt lat="45.26551" lon="5.16883">
        <ele>542.97927925239</ele>
        <time>2014-05-31T15:15:50Z</time>
      </trkpt>
      <trkpt lat="45.26544" lon="5.16889">
        <ele>542.97927925239</ele>
        <time>2014-05-31T15:15:55Z</time>
      </trkpt>
      <trkpt lat="45.26537" lon="5.16894">
        <ele>544.16418819904</ele>
        <time>2014-05-31T15:16:00Z</time>
      </trkpt>
      <trkpt lat="45.26529" lon="5.16896">
        <ele>544.16418819904</ele>
        <time>2014-05-31T15:16:05Z</time>
      </trkpt>
      <trkpt lat="45.26522" lon="5.16898">
        <ele>545.10338630912</ele>
        <time>2014-05-31T15:16:10Z</time>
      </trkpt>
      <trkpt lat="45.26515" lon="5.16897">
        <ele>545.10338630912</ele>
        <time>2014-05-31T15:16:15Z</time>
      </trkpt>
      <trkpt lat="45.26508" lon="5.16898">
        <ele>545.78717308748</ele>
        <time>2014-05-31T15:16:20Z</time>
      </trkpt>
      <trkpt lat="45.265" lon="5.169">
        <ele>545.78717308748</ele>
        <time>2014-05-31T15:16:25Z</time>
      </trkpt>
      <trkpt lat="45.26493" lon="5.16902">
        <ele>546.32258417198</ele>
        <time>2014-05-31T15:16:30Z</time>
      </trkpt>
      <trkpt lat="45.26485" lon="5.16904">
        <ele>546.32258417198</ele>
        <time>2014-05-31T15:16:35Z</time>
      </trkpt>
      <trkpt lat="45.26478" lon="5.16907">
        <ele>546.57864229918</ele>
        <time>2014-05-31T15:16:40Z</time>
      </trkpt>
      <trkpt lat="45.26471" lon="5.1691">
        <ele>546.57864229918</ele>
        <time>2014-05-31T15:16:45Z</time>
      </trkpt>
      <trkpt lat="45.26464" lon="5.1691">
        <ele>546.63653452237</ele>
        <time>2014-05-31T15:16:50Z</time>
      </trkpt>
      <trkpt lat="45.26457" lon="5.16909">
        <ele>546.63653452237</ele>
        <time>2014-05-31T15:16:55Z</time>
      </trkpt>
      <trkpt lat="45.26448" lon="5.1691">
        <ele>546.61526768785</ele>
        <time>2014-05-31T15:17:00Z</time>
      </trkpt>
      <trkpt lat="45.26441" lon="5.1691">
        <ele>546.61526768785</ele>
        <time>2014-05-31T15:17:05Z</time>
      </trkpt>
      <trkpt lat="45.26433" lon="5.16909">
        <ele>546.81265832406</ele>
        <time>2014-05-31T15:17:10Z</time>
      </trkpt>
      <trkpt lat="45.26425" lon="5.16908">
        <ele>546.81265832406</ele>
        <time>2014-05-31T15:17:15Z</time>
      </trkpt>
      <trkpt lat="45.26417" lon="5.16907">
        <ele>546.92756349222</ele>
        <time>2014-05-31T15:17:20Z</time>
      </trkpt>
      <trkpt lat="45.2641" lon="5.16907">
        <ele>546.92756349222</ele>
        <time>2014-05-31T15:17:25Z</time>
      </trkpt>
      <trkpt lat="45.26402" lon="5.16906">
        <ele>546.91173853802</ele>
        <time>2014-05-31T15:17:30Z</time>
      </trkpt>
      <trkpt lat="45.26395" lon="5.16906">
        <ele>546.91173853802</ele>
        <time>2014-05-31T15:17:35Z</time>
      </trkpt>
      <trkpt lat="45.26388" lon="5.16905">
        <ele>546.74963075127</ele>
        <time>2014-05-31T15:17:40Z</time>
      </trkpt>
      <trkpt lat="45.26382" lon="5.16904">
        <ele>546.74963075127</ele>
        <time>2014-05-31T15:17:45Z</time>
      </trkpt>
      <trkpt lat="45.26383" lon="5.16904">
        <ele>546.74963075127</ele>
        <time>2014-05-31T15:17:50Z</time>
      </trkpt>
      <trkpt lat="45.26383" lon="5.16905">
        <ele>546.74963075127</ele>
        <time>2014-05-31T15:17:55Z</time>
      </trkpt>
      <trkpt lat="45.26383" lon="5.16905">
        <ele>546.74963075127</ele>
        <time>2014-05-31T15:18:00Z</time>
      </trkpt>
      <trkpt lat="45.26383" lon="5.16905">
        <ele>546.74963075127</ele>
        <time>2014-05-31T15:18:05Z</time>
      </trkpt>
      <trkpt lat="45.26382" lon="5.16905">
        <ele>546.71541392235</ele>
        <time>2014-05-31T15:18:10Z</time>
      </trkpt>
      <trkpt lat="45.26374" lon="5.16905">
        <ele>546.71541392235</ele>
        <time>2014-05-31T15:18:15Z</time>
      </trkpt>
      <trkpt lat="45.26367" lon="5.16907">
        <ele>546.35656103741</ele>
        <time>2014-05-31T15:18:20Z</time>
      </trkpt>
      <trkpt lat="45.26362" lon="5.16912">
        <ele>546.35656103741</ele>
        <time>2014-05-31T15:18:25Z</time>
      </trkpt>
      <trkpt lat="45.26359" lon="5.16921">
        <ele>545.88872258335</ele>
        <time>2014-05-31T15:18:30Z</time>
      </trkpt>
      <trkpt lat="45.26357" lon="5.16932">
        <ele>545.88872258335</ele>
        <time>2014-05-31T15:18:35Z</time>
      </trkpt>
      <trkpt lat="45.26355" lon="5.16942">
        <ele>545.32459586164</ele>
        <time>2014-05-31T15:18:40Z</time>
      </trkpt>
      <trkpt lat="45.26354" lon="5.16952">
        <ele>545.32459586164</ele>
        <time>2014-05-31T15:18:45Z</time>
      </trkpt>
      <trkpt lat="45.26352" lon="5.16962">
        <ele>544.79142356186</ele>
        <time>2014-05-31T15:18:50Z</time>
      </trkpt>
      <trkpt lat="45.2635" lon="5.16972">
        <ele>544.79142356186</ele>
        <time>2014-05-31T15:18:55Z</time>
      </trkpt>
      <trkpt lat="45.26349" lon="5.16981">
        <ele>544.17634739715</ele>
        <time>2014-05-31T15:19:00Z</time>
      </trkpt>
      <trkpt lat="45.26347" lon="5.16991">
        <ele>544.17634739715</ele>
        <time>2014-05-31T15:19:05Z</time>
      </trkpt>
      <trkpt lat="45.26346" lon="5.17001">
        <ele>543.66315509058</ele>
        <time>2014-05-31T15:19:10Z</time>
      </trkpt>
      <trkpt lat="45.26343" lon="5.17011">
        <ele>543.66315509058</ele>
        <time>2014-05-31T15:19:15Z</time>
      </trkpt>
      <trkpt lat="45.2634" lon="5.1702">
        <ele>543.16234421536</ele>
        <time>2014-05-31T15:19:20Z</time>
      </trkpt>
      <trkpt lat="45.26337" lon="5.17029">
        <ele>543.16234421536</ele>
        <time>2014-05-31T15:19:25Z</time>
      </trkpt>
      <trkpt lat="45.26335" lon="5.17038">
        <ele>542.63407663382</ele>
        <time>2014-05-31T15:19:30Z</time>
      </trkpt>
      <trkpt lat="45.26331" lon="5.17047">
        <ele>542.63407663382</ele>
        <time>2014-05-31T15:19:35Z</time>
      </trkpt>
      <trkpt lat="45.26327" lon="5.17057">
        <ele>542.21433721377</ele>
        <time>2014-05-31T15:19:40Z</time>
      </trkpt>
      <trkpt lat="45.26324" lon="5.17066">
        <ele>542.21433721377</ele>
        <time>2014-05-31T15:19:45Z</time>
      </trkpt>
      <trkpt lat="45.2632" lon="5.17075">
        <ele>541.72606570736</ele>
        <time>2014-05-31T15:19:50Z</time>
      </trkpt>
      <trkpt lat="45.26318" lon="5.17084">
        <ele>541.72606570736</ele>
        <time>2014-05-31T15:19:55Z</time>
      </trkpt>
      <trkpt lat="45.26314" lon="5.17093">
        <ele>541.3367356833</ele>
        <time>2014-05-31T15:20:00Z</time>
      </trkpt>
      <trkpt lat="45.2631" lon="5.17102">
        <ele>541.3367356833</ele>
        <time>2014-05-31T15:20:05Z</time>
      </trkpt>
      <trkpt lat="45.26305" lon="5.1711">
        <ele>540.95612856118</ele>
        <time>2014-05-31T15:20:10Z</time>
      </trkpt>
      <trkpt lat="45.263" lon="5.17117">
        <ele>540.95612856118</ele>
        <time>2014-05-31T15:20:15Z</time>
      </trkpt>
      <trkpt lat="45.26295" lon="5.17124">
        <ele>540.58697085187</ele>
        <time>2014-05-31T15:20:20Z</time>
      </trkpt>
      <trkpt lat="45.2629" lon="5.17132">
        <ele>540.58697085187</ele>
        <time>2014-05-31T15:20:25Z</time>
      </trkpt>
      <trkpt lat="45.26287" lon="5.17141">
        <ele>540.28927588634</ele>
        <time>2014-05-31T15:20:30Z</time>
      </trkpt>
      <trkpt lat="45.26284" lon="5.1715">
        <ele>540.28927588634</ele>
        <time>2014-05-31T15:20:35Z</time>
      </trkpt>
      <trkpt lat="45.26282" lon="5.1716">
        <ele>540.17596753112</ele>
        <time>2014-05-31T15:20:40Z</time>
      </trkpt>
      <trkpt lat="45.26282" lon="5.1717">
        <ele>540.17596753112</ele>
        <time>2014-05-31T15:20:45Z</time>
      </trkpt>
      <trkpt lat="45.26281" lon="5.1718">
        <ele>539.97634408582</ele>
        <time>2014-05-31T15:20:50Z</time>
      </trkpt>
      <trkpt lat="45.26281" lon="5.1719">
        <ele>539.97634408582</ele>
        <time>2014-05-31T15:20:55Z</time>
      </trkpt>
      <trkpt lat="45.26279" lon="5.17201">
        <ele>539.46853100261</ele>
        <time>2014-05-31T15:21:00Z</time>
      </trkpt>
      <trkpt lat="45.26278" lon="5.17211">
        <ele>539.46853100261</ele>
        <time>2014-05-31T15:21:05Z</time>
      </trkpt>
      <trkpt lat="45.26277" lon="5.17222">
        <ele>538.9088512094</ele>
        <time>2014-05-31T15:21:10Z</time>
      </trkpt>
      <trkpt lat="45.26275" lon="5.17232">
        <ele>538.9088512094</ele>
        <time>2014-05-31T15:21:15Z</time>
      </trkpt>
      <trkpt lat="45.26276" lon="5.17243">
        <ele>538.20336713785</ele>
        <time>2014-05-31T15:21:20Z</time>
      </trkpt>
      <trkpt lat="45.26275" lon="5.17254">
        <ele>538.20336713785</ele>
        <time>2014-05-31T15:21:25Z</time>
      </trkpt>
      <trkpt lat="45.26276" lon="5.17259">
        <ele>537.48149647673</ele>
        <time>2014-05-31T15:21:30Z</time>
      </trkpt>
      <trkpt lat="45.26276" lon="5.17258">
        <ele>537.48149647673</ele>
        <time>2014-05-31T15:21:35Z</time>
      </trkpt>
      <trkpt lat="45.26275" lon="5.17262">
        <ele>537.48149647673</ele>
        <time>2014-05-31T15:21:40Z</time>
      </trkpt>
      <trkpt lat="45.26276" lon="5.17272">
        <ele>536.90630782696</ele>
        <time>2014-05-31T15:21:45Z</time>
      </trkpt>
      <trkpt lat="45.26277" lon="5.17282">
        <ele>536.90630782696</ele>
        <time>2014-05-31T15:21:50Z</time>
      </trkpt>
      <trkpt lat="45.26279" lon="5.17292">
        <ele>536.28249088703</ele>
        <time>2014-05-31T15:21:55Z</time>
      </trkpt>
      <trkpt lat="45.26279" lon="5.17303">
        <ele>536.28249088703</ele>
        <time>2014-05-31T15:22:00Z</time>
      </trkpt>
      <trkpt lat="45.2628" lon="5.17313">
        <ele>535.77496461959</ele>
        <time>2014-05-31T15:22:05Z</time>
      </trkpt>
      <trkpt lat="45.2628" lon="5.17323">
        <ele>535.77496461959</ele>
        <time>2014-05-31T15:22:10Z</time>
      </trkpt>
      <trkpt lat="45.2628" lon="5.17334">
        <ele>535.40638679384</ele>
        <time>2014-05-31T15:22:15Z</time>
      </trkpt>
      <trkpt lat="45.2628" lon="5.17344">
        <ele>535.40638679384</ele>
        <time>2014-05-31T15:22:20Z</time>
      </trkpt>
      <trkpt lat="45.2628" lon="5.17354">
        <ele>535.18283209555</ele>
        <time>2014-05-31T15:22:25Z</time>
      </trkpt>
      <trkpt lat="45.2628" lon="5.17364">
        <ele>535.18283209555</ele>
        <time>2014-05-31T15:22:30Z</time>
      </trkpt>
      <trkpt lat="45.2628" lon="5.17374">
        <ele>534.95088522919</ele>
        <time>2014-05-31T15:22:35Z</time>
      </trkpt>
      <trkpt lat="45.2628" lon="5.17385">
        <ele>534.95088522919</ele>
        <time>2014-05-31T15:22:40Z</time>
      </trkpt>
      <trkpt lat="45.2628" lon="5.17395">
        <ele>534.98623642094</ele>
        <time>2014-05-31T15:22:45Z</time>
      </trkpt>
      <trkpt lat="45.26281" lon="5.17405">
        <ele>534.98623642094</ele>
        <time>2014-05-31T15:22:50Z</time>
      </trkpt>
      <trkpt lat="45.26281" lon="5.17414">
        <ele>534.85173514658</ele>
        <time>2014-05-31T15:22:55Z</time>
      </trkpt>
      <trkpt lat="45.26282" lon="5.17423">
        <ele>534.85173514658</ele>
        <time>2014-05-31T15:23:00Z</time>
      </trkpt>
      <trkpt lat="45.26281" lon="5.17433">
        <ele>534.64710927601</ele>
        <time>2014-05-31T15:23:05Z</time>
      </trkpt>
      <trkpt lat="45.26281" lon="5.17443">
        <ele>534.64710927601</ele>
        <time>2014-05-31T15:23:10Z</time>
      </trkpt>
      <trkpt lat="45.2628" lon="5.1745">
        <ele>534.47927387674</ele>
        <time>2014-05-31T15:23:15Z</time>
      </trkpt>
      <trkpt lat="45.26279" lon="5.17447">
        <ele>534.47927387674</ele>
        <time>2014-05-31T15:23:20Z</time>
      </trkpt>
      <trkpt lat="45.26275" lon="5.17445">
        <ele>534.47927387674</ele>
        <time>2014-05-31T15:23:25Z</time>
      </trkpt>
      <trkpt lat="45.26275" lon="5.17445">
        <ele>534.47927387674</ele>
        <time>2014-05-31T15:23:30Z</time>
      </trkpt>
      <trkpt lat="45.26276" lon="5.17445">
        <ele>534.47927387674</ele>
        <time>2014-05-31T15:23:35Z</time>
      </trkpt>
      <trkpt lat="45.26279" lon="5.1745">
        <ele>534.18769700519</ele>
        <time>2014-05-31T15:23:40Z</time>
      </trkpt>
      <trkpt lat="45.26279" lon="5.17459">
        <ele>534.18769700519</ele>
        <time>2014-05-31T15:23:45Z</time>
      </trkpt>
      <trkpt lat="45.26277" lon="5.17465">
        <ele>533.96976791403</ele>
        <time>2014-05-31T15:23:50Z</time>
      </trkpt>
      <trkpt lat="45.26275" lon="5.17465">
        <ele>533.96976791403</ele>
        <time>2014-05-31T15:23:55Z</time>
      </trkpt>
      <trkpt lat="45.26276" lon="5.17464">
        <ele>533.96976791403</ele>
        <time>2014-05-31T15:24:00Z</time>
      </trkpt>
      <trkpt lat="45.26276" lon="5.17464">
        <ele>533.96976791403</ele>
        <time>2014-05-31T15:24:05Z</time>
      </trkpt>
      <trkpt lat="45.26277" lon="5.17464">
        <ele>533.96976791403</ele>
        <time>2014-05-31T15:24:10Z</time>
      </trkpt>
      <trkpt lat="45.26277" lon="5.17464">
        <ele>533.96976791403</ele>
        <time>2014-05-31T15:24:15Z</time>
      </trkpt>
      <trkpt lat="45.26277" lon="5.17464">
        <ele>533.96976791403</ele>
        <time>2014-05-31T15:24:20Z</time>
      </trkpt>
      <trkpt lat="45.26276" lon="5.17464">
        <ele>533.96976791403</ele>
        <time>2014-05-31T15:24:25Z</time>
      </trkpt>
      <trkpt lat="45.26276" lon="5.17464">
        <ele>533.96976791403</ele>
        <time>2014-05-31T15:24:30Z</time>
      </trkpt>
      <trkpt lat="45.26276" lon="5.17464">
        <ele>533.96976791403</ele>
        <time>2014-05-31T15:24:35Z</time>
      </trkpt>
      <trkpt lat="45.26276" lon="5.17464">
        <ele>533.96976791403</ele>
        <time>2014-05-31T15:24:40Z</time>
      </trkpt>
      <trkpt lat="45.26276" lon="5.17464">
        <ele>533.96976791403</ele>
        <time>2014-05-31T15:24:45Z</time>
      </trkpt>
      <trkpt lat="45.26276" lon="5.17464">
        <ele>533.96976791403</ele>
        <time>2014-05-31T15:24:50Z</time>
      </trkpt>
      <trkpt lat="45.26276" lon="5.17464">
        <ele>533.96976791403</ele>
        <time>2014-05-31T15:24:55Z</time>
      </trkpt>
      <trkpt lat="45.26276" lon="5.17464">
        <ele>533.96976791403</ele>
        <time>2014-05-31T15:25:00Z</time>
      </trkpt>
      <trkpt lat="45.26276" lon="5.17468">
        <ele>533.96976791403</ele>
        <time>2014-05-31T15:25:05Z</time>
      </trkpt>
      <trkpt lat="45.26276" lon="5.17469">
        <ele>533.96976791403</ele>
        <time>2014-05-31T15:25:10Z</time>
      </trkpt>
      <trkpt lat="45.26277" lon="5.17469">
        <ele>533.59016538086</ele>
        <time>2014-05-31T15:25:15Z</time>
      </trkpt>
      <trkpt lat="45.26277" lon="5.17469">
        <ele>533.59016538086</ele>
        <time>2014-05-31T15:25:20Z</time>
      </trkpt>
      <trkpt lat="45.26277" lon="5.1747">
        <ele>533.59016538086</ele>
        <time>2014-05-31T15:25:25Z</time>
      </trkpt>
      <trkpt lat="45.26278" lon="5.17479">
        <ele>533.59016538086</ele>
        <time>2014-05-31T15:25:30Z</time>
      </trkpt>
      <trkpt lat="45.26279" lon="5.17489">
        <ele>533.32120866399</ele>
        <time>2014-05-31T15:25:35Z</time>
      </trkpt>
      <trkpt lat="45.26278" lon="5.175">
        <ele>533.32120866399</ele>
        <time>2014-05-31T15:25:40Z</time>
      </trkpt>
      <trkpt lat="45.26276" lon="5.1751">
        <ele>533.24189510245</ele>
        <time>2014-05-31T15:25:45Z</time>
      </trkpt>
      <trkpt lat="45.26275" lon="5.1752">
        <ele>533.24189510245</ele>
        <time>2014-05-31T15:25:50Z</time>
      </trkpt>
      <trkpt lat="45.26274" lon="5.17529">
        <ele>533.33835088591</ele>
        <time>2014-05-31T15:25:55Z</time>
      </trkpt>
      <trkpt lat="45.26271" lon="5.17539">
        <ele>533.33835088591</ele>
        <time>2014-05-31T15:26:00Z</time>
      </trkpt>
      <trkpt lat="45.26269" lon="5.17549">
        <ele>533.48187495348</ele>
        <time>2014-05-31T15:26:05Z</time>
      </trkpt>
      <trkpt lat="45.26267" lon="5.17559">
        <ele>533.48187495348</ele>
        <time>2014-05-31T15:26:10Z</time>
      </trkpt>
      <trkpt lat="45.26265" lon="5.17569">
        <ele>533.72596341062</ele>
        <time>2014-05-31T15:26:15Z</time>
      </trkpt>
      <trkpt lat="45.26264" lon="5.17579">
        <ele>533.72596341062</ele>
        <time>2014-05-31T15:26:20Z</time>
      </trkpt>
      <trkpt lat="45.26262" lon="5.17589">
        <ele>534.06220411812</ele>
        <time>2014-05-31T15:26:25Z</time>
      </trkpt>
      <trkpt lat="45.26261" lon="5.17598">
        <ele>534.06220411812</ele>
        <time>2014-05-31T15:26:30Z</time>
      </trkpt>
      <trkpt lat="45.26261" lon="5.17608">
        <ele>534.30956588552</ele>
        <time>2014-05-31T15:26:35Z</time>
      </trkpt>
      <trkpt lat="45.26261" lon="5.17618">
        <ele>534.30956588552</ele>
        <time>2014-05-31T15:26:40Z</time>
      </trkpt>
      <trkpt lat="45.26261" lon="5.17628">
        <ele>534.73286075494</ele>
        <time>2014-05-31T15:26:45Z</time>
      </trkpt>
      <trkpt lat="45.26262" lon="5.17638">
        <ele>534.73286075494</ele>
        <time>2014-05-31T15:26:50Z</time>
      </trkpt>
      <trkpt lat="45.26262" lon="5.17647">
        <ele>535.28870113732</ele>
        <time>2014-05-31T15:26:55Z</time>
      </trkpt>
      <trkpt lat="45.26263" lon="5.17657">
        <ele>535.28870113732</ele>
        <time>2014-05-31T15:27:00Z</time>
      </trkpt>
      <trkpt lat="45.26265" lon="5.17666">
        <ele>536.00854714905</ele>
        <time>2014-05-31T15:27:05Z</time>
      </trkpt>
      <trkpt lat="45.26267" lon="5.17676">
        <ele>536.00854714905</ele>
        <time>2014-05-31T15:27:10Z</time>
      </trkpt>
      <trkpt lat="45.26269" lon="5.17686">
        <ele>536.83460574973</ele>
        <time>2014-05-31T15:27:15Z</time>
      </trkpt>
      <trkpt lat="45.2627" lon="5.17696">
        <ele>536.83460574973</ele>
        <time>2014-05-31T15:27:20Z</time>
      </trkpt>
      <trkpt lat="45.26271" lon="5.17706">
        <ele>537.65537994531</ele>
        <time>2014-05-31T15:27:25Z</time>
      </trkpt>
      <trkpt lat="45.26271" lon="5.17716">
        <ele>537.65537994531</ele>
        <time>2014-05-31T15:27:30Z</time>
      </trkpt>
      <trkpt lat="45.26272" lon="5.17727">
        <ele>538.56933535355</ele>
        <time>2014-05-31T15:27:35Z</time>
      </trkpt>
      <trkpt lat="45.26273" lon="5.17738">
        <ele>538.56933535355</ele>
        <time>2014-05-31T15:27:40Z</time>
      </trkpt>
      <trkpt lat="45.26276" lon="5.17747">
        <ele>539.32158604411</ele>
        <time>2014-05-31T15:27:45Z</time>
      </trkpt>
      <trkpt lat="45.26279" lon="5.17757">
        <ele>539.32158604411</ele>
        <time>2014-05-31T15:27:50Z</time>
      </trkpt>
      <trkpt lat="45.26281" lon="5.17766">
        <ele>540.00789661279</ele>
        <time>2014-05-31T15:27:55Z</time>
      </trkpt>
      <trkpt lat="45.26284" lon="5.17775">
        <ele>540.00789661279</ele>
        <time>2014-05-31T15:28:00Z</time>
      </trkpt>
      <trkpt lat="45.26286" lon="5.17785">
        <ele>540.60191686775</ele>
        <time>2014-05-31T15:28:05Z</time>
      </trkpt>
      <trkpt lat="45.26288" lon="5.17794">
        <ele>540.60191686775</ele>
        <time>2014-05-31T15:28:10Z</time>
      </trkpt>
      <trkpt lat="45.2629" lon="5.17804">
        <ele>541.18039845879</ele>
        <time>2014-05-31T15:28:15Z</time>
      </trkpt>
      <trkpt lat="45.26293" lon="5.17812">
        <ele>541.18039845879</ele>
        <time>2014-05-31T15:28:20Z</time>
      </trkpt>
      <trkpt lat="45.26295" lon="5.17821">
        <ele>541.5118984802</ele>
        <time>2014-05-31T15:28:25Z</time>
      </trkpt>
      <trkpt lat="45.26297" lon="5.17829">
        <ele>541.5118984802</ele>
        <time>2014-05-31T15:28:30Z</time>
      </trkpt>
      <trkpt lat="45.26301" lon="5.17837">
        <ele>541.78621608294</ele>
        <time>2014-05-31T15:28:35Z</time>
      </trkpt>
      <trkpt lat="45.26303" lon="5.17845">
        <ele>541.78621608294</ele>
        <time>2014-05-31T15:28:40Z</time>
      </trkpt>
      <trkpt lat="45.26306" lon="5.17854">
        <ele>541.9488282836</ele>
        <time>2014-05-31T15:28:45Z</time>
      </trkpt>
      <trkpt lat="45.26309" lon="5.1786">
        <ele>541.9488282836</ele>
        <time>2014-05-31T15:28:50Z</time>
      </trkpt>
      <trkpt lat="45.26312" lon="5.17866">
        <ele>541.63252370746</ele>
        <time>2014-05-31T15:28:55Z</time>
      </trkpt>
      <trkpt lat="45.26315" lon="5.17872">
        <ele>541.63252370746</ele>
        <time>2014-05-31T15:29:00Z</time>
      </trkpt>
      <trkpt lat="45.26317" lon="5.17879">
        <ele>541.17576774951</ele>
        <time>2014-05-31T15:29:05Z</time>
      </trkpt>
      <trkpt lat="45.26321" lon="5.1789">
        <ele>541.17576774951</ele>
        <time>2014-05-31T15:29:10Z</time>
      </trkpt>
      <trkpt lat="45.26326" lon="5.17901">
        <ele>541.32492318455</ele>
        <time>2014-05-31T15:29:15Z</time>
      </trkpt>
      <trkpt lat="45.2633" lon="5.17911">
        <ele>541.32492318455</ele>
        <time>2014-05-31T15:29:20Z</time>
      </trkpt>
      <trkpt lat="45.26333" lon="5.1792">
        <ele>541.5593225297</ele>
        <time>2014-05-31T15:29:25Z</time>
      </trkpt>
      <trkpt lat="45.26335" lon="5.1793">
        <ele>541.5593225297</ele>
        <time>2014-05-31T15:29:30Z</time>
      </trkpt>
      <trkpt lat="45.26338" lon="5.17939">
        <ele>541.88631376533</ele>
        <time>2014-05-31T15:29:35Z</time>
      </trkpt>
      <trkpt lat="45.2634" lon="5.17948">
        <ele>541.88631376533</ele>
        <time>2014-05-31T15:29:40Z</time>
      </trkpt>
      <trkpt lat="45.26343" lon="5.17957">
        <ele>542.26924020953</ele>
        <time>2014-05-31T15:29:45Z</time>
      </trkpt>
      <trkpt lat="45.26346" lon="5.17966">
        <ele>542.26924020953</ele>
        <time>2014-05-31T15:29:50Z</time>
      </trkpt>
      <trkpt lat="45.2635" lon="5.17976">
        <ele>542.61636544856</ele>
        <time>2014-05-31T15:29:55Z</time>
      </trkpt>
      <trkpt lat="45.26353" lon="5.17984">
        <ele>542.61636544856</ele>
        <time>2014-05-31T15:30:00Z</time>
      </trkpt>
      <trkpt lat="45.26356" lon="5.17992">
        <ele>542.74194396168</ele>
        <time>2014-05-31T15:30:05Z</time>
      </trkpt>
      <trkpt lat="45.26359" lon="5.17999">
        <ele>542.74194396168</ele>
        <time>2014-05-31T15:30:10Z</time>
      </trkpt>
      <trkpt lat="45.26363" lon="5.18007">
        <ele>542.9212708136</ele>
        <time>2014-05-31T15:30:15Z</time>
      </trkpt>
      <trkpt lat="45.26367" lon="5.18014">
        <ele>542.9212708136</ele>
        <time>2014-05-31T15:30:20Z</time>
      </trkpt>
      <trkpt lat="45.26371" lon="5.18022">
        <ele>543.22195251914</ele>
        <time>2014-05-31T15:30:25Z</time>
      </trkpt>
      <trkpt lat="45.26375" lon="5.18029">
        <ele>543.22195251914</ele>
        <time>2014-05-31T15:30:30Z</time>
      </trkpt>
      <trkpt lat="45.26379" lon="5.18037">
        <ele>543.44691809145</ele>
        <time>2014-05-31T15:30:35Z</time>
      </trkpt>
      <trkpt lat="45.26382" lon="5.18045">
        <ele>543.44691809145</ele>
        <time>2014-05-31T15:30:40Z</time>
      </trkpt>
      <trkpt lat="45.26385" lon="5.18053">
        <ele>543.81732606104</ele>
        <time>2014-05-31T15:30:45Z</time>
      </trkpt>
      <trkpt lat="45.26388" lon="5.18062">
        <ele>543.81732606104</ele>
        <time>2014-05-31T15:30:50Z</time>
      </trkpt>
      <trkpt lat="45.26389" lon="5.18072">
        <ele>544.26389885794</ele>
        <time>2014-05-31T15:30:55Z</time>
      </trkpt>
      <trkpt lat="45.26392" lon="5.18081">
        <ele>544.26389885794</ele>
        <time>2014-05-31T15:31:00Z</time>
      </trkpt>
      <trkpt lat="45.26394" lon="5.1809">
        <ele>544.76549757041</ele>
        <time>2014-05-31T15:31:05Z</time>
      </trkpt>
      <trkpt lat="45.26397" lon="5.18097">
        <ele>544.76549757041</ele>
        <time>2014-05-31T15:31:10Z</time>
      </trkpt>
      <trkpt lat="45.26399" lon="5.18103">
        <ele>544.84125605102</ele>
        <time>2014-05-31T15:31:15Z</time>
      </trkpt>
      <trkpt lat="45.26401" lon="5.18107">
        <ele>544.84125605102</ele>
        <time>2014-05-31T15:31:20Z</time>
      </trkpt>
      <trkpt lat="45.26404" lon="5.18111">
        <ele>544.84125605102</ele>
        <time>2014-05-31T15:31:25Z</time>
      </trkpt>
      <trkpt lat="45.26405" lon="5.18117">
        <ele>544.11891102534</ele>
        <time>2014-05-31T15:31:30Z</time>
      </trkpt>
      <trkpt lat="45.26407" lon="5.18123">
        <ele>544.11891102534</ele>
        <time>2014-05-31T15:31:35Z</time>
      </trkpt>
      <trkpt lat="45.2641" lon="5.1813">
        <ele>544.12925617325</ele>
        <time>2014-05-31T15:31:40Z</time>
      </trkpt>
      <trkpt lat="45.26414" lon="5.18141">
        <ele>544.12925617325</ele>
        <time>2014-05-31T15:31:45Z</time>
      </trkpt>
      <trkpt lat="45.26416" lon="5.18151">
        <ele>544.51603522418</ele>
        <time>2014-05-31T15:31:50Z</time>
      </trkpt>
      <trkpt lat="45.26418" lon="5.18161">
        <ele>544.51603522418</ele>
        <time>2014-05-31T15:31:55Z</time>
      </trkpt>
      <trkpt lat="45.26419" lon="5.1817">
        <ele>544.84724972699</ele>
        <time>2014-05-31T15:32:00Z</time>
      </trkpt>
      <trkpt lat="45.2642" lon="5.18179">
        <ele>544.84724972699</ele>
        <time>2014-05-31T15:32:05Z</time>
      </trkpt>
      <trkpt lat="45.2642" lon="5.1819">
        <ele>545.2848449357</ele>
        <time>2014-05-31T15:32:10Z</time>
      </trkpt>
      <trkpt lat="45.26419" lon="5.182">
        <ele>545.2848449357</ele>
        <time>2014-05-31T15:32:15Z</time>
      </trkpt>
      <trkpt lat="45.26419" lon="5.1821">
        <ele>545.86330298864</ele>
        <time>2014-05-31T15:32:20Z</time>
      </trkpt>
      <trkpt lat="45.2642" lon="5.1822">
        <ele>545.86330298864</ele>
        <time>2014-05-31T15:32:25Z</time>
      </trkpt>
      <trkpt lat="45.26421" lon="5.1823">
        <ele>546.25392164417</ele>
        <time>2014-05-31T15:32:30Z</time>
      </trkpt>
      <trkpt lat="45.26423" lon="5.18239">
        <ele>546.25392164417</ele>
        <time>2014-05-31T15:32:35Z</time>
      </trkpt>
      <trkpt lat="45.26426" lon="5.18248">
        <ele>546.28239414642</ele>
        <time>2014-05-31T15:32:40Z</time>
      </trkpt>
      <trkpt lat="45.26429" lon="5.18258">
        <ele>546.28239414642</ele>
        <time>2014-05-31T15:32:45Z</time>
      </trkpt>
      <trkpt lat="45.26431" lon="5.18267">
        <ele>546.09088935389</ele>
        <time>2014-05-31T15:32:50Z</time>
      </trkpt>
      <trkpt lat="45.26435" lon="5.18276">
        <ele>546.09088935389</ele>
        <time>2014-05-31T15:32:55Z</time>
      </trkpt>
      <trkpt lat="45.26439" lon="5.18286">
        <ele>546.22969260246</ele>
        <time>2014-05-31T15:33:00Z</time>
      </trkpt>
      <trkpt lat="45.26442" lon="5.18296">
        <ele>546.22969260246</ele>
        <time>2014-05-31T15:33:05Z</time>
      </trkpt>
      <trkpt lat="45.26446" lon="5.18305">
        <ele>546.44396846755</ele>
        <time>2014-05-31T15:33:10Z</time>
      </trkpt>
      <trkpt lat="45.26451" lon="5.18314">
        <ele>546.44396846755</ele>
        <time>2014-05-31T15:33:15Z</time>
      </trkpt>
      <trkpt lat="45.26455" lon="5.18322">
        <ele>546.64151765057</ele>
        <time>2014-05-31T15:33:20Z</time>
      </trkpt>
      <trkpt lat="45.26459" lon="5.18329">
        <ele>546.64151765057</ele>
        <time>2014-05-31T15:33:25Z</time>
      </trkpt>
      <trkpt lat="45.26465" lon="5.18335">
        <ele>546.85226481016</ele>
        <time>2014-05-31T15:33:30Z</time>
      </trkpt>
      <trkpt lat="45.26471" lon="5.18339">
        <ele>546.85226481016</ele>
        <time>2014-05-31T15:33:35Z</time>
      </trkpt>
      <trkpt lat="45.26477" lon="5.18342">
        <ele>546.68599070675</ele>
        <time>2014-05-31T15:33:40Z</time>
      </trkpt>
      <trkpt lat="45.26483" lon="5.1835">
        <ele>546.68599070675</ele>
        <time>2014-05-31T15:33:45Z</time>
      </trkpt>
      <trkpt lat="45.26487" lon="5.1836">
        <ele>546.67570051366</ele>
        <time>2014-05-31T15:33:50Z</time>
      </trkpt>
      <trkpt lat="45.26492" lon="5.18369">
        <ele>546.67570051366</ele>
        <time>2014-05-31T15:33:55Z</time>
      </trkpt>
      <trkpt lat="45.26495" lon="5.18378">
        <ele>546.70955100991</ele>
        <time>2014-05-31T15:34:00Z</time>
      </trkpt>
      <trkpt lat="45.26498" lon="5.18387">
        <ele>546.70955100991</ele>
        <time>2014-05-31T15:34:05Z</time>
      </trkpt>
      <trkpt lat="45.26502" lon="5.18396">
        <ele>546.69821030003</ele>
        <time>2014-05-31T15:34:10Z</time>
      </trkpt>
      <trkpt lat="45.26507" lon="5.18404">
        <ele>546.69821030003</ele>
        <time>2014-05-31T15:34:15Z</time>
      </trkpt>
      <trkpt lat="45.26511" lon="5.18411">
        <ele>546.48698544163</ele>
        <time>2014-05-31T15:34:20Z</time>
      </trkpt>
      <trkpt lat="45.26514" lon="5.18416">
        <ele>546.48698544163</ele>
        <time>2014-05-31T15:34:25Z</time>
      </trkpt>
      <trkpt lat="45.26515" lon="5.18417">
        <ele>546.48698544163</ele>
        <time>2014-05-31T15:34:30Z</time>
      </trkpt>
      <trkpt lat="45.26518" lon="5.18424">
        <ele>546.0483994247</ele>
        <time>2014-05-31T15:34:35Z</time>
      </trkpt>
      <trkpt lat="45.26522" lon="5.18433">
        <ele>546.0483994247</ele>
        <time>2014-05-31T15:34:40Z</time>
      </trkpt>
      <trkpt lat="45.26527" lon="5.18446">
        <ele>545.71790880095</ele>
        <time>2014-05-31T15:34:45Z</time>
      </trkpt>
      <trkpt lat="45.26529" lon="5.18457">
        <ele>545.71790880095</ele>
        <time>2014-05-31T15:34:50Z</time>
      </trkpt>
      <trkpt lat="45.26531" lon="5.18467">
        <ele>545.37368654156</ele>
        <time>2014-05-31T15:34:55Z</time>
      </trkpt>
      <trkpt lat="45.26532" lon="5.18476">
        <ele>545.37368654156</ele>
        <time>2014-05-31T15:35:00Z</time>
      </trkpt>
      <trkpt lat="45.26534" lon="5.18485">
        <ele>545.1190519815</ele>
        <time>2014-05-31T15:35:05Z</time>
      </trkpt>
      <trkpt lat="45.26534" lon="5.18493">
        <ele>545.1190519815</ele>
        <time>2014-05-31T15:35:10Z</time>
      </trkpt>
      <trkpt lat="45.26535" lon="5.18498">
        <ele>544.96300504879</ele>
        <time>2014-05-31T15:35:15Z</time>
      </trkpt>
      <trkpt lat="45.26538" lon="5.18512">
        <ele>544.81271592566</ele>
        <time>2014-05-31T15:35:20Z</time>
      </trkpt>
      <trkpt lat="45.26539" lon="5.18522">
        <ele>544.81271592566</ele>
        <time>2014-05-31T15:35:25Z</time>
      </trkpt>
      <trkpt lat="45.2654" lon="5.18533">
        <ele>544.69743061809</ele>
        <time>2014-05-31T15:35:30Z</time>
      </trkpt>
      <trkpt lat="45.2654" lon="5.18534">
        <ele>544.69743061809</ele>
        <time>2014-05-31T15:35:35Z</time>
      </trkpt>
      <trkpt lat="45.26541" lon="5.18534">
        <ele>544.69743061809</ele>
        <time>2014-05-31T15:35:40Z</time>
      </trkpt>
      <trkpt lat="45.26541" lon="5.18535">
        <ele>544.69743061809</ele>
        <time>2014-05-31T15:35:45Z</time>
      </trkpt>
      <trkpt lat="45.26541" lon="5.18545">
        <ele>544.69743061809</ele>
        <time>2014-05-31T15:35:50Z</time>
      </trkpt>
      <trkpt lat="45.2654" lon="5.18555">
        <ele>544.5432531026</ele>
        <time>2014-05-31T15:35:55Z</time>
      </trkpt>
      <trkpt lat="45.26539" lon="5.18566">
        <ele>544.5432531026</ele>
        <time>2014-05-31T15:36:00Z</time>
      </trkpt>
      <trkpt lat="45.2654" lon="5.18575">
        <ele>544.57002873037</ele>
        <time>2014-05-31T15:36:05Z</time>
      </trkpt>
      <trkpt lat="45.2654" lon="5.18586">
        <ele>544.57002873037</ele>
        <time>2014-05-31T15:36:10Z</time>
      </trkpt>
      <trkpt lat="45.26542" lon="5.18596">
        <ele>544.62064877818</ele>
        <time>2014-05-31T15:36:15Z</time>
      </trkpt>
      <trkpt lat="45.26545" lon="5.18604">
        <ele>544.62064877818</ele>
        <time>2014-05-31T15:36:20Z</time>
      </trkpt>
      <trkpt lat="45.26546" lon="5.18605">
        <ele>544.62064877818</ele>
        <time>2014-05-31T15:36:25Z</time>
      </trkpt>
      <trkpt lat="45.26546" lon="5.18606">
        <ele>544.56387091736</ele>
        <time>2014-05-31T15:36:30Z</time>
      </trkpt>
      <trkpt lat="45.26547" lon="5.1861">
        <ele>544.56387091736</ele>
        <time>2014-05-31T15:36:35Z</time>
      </trkpt>
      <trkpt lat="45.26546" lon="5.18613">
        <ele>544.56387091736</ele>
        <time>2014-05-31T15:36:40Z</time>
      </trkpt>
      <trkpt lat="45.26546" lon="5.18614">
        <ele>544.56387091736</ele>
        <time>2014-05-31T15:36:45Z</time>
      </trkpt>
      <trkpt lat="45.26546" lon="5.18614">
        <ele>544.56387091736</ele>
        <time>2014-05-31T15:36:50Z</time>
      </trkpt>
      <trkpt lat="45.26546" lon="5.18615">
        <ele>544.56387091736</ele>
        <time>2014-05-31T15:36:55Z</time>
      </trkpt>
      <trkpt lat="45.26545" lon="5.18615">
        <ele>544.56387091736</ele>
        <time>2014-05-31T15:37:00Z</time>
      </trkpt>
      <trkpt lat="45.26545" lon="5.18612">
        <ele>544.65306558187</ele>
        <time>2014-05-31T15:37:05Z</time>
      </trkpt>
      <trkpt lat="45.26544" lon="5.18608">
        <ele>544.65306558187</ele>
        <time>2014-05-31T15:37:10Z</time>
      </trkpt>
      <trkpt lat="45.26543" lon="5.18603">
        <ele>544.65306558187</ele>
        <time>2014-05-31T15:37:15Z</time>
      </trkpt>
      <trkpt lat="45.26542" lon="5.18604">
        <ele>544.65306558187</ele>
        <time>2014-05-31T15:37:20Z</time>
      </trkpt>
      <trkpt lat="45.26539" lon="5.18608">
        <ele>544.35877358159</ele>
        <time>2014-05-31T15:37:25Z</time>
      </trkpt>
      <trkpt lat="45.26534" lon="5.18615">
        <ele>544.35877358159</ele>
        <time>2014-05-31T15:37:30Z</time>
      </trkpt>
      <trkpt lat="45.2653" lon="5.18623">
        <ele>544.30114286397</ele>
        <time>2014-05-31T15:37:35Z</time>
      </trkpt>
      <trkpt lat="45.26526" lon="5.1863">
        <ele>544.30114286397</ele>
        <time>2014-05-31T15:37:40Z</time>
      </trkpt>
      <trkpt lat="45.26521" lon="5.18638">
        <ele>544.21823838508</ele>
        <time>2014-05-31T15:37:45Z</time>
      </trkpt>
      <trkpt lat="45.26518" lon="5.18645">
        <ele>544.21823838508</ele>
        <time>2014-05-31T15:37:50Z</time>
      </trkpt>
      <trkpt lat="45.26515" lon="5.18653">
        <ele>544.04035195421</ele>
        <time>2014-05-31T15:37:55Z</time>
      </trkpt>
      <trkpt lat="45.26512" lon="5.18664">
        <ele>544.04035195421</ele>
        <time>2014-05-31T15:38:00Z</time>
      </trkpt>
      <trkpt lat="45.26509" lon="5.18674">
        <ele>544.06342121758</ele>
        <time>2014-05-31T15:38:05Z</time>
      </trkpt>
      <trkpt lat="45.26507" lon="5.18685">
        <ele>544.06342121758</ele>
        <time>2014-05-31T15:38:10Z</time>
      </trkpt>
      <trkpt lat="45.26506" lon="5.18694">
        <ele>544.27283961901</ele>
        <time>2014-05-31T15:38:15Z</time>
      </trkpt>
      <trkpt lat="45.26504" lon="5.18704">
        <ele>544.27283961901</ele>
        <time>2014-05-31T15:38:20Z</time>
      </trkpt>
      <trkpt lat="45.26501" lon="5.18713">
        <ele>544.58247768073</ele>
        <time>2014-05-31T15:38:25Z</time>
      </trkpt>
      <trkpt lat="45.265" lon="5.18723">
        <ele>544.58247768073</ele>
        <time>2014-05-31T15:38:30Z</time>
      </trkpt>
      <trkpt lat="45.265" lon="5.18734">
        <ele>544.98429189541</ele>
        <time>2014-05-31T15:38:35Z</time>
      </trkpt>
      <trkpt lat="45.265" lon="5.18745">
        <ele>544.98429189541</ele>
        <time>2014-05-31T15:38:40Z</time>
      </trkpt>
      <trkpt lat="45.26501" lon="5.18755">
        <ele>545.44173635926</ele>
        <time>2014-05-31T15:38:45Z</time>
      </trkpt>
      <trkpt lat="45.26501" lon="5.18764">
        <ele>545.44173635926</ele>
        <time>2014-05-31T15:38:50Z</time>
      </trkpt>
      <trkpt lat="45.26502" lon="5.18772">
        <ele>545.64697319996</ele>
        <time>2014-05-31T15:38:55Z</time>
      </trkpt>
      <trkpt lat="45.26503" lon="5.18782">
        <ele>545.64697319996</ele>
        <time>2014-05-31T15:39:00Z</time>
      </trkpt>
      <trkpt lat="45.26502" lon="5.18792">
        <ele>545.69016807481</ele>
        <time>2014-05-31T15:39:05Z</time>
      </trkpt>
      <trkpt lat="45.265" lon="5.18802">
        <ele>545.69016807481</ele>
        <time>2014-05-31T15:39:10Z</time>
      </trkpt>
      <trkpt lat="45.26498" lon="5.18812">
        <ele>545.6120795668</ele>
        <time>2014-05-31T15:39:15Z</time>
      </trkpt>
      <trkpt lat="45.26494" lon="5.18822">
        <ele>545.6120795668</ele>
        <time>2014-05-31T15:39:20Z</time>
      </trkpt>
      <trkpt lat="45.26492" lon="5.18832">
        <ele>545.86873135172</ele>
        <time>2014-05-31T15:39:25Z</time>
      </trkpt>
      <trkpt lat="45.26489" lon="5.18841">
        <ele>545.86873135172</ele>
        <time>2014-05-31T15:39:30Z</time>
      </trkpt>
      <trkpt lat="45.2649" lon="5.1885">
        <ele>546.40613984365</ele>
        <time>2014-05-31T15:39:35Z</time>
      </trkpt>
      <trkpt lat="45.26494" lon="5.18853">
        <ele>546.40613984365</ele>
        <time>2014-05-31T15:39:40Z</time>
      </trkpt>
      <trkpt lat="45.26501" lon="5.18855">
        <ele>546.42412014894</ele>
        <time>2014-05-31T15:39:45Z</time>
      </trkpt>
      <trkpt lat="45.26506" lon="5.18856">
        <ele>546.42412014894</ele>
        <time>2014-05-31T15:39:50Z</time>
      </trkpt>
      <trkpt lat="45.26512" lon="5.18858">
        <ele>546.72471558471</ele>
        <time>2014-05-31T15:39:55Z</time>
      </trkpt>
      <trkpt lat="45.26518" lon="5.18859">
        <ele>546.72471558471</ele>
        <time>2014-05-31T15:40:00Z</time>
      </trkpt>
      <trkpt lat="45.26522" lon="5.18861">
        <ele>546.66679356492</ele>
        <time>2014-05-31T15:40:05Z</time>
      </trkpt>
      <trkpt lat="45.26526" lon="5.18861">
        <ele>546.66679356492</ele>
        <time>2014-05-31T15:40:10Z</time>
      </trkpt>
      <trkpt lat="45.26533" lon="5.18864">
        <ele>546.1473040026</ele>
        <time>2014-05-31T15:40:15Z</time>
      </trkpt>
      <trkpt lat="45.26541" lon="5.18868">
        <ele>546.1473040026</ele>
        <time>2014-05-31T15:40:20Z</time>
      </trkpt>
      <trkpt lat="45.26546" lon="5.18876">
        <ele>546.23936304573</ele>
        <time>2014-05-31T15:40:25Z</time>
      </trkpt>
      <trkpt lat="45.26551" lon="5.18884">
        <ele>546.23936304573</ele>
        <time>2014-05-31T15:40:30Z</time>
      </trkpt>
      <trkpt lat="45.26554" lon="5.18893">
        <ele>546.73941874345</ele>
        <time>2014-05-31T15:40:35Z</time>
      </trkpt>
      <trkpt lat="45.26556" lon="5.18903">
        <ele>546.73941874345</ele>
        <time>2014-05-31T15:40:40Z</time>
      </trkpt>
      <trkpt lat="45.26559" lon="5.18913">
        <ele>547.47213966555</ele>
        <time>2014-05-31T15:40:45Z</time>
      </trkpt>
      <trkpt lat="45.26562" lon="5.18923">
        <ele>547.47213966555</ele>
        <time>2014-05-31T15:40:50Z</time>
      </trkpt>
      <trkpt lat="45.26564" lon="5.18933">
        <ele>548.27442491115</ele>
        <time>2014-05-31T15:40:55Z</time>
      </trkpt>
      <trkpt lat="45.26566" lon="5.18943">
        <ele>548.27442491115</ele>
        <time>2014-05-31T15:41:00Z</time>
      </trkpt>
      <trkpt lat="45.26569" lon="5.18951">
        <ele>548.79321144064</ele>
        <time>2014-05-31T15:41:05Z</time>
      </trkpt>
      <trkpt lat="45.2657" lon="5.18954">
        <ele>548.79321144064</ele>
        <time>2014-05-31T15:41:10Z</time>
      </trkpt>
      <trkpt lat="45.2657" lon="5.18962">
        <ele>548.79321144064</ele>
        <time>2014-05-31T15:41:15Z</time>
      </trkpt>
      <trkpt lat="45.26572" lon="5.18973">
        <ele>549.48037958404</ele>
        <time>2014-05-31T15:41:20Z</time>
      </trkpt>
      <trkpt lat="45.26574" lon="5.18983">
        <ele>549.48037958404</ele>
        <time>2014-05-31T15:41:25Z</time>
      </trkpt>
      <trkpt lat="45.26575" lon="5.18994">
        <ele>550.27859209257</ele>
        <time>2014-05-31T15:41:30Z</time>
      </trkpt>
      <trkpt lat="45.26576" lon="5.19006">
        <ele>550.27859209257</ele>
        <time>2014-05-31T15:41:35Z</time>
      </trkpt>
      <trkpt lat="45.26578" lon="5.19017">
        <ele>551.12002177309</ele>
        <time>2014-05-31T15:41:40Z</time>
      </trkpt>
      <trkpt lat="45.2658" lon="5.19033">
        <ele>551.79761609515</ele>
        <time>2014-05-31T15:41:45Z</time>
      </trkpt>
      <trkpt lat="45.26584" lon="5.19067">
        <ele>552.2353088805</ele>
        <time>2014-05-31T15:41:50Z</time>
      </trkpt>
      <trkpt lat="45.26586" lon="5.19093">
        <ele>552.52184717221</ele>
        <time>2014-05-31T15:41:55Z</time>
      </trkpt>
      <trkpt lat="45.26589" lon="5.19105">
        <ele>552.52184717221</ele>
        <time>2014-05-31T15:42:00Z</time>
      </trkpt>
      <trkpt lat="45.26592" lon="5.19116">
        <ele>552.89843642711</ele>
        <time>2014-05-31T15:42:05Z</time>
      </trkpt>
      <trkpt lat="45.26595" lon="5.19126">
        <ele>552.89843642711</ele>
        <time>2014-05-31T15:42:10Z</time>
      </trkpt>
      <trkpt lat="45.26597" lon="5.19135">
        <ele>553.2280642329</ele>
        <time>2014-05-31T15:42:15Z</time>
      </trkpt>
      <trkpt lat="45.26599" lon="5.19144">
        <ele>553.2280642329</ele>
        <time>2014-05-31T15:42:20Z</time>
      </trkpt>
      <trkpt lat="45.26601" lon="5.19152">
        <ele>553.28306742154</ele>
        <time>2014-05-31T15:42:25Z</time>
      </trkpt>
      <trkpt lat="45.26602" lon="5.19161">
        <ele>553.28306742154</ele>
        <time>2014-05-31T15:42:30Z</time>
      </trkpt>
      <trkpt lat="45.26602" lon="5.19171">
        <ele>553.34328415965</ele>
        <time>2014-05-31T15:42:35Z</time>
      </trkpt>
      <trkpt lat="45.26603" lon="5.1918">
        <ele>553.34328415965</ele>
        <time>2014-05-31T15:42:40Z</time>
      </trkpt>
      <trkpt lat="45.26604" lon="5.1919">
        <ele>553.33655239656</ele>
        <time>2014-05-31T15:42:45Z</time>
      </trkpt>
      <trkpt lat="45.26603" lon="5.19199">
        <ele>553.33655239656</ele>
        <time>2014-05-31T15:42:50Z</time>
      </trkpt>
      <trkpt lat="45.26602" lon="5.19209">
        <ele>553.55650128866</ele>
        <time>2014-05-31T15:42:55Z</time>
      </trkpt>
      <trkpt lat="45.26603" lon="5.19219">
        <ele>553.55650128866</ele>
        <time>2014-05-31T15:43:00Z</time>
      </trkpt>
      <trkpt lat="45.26603" lon="5.1923">
        <ele>553.82783180098</ele>
        <time>2014-05-31T15:43:05Z</time>
      </trkpt>
      <trkpt lat="45.26605" lon="5.1924">
        <ele>553.82783180098</ele>
        <time>2014-05-31T15:43:10Z</time>
      </trkpt>
      <trkpt lat="45.26605" lon="5.1925">
        <ele>554.24739881359</ele>
        <time>2014-05-31T15:43:15Z</time>
      </trkpt>
      <trkpt lat="45.26605" lon="5.1926">
        <ele>554.24739881359</ele>
        <time>2014-05-31T15:43:20Z</time>
      </trkpt>
      <trkpt lat="45.26605" lon="5.19269">
        <ele>554.63073492758</ele>
        <time>2014-05-31T15:43:25Z</time>
      </trkpt>
      <trkpt lat="45.26604" lon="5.19278">
        <ele>554.63073492758</ele>
        <time>2014-05-31T15:43:30Z</time>
      </trkpt>
      <trkpt lat="45.26604" lon="5.19288">
        <ele>554.77822206412</ele>
        <time>2014-05-31T15:43:35Z</time>
      </trkpt>
      <trkpt lat="45.26603" lon="5.19294">
        <ele>554.77822206412</ele>
        <time>2014-05-31T15:43:40Z</time>
      </trkpt>
      <trkpt lat="45.26602" lon="5.19301">
        <ele>554.70734122543</ele>
        <time>2014-05-31T15:43:45Z</time>
      </trkpt>
      <trkpt lat="45.26602" lon="5.1931">
        <ele>554.70734122543</ele>
        <time>2014-05-31T15:43:50Z</time>
      </trkpt>
      <trkpt lat="45.26601" lon="5.19319">
        <ele>554.44932896651</ele>
        <time>2014-05-31T15:43:55Z</time>
      </trkpt>
      <trkpt lat="45.266" lon="5.19327">
        <ele>554.44932896651</ele>
        <time>2014-05-31T15:44:00Z</time>
      </trkpt>
      <trkpt lat="45.266" lon="5.19337">
        <ele>554.27865419389</ele>
        <time>2014-05-31T15:44:05Z</time>
      </trkpt>
      <trkpt lat="45.26599" lon="5.1935">
        <ele>554.30527688524</ele>
        <time>2014-05-31T15:44:10Z</time>
      </trkpt>
      <trkpt lat="45.26598" lon="5.19362">
        <ele>554.30527688524</ele>
        <time>2014-05-31T15:44:15Z</time>
      </trkpt>
      <trkpt lat="45.26598" lon="5.19374">
        <ele>554.47201002605</ele>
        <time>2014-05-31T15:44:20Z</time>
      </trkpt>
      <trkpt lat="45.26597" lon="5.19384">
        <ele>554.47201002605</ele>
        <time>2014-05-31T15:44:25Z</time>
      </trkpt>
      <trkpt lat="45.26597" lon="5.19394">
        <ele>554.72547852296</ele>
        <time>2014-05-31T15:44:30Z</time>
      </trkpt>
      <trkpt lat="45.26601" lon="5.19402">
        <ele>554.72547852296</ele>
        <time>2014-05-31T15:44:35Z</time>
      </trkpt>
      <trkpt lat="45.26609" lon="5.19405">
        <ele>555.16009916152</ele>
        <time>2014-05-31T15:44:40Z</time>
      </trkpt>
      <trkpt lat="45.26618" lon="5.19407">
        <ele>555.71873702661</ele>
        <time>2014-05-31T15:44:45Z</time>
      </trkpt>
      <trkpt lat="45.26627" lon="5.19408">
        <ele>555.71873702661</ele>
        <time>2014-05-31T15:44:50Z</time>
      </trkpt>
      <trkpt lat="45.26634" lon="5.19409">
        <ele>556.23282202944</ele>
        <time>2014-05-31T15:44:55Z</time>
      </trkpt>
      <trkpt lat="45.26641" lon="5.19409">
        <ele>556.23282202944</ele>
        <time>2014-05-31T15:45:00Z</time>
      </trkpt>
      <trkpt lat="45.26648" lon="5.19409">
        <ele>556.82010972559</ele>
        <time>2014-05-31T15:45:05Z</time>
      </trkpt>
      <trkpt lat="45.26654" lon="5.19407">
        <ele>556.82010972559</ele>
        <time>2014-05-31T15:45:10Z</time>
      </trkpt>
      <trkpt lat="45.26661" lon="5.19404">
        <ele>557.33010837116</ele>
        <time>2014-05-31T15:45:15Z</time>
      </trkpt>
      <trkpt lat="45.26668" lon="5.194">
        <ele>557.33010837116</ele>
        <time>2014-05-31T15:45:20Z</time>
      </trkpt>
      <trkpt lat="45.26675" lon="5.19395">
        <ele>557.62360808036</ele>
        <time>2014-05-31T15:45:25Z</time>
      </trkpt>
      <trkpt lat="45.26682" lon="5.19393">
        <ele>557.62360808036</ele>
        <time>2014-05-31T15:45:30Z</time>
      </trkpt>
      <trkpt lat="45.26689" lon="5.19389">
        <ele>557.84605476356</ele>
        <time>2014-05-31T15:45:35Z</time>
      </trkpt>
      <trkpt lat="45.26695" lon="5.19393">
        <ele>557.84605476356</ele>
        <time>2014-05-31T15:45:40Z</time>
      </trkpt>
      <trkpt lat="45.267" lon="5.19401">
        <ele>557.88743120122</ele>
        <time>2014-05-31T15:45:45Z</time>
      </trkpt>
      <trkpt lat="45.26705" lon="5.19409">
        <ele>557.88743120122</ele>
        <time>2014-05-31T15:45:50Z</time>
      </trkpt>
      <trkpt lat="45.26711" lon="5.19416">
        <ele>558.00659786593</ele>
        <time>2014-05-31T15:45:55Z</time>
      </trkpt>
      <trkpt lat="45.26717" lon="5.19422">
        <ele>558.00659786593</ele>
        <time>2014-05-31T15:46:00Z</time>
      </trkpt>
      <trkpt lat="45.26726" lon="5.1943">
        <ele>558.25584545097</ele>
        <time>2014-05-31T15:46:05Z</time>
      </trkpt>
      <trkpt lat="45.26734" lon="5.19435">
        <ele>558.53915471438</ele>
        <time>2014-05-31T15:46:10Z</time>
      </trkpt>
      <trkpt lat="45.26741" lon="5.19437">
        <ele>558.53915471438</ele>
        <time>2014-05-31T15:46:15Z</time>
      </trkpt>
      <trkpt lat="45.26748" lon="5.19441">
        <ele>558.86834865494</ele>
        <time>2014-05-31T15:46:20Z</time>
      </trkpt>
      <trkpt lat="45.26754" lon="5.19443">
        <ele>558.86834865494</ele>
        <time>2014-05-31T15:46:25Z</time>
      </trkpt>
      <trkpt lat="45.2676" lon="5.19445">
        <ele>559.13897008405</ele>
        <time>2014-05-31T15:46:30Z</time>
      </trkpt>
      <trkpt lat="45.26766" lon="5.19449">
        <ele>559.13897008405</ele>
        <time>2014-05-31T15:46:35Z</time>
      </trkpt>
      <trkpt lat="45.26773" lon="5.19453">
        <ele>559.42733869238</ele>
        <time>2014-05-31T15:46:40Z</time>
      </trkpt>
      <trkpt lat="45.26784" lon="5.1946">
        <ele>559.71765695404</ele>
        <time>2014-05-31T15:46:45Z</time>
      </trkpt>
      <trkpt lat="45.26807" lon="5.19479">
        <ele>559.92323213323</ele>
        <time>2014-05-31T15:46:50Z</time>
      </trkpt>
      <trkpt lat="45.2683" lon="5.19498">
        <ele>560.07927138356</ele>
        <time>2014-05-31T15:46:55Z</time>
      </trkpt>
      <trkpt lat="45.2685" lon="5.19518">
        <ele>560.13207175187</ele>
        <time>2014-05-31T15:47:00Z</time>
      </trkpt>
      <trkpt lat="45.26868" lon="5.19547">
        <ele>560.17627871435</ele>
        <time>2014-05-31T15:47:05Z</time>
      </trkpt>
      <trkpt lat="45.26882" lon="5.19565">
        <ele>560.12667673399</ele>
        <time>2014-05-31T15:47:10Z</time>
      </trkpt>
      <trkpt lat="45.26888" lon="5.19571">
        <ele>560.12667673399</ele>
        <time>2014-05-31T15:47:15Z</time>
      </trkpt>
      <trkpt lat="45.26894" lon="5.19578">
        <ele>559.96221640326</ele>
        <time>2014-05-31T15:47:20Z</time>
      </trkpt>
      <trkpt lat="45.26899" lon="5.19586">
        <ele>559.96221640326</ele>
        <time>2014-05-31T15:47:25Z</time>
      </trkpt>
      <trkpt lat="45.26905" lon="5.19602">
        <ele>559.90870200677</ele>
        <time>2014-05-31T15:47:30Z</time>
      </trkpt>
      <trkpt lat="45.26928" lon="5.19648">
        <ele>560.03092201306</ele>
        <time>2014-05-31T15:47:35Z</time>
      </trkpt>
      <trkpt lat="45.26943" lon="5.19677">
        <ele>560.59016111888</ele>
        <time>2014-05-31T15:47:40Z</time>
      </trkpt>
      <trkpt lat="45.26952" lon="5.19688">
        <ele>561.20759921217</ele>
        <time>2014-05-31T15:47:45Z</time>
      </trkpt>
      <trkpt lat="45.26958" lon="5.19694">
        <ele>561.20759921217</ele>
        <time>2014-05-31T15:47:50Z</time>
      </trkpt>
      <trkpt lat="45.26965" lon="5.19698">
        <ele>561.76265315372</ele>
        <time>2014-05-31T15:47:55Z</time>
      </trkpt>
      <trkpt lat="45.26972" lon="5.19704">
        <ele>561.76265315372</ele>
        <time>2014-05-31T15:48:00Z</time>
      </trkpt>
      <trkpt lat="45.26978" lon="5.1971">
        <ele>562.24464745979</ele>
        <time>2014-05-31T15:48:05Z</time>
      </trkpt>
      <trkpt lat="45.26984" lon="5.19715">
        <ele>562.24464745979</ele>
        <time>2014-05-31T15:48:10Z</time>
      </trkpt>
      <trkpt lat="45.2699" lon="5.19721">
        <ele>562.75918437875</ele>
        <time>2014-05-31T15:48:15Z</time>
      </trkpt>
      <trkpt lat="45.26997" lon="5.19726">
        <ele>562.75918437875</ele>
        <time>2014-05-31T15:48:20Z</time>
      </trkpt>
      <trkpt lat="45.27004" lon="5.19731">
        <ele>563.05815224648</ele>
        <time>2014-05-31T15:48:25Z</time>
      </trkpt>
      <trkpt lat="45.27011" lon="5.19736">
        <ele>563.05815224648</ele>
        <time>2014-05-31T15:48:30Z</time>
      </trkpt>
      <trkpt lat="45.27018" lon="5.1974">
        <ele>563.33019567982</ele>
        <time>2014-05-31T15:48:35Z</time>
      </trkpt>
      <trkpt lat="45.27025" lon="5.19742">
        <ele>563.33019567982</ele>
        <time>2014-05-31T15:48:40Z</time>
      </trkpt>
      <trkpt lat="45.27031" lon="5.19748">
        <ele>563.21696888525</ele>
        <time>2014-05-31T15:48:45Z</time>
      </trkpt>
      <trkpt lat="45.27038" lon="5.19753">
        <ele>563.21696888525</ele>
        <time>2014-05-31T15:48:50Z</time>
      </trkpt>
      <trkpt lat="45.27046" lon="5.19758">
        <ele>563.0072107813</ele>
        <time>2014-05-31T15:48:55Z</time>
      </trkpt>
      <trkpt lat="45.27052" lon="5.19766">
        <ele>563.0072107813</ele>
        <time>2014-05-31T15:49:00Z</time>
      </trkpt>
      <trkpt lat="45.27059" lon="5.19772">
        <ele>562.9254871323</ele>
        <time>2014-05-31T15:49:05Z</time>
      </trkpt>
      <trkpt lat="45.27066" lon="5.19778">
        <ele>562.9254871323</ele>
        <time>2014-05-31T15:49:10Z</time>
      </trkpt>
      <trkpt lat="45.27073" lon="5.19782">
        <ele>562.804816231</ele>
        <time>2014-05-31T15:49:15Z</time>
      </trkpt>
      <trkpt lat="45.27081" lon="5.19786">
        <ele>562.804816231</ele>
        <time>2014-05-31T15:49:20Z</time>
      </trkpt>
      <trkpt lat="45.27087" lon="5.19791">
        <ele>562.80763092514</ele>
        <time>2014-05-31T15:49:25Z</time>
      </trkpt>
      <trkpt lat="45.27095" lon="5.19796">
        <ele>562.80763092514</ele>
        <time>2014-05-31T15:49:30Z</time>
      </trkpt>
      <trkpt lat="45.27103" lon="5.198">
        <ele>563.05525556354</ele>
        <time>2014-05-31T15:49:35Z</time>
      </trkpt>
      <trkpt lat="45.2711" lon="5.19804">
        <ele>563.05525556354</ele>
        <time>2014-05-31T15:49:40Z</time>
      </trkpt>
      <trkpt lat="45.27117" lon="5.19809">
        <ele>563.34236205757</ele>
        <time>2014-05-31T15:49:45Z</time>
      </trkpt>
      <trkpt lat="45.27123" lon="5.19813">
        <ele>563.34236205757</ele>
        <time>2014-05-31T15:49:50Z</time>
      </trkpt>
      <trkpt lat="45.27128" lon="5.19819">
        <ele>563.43535225797</ele>
        <time>2014-05-31T15:49:55Z</time>
      </trkpt>
      <trkpt lat="45.27133" lon="5.19828">
        <ele>563.43535225797</ele>
        <time>2014-05-31T15:50:00Z</time>
      </trkpt>
      <trkpt lat="45.27133" lon="5.1984">
        <ele>563.42095658576</ele>
        <time>2014-05-31T15:50:05Z</time>
      </trkpt>
      <trkpt lat="45.2713" lon="5.19852">
        <ele>563.42095658576</ele>
        <time>2014-05-31T15:50:10Z</time>
      </trkpt>
      <trkpt lat="45.27127" lon="5.19866">
        <ele>563.19248096888</ele>
        <time>2014-05-31T15:50:15Z</time>
      </trkpt>
      <trkpt lat="45.27126" lon="5.19878">
        <ele>563.19248096888</ele>
        <time>2014-05-31T15:50:20Z</time>
      </trkpt>
      <trkpt lat="45.27118" lon="5.19908">
        <ele>562.66606870885</ele>
        <time>2014-05-31T15:50:25Z</time>
      </trkpt>
      <trkpt lat="45.2711" lon="5.19938">
        <ele>562.06747725191</ele>
        <time>2014-05-31T15:50:30Z</time>
      </trkpt>
      <trkpt lat="45.27102" lon="5.19967">
        <ele>561.57724112682</ele>
        <time>2014-05-31T15:50:35Z</time>
      </trkpt>
      <trkpt lat="45.27099" lon="5.20001">
        <ele>560.91556034468</ele>
        <time>2014-05-31T15:50:40Z</time>
      </trkpt>
      <trkpt lat="45.27097" lon="5.20025">
        <ele>560.50096382224</ele>
        <time>2014-05-31T15:50:45Z</time>
      </trkpt>
      <trkpt lat="45.27095" lon="5.20038">
        <ele>560.17288771489</ele>
        <time>2014-05-31T15:50:50Z</time>
      </trkpt>
      <trkpt lat="45.27095" lon="5.20049">
        <ele>560.17288771489</ele>
        <time>2014-05-31T15:50:55Z</time>
      </trkpt>
      <trkpt lat="45.27098" lon="5.20059">
        <ele>559.96962982124</ele>
        <time>2014-05-31T15:51:00Z</time>
      </trkpt>
      <trkpt lat="45.271" lon="5.20068">
        <ele>559.96962982124</ele>
        <time>2014-05-31T15:51:05Z</time>
      </trkpt>
      <trkpt lat="45.27104" lon="5.20076">
        <ele>559.96952121009</ele>
        <time>2014-05-31T15:51:10Z</time>
      </trkpt>
      <trkpt lat="45.27106" lon="5.20086">
        <ele>559.96952121009</ele>
        <time>2014-05-31T15:51:15Z</time>
      </trkpt>
      <trkpt lat="45.27108" lon="5.20096">
        <ele>559.9851319888</ele>
        <time>2014-05-31T15:51:20Z</time>
      </trkpt>
      <trkpt lat="45.27109" lon="5.20107">
        <ele>559.9851319888</ele>
        <time>2014-05-31T15:51:25Z</time>
      </trkpt>
      <trkpt lat="45.27111" lon="5.20118">
        <ele>560.15976539966</ele>
        <time>2014-05-31T15:51:30Z</time>
      </trkpt>
      <trkpt lat="45.27112" lon="5.20128">
        <ele>560.15976539966</ele>
        <time>2014-05-31T15:51:35Z</time>
      </trkpt>
      <trkpt lat="45.27113" lon="5.20138">
        <ele>560.15015045765</ele>
        <time>2014-05-31T15:51:40Z</time>
      </trkpt>
      <trkpt lat="45.27115" lon="5.20148">
        <ele>560.15015045765</ele>
        <time>2014-05-31T15:51:45Z</time>
      </trkpt>
      <trkpt lat="45.27117" lon="5.20158">
        <ele>560.22957306831</ele>
        <time>2014-05-31T15:51:50Z</time>
      </trkpt>
      <trkpt lat="45.27119" lon="5.20168">
        <ele>560.22957306831</ele>
        <time>2014-05-31T15:51:55Z</time>
      </trkpt>
      <trkpt lat="45.27119" lon="5.20179">
        <ele>560.36274152379</ele>
        <time>2014-05-31T15:52:00Z</time>
      </trkpt>
      <trkpt lat="45.2712" lon="5.20191">
        <ele>560.36274152379</ele>
        <time>2014-05-31T15:52:05Z</time>
      </trkpt>
      <trkpt lat="45.2712" lon="5.20202">
        <ele>560.60324485196</ele>
        <time>2014-05-31T15:52:10Z</time>
      </trkpt>
      <trkpt lat="45.2712" lon="5.20213">
        <ele>560.60324485196</ele>
        <time>2014-05-31T15:52:15Z</time>
      </trkpt>
      <trkpt lat="45.2712" lon="5.20224">
        <ele>560.84188683688</ele>
        <time>2014-05-31T15:52:20Z</time>
      </trkpt>
      <trkpt lat="45.2712" lon="5.20236">
        <ele>560.84188683688</ele>
        <time>2014-05-31T15:52:25Z</time>
      </trkpt>
      <trkpt lat="45.27121" lon="5.20246">
        <ele>561.16482019909</ele>
        <time>2014-05-31T15:52:30Z</time>
      </trkpt>
      <trkpt lat="45.2712" lon="5.20257">
        <ele>561.16482019909</ele>
        <time>2014-05-31T15:52:35Z</time>
      </trkpt>
      <trkpt lat="45.2712" lon="5.20268">
        <ele>561.33456852838</ele>
        <time>2014-05-31T15:52:40Z</time>
      </trkpt>
      <trkpt lat="45.27118" lon="5.20278">
        <ele>561.33456852838</ele>
        <time>2014-05-31T15:52:45Z</time>
      </trkpt>
      <trkpt lat="45.27113" lon="5.20287">
        <ele>561.43414683859</ele>
        <time>2014-05-31T15:52:50Z</time>
      </trkpt>
      <trkpt lat="45.27105" lon="5.2029">
        <ele>561.43414683859</ele>
        <time>2014-05-31T15:52:55Z</time>
      </trkpt>
      <trkpt lat="45.27096" lon="5.20292">
        <ele>561.77123274316</ele>
        <time>2014-05-31T15:53:00Z</time>
      </trkpt>
      <trkpt lat="45.27088" lon="5.20293">
        <ele>561.77123274316</ele>
        <time>2014-05-31T15:53:05Z</time>
      </trkpt>
      <trkpt lat="45.2708" lon="5.20294">
        <ele>562.09701311165</ele>
        <time>2014-05-31T15:53:10Z</time>
      </trkpt>
      <trkpt lat="45.27072" lon="5.20295">
        <ele>562.09701311165</ele>
        <time>2014-05-31T15:53:15Z</time>
      </trkpt>
      <trkpt lat="45.27064" lon="5.20296">
        <ele>562.09450810574</ele>
        <time>2014-05-31T15:53:20Z</time>
      </trkpt>
      <trkpt lat="45.27057" lon="5.20297">
        <ele>562.09450810574</ele>
        <time>2014-05-31T15:53:25Z</time>
      </trkpt>
      <trkpt lat="45.27049" lon="5.20299">
        <ele>561.94650292133</ele>
        <time>2014-05-31T15:53:30Z</time>
      </trkpt>
      <trkpt lat="45.27045" lon="5.203">
        <ele>561.94650292133</ele>
        <time>2014-05-31T15:53:35Z</time>
      </trkpt>
      <trkpt lat="45.27045" lon="5.20302">
        <ele>561.94650292133</ele>
        <time>2014-05-31T15:53:40Z</time>
      </trkpt>
      <trkpt lat="45.27045" lon="5.20301">
        <ele>561.94650292133</ele>
        <time>2014-05-31T15:53:45Z</time>
      </trkpt>
      <trkpt lat="45.27045" lon="5.20302">
        <ele>561.94650292133</ele>
        <time>2014-05-31T15:53:50Z</time>
      </trkpt>
      <trkpt lat="45.27045" lon="5.20302">
        <ele>561.94650292133</ele>
        <time>2014-05-31T15:53:55Z</time>
      </trkpt>
      <trkpt lat="45.27044" lon="5.20302">
        <ele>561.94650292133</ele>
        <time>2014-05-31T15:54:00Z</time>
      </trkpt>
      <trkpt lat="45.27039" lon="5.20306">
        <ele>561.41924462602</ele>
        <time>2014-05-31T15:54:05Z</time>
      </trkpt>
      <trkpt lat="45.27035" lon="5.20313">
        <ele>561.41924462602</ele>
        <time>2014-05-31T15:54:10Z</time>
      </trkpt>
      <trkpt lat="45.27039" lon="5.20322">
        <ele>561.08981827531</ele>
        <time>2014-05-31T15:54:15Z</time>
      </trkpt>
      <trkpt lat="45.27042" lon="5.20332">
        <ele>561.08981827531</ele>
        <time>2014-05-31T15:54:20Z</time>
      </trkpt>
      <trkpt lat="45.27045" lon="5.20342">
        <ele>560.75738385733</ele>
        <time>2014-05-31T15:54:25Z</time>
      </trkpt>
      <trkpt lat="45.27048" lon="5.20351">
        <ele>560.75738385733</ele>
        <time>2014-05-31T15:54:30Z</time>
      </trkpt>
      <trkpt lat="45.27051" lon="5.20361">
        <ele>560.58171717662</ele>
        <time>2014-05-31T15:54:35Z</time>
      </trkpt>
      <trkpt lat="45.27054" lon="5.20371">
        <ele>560.58171717662</ele>
        <time>2014-05-31T15:54:40Z</time>
      </trkpt>
      <trkpt lat="45.27056" lon="5.20381">
        <ele>560.33571314683</ele>
        <time>2014-05-31T15:54:45Z</time>
      </trkpt>
      <trkpt lat="45.27057" lon="5.20391">
        <ele>560.33571314683</ele>
        <time>2014-05-31T15:54:50Z</time>
      </trkpt>
      <trkpt lat="45.27058" lon="5.20402">
        <ele>560.21264210382</ele>
        <time>2014-05-31T15:54:55Z</time>
      </trkpt>
      <trkpt lat="45.27057" lon="5.20412">
        <ele>560.21264210382</ele>
        <time>2014-05-31T15:55:00Z</time>
      </trkpt>
      <trkpt lat="45.27055" lon="5.20421">
        <ele>560.00211486387</ele>
        <time>2014-05-31T15:55:05Z</time>
      </trkpt>
      <trkpt lat="45.27053" lon="5.20429">
        <ele>560.00211486387</ele>
        <time>2014-05-31T15:55:10Z</time>
      </trkpt>
      <trkpt lat="45.2705" lon="5.20436">
        <ele>559.45178011807</ele>
        <time>2014-05-31T15:55:15Z</time>
      </trkpt>
      <trkpt lat="45.27049" lon="5.20446">
        <ele>559.45178011807</ele>
        <time>2014-05-31T15:55:20Z</time>
      </trkpt>
      <trkpt lat="45.27047" lon="5.20455">
        <ele>559.06372513087</ele>
        <time>2014-05-31T15:55:25Z</time>
      </trkpt>
      <trkpt lat="45.27046" lon="5.20464">
        <ele>559.06372513087</ele>
        <time>2014-05-31T15:55:30Z</time>
      </trkpt>
      <trkpt lat="45.27044" lon="5.20474">
        <ele>558.52447761882</ele>
        <time>2014-05-31T15:55:35Z</time>
      </trkpt>
      <trkpt lat="45.27042" lon="5.20483">
        <ele>558.52447761882</ele>
        <time>2014-05-31T15:55:40Z</time>
      </trkpt>
      <trkpt lat="45.27039" lon="5.20492">
        <ele>557.81780465846</ele>
        <time>2014-05-31T15:55:45Z</time>
      </trkpt>
      <trkpt lat="45.27037" lon="5.20495">
        <ele>557.81780465846</ele>
        <time>2014-05-31T15:55:50Z</time>
      </trkpt>
      <trkpt lat="45.27037" lon="5.20495">
        <ele>557.81780465846</ele>
        <time>2014-05-31T15:55:55Z</time>
      </trkpt>
      <trkpt lat="45.27037" lon="5.20495">
        <ele>557.81780465846</ele>
        <time>2014-05-31T15:56:00Z</time>
      </trkpt>
      <trkpt lat="45.27037" lon="5.20495">
        <ele>557.81780465846</ele>
        <time>2014-05-31T15:56:05Z</time>
      </trkpt>
      <trkpt lat="45.27038" lon="5.20496">
        <ele>557.81780465846</ele>
        <time>2014-05-31T15:56:10Z</time>
      </trkpt>
      <trkpt lat="45.27037" lon="5.20496">
        <ele>557.81780465846</ele>
        <time>2014-05-31T15:56:15Z</time>
      </trkpt>
      <trkpt lat="45.27037" lon="5.20496">
        <ele>557.81780465846</ele>
        <time>2014-05-31T15:56:20Z</time>
      </trkpt>
      <trkpt lat="45.27037" lon="5.20497">
        <ele>557.81780465846</ele>
        <time>2014-05-31T15:56:25Z</time>
      </trkpt>
      <trkpt lat="45.27037" lon="5.20496">
        <ele>557.81780465846</ele>
        <time>2014-05-31T15:56:30Z</time>
      </trkpt>
      <trkpt lat="45.27037" lon="5.20496">
        <ele>557.81780465846</ele>
        <time>2014-05-31T15:56:35Z</time>
      </trkpt>
      <trkpt lat="45.27037" lon="5.20496">
        <ele>557.81780465846</ele>
        <time>2014-05-31T15:56:40Z</time>
      </trkpt>
      <trkpt lat="45.27037" lon="5.20496">
        <ele>557.81780465846</ele>
        <time>2014-05-31T15:56:45Z</time>
      </trkpt>
      <trkpt lat="45.27037" lon="5.20497">
        <ele>557.81780465846</ele>
        <time>2014-05-31T15:56:50Z</time>
      </trkpt>
      <trkpt lat="45.27037" lon="5.20497">
        <ele>557.81780465846</ele>
        <time>2014-05-31T15:56:55Z</time>
      </trkpt>
      <trkpt lat="45.27037" lon="5.20497">
        <ele>557.81780465846</ele>
        <time>2014-05-31T15:57:00Z</time>
      </trkpt>
      <trkpt lat="45.27035" lon="5.205">
        <ele>557.51996554726</ele>
        <time>2014-05-31T15:57:05Z</time>
      </trkpt>
      <trkpt lat="45.27035" lon="5.20501">
        <ele>557.51996554726</ele>
        <time>2014-05-31T15:57:10Z</time>
      </trkpt>
      <trkpt lat="45.27035" lon="5.20501">
        <ele>557.51996554726</ele>
        <time>2014-05-31T15:57:15Z</time>
      </trkpt>
      <trkpt lat="45.27036" lon="5.20501">
        <ele>557.51996554726</ele>
        <time>2014-05-31T15:57:20Z</time>
      </trkpt>
      <trkpt lat="45.27036" lon="5.20501">
        <ele>557.51996554726</ele>
        <time>2014-05-31T15:57:25Z</time>
      </trkpt>
      <trkpt lat="45.27035" lon="5.20502">
        <ele>557.51996554726</ele>
        <time>2014-05-31T15:57:30Z</time>
      </trkpt>
      <trkpt lat="45.27035" lon="5.20503">
        <ele>557.51996554726</ele>
        <time>2014-05-31T15:57:35Z</time>
      </trkpt>
      <trkpt lat="45.27035" lon="5.20503">
        <ele>557.51996554726</ele>
        <time>2014-05-31T15:57:40Z</time>
      </trkpt>
      <trkpt lat="45.27034" lon="5.20508">
        <ele>557.51996554726</ele>
        <time>2014-05-31T15:57:45Z</time>
      </trkpt>
      <trkpt lat="45.27032" lon="5.20518">
        <ele>557.12611290237</ele>
        <time>2014-05-31T15:57:50Z</time>
      </trkpt>
      <trkpt lat="45.2703" lon="5.20527">
        <ele>557.12611290237</ele>
        <time>2014-05-31T15:57:55Z</time>
      </trkpt>
      <trkpt lat="45.2703" lon="5.20537">
        <ele>556.64429186147</ele>
        <time>2014-05-31T15:58:00Z</time>
      </trkpt>
      <trkpt lat="45.2703" lon="5.20546">
        <ele>556.64429186147</ele>
        <time>2014-05-31T15:58:05Z</time>
      </trkpt>
      <trkpt lat="45.27028" lon="5.20556">
        <ele>556.11099476541</ele>
        <time>2014-05-31T15:58:10Z</time>
      </trkpt>
      <trkpt lat="45.27028" lon="5.20566">
        <ele>556.11099476541</ele>
        <time>2014-05-31T15:58:15Z</time>
      </trkpt>
      <trkpt lat="45.27029" lon="5.20575">
        <ele>555.68984604413</ele>
        <time>2014-05-31T15:58:20Z</time>
      </trkpt>
      <trkpt lat="45.27031" lon="5.20584">
        <ele>555.68984604413</ele>
        <time>2014-05-31T15:58:25Z</time>
      </trkpt>
      <trkpt lat="45.27032" lon="5.20594">
        <ele>555.50328133287</ele>
        <time>2014-05-31T15:58:30Z</time>
      </trkpt>
      <trkpt lat="45.27033" lon="5.20604">
        <ele>555.50328133287</ele>
        <time>2014-05-31T15:58:35Z</time>
      </trkpt>
      <trkpt lat="45.27035" lon="5.20614">
        <ele>555.62081904538</ele>
        <time>2014-05-31T15:58:40Z</time>
      </trkpt>
      <trkpt lat="45.27036" lon="5.20625">
        <ele>555.62081904538</ele>
        <time>2014-05-31T15:58:45Z</time>
      </trkpt>
      <trkpt lat="45.27038" lon="5.20635">
        <ele>555.77453191103</ele>
        <time>2014-05-31T15:58:50Z</time>
      </trkpt>
      <trkpt lat="45.27039" lon="5.20645">
        <ele>555.77453191103</ele>
        <time>2014-05-31T15:58:55Z</time>
      </trkpt>
      <trkpt lat="45.27041" lon="5.20654">
        <ele>556.00426818306</ele>
        <time>2014-05-31T15:59:00Z</time>
      </trkpt>
      <trkpt lat="45.27043" lon="5.20664">
        <ele>556.00426818306</ele>
        <time>2014-05-31T15:59:05Z</time>
      </trkpt>
      <trkpt lat="45.27045" lon="5.20673">
        <ele>556.37553495879</ele>
        <time>2014-05-31T15:59:10Z</time>
      </trkpt>
      <trkpt lat="45.27047" lon="5.2068">
        <ele>556.37553495879</ele>
        <time>2014-05-31T15:59:15Z</time>
      </trkpt>
      <trkpt lat="45.27048" lon="5.2069">
        <ele>556.61715618191</ele>
        <time>2014-05-31T15:59:20Z</time>
      </trkpt>
      <trkpt lat="45.27047" lon="5.207">
        <ele>556.61715618191</ele>
        <time>2014-05-31T15:59:25Z</time>
      </trkpt>
      <trkpt lat="45.27047" lon="5.2071">
        <ele>556.75203722563</ele>
        <time>2014-05-31T15:59:30Z</time>
      </trkpt>
      <trkpt lat="45.27047" lon="5.20719">
        <ele>556.75203722563</ele>
        <time>2014-05-31T15:59:35Z</time>
      </trkpt>
      <trkpt lat="45.27043" lon="5.20725">
        <ele>556.61434547038</ele>
        <time>2014-05-31T15:59:40Z</time>
      </trkpt>
      <trkpt lat="45.27043" lon="5.20725">
        <ele>556.61434547038</ele>
        <time>2014-05-31T15:59:45Z</time>
      </trkpt>
      <trkpt lat="45.27042" lon="5.20725">
        <ele>556.61434547038</ele>
        <time>2014-05-31T15:59:50Z</time>
      </trkpt>
      <trkpt lat="45.27043" lon="5.20725">
        <ele>556.61434547038</ele>
        <time>2014-05-31T15:59:55Z</time>
      </trkpt>
      <trkpt lat="45.27039" lon="5.20723">
        <ele>556.61434547038</ele>
        <time>2014-05-31T16:00:00Z</time>
      </trkpt>
      <trkpt lat="45.27032" lon="5.2072">
        <ele>555.97913088328</ele>
        <time>2014-05-31T16:00:05Z</time>
      </trkpt>
      <trkpt lat="45.27027" lon="5.20718">
        <ele>555.97913088328</ele>
        <time>2014-05-31T16:00:10Z</time>
      </trkpt>
      <trkpt lat="45.27025" lon="5.20717">
        <ele>555.97913088328</ele>
        <time>2014-05-31T16:00:15Z</time>
      </trkpt>
      <trkpt lat="45.27021" lon="5.20714">
        <ele>555.11492195614</ele>
        <time>2014-05-31T16:00:20Z</time>
      </trkpt>
      <trkpt lat="45.27015" lon="5.20709">
        <ele>555.11492195614</ele>
        <time>2014-05-31T16:00:25Z</time>
      </trkpt>
      <trkpt lat="45.27011" lon="5.20705">
        <ele>553.88205187348</ele>
        <time>2014-05-31T16:00:31Z</time>
      </trkpt>
      <trkpt lat="45.27009" lon="5.207">
        <ele>553.88205187348</ele>
        <time>2014-05-31T16:00:35Z</time>
      </trkpt>
      <trkpt lat="45.27008" lon="5.20695">
        <ele>553.88205187348</ele>
        <time>2014-05-31T16:00:40Z</time>
      </trkpt>
      <trkpt lat="45.27005" lon="5.20687">
        <ele>552.20977499739</ele>
        <time>2014-05-31T16:00:45Z</time>
      </trkpt>
      <trkpt lat="45.27001" lon="5.20679">
        <ele>552.20977499739</ele>
        <time>2014-05-31T16:00:50Z</time>
      </trkpt>
      <trkpt lat="45.26996" lon="5.20672">
        <ele>550.69666188038</ele>
        <time>2014-05-31T16:00:55Z</time>
      </trkpt>
      <trkpt lat="45.26989" lon="5.20668">
        <ele>550.69666188038</ele>
        <time>2014-05-31T16:01:00Z</time>
      </trkpt>
      <trkpt lat="45.26981" lon="5.20666">
        <ele>549.10422107091</ele>
        <time>2014-05-31T16:01:05Z</time>
      </trkpt>
      <trkpt lat="45.26974" lon="5.20668">
        <ele>549.10422107091</ele>
        <time>2014-05-31T16:01:10Z</time>
      </trkpt>
      <trkpt lat="45.2697" lon="5.20674">
        <ele>546.80814809626</ele>
        <time>2014-05-31T16:01:15Z</time>
      </trkpt>
      <trkpt lat="45.2697" lon="5.20677">
        <ele>546.80814809626</ele>
        <time>2014-05-31T16:01:20Z</time>
      </trkpt>
      <trkpt lat="45.26968" lon="5.20681">
        <ele>546.80814809626</ele>
        <time>2014-05-31T16:01:25Z</time>
      </trkpt>
      <trkpt lat="45.26965" lon="5.20684">
        <ele>543.95247378599</ele>
        <time>2014-05-31T16:01:30Z</time>
      </trkpt>
      <trkpt lat="45.26962" lon="5.20689">
        <ele>543.95247378599</ele>
        <time>2014-05-31T16:01:35Z</time>
      </trkpt>
      <trkpt lat="45.2696" lon="5.20697">
        <ele>541.91150757014</ele>
        <time>2014-05-31T16:01:40Z</time>
      </trkpt>
      <trkpt lat="45.26954" lon="5.20708">
        <ele>541.12039607834</ele>
        <time>2014-05-31T16:01:45Z</time>
      </trkpt>
      <trkpt lat="45.26948" lon="5.20716">
        <ele>541.12039607834</ele>
        <time>2014-05-31T16:01:50Z</time>
      </trkpt>
      <trkpt lat="45.26944" lon="5.20723">
        <ele>539.74500597852</ele>
        <time>2014-05-31T16:01:55Z</time>
      </trkpt>
      <trkpt lat="45.26941" lon="5.2073">
        <ele>539.74500597852</ele>
        <time>2014-05-31T16:02:00Z</time>
      </trkpt>
      <trkpt lat="45.26937" lon="5.20736">
        <ele>538.95530062336</ele>
        <time>2014-05-31T16:02:05Z</time>
      </trkpt>
      <trkpt lat="45.26933" lon="5.20744">
        <ele>538.95530062336</ele>
        <time>2014-05-31T16:02:10Z</time>
      </trkpt>
      <trkpt lat="45.26929" lon="5.2075">
        <ele>537.71513148064</ele>
        <time>2014-05-31T16:02:15Z</time>
      </trkpt>
      <trkpt lat="45.26924" lon="5.20759">
        <ele>537.71513148064</ele>
        <time>2014-05-31T16:02:20Z</time>
      </trkpt>
      <trkpt lat="45.26922" lon="5.20766">
        <ele>536.40587293178</ele>
        <time>2014-05-31T16:02:25Z</time>
      </trkpt>
      <trkpt lat="45.26921" lon="5.2077">
        <ele>536.40587293178</ele>
        <time>2014-05-31T16:02:30Z</time>
      </trkpt>
      <trkpt lat="45.26917" lon="5.20778">
        <ele>535.10717696874</ele>
        <time>2014-05-31T16:02:35Z</time>
      </trkpt>
      <trkpt lat="45.26912" lon="5.20783">
        <ele>535.10717696874</ele>
        <time>2014-05-31T16:02:40Z</time>
      </trkpt>
      <trkpt lat="45.26908" lon="5.20787">
        <ele>533.22981300794</ele>
        <time>2014-05-31T16:02:45Z</time>
      </trkpt>
      <trkpt lat="45.26904" lon="5.20795">
        <ele>533.22981300794</ele>
        <time>2014-05-31T16:02:50Z</time>
      </trkpt>
      <trkpt lat="45.269" lon="5.20806">
        <ele>531.7137114881</ele>
        <time>2014-05-31T16:02:55Z</time>
      </trkpt>
      <trkpt lat="45.26896" lon="5.20813">
        <ele>531.7137114881</ele>
        <time>2014-05-31T16:03:00Z</time>
      </trkpt>
      <trkpt lat="45.26893" lon="5.20818">
        <ele>530.95308340917</ele>
        <time>2014-05-31T16:03:05Z</time>
      </trkpt>
      <trkpt lat="45.26887" lon="5.20828">
        <ele>530.95308340917</ele>
        <time>2014-05-31T16:03:10Z</time>
      </trkpt>
      <trkpt lat="45.26885" lon="5.20835">
        <ele>530.14366939347</ele>
        <time>2014-05-31T16:03:15Z</time>
      </trkpt>
      <trkpt lat="45.26878" lon="5.20844">
        <ele>529.17442609066</ele>
        <time>2014-05-31T16:03:20Z</time>
      </trkpt>
      <trkpt lat="45.26873" lon="5.20851">
        <ele>529.17442609066</ele>
        <time>2014-05-31T16:03:25Z</time>
      </trkpt>
      <trkpt lat="45.2687" lon="5.2086">
        <ele>527.98606181604</ele>
        <time>2014-05-31T16:03:30Z</time>
      </trkpt>
      <trkpt lat="45.26867" lon="5.20866">
        <ele>527.98606181604</ele>
        <time>2014-05-31T16:03:35Z</time>
      </trkpt>
      <trkpt lat="45.26866" lon="5.20868">
        <ele>531.5</ele>
        <time>2014-05-31T16:03:56Z</time>
      </trkpt>
      <trkpt lat="45.26865" lon="5.20868">
        <ele>531.5</ele>
        <time>2014-05-31T16:04:01Z</time>
      </trkpt>
      <trkpt lat="45.26862" lon="5.20868">
        <ele>531.5</ele>
        <time>2014-05-31T16:04:06Z</time>
      </trkpt>
      <trkpt lat="45.26861" lon="5.20869">
        <ele>531.5</ele>
        <time>2014-05-31T16:04:11Z</time>
      </trkpt>
      <trkpt lat="45.26861" lon="5.20869">
        <ele>531.5</ele>
        <time>2014-05-31T16:04:16Z</time>
      </trkpt>
      <trkpt lat="45.26861" lon="5.20869">
        <ele>531.5</ele>
        <time>2014-05-31T16:04:21Z</time>
      </trkpt>
      <trkpt lat="45.26861" lon="5.20869">
        <ele>531.5</ele>
        <time>2014-05-31T16:04:26Z</time>
      </trkpt>
      <trkpt lat="45.26861" lon="5.20869">
        <ele>531.5</ele>
        <time>2014-05-31T16:04:31Z</time>
      </trkpt>
      <trkpt lat="45.26861" lon="5.20869">
        <ele>531.5</ele>
        <time>2014-05-31T16:04:36Z</time>
      </trkpt>
      <trkpt lat="45.26859" lon="5.2087">
        <ele>538.36571038297</ele>
        <time>2014-05-31T16:04:41Z</time>
      </trkpt>
      <trkpt lat="45.26855" lon="5.20874">
        <ele>538.36571038297</ele>
        <time>2014-05-31T16:04:46Z</time>
      </trkpt>
      <trkpt lat="45.26855" lon="5.20879">
        <ele>538.36571038297</ele>
        <time>2014-05-31T16:04:51Z</time>
      </trkpt>
      <trkpt lat="45.26855" lon="5.20882">
        <ele>538.62565670154</ele>
        <time>2014-05-31T16:04:56Z</time>
      </trkpt>
      <trkpt lat="45.26855" lon="5.20885">
        <ele>538.62565670154</ele>
        <time>2014-05-31T16:05:01Z</time>
      </trkpt>
      <trkpt lat="45.26854" lon="5.20889">
        <ele>538.62565670154</ele>
        <time>2014-05-31T16:05:06Z</time>
      </trkpt>
      <trkpt lat="45.26853" lon="5.20898">
        <ele>538.66693085823</ele>
        <time>2014-05-31T16:05:11Z</time>
      </trkpt>
      <trkpt lat="45.26851" lon="5.20906">
        <ele>538.66693085823</ele>
        <time>2014-05-31T16:05:16Z</time>
      </trkpt>
      <trkpt lat="45.26851" lon="5.20912">
        <ele>541.33873579176</ele>
        <time>2014-05-31T16:05:21Z</time>
      </trkpt>
      <trkpt lat="45.26852" lon="5.2092">
        <ele>541.33873579176</ele>
        <time>2014-05-31T16:05:26Z</time>
      </trkpt>
      <trkpt lat="45.26855" lon="5.20928">
        <ele>543.2380387433</ele>
        <time>2014-05-31T16:05:31Z</time>
      </trkpt>
      <trkpt lat="45.26859" lon="5.20931">
        <ele>543.2380387433</ele>
        <time>2014-05-31T16:05:36Z</time>
      </trkpt>
      <trkpt lat="45.26857" lon="5.20937">
        <ele>543.2380387433</ele>
        <time>2014-05-31T16:05:41Z</time>
      </trkpt>
      <trkpt lat="45.26859" lon="5.20944">
        <ele>545.70903028899</ele>
        <time>2014-05-31T16:05:46Z</time>
      </trkpt>
      <trkpt lat="45.26859" lon="5.20951">
        <ele>545.70903028899</ele>
        <time>2014-05-31T16:05:51Z</time>
      </trkpt>
      <trkpt lat="45.26858" lon="5.20953">
        <ele>545.70903028899</ele>
        <time>2014-05-31T16:05:56Z</time>
      </trkpt>
      <trkpt lat="45.26857" lon="5.20953">
        <ele>545.70903028899</ele>
        <time>2014-05-31T16:06:01Z</time>
      </trkpt>
      <trkpt lat="45.26857" lon="5.20954">
        <ele>545.70903028899</ele>
        <time>2014-05-31T16:06:06Z</time>
      </trkpt>
      <trkpt lat="45.2686" lon="5.20958">
        <ele>547.82371029552</ele>
        <time>2014-05-31T16:06:11Z</time>
      </trkpt>
      <trkpt lat="45.26862" lon="5.20962">
        <ele>547.82371029552</ele>
        <time>2014-05-31T16:06:16Z</time>
      </trkpt>
      <trkpt lat="45.26859" lon="5.20966">
        <ele>547.82371029552</ele>
        <time>2014-05-31T16:06:21Z</time>
      </trkpt>
      <trkpt lat="45.26858" lon="5.20968">
        <ele>549.3357395142</ele>
        <time>2014-05-31T16:06:26Z</time>
      </trkpt>
      <trkpt lat="45.26856" lon="5.20968">
        <ele>549.3357395142</ele>
        <time>2014-05-31T16:06:31Z</time>
      </trkpt>
      <trkpt lat="45.26854" lon="5.20969">
        <ele>549.3357395142</ele>
        <time>2014-05-31T16:06:36Z</time>
      </trkpt>
      <trkpt lat="45.26852" lon="5.2097">
        <ele>549.3357395142</ele>
        <time>2014-05-31T16:06:41Z</time>
      </trkpt>
      <trkpt lat="45.2685" lon="5.20972">
        <ele>549.3357395142</ele>
        <time>2014-05-31T16:06:46Z</time>
      </trkpt>
      <trkpt lat="45.2685" lon="5.2098">
        <ele>551.05003031173</ele>
        <time>2014-05-31T16:06:51Z</time>
      </trkpt>
      <trkpt lat="45.2685" lon="5.20984">
        <ele>551.05003031173</ele>
        <time>2014-05-31T16:06:56Z</time>
      </trkpt>
      <trkpt lat="45.2685" lon="5.20985">
        <ele>551.05003031173</ele>
        <time>2014-05-31T16:07:01Z</time>
      </trkpt>
      <trkpt lat="45.26849" lon="5.20987">
        <ele>551.05003031173</ele>
        <time>2014-05-31T16:07:06Z</time>
      </trkpt>
      <trkpt lat="45.26847" lon="5.20987">
        <ele>551.05003031173</ele>
        <time>2014-05-31T16:07:11Z</time>
      </trkpt>
      <trkpt lat="45.26847" lon="5.20988">
        <ele>551.05003031173</ele>
        <time>2014-05-31T16:07:16Z</time>
      </trkpt>
      <trkpt lat="45.26847" lon="5.20991">
        <ele>552.3400260061</ele>
        <time>2014-05-31T16:07:21Z</time>
      </trkpt>
      <trkpt lat="45.26848" lon="5.20997">
        <ele>552.3400260061</ele>
        <time>2014-05-31T16:07:26Z</time>
      </trkpt>
      <trkpt lat="45.26848" lon="5.21">
        <ele>552.3400260061</ele>
        <time>2014-05-31T16:07:31Z</time>
      </trkpt>
      <trkpt lat="45.26848" lon="5.21">
        <ele>552.3400260061</ele>
        <time>2014-05-31T16:07:36Z</time>
      </trkpt>
      <trkpt lat="45.26848" lon="5.21002">
        <ele>552.3400260061</ele>
        <time>2014-05-31T16:07:41Z</time>
      </trkpt>
      <trkpt lat="45.26848" lon="5.21002">
        <ele>552.3400260061</ele>
        <time>2014-05-31T16:07:46Z</time>
      </trkpt>
      <trkpt lat="45.26847" lon="5.21001">
        <ele>553.09477580836</ele>
        <time>2014-05-31T16:07:51Z</time>
      </trkpt>
      <trkpt lat="45.26846" lon="5.20996">
        <ele>553.09477580836</ele>
        <time>2014-05-31T16:07:56Z</time>
      </trkpt>
      <trkpt lat="45.26846" lon="5.20992">
        <ele>553.09477580836</ele>
        <time>2014-05-31T16:08:01Z</time>
      </trkpt>
      <trkpt lat="45.26846" lon="5.20992">
        <ele>553.09477580836</ele>
        <time>2014-05-31T16:08:06Z</time>
      </trkpt>
      <trkpt lat="45.26846" lon="5.20992">
        <ele>553.09477580836</ele>
        <time>2014-05-31T16:08:11Z</time>
      </trkpt>
      <trkpt lat="45.26846" lon="5.20992">
        <ele>553.09477580836</ele>
        <time>2014-05-31T16:08:16Z</time>
      </trkpt>
      <trkpt lat="45.26846" lon="5.20992">
        <ele>553.09477580836</ele>
        <time>2014-05-31T16:08:21Z</time>
      </trkpt>
      <trkpt lat="45.26847" lon="5.20992">
        <ele>553.09477580836</ele>
        <time>2014-05-31T16:08:26Z</time>
      </trkpt>
      <trkpt lat="45.26846" lon="5.20994">
        <ele>553.45012028684</ele>
        <time>2014-05-31T16:08:31Z</time>
      </trkpt>
      <trkpt lat="45.26847" lon="5.21001">
        <ele>553.45012028684</ele>
        <time>2014-05-31T16:08:36Z</time>
      </trkpt>
      <trkpt lat="45.26848" lon="5.21004">
        <ele>553.45012028684</ele>
        <time>2014-05-31T16:08:41Z</time>
      </trkpt>
      <trkpt lat="45.26846" lon="5.21005">
        <ele>553.45012028684</ele>
        <time>2014-05-31T16:08:46Z</time>
      </trkpt>
      <trkpt lat="45.26846" lon="5.21006">
        <ele>553.49725135196</ele>
        <time>2014-05-31T16:08:51Z</time>
      </trkpt>
      <trkpt lat="45.26846" lon="5.21006">
        <ele>553.49725135196</ele>
        <time>2014-05-31T16:08:56Z</time>
      </trkpt>
      <trkpt lat="45.26846" lon="5.21008">
        <ele>553.49725135196</ele>
        <time>2014-05-31T16:09:01Z</time>
      </trkpt>
      <trkpt lat="45.26847" lon="5.21011">
        <ele>553.49725135196</ele>
        <time>2014-05-31T16:09:06Z</time>
      </trkpt>
      <trkpt lat="45.26849" lon="5.21014">
        <ele>553.49725135196</ele>
        <time>2014-05-31T16:09:11Z</time>
      </trkpt>
      <trkpt lat="45.26849" lon="5.21014">
        <ele>553.49725135196</ele>
        <time>2014-05-31T16:09:16Z</time>
      </trkpt>
      <trkpt lat="45.2685" lon="5.21014">
        <ele>553.49725135196</ele>
        <time>2014-05-31T16:09:21Z</time>
      </trkpt>
      <trkpt lat="45.26849" lon="5.21016">
        <ele>553.41303670333</ele>
        <time>2014-05-31T16:09:26Z</time>
      </trkpt>
      <trkpt lat="45.26849" lon="5.21021">
        <ele>553.41303670333</ele>
        <time>2014-05-31T16:09:31Z</time>
      </trkpt>
      <trkpt lat="45.2685" lon="5.21027">
        <ele>553.41303670333</ele>
        <time>2014-05-31T16:09:36Z</time>
      </trkpt>
      <trkpt lat="45.26851" lon="5.21033">
        <ele>553.17819566203</ele>
        <time>2014-05-31T16:09:41Z</time>
      </trkpt>
      <trkpt lat="45.26851" lon="5.21038">
        <ele>553.17819566203</ele>
        <time>2014-05-31T16:09:46Z</time>
      </trkpt>
      <trkpt lat="45.26853" lon="5.21043">
        <ele>553.17819566203</ele>
        <time>2014-05-31T16:09:51Z</time>
      </trkpt>
      <trkpt lat="45.26854" lon="5.21049">
        <ele>553.07102894563</ele>
        <time>2014-05-31T16:09:56Z</time>
      </trkpt>
      <trkpt lat="45.26854" lon="5.21057">
        <ele>553.07102894563</ele>
        <time>2014-05-31T16:10:01Z</time>
      </trkpt>
      <trkpt lat="45.26856" lon="5.21063">
        <ele>553.13790839996</ele>
        <time>2014-05-31T16:10:06Z</time>
      </trkpt>
      <trkpt lat="45.26858" lon="5.21071">
        <ele>553.13790839996</ele>
        <time>2014-05-31T16:10:11Z</time>
      </trkpt>
      <trkpt lat="45.26859" lon="5.21078">
        <ele>553.26743967121</ele>
        <time>2014-05-31T16:10:16Z</time>
      </trkpt>
      <trkpt lat="45.26859" lon="5.21085">
        <ele>553.26743967121</ele>
        <time>2014-05-31T16:10:21Z</time>
      </trkpt>
      <trkpt lat="45.26859" lon="5.21092">
        <ele>553.73872293185</ele>
        <time>2014-05-31T16:10:26Z</time>
      </trkpt>
      <trkpt lat="45.26859" lon="5.21099">
        <ele>553.73872293185</ele>
        <time>2014-05-31T16:10:31Z</time>
      </trkpt>
      <trkpt lat="45.2686" lon="5.21104">
        <ele>554.09927498478</ele>
        <time>2014-05-31T16:10:36Z</time>
      </trkpt>
      <trkpt lat="45.2686" lon="5.21111">
        <ele>554.09927498478</ele>
        <time>2014-05-31T16:10:41Z</time>
      </trkpt>
      <trkpt lat="45.26859" lon="5.21117">
        <ele>554.44684488444</ele>
        <time>2014-05-31T16:10:46Z</time>
      </trkpt>
      <trkpt lat="45.26859" lon="5.21125">
        <ele>554.44684488444</ele>
        <time>2014-05-31T16:10:51Z</time>
      </trkpt>
      <trkpt lat="45.26858" lon="5.2113">
        <ele>554.44684488444</ele>
        <time>2014-05-31T16:10:56Z</time>
      </trkpt>
      <trkpt lat="45.26858" lon="5.21131">
        <ele>554.78856888234</ele>
        <time>2014-05-31T16:11:01Z</time>
      </trkpt>
      <trkpt lat="45.26857" lon="5.21138">
        <ele>554.78856888234</ele>
        <time>2014-05-31T16:11:06Z</time>
      </trkpt>
      <trkpt lat="45.26857" lon="5.21145">
        <ele>554.58949055889</ele>
        <time>2014-05-31T16:11:11Z</time>
      </trkpt>
      <trkpt lat="45.26856" lon="5.21153">
        <ele>554.58949055889</ele>
        <time>2014-05-31T16:11:16Z</time>
      </trkpt>
      <trkpt lat="45.26854" lon="5.21161">
        <ele>554.57802958322</ele>
        <time>2014-05-31T16:11:21Z</time>
      </trkpt>
      <trkpt lat="45.26853" lon="5.21167">
        <ele>554.57802958322</ele>
        <time>2014-05-31T16:11:26Z</time>
      </trkpt>
      <trkpt lat="45.26851" lon="5.21172">
        <ele>554.57802958322</ele>
        <time>2014-05-31T16:11:31Z</time>
      </trkpt>
      <trkpt lat="45.26851" lon="5.21174">
        <ele>554.57512345467</ele>
        <time>2014-05-31T16:11:36Z</time>
      </trkpt>
      <trkpt lat="45.2685" lon="5.21182">
        <ele>554.57512345467</ele>
        <time>2014-05-31T16:11:41Z</time>
      </trkpt>
      <trkpt lat="45.26848" lon="5.2119">
        <ele>555.15621087328</ele>
        <time>2014-05-31T16:11:46Z</time>
      </trkpt>
      <trkpt lat="45.26846" lon="5.21193">
        <ele>555.15621087328</ele>
        <time>2014-05-31T16:11:51Z</time>
      </trkpt>
      <trkpt lat="45.26844" lon="5.212">
        <ele>555.15621087328</ele>
        <time>2014-05-31T16:11:56Z</time>
      </trkpt>
      <trkpt lat="45.26842" lon="5.21208">
        <ele>557.15898956669</ele>
        <time>2014-05-31T16:12:01Z</time>
      </trkpt>
      <trkpt lat="45.26839" lon="5.21217">
        <ele>557.15898956669</ele>
        <time>2014-05-31T16:12:06Z</time>
      </trkpt>
      <trkpt lat="45.2684" lon="5.21226">
        <ele>558.52504244504</ele>
        <time>2014-05-31T16:12:11Z</time>
      </trkpt>
      <trkpt lat="45.2684" lon="5.21231">
        <ele>558.52504244504</ele>
        <time>2014-05-31T16:12:16Z</time>
      </trkpt>
      <trkpt lat="45.2684" lon="5.21239">
        <ele>558.52504244504</ele>
        <time>2014-05-31T16:12:21Z</time>
      </trkpt>
      <trkpt lat="45.26839" lon="5.21247">
        <ele>558.58292234569</ele>
        <time>2014-05-31T16:12:26Z</time>
      </trkpt>
      <trkpt lat="45.26841" lon="5.21252">
        <ele>558.58292234569</ele>
        <time>2014-05-31T16:12:31Z</time>
      </trkpt>
      <trkpt lat="45.2684" lon="5.21264">
        <ele>559.42497165678</ele>
        <time>2014-05-31T16:12:36Z</time>
      </trkpt>
      <trkpt lat="45.26838" lon="5.21273">
        <ele>559.42497165678</ele>
        <time>2014-05-31T16:12:41Z</time>
      </trkpt>
      <trkpt lat="45.26838" lon="5.2128">
        <ele>560.1238141879</ele>
        <time>2014-05-31T16:12:46Z</time>
      </trkpt>
      <trkpt lat="45.26838" lon="5.21284">
        <ele>560.1238141879</ele>
        <time>2014-05-31T16:12:51Z</time>
      </trkpt>
      <trkpt lat="45.26837" lon="5.2129">
        <ele>560.1238141879</ele>
        <time>2014-05-31T16:12:56Z</time>
      </trkpt>
      <trkpt lat="45.26835" lon="5.21292">
        <ele>560.16206571457</ele>
        <time>2014-05-31T16:13:01Z</time>
      </trkpt>
      <trkpt lat="45.26835" lon="5.21294">
        <ele>560.16206571457</ele>
        <time>2014-05-31T16:13:06Z</time>
      </trkpt>
      <trkpt lat="45.26835" lon="5.21295">
        <ele>560.16206571457</ele>
        <time>2014-05-31T16:13:11Z</time>
      </trkpt>
      <trkpt lat="45.26835" lon="5.21296">
        <ele>560.16206571457</ele>
        <time>2014-05-31T16:13:16Z</time>
      </trkpt>
      <trkpt lat="45.26834" lon="5.21297">
        <ele>560.16206571457</ele>
        <time>2014-05-31T16:13:21Z</time>
      </trkpt>
      <trkpt lat="45.26834" lon="5.21298">
        <ele>560.16206571457</ele>
        <time>2014-05-31T16:13:26Z</time>
      </trkpt>
      <trkpt lat="45.26834" lon="5.21298">
        <ele>560.16206571457</ele>
        <time>2014-05-31T16:13:31Z</time>
      </trkpt>
      <trkpt lat="45.26834" lon="5.21298">
        <ele>560.16206571457</ele>
        <time>2014-05-31T16:13:36Z</time>
      </trkpt>
      <trkpt lat="45.26834" lon="5.21299">
        <ele>560.16206571457</ele>
        <time>2014-05-31T16:13:41Z</time>
      </trkpt>
      <trkpt lat="45.26833" lon="5.21299">
        <ele>560.16206571457</ele>
        <time>2014-05-31T16:13:46Z</time>
      </trkpt>
      <trkpt lat="45.26833" lon="5.21299">
        <ele>560.16206571457</ele>
        <time>2014-05-31T16:13:51Z</time>
      </trkpt>
      <trkpt lat="45.26834" lon="5.21297">
        <ele>560.16206571457</ele>
        <time>2014-05-31T16:13:56Z</time>
      </trkpt>
      <trkpt lat="45.26836" lon="5.21292">
        <ele>559.80918518079</ele>
        <time>2014-05-31T16:14:01Z</time>
      </trkpt>
      <trkpt lat="45.26837" lon="5.21287">
        <ele>559.80918518079</ele>
        <time>2014-05-31T16:14:06Z</time>
      </trkpt>
      <trkpt lat="45.26838" lon="5.21282">
        <ele>559.80918518079</ele>
        <time>2014-05-31T16:14:11Z</time>
      </trkpt>
      <trkpt lat="45.26838" lon="5.21275">
        <ele>559.66224217628</ele>
        <time>2014-05-31T16:14:16Z</time>
      </trkpt>
      <trkpt lat="45.26838" lon="5.21269">
        <ele>559.66224217628</ele>
        <time>2014-05-31T16:14:21Z</time>
      </trkpt>
      <trkpt lat="45.2684" lon="5.21263">
        <ele>559.40155535759</ele>
        <time>2014-05-31T16:14:26Z</time>
      </trkpt>
      <trkpt lat="45.26842" lon="5.21255">
        <ele>559.40155535759</ele>
        <time>2014-05-31T16:14:31Z</time>
      </trkpt>
      <trkpt lat="45.26844" lon="5.21247">
        <ele>559.2740972416</ele>
        <time>2014-05-31T16:14:36Z</time>
      </trkpt>
      <trkpt lat="45.26845" lon="5.21237">
        <ele>559.2740972416</ele>
        <time>2014-05-31T16:14:41Z</time>
      </trkpt>
      <trkpt lat="45.26845" lon="5.21227">
        <ele>558.82320092737</ele>
        <time>2014-05-31T16:14:46Z</time>
      </trkpt>
      <trkpt lat="45.26846" lon="5.21217">
        <ele>558.82320092737</ele>
        <time>2014-05-31T16:14:51Z</time>
      </trkpt>
      <trkpt lat="45.26848" lon="5.21208">
        <ele>558.97873065218</ele>
        <time>2014-05-31T16:14:56Z</time>
      </trkpt>
      <trkpt lat="45.26849" lon="5.212">
        <ele>558.97873065218</ele>
        <time>2014-05-31T16:15:01Z</time>
      </trkpt>
      <trkpt lat="45.26849" lon="5.21196">
        <ele>558.97873065218</ele>
        <time>2014-05-31T16:15:06Z</time>
      </trkpt>
      <trkpt lat="45.2685" lon="5.21186">
        <ele>559.70898452173</ele>
        <time>2014-05-31T16:15:11Z</time>
      </trkpt>
      <trkpt lat="45.26852" lon="5.21175">
        <ele>559.70898452173</ele>
        <time>2014-05-31T16:15:16Z</time>
      </trkpt>
      <trkpt lat="45.26853" lon="5.21166">
        <ele>559.74666637518</ele>
        <time>2014-05-31T16:15:21Z</time>
      </trkpt>
      <trkpt lat="45.26854" lon="5.21156">
        <ele>559.74666637518</ele>
        <time>2014-05-31T16:15:26Z</time>
      </trkpt>
      <trkpt lat="45.26855" lon="5.21147">
        <ele>559.61194258783</ele>
        <time>2014-05-31T16:15:31Z</time>
      </trkpt>
      <trkpt lat="45.26856" lon="5.21137">
        <ele>559.61194258783</ele>
        <time>2014-05-31T16:15:36Z</time>
      </trkpt>
      <trkpt lat="45.26857" lon="5.21131">
        <ele>558.64887158671</ele>
        <time>2014-05-31T16:15:41Z</time>
      </trkpt>
      <trkpt lat="45.26857" lon="5.21123">
        <ele>558.64887158671</ele>
        <time>2014-05-31T16:15:46Z</time>
      </trkpt>
      <trkpt lat="45.26859" lon="5.21115">
        <ele>557.48547468614</ele>
        <time>2014-05-31T16:15:51Z</time>
      </trkpt>
      <trkpt lat="45.26859" lon="5.21108">
        <ele>557.48547468614</ele>
        <time>2014-05-31T16:15:56Z</time>
      </trkpt>
      <trkpt lat="45.26858" lon="5.21103">
        <ele>557.48547468614</ele>
        <time>2014-05-31T16:16:01Z</time>
      </trkpt>
      <trkpt lat="45.26858" lon="5.21098">
        <ele>556.01006138394</ele>
        <time>2014-05-31T16:16:06Z</time>
      </trkpt>
      <trkpt lat="45.26858" lon="5.21089">
        <ele>556.01006138394</ele>
        <time>2014-05-31T16:16:11Z</time>
      </trkpt>
      <trkpt lat="45.26857" lon="5.21081">
        <ele>554.0446304289</ele>
        <time>2014-05-31T16:16:16Z</time>
      </trkpt>
      <trkpt lat="45.26856" lon="5.21073">
        <ele>554.0446304289</ele>
        <time>2014-05-31T16:16:21Z</time>
      </trkpt>
      <trkpt lat="45.26855" lon="5.21065">
        <ele>551.76674435141</ele>
        <time>2014-05-31T16:16:26Z</time>
      </trkpt>
      <trkpt lat="45.26855" lon="5.21058">
        <ele>551.76674435141</ele>
        <time>2014-05-31T16:16:31Z</time>
      </trkpt>
      <trkpt lat="45.26855" lon="5.2105">
        <ele>548.70184010987</ele>
        <time>2014-05-31T16:16:36Z</time>
      </trkpt>
      <trkpt lat="45.26853" lon="5.21044">
        <ele>548.70184010987</ele>
        <time>2014-05-31T16:16:41Z</time>
      </trkpt>
      <trkpt lat="45.26851" lon="5.21038">
        <ele>545.33961400146</ele>
        <time>2014-05-31T16:16:46Z</time>
      </trkpt>
      <trkpt lat="45.26851" lon="5.2103">
        <ele>545.33961400146</ele>
        <time>2014-05-31T16:16:51Z</time>
      </trkpt>
      <trkpt lat="45.26852" lon="5.21025">
        <ele>541.07105040504</ele>
        <time>2014-05-31T16:16:56Z</time>
      </trkpt>
      <trkpt lat="45.26854" lon="5.2102">
        <ele>541.07105040504</ele>
        <time>2014-05-31T16:17:01Z</time>
      </trkpt>
      <trkpt lat="45.26856" lon="5.21015">
        <ele>541.07105040504</ele>
        <time>2014-05-31T16:17:06Z</time>
      </trkpt>
      <trkpt lat="45.26857" lon="5.21013">
        <ele>537.32230575194</ele>
        <time>2014-05-31T16:17:11Z</time>
      </trkpt>
      <trkpt lat="45.26856" lon="5.21009">
        <ele>537.32230575194</ele>
        <time>2014-05-31T16:17:16Z</time>
      </trkpt>
      <trkpt lat="45.26854" lon="5.21007">
        <ele>537.32230575194</ele>
        <time>2014-05-31T16:17:21Z</time>
      </trkpt>
      <trkpt lat="45.2685" lon="5.21003">
        <ele>534.31396261365</ele>
        <time>2014-05-31T16:17:26Z</time>
      </trkpt>
      <trkpt lat="45.26848" lon="5.20996">
        <ele>534.31396261365</ele>
        <time>2014-05-31T16:17:31Z</time>
      </trkpt>
      <trkpt lat="45.26847" lon="5.20991">
        <ele>532.89437834335</ele>
        <time>2014-05-31T16:17:36Z</time>
      </trkpt>
      <trkpt lat="45.26847" lon="5.2099">
        <ele>532.89437834335</ele>
        <time>2014-05-31T16:17:41Z</time>
      </trkpt>
      <trkpt lat="45.26846" lon="5.20989">
        <ele>532.89437834335</ele>
        <time>2014-05-31T16:17:46Z</time>
      </trkpt>
      <trkpt lat="45.26845" lon="5.2099">
        <ele>532.89437834335</ele>
        <time>2014-05-31T16:17:51Z</time>
      </trkpt>
      <trkpt lat="45.26845" lon="5.20989">
        <ele>532.89437834335</ele>
        <time>2014-05-31T16:17:56Z</time>
      </trkpt>
      <trkpt lat="45.26845" lon="5.20988">
        <ele>532.89437834335</ele>
        <time>2014-05-31T16:18:01Z</time>
      </trkpt>
      <trkpt lat="45.26844" lon="5.20986">
        <ele>532.89437834335</ele>
        <time>2014-05-31T16:18:06Z</time>
      </trkpt>
      <trkpt lat="45.26844" lon="5.20985">
        <ele>532.89437834335</ele>
        <time>2014-05-31T16:18:11Z</time>
      </trkpt>
      <trkpt lat="45.26845" lon="5.20983">
        <ele>532.89437834335</ele>
        <time>2014-05-31T16:18:16Z</time>
      </trkpt>
      <trkpt lat="45.26845" lon="5.2098">
        <ele>532.16320644147</ele>
        <time>2014-05-31T16:18:21Z</time>
      </trkpt>
      <trkpt lat="45.26846" lon="5.20976">
        <ele>532.16320644147</ele>
        <time>2014-05-31T16:18:26Z</time>
      </trkpt>
      <trkpt lat="45.26848" lon="5.20976">
        <ele>532.16320644147</ele>
        <time>2014-05-31T16:18:31Z</time>
      </trkpt>
      <trkpt lat="45.2685" lon="5.20974">
        <ele>532.16320644147</ele>
        <time>2014-05-31T16:18:36Z</time>
      </trkpt>
      <trkpt lat="45.26853" lon="5.20971">
        <ele>531.25475481736</ele>
        <time>2014-05-31T16:18:41Z</time>
      </trkpt>
      <trkpt lat="45.26856" lon="5.20969">
        <ele>531.25475481736</ele>
        <time>2014-05-31T16:18:46Z</time>
      </trkpt>
      <trkpt lat="45.26856" lon="5.20968">
        <ele>531.25475481736</ele>
        <time>2014-05-31T16:18:51Z</time>
      </trkpt>
      <trkpt lat="45.26856" lon="5.20966">
        <ele>531.25475481736</ele>
        <time>2014-05-31T16:18:56Z</time>
      </trkpt>
      <trkpt lat="45.26856" lon="5.20965">
        <ele>531.25475481736</ele>
        <time>2014-05-31T16:19:01Z</time>
      </trkpt>
      <trkpt lat="45.26855" lon="5.2096">
        <ele>530.63795618271</ele>
        <time>2014-05-31T16:19:06Z</time>
      </trkpt>
      <trkpt lat="45.26855" lon="5.20957">
        <ele>530.63795618271</ele>
        <time>2014-05-31T16:19:11Z</time>
      </trkpt>
      <trkpt lat="45.26852" lon="5.20954">
        <ele>530.63795618271</ele>
        <time>2014-05-31T16:19:16Z</time>
      </trkpt>
      <trkpt lat="45.2685" lon="5.20949">
        <ele>530.59221862949</ele>
        <time>2014-05-31T16:19:21Z</time>
      </trkpt>
      <trkpt lat="45.26849" lon="5.20942">
        <ele>530.59221862949</ele>
        <time>2014-05-31T16:19:26Z</time>
      </trkpt>
      <trkpt lat="45.26848" lon="5.20933">
        <ele>531.10117803081</ele>
        <time>2014-05-31T16:19:31Z</time>
      </trkpt>
      <trkpt lat="45.26847" lon="5.20925">
        <ele>531.10117803081</ele>
        <time>2014-05-31T16:19:36Z</time>
      </trkpt>
      <trkpt lat="45.26848" lon="5.20919">
        <ele>530.75277503537</ele>
        <time>2014-05-31T16:19:41Z</time>
      </trkpt>
      <trkpt lat="45.2685" lon="5.20913">
        <ele>530.75277503537</ele>
        <time>2014-05-31T16:19:46Z</time>
      </trkpt>
      <trkpt lat="45.26852" lon="5.20908">
        <ele>529.36284243381</ele>
        <time>2014-05-31T16:19:51Z</time>
      </trkpt>
      <trkpt lat="45.26851" lon="5.20905">
        <ele>529.36284243381</ele>
        <time>2014-05-31T16:19:56Z</time>
      </trkpt>
      <trkpt lat="45.26852" lon="5.20904">
        <ele>529.36284243381</ele>
        <time>2014-05-31T16:20:01Z</time>
      </trkpt>
      <trkpt lat="45.26851" lon="5.20902">
        <ele>529.36284243381</ele>
        <time>2014-05-31T16:20:06Z</time>
      </trkpt>
      <trkpt lat="45.26851" lon="5.20902">
        <ele>529.36284243381</ele>
        <time>2014-05-31T16:20:11Z</time>
      </trkpt>
      <trkpt lat="45.26851" lon="5.20901">
        <ele>529.36284243381</ele>
        <time>2014-05-31T16:20:16Z</time>
      </trkpt>
      <trkpt lat="45.26851" lon="5.20901">
        <ele>529.36284243381</ele>
        <time>2014-05-31T16:20:21Z</time>
      </trkpt>
      <trkpt lat="45.26853" lon="5.20899">
        <ele>529.36284243381</ele>
        <time>2014-05-31T16:20:26Z</time>
      </trkpt>
      <trkpt lat="45.26852" lon="5.20897">
        <ele>529.36284243381</ele>
        <time>2014-05-31T16:20:31Z</time>
      </trkpt>
      <trkpt lat="45.26853" lon="5.20892">
        <ele>528.21449980954</ele>
        <time>2014-05-31T16:20:36Z</time>
      </trkpt>
      <trkpt lat="45.26855" lon="5.20888">
        <ele>528.21449980954</ele>
        <time>2014-05-31T16:20:41Z</time>
      </trkpt>
      <trkpt lat="45.26855" lon="5.20886">
        <ele>528.21449980954</ele>
        <time>2014-05-31T16:20:46Z</time>
      </trkpt>
      <trkpt lat="45.26857" lon="5.20884">
        <ele>528.21449980954</ele>
        <time>2014-05-31T16:20:51Z</time>
      </trkpt>
      <trkpt lat="45.26859" lon="5.20879">
        <ele>527.69282755861</ele>
        <time>2014-05-31T16:20:56Z</time>
      </trkpt>
      <trkpt lat="45.2686" lon="5.20873">
        <ele>527.69282755861</ele>
        <time>2014-05-31T16:21:01Z</time>
      </trkpt>
      <trkpt lat="45.26865" lon="5.20869">
        <ele>527.33129492101</ele>
        <time>2014-05-31T16:21:06Z</time>
      </trkpt>
      <trkpt lat="45.26866" lon="5.20867">
        <ele>527.33129492101</ele>
        <time>2014-05-31T16:21:11Z</time>
      </trkpt>
      <trkpt lat="45.26867" lon="5.20865">
        <ele>527.33129492101</ele>
        <time>2014-05-31T16:21:16Z</time>
      </trkpt>
      <trkpt lat="45.26866" lon="5.20862">
        <ele>527.33129492101</ele>
        <time>2014-05-31T16:21:21Z</time>
      </trkpt>
      <trkpt lat="45.26868" lon="5.2086">
        <ele>527.33129492101</ele>
        <time>2014-05-31T16:21:26Z</time>
      </trkpt>
      <trkpt lat="45.26869" lon="5.20858">
        <ele>526.55392516269</ele>
        <time>2014-05-31T16:21:31Z</time>
      </trkpt>
      <trkpt lat="45.26869" lon="5.20858">
        <ele>526.55392516269</ele>
        <time>2014-05-31T16:21:36Z</time>
      </trkpt>
      <trkpt lat="45.26869" lon="5.20858">
        <ele>526.55392516269</ele>
        <time>2014-05-31T16:21:41Z</time>
      </trkpt>
      <trkpt lat="45.2687" lon="5.20859">
        <ele>526.55392516269</ele>
        <time>2014-05-31T16:21:46Z</time>
      </trkpt>
      <trkpt lat="45.2687" lon="5.2086">
        <ele>526.55392516269</ele>
        <time>2014-05-31T16:21:51Z</time>
      </trkpt>
      <trkpt lat="45.26871" lon="5.2086">
        <ele>526.55392516269</ele>
        <time>2014-05-31T16:21:56Z</time>
      </trkpt>
      <trkpt lat="45.26871" lon="5.2086">
        <ele>526.55392516269</ele>
        <time>2014-05-31T16:22:01Z</time>
      </trkpt>
      <trkpt lat="45.26871" lon="5.2086">
        <ele>526.55392516269</ele>
        <time>2014-05-31T16:22:06Z</time>
      </trkpt>
      <trkpt lat="45.2687" lon="5.2086">
        <ele>526.55392516269</ele>
        <time>2014-05-31T16:22:11Z</time>
      </trkpt>
      <trkpt lat="45.2687" lon="5.2086">
        <ele>526.55392516269</ele>
        <time>2014-05-31T16:22:16Z</time>
      </trkpt>
      <trkpt lat="45.2687" lon="5.20859">
        <ele>526.55392516269</ele>
        <time>2014-05-31T16:22:21Z</time>
      </trkpt>
      <trkpt lat="45.2687" lon="5.20859">
        <ele>526.55392516269</ele>
        <time>2014-05-31T16:22:26Z</time>
      </trkpt>
      <trkpt lat="45.26869" lon="5.20858">
        <ele>526.55392516269</ele>
        <time>2014-05-31T16:22:31Z</time>
      </trkpt>
      <trkpt lat="45.26869" lon="5.20858">
        <ele>526.55392516269</ele>
        <time>2014-05-31T16:22:36Z</time>
      </trkpt>
      <trkpt lat="45.26869" lon="5.20857">
        <ele>526.55392516269</ele>
        <time>2014-05-31T16:22:41Z</time>
      </trkpt>
      <trkpt lat="45.26869" lon="5.20857">
        <ele>526.55392516269</ele>
        <time>2014-05-31T16:22:46Z</time>
      </trkpt>
      <trkpt lat="45.2687" lon="5.20857">
        <ele>526.75602225056</ele>
        <time>2014-05-31T16:22:51Z</time>
      </trkpt>
      <trkpt lat="45.2687" lon="5.20857">
        <ele>526.75602225056</ele>
        <time>2014-05-31T16:22:56Z</time>
      </trkpt>
      <trkpt lat="45.2687" lon="5.20858">
        <ele>526.75602225056</ele>
        <time>2014-05-31T16:23:01Z</time>
      </trkpt>
      <trkpt lat="45.2687" lon="5.20857">
        <ele>526.75602225056</ele>
        <time>2014-05-31T16:23:06Z</time>
      </trkpt>
      <trkpt lat="45.2687" lon="5.20857">
        <ele>526.75602225056</ele>
        <time>2014-05-31T16:23:11Z</time>
      </trkpt>
      <trkpt lat="45.2687" lon="5.20857">
        <ele>526.75602225056</ele>
        <time>2014-05-31T16:23:16Z</time>
      </trkpt>
      <trkpt lat="45.26871" lon="5.20857">
        <ele>526.75602225056</ele>
        <time>2014-05-31T16:23:21Z</time>
      </trkpt>
      <trkpt lat="45.26873" lon="5.20856">
        <ele>526.75602225056</ele>
        <time>2014-05-31T16:23:26Z</time>
      </trkpt>
      <trkpt lat="45.26874" lon="5.20853">
        <ele>526.75602225056</ele>
        <time>2014-05-31T16:23:31Z</time>
      </trkpt>
      <trkpt lat="45.26876" lon="5.20851">
        <ele>526.75602225056</ele>
        <time>2014-05-31T16:23:36Z</time>
      </trkpt>
      <trkpt lat="45.26877" lon="5.2085">
        <ele>526.73578734144</ele>
        <time>2014-05-31T16:23:41Z</time>
      </trkpt>
      <trkpt lat="45.26877" lon="5.20849">
        <ele>526.73578734144</ele>
        <time>2014-05-31T16:23:46Z</time>
      </trkpt>
      <trkpt lat="45.26879" lon="5.20848">
        <ele>526.73578734144</ele>
        <time>2014-05-31T16:23:51Z</time>
      </trkpt>
      <trkpt lat="45.2688" lon="5.20848">
        <ele>526.73578734144</ele>
        <time>2014-05-31T16:23:56Z</time>
      </trkpt>
      <trkpt lat="45.26881" lon="5.20847">
        <ele>526.73578734144</ele>
        <time>2014-05-31T16:24:01Z</time>
      </trkpt>
      <trkpt lat="45.26881" lon="5.20845">
        <ele>526.73578734144</ele>
        <time>2014-05-31T16:24:06Z</time>
      </trkpt>
      <trkpt lat="45.26882" lon="5.20841">
        <ele>527.11365149774</ele>
        <time>2014-05-31T16:24:11Z</time>
      </trkpt>
      <trkpt lat="45.26885" lon="5.20834">
        <ele>527.11365149774</ele>
        <time>2014-05-31T16:24:16Z</time>
      </trkpt>
      <trkpt lat="45.26889" lon="5.2083">
        <ele>527.09236991547</ele>
        <time>2014-05-31T16:24:21Z</time>
      </trkpt>
      <trkpt lat="45.26893" lon="5.20825">
        <ele>527.09236991547</ele>
        <time>2014-05-31T16:24:26Z</time>
      </trkpt>
      <trkpt lat="45.26896" lon="5.20819">
        <ele>526.62987927011</ele>
        <time>2014-05-31T16:24:31Z</time>
      </trkpt>
      <trkpt lat="45.26899" lon="5.20811">
        <ele>526.62987927011</ele>
        <time>2014-05-31T16:24:36Z</time>
      </trkpt>
      <trkpt lat="45.26902" lon="5.20805">
        <ele>526.65325201635</ele>
        <time>2014-05-31T16:24:41Z</time>
      </trkpt>
      <trkpt lat="45.26906" lon="5.20795">
        <ele>526.65325201635</ele>
        <time>2014-05-31T16:24:46Z</time>
      </trkpt>
      <trkpt lat="45.2691" lon="5.20788">
        <ele>527.21040527428</ele>
        <time>2014-05-31T16:24:51Z</time>
      </trkpt>
      <trkpt lat="45.26911" lon="5.20782">
        <ele>527.21040527428</ele>
        <time>2014-05-31T16:24:56Z</time>
      </trkpt>
      <trkpt lat="45.26917" lon="5.20772">
        <ele>527.92179861661</ele>
        <time>2014-05-31T16:25:01Z</time>
      </trkpt>
      <trkpt lat="45.2692" lon="5.20765">
        <ele>527.92179861661</ele>
        <time>2014-05-31T16:25:06Z</time>
      </trkpt>
      <trkpt lat="45.26924" lon="5.20758">
        <ele>527.59451223705</ele>
        <time>2014-05-31T16:25:11Z</time>
      </trkpt>
      <trkpt lat="45.2693" lon="5.20749">
        <ele>527.59451223705</ele>
        <time>2014-05-31T16:25:16Z</time>
      </trkpt>
      <trkpt lat="45.26934" lon="5.20741">
        <ele>527.09320026517</ele>
        <time>2014-05-31T16:25:21Z</time>
      </trkpt>
      <trkpt lat="45.26938" lon="5.20734">
        <ele>527.09320026517</ele>
        <time>2014-05-31T16:25:26Z</time>
      </trkpt>
      <trkpt lat="45.26942" lon="5.20727">
        <ele>526.4603276604</ele>
        <time>2014-05-31T16:25:31Z</time>
      </trkpt>
      <trkpt lat="45.26947" lon="5.2072">
        <ele>526.4603276604</ele>
        <time>2014-05-31T16:25:36Z</time>
      </trkpt>
      <trkpt lat="45.2695" lon="5.2071">
        <ele>526.82183486364</ele>
        <time>2014-05-31T16:25:41Z</time>
      </trkpt>
      <trkpt lat="45.26955" lon="5.20699">
        <ele>527.66523509998</ele>
        <time>2014-05-31T16:25:46Z</time>
      </trkpt>
      <trkpt lat="45.26959" lon="5.20691">
        <ele>527.66523509998</ele>
        <time>2014-05-31T16:25:51Z</time>
      </trkpt>
      <trkpt lat="45.26962" lon="5.20685">
        <ele>528.14052511974</ele>
        <time>2014-05-31T16:25:56Z</time>
      </trkpt>
      <trkpt lat="45.26968" lon="5.20675">
        <ele>528.14052511974</ele>
        <time>2014-05-31T16:26:01Z</time>
      </trkpt>
      <trkpt lat="45.26975" lon="5.20669">
        <ele>529.96371581613</ele>
        <time>2014-05-31T16:26:06Z</time>
      </trkpt>
      <trkpt lat="45.26982" lon="5.20668">
        <ele>529.96371581613</ele>
        <time>2014-05-31T16:26:11Z</time>
      </trkpt>
      <trkpt lat="45.2699" lon="5.20669">
        <ele>532.65164504084</ele>
        <time>2014-05-31T16:26:16Z</time>
      </trkpt>
      <trkpt lat="45.26996" lon="5.20675">
        <ele>532.65164504084</ele>
        <time>2014-05-31T16:26:21Z</time>
      </trkpt>
      <trkpt lat="45.27" lon="5.20683">
        <ele>535.30818955248</ele>
        <time>2014-05-31T16:26:26Z</time>
      </trkpt>
      <trkpt lat="45.27004" lon="5.20691">
        <ele>535.30818955248</ele>
        <time>2014-05-31T16:26:31Z</time>
      </trkpt>
      <trkpt lat="45.27007" lon="5.20694">
        <ele>537.50879990234</ele>
        <time>2014-05-31T16:26:36Z</time>
      </trkpt>
      <trkpt lat="45.2701" lon="5.20701">
        <ele>537.50879990234</ele>
        <time>2014-05-31T16:26:41Z</time>
      </trkpt>
      <trkpt lat="45.27014" lon="5.20707">
        <ele>539.81392637983</ele>
        <time>2014-05-31T16:26:46Z</time>
      </trkpt>
      <trkpt lat="45.27019" lon="5.20712">
        <ele>539.81392637983</ele>
        <time>2014-05-31T16:26:51Z</time>
      </trkpt>
      <trkpt lat="45.27025" lon="5.20716">
        <ele>542.12176265073</ele>
        <time>2014-05-31T16:26:56Z</time>
      </trkpt>
      <trkpt lat="45.27031" lon="5.2072">
        <ele>542.12176265073</ele>
        <time>2014-05-31T16:27:01Z</time>
      </trkpt>
      <trkpt lat="45.27037" lon="5.20722">
        <ele>543.77570998383</ele>
        <time>2014-05-31T16:27:06Z</time>
      </trkpt>
      <trkpt lat="45.27042" lon="5.20725">
        <ele>543.77570998383</ele>
        <time>2014-05-31T16:27:11Z</time>
      </trkpt>
      <trkpt lat="45.27048" lon="5.20728">
        <ele>545.82772165379</ele>
        <time>2014-05-31T16:27:16Z</time>
      </trkpt>
      <trkpt lat="45.27048" lon="5.20733">
        <ele>545.82772165379</ele>
        <time>2014-05-31T16:27:21Z</time>
      </trkpt>
      <trkpt lat="45.27049" lon="5.20736">
        <ele>545.82772165379</ele>
        <time>2014-05-31T16:27:26Z</time>
      </trkpt>
      <trkpt lat="45.2705" lon="5.20739">
        <ele>545.82772165379</ele>
        <time>2014-05-31T16:27:31Z</time>
      </trkpt>
      <trkpt lat="45.2705" lon="5.20741">
        <ele>547.27580305013</ele>
        <time>2014-05-31T16:27:36Z</time>
      </trkpt>
      <trkpt lat="45.27054" lon="5.20744">
        <ele>547.27580305013</ele>
        <time>2014-05-31T16:27:41Z</time>
      </trkpt>
      <trkpt lat="45.27054" lon="5.20747">
        <ele>547.27580305013</ele>
        <time>2014-05-31T16:27:46Z</time>
      </trkpt>
      <trkpt lat="45.27055" lon="5.20748">
        <ele>547.27580305013</ele>
        <time>2014-05-31T16:27:51Z</time>
      </trkpt>
      <trkpt lat="45.27055" lon="5.20748">
        <ele>547.27580305013</ele>
        <time>2014-05-31T16:27:56Z</time>
      </trkpt>
      <trkpt lat="45.27055" lon="5.20746">
        <ele>547.27580305013</ele>
        <time>2014-05-31T16:28:01Z</time>
      </trkpt>
      <trkpt lat="45.27053" lon="5.20743">
        <ele>548.56321577083</ele>
        <time>2014-05-31T16:28:06Z</time>
      </trkpt>
      <trkpt lat="45.27051" lon="5.20738">
        <ele>548.56321577083</ele>
        <time>2014-05-31T16:28:11Z</time>
      </trkpt>
      <trkpt lat="45.2705" lon="5.20732">
        <ele>548.56321577083</ele>
        <time>2014-05-31T16:28:16Z</time>
      </trkpt>
      <trkpt lat="45.27049" lon="5.20727">
        <ele>550.31741261734</ele>
        <time>2014-05-31T16:28:21Z</time>
      </trkpt>
      <trkpt lat="45.27048" lon="5.20722">
        <ele>550.31741261734</ele>
        <time>2014-05-31T16:28:26Z</time>
      </trkpt>
      <trkpt lat="45.27048" lon="5.20713">
        <ele>552.19584438455</ele>
        <time>2014-05-31T16:28:31Z</time>
      </trkpt>
      <trkpt lat="45.27047" lon="5.20705">
        <ele>552.19584438455</ele>
        <time>2014-05-31T16:28:36Z</time>
      </trkpt>
      <trkpt lat="45.27047" lon="5.20697">
        <ele>553.70788770874</ele>
        <time>2014-05-31T16:28:41Z</time>
      </trkpt>
      <trkpt lat="45.27047" lon="5.20688">
        <ele>553.70788770874</ele>
        <time>2014-05-31T16:28:46Z</time>
      </trkpt>
      <trkpt lat="45.27046" lon="5.20679">
        <ele>555.06336671851</ele>
        <time>2014-05-31T16:28:51Z</time>
      </trkpt>
      <trkpt lat="45.27044" lon="5.2067">
        <ele>555.06336671851</ele>
        <time>2014-05-31T16:28:56Z</time>
      </trkpt>
      <trkpt lat="45.27042" lon="5.20661">
        <ele>556.22658447896</ele>
        <time>2014-05-31T16:29:01Z</time>
      </trkpt>
      <trkpt lat="45.27041" lon="5.20651">
        <ele>556.22658447896</ele>
        <time>2014-05-31T16:29:06Z</time>
      </trkpt>
      <trkpt lat="45.2704" lon="5.20642">
        <ele>557.29494728646</ele>
        <time>2014-05-31T16:29:11Z</time>
      </trkpt>
      <trkpt lat="45.2704" lon="5.20641">
        <ele>557.29494728646</ele>
        <time>2014-05-31T16:29:16Z</time>
      </trkpt>
      <trkpt lat="45.2704" lon="5.20637">
        <ele>557.29494728646</ele>
        <time>2014-05-31T16:29:21Z</time>
      </trkpt>
      <trkpt lat="45.27042" lon="5.20637">
        <ele>557.29494728646</ele>
        <time>2014-05-31T16:29:26Z</time>
      </trkpt>
      <trkpt lat="45.27047" lon="5.20641">
        <ele>558.51778574651</ele>
        <time>2014-05-31T16:29:31Z</time>
      </trkpt>
      <trkpt lat="45.27053" lon="5.20644">
        <ele>558.51778574651</ele>
        <time>2014-05-31T16:29:36Z</time>
      </trkpt>
      <trkpt lat="45.27059" lon="5.20648">
        <ele>559.75087889752</ele>
        <time>2014-05-31T16:29:41Z</time>
      </trkpt>
      <trkpt lat="45.27064" lon="5.20655">
        <ele>559.75087889752</ele>
        <time>2014-05-31T16:29:46Z</time>
      </trkpt>
      <trkpt lat="45.27067" lon="5.20662">
        <ele>561.00493890514</ele>
        <time>2014-05-31T16:29:51Z</time>
      </trkpt>
      <trkpt lat="45.27072" lon="5.20668">
        <ele>561.00493890514</ele>
        <time>2014-05-31T16:29:56Z</time>
      </trkpt>
      <trkpt lat="45.27077" lon="5.20673">
        <ele>562.17459219109</ele>
        <time>2014-05-31T16:30:01Z</time>
      </trkpt>
      <trkpt lat="45.27083" lon="5.20677">
        <ele>562.17459219109</ele>
        <time>2014-05-31T16:30:06Z</time>
      </trkpt>
      <trkpt lat="45.27087" lon="5.20683">
        <ele>563.26355518742</ele>
        <time>2014-05-31T16:30:11Z</time>
      </trkpt>
      <trkpt lat="45.27089" lon="5.20683">
        <ele>563.26355518742</ele>
        <time>2014-05-31T16:30:16Z</time>
      </trkpt>
      <trkpt lat="45.27089" lon="5.20683">
        <ele>563.26355518742</ele>
        <time>2014-05-31T16:30:21Z</time>
      </trkpt>
      <trkpt lat="45.27087" lon="5.20681">
        <ele>563.26355518742</ele>
        <time>2014-05-31T16:30:26Z</time>
      </trkpt>
      <trkpt lat="45.27085" lon="5.20679">
        <ele>563.26355518742</ele>
        <time>2014-05-31T16:30:31Z</time>
      </trkpt>
      <trkpt lat="45.2709" lon="5.20682">
        <ele>564.08812778632</ele>
        <time>2014-05-31T16:30:36Z</time>
      </trkpt>
      <trkpt lat="45.27095" lon="5.20686">
        <ele>564.08812778632</ele>
        <time>2014-05-31T16:30:41Z</time>
      </trkpt>
      <trkpt lat="45.27094" lon="5.20685">
        <ele>564.08812778632</ele>
        <time>2014-05-31T16:30:46Z</time>
      </trkpt>
      <trkpt lat="45.27095" lon="5.20686">
        <ele>564.08812778632</ele>
        <time>2014-05-31T16:30:51Z</time>
      </trkpt>
      <trkpt lat="45.27094" lon="5.20687">
        <ele>564.08812778632</ele>
        <time>2014-05-31T16:30:56Z</time>
      </trkpt>
      <trkpt lat="45.27093" lon="5.20685">
        <ele>564.08812778632</ele>
        <time>2014-05-31T16:31:01Z</time>
      </trkpt>
      <trkpt lat="45.27092" lon="5.20684">
        <ele>564.76748428743</ele>
        <time>2014-05-31T16:31:06Z</time>
      </trkpt>
      <trkpt lat="45.27088" lon="5.20682">
        <ele>564.76748428743</ele>
        <time>2014-05-31T16:31:11Z</time>
      </trkpt>
      <trkpt lat="45.27085" lon="5.20678">
        <ele>564.76748428743</ele>
        <time>2014-05-31T16:31:16Z</time>
      </trkpt>
      <trkpt lat="45.27079" lon="5.20673">
        <ele>564.90773058215</ele>
        <time>2014-05-31T16:31:21Z</time>
      </trkpt>
      <trkpt lat="45.27073" lon="5.20668">
        <ele>564.90773058215</ele>
        <time>2014-05-31T16:31:26Z</time>
      </trkpt>
      <trkpt lat="45.27068" lon="5.20663">
        <ele>564.9244951718</ele>
        <time>2014-05-31T16:31:31Z</time>
      </trkpt>
      <trkpt lat="45.27064" lon="5.20656">
        <ele>564.9244951718</ele>
        <time>2014-05-31T16:31:36Z</time>
      </trkpt>
      <trkpt lat="45.2706" lon="5.20649">
        <ele>564.66960695497</ele>
        <time>2014-05-31T16:31:41Z</time>
      </trkpt>
      <trkpt lat="45.27055" lon="5.20644">
        <ele>564.66960695497</ele>
        <time>2014-05-31T16:31:46Z</time>
      </trkpt>
      <trkpt lat="45.27049" lon="5.20642">
        <ele>564.09320329778</ele>
        <time>2014-05-31T16:31:51Z</time>
      </trkpt>
      <trkpt lat="45.27042" lon="5.20637">
        <ele>564.09320329778</ele>
        <time>2014-05-31T16:31:56Z</time>
      </trkpt>
      <trkpt lat="45.27036" lon="5.20631">
        <ele>563.23661841626</ele>
        <time>2014-05-31T16:32:01Z</time>
      </trkpt>
      <trkpt lat="45.27034" lon="5.20621">
        <ele>563.23661841626</ele>
        <time>2014-05-31T16:32:06Z</time>
      </trkpt>
      <trkpt lat="45.27032" lon="5.20611">
        <ele>562.32648714534</ele>
        <time>2014-05-31T16:32:11Z</time>
      </trkpt>
      <trkpt lat="45.27031" lon="5.206">
        <ele>562.32648714534</ele>
        <time>2014-05-31T16:32:16Z</time>
      </trkpt>
      <trkpt lat="45.27029" lon="5.2059">
        <ele>561.45757419014</ele>
        <time>2014-05-31T16:32:21Z</time>
      </trkpt>
      <trkpt lat="45.27027" lon="5.20579">
        <ele>561.45757419014</ele>
        <time>2014-05-31T16:32:26Z</time>
      </trkpt>
      <trkpt lat="45.27025" lon="5.20568">
        <ele>560.51568131107</ele>
        <time>2014-05-31T16:32:31Z</time>
      </trkpt>
      <trkpt lat="45.27025" lon="5.20557">
        <ele>560.51568131107</ele>
        <time>2014-05-31T16:32:36Z</time>
      </trkpt>
      <trkpt lat="45.27026" lon="5.20547">
        <ele>559.65480779391</ele>
        <time>2014-05-31T16:32:41Z</time>
      </trkpt>
      <trkpt lat="45.27027" lon="5.20537">
        <ele>559.65480779391</ele>
        <time>2014-05-31T16:32:46Z</time>
      </trkpt>
      <trkpt lat="45.27028" lon="5.20527">
        <ele>558.8299249192</ele>
        <time>2014-05-31T16:32:51Z</time>
      </trkpt>
      <trkpt lat="45.27029" lon="5.20517">
        <ele>558.8299249192</ele>
        <time>2014-05-31T16:32:56Z</time>
      </trkpt>
      <trkpt lat="45.27031" lon="5.20508">
        <ele>558.02804609058</ele>
        <time>2014-05-31T16:33:01Z</time>
      </trkpt>
      <trkpt lat="45.27033" lon="5.20498">
        <ele>558.02804609058</ele>
        <time>2014-05-31T16:33:06Z</time>
      </trkpt>
      <trkpt lat="45.27038" lon="5.20489">
        <ele>557.42448917731</ele>
        <time>2014-05-31T16:33:11Z</time>
      </trkpt>
      <trkpt lat="45.27042" lon="5.20481">
        <ele>557.42448917731</ele>
        <time>2014-05-31T16:33:16Z</time>
      </trkpt>
      <trkpt lat="45.27042" lon="5.20471">
        <ele>556.93597406404</ele>
        <time>2014-05-31T16:33:21Z</time>
      </trkpt>
      <trkpt lat="45.27044" lon="5.20461">
        <ele>556.93597406404</ele>
        <time>2014-05-31T16:33:26Z</time>
      </trkpt>
      <trkpt lat="45.27045" lon="5.20451">
        <ele>556.34082739899</ele>
        <time>2014-05-31T16:33:31Z</time>
      </trkpt>
      <trkpt lat="45.27046" lon="5.2044">
        <ele>556.34082739899</ele>
        <time>2014-05-31T16:33:36Z</time>
      </trkpt>
      <trkpt lat="45.27049" lon="5.2043">
        <ele>556.29891500434</ele>
        <time>2014-05-31T16:33:41Z</time>
      </trkpt>
      <trkpt lat="45.27054" lon="5.20421">
        <ele>556.29891500434</ele>
        <time>2014-05-31T16:33:46Z</time>
      </trkpt>
      <trkpt lat="45.27059" lon="5.20417">
        <ele>556.54057568591</ele>
        <time>2014-05-31T16:33:51Z</time>
      </trkpt>
      <trkpt lat="45.27066" lon="5.20422">
        <ele>556.54057568591</ele>
        <time>2014-05-31T16:33:56Z</time>
      </trkpt>
      <trkpt lat="45.27072" lon="5.2043">
        <ele>557.01696857761</ele>
        <time>2014-05-31T16:34:01Z</time>
      </trkpt>
      <trkpt lat="45.27078" lon="5.20437">
        <ele>557.01696857761</ele>
        <time>2014-05-31T16:34:06Z</time>
      </trkpt>
      <trkpt lat="45.27083" lon="5.20444">
        <ele>557.4371007079</ele>
        <time>2014-05-31T16:34:11Z</time>
      </trkpt>
      <trkpt lat="45.2709" lon="5.20444">
        <ele>557.4371007079</ele>
        <time>2014-05-31T16:34:16Z</time>
      </trkpt>
      <trkpt lat="45.27095" lon="5.20451">
        <ele>557.7621263053</ele>
        <time>2014-05-31T16:34:21Z</time>
      </trkpt>
      <trkpt lat="45.2711" lon="5.20475">
        <ele>558.12923737</ele>
        <time>2014-05-31T16:34:26Z</time>
      </trkpt>
      <trkpt lat="45.27125" lon="5.20506">
        <ele>558.43476354007</ele>
        <time>2014-05-31T16:34:31Z</time>
      </trkpt>
      <trkpt lat="45.27133" lon="5.20528">
        <ele>558.64044138575</ele>
        <time>2014-05-31T16:34:36Z</time>
      </trkpt>
      <trkpt lat="45.27135" lon="5.20539">
        <ele>558.64044138575</ele>
        <time>2014-05-31T16:34:41Z</time>
      </trkpt>
      <trkpt lat="45.27139" lon="5.20549">
        <ele>559.05695604134</ele>
        <time>2014-05-31T16:34:46Z</time>
      </trkpt>
      <trkpt lat="45.27143" lon="5.20558">
        <ele>559.05695604134</ele>
        <time>2014-05-31T16:34:51Z</time>
      </trkpt>
      <trkpt lat="45.27146" lon="5.20568">
        <ele>559.35180068348</ele>
        <time>2014-05-31T16:34:56Z</time>
      </trkpt>
      <trkpt lat="45.27148" lon="5.20577">
        <ele>559.35180068348</ele>
        <time>2014-05-31T16:35:01Z</time>
      </trkpt>
      <trkpt lat="45.27149" lon="5.20588">
        <ele>559.6207517303</ele>
        <time>2014-05-31T16:35:06Z</time>
      </trkpt>
      <trkpt lat="45.27149" lon="5.20598">
        <ele>559.6207517303</ele>
        <time>2014-05-31T16:35:11Z</time>
      </trkpt>
      <trkpt lat="45.27149" lon="5.20609">
        <ele>559.72199526764</ele>
        <time>2014-05-31T16:35:16Z</time>
      </trkpt>
      <trkpt lat="45.27148" lon="5.2062">
        <ele>559.72199526764</ele>
        <time>2014-05-31T16:35:21Z</time>
      </trkpt>
      <trkpt lat="45.27147" lon="5.20631">
        <ele>559.74074946959</ele>
        <time>2014-05-31T16:35:26Z</time>
      </trkpt>
      <trkpt lat="45.27147" lon="5.20642">
        <ele>559.74074946959</ele>
        <time>2014-05-31T16:35:31Z</time>
      </trkpt>
      <trkpt lat="45.27147" lon="5.20652">
        <ele>559.69852080089</ele>
        <time>2014-05-31T16:35:36Z</time>
      </trkpt>
      <trkpt lat="45.27147" lon="5.20662">
        <ele>559.69852080089</ele>
        <time>2014-05-31T16:35:41Z</time>
      </trkpt>
      <trkpt lat="45.27146" lon="5.20672">
        <ele>559.74507462446</ele>
        <time>2014-05-31T16:35:46Z</time>
      </trkpt>
      <trkpt lat="45.27146" lon="5.20683">
        <ele>559.74507462446</ele>
        <time>2014-05-31T16:35:51Z</time>
      </trkpt>
      <trkpt lat="45.27146" lon="5.20692">
        <ele>559.78830832624</ele>
        <time>2014-05-31T16:35:56Z</time>
      </trkpt>
      <trkpt lat="45.27146" lon="5.20702">
        <ele>559.78830832624</ele>
        <time>2014-05-31T16:36:01Z</time>
      </trkpt>
      <trkpt lat="45.27146" lon="5.20711">
        <ele>559.81491793611</ele>
        <time>2014-05-31T16:36:06Z</time>
      </trkpt>
      <trkpt lat="45.27147" lon="5.20721">
        <ele>559.81491793611</ele>
        <time>2014-05-31T16:36:11Z</time>
      </trkpt>
      <trkpt lat="45.27148" lon="5.20731">
        <ele>559.97111308313</ele>
        <time>2014-05-31T16:36:16Z</time>
      </trkpt>
      <trkpt lat="45.27147" lon="5.20741">
        <ele>559.97111308313</ele>
        <time>2014-05-31T16:36:21Z</time>
      </trkpt>
      <trkpt lat="45.27148" lon="5.20752">
        <ele>560.27667554953</ele>
        <time>2014-05-31T16:36:26Z</time>
      </trkpt>
      <trkpt lat="45.27148" lon="5.20763">
        <ele>560.27667554953</ele>
        <time>2014-05-31T16:36:31Z</time>
      </trkpt>
      <trkpt lat="45.27148" lon="5.20772">
        <ele>560.5909591128</ele>
        <time>2014-05-31T16:36:36Z</time>
      </trkpt>
      <trkpt lat="45.27148" lon="5.20782">
        <ele>560.5909591128</ele>
        <time>2014-05-31T16:36:41Z</time>
      </trkpt>
      <trkpt lat="45.27149" lon="5.20792">
        <ele>560.97094079058</ele>
        <time>2014-05-31T16:36:46Z</time>
      </trkpt>
      <trkpt lat="45.27149" lon="5.20801">
        <ele>560.97094079058</ele>
        <time>2014-05-31T16:36:51Z</time>
      </trkpt>
      <trkpt lat="45.27149" lon="5.2081">
        <ele>561.10891698954</ele>
        <time>2014-05-31T16:36:56Z</time>
      </trkpt>
      <trkpt lat="45.27149" lon="5.2082">
        <ele>561.10891698954</ele>
        <time>2014-05-31T16:37:01Z</time>
      </trkpt>
      <trkpt lat="45.2715" lon="5.20828">
        <ele>561.29689152444</ele>
        <time>2014-05-31T16:37:06Z</time>
      </trkpt>
      <trkpt lat="45.2715" lon="5.20836">
        <ele>561.29689152444</ele>
        <time>2014-05-31T16:37:11Z</time>
      </trkpt>
      <trkpt lat="45.27148" lon="5.20845">
        <ele>561.6323180334</ele>
        <time>2014-05-31T16:37:16Z</time>
      </trkpt>
      <trkpt lat="45.27148" lon="5.20854">
        <ele>561.6323180334</ele>
        <time>2014-05-31T16:37:21Z</time>
      </trkpt>
      <trkpt lat="45.27147" lon="5.20863">
        <ele>561.90241621849</ele>
        <time>2014-05-31T16:37:26Z</time>
      </trkpt>
      <trkpt lat="45.27147" lon="5.20872">
        <ele>561.90241621849</ele>
        <time>2014-05-31T16:37:31Z</time>
      </trkpt>
      <trkpt lat="45.27146" lon="5.20882">
        <ele>562.14077957067</ele>
        <time>2014-05-31T16:37:36Z</time>
      </trkpt>
      <trkpt lat="45.27146" lon="5.20891">
        <ele>562.14077957067</ele>
        <time>2014-05-31T16:37:41Z</time>
      </trkpt>
      <trkpt lat="45.27145" lon="5.20901">
        <ele>562.53712904792</ele>
        <time>2014-05-31T16:37:46Z</time>
      </trkpt>
      <trkpt lat="45.27145" lon="5.20911">
        <ele>562.53712904792</ele>
        <time>2014-05-31T16:37:51Z</time>
      </trkpt>
      <trkpt lat="45.27145" lon="5.2092">
        <ele>563.00738286088</ele>
        <time>2014-05-31T16:37:56Z</time>
      </trkpt>
      <trkpt lat="45.27145" lon="5.20921">
        <ele>563.00738286088</ele>
        <time>2014-05-31T16:38:01Z</time>
      </trkpt>
      <trkpt lat="45.27145" lon="5.20923">
        <ele>563.00738286088</ele>
        <time>2014-05-31T16:38:06Z</time>
      </trkpt>
      <trkpt lat="45.27143" lon="5.20933">
        <ele>563.3292982173</ele>
        <time>2014-05-31T16:38:11Z</time>
      </trkpt>
      <trkpt lat="45.27141" lon="5.20943">
        <ele>563.3292982173</ele>
        <time>2014-05-31T16:38:16Z</time>
      </trkpt>
      <trkpt lat="45.2714" lon="5.20953">
        <ele>563.48470963462</ele>
        <time>2014-05-31T16:38:21Z</time>
      </trkpt>
      <trkpt lat="45.27137" lon="5.20965">
        <ele>563.48470963462</ele>
        <time>2014-05-31T16:38:26Z</time>
      </trkpt>
      <trkpt lat="45.27135" lon="5.20974">
        <ele>563.57253327732</ele>
        <time>2014-05-31T16:38:31Z</time>
      </trkpt>
      <trkpt lat="45.27133" lon="5.20983">
        <ele>563.57253327732</ele>
        <time>2014-05-31T16:38:36Z</time>
      </trkpt>
      <trkpt lat="45.2713" lon="5.2099">
        <ele>563.71342068075</ele>
        <time>2014-05-31T16:38:41Z</time>
      </trkpt>
      <trkpt lat="45.27128" lon="5.20998">
        <ele>563.71342068075</ele>
        <time>2014-05-31T16:38:46Z</time>
      </trkpt>
      <trkpt lat="45.27127" lon="5.21007">
        <ele>563.67312470639</ele>
        <time>2014-05-31T16:38:51Z</time>
      </trkpt>
      <trkpt lat="45.27126" lon="5.21014">
        <ele>563.67312470639</ele>
        <time>2014-05-31T16:38:56Z</time>
      </trkpt>
      <trkpt lat="45.27123" lon="5.21024">
        <ele>563.63862461369</ele>
        <time>2014-05-31T16:39:01Z</time>
      </trkpt>
      <trkpt lat="45.27122" lon="5.21033">
        <ele>563.63862461369</ele>
        <time>2014-05-31T16:39:06Z</time>
      </trkpt>
      <trkpt lat="45.27122" lon="5.21041">
        <ele>563.68225501842</ele>
        <time>2014-05-31T16:39:11Z</time>
      </trkpt>
      <trkpt lat="45.27123" lon="5.21051">
        <ele>563.68225501842</ele>
        <time>2014-05-31T16:39:16Z</time>
      </trkpt>
      <trkpt lat="45.27123" lon="5.21061">
        <ele>563.33757957762</ele>
        <time>2014-05-31T16:39:21Z</time>
      </trkpt>
      <trkpt lat="45.27121" lon="5.21071">
        <ele>563.33757957762</ele>
        <time>2014-05-31T16:39:26Z</time>
      </trkpt>
      <trkpt lat="45.27118" lon="5.21078">
        <ele>563.1390696236</ele>
        <time>2014-05-31T16:39:31Z</time>
      </trkpt>
      <trkpt lat="45.27114" lon="5.2109">
        <ele>563.03387041299</ele>
        <time>2014-05-31T16:39:36Z</time>
      </trkpt>
      <trkpt lat="45.27111" lon="5.21097">
        <ele>563.03387041299</ele>
        <time>2014-05-31T16:39:41Z</time>
      </trkpt>
      <trkpt lat="45.27107" lon="5.21105">
        <ele>562.91508391062</ele>
        <time>2014-05-31T16:39:46Z</time>
      </trkpt>
      <trkpt lat="45.27103" lon="5.21116">
        <ele>562.92867712541</ele>
        <time>2014-05-31T16:39:51Z</time>
      </trkpt>
      <trkpt lat="45.271" lon="5.21126">
        <ele>562.92867712541</ele>
        <time>2014-05-31T16:39:56Z</time>
      </trkpt>
      <trkpt lat="45.27096" lon="5.21135">
        <ele>562.70510251983</ele>
        <time>2014-05-31T16:40:01Z</time>
      </trkpt>
      <trkpt lat="45.27094" lon="5.21145">
        <ele>562.70510251983</ele>
        <time>2014-05-31T16:40:06Z</time>
      </trkpt>
      <trkpt lat="45.27091" lon="5.21156">
        <ele>562.40700219281</ele>
        <time>2014-05-31T16:40:11Z</time>
      </trkpt>
      <trkpt lat="45.27088" lon="5.21166">
        <ele>562.40700219281</ele>
        <time>2014-05-31T16:40:16Z</time>
      </trkpt>
      <trkpt lat="45.27085" lon="5.21177">
        <ele>562.7472985563</ele>
        <time>2014-05-31T16:40:21Z</time>
      </trkpt>
      <trkpt lat="45.27082" lon="5.21187">
        <ele>562.7472985563</ele>
        <time>2014-05-31T16:40:26Z</time>
      </trkpt>
      <trkpt lat="45.27079" lon="5.21197">
        <ele>563.26064313391</ele>
        <time>2014-05-31T16:40:31Z</time>
      </trkpt>
      <trkpt lat="45.27074" lon="5.21206">
        <ele>563.26064313391</ele>
        <time>2014-05-31T16:40:36Z</time>
      </trkpt>
      <trkpt lat="45.2707" lon="5.21212">
        <ele>563.58742509069</ele>
        <time>2014-05-31T16:40:41Z</time>
      </trkpt>
      <trkpt lat="45.27064" lon="5.21219">
        <ele>563.58742509069</ele>
        <time>2014-05-31T16:40:46Z</time>
      </trkpt>
      <trkpt lat="45.27059" lon="5.21226">
        <ele>563.82729630519</ele>
        <time>2014-05-31T16:40:51Z</time>
      </trkpt>
      <trkpt lat="45.27054" lon="5.21235">
        <ele>563.82729630519</ele>
        <time>2014-05-31T16:40:56Z</time>
      </trkpt>
      <trkpt lat="45.2705" lon="5.21241">
        <ele>564.24575212364</ele>
        <time>2014-05-31T16:41:01Z</time>
      </trkpt>
      <trkpt lat="45.27045" lon="5.21248">
        <ele>564.24575212364</ele>
        <time>2014-05-31T16:41:06Z</time>
      </trkpt>
      <trkpt lat="45.27039" lon="5.21257">
        <ele>564.51182094464</ele>
        <time>2014-05-31T16:41:11Z</time>
      </trkpt>
      <trkpt lat="45.27034" lon="5.21265">
        <ele>564.51182094464</ele>
        <time>2014-05-31T16:41:16Z</time>
      </trkpt>
      <trkpt lat="45.27031" lon="5.21274">
        <ele>565.1407044735</ele>
        <time>2014-05-31T16:41:21Z</time>
      </trkpt>
      <trkpt lat="45.27027" lon="5.21282">
        <ele>565.1407044735</ele>
        <time>2014-05-31T16:41:26Z</time>
      </trkpt>
      <trkpt lat="45.27025" lon="5.21289">
        <ele>565.70082599201</ele>
        <time>2014-05-31T16:41:31Z</time>
      </trkpt>
      <trkpt lat="45.27022" lon="5.21298">
        <ele>565.70082599201</ele>
        <time>2014-05-31T16:41:36Z</time>
      </trkpt>
      <trkpt lat="45.27019" lon="5.21308">
        <ele>566.35454158816</ele>
        <time>2014-05-31T16:41:41Z</time>
      </trkpt>
      <trkpt lat="45.27015" lon="5.2132">
        <ele>566.94938450994</ele>
        <time>2014-05-31T16:41:46Z</time>
      </trkpt>
      <trkpt lat="45.27013" lon="5.21328">
        <ele>566.94938450994</ele>
        <time>2014-05-31T16:41:51Z</time>
      </trkpt>
      <trkpt lat="45.2701" lon="5.21341">
        <ele>567.44513753957</ele>
        <time>2014-05-31T16:41:56Z</time>
      </trkpt>
      <trkpt lat="45.27009" lon="5.21349">
        <ele>567.44513753957</ele>
        <time>2014-05-31T16:42:01Z</time>
      </trkpt>
      <trkpt lat="45.27008" lon="5.21359">
        <ele>568.10745941324</ele>
        <time>2014-05-31T16:42:06Z</time>
      </trkpt>
      <trkpt lat="45.27006" lon="5.21369">
        <ele>568.10745941324</ele>
        <time>2014-05-31T16:42:11Z</time>
      </trkpt>
      <trkpt lat="45.27007" lon="5.2137">
        <ele>568.10745941324</ele>
        <time>2014-05-31T16:42:16Z</time>
      </trkpt>
      <trkpt lat="45.27007" lon="5.21371">
        <ele>568.8361706557</ele>
        <time>2014-05-31T16:42:21Z</time>
      </trkpt>
      <trkpt lat="45.27008" lon="5.21381">
        <ele>568.8361706557</ele>
        <time>2014-05-31T16:42:26Z</time>
      </trkpt>
      <trkpt lat="45.27013" lon="5.2139">
        <ele>569.58151426313</ele>
        <time>2014-05-31T16:42:31Z</time>
      </trkpt>
      <trkpt lat="45.27019" lon="5.21399">
        <ele>569.58151426313</ele>
        <time>2014-05-31T16:42:36Z</time>
      </trkpt>
      <trkpt lat="45.27025" lon="5.21404">
        <ele>570.32618333471</ele>
        <time>2014-05-31T16:42:41Z</time>
      </trkpt>
      <trkpt lat="45.27033" lon="5.21409">
        <ele>570.32618333471</ele>
        <time>2014-05-31T16:42:46Z</time>
      </trkpt>
      <trkpt lat="45.2704" lon="5.21414">
        <ele>570.99652227726</ele>
        <time>2014-05-31T16:42:51Z</time>
      </trkpt>
      <trkpt lat="45.27046" lon="5.21419">
        <ele>570.99652227726</ele>
        <time>2014-05-31T16:42:56Z</time>
      </trkpt>
      <trkpt lat="45.27053" lon="5.21424">
        <ele>571.81274325848</ele>
        <time>2014-05-31T16:43:01Z</time>
      </trkpt>
      <trkpt lat="45.27059" lon="5.21429">
        <ele>571.81274325848</ele>
        <time>2014-05-31T16:43:06Z</time>
      </trkpt>
      <trkpt lat="45.27066" lon="5.21435">
        <ele>572.61822298517</ele>
        <time>2014-05-31T16:43:11Z</time>
      </trkpt>
      <trkpt lat="45.27072" lon="5.21439">
        <ele>572.61822298517</ele>
        <time>2014-05-31T16:43:16Z</time>
      </trkpt>
      <trkpt lat="45.27078" lon="5.21445">
        <ele>573.32554987504</ele>
        <time>2014-05-31T16:43:21Z</time>
      </trkpt>
      <trkpt lat="45.27085" lon="5.21451">
        <ele>573.32554987504</ele>
        <time>2014-05-31T16:43:26Z</time>
      </trkpt>
      <trkpt lat="45.27092" lon="5.21456">
        <ele>574.12785430203</ele>
        <time>2014-05-31T16:43:31Z</time>
      </trkpt>
      <trkpt lat="45.27098" lon="5.21461">
        <ele>574.12785430203</ele>
        <time>2014-05-31T16:43:36Z</time>
      </trkpt>
      <trkpt lat="45.27104" lon="5.21466">
        <ele>574.69945959613</ele>
        <time>2014-05-31T16:43:41Z</time>
      </trkpt>
      <trkpt lat="45.27111" lon="5.21471">
        <ele>574.69945959613</ele>
        <time>2014-05-31T16:43:46Z</time>
      </trkpt>
      <trkpt lat="45.27117" lon="5.21476">
        <ele>575.15722002563</ele>
        <time>2014-05-31T16:43:51Z</time>
      </trkpt>
      <trkpt lat="45.27125" lon="5.21481">
        <ele>575.15722002563</ele>
        <time>2014-05-31T16:43:56Z</time>
      </trkpt>
      <trkpt lat="45.27132" lon="5.21486">
        <ele>575.451240082</ele>
        <time>2014-05-31T16:44:01Z</time>
      </trkpt>
      <trkpt lat="45.27138" lon="5.21491">
        <ele>575.451240082</ele>
        <time>2014-05-31T16:44:06Z</time>
      </trkpt>
      <trkpt lat="45.27144" lon="5.21497">
        <ele>575.62225186833</ele>
        <time>2014-05-31T16:44:11Z</time>
      </trkpt>
      <trkpt lat="45.27151" lon="5.21502">
        <ele>575.62225186833</ele>
        <time>2014-05-31T16:44:16Z</time>
      </trkpt>
      <trkpt lat="45.27157" lon="5.21509">
        <ele>575.72278557653</ele>
        <time>2014-05-31T16:44:21Z</time>
      </trkpt>
      <trkpt lat="45.27163" lon="5.21514">
        <ele>575.72278557653</ele>
        <time>2014-05-31T16:44:26Z</time>
      </trkpt>
      <trkpt lat="45.27168" lon="5.2152">
        <ele>575.7440967423</ele>
        <time>2014-05-31T16:44:31Z</time>
      </trkpt>
      <trkpt lat="45.27173" lon="5.21526">
        <ele>575.7440967423</ele>
        <time>2014-05-31T16:44:36Z</time>
      </trkpt>
      <trkpt lat="45.27178" lon="5.21532">
        <ele>575.6639214802</ele>
        <time>2014-05-31T16:44:41Z</time>
      </trkpt>
      <trkpt lat="45.27183" lon="5.21537">
        <ele>575.6639214802</ele>
        <time>2014-05-31T16:44:46Z</time>
      </trkpt>
      <trkpt lat="45.27189" lon="5.21542">
        <ele>575.44752757786</ele>
        <time>2014-05-31T16:44:51Z</time>
      </trkpt>
      <trkpt lat="45.27195" lon="5.21547">
        <ele>575.44752757786</ele>
        <time>2014-05-31T16:44:56Z</time>
      </trkpt>
      <trkpt lat="45.27201" lon="5.21554">
        <ele>575.43782366478</ele>
        <time>2014-05-31T16:45:01Z</time>
      </trkpt>
      <trkpt lat="45.27207" lon="5.2156">
        <ele>575.43782366478</ele>
        <time>2014-05-31T16:45:06Z</time>
      </trkpt>
      <trkpt lat="45.27214" lon="5.21567">
        <ele>575.5340398965</ele>
        <time>2014-05-31T16:45:11Z</time>
      </trkpt>
      <trkpt lat="45.27219" lon="5.21574">
        <ele>575.5340398965</ele>
        <time>2014-05-31T16:45:16Z</time>
      </trkpt>
      <trkpt lat="45.27225" lon="5.2158">
        <ele>575.38312097081</ele>
        <time>2014-05-31T16:45:21Z</time>
      </trkpt>
      <trkpt lat="45.27231" lon="5.21587">
        <ele>575.38312097081</ele>
        <time>2014-05-31T16:45:26Z</time>
      </trkpt>
      <trkpt lat="45.27236" lon="5.21594">
        <ele>575.07656795361</ele>
        <time>2014-05-31T16:45:31Z</time>
      </trkpt>
      <trkpt lat="45.27242" lon="5.216">
        <ele>575.07656795361</ele>
        <time>2014-05-31T16:45:36Z</time>
      </trkpt>
      <trkpt lat="45.27248" lon="5.21607">
        <ele>574.5122529854</ele>
        <time>2014-05-31T16:45:41Z</time>
      </trkpt>
      <trkpt lat="45.27254" lon="5.21614">
        <ele>574.5122529854</ele>
        <time>2014-05-31T16:45:46Z</time>
      </trkpt>
      <trkpt lat="45.2726" lon="5.2162">
        <ele>573.81243569528</ele>
        <time>2014-05-31T16:45:51Z</time>
      </trkpt>
      <trkpt lat="45.27266" lon="5.21626">
        <ele>573.81243569528</ele>
        <time>2014-05-31T16:45:56Z</time>
      </trkpt>
      <trkpt lat="45.27272" lon="5.21632">
        <ele>572.84577398422</ele>
        <time>2014-05-31T16:46:01Z</time>
      </trkpt>
      <trkpt lat="45.27278" lon="5.21638">
        <ele>572.84577398422</ele>
        <time>2014-05-31T16:46:06Z</time>
      </trkpt>
      <trkpt lat="45.27286" lon="5.21644">
        <ele>572.19744914026</ele>
        <time>2014-05-31T16:46:11Z</time>
      </trkpt>
      <trkpt lat="45.27293" lon="5.21648">
        <ele>572.19744914026</ele>
        <time>2014-05-31T16:46:16Z</time>
      </trkpt>
      <trkpt lat="45.273" lon="5.21652">
        <ele>571.67376916652</ele>
        <time>2014-05-31T16:46:21Z</time>
      </trkpt>
      <trkpt lat="45.27307" lon="5.21655">
        <ele>571.67376916652</ele>
        <time>2014-05-31T16:46:26Z</time>
      </trkpt>
      <trkpt lat="45.27312" lon="5.21656">
        <ele>571.18135568055</ele>
        <time>2014-05-31T16:46:31Z</time>
      </trkpt>
      <trkpt lat="45.27319" lon="5.21656">
        <ele>571.18135568055</ele>
        <time>2014-05-31T16:46:36Z</time>
      </trkpt>
      <trkpt lat="45.27326" lon="5.21655">
        <ele>570.66238723237</ele>
        <time>2014-05-31T16:46:41Z</time>
      </trkpt>
      <trkpt lat="45.27333" lon="5.21654">
        <ele>570.66238723237</ele>
        <time>2014-05-31T16:46:46Z</time>
      </trkpt>
      <trkpt lat="45.2734" lon="5.21653">
        <ele>570.10655664283</ele>
        <time>2014-05-31T16:46:51Z</time>
      </trkpt>
      <trkpt lat="45.27347" lon="5.2165">
        <ele>570.10655664283</ele>
        <time>2014-05-31T16:46:56Z</time>
      </trkpt>
      <trkpt lat="45.27354" lon="5.21646">
        <ele>569.60525069542</ele>
        <time>2014-05-31T16:47:01Z</time>
      </trkpt>
      <trkpt lat="45.2736" lon="5.21642">
        <ele>569.60525069542</ele>
        <time>2014-05-31T16:47:06Z</time>
      </trkpt>
      <trkpt lat="45.27367" lon="5.21636">
        <ele>568.59444099448</ele>
        <time>2014-05-31T16:47:11Z</time>
      </trkpt>
      <trkpt lat="45.27374" lon="5.21631">
        <ele>568.59444099448</ele>
        <time>2014-05-31T16:47:16Z</time>
      </trkpt>
      <trkpt lat="45.27377" lon="5.21628">
        <ele>567.72021063921</ele>
        <time>2014-05-31T16:47:21Z</time>
      </trkpt>
      <trkpt lat="45.27383" lon="5.21624">
        <ele>567.72021063921</ele>
        <time>2014-05-31T16:47:26Z</time>
      </trkpt>
      <trkpt lat="45.2739" lon="5.21621">
        <ele>566.97547517428</ele>
        <time>2014-05-31T16:47:31Z</time>
      </trkpt>
      <trkpt lat="45.27396" lon="5.21617">
        <ele>566.97547517428</ele>
        <time>2014-05-31T16:47:36Z</time>
      </trkpt>
      <trkpt lat="45.27401" lon="5.21613">
        <ele>565.53181180133</ele>
        <time>2014-05-31T16:47:41Z</time>
      </trkpt>
      <trkpt lat="45.27406" lon="5.21609">
        <ele>565.53181180133</ele>
        <time>2014-05-31T16:47:46Z</time>
      </trkpt>
      <trkpt lat="45.27413" lon="5.21604">
        <ele>564.81403888849</ele>
        <time>2014-05-31T16:47:51Z</time>
      </trkpt>
      <trkpt lat="45.27422" lon="5.21599">
        <ele>564.81403888849</ele>
        <time>2014-05-31T16:47:56Z</time>
      </trkpt>
      <trkpt lat="45.27429" lon="5.21594">
        <ele>564.51174591554</ele>
        <time>2014-05-31T16:48:01Z</time>
      </trkpt>
      <trkpt lat="45.27436" lon="5.21589">
        <ele>564.51174591554</ele>
        <time>2014-05-31T16:48:06Z</time>
      </trkpt>
      <trkpt lat="45.27442" lon="5.21584">
        <ele>563.91816534233</ele>
        <time>2014-05-31T16:48:11Z</time>
      </trkpt>
      <trkpt lat="45.27448" lon="5.21581">
        <ele>563.91816534233</ele>
        <time>2014-05-31T16:48:16Z</time>
      </trkpt>
      <trkpt lat="45.27454" lon="5.21576">
        <ele>563.11415983906</ele>
        <time>2014-05-31T16:48:21Z</time>
      </trkpt>
      <trkpt lat="45.27461" lon="5.21572">
        <ele>563.11415983906</ele>
        <time>2014-05-31T16:48:26Z</time>
      </trkpt>
      <trkpt lat="45.27468" lon="5.21569">
        <ele>562.79484813108</ele>
        <time>2014-05-31T16:48:31Z</time>
      </trkpt>
      <trkpt lat="45.27475" lon="5.21564">
        <ele>562.79484813108</ele>
        <time>2014-05-31T16:48:36Z</time>
      </trkpt>
      <trkpt lat="45.27482" lon="5.21562">
        <ele>562.72377688669</ele>
        <time>2014-05-31T16:48:41Z</time>
      </trkpt>
      <trkpt lat="45.27489" lon="5.2156">
        <ele>562.72377688669</ele>
        <time>2014-05-31T16:48:46Z</time>
      </trkpt>
      <trkpt lat="45.27495" lon="5.21557">
        <ele>562.47934137868</ele>
        <time>2014-05-31T16:48:51Z</time>
      </trkpt>
      <trkpt lat="45.275" lon="5.21556">
        <ele>562.47934137868</ele>
        <time>2014-05-31T16:48:56Z</time>
      </trkpt>
      <trkpt lat="45.27508" lon="5.21557">
        <ele>562.16130578729</ele>
        <time>2014-05-31T16:49:01Z</time>
      </trkpt>
      <trkpt lat="45.27513" lon="5.21559">
        <ele>562.16130578729</ele>
        <time>2014-05-31T16:49:06Z</time>
      </trkpt>
      <trkpt lat="45.27521" lon="5.2156">
        <ele>561.71813770092</ele>
        <time>2014-05-31T16:49:11Z</time>
      </trkpt>
      <trkpt lat="45.27528" lon="5.21561">
        <ele>561.71813770092</ele>
        <time>2014-05-31T16:49:16Z</time>
      </trkpt>
      <trkpt lat="45.27535" lon="5.21564">
        <ele>561.39060341651</ele>
        <time>2014-05-31T16:49:21Z</time>
      </trkpt>
      <trkpt lat="45.27543" lon="5.21566">
        <ele>561.39060341651</ele>
        <time>2014-05-31T16:49:26Z</time>
      </trkpt>
      <trkpt lat="45.27551" lon="5.21569">
        <ele>561.11317818644</ele>
        <time>2014-05-31T16:49:31Z</time>
      </trkpt>
      <trkpt lat="45.2756" lon="5.21572">
        <ele>560.83936600353</ele>
        <time>2014-05-31T16:49:36Z</time>
      </trkpt>
      <trkpt lat="45.27569" lon="5.21575">
        <ele>560.83936600353</ele>
        <time>2014-05-31T16:49:41Z</time>
      </trkpt>
      <trkpt lat="45.27575" lon="5.21579">
        <ele>560.35308991986</ele>
        <time>2014-05-31T16:49:46Z</time>
      </trkpt>
      <trkpt lat="45.27582" lon="5.2158">
        <ele>560.35308991986</ele>
        <time>2014-05-31T16:49:51Z</time>
      </trkpt>
      <trkpt lat="45.27589" lon="5.21582">
        <ele>559.39704589055</ele>
        <time>2014-05-31T16:49:56Z</time>
      </trkpt>
      <trkpt lat="45.27595" lon="5.21584">
        <ele>559.39704589055</ele>
        <time>2014-05-31T16:50:01Z</time>
      </trkpt>
      <trkpt lat="45.27601" lon="5.21587">
        <ele>558.87257708213</ele>
        <time>2014-05-31T16:50:06Z</time>
      </trkpt>
      <trkpt lat="45.27607" lon="5.21588">
        <ele>558.87257708213</ele>
        <time>2014-05-31T16:50:11Z</time>
      </trkpt>
      <trkpt lat="45.27614" lon="5.21589">
        <ele>558.76329871424</ele>
        <time>2014-05-31T16:50:16Z</time>
      </trkpt>
      <trkpt lat="45.27622" lon="5.2159">
        <ele>558.76329871424</ele>
        <time>2014-05-31T16:50:21Z</time>
      </trkpt>
      <trkpt lat="45.27629" lon="5.21589">
        <ele>558.63489479766</ele>
        <time>2014-05-31T16:50:26Z</time>
      </trkpt>
      <trkpt lat="45.27636" lon="5.21588">
        <ele>558.63489479766</ele>
        <time>2014-05-31T16:50:31Z</time>
      </trkpt>
      <trkpt lat="45.27644" lon="5.21586">
        <ele>558.99286365869</ele>
        <time>2014-05-31T16:50:36Z</time>
      </trkpt>
      <trkpt lat="45.27652" lon="5.21583">
        <ele>558.99286365869</ele>
        <time>2014-05-31T16:50:41Z</time>
      </trkpt>
      <trkpt lat="45.27659" lon="5.2158">
        <ele>559.410677375</ele>
        <time>2014-05-31T16:50:46Z</time>
      </trkpt>
      <trkpt lat="45.27665" lon="5.21576">
        <ele>559.410677375</ele>
        <time>2014-05-31T16:50:51Z</time>
      </trkpt>
      <trkpt lat="45.27672" lon="5.21571">
        <ele>559.73792921428</ele>
        <time>2014-05-31T16:50:56Z</time>
      </trkpt>
      <trkpt lat="45.27678" lon="5.21566">
        <ele>559.73792921428</ele>
        <time>2014-05-31T16:51:01Z</time>
      </trkpt>
      <trkpt lat="45.27685" lon="5.21561">
        <ele>560.29664609309</ele>
        <time>2014-05-31T16:51:06Z</time>
      </trkpt>
      <trkpt lat="45.27691" lon="5.21555">
        <ele>560.29664609309</ele>
        <time>2014-05-31T16:51:11Z</time>
      </trkpt>
      <trkpt lat="45.27697" lon="5.2155">
        <ele>560.99543273339</ele>
        <time>2014-05-31T16:51:16Z</time>
      </trkpt>
      <trkpt lat="45.27703" lon="5.21544">
        <ele>560.99543273339</ele>
        <time>2014-05-31T16:51:21Z</time>
      </trkpt>
      <trkpt lat="45.27709" lon="5.21539">
        <ele>561.90772875011</ele>
        <time>2014-05-31T16:51:26Z</time>
      </trkpt>
      <trkpt lat="45.27715" lon="5.21533">
        <ele>561.90772875011</ele>
        <time>2014-05-31T16:51:31Z</time>
      </trkpt>
      <trkpt lat="45.27721" lon="5.21526">
        <ele>562.85599153986</ele>
        <time>2014-05-31T16:51:36Z</time>
      </trkpt>
      <trkpt lat="45.27727" lon="5.2152">
        <ele>562.85599153986</ele>
        <time>2014-05-31T16:51:41Z</time>
      </trkpt>
      <trkpt lat="45.27731" lon="5.21513">
        <ele>563.86297421012</ele>
        <time>2014-05-31T16:51:46Z</time>
      </trkpt>
      <trkpt lat="45.27736" lon="5.21507">
        <ele>563.86297421012</ele>
        <time>2014-05-31T16:51:51Z</time>
      </trkpt>
      <trkpt lat="45.27739" lon="5.21503">
        <ele>564.79109058996</ele>
        <time>2014-05-31T16:51:56Z</time>
      </trkpt>
      <trkpt lat="45.27744" lon="5.21496">
        <ele>564.79109058996</ele>
        <time>2014-05-31T16:52:01Z</time>
      </trkpt>
      <trkpt lat="45.27748" lon="5.21488">
        <ele>565.68604411807</ele>
        <time>2014-05-31T16:52:06Z</time>
      </trkpt>
      <trkpt lat="45.27753" lon="5.2148">
        <ele>565.68604411807</ele>
        <time>2014-05-31T16:52:11Z</time>
      </trkpt>
      <trkpt lat="45.27759" lon="5.21472">
        <ele>566.67677675746</ele>
        <time>2014-05-31T16:52:16Z</time>
      </trkpt>
      <trkpt lat="45.27765" lon="5.21467">
        <ele>566.67677675746</ele>
        <time>2014-05-31T16:52:21Z</time>
      </trkpt>
      <trkpt lat="45.27769" lon="5.21461">
        <ele>567.29167690377</ele>
        <time>2014-05-31T16:52:26Z</time>
      </trkpt>
      <trkpt lat="45.27774" lon="5.21453">
        <ele>567.29167690377</ele>
        <time>2014-05-31T16:52:31Z</time>
      </trkpt>
      <trkpt lat="45.27779" lon="5.21446">
        <ele>567.52721298207</ele>
        <time>2014-05-31T16:52:36Z</time>
      </trkpt>
      <trkpt lat="45.27784" lon="5.21438">
        <ele>567.52721298207</ele>
        <time>2014-05-31T16:52:41Z</time>
      </trkpt>
      <trkpt lat="45.27789" lon="5.2143">
        <ele>567.46769447835</ele>
        <time>2014-05-31T16:52:46Z</time>
      </trkpt>
      <trkpt lat="45.27793" lon="5.21424">
        <ele>567.46769447835</ele>
        <time>2014-05-31T16:52:51Z</time>
      </trkpt>
      <trkpt lat="45.27796" lon="5.21417">
        <ele>566.96153797408</ele>
        <time>2014-05-31T16:52:56Z</time>
      </trkpt>
      <trkpt lat="45.27799" lon="5.21411">
        <ele>566.96153797408</ele>
        <time>2014-05-31T16:53:01Z</time>
      </trkpt>
      <trkpt lat="45.27804" lon="5.21403">
        <ele>566.20105130523</ele>
        <time>2014-05-31T16:53:06Z</time>
      </trkpt>
      <trkpt lat="45.27809" lon="5.21395">
        <ele>566.20105130523</ele>
        <time>2014-05-31T16:53:11Z</time>
      </trkpt>
      <trkpt lat="45.27814" lon="5.21386">
        <ele>566.01367214986</ele>
        <time>2014-05-31T16:53:16Z</time>
      </trkpt>
      <trkpt lat="45.2782" lon="5.21377">
        <ele>566.01367214986</ele>
        <time>2014-05-31T16:53:21Z</time>
      </trkpt>
      <trkpt lat="45.27827" lon="5.21368">
        <ele>566.53039708779</ele>
        <time>2014-05-31T16:53:26Z</time>
      </trkpt>
      <trkpt lat="45.27831" lon="5.21361">
        <ele>566.53039708779</ele>
        <time>2014-05-31T16:53:31Z</time>
      </trkpt>
      <trkpt lat="45.27837" lon="5.21356">
        <ele>567.26539401672</ele>
        <time>2014-05-31T16:53:36Z</time>
      </trkpt>
      <trkpt lat="45.27845" lon="5.21352">
        <ele>567.26539401672</ele>
        <time>2014-05-31T16:53:41Z</time>
      </trkpt>
      <trkpt lat="45.27851" lon="5.21347">
        <ele>568.09939983028</ele>
        <time>2014-05-31T16:53:46Z</time>
      </trkpt>
      <trkpt lat="45.27858" lon="5.21343">
        <ele>568.09939983028</ele>
        <time>2014-05-31T16:53:51Z</time>
      </trkpt>
      <trkpt lat="45.27866" lon="5.2134">
        <ele>569.09460797284</ele>
        <time>2014-05-31T16:53:56Z</time>
      </trkpt>
      <trkpt lat="45.27874" lon="5.21339">
        <ele>569.09460797284</ele>
        <time>2014-05-31T16:54:01Z</time>
      </trkpt>
      <trkpt lat="45.27883" lon="5.21339">
        <ele>570.06324650096</ele>
        <time>2014-05-31T16:54:06Z</time>
      </trkpt>
      <trkpt lat="45.27891" lon="5.21338">
        <ele>570.06324650096</ele>
        <time>2014-05-31T16:54:11Z</time>
      </trkpt>
      <trkpt lat="45.27899" lon="5.21338">
        <ele>571.04762783604</ele>
        <time>2014-05-31T16:54:16Z</time>
      </trkpt>
      <trkpt lat="45.27907" lon="5.21337">
        <ele>571.04762783604</ele>
        <time>2014-05-31T16:54:21Z</time>
      </trkpt>
      <trkpt lat="45.27915" lon="5.21336">
        <ele>571.98608839169</ele>
        <time>2014-05-31T16:54:26Z</time>
      </trkpt>
      <trkpt lat="45.27923" lon="5.21337">
        <ele>571.98608839169</ele>
        <time>2014-05-31T16:54:31Z</time>
      </trkpt>
      <trkpt lat="45.2793" lon="5.21336">
        <ele>572.86491501073</ele>
        <time>2014-05-31T16:54:36Z</time>
      </trkpt>
      <trkpt lat="45.27937" lon="5.21334">
        <ele>572.86491501073</ele>
        <time>2014-05-31T16:54:41Z</time>
      </trkpt>
      <trkpt lat="45.27945" lon="5.21333">
        <ele>573.62839770743</ele>
        <time>2014-05-31T16:54:46Z</time>
      </trkpt>
      <trkpt lat="45.27952" lon="5.21332">
        <ele>573.62839770743</ele>
        <time>2014-05-31T16:54:51Z</time>
      </trkpt>
      <trkpt lat="45.27959" lon="5.21331">
        <ele>574.23971780763</ele>
        <time>2014-05-31T16:54:56Z</time>
      </trkpt>
      <trkpt lat="45.27966" lon="5.21331">
        <ele>574.23971780763</ele>
        <time>2014-05-31T16:55:01Z</time>
      </trkpt>
      <trkpt lat="45.27974" lon="5.2133">
        <ele>574.80936480344</ele>
        <time>2014-05-31T16:55:06Z</time>
      </trkpt>
      <trkpt lat="45.27981" lon="5.21329">
        <ele>574.80936480344</ele>
        <time>2014-05-31T16:55:11Z</time>
      </trkpt>
      <trkpt lat="45.27989" lon="5.21328">
        <ele>575.32460531374</ele>
        <time>2014-05-31T16:55:16Z</time>
      </trkpt>
      <trkpt lat="45.27996" lon="5.21328">
        <ele>575.32460531374</ele>
        <time>2014-05-31T16:55:21Z</time>
      </trkpt>
      <trkpt lat="45.28004" lon="5.21327">
        <ele>575.9035591422</ele>
        <time>2014-05-31T16:55:26Z</time>
      </trkpt>
      <trkpt lat="45.28011" lon="5.21327">
        <ele>575.9035591422</ele>
        <time>2014-05-31T16:55:31Z</time>
      </trkpt>
      <trkpt lat="45.28019" lon="5.21327">
        <ele>576.38174306874</ele>
        <time>2014-05-31T16:55:36Z</time>
      </trkpt>
      <trkpt lat="45.28025" lon="5.21325">
        <ele>576.38174306874</ele>
        <time>2014-05-31T16:55:41Z</time>
      </trkpt>
      <trkpt lat="45.28032" lon="5.21324">
        <ele>576.75121287495</ele>
        <time>2014-05-31T16:55:46Z</time>
      </trkpt>
      <trkpt lat="45.28039" lon="5.21324">
        <ele>576.75121287495</ele>
        <time>2014-05-31T16:55:51Z</time>
      </trkpt>
      <trkpt lat="45.28046" lon="5.21323">
        <ele>576.99056185191</ele>
        <time>2014-05-31T16:55:56Z</time>
      </trkpt>
      <trkpt lat="45.28052" lon="5.21323">
        <ele>576.99056185191</ele>
        <time>2014-05-31T16:56:01Z</time>
      </trkpt>
      <trkpt lat="45.28059" lon="5.21321">
        <ele>577.02273333464</ele>
        <time>2014-05-31T16:56:06Z</time>
      </trkpt>
      <trkpt lat="45.28065" lon="5.2132">
        <ele>577.02273333464</ele>
        <time>2014-05-31T16:56:11Z</time>
      </trkpt>
      <trkpt lat="45.28072" lon="5.2132">
        <ele>576.80578720147</ele>
        <time>2014-05-31T16:56:16Z</time>
      </trkpt>
      <trkpt lat="45.28079" lon="5.21319">
        <ele>576.80578720147</ele>
        <time>2014-05-31T16:56:21Z</time>
      </trkpt>
      <trkpt lat="45.28086" lon="5.21318">
        <ele>576.53218804992</ele>
        <time>2014-05-31T16:56:26Z</time>
      </trkpt>
      <trkpt lat="45.28093" lon="5.21317">
        <ele>576.53218804992</ele>
        <time>2014-05-31T16:56:31Z</time>
      </trkpt>
      <trkpt lat="45.28101" lon="5.21315">
        <ele>576.27958401836</ele>
        <time>2014-05-31T16:56:36Z</time>
      </trkpt>
      <trkpt lat="45.28109" lon="5.21313">
        <ele>576.27958401836</ele>
        <time>2014-05-31T16:56:41Z</time>
      </trkpt>
      <trkpt lat="45.28117" lon="5.21311">
        <ele>576.09107215961</ele>
        <time>2014-05-31T16:56:46Z</time>
      </trkpt>
      <trkpt lat="45.28124" lon="5.2131">
        <ele>576.09107215961</ele>
        <time>2014-05-31T16:56:51Z</time>
      </trkpt>
      <trkpt lat="45.28132" lon="5.21308">
        <ele>575.74703085985</ele>
        <time>2014-05-31T16:56:56Z</time>
      </trkpt>
      <trkpt lat="45.2814" lon="5.21306">
        <ele>575.74703085985</ele>
        <time>2014-05-31T16:57:01Z</time>
      </trkpt>
      <trkpt lat="45.28147" lon="5.21304">
        <ele>575.34706197331</ele>
        <time>2014-05-31T16:57:06Z</time>
      </trkpt>
      <trkpt lat="45.28155" lon="5.21301">
        <ele>575.34706197331</ele>
        <time>2014-05-31T16:57:11Z</time>
      </trkpt>
      <trkpt lat="45.28162" lon="5.21298">
        <ele>575.11332185765</ele>
        <time>2014-05-31T16:57:16Z</time>
      </trkpt>
      <trkpt lat="45.28169" lon="5.21294">
        <ele>575.11332185765</ele>
        <time>2014-05-31T16:57:21Z</time>
      </trkpt>
      <trkpt lat="45.28176" lon="5.2129">
        <ele>574.87650041913</ele>
        <time>2014-05-31T16:57:26Z</time>
      </trkpt>
      <trkpt lat="45.28183" lon="5.21287">
        <ele>574.87650041913</ele>
        <time>2014-05-31T16:57:31Z</time>
      </trkpt>
      <trkpt lat="45.28191" lon="5.21285">
        <ele>574.46532515118</ele>
        <time>2014-05-31T16:57:36Z</time>
      </trkpt>
      <trkpt lat="45.282" lon="5.2128">
        <ele>574.46532515118</ele>
        <time>2014-05-31T16:57:41Z</time>
      </trkpt>
      <trkpt lat="45.28207" lon="5.21279">
        <ele>573.92334698971</ele>
        <time>2014-05-31T16:57:46Z</time>
      </trkpt>
      <trkpt lat="45.28213" lon="5.21278">
        <ele>573.92334698971</ele>
        <time>2014-05-31T16:57:51Z</time>
      </trkpt>
      <trkpt lat="45.2822" lon="5.21276">
        <ele>573.32009842181</ele>
        <time>2014-05-31T16:57:56Z</time>
      </trkpt>
      <trkpt lat="45.28227" lon="5.21275">
        <ele>573.32009842181</ele>
        <time>2014-05-31T16:58:01Z</time>
      </trkpt>
      <trkpt lat="45.28235" lon="5.21273">
        <ele>572.86427325605</ele>
        <time>2014-05-31T16:58:06Z</time>
      </trkpt>
      <trkpt lat="45.28243" lon="5.21271">
        <ele>572.86427325605</ele>
        <time>2014-05-31T16:58:11Z</time>
      </trkpt>
      <trkpt lat="45.28251" lon="5.21268">
        <ele>572.40293501177</ele>
        <time>2014-05-31T16:58:16Z</time>
      </trkpt>
      <trkpt lat="45.28259" lon="5.21266">
        <ele>572.40293501177</ele>
        <time>2014-05-31T16:58:21Z</time>
      </trkpt>
      <trkpt lat="45.28266" lon="5.21264">
        <ele>572.06818432236</ele>
        <time>2014-05-31T16:58:26Z</time>
      </trkpt>
      <trkpt lat="45.28274" lon="5.21262">
        <ele>572.06818432236</ele>
        <time>2014-05-31T16:58:31Z</time>
      </trkpt>
      <trkpt lat="45.28282" lon="5.21261">
        <ele>571.46323382272</ele>
        <time>2014-05-31T16:58:36Z</time>
      </trkpt>
      <trkpt lat="45.2829" lon="5.2126">
        <ele>571.46323382272</ele>
        <time>2014-05-31T16:58:41Z</time>
      </trkpt>
      <trkpt lat="45.28298" lon="5.21258">
        <ele>571.01378100064</ele>
        <time>2014-05-31T16:58:46Z</time>
      </trkpt>
      <trkpt lat="45.28304" lon="5.21256">
        <ele>571.01378100064</ele>
        <time>2014-05-31T16:58:51Z</time>
      </trkpt>
      <trkpt lat="45.28311" lon="5.21253">
        <ele>570.73909119366</ele>
        <time>2014-05-31T16:58:56Z</time>
      </trkpt>
      <trkpt lat="45.28319" lon="5.21252">
        <ele>570.73909119366</ele>
        <time>2014-05-31T16:59:01Z</time>
      </trkpt>
      <trkpt lat="45.28326" lon="5.21252">
        <ele>570.62766433286</ele>
        <time>2014-05-31T16:59:06Z</time>
      </trkpt>
      <trkpt lat="45.28333" lon="5.21253">
        <ele>570.62766433286</ele>
        <time>2014-05-31T16:59:11Z</time>
      </trkpt>
      <trkpt lat="45.2834" lon="5.21256">
        <ele>570.49541454109</ele>
        <time>2014-05-31T16:59:16Z</time>
      </trkpt>
      <trkpt lat="45.28344" lon="5.21263">
        <ele>570.49541454109</ele>
        <time>2014-05-31T16:59:21Z</time>
      </trkpt>
      <trkpt lat="45.28344" lon="5.21269">
        <ele>570.24385297169</ele>
        <time>2014-05-31T16:59:26Z</time>
      </trkpt>
      <trkpt lat="45.28343" lon="5.21274">
        <ele>570.24385297169</ele>
        <time>2014-05-31T16:59:31Z</time>
      </trkpt>
      <trkpt lat="45.28343" lon="5.21273">
        <ele>570.24385297169</ele>
        <time>2014-05-31T16:59:36Z</time>
      </trkpt>
      <trkpt lat="45.28342" lon="5.21273">
        <ele>570.24385297169</ele>
        <time>2014-05-31T16:59:41Z</time>
      </trkpt>
      <trkpt lat="45.28339" lon="5.21278">
        <ele>569.43615275683</ele>
        <time>2014-05-31T16:59:46Z</time>
      </trkpt>
      <trkpt lat="45.28335" lon="5.21283">
        <ele>569.43615275683</ele>
        <time>2014-05-31T16:59:51Z</time>
      </trkpt>
      <trkpt lat="45.28336" lon="5.21292">
        <ele>568.79316107393</ele>
        <time>2014-05-31T16:59:56Z</time>
      </trkpt>
      <trkpt lat="45.28335" lon="5.21295">
        <ele>568.79316107393</ele>
        <time>2014-05-31T17:00:01Z</time>
      </trkpt>
      <trkpt lat="45.28335" lon="5.21295">
        <ele>568.79316107393</ele>
        <time>2014-05-31T17:00:06Z</time>
      </trkpt>
      <trkpt lat="45.28335" lon="5.21293">
        <ele>568.79316107393</ele>
        <time>2014-05-31T17:00:11Z</time>
      </trkpt>
      <trkpt lat="45.28336" lon="5.21291">
        <ele>568.79316107393</ele>
        <time>2014-05-31T17:00:16Z</time>
      </trkpt>
      <trkpt lat="45.28335" lon="5.21291">
        <ele>568.79316107393</ele>
        <time>2014-05-31T17:00:21Z</time>
      </trkpt>
      <trkpt lat="45.28335" lon="5.2129">
        <ele>568.79316107393</ele>
        <time>2014-05-31T17:00:26Z</time>
      </trkpt>
      <trkpt lat="45.28335" lon="5.2129">
        <ele>568.79316107393</ele>
        <time>2014-05-31T17:00:31Z</time>
      </trkpt>
      <trkpt lat="45.28335" lon="5.2129">
        <ele>568.79316107393</ele>
        <time>2014-05-31T17:00:36Z</time>
      </trkpt>
      <trkpt lat="45.28334" lon="5.21288">
        <ele>568.79316107393</ele>
        <time>2014-05-31T17:00:41Z</time>
      </trkpt>
      <trkpt lat="45.28336" lon="5.21282">
        <ele>568.449054677</ele>
        <time>2014-05-31T17:00:46Z</time>
      </trkpt>
      <trkpt lat="45.28339" lon="5.21276">
        <ele>568.449054677</ele>
        <time>2014-05-31T17:00:51Z</time>
      </trkpt>
      <trkpt lat="45.28339" lon="5.21278">
        <ele>568.449054677</ele>
        <time>2014-05-31T17:00:56Z</time>
      </trkpt>
      <trkpt lat="45.28339" lon="5.21277">
        <ele>568.449054677</ele>
        <time>2014-05-31T17:01:01Z</time>
      </trkpt>
      <trkpt lat="45.28339" lon="5.21277">
        <ele>568.449054677</ele>
        <time>2014-05-31T17:01:06Z</time>
      </trkpt>
      <trkpt lat="45.28339" lon="5.21277">
        <ele>568.449054677</ele>
        <time>2014-05-31T17:01:11Z</time>
      </trkpt>
      <trkpt lat="45.28339" lon="5.21277">
        <ele>568.449054677</ele>
        <time>2014-05-31T17:01:16Z</time>
      </trkpt>
      <trkpt lat="45.28338" lon="5.21277">
        <ele>568.449054677</ele>
        <time>2014-05-31T17:01:21Z</time>
      </trkpt>
      <trkpt lat="45.28336" lon="5.21277">
        <ele>567.90759084333</ele>
        <time>2014-05-31T17:01:26Z</time>
      </trkpt>
      <trkpt lat="45.28336" lon="5.21276">
        <ele>567.90759084333</ele>
        <time>2014-05-31T17:01:31Z</time>
      </trkpt>
      <trkpt lat="45.28335" lon="5.21277">
        <ele>567.90759084333</ele>
        <time>2014-05-31T17:01:36Z</time>
      </trkpt>
      <trkpt lat="45.28334" lon="5.21277">
        <ele>567.90759084333</ele>
        <time>2014-05-31T17:01:41Z</time>
      </trkpt>
      <trkpt lat="45.28334" lon="5.21276">
        <ele>567.90759084333</ele>
        <time>2014-05-31T17:01:46Z</time>
      </trkpt>
      <trkpt lat="45.28334" lon="5.21275">
        <ele>567.90759084333</ele>
        <time>2014-05-31T17:01:51Z</time>
      </trkpt>
      <trkpt lat="45.28334" lon="5.21275">
        <ele>567.90759084333</ele>
        <time>2014-05-31T17:01:56Z</time>
      </trkpt>
      <trkpt lat="45.28335" lon="5.21276">
        <ele>567.90759084333</ele>
        <time>2014-05-31T17:02:01Z</time>
      </trkpt>
      <trkpt lat="45.28334" lon="5.21277">
        <ele>567.90759084333</ele>
        <time>2014-05-31T17:02:06Z</time>
      </trkpt>
      <trkpt lat="45.28334" lon="5.21277">
        <ele>567.90759084333</ele>
        <time>2014-05-31T17:02:11Z</time>
      </trkpt>
      <trkpt lat="45.28334" lon="5.21277">
        <ele>567.90759084333</ele>
        <time>2014-05-31T17:02:16Z</time>
      </trkpt>
      <trkpt lat="45.28335" lon="5.21277">
        <ele>567.90759084333</ele>
        <time>2014-05-31T17:02:21Z</time>
      </trkpt>
      <trkpt lat="45.28335" lon="5.21278">
        <ele>567.90759084333</ele>
        <time>2014-05-31T17:02:26Z</time>
      </trkpt>
      <trkpt lat="45.28418" lon="5.21224">
        <ele>566.85359585149</ele>
        <time>2014-05-31T17:23:19Z</time>
      </trkpt>
      <trkpt lat="45.28441" lon="5.21212">
        <ele>564.11735275944</ele>
        <time>2014-05-31T17:23:49Z</time>
      </trkpt>
      <trkpt lat="45.28467" lon="5.2121">
        <ele>563.07276459671</ele>
        <time>2014-05-31T17:23:54Z</time>
      </trkpt>
      <trkpt lat="45.28476" lon="5.21208">
        <ele>563.07276459671</ele>
        <time>2014-05-31T17:23:59Z</time>
      </trkpt>
      <trkpt lat="45.28483" lon="5.21205">
        <ele>561.88365100882</ele>
        <time>2014-05-31T17:24:04Z</time>
      </trkpt>
      <trkpt lat="45.2849" lon="5.21203">
        <ele>561.88365100882</ele>
        <time>2014-05-31T17:24:09Z</time>
      </trkpt>
      <trkpt lat="45.28497" lon="5.212">
        <ele>561.03953570911</ele>
        <time>2014-05-31T17:24:14Z</time>
      </trkpt>
      <trkpt lat="45.28504" lon="5.21198">
        <ele>561.03953570911</ele>
        <time>2014-05-31T17:24:19Z</time>
      </trkpt>
      <trkpt lat="45.2851" lon="5.21196">
        <ele>560.07062187558</ele>
        <time>2014-05-31T17:24:24Z</time>
      </trkpt>
      <trkpt lat="45.28515" lon="5.21194">
        <ele>560.07062187558</ele>
        <time>2014-05-31T17:24:29Z</time>
      </trkpt>
      <trkpt lat="45.28521" lon="5.21192">
        <ele>559.26244667855</ele>
        <time>2014-05-31T17:24:34Z</time>
      </trkpt>
      <trkpt lat="45.28528" lon="5.21192">
        <ele>559.26244667855</ele>
        <time>2014-05-31T17:24:39Z</time>
      </trkpt>
      <trkpt lat="45.28533" lon="5.2119">
        <ele>558.56199268855</ele>
        <time>2014-05-31T17:24:44Z</time>
      </trkpt>
      <trkpt lat="45.28533" lon="5.21191">
        <ele>558.56199268855</ele>
        <time>2014-05-31T17:24:49Z</time>
      </trkpt>
      <trkpt lat="45.28534" lon="5.21191">
        <ele>558.56199268855</ele>
        <time>2014-05-31T17:24:54Z</time>
      </trkpt>
      <trkpt lat="45.28539" lon="5.21187">
        <ele>558.56199268855</ele>
        <time>2014-05-31T17:24:59Z</time>
      </trkpt>
      <trkpt lat="45.28544" lon="5.21182">
        <ele>557.55947297509</ele>
        <time>2014-05-31T17:25:04Z</time>
      </trkpt>
      <trkpt lat="45.28549" lon="5.21181">
        <ele>557.55947297509</ele>
        <time>2014-05-31T17:25:09Z</time>
      </trkpt>
      <trkpt lat="45.28555" lon="5.2118">
        <ele>556.52446680931</ele>
        <time>2014-05-31T17:25:14Z</time>
      </trkpt>
      <trkpt lat="45.28561" lon="5.21177">
        <ele>556.52446680931</ele>
        <time>2014-05-31T17:25:19Z</time>
      </trkpt>
      <trkpt lat="45.28567" lon="5.21174">
        <ele>555.74999104306</ele>
        <time>2014-05-31T17:25:24Z</time>
      </trkpt>
      <trkpt lat="45.28573" lon="5.2117">
        <ele>555.74999104306</ele>
        <time>2014-05-31T17:25:29Z</time>
      </trkpt>
      <trkpt lat="45.28579" lon="5.21167">
        <ele>554.69970045893</ele>
        <time>2014-05-31T17:25:34Z</time>
      </trkpt>
      <trkpt lat="45.28585" lon="5.21165">
        <ele>554.69970045893</ele>
        <time>2014-05-31T17:25:39Z</time>
      </trkpt>
      <trkpt lat="45.28591" lon="5.21163">
        <ele>553.48260586086</ele>
        <time>2014-05-31T17:25:44Z</time>
      </trkpt>
      <trkpt lat="45.28597" lon="5.2116">
        <ele>553.48260586086</ele>
        <time>2014-05-31T17:25:49Z</time>
      </trkpt>
      <trkpt lat="45.28604" lon="5.21157">
        <ele>552.53154960944</ele>
        <time>2014-05-31T17:25:54Z</time>
      </trkpt>
      <trkpt lat="45.28612" lon="5.21153">
        <ele>552.53154960944</ele>
        <time>2014-05-31T17:25:59Z</time>
      </trkpt>
      <trkpt lat="45.28618" lon="5.21148">
        <ele>551.72794737249</ele>
        <time>2014-05-31T17:26:04Z</time>
      </trkpt>
      <trkpt lat="45.28623" lon="5.21143">
        <ele>551.72794737249</ele>
        <time>2014-05-31T17:26:09Z</time>
      </trkpt>
      <trkpt lat="45.28629" lon="5.21138">
        <ele>550.96142915793</ele>
        <time>2014-05-31T17:26:14Z</time>
      </trkpt>
      <trkpt lat="45.28635" lon="5.21134">
        <ele>550.96142915793</ele>
        <time>2014-05-31T17:26:19Z</time>
      </trkpt>
      <trkpt lat="45.28641" lon="5.21129">
        <ele>550.33130292834</ele>
        <time>2014-05-31T17:26:24Z</time>
      </trkpt>
      <trkpt lat="45.28647" lon="5.21124">
        <ele>550.33130292834</ele>
        <time>2014-05-31T17:26:29Z</time>
      </trkpt>
      <trkpt lat="45.28653" lon="5.21119">
        <ele>549.72736477909</ele>
        <time>2014-05-31T17:26:34Z</time>
      </trkpt>
      <trkpt lat="45.28658" lon="5.21113">
        <ele>549.72736477909</ele>
        <time>2014-05-31T17:26:39Z</time>
      </trkpt>
      <trkpt lat="45.28664" lon="5.21108">
        <ele>549.26352480016</ele>
        <time>2014-05-31T17:26:44Z</time>
      </trkpt>
      <trkpt lat="45.28671" lon="5.21103">
        <ele>549.26352480016</ele>
        <time>2014-05-31T17:26:49Z</time>
      </trkpt>
      <trkpt lat="45.28676" lon="5.21097">
        <ele>548.56929445589</ele>
        <time>2014-05-31T17:26:54Z</time>
      </trkpt>
      <trkpt lat="45.2868" lon="5.2109">
        <ele>548.56929445589</ele>
        <time>2014-05-31T17:26:59Z</time>
      </trkpt>
      <trkpt lat="45.28684" lon="5.21086">
        <ele>547.84960274491</ele>
        <time>2014-05-31T17:27:04Z</time>
      </trkpt>
      <trkpt lat="45.2869" lon="5.2108">
        <ele>547.84960274491</ele>
        <time>2014-05-31T17:27:09Z</time>
      </trkpt>
      <trkpt lat="45.28696" lon="5.21074">
        <ele>547.2655106705</ele>
        <time>2014-05-31T17:27:14Z</time>
      </trkpt>
      <trkpt lat="45.28701" lon="5.21067">
        <ele>547.2655106705</ele>
        <time>2014-05-31T17:27:19Z</time>
      </trkpt>
      <trkpt lat="45.28705" lon="5.21059">
        <ele>546.60552973368</ele>
        <time>2014-05-31T17:27:24Z</time>
      </trkpt>
      <trkpt lat="45.28708" lon="5.21055">
        <ele>546.60552973368</ele>
        <time>2014-05-31T17:27:29Z</time>
      </trkpt>
      <trkpt lat="45.28714" lon="5.21049">
        <ele>546.19266424525</ele>
        <time>2014-05-31T17:27:34Z</time>
      </trkpt>
      <trkpt lat="45.28719" lon="5.21042">
        <ele>546.19266424525</ele>
        <time>2014-05-31T17:27:39Z</time>
      </trkpt>
      <trkpt lat="45.28724" lon="5.21036">
        <ele>546.00840125149</ele>
        <time>2014-05-31T17:27:44Z</time>
      </trkpt>
      <trkpt lat="45.2873" lon="5.2103">
        <ele>546.00840125149</ele>
        <time>2014-05-31T17:27:49Z</time>
      </trkpt>
      <trkpt lat="45.28735" lon="5.21023">
        <ele>545.32875413023</ele>
        <time>2014-05-31T17:27:54Z</time>
      </trkpt>
      <trkpt lat="45.2874" lon="5.21015">
        <ele>545.32875413023</ele>
        <time>2014-05-31T17:27:59Z</time>
      </trkpt>
      <trkpt lat="45.28745" lon="5.21008">
        <ele>544.23364350405</ele>
        <time>2014-05-31T17:28:04Z</time>
      </trkpt>
      <trkpt lat="45.28749" lon="5.20999">
        <ele>544.23364350405</ele>
        <time>2014-05-31T17:28:09Z</time>
      </trkpt>
      <trkpt lat="45.28752" lon="5.2099">
        <ele>543.69173315316</ele>
        <time>2014-05-31T17:28:14Z</time>
      </trkpt>
      <trkpt lat="45.28756" lon="5.20981">
        <ele>543.69173315316</ele>
        <time>2014-05-31T17:28:19Z</time>
      </trkpt>
      <trkpt lat="45.28759" lon="5.20971">
        <ele>543.37399488713</ele>
        <time>2014-05-31T17:28:24Z</time>
      </trkpt>
      <trkpt lat="45.28762" lon="5.20961">
        <ele>543.37399488713</ele>
        <time>2014-05-31T17:28:29Z</time>
      </trkpt>
      <trkpt lat="45.28763" lon="5.20952">
        <ele>543.27754078895</ele>
        <time>2014-05-31T17:28:34Z</time>
      </trkpt>
      <trkpt lat="45.28765" lon="5.20942">
        <ele>543.27754078895</ele>
        <time>2014-05-31T17:28:39Z</time>
      </trkpt>
      <trkpt lat="45.28768" lon="5.20932">
        <ele>543.06758824131</ele>
        <time>2014-05-31T17:28:44Z</time>
      </trkpt>
      <trkpt lat="45.28771" lon="5.20923">
        <ele>543.06758824131</ele>
        <time>2014-05-31T17:28:49Z</time>
      </trkpt>
      <trkpt lat="45.28774" lon="5.20915">
        <ele>542.53511822766</ele>
        <time>2014-05-31T17:28:54Z</time>
      </trkpt>
      <trkpt lat="45.28777" lon="5.20907">
        <ele>542.53511822766</ele>
        <time>2014-05-31T17:28:59Z</time>
      </trkpt>
      <trkpt lat="45.2878" lon="5.20898">
        <ele>541.93409448742</ele>
        <time>2014-05-31T17:29:04Z</time>
      </trkpt>
      <trkpt lat="45.28784" lon="5.2089">
        <ele>541.93409448742</ele>
        <time>2014-05-31T17:29:09Z</time>
      </trkpt>
      <trkpt lat="45.28789" lon="5.20883">
        <ele>541.57205556819</ele>
        <time>2014-05-31T17:29:14Z</time>
      </trkpt>
      <trkpt lat="45.28792" lon="5.20877">
        <ele>541.57205556819</ele>
        <time>2014-05-31T17:29:19Z</time>
      </trkpt>
      <trkpt lat="45.28797" lon="5.2087">
        <ele>541.25769726649</ele>
        <time>2014-05-31T17:29:24Z</time>
      </trkpt>
      <trkpt lat="45.28802" lon="5.20862">
        <ele>541.25769726649</ele>
        <time>2014-05-31T17:29:29Z</time>
      </trkpt>
      <trkpt lat="45.28808" lon="5.20855">
        <ele>540.94332385104</ele>
        <time>2014-05-31T17:29:34Z</time>
      </trkpt>
      <trkpt lat="45.28814" lon="5.20848">
        <ele>540.94332385104</ele>
        <time>2014-05-31T17:29:39Z</time>
      </trkpt>
      <trkpt lat="45.2882" lon="5.20842">
        <ele>540.62796901998</ele>
        <time>2014-05-31T17:29:44Z</time>
      </trkpt>
      <trkpt lat="45.28826" lon="5.20835">
        <ele>540.62796901998</ele>
        <time>2014-05-31T17:29:49Z</time>
      </trkpt>
      <trkpt lat="45.28834" lon="5.20828">
        <ele>540.32514712789</ele>
        <time>2014-05-31T17:29:54Z</time>
      </trkpt>
      <trkpt lat="45.2884" lon="5.20821">
        <ele>540.32514712789</ele>
        <time>2014-05-31T17:29:59Z</time>
      </trkpt>
      <trkpt lat="45.28845" lon="5.20814">
        <ele>539.90323233725</ele>
        <time>2014-05-31T17:30:04Z</time>
      </trkpt>
      <trkpt lat="45.28852" lon="5.20809">
        <ele>539.90323233725</ele>
        <time>2014-05-31T17:30:09Z</time>
      </trkpt>
      <trkpt lat="45.28859" lon="5.20805">
        <ele>539.38471466478</ele>
        <time>2014-05-31T17:30:14Z</time>
      </trkpt>
      <trkpt lat="45.28865" lon="5.20802">
        <ele>539.38471466478</ele>
        <time>2014-05-31T17:30:19Z</time>
      </trkpt>
      <trkpt lat="45.28872" lon="5.20799">
        <ele>538.76188405022</ele>
        <time>2014-05-31T17:30:25Z</time>
      </trkpt>
      <trkpt lat="45.28877" lon="5.20798">
        <ele>538.76188405022</ele>
        <time>2014-05-31T17:30:29Z</time>
      </trkpt>
      <trkpt lat="45.28884" lon="5.20796">
        <ele>537.94142676695</ele>
        <time>2014-05-31T17:30:34Z</time>
      </trkpt>
      <trkpt lat="45.28892" lon="5.20795">
        <ele>537.94142676695</ele>
        <time>2014-05-31T17:30:39Z</time>
      </trkpt>
      <trkpt lat="45.28899" lon="5.20794">
        <ele>537.14007563589</ele>
        <time>2014-05-31T17:30:44Z</time>
      </trkpt>
      <trkpt lat="45.28906" lon="5.20793">
        <ele>537.14007563589</ele>
        <time>2014-05-31T17:30:49Z</time>
      </trkpt>
      <trkpt lat="45.28914" lon="5.20792">
        <ele>536.45771430221</ele>
        <time>2014-05-31T17:30:54Z</time>
      </trkpt>
      <trkpt lat="45.28921" lon="5.20792">
        <ele>536.45771430221</ele>
        <time>2014-05-31T17:30:59Z</time>
      </trkpt>
      <trkpt lat="45.28928" lon="5.20791">
        <ele>535.84244655085</ele>
        <time>2014-05-31T17:31:04Z</time>
      </trkpt>
      <trkpt lat="45.28936" lon="5.20792">
        <ele>535.84244655085</ele>
        <time>2014-05-31T17:31:09Z</time>
      </trkpt>
      <trkpt lat="45.28943" lon="5.20794">
        <ele>535.26041324583</ele>
        <time>2014-05-31T17:31:14Z</time>
      </trkpt>
      <trkpt lat="45.2895" lon="5.20797">
        <ele>535.26041324583</ele>
        <time>2014-05-31T17:31:19Z</time>
      </trkpt>
      <trkpt lat="45.28957" lon="5.208">
        <ele>534.7377956727</ele>
        <time>2014-05-31T17:31:24Z</time>
      </trkpt>
      <trkpt lat="45.28963" lon="5.20805">
        <ele>534.7377956727</ele>
        <time>2014-05-31T17:31:29Z</time>
      </trkpt>
      <trkpt lat="45.28969" lon="5.2081">
        <ele>534.21222082488</ele>
        <time>2014-05-31T17:31:34Z</time>
      </trkpt>
      <trkpt lat="45.28975" lon="5.20816">
        <ele>534.21222082488</ele>
        <time>2014-05-31T17:31:39Z</time>
      </trkpt>
      <trkpt lat="45.2898" lon="5.20823">
        <ele>533.64031992937</ele>
        <time>2014-05-31T17:31:44Z</time>
      </trkpt>
      <trkpt lat="45.28985" lon="5.2083">
        <ele>533.64031992937</ele>
        <time>2014-05-31T17:31:49Z</time>
      </trkpt>
      <trkpt lat="45.28988" lon="5.20838">
        <ele>533.12615484919</ele>
        <time>2014-05-31T17:31:54Z</time>
      </trkpt>
      <trkpt lat="45.28992" lon="5.20846">
        <ele>533.12615484919</ele>
        <time>2014-05-31T17:31:59Z</time>
      </trkpt>
      <trkpt lat="45.28996" lon="5.20854">
        <ele>532.96774179683</ele>
        <time>2014-05-31T17:32:04Z</time>
      </trkpt>
      <trkpt lat="45.29" lon="5.20862">
        <ele>532.96774179683</ele>
        <time>2014-05-31T17:32:09Z</time>
      </trkpt>
      <trkpt lat="45.29004" lon="5.2087">
        <ele>532.92141362205</ele>
        <time>2014-05-31T17:32:14Z</time>
      </trkpt>
      <trkpt lat="45.29007" lon="5.20878">
        <ele>532.92141362205</ele>
        <time>2014-05-31T17:32:19Z</time>
      </trkpt>
      <trkpt lat="45.2901" lon="5.20886">
        <ele>532.76109779637</ele>
        <time>2014-05-31T17:32:24Z</time>
      </trkpt>
      <trkpt lat="45.29013" lon="5.20893">
        <ele>532.76109779637</ele>
        <time>2014-05-31T17:32:29Z</time>
      </trkpt>
      <trkpt lat="45.29017" lon="5.20902">
        <ele>532.56588352764</ele>
        <time>2014-05-31T17:32:34Z</time>
      </trkpt>
      <trkpt lat="45.29019" lon="5.20909">
        <ele>532.56588352764</ele>
        <time>2014-05-31T17:32:39Z</time>
      </trkpt>
      <trkpt lat="45.29021" lon="5.20916">
        <ele>532.33710814041</ele>
        <time>2014-05-31T17:32:44Z</time>
      </trkpt>
      <trkpt lat="45.29026" lon="5.20921">
        <ele>532.33710814041</ele>
        <time>2014-05-31T17:32:49Z</time>
      </trkpt>
      <trkpt lat="45.29031" lon="5.20926">
        <ele>532.16258999583</ele>
        <time>2014-05-31T17:32:54Z</time>
      </trkpt>
      <trkpt lat="45.29037" lon="5.20931">
        <ele>532.16258999583</ele>
        <time>2014-05-31T17:32:59Z</time>
      </trkpt>
      <trkpt lat="45.29043" lon="5.20934">
        <ele>531.73446429092</ele>
        <time>2014-05-31T17:33:04Z</time>
      </trkpt>
      <trkpt lat="45.2905" lon="5.20938">
        <ele>531.73446429092</ele>
        <time>2014-05-31T17:33:09Z</time>
      </trkpt>
      <trkpt lat="45.29056" lon="5.20939">
        <ele>531.33024840916</ele>
        <time>2014-05-31T17:33:14Z</time>
      </trkpt>
      <trkpt lat="45.29063" lon="5.2094">
        <ele>531.33024840916</ele>
        <time>2014-05-31T17:33:19Z</time>
      </trkpt>
      <trkpt lat="45.29071" lon="5.2094">
        <ele>530.52970560204</ele>
        <time>2014-05-31T17:33:24Z</time>
      </trkpt>
      <trkpt lat="45.29078" lon="5.2094">
        <ele>530.52970560204</ele>
        <time>2014-05-31T17:33:29Z</time>
      </trkpt>
      <trkpt lat="45.29085" lon="5.20943">
        <ele>529.85250260986</ele>
        <time>2014-05-31T17:33:34Z</time>
      </trkpt>
      <trkpt lat="45.29087" lon="5.20944">
        <ele>529.85250260986</ele>
        <time>2014-05-31T17:33:39Z</time>
      </trkpt>
      <trkpt lat="45.29087" lon="5.20944">
        <ele>529.85250260986</ele>
        <time>2014-05-31T17:33:44Z</time>
      </trkpt>
      <trkpt lat="45.29087" lon="5.20943">
        <ele>529.85250260986</ele>
        <time>2014-05-31T17:33:49Z</time>
      </trkpt>
      <trkpt lat="45.29087" lon="5.20943">
        <ele>529.85250260986</ele>
        <time>2014-05-31T17:33:54Z</time>
      </trkpt>
      <trkpt lat="45.29088" lon="5.20941">
        <ele>529.85250260986</ele>
        <time>2014-05-31T17:33:59Z</time>
      </trkpt>
      <trkpt lat="45.29093" lon="5.20934">
        <ele>529.16012703035</ele>
        <time>2014-05-31T17:34:04Z</time>
      </trkpt>
      <trkpt lat="45.29101" lon="5.20929">
        <ele>529.16012703035</ele>
        <time>2014-05-31T17:34:09Z</time>
      </trkpt>
      <trkpt lat="45.29106" lon="5.20923">
        <ele>528.41076781297</ele>
        <time>2014-05-31T17:34:14Z</time>
      </trkpt>
      <trkpt lat="45.29111" lon="5.20915">
        <ele>528.41076781297</ele>
        <time>2014-05-31T17:34:19Z</time>
      </trkpt>
      <trkpt lat="45.29116" lon="5.20907">
        <ele>527.65232638748</ele>
        <time>2014-05-31T17:34:24Z</time>
      </trkpt>
      <trkpt lat="45.29119" lon="5.20899">
        <ele>527.65232638748</ele>
        <time>2014-05-31T17:34:29Z</time>
      </trkpt>
      <trkpt lat="45.29122" lon="5.20891">
        <ele>526.98686760693</ele>
        <time>2014-05-31T17:34:34Z</time>
      </trkpt>
      <trkpt lat="45.29124" lon="5.20883">
        <ele>526.98686760693</ele>
        <time>2014-05-31T17:34:39Z</time>
      </trkpt>
      <trkpt lat="45.29124" lon="5.20886">
        <ele>526.98686760693</ele>
        <time>2014-05-31T17:34:44Z</time>
      </trkpt>
      <trkpt lat="45.29124" lon="5.20886">
        <ele>526.98686760693</ele>
        <time>2014-05-31T17:34:49Z</time>
      </trkpt>
      <trkpt lat="45.29124" lon="5.20883">
        <ele>526.40783036348</ele>
        <time>2014-05-31T17:34:54Z</time>
      </trkpt>
      <trkpt lat="45.29126" lon="5.20874">
        <ele>526.40783036348</ele>
        <time>2014-05-31T17:34:59Z</time>
      </trkpt>
      <trkpt lat="45.29127" lon="5.20864">
        <ele>526.2547693149</ele>
        <time>2014-05-31T17:35:04Z</time>
      </trkpt>
      <trkpt lat="45.29127" lon="5.20855">
        <ele>526.2547693149</ele>
        <time>2014-05-31T17:35:09Z</time>
      </trkpt>
      <trkpt lat="45.29125" lon="5.20845">
        <ele>526.35113260802</ele>
        <time>2014-05-31T17:35:14Z</time>
      </trkpt>
      <trkpt lat="45.29123" lon="5.20836">
        <ele>526.35113260802</ele>
        <time>2014-05-31T17:35:19Z</time>
      </trkpt>
      <trkpt lat="45.2912" lon="5.20827">
        <ele>526.56147237952</ele>
        <time>2014-05-31T17:35:24Z</time>
      </trkpt>
      <trkpt lat="45.29117" lon="5.2082">
        <ele>526.56147237952</ele>
        <time>2014-05-31T17:35:29Z</time>
      </trkpt>
      <trkpt lat="45.29114" lon="5.20811">
        <ele>526.77439771324</ele>
        <time>2014-05-31T17:35:34Z</time>
      </trkpt>
      <trkpt lat="45.29109" lon="5.20802">
        <ele>526.77439771324</ele>
        <time>2014-05-31T17:35:39Z</time>
      </trkpt>
      <trkpt lat="45.29105" lon="5.20792">
        <ele>527.1749360293</ele>
        <time>2014-05-31T17:35:44Z</time>
      </trkpt>
      <trkpt lat="45.29101" lon="5.20782">
        <ele>527.1749360293</ele>
        <time>2014-05-31T17:35:49Z</time>
      </trkpt>
      <trkpt lat="45.29096" lon="5.20771">
        <ele>527.97725631129</ele>
        <time>2014-05-31T17:35:54Z</time>
      </trkpt>
      <trkpt lat="45.29092" lon="5.20761">
        <ele>527.97725631129</ele>
        <time>2014-05-31T17:35:59Z</time>
      </trkpt>
      <trkpt lat="45.29089" lon="5.20753">
        <ele>528.64373357363</ele>
        <time>2014-05-31T17:36:04Z</time>
      </trkpt>
      <trkpt lat="45.29086" lon="5.20744">
        <ele>528.64373357363</ele>
        <time>2014-05-31T17:36:09Z</time>
      </trkpt>
      <trkpt lat="45.29086" lon="5.20743">
        <ele>528.64373357363</ele>
        <time>2014-05-31T17:36:14Z</time>
      </trkpt>
      <trkpt lat="45.29086" lon="5.20742">
        <ele>528.64373357363</ele>
        <time>2014-05-31T17:36:19Z</time>
      </trkpt>
      <trkpt lat="45.29087" lon="5.20742">
        <ele>528.80635626241</ele>
        <time>2014-05-31T17:36:24Z</time>
      </trkpt>
      <trkpt lat="45.2909" lon="5.2075">
        <ele>528.80635626241</ele>
        <time>2014-05-31T17:36:29Z</time>
      </trkpt>
      <trkpt lat="45.2909" lon="5.20752">
        <ele>528.80635626241</ele>
        <time>2014-05-31T17:36:34Z</time>
      </trkpt>
      <trkpt lat="45.2909" lon="5.20752">
        <ele>528.80635626241</ele>
        <time>2014-05-31T17:36:39Z</time>
      </trkpt>
      <trkpt lat="45.29087" lon="5.20745">
        <ele>528.64440391703</ele>
        <time>2014-05-31T17:36:44Z</time>
      </trkpt>
      <trkpt lat="45.29083" lon="5.20736">
        <ele>528.64440391703</ele>
        <time>2014-05-31T17:36:49Z</time>
      </trkpt>
      <trkpt lat="45.2908" lon="5.20726">
        <ele>528.36817664474</ele>
        <time>2014-05-31T17:36:54Z</time>
      </trkpt>
      <trkpt lat="45.29078" lon="5.20717">
        <ele>528.36817664474</ele>
        <time>2014-05-31T17:36:59Z</time>
      </trkpt>
      <trkpt lat="45.29076" lon="5.20706">
        <ele>527.68291495027</ele>
        <time>2014-05-31T17:37:04Z</time>
      </trkpt>
      <trkpt lat="45.29077" lon="5.20694">
        <ele>527.68291495027</ele>
        <time>2014-05-31T17:37:09Z</time>
      </trkpt>
      <trkpt lat="45.29077" lon="5.20683">
        <ele>527.10931518882</ele>
        <time>2014-05-31T17:37:14Z</time>
      </trkpt>
      <trkpt lat="45.29078" lon="5.20673">
        <ele>527.10931518882</ele>
        <time>2014-05-31T17:37:19Z</time>
      </trkpt>
      <trkpt lat="45.2908" lon="5.20663">
        <ele>526.4378172424</ele>
        <time>2014-05-31T17:37:24Z</time>
      </trkpt>
      <trkpt lat="45.29082" lon="5.20654">
        <ele>526.4378172424</ele>
        <time>2014-05-31T17:37:29Z</time>
      </trkpt>
      <trkpt lat="45.29084" lon="5.20644">
        <ele>525.61867671103</ele>
        <time>2014-05-31T17:37:34Z</time>
      </trkpt>
      <trkpt lat="45.29087" lon="5.20635">
        <ele>525.61867671103</ele>
        <time>2014-05-31T17:37:39Z</time>
      </trkpt>
      <trkpt lat="45.2909" lon="5.20626">
        <ele>524.80800382411</ele>
        <time>2014-05-31T17:37:44Z</time>
      </trkpt>
      <trkpt lat="45.29094" lon="5.20617">
        <ele>524.80800382411</ele>
        <time>2014-05-31T17:37:49Z</time>
      </trkpt>
      <trkpt lat="45.29098" lon="5.20608">
        <ele>523.97750930656</ele>
        <time>2014-05-31T17:37:54Z</time>
      </trkpt>
      <trkpt lat="45.29103" lon="5.20601">
        <ele>523.97750930656</ele>
        <time>2014-05-31T17:37:59Z</time>
      </trkpt>
      <trkpt lat="45.29107" lon="5.20594">
        <ele>522.79842363971</ele>
        <time>2014-05-31T17:38:04Z</time>
      </trkpt>
      <trkpt lat="45.29113" lon="5.20587">
        <ele>522.79842363971</ele>
        <time>2014-05-31T17:38:09Z</time>
      </trkpt>
      <trkpt lat="45.29117" lon="5.20581">
        <ele>521.73090905781</ele>
        <time>2014-05-31T17:38:14Z</time>
      </trkpt>
      <trkpt lat="45.29117" lon="5.20581">
        <ele>521.73090905781</ele>
        <time>2014-05-31T17:38:19Z</time>
      </trkpt>
      <trkpt lat="45.29118" lon="5.2058">
        <ele>521.73090905781</ele>
        <time>2014-05-31T17:38:24Z</time>
      </trkpt>
      <trkpt lat="45.29123" lon="5.20575">
        <ele>521.73090905781</ele>
        <time>2014-05-31T17:38:29Z</time>
      </trkpt>
      <trkpt lat="45.29129" lon="5.20568">
        <ele>520.49487379358</ele>
        <time>2014-05-31T17:38:34Z</time>
      </trkpt>
      <trkpt lat="45.29135" lon="5.20561">
        <ele>520.49487379358</ele>
        <time>2014-05-31T17:38:39Z</time>
      </trkpt>
      <trkpt lat="45.2914" lon="5.20553">
        <ele>519.35007477012</ele>
        <time>2014-05-31T17:38:44Z</time>
      </trkpt>
      <trkpt lat="45.29146" lon="5.20545">
        <ele>519.35007477012</ele>
        <time>2014-05-31T17:38:49Z</time>
      </trkpt>
      <trkpt lat="45.29152" lon="5.20537">
        <ele>518.29193634529</ele>
        <time>2014-05-31T17:38:54Z</time>
      </trkpt>
      <trkpt lat="45.29158" lon="5.2053">
        <ele>518.29193634529</ele>
        <time>2014-05-31T17:38:59Z</time>
      </trkpt>
      <trkpt lat="45.29163" lon="5.20522">
        <ele>517.4312533381</ele>
        <time>2014-05-31T17:39:04Z</time>
      </trkpt>
      <trkpt lat="45.29169" lon="5.20515">
        <ele>517.4312533381</ele>
        <time>2014-05-31T17:39:09Z</time>
      </trkpt>
      <trkpt lat="45.29175" lon="5.20507">
        <ele>516.58188932875</ele>
        <time>2014-05-31T17:39:14Z</time>
      </trkpt>
      <trkpt lat="45.2918" lon="5.205">
        <ele>516.58188932875</ele>
        <time>2014-05-31T17:39:19Z</time>
      </trkpt>
      <trkpt lat="45.29186" lon="5.20494">
        <ele>515.45604067977</ele>
        <time>2014-05-31T17:39:24Z</time>
      </trkpt>
      <trkpt lat="45.29192" lon="5.20488">
        <ele>515.45604067977</ele>
        <time>2014-05-31T17:39:29Z</time>
      </trkpt>
      <trkpt lat="45.29198" lon="5.20482">
        <ele>514.39306485032</ele>
        <time>2014-05-31T17:39:34Z</time>
      </trkpt>
      <trkpt lat="45.29205" lon="5.20475">
        <ele>514.39306485032</ele>
        <time>2014-05-31T17:39:39Z</time>
      </trkpt>
      <trkpt lat="45.29211" lon="5.2047">
        <ele>513.33249840734</ele>
        <time>2014-05-31T17:39:44Z</time>
      </trkpt>
      <trkpt lat="45.29217" lon="5.20464">
        <ele>513.33249840734</ele>
        <time>2014-05-31T17:39:49Z</time>
      </trkpt>
      <trkpt lat="45.29223" lon="5.20459">
        <ele>512.39121663685</ele>
        <time>2014-05-31T17:39:54Z</time>
      </trkpt>
      <trkpt lat="45.29229" lon="5.20453">
        <ele>512.39121663685</ele>
        <time>2014-05-31T17:39:59Z</time>
      </trkpt>
      <trkpt lat="45.29235" lon="5.20448">
        <ele>511.5042089605</ele>
        <time>2014-05-31T17:40:04Z</time>
      </trkpt>
      <trkpt lat="45.29242" lon="5.20442">
        <ele>511.5042089605</ele>
        <time>2014-05-31T17:40:09Z</time>
      </trkpt>
      <trkpt lat="45.29248" lon="5.20436">
        <ele>510.6254650659</ele>
        <time>2014-05-31T17:40:14Z</time>
      </trkpt>
      <trkpt lat="45.29255" lon="5.20431">
        <ele>510.6254650659</ele>
        <time>2014-05-31T17:40:19Z</time>
      </trkpt>
      <trkpt lat="45.29261" lon="5.20425">
        <ele>509.87081824344</ele>
        <time>2014-05-31T17:40:24Z</time>
      </trkpt>
      <trkpt lat="45.29267" lon="5.20419">
        <ele>509.87081824344</ele>
        <time>2014-05-31T17:40:29Z</time>
      </trkpt>
      <trkpt lat="45.29273" lon="5.20413">
        <ele>509.04457514146</ele>
        <time>2014-05-31T17:40:34Z</time>
      </trkpt>
      <trkpt lat="45.29279" lon="5.20407">
        <ele>509.04457514146</ele>
        <time>2014-05-31T17:40:39Z</time>
      </trkpt>
      <trkpt lat="45.29285" lon="5.20401">
        <ele>508.16733807887</ele>
        <time>2014-05-31T17:40:44Z</time>
      </trkpt>
      <trkpt lat="45.29291" lon="5.20396">
        <ele>508.16733807887</ele>
        <time>2014-05-31T17:40:49Z</time>
      </trkpt>
      <trkpt lat="45.29297" lon="5.20391">
        <ele>507.5753475908</ele>
        <time>2014-05-31T17:40:54Z</time>
      </trkpt>
      <trkpt lat="45.29297" lon="5.20392">
        <ele>507.5753475908</ele>
        <time>2014-05-31T17:40:59Z</time>
      </trkpt>
      <trkpt lat="45.29301" lon="5.20387">
        <ele>507.5753475908</ele>
        <time>2014-05-31T17:41:04Z</time>
      </trkpt>
      <trkpt lat="45.29304" lon="5.20383">
        <ele>507.17579782471</ele>
        <time>2014-05-31T17:41:09Z</time>
      </trkpt>
      <trkpt lat="45.29305" lon="5.20382">
        <ele>507.17579782471</ele>
        <time>2014-05-31T17:41:14Z</time>
      </trkpt>
      <trkpt lat="45.29308" lon="5.20379">
        <ele>507.17579782471</ele>
        <time>2014-05-31T17:41:19Z</time>
      </trkpt>
      <trkpt lat="45.29307" lon="5.20378">
        <ele>507.17579782471</ele>
        <time>2014-05-31T17:41:24Z</time>
      </trkpt>
      <trkpt lat="45.29308" lon="5.20377">
        <ele>507.17579782471</ele>
        <time>2014-05-31T17:41:29Z</time>
      </trkpt>
      <trkpt lat="45.29308" lon="5.20378">
        <ele>507.17579782471</ele>
        <time>2014-05-31T17:41:34Z</time>
      </trkpt>
      <trkpt lat="45.29309" lon="5.20379">
        <ele>507.17579782471</ele>
        <time>2014-05-31T17:41:39Z</time>
      </trkpt>
      <trkpt lat="45.29309" lon="5.20379">
        <ele>507.17579782471</ele>
        <time>2014-05-31T17:41:44Z</time>
      </trkpt>
      <trkpt lat="45.29311" lon="5.20377">
        <ele>506.85330530019</ele>
        <time>2014-05-31T17:41:49Z</time>
      </trkpt>
      <trkpt lat="45.29315" lon="5.20371">
        <ele>506.85330530019</ele>
        <time>2014-05-31T17:41:54Z</time>
      </trkpt>
      <trkpt lat="45.2932" lon="5.20366">
        <ele>506.58718300268</ele>
        <time>2014-05-31T17:41:59Z</time>
      </trkpt>
      <trkpt lat="45.29326" lon="5.2036">
        <ele>506.58718300268</ele>
        <time>2014-05-31T17:42:04Z</time>
      </trkpt>
      <trkpt lat="45.29333" lon="5.20354">
        <ele>506.25720125129</ele>
        <time>2014-05-31T17:42:09Z</time>
      </trkpt>
      <trkpt lat="45.29338" lon="5.20348">
        <ele>506.25720125129</ele>
        <time>2014-05-31T17:42:14Z</time>
      </trkpt>
      <trkpt lat="45.29343" lon="5.20341">
        <ele>505.96828590291</ele>
        <time>2014-05-31T17:42:19Z</time>
      </trkpt>
      <trkpt lat="45.29344" lon="5.20339">
        <ele>505.96828590291</ele>
        <time>2014-05-31T17:42:24Z</time>
      </trkpt>
      <trkpt lat="45.29345" lon="5.20338">
        <ele>505.96828590291</ele>
        <time>2014-05-31T17:42:29Z</time>
      </trkpt>
      <trkpt lat="45.2935" lon="5.20332">
        <ele>505.50047649851</ele>
        <time>2014-05-31T17:42:34Z</time>
      </trkpt>
      <trkpt lat="45.29357" lon="5.20325">
        <ele>505.50047649851</ele>
        <time>2014-05-31T17:42:39Z</time>
      </trkpt>
      <trkpt lat="45.29363" lon="5.20319">
        <ele>505.06837946566</ele>
        <time>2014-05-31T17:42:44Z</time>
      </trkpt>
      <trkpt lat="45.29369" lon="5.20313">
        <ele>505.06837946566</ele>
        <time>2014-05-31T17:42:49Z</time>
      </trkpt>
      <trkpt lat="45.29376" lon="5.20307">
        <ele>504.9716017892</ele>
        <time>2014-05-31T17:42:54Z</time>
      </trkpt>
      <trkpt lat="45.29382" lon="5.20301">
        <ele>504.9716017892</ele>
        <time>2014-05-31T17:42:59Z</time>
      </trkpt>
      <trkpt lat="45.29389" lon="5.20295">
        <ele>504.98240302921</ele>
        <time>2014-05-31T17:43:04Z</time>
      </trkpt>
      <trkpt lat="45.29395" lon="5.2029">
        <ele>504.98240302921</ele>
        <time>2014-05-31T17:43:09Z</time>
      </trkpt>
      <trkpt lat="45.294" lon="5.20284">
        <ele>505.04798820976</ele>
        <time>2014-05-31T17:43:14Z</time>
      </trkpt>
      <trkpt lat="45.29406" lon="5.20278">
        <ele>505.04798820976</ele>
        <time>2014-05-31T17:43:19Z</time>
      </trkpt>
      <trkpt lat="45.29412" lon="5.20272">
        <ele>505.00399785842</ele>
        <time>2014-05-31T17:43:24Z</time>
      </trkpt>
      <trkpt lat="45.29418" lon="5.20266">
        <ele>505.00399785842</ele>
        <time>2014-05-31T17:43:29Z</time>
      </trkpt>
      <trkpt lat="45.29423" lon="5.2026">
        <ele>504.88580269728</ele>
        <time>2014-05-31T17:43:34Z</time>
      </trkpt>
      <trkpt lat="45.29428" lon="5.20254">
        <ele>504.88580269728</ele>
        <time>2014-05-31T17:43:39Z</time>
      </trkpt>
      <trkpt lat="45.29434" lon="5.20248">
        <ele>504.69756974373</ele>
        <time>2014-05-31T17:43:44Z</time>
      </trkpt>
      <trkpt lat="45.2944" lon="5.20242">
        <ele>504.69756974373</ele>
        <time>2014-05-31T17:43:49Z</time>
      </trkpt>
      <trkpt lat="45.29445" lon="5.20235">
        <ele>504.60189090996</ele>
        <time>2014-05-31T17:43:54Z</time>
      </trkpt>
      <trkpt lat="45.29451" lon="5.20228">
        <ele>504.60189090996</ele>
        <time>2014-05-31T17:43:59Z</time>
      </trkpt>
      <trkpt lat="45.29456" lon="5.20221">
        <ele>504.57623646507</ele>
        <time>2014-05-31T17:44:04Z</time>
      </trkpt>
      <trkpt lat="45.29461" lon="5.20215">
        <ele>504.57623646507</ele>
        <time>2014-05-31T17:44:09Z</time>
      </trkpt>
      <trkpt lat="45.29465" lon="5.20207">
        <ele>504.5274977682</ele>
        <time>2014-05-31T17:44:14Z</time>
      </trkpt>
      <trkpt lat="45.29468" lon="5.20197">
        <ele>504.5274977682</ele>
        <time>2014-05-31T17:44:19Z</time>
      </trkpt>
      <trkpt lat="45.2947" lon="5.20188">
        <ele>504.3550801246</ele>
        <time>2014-05-31T17:44:24Z</time>
      </trkpt>
      <trkpt lat="45.29473" lon="5.20179">
        <ele>504.3550801246</ele>
        <time>2014-05-31T17:44:29Z</time>
      </trkpt>
      <trkpt lat="45.29475" lon="5.2017">
        <ele>504.2831930678</ele>
        <time>2014-05-31T17:44:34Z</time>
      </trkpt>
      <trkpt lat="45.29477" lon="5.2016">
        <ele>504.2831930678</ele>
        <time>2014-05-31T17:44:39Z</time>
      </trkpt>
      <trkpt lat="45.29478" lon="5.2016">
        <ele>504.2831930678</ele>
        <time>2014-05-31T17:44:44Z</time>
      </trkpt>
      <trkpt lat="45.29478" lon="5.2016">
        <ele>504.2831930678</ele>
        <time>2014-05-31T17:44:49Z</time>
      </trkpt>
      <trkpt lat="45.29479" lon="5.20159">
        <ele>504.40403044441</ele>
        <time>2014-05-31T17:44:54Z</time>
      </trkpt>
      <trkpt lat="45.29482" lon="5.2015">
        <ele>504.40403044441</ele>
        <time>2014-05-31T17:44:59Z</time>
      </trkpt>
      <trkpt lat="45.29485" lon="5.20141">
        <ele>504.81691254204</ele>
        <time>2014-05-31T17:45:04Z</time>
      </trkpt>
      <trkpt lat="45.29489" lon="5.2013">
        <ele>504.81691254204</ele>
        <time>2014-05-31T17:45:09Z</time>
      </trkpt>
      <trkpt lat="45.29491" lon="5.2012">
        <ele>505.39690981309</ele>
        <time>2014-05-31T17:45:14Z</time>
      </trkpt>
      <trkpt lat="45.29494" lon="5.20111">
        <ele>505.39690981309</ele>
        <time>2014-05-31T17:45:19Z</time>
      </trkpt>
      <trkpt lat="45.29497" lon="5.20103">
        <ele>505.76843756958</ele>
        <time>2014-05-31T17:45:24Z</time>
      </trkpt>
      <trkpt lat="45.29498" lon="5.20095">
        <ele>505.76843756958</ele>
        <time>2014-05-31T17:45:29Z</time>
      </trkpt>
      <trkpt lat="45.29498" lon="5.20085">
        <ele>506.31909473634</ele>
        <time>2014-05-31T17:45:34Z</time>
      </trkpt>
      <trkpt lat="45.29497" lon="5.20083">
        <ele>506.31909473634</ele>
        <time>2014-05-31T17:45:39Z</time>
      </trkpt>
      <trkpt lat="45.29497" lon="5.20083">
        <ele>506.31909473634</ele>
        <time>2014-05-31T17:45:44Z</time>
      </trkpt>
      <trkpt lat="45.29497" lon="5.20082">
        <ele>506.31909473634</ele>
        <time>2014-05-31T17:45:49Z</time>
      </trkpt>
      <trkpt lat="45.29497" lon="5.20082">
        <ele>506.31909473634</ele>
        <time>2014-05-31T17:45:54Z</time>
      </trkpt>
      <trkpt lat="45.29497" lon="5.20082">
        <ele>506.31909473634</ele>
        <time>2014-05-31T17:45:59Z</time>
      </trkpt>
      <trkpt lat="45.29496" lon="5.20083">
        <ele>506.31909473634</ele>
        <time>2014-05-31T17:46:04Z</time>
      </trkpt>
      <trkpt lat="45.29495" lon="5.20078">
        <ele>506.31909473634</ele>
        <time>2014-05-31T17:46:09Z</time>
      </trkpt>
      <trkpt lat="45.29494" lon="5.20067">
        <ele>506.51406182776</ele>
        <time>2014-05-31T17:46:14Z</time>
      </trkpt>
      <trkpt lat="45.29493" lon="5.20057">
        <ele>506.51406182776</ele>
        <time>2014-05-31T17:46:19Z</time>
      </trkpt>
      <trkpt lat="45.29492" lon="5.20046">
        <ele>507.04056668932</ele>
        <time>2014-05-31T17:46:24Z</time>
      </trkpt>
      <trkpt lat="45.29488" lon="5.20037">
        <ele>507.04056668932</ele>
        <time>2014-05-31T17:46:29Z</time>
      </trkpt>
      <trkpt lat="45.29484" lon="5.20027">
        <ele>507.64098868233</ele>
        <time>2014-05-31T17:46:34Z</time>
      </trkpt>
      <trkpt lat="45.29479" lon="5.20018">
        <ele>507.64098868233</ele>
        <time>2014-05-31T17:46:39Z</time>
      </trkpt>
      <trkpt lat="45.29473" lon="5.20011">
        <ele>508.23500450891</ele>
        <time>2014-05-31T17:46:44Z</time>
      </trkpt>
      <trkpt lat="45.29467" lon="5.20003">
        <ele>508.23500450891</ele>
        <time>2014-05-31T17:46:49Z</time>
      </trkpt>
      <trkpt lat="45.29463" lon="5.19998">
        <ele>509.00767097703</ele>
        <time>2014-05-31T17:46:54Z</time>
      </trkpt>
      <trkpt lat="45.29455" lon="5.19989">
        <ele>509.668859295</ele>
        <time>2014-05-31T17:46:59Z</time>
      </trkpt>
      <trkpt lat="45.29451" lon="5.19983">
        <ele>509.668859295</ele>
        <time>2014-05-31T17:47:04Z</time>
      </trkpt>
      <trkpt lat="45.29446" lon="5.19975">
        <ele>510.26717975319</ele>
        <time>2014-05-31T17:47:09Z</time>
      </trkpt>
      <trkpt lat="45.2944" lon="5.19969">
        <ele>510.26717975319</ele>
        <time>2014-05-31T17:47:14Z</time>
      </trkpt>
      <trkpt lat="45.29434" lon="5.19961">
        <ele>511.04967634968</ele>
        <time>2014-05-31T17:47:19Z</time>
      </trkpt>
      <trkpt lat="45.29428" lon="5.19953">
        <ele>511.04967634968</ele>
        <time>2014-05-31T17:47:24Z</time>
      </trkpt>
      <trkpt lat="45.29423" lon="5.19945">
        <ele>511.79805977742</ele>
        <time>2014-05-31T17:47:29Z</time>
      </trkpt>
      <trkpt lat="45.29418" lon="5.19937">
        <ele>511.79805977742</ele>
        <time>2014-05-31T17:47:34Z</time>
      </trkpt>
      <trkpt lat="45.29413" lon="5.1993">
        <ele>512.19496065593</ele>
        <time>2014-05-31T17:47:39Z</time>
      </trkpt>
      <trkpt lat="45.29412" lon="5.19928">
        <ele>512.19496065593</ele>
        <time>2014-05-31T17:47:44Z</time>
      </trkpt>
      <trkpt lat="45.2941" lon="5.19925">
        <ele>512.19496065593</ele>
        <time>2014-05-31T17:47:49Z</time>
      </trkpt>
      <trkpt lat="45.29404" lon="5.19918">
        <ele>512.45177740098</ele>
        <time>2014-05-31T17:47:54Z</time>
      </trkpt>
      <trkpt lat="45.29397" lon="5.19911">
        <ele>512.45177740098</ele>
        <time>2014-05-31T17:47:59Z</time>
      </trkpt>
      <trkpt lat="45.2939" lon="5.19905">
        <ele>512.79367363423</ele>
        <time>2014-05-31T17:48:04Z</time>
      </trkpt>
      <trkpt lat="45.29384" lon="5.19897">
        <ele>512.79367363423</ele>
        <time>2014-05-31T17:48:09Z</time>
      </trkpt>
      <trkpt lat="45.29379" lon="5.19891">
        <ele>512.85266704232</ele>
        <time>2014-05-31T17:48:14Z</time>
      </trkpt>
      <trkpt lat="45.29373" lon="5.19885">
        <ele>512.85266704232</ele>
        <time>2014-05-31T17:48:19Z</time>
      </trkpt>
      <trkpt lat="45.29366" lon="5.19879">
        <ele>512.77865373186</ele>
        <time>2014-05-31T17:48:24Z</time>
      </trkpt>
      <trkpt lat="45.29361" lon="5.19872">
        <ele>512.77865373186</ele>
        <time>2014-05-31T17:48:29Z</time>
      </trkpt>
      <trkpt lat="45.29355" lon="5.19865">
        <ele>512.42274036495</ele>
        <time>2014-05-31T17:48:34Z</time>
      </trkpt>
      <trkpt lat="45.29349" lon="5.19858">
        <ele>512.42274036495</ele>
        <time>2014-05-31T17:48:39Z</time>
      </trkpt>
      <trkpt lat="45.29342" lon="5.19851">
        <ele>511.54694933132</ele>
        <time>2014-05-31T17:48:44Z</time>
      </trkpt>
      <trkpt lat="45.29336" lon="5.19842">
        <ele>510.58080073025</ele>
        <time>2014-05-31T17:48:49Z</time>
      </trkpt>
      <trkpt lat="45.29332" lon="5.19838">
        <ele>510.58080073025</ele>
        <time>2014-05-31T17:48:54Z</time>
      </trkpt>
      <trkpt lat="45.29329" lon="5.19831">
        <ele>509.33170765174</ele>
        <time>2014-05-31T17:48:59Z</time>
      </trkpt>
      <trkpt lat="45.29325" lon="5.19824">
        <ele>509.33170765174</ele>
        <time>2014-05-31T17:49:04Z</time>
      </trkpt>
      <trkpt lat="45.29322" lon="5.19814">
        <ele>508.16968327081</ele>
        <time>2014-05-31T17:49:09Z</time>
      </trkpt>
      <trkpt lat="45.29318" lon="5.19801">
        <ele>506.88971788623</ele>
        <time>2014-05-31T17:49:14Z</time>
      </trkpt>
      <trkpt lat="45.29314" lon="5.19794">
        <ele>506.88971788623</ele>
        <time>2014-05-31T17:49:19Z</time>
      </trkpt>
      <trkpt lat="45.29307" lon="5.1979">
        <ele>506.15246246758</ele>
        <time>2014-05-31T17:49:24Z</time>
      </trkpt>
      <trkpt lat="45.293" lon="5.19787">
        <ele>506.15246246758</ele>
        <time>2014-05-31T17:49:29Z</time>
      </trkpt>
      <trkpt lat="45.29292" lon="5.19783">
        <ele>505.67503007382</ele>
        <time>2014-05-31T17:49:34Z</time>
      </trkpt>
      <trkpt lat="45.29288" lon="5.19782">
        <ele>505.67503007382</ele>
        <time>2014-05-31T17:49:39Z</time>
      </trkpt>
      <trkpt lat="45.29286" lon="5.19781">
        <ele>505.67503007382</ele>
        <time>2014-05-31T17:49:44Z</time>
      </trkpt>
      <trkpt lat="45.29285" lon="5.19781">
        <ele>505.67503007382</ele>
        <time>2014-05-31T17:49:49Z</time>
      </trkpt>
      <trkpt lat="45.29278" lon="5.1978">
        <ele>505.38192805942</ele>
        <time>2014-05-31T17:49:54Z</time>
      </trkpt>
      <trkpt lat="45.29269" lon="5.19778">
        <ele>505.38192805942</ele>
        <time>2014-05-31T17:49:59Z</time>
      </trkpt>
      <trkpt lat="45.29262" lon="5.19776">
        <ele>505.2459192658</ele>
        <time>2014-05-31T17:50:04Z</time>
      </trkpt>
      <trkpt lat="45.29257" lon="5.19766">
        <ele>505.2459192658</ele>
        <time>2014-05-31T17:50:09Z</time>
      </trkpt>
      <trkpt lat="45.29255" lon="5.19756">
        <ele>505.27014061055</ele>
        <time>2014-05-31T17:50:14Z</time>
      </trkpt>
      <trkpt lat="45.2926" lon="5.19751">
        <ele>505.27014061055</ele>
        <time>2014-05-31T17:50:19Z</time>
      </trkpt>
      <trkpt lat="45.29265" lon="5.19744">
        <ele>504.44826070011</ele>
        <time>2014-05-31T17:50:24Z</time>
      </trkpt>
      <trkpt lat="45.29268" lon="5.19737">
        <ele>504.44826070011</ele>
        <time>2014-05-31T17:50:29Z</time>
      </trkpt>
      <trkpt lat="45.29269" lon="5.19728">
        <ele>504.50188099583</ele>
        <time>2014-05-31T17:50:34Z</time>
      </trkpt>
      <trkpt lat="45.29271" lon="5.19716">
        <ele>504.50188099583</ele>
        <time>2014-05-31T17:50:39Z</time>
      </trkpt>
      <trkpt lat="45.29274" lon="5.19702">
        <ele>504.68906730724</ele>
        <time>2014-05-31T17:50:44Z</time>
      </trkpt>
      <trkpt lat="45.29277" lon="5.19692">
        <ele>504.68906730724</ele>
        <time>2014-05-31T17:50:49Z</time>
      </trkpt>
      <trkpt lat="45.2928" lon="5.19682">
        <ele>504.75433556032</ele>
        <time>2014-05-31T17:50:54Z</time>
      </trkpt>
      <trkpt lat="45.29282" lon="5.19673">
        <ele>504.75433556032</ele>
        <time>2014-05-31T17:50:59Z</time>
      </trkpt>
      <trkpt lat="45.29284" lon="5.19662">
        <ele>504.95127973627</ele>
        <time>2014-05-31T17:51:04Z</time>
      </trkpt>
      <trkpt lat="45.29285" lon="5.1965">
        <ele>504.95127973627</ele>
        <time>2014-05-31T17:51:09Z</time>
      </trkpt>
      <trkpt lat="45.29287" lon="5.19637">
        <ele>505.65860040865</ele>
        <time>2014-05-31T17:51:14Z</time>
      </trkpt>
      <trkpt lat="45.29288" lon="5.19624">
        <ele>505.65860040865</ele>
        <time>2014-05-31T17:51:19Z</time>
      </trkpt>
      <trkpt lat="45.29288" lon="5.19613">
        <ele>506.46195591524</ele>
        <time>2014-05-31T17:51:24Z</time>
      </trkpt>
      <trkpt lat="45.29289" lon="5.19602">
        <ele>506.46195591524</ele>
        <time>2014-05-31T17:51:29Z</time>
      </trkpt>
      <trkpt lat="45.29289" lon="5.19591">
        <ele>507.64008743593</ele>
        <time>2014-05-31T17:51:34Z</time>
      </trkpt>
      <trkpt lat="45.29288" lon="5.1958">
        <ele>507.64008743593</ele>
        <time>2014-05-31T17:51:39Z</time>
      </trkpt>
      <trkpt lat="45.29287" lon="5.1957">
        <ele>508.42702946368</ele>
        <time>2014-05-31T17:51:44Z</time>
      </trkpt>
      <trkpt lat="45.29286" lon="5.1956">
        <ele>508.42702946368</ele>
        <time>2014-05-31T17:51:49Z</time>
      </trkpt>
      <trkpt lat="45.29284" lon="5.19552">
        <ele>509.12297652348</ele>
        <time>2014-05-31T17:51:54Z</time>
      </trkpt>
      <trkpt lat="45.29282" lon="5.19542">
        <ele>509.12297652348</ele>
        <time>2014-05-31T17:51:59Z</time>
      </trkpt>
      <trkpt lat="45.29281" lon="5.19531">
        <ele>509.44431552266</ele>
        <time>2014-05-31T17:52:04Z</time>
      </trkpt>
      <trkpt lat="45.2928" lon="5.19523">
        <ele>509.44431552266</ele>
        <time>2014-05-31T17:52:09Z</time>
      </trkpt>
      <trkpt lat="45.29279" lon="5.19513">
        <ele>509.08611077716</ele>
        <time>2014-05-31T17:52:14Z</time>
      </trkpt>
      <trkpt lat="45.29277" lon="5.19502">
        <ele>509.08611077716</ele>
        <time>2014-05-31T17:52:19Z</time>
      </trkpt>
      <trkpt lat="45.29276" lon="5.19489">
        <ele>509.23769426454</ele>
        <time>2014-05-31T17:52:24Z</time>
      </trkpt>
      <trkpt lat="45.29276" lon="5.19477">
        <ele>509.23769426454</ele>
        <time>2014-05-31T17:52:29Z</time>
      </trkpt>
      <trkpt lat="45.29276" lon="5.19467">
        <ele>509.57292651065</ele>
        <time>2014-05-31T17:52:34Z</time>
      </trkpt>
      <trkpt lat="45.29276" lon="5.19457">
        <ele>509.57292651065</ele>
        <time>2014-05-31T17:52:39Z</time>
      </trkpt>
      <trkpt lat="45.29276" lon="5.19444">
        <ele>510.03412605116</ele>
        <time>2014-05-31T17:52:44Z</time>
      </trkpt>
      <trkpt lat="45.29277" lon="5.19426">
        <ele>510.45223246554</ele>
        <time>2014-05-31T17:52:49Z</time>
      </trkpt>
      <trkpt lat="45.29277" lon="5.19416">
        <ele>510.45223246554</ele>
        <time>2014-05-31T17:52:54Z</time>
      </trkpt>
      <trkpt lat="45.29278" lon="5.19404">
        <ele>510.81486356979</ele>
        <time>2014-05-31T17:52:59Z</time>
      </trkpt>
      <trkpt lat="45.29277" lon="5.19394">
        <ele>510.81486356979</ele>
        <time>2014-05-31T17:53:04Z</time>
      </trkpt>
      <trkpt lat="45.29277" lon="5.19383">
        <ele>511.12514169569</ele>
        <time>2014-05-31T17:53:09Z</time>
      </trkpt>
      <trkpt lat="45.29277" lon="5.19372">
        <ele>511.12514169569</ele>
        <time>2014-05-31T17:53:14Z</time>
      </trkpt>
      <trkpt lat="45.29277" lon="5.19361">
        <ele>511.51583586952</ele>
        <time>2014-05-31T17:53:19Z</time>
      </trkpt>
      <trkpt lat="45.29277" lon="5.1935">
        <ele>511.51583586952</ele>
        <time>2014-05-31T17:53:24Z</time>
      </trkpt>
      <trkpt lat="45.29278" lon="5.19339">
        <ele>511.82154368226</ele>
        <time>2014-05-31T17:53:29Z</time>
      </trkpt>
      <trkpt lat="45.29277" lon="5.19329">
        <ele>511.82154368226</ele>
        <time>2014-05-31T17:53:34Z</time>
      </trkpt>
      <trkpt lat="45.29277" lon="5.1932">
        <ele>511.38489097481</ele>
        <time>2014-05-31T17:53:39Z</time>
      </trkpt>
      <trkpt lat="45.29278" lon="5.1931">
        <ele>511.38489097481</ele>
        <time>2014-05-31T17:53:44Z</time>
      </trkpt>
      <trkpt lat="45.29278" lon="5.19302">
        <ele>510.78061412609</ele>
        <time>2014-05-31T17:53:49Z</time>
      </trkpt>
      <trkpt lat="45.29279" lon="5.1929">
        <ele>510.78061412609</ele>
        <time>2014-05-31T17:53:54Z</time>
      </trkpt>
      <trkpt lat="45.29279" lon="5.19281">
        <ele>509.99409916806</ele>
        <time>2014-05-31T17:53:59Z</time>
      </trkpt>
      <trkpt lat="45.29281" lon="5.19272">
        <ele>509.99409916806</ele>
        <time>2014-05-31T17:54:04Z</time>
      </trkpt>
      <trkpt lat="45.29281" lon="5.19261">
        <ele>509.08438753861</ele>
        <time>2014-05-31T17:54:09Z</time>
      </trkpt>
      <trkpt lat="45.29281" lon="5.19251">
        <ele>509.08438753861</ele>
        <time>2014-05-31T17:54:14Z</time>
      </trkpt>
      <trkpt lat="45.29282" lon="5.19243">
        <ele>508.09212491113</ele>
        <time>2014-05-31T17:54:19Z</time>
      </trkpt>
      <trkpt lat="45.29281" lon="5.19233">
        <ele>508.09212491113</ele>
        <time>2014-05-31T17:54:24Z</time>
      </trkpt>
      <trkpt lat="45.2928" lon="5.19223">
        <ele>506.79580048881</ele>
        <time>2014-05-31T17:54:29Z</time>
      </trkpt>
      <trkpt lat="45.2928" lon="5.19219">
        <ele>506.79580048881</ele>
        <time>2014-05-31T17:54:34Z</time>
      </trkpt>
      <trkpt lat="45.29281" lon="5.19218">
        <ele>506.79580048881</ele>
        <time>2014-05-31T17:54:39Z</time>
      </trkpt>
      <trkpt lat="45.29281" lon="5.19209">
        <ele>505.58187287711</ele>
        <time>2014-05-31T17:54:44Z</time>
      </trkpt>
      <trkpt lat="45.2928" lon="5.19199">
        <ele>505.58187287711</ele>
        <time>2014-05-31T17:54:49Z</time>
      </trkpt>
      <trkpt lat="45.29277" lon="5.19188">
        <ele>504.40464851488</ele>
        <time>2014-05-31T17:54:54Z</time>
      </trkpt>
      <trkpt lat="45.29276" lon="5.19179">
        <ele>504.40464851488</ele>
        <time>2014-05-31T17:54:59Z</time>
      </trkpt>
      <trkpt lat="45.29275" lon="5.19176">
        <ele>504.40464851488</ele>
        <time>2014-05-31T17:55:04Z</time>
      </trkpt>
      <trkpt lat="45.29274" lon="5.19171">
        <ele>503.32253570933</ele>
        <time>2014-05-31T17:55:09Z</time>
      </trkpt>
      <trkpt lat="45.29273" lon="5.19162">
        <ele>503.32253570933</ele>
        <time>2014-05-31T17:55:14Z</time>
      </trkpt>
      <trkpt lat="45.2927" lon="5.19153">
        <ele>503.06667146909</ele>
        <time>2014-05-31T17:55:19Z</time>
      </trkpt>
      <trkpt lat="45.29267" lon="5.19142">
        <ele>503.06667146909</ele>
        <time>2014-05-31T17:55:24Z</time>
      </trkpt>
      <trkpt lat="45.29263" lon="5.1913">
        <ele>502.88542468593</ele>
        <time>2014-05-31T17:55:29Z</time>
      </trkpt>
      <trkpt lat="45.29258" lon="5.19118">
        <ele>502.50004855939</ele>
        <time>2014-05-31T17:55:34Z</time>
      </trkpt>
      <trkpt lat="45.29254" lon="5.19107">
        <ele>502.50004855939</ele>
        <time>2014-05-31T17:55:39Z</time>
      </trkpt>
      <trkpt lat="45.29251" lon="5.19097">
        <ele>502.30130258749</ele>
        <time>2014-05-31T17:55:44Z</time>
      </trkpt>
      <trkpt lat="45.29248" lon="5.19085">
        <ele>502.30130258749</ele>
        <time>2014-05-31T17:55:49Z</time>
      </trkpt>
      <trkpt lat="45.29246" lon="5.19077">
        <ele>502.26157590521</ele>
        <time>2014-05-31T17:55:54Z</time>
      </trkpt>
      <trkpt lat="45.29244" lon="5.19066">
        <ele>502.26157590521</ele>
        <time>2014-05-31T17:55:59Z</time>
      </trkpt>
      <trkpt lat="45.29242" lon="5.19052">
        <ele>502.22509986525</ele>
        <time>2014-05-31T17:56:04Z</time>
      </trkpt>
      <trkpt lat="45.2924" lon="5.1904">
        <ele>502.22509986525</ele>
        <time>2014-05-31T17:56:09Z</time>
      </trkpt>
      <trkpt lat="45.2924" lon="5.19031">
        <ele>502.20602396825</ele>
        <time>2014-05-31T17:56:14Z</time>
      </trkpt>
      <trkpt lat="45.29239" lon="5.19021">
        <ele>502.20602396825</ele>
        <time>2014-05-31T17:56:19Z</time>
      </trkpt>
      <trkpt lat="45.2924" lon="5.19011">
        <ele>501.9723852124</ele>
        <time>2014-05-31T17:56:24Z</time>
      </trkpt>
      <trkpt lat="45.29239" lon="5.18999">
        <ele>501.9723852124</ele>
        <time>2014-05-31T17:56:29Z</time>
      </trkpt>
      <trkpt lat="45.2924" lon="5.18987">
        <ele>501.8862742946</ele>
        <time>2014-05-31T17:56:34Z</time>
      </trkpt>
      <trkpt lat="45.2924" lon="5.18978">
        <ele>501.8862742946</ele>
        <time>2014-05-31T17:56:39Z</time>
      </trkpt>
      <trkpt lat="45.2924" lon="5.18965">
        <ele>501.9224608822</ele>
        <time>2014-05-31T17:56:44Z</time>
      </trkpt>
      <trkpt lat="45.29241" lon="5.18957">
        <ele>501.9224608822</ele>
        <time>2014-05-31T17:56:49Z</time>
      </trkpt>
      <trkpt lat="45.29241" lon="5.18947">
        <ele>501.89867472372</ele>
        <time>2014-05-31T17:56:54Z</time>
      </trkpt>
      <trkpt lat="45.29242" lon="5.18937">
        <ele>501.89867472372</ele>
        <time>2014-05-31T17:56:59Z</time>
      </trkpt>
      <trkpt lat="45.29242" lon="5.18924">
        <ele>501.84793330534</ele>
        <time>2014-05-31T17:57:04Z</time>
      </trkpt>
      <trkpt lat="45.29243" lon="5.18914">
        <ele>501.84793330534</ele>
        <time>2014-05-31T17:57:09Z</time>
      </trkpt>
      <trkpt lat="45.29244" lon="5.18904">
        <ele>501.58471410472</ele>
        <time>2014-05-31T17:57:14Z</time>
      </trkpt>
      <trkpt lat="45.29245" lon="5.18894">
        <ele>501.58471410472</ele>
        <time>2014-05-31T17:57:19Z</time>
      </trkpt>
      <trkpt lat="45.29246" lon="5.18884">
        <ele>501.6438426656</ele>
        <time>2014-05-31T17:57:24Z</time>
      </trkpt>
      <trkpt lat="45.29247" lon="5.18874">
        <ele>501.6438426656</ele>
        <time>2014-05-31T17:57:29Z</time>
      </trkpt>
      <trkpt lat="45.29246" lon="5.18864">
        <ele>501.64085505761</ele>
        <time>2014-05-31T17:57:34Z</time>
      </trkpt>
      <trkpt lat="45.29246" lon="5.18854">
        <ele>501.64085505761</ele>
        <time>2014-05-31T17:57:39Z</time>
      </trkpt>
      <trkpt lat="45.29245" lon="5.18844">
        <ele>501.52232024659</ele>
        <time>2014-05-31T17:57:44Z</time>
      </trkpt>
      <trkpt lat="45.29245" lon="5.18834">
        <ele>501.52232024659</ele>
        <time>2014-05-31T17:57:49Z</time>
      </trkpt>
      <trkpt lat="45.29245" lon="5.18823">
        <ele>501.77225280123</ele>
        <time>2014-05-31T17:57:54Z</time>
      </trkpt>
      <trkpt lat="45.29244" lon="5.18811">
        <ele>501.77225280123</ele>
        <time>2014-05-31T17:57:59Z</time>
      </trkpt>
      <trkpt lat="45.29243" lon="5.188">
        <ele>502.20397738116</ele>
        <time>2014-05-31T17:58:04Z</time>
      </trkpt>
      <trkpt lat="45.29243" lon="5.1879">
        <ele>502.20397738116</ele>
        <time>2014-05-31T17:58:09Z</time>
      </trkpt>
      <trkpt lat="45.29242" lon="5.1878">
        <ele>502.60078028361</ele>
        <time>2014-05-31T17:58:14Z</time>
      </trkpt>
      <trkpt lat="45.29241" lon="5.18773">
        <ele>502.60078028361</ele>
        <time>2014-05-31T17:58:19Z</time>
      </trkpt>
      <trkpt lat="45.29238" lon="5.18761">
        <ele>502.79078346631</ele>
        <time>2014-05-31T17:58:24Z</time>
      </trkpt>
      <trkpt lat="45.29236" lon="5.18754">
        <ele>502.79078346631</ele>
        <time>2014-05-31T17:58:29Z</time>
      </trkpt>
      <trkpt lat="45.29236" lon="5.18754">
        <ele>502.79078346631</ele>
        <time>2014-05-31T17:58:34Z</time>
      </trkpt>
      <trkpt lat="45.29235" lon="5.18748">
        <ele>503.00441519497</ele>
        <time>2014-05-31T17:58:39Z</time>
      </trkpt>
      <trkpt lat="45.29235" lon="5.1874">
        <ele>503.00441519497</ele>
        <time>2014-05-31T17:58:44Z</time>
      </trkpt>
      <trkpt lat="45.29235" lon="5.18731">
        <ele>503.22453606449</ele>
        <time>2014-05-31T17:58:49Z</time>
      </trkpt>
      <trkpt lat="45.29232" lon="5.18719">
        <ele>503.27673149727</ele>
        <time>2014-05-31T17:58:54Z</time>
      </trkpt>
      <trkpt lat="45.2923" lon="5.18711">
        <ele>503.27673149727</ele>
        <time>2014-05-31T17:58:59Z</time>
      </trkpt>
      <trkpt lat="45.29228" lon="5.18698">
        <ele>503.05752263818</ele>
        <time>2014-05-31T17:59:04Z</time>
      </trkpt>
      <trkpt lat="45.29228" lon="5.1869">
        <ele>503.05752263818</ele>
        <time>2014-05-31T17:59:09Z</time>
      </trkpt>
      <trkpt lat="45.29228" lon="5.18679">
        <ele>503.23559186863</ele>
        <time>2014-05-31T17:59:14Z</time>
      </trkpt>
      <trkpt lat="45.29227" lon="5.18672">
        <ele>503.23559186863</ele>
        <time>2014-05-31T17:59:19Z</time>
      </trkpt>
      <trkpt lat="45.29225" lon="5.18662">
        <ele>503.40620688661</ele>
        <time>2014-05-31T17:59:24Z</time>
      </trkpt>
      <trkpt lat="45.29224" lon="5.18652">
        <ele>503.40620688661</ele>
        <time>2014-05-31T17:59:29Z</time>
      </trkpt>
      <trkpt lat="45.29221" lon="5.18641">
        <ele>503.5402653753</ele>
        <time>2014-05-31T17:59:34Z</time>
      </trkpt>
      <trkpt lat="45.29219" lon="5.18631">
        <ele>503.5402653753</ele>
        <time>2014-05-31T17:59:39Z</time>
      </trkpt>
      <trkpt lat="45.29217" lon="5.18618">
        <ele>503.61091722384</ele>
        <time>2014-05-31T17:59:44Z</time>
      </trkpt>
      <trkpt lat="45.29218" lon="5.18609">
        <ele>503.61091722384</ele>
        <time>2014-05-31T17:59:49Z</time>
      </trkpt>
      <trkpt lat="45.29219" lon="5.18597">
        <ele>503.8528759966</ele>
        <time>2014-05-31T17:59:54Z</time>
      </trkpt>
      <trkpt lat="45.29219" lon="5.18588">
        <ele>503.8528759966</ele>
        <time>2014-05-31T17:59:59Z</time>
      </trkpt>
      <trkpt lat="45.29218" lon="5.18578">
        <ele>503.93552472429</ele>
        <time>2014-05-31T18:00:04Z</time>
      </trkpt>
      <trkpt lat="45.29218" lon="5.18566">
        <ele>503.93552472429</ele>
        <time>2014-05-31T18:00:09Z</time>
      </trkpt>
      <trkpt lat="45.29219" lon="5.18556">
        <ele>504.05738472941</ele>
        <time>2014-05-31T18:00:14Z</time>
      </trkpt>
      <trkpt lat="45.29219" lon="5.18548">
        <ele>504.05738472941</ele>
        <time>2014-05-31T18:00:19Z</time>
      </trkpt>
      <trkpt lat="45.2922" lon="5.18538">
        <ele>504.40230067453</ele>
        <time>2014-05-31T18:00:24Z</time>
      </trkpt>
      <trkpt lat="45.2922" lon="5.18527">
        <ele>504.40230067453</ele>
        <time>2014-05-31T18:00:29Z</time>
      </trkpt>
      <trkpt lat="45.2922" lon="5.18516">
        <ele>504.85178219214</ele>
        <time>2014-05-31T18:00:34Z</time>
      </trkpt>
      <trkpt lat="45.2922" lon="5.18505">
        <ele>504.85178219214</ele>
        <time>2014-05-31T18:00:39Z</time>
      </trkpt>
      <trkpt lat="45.29221" lon="5.18496">
        <ele>504.92108012717</ele>
        <time>2014-05-31T18:00:44Z</time>
      </trkpt>
      <trkpt lat="45.29225" lon="5.18488">
        <ele>504.92108012717</ele>
        <time>2014-05-31T18:00:49Z</time>
      </trkpt>
      <trkpt lat="45.29229" lon="5.18483">
        <ele>505.24297601973</ele>
        <time>2014-05-31T18:00:54Z</time>
      </trkpt>
      <trkpt lat="45.29234" lon="5.18476">
        <ele>505.24297601973</ele>
        <time>2014-05-31T18:00:59Z</time>
      </trkpt>
      <trkpt lat="45.29239" lon="5.1847">
        <ele>505.3222474565</ele>
        <time>2014-05-31T18:01:04Z</time>
      </trkpt>
      <trkpt lat="45.29243" lon="5.18464">
        <ele>505.3222474565</ele>
        <time>2014-05-31T18:01:09Z</time>
      </trkpt>
      <trkpt lat="45.29248" lon="5.18458">
        <ele>505.01779803147</ele>
        <time>2014-05-31T18:01:14Z</time>
      </trkpt>
      <trkpt lat="45.29254" lon="5.18453">
        <ele>505.01779803147</ele>
        <time>2014-05-31T18:01:19Z</time>
      </trkpt>
      <trkpt lat="45.29259" lon="5.18448">
        <ele>504.38733746582</ele>
        <time>2014-05-31T18:01:24Z</time>
      </trkpt>
      <trkpt lat="45.29266" lon="5.18442">
        <ele>504.38733746582</ele>
        <time>2014-05-31T18:01:29Z</time>
      </trkpt>
      <trkpt lat="45.29272" lon="5.18438">
        <ele>504.06171315991</ele>
        <time>2014-05-31T18:01:34Z</time>
      </trkpt>
      <trkpt lat="45.29278" lon="5.18435">
        <ele>504.06171315991</ele>
        <time>2014-05-31T18:01:39Z</time>
      </trkpt>
      <trkpt lat="45.29286" lon="5.1843">
        <ele>503.61581134131</ele>
        <time>2014-05-31T18:01:44Z</time>
      </trkpt>
      <trkpt lat="45.29292" lon="5.18426">
        <ele>503.61581134131</ele>
        <time>2014-05-31T18:01:49Z</time>
      </trkpt>
      <trkpt lat="45.29297" lon="5.18421">
        <ele>503.01637133999</ele>
        <time>2014-05-31T18:01:54Z</time>
      </trkpt>
      <trkpt lat="45.29303" lon="5.18414">
        <ele>503.01637133999</ele>
        <time>2014-05-31T18:01:59Z</time>
      </trkpt>
      <trkpt lat="45.29308" lon="5.18406">
        <ele>502.33388872769</ele>
        <time>2014-05-31T18:02:04Z</time>
      </trkpt>
      <trkpt lat="45.29311" lon="5.18396">
        <ele>502.33388872769</ele>
        <time>2014-05-31T18:02:09Z</time>
      </trkpt>
      <trkpt lat="45.29313" lon="5.18387">
        <ele>501.86449143386</ele>
        <time>2014-05-31T18:02:14Z</time>
      </trkpt>
      <trkpt lat="45.29313" lon="5.18381">
        <ele>501.86449143386</ele>
        <time>2014-05-31T18:02:19Z</time>
      </trkpt>
      <trkpt lat="45.29312" lon="5.18368">
        <ele>501.3919740338</ele>
        <time>2014-05-31T18:02:24Z</time>
      </trkpt>
      <trkpt lat="45.29312" lon="5.1836">
        <ele>501.3919740338</ele>
        <time>2014-05-31T18:02:29Z</time>
      </trkpt>
      <trkpt lat="45.29312" lon="5.18352">
        <ele>501.26363704361</ele>
        <time>2014-05-31T18:02:34Z</time>
      </trkpt>
      <trkpt lat="45.29311" lon="5.18343">
        <ele>501.26363704361</ele>
        <time>2014-05-31T18:02:39Z</time>
      </trkpt>
      <trkpt lat="45.29311" lon="5.18334">
        <ele>501.28149315979</ele>
        <time>2014-05-31T18:02:44Z</time>
      </trkpt>
      <trkpt lat="45.2931" lon="5.18326">
        <ele>501.28149315979</ele>
        <time>2014-05-31T18:02:49Z</time>
      </trkpt>
      <trkpt lat="45.29309" lon="5.18316">
        <ele>501.91018004441</ele>
        <time>2014-05-31T18:02:54Z</time>
      </trkpt>
      <trkpt lat="45.29308" lon="5.18303">
        <ele>502.77146066187</ele>
        <time>2014-05-31T18:02:59Z</time>
      </trkpt>
      <trkpt lat="45.29305" lon="5.18296">
        <ele>502.77146066187</ele>
        <time>2014-05-31T18:03:04Z</time>
      </trkpt>
      <trkpt lat="45.29303" lon="5.18284">
        <ele>503.77362905596</ele>
        <time>2014-05-31T18:03:09Z</time>
      </trkpt>
      <trkpt lat="45.29303" lon="5.18275">
        <ele>503.77362905596</ele>
        <time>2014-05-31T18:03:14Z</time>
      </trkpt>
      <trkpt lat="45.29306" lon="5.18265">
        <ele>503.95224626619</ele>
        <time>2014-05-31T18:03:19Z</time>
      </trkpt>
      <trkpt lat="45.29309" lon="5.18257">
        <ele>503.95224626619</ele>
        <time>2014-05-31T18:03:24Z</time>
      </trkpt>
      <trkpt lat="45.29313" lon="5.18249">
        <ele>503.66980611893</ele>
        <time>2014-05-31T18:03:29Z</time>
      </trkpt>
      <trkpt lat="45.29316" lon="5.18242">
        <ele>503.66980611893</ele>
        <time>2014-05-31T18:03:34Z</time>
      </trkpt>
      <trkpt lat="45.2932" lon="5.18231">
        <ele>503.09054400897</ele>
        <time>2014-05-31T18:03:39Z</time>
      </trkpt>
      <trkpt lat="45.29323" lon="5.18221">
        <ele>503.09054400897</ele>
        <time>2014-05-31T18:03:44Z</time>
      </trkpt>
      <trkpt lat="45.29326" lon="5.18214">
        <ele>501.50280372522</ele>
        <time>2014-05-31T18:03:49Z</time>
      </trkpt>
      <trkpt lat="45.29329" lon="5.18208">
        <ele>501.50280372522</ele>
        <time>2014-05-31T18:03:54Z</time>
      </trkpt>
      <trkpt lat="45.29333" lon="5.18199">
        <ele>500.32523824417</ele>
        <time>2014-05-31T18:03:59Z</time>
      </trkpt>
      <trkpt lat="45.2934" lon="5.18193">
        <ele>500.32523824417</ele>
        <time>2014-05-31T18:04:04Z</time>
      </trkpt>
      <trkpt lat="45.29344" lon="5.18189">
        <ele>499.74706368567</ele>
        <time>2014-05-31T18:04:09Z</time>
      </trkpt>
      <trkpt lat="45.29346" lon="5.18187">
        <ele>499.74706368567</ele>
        <time>2014-05-31T18:04:14Z</time>
      </trkpt>
      <trkpt lat="45.29351" lon="5.18183">
        <ele>499.74706368567</ele>
        <time>2014-05-31T18:04:19Z</time>
      </trkpt>
      <trkpt lat="45.29358" lon="5.18177">
        <ele>499.5528024811</ele>
        <time>2014-05-31T18:04:24Z</time>
      </trkpt>
      <trkpt lat="45.29366" lon="5.18172">
        <ele>499.5528024811</ele>
        <time>2014-05-31T18:04:29Z</time>
      </trkpt>
      <trkpt lat="45.29373" lon="5.18168">
        <ele>499.62817879046</ele>
        <time>2014-05-31T18:04:34Z</time>
      </trkpt>
      <trkpt lat="45.29379" lon="5.18164">
        <ele>499.62817879046</ele>
        <time>2014-05-31T18:04:39Z</time>
      </trkpt>
      <trkpt lat="45.29385" lon="5.18161">
        <ele>499.79448155961</ele>
        <time>2014-05-31T18:04:44Z</time>
      </trkpt>
      <trkpt lat="45.29393" lon="5.18157">
        <ele>499.79448155961</ele>
        <time>2014-05-31T18:04:49Z</time>
      </trkpt>
      <trkpt lat="45.294" lon="5.18155">
        <ele>499.82821148693</ele>
        <time>2014-05-31T18:04:54Z</time>
      </trkpt>
      <trkpt lat="45.29407" lon="5.18152">
        <ele>499.82821148693</ele>
        <time>2014-05-31T18:04:59Z</time>
      </trkpt>
      <trkpt lat="45.29414" lon="5.18148">
        <ele>499.92615613925</ele>
        <time>2014-05-31T18:05:04Z</time>
      </trkpt>
      <trkpt lat="45.29421" lon="5.18143">
        <ele>499.92615613925</ele>
        <time>2014-05-31T18:05:09Z</time>
      </trkpt>
      <trkpt lat="45.29425" lon="5.18139">
        <ele>499.93899929509</ele>
        <time>2014-05-31T18:05:14Z</time>
      </trkpt>
      <trkpt lat="45.2943" lon="5.18134">
        <ele>499.93899929509</ele>
        <time>2014-05-31T18:05:19Z</time>
      </trkpt>
      <trkpt lat="45.29435" lon="5.18129">
        <ele>499.84391092915</ele>
        <time>2014-05-31T18:05:24Z</time>
      </trkpt>
      <trkpt lat="45.29442" lon="5.18121">
        <ele>499.84391092915</ele>
        <time>2014-05-31T18:05:29Z</time>
      </trkpt>
      <trkpt lat="45.29447" lon="5.18116">
        <ele>499.53356507276</ele>
        <time>2014-05-31T18:05:34Z</time>
      </trkpt>
      <trkpt lat="45.29455" lon="5.1811">
        <ele>499.53356507276</ele>
        <time>2014-05-31T18:05:39Z</time>
      </trkpt>
      <trkpt lat="45.29461" lon="5.18108">
        <ele>499.15410388449</ele>
        <time>2014-05-31T18:05:44Z</time>
      </trkpt>
      <trkpt lat="45.29466" lon="5.18107">
        <ele>499.15410388449</ele>
        <time>2014-05-31T18:05:49Z</time>
      </trkpt>
      <trkpt lat="45.2947" lon="5.18105">
        <ele>498.63936263022</ele>
        <time>2014-05-31T18:05:54Z</time>
      </trkpt>
      <trkpt lat="45.29477" lon="5.18103">
        <ele>498.63936263022</ele>
        <time>2014-05-31T18:05:59Z</time>
      </trkpt>
      <trkpt lat="45.29485" lon="5.18097">
        <ele>497.89958262223</ele>
        <time>2014-05-31T18:06:04Z</time>
      </trkpt>
      <trkpt lat="45.29491" lon="5.1809">
        <ele>497.89958262223</ele>
        <time>2014-05-31T18:06:09Z</time>
      </trkpt>
      <trkpt lat="45.29495" lon="5.18083">
        <ele>497.25572704954</ele>
        <time>2014-05-31T18:06:14Z</time>
      </trkpt>
      <trkpt lat="45.29497" lon="5.18072">
        <ele>497.25572704954</ele>
        <time>2014-05-31T18:06:19Z</time>
      </trkpt>
      <trkpt lat="45.29498" lon="5.18061">
        <ele>497.12018462669</ele>
        <time>2014-05-31T18:06:24Z</time>
      </trkpt>
      <trkpt lat="45.29497" lon="5.18047">
        <ele>497.25392840856</ele>
        <time>2014-05-31T18:06:29Z</time>
      </trkpt>
      <trkpt lat="45.29497" lon="5.18038">
        <ele>497.25392840856</ele>
        <time>2014-05-31T18:06:34Z</time>
      </trkpt>
      <trkpt lat="45.29496" lon="5.18026">
        <ele>497.4779506128</ele>
        <time>2014-05-31T18:06:39Z</time>
      </trkpt>
      <trkpt lat="45.29496" lon="5.18019">
        <ele>497.4779506128</ele>
        <time>2014-05-31T18:06:44Z</time>
      </trkpt>
      <trkpt lat="45.29497" lon="5.18009">
        <ele>497.72700247968</ele>
        <time>2014-05-31T18:06:49Z</time>
      </trkpt>
      <trkpt lat="45.29499" lon="5.17996">
        <ele>497.72700247968</ele>
        <time>2014-05-31T18:06:54Z</time>
      </trkpt>
      <trkpt lat="45.29501" lon="5.17986">
        <ele>498.01260199505</ele>
        <time>2014-05-31T18:06:59Z</time>
      </trkpt>
      <trkpt lat="45.29504" lon="5.17979">
        <ele>498.01260199505</ele>
        <time>2014-05-31T18:07:04Z</time>
      </trkpt>
      <trkpt lat="45.29509" lon="5.1797">
        <ele>497.95621000512</ele>
        <time>2014-05-31T18:07:09Z</time>
      </trkpt>
      <trkpt lat="45.29513" lon="5.17965">
        <ele>497.95621000512</ele>
        <time>2014-05-31T18:07:14Z</time>
      </trkpt>
      <trkpt lat="45.29517" lon="5.17957">
        <ele>497.72684850095</ele>
        <time>2014-05-31T18:07:19Z</time>
      </trkpt>
      <trkpt lat="45.29524" lon="5.17948">
        <ele>497.72684850095</ele>
        <time>2014-05-31T18:07:24Z</time>
      </trkpt>
      <trkpt lat="45.29529" lon="5.17942">
        <ele>497.43837092934</ele>
        <time>2014-05-31T18:07:29Z</time>
      </trkpt>
      <trkpt lat="45.29533" lon="5.17936">
        <ele>497.43837092934</ele>
        <time>2014-05-31T18:07:34Z</time>
      </trkpt>
      <trkpt lat="45.29536" lon="5.17931">
        <ele>496.95143983588</ele>
        <time>2014-05-31T18:07:39Z</time>
      </trkpt>
      <trkpt lat="45.29541" lon="5.17925">
        <ele>496.95143983588</ele>
        <time>2014-05-31T18:07:44Z</time>
      </trkpt>
      <trkpt lat="45.29545" lon="5.17918">
        <ele>496.22397110077</ele>
        <time>2014-05-31T18:07:49Z</time>
      </trkpt>
      <trkpt lat="45.29551" lon="5.17909">
        <ele>496.22397110077</ele>
        <time>2014-05-31T18:07:54Z</time>
      </trkpt>
      <trkpt lat="45.29556" lon="5.179">
        <ele>495.43380523509</ele>
        <time>2014-05-31T18:07:59Z</time>
      </trkpt>
      <trkpt lat="45.29562" lon="5.17892">
        <ele>495.43380523509</ele>
        <time>2014-05-31T18:08:04Z</time>
      </trkpt>
      <trkpt lat="45.29565" lon="5.17883">
        <ele>494.80352747893</ele>
        <time>2014-05-31T18:08:09Z</time>
      </trkpt>
      <trkpt lat="45.29568" lon="5.17873">
        <ele>494.80352747893</ele>
        <time>2014-05-31T18:08:14Z</time>
      </trkpt>
      <trkpt lat="45.29572" lon="5.17865">
        <ele>494.09216366414</ele>
        <time>2014-05-31T18:08:19Z</time>
      </trkpt>
      <trkpt lat="45.2958" lon="5.17856">
        <ele>493.94131799151</ele>
        <time>2014-05-31T18:08:24Z</time>
      </trkpt>
      <trkpt lat="45.29586" lon="5.1785">
        <ele>493.94131799151</ele>
        <time>2014-05-31T18:08:29Z</time>
      </trkpt>
      <trkpt lat="45.29591" lon="5.17845">
        <ele>493.48834757883</ele>
        <time>2014-05-31T18:08:34Z</time>
      </trkpt>
      <trkpt lat="45.29596" lon="5.1784">
        <ele>493.48834757883</ele>
        <time>2014-05-31T18:08:39Z</time>
      </trkpt>
      <trkpt lat="45.29602" lon="5.17832">
        <ele>493.37591750356</ele>
        <time>2014-05-31T18:08:44Z</time>
      </trkpt>
      <trkpt lat="45.29602" lon="5.17833">
        <ele>493.37591750356</ele>
        <time>2014-05-31T18:08:49Z</time>
      </trkpt>
      <trkpt lat="45.29602" lon="5.17831">
        <ele>493.37591750356</ele>
        <time>2014-05-31T18:08:54Z</time>
      </trkpt>
      <trkpt lat="45.29601" lon="5.17825">
        <ele>493.37591750356</ele>
        <time>2014-05-31T18:08:59Z</time>
      </trkpt>
      <trkpt lat="45.29598" lon="5.17818">
        <ele>493.69411936347</ele>
        <time>2014-05-31T18:09:04Z</time>
      </trkpt>
      <trkpt lat="45.29593" lon="5.17813">
        <ele>493.69411936347</ele>
        <time>2014-05-31T18:09:09Z</time>
      </trkpt>
      <trkpt lat="45.29589" lon="5.17807">
        <ele>493.96316832889</ele>
        <time>2014-05-31T18:09:14Z</time>
      </trkpt>
      <trkpt lat="45.29587" lon="5.17805">
        <ele>493.96316832889</ele>
        <time>2014-05-31T18:09:19Z</time>
      </trkpt>
      <trkpt lat="45.29587" lon="5.17805">
        <ele>493.96316832889</ele>
        <time>2014-05-31T18:09:24Z</time>
      </trkpt>
      <trkpt lat="45.29581" lon="5.17797">
        <ele>494.45920512029</ele>
        <time>2014-05-31T18:09:29Z</time>
      </trkpt>
      <trkpt lat="45.29576" lon="5.1779">
        <ele>494.45920512029</ele>
        <time>2014-05-31T18:09:34Z</time>
      </trkpt>
      <trkpt lat="45.29572" lon="5.17786">
        <ele>495.09157424898</ele>
        <time>2014-05-31T18:09:39Z</time>
      </trkpt>
      <trkpt lat="45.29568" lon="5.1778">
        <ele>495.09157424898</ele>
        <time>2014-05-31T18:09:44Z</time>
      </trkpt>
      <trkpt lat="45.29565" lon="5.17773">
        <ele>495.83354054847</ele>
        <time>2014-05-31T18:09:49Z</time>
      </trkpt>
      <trkpt lat="45.29562" lon="5.17764">
        <ele>495.83354054847</ele>
        <time>2014-05-31T18:09:54Z</time>
      </trkpt>
      <trkpt lat="45.29558" lon="5.17754">
        <ele>496.64561981489</ele>
        <time>2014-05-31T18:09:59Z</time>
      </trkpt>
      <trkpt lat="45.29555" lon="5.17746">
        <ele>496.64561981489</ele>
        <time>2014-05-31T18:10:04Z</time>
      </trkpt>
      <trkpt lat="45.29553" lon="5.17737">
        <ele>497.37575528881</ele>
        <time>2014-05-31T18:10:09Z</time>
      </trkpt>
      <trkpt lat="45.2955" lon="5.17729">
        <ele>497.37575528881</ele>
        <time>2014-05-31T18:10:14Z</time>
      </trkpt>
      <trkpt lat="45.29548" lon="5.17725">
        <ele>498.11388740973</ele>
        <time>2014-05-31T18:10:19Z</time>
      </trkpt>
      <trkpt lat="45.29545" lon="5.1772">
        <ele>498.11388740973</ele>
        <time>2014-05-31T18:10:24Z</time>
      </trkpt>
      <trkpt lat="45.2954" lon="5.17716">
        <ele>498.8424752596</ele>
        <time>2014-05-31T18:10:29Z</time>
      </trkpt>
      <trkpt lat="45.29537" lon="5.17709">
        <ele>498.8424752596</ele>
        <time>2014-05-31T18:10:34Z</time>
      </trkpt>
      <trkpt lat="45.29533" lon="5.17699">
        <ele>499.48768026918</ele>
        <time>2014-05-31T18:10:39Z</time>
      </trkpt>
      <trkpt lat="45.29529" lon="5.17692">
        <ele>499.48768026918</ele>
        <time>2014-05-31T18:10:44Z</time>
      </trkpt>
      <trkpt lat="45.29526" lon="5.17683">
        <ele>500.09664716619</ele>
        <time>2014-05-31T18:10:49Z</time>
      </trkpt>
      <trkpt lat="45.29523" lon="5.17674">
        <ele>500.09664716619</ele>
        <time>2014-05-31T18:10:54Z</time>
      </trkpt>
      <trkpt lat="45.2952" lon="5.17666">
        <ele>500.36733214901</ele>
        <time>2014-05-31T18:10:59Z</time>
      </trkpt>
      <trkpt lat="45.29517" lon="5.17656">
        <ele>500.36733214901</ele>
        <time>2014-05-31T18:11:04Z</time>
      </trkpt>
      <trkpt lat="45.29516" lon="5.17653">
        <ele>500.33791466342</ele>
        <time>2014-05-31T18:11:09Z</time>
      </trkpt>
      <trkpt lat="45.29515" lon="5.17651">
        <ele>500.33791466342</ele>
        <time>2014-05-31T18:11:14Z</time>
      </trkpt>
      <trkpt lat="45.29511" lon="5.17643">
        <ele>500.33791466342</ele>
        <time>2014-05-31T18:11:19Z</time>
      </trkpt>
      <trkpt lat="45.29509" lon="5.17636">
        <ele>500.33287585644</ele>
        <time>2014-05-31T18:11:24Z</time>
      </trkpt>
      <trkpt lat="45.29506" lon="5.17629">
        <ele>500.33287585644</ele>
        <time>2014-05-31T18:11:29Z</time>
      </trkpt>
      <trkpt lat="45.295" lon="5.17622">
        <ele>500.11962167113</ele>
        <time>2014-05-31T18:11:34Z</time>
      </trkpt>
      <trkpt lat="45.29493" lon="5.17614">
        <ele>500.11962167113</ele>
        <time>2014-05-31T18:11:39Z</time>
      </trkpt>
      <trkpt lat="45.29489" lon="5.1761">
        <ele>499.7714884364</ele>
        <time>2014-05-31T18:11:44Z</time>
      </trkpt>
      <trkpt lat="45.29484" lon="5.17605">
        <ele>499.7714884364</ele>
        <time>2014-05-31T18:11:49Z</time>
      </trkpt>
      <trkpt lat="45.29433" lon="5.1754">
        <ele>503.89634703282</ele>
        <time>2014-05-31T18:12:24Z</time>
      </trkpt>
      <trkpt lat="45.29433" lon="5.17534">
        <ele>503.89634703282</ele>
        <time>2014-05-31T18:12:29Z</time>
      </trkpt>
      <trkpt lat="45.29432" lon="5.17529">
        <ele>503.89634703282</ele>
        <time>2014-05-31T18:12:34Z</time>
      </trkpt>
      <trkpt lat="45.29428" lon="5.17523">
        <ele>505.1933588611</ele>
        <time>2014-05-31T18:12:39Z</time>
      </trkpt>
      <trkpt lat="45.29424" lon="5.17518">
        <ele>505.1933588611</ele>
        <time>2014-05-31T18:12:44Z</time>
      </trkpt>
      <trkpt lat="45.2942" lon="5.17516">
        <ele>505.04826596558</ele>
        <time>2014-05-31T18:12:49Z</time>
      </trkpt>
      <trkpt lat="45.29415" lon="5.17509">
        <ele>505.04826596558</ele>
        <time>2014-05-31T18:12:54Z</time>
      </trkpt>
      <trkpt lat="45.29411" lon="5.17506">
        <ele>504.41766131237</ele>
        <time>2014-05-31T18:12:59Z</time>
      </trkpt>
      <trkpt lat="45.29404" lon="5.175">
        <ele>504.41766131237</ele>
        <time>2014-05-31T18:13:04Z</time>
      </trkpt>
      <trkpt lat="45.294" lon="5.1749">
        <ele>503.22374182028</ele>
        <time>2014-05-31T18:13:09Z</time>
      </trkpt>
      <trkpt lat="45.29394" lon="5.17479">
        <ele>503.22374182028</ele>
        <time>2014-05-31T18:13:14Z</time>
      </trkpt>
      <trkpt lat="45.29392" lon="5.17471">
        <ele>502.04454979343</ele>
        <time>2014-05-31T18:13:19Z</time>
      </trkpt>
      <trkpt lat="45.29389" lon="5.1746">
        <ele>502.04454979343</ele>
        <time>2014-05-31T18:13:24Z</time>
      </trkpt>
      <trkpt lat="45.29387" lon="5.1745">
        <ele>500.95450587561</ele>
        <time>2014-05-31T18:13:29Z</time>
      </trkpt>
      <trkpt lat="45.29385" lon="5.1744">
        <ele>500.95450587561</ele>
        <time>2014-05-31T18:13:34Z</time>
      </trkpt>
      <trkpt lat="45.29384" lon="5.1743">
        <ele>499.96469512918</ele>
        <time>2014-05-31T18:13:39Z</time>
      </trkpt>
      <trkpt lat="45.29384" lon="5.1742">
        <ele>499.96469512918</ele>
        <time>2014-05-31T18:13:44Z</time>
      </trkpt>
      <trkpt lat="45.2938" lon="5.17411">
        <ele>498.62396492118</ele>
        <time>2014-05-31T18:13:49Z</time>
      </trkpt>
      <trkpt lat="45.29376" lon="5.17403">
        <ele>498.62396492118</ele>
        <time>2014-05-31T18:13:54Z</time>
      </trkpt>
      <trkpt lat="45.2937" lon="5.17395">
        <ele>496.68822283531</ele>
        <time>2014-05-31T18:13:59Z</time>
      </trkpt>
      <trkpt lat="45.29368" lon="5.17385">
        <ele>496.68822283531</ele>
        <time>2014-05-31T18:14:04Z</time>
      </trkpt>
      <trkpt lat="45.29367" lon="5.17377">
        <ele>494.66793151194</ele>
        <time>2014-05-31T18:14:09Z</time>
      </trkpt>
      <trkpt lat="45.29365" lon="5.17368">
        <ele>494.66793151194</ele>
        <time>2014-05-31T18:14:14Z</time>
      </trkpt>
      <trkpt lat="45.29364" lon="5.17355">
        <ele>493.10832309706</ele>
        <time>2014-05-31T18:14:19Z</time>
      </trkpt>
      <trkpt lat="45.29363" lon="5.17345">
        <ele>493.10832309706</ele>
        <time>2014-05-31T18:14:24Z</time>
      </trkpt>
      <trkpt lat="45.2936" lon="5.17333">
        <ele>491.33153486505</ele>
        <time>2014-05-31T18:14:29Z</time>
      </trkpt>
      <trkpt lat="45.2936" lon="5.17322">
        <ele>491.33153486505</ele>
        <time>2014-05-31T18:14:34Z</time>
      </trkpt>
      <trkpt lat="45.29361" lon="5.17311">
        <ele>489.47384654601</ele>
        <time>2014-05-31T18:14:39Z</time>
      </trkpt>
      <trkpt lat="45.29363" lon="5.17302">
        <ele>489.47384654601</ele>
        <time>2014-05-31T18:14:44Z</time>
      </trkpt>
      <trkpt lat="45.29363" lon="5.17292">
        <ele>486.92672279237</ele>
        <time>2014-05-31T18:14:49Z</time>
      </trkpt>
      <trkpt lat="45.29371" lon="5.17286">
        <ele>486.92672279237</ele>
        <time>2014-05-31T18:14:54Z</time>
      </trkpt>
      <trkpt lat="45.29377" lon="5.17277">
        <ele>485.93835897508</ele>
        <time>2014-05-31T18:14:59Z</time>
      </trkpt>
      <trkpt lat="45.29378" lon="5.17264">
        <ele>484.62428666125</ele>
        <time>2014-05-31T18:15:04Z</time>
      </trkpt>
      <trkpt lat="45.29379" lon="5.17252">
        <ele>484.62428666125</ele>
        <time>2014-05-31T18:15:09Z</time>
      </trkpt>
      <trkpt lat="45.2938" lon="5.17241">
        <ele>483.17038276805</ele>
        <time>2014-05-31T18:15:14Z</time>
      </trkpt>
      <trkpt lat="45.2938" lon="5.17232">
        <ele>483.17038276805</ele>
        <time>2014-05-31T18:15:19Z</time>
      </trkpt>
      <trkpt lat="45.29381" lon="5.17222">
        <ele>482.23914604113</ele>
        <time>2014-05-31T18:15:24Z</time>
      </trkpt>
      <trkpt lat="45.2938" lon="5.17212">
        <ele>482.23914604113</ele>
        <time>2014-05-31T18:15:29Z</time>
      </trkpt>
      <trkpt lat="45.29381" lon="5.17201">
        <ele>481.96728093316</ele>
        <time>2014-05-31T18:15:34Z</time>
      </trkpt>
      <trkpt lat="45.29382" lon="5.17193">
        <ele>481.96728093316</ele>
        <time>2014-05-31T18:15:39Z</time>
      </trkpt>
      <trkpt lat="45.29384" lon="5.17181">
        <ele>482.00394029982</ele>
        <time>2014-05-31T18:15:44Z</time>
      </trkpt>
      <trkpt lat="45.29384" lon="5.1717">
        <ele>482.00394029982</ele>
        <time>2014-05-31T18:15:49Z</time>
      </trkpt>
      <trkpt lat="45.29384" lon="5.17161">
        <ele>482.16720754906</ele>
        <time>2014-05-31T18:15:54Z</time>
      </trkpt>
      <trkpt lat="45.29383" lon="5.17151">
        <ele>482.16720754906</ele>
        <time>2014-05-31T18:15:59Z</time>
      </trkpt>
      <trkpt lat="45.29383" lon="5.17141">
        <ele>482.17280444883</ele>
        <time>2014-05-31T18:16:04Z</time>
      </trkpt>
      <trkpt lat="45.29383" lon="5.17131">
        <ele>482.17280444883</ele>
        <time>2014-05-31T18:16:09Z</time>
      </trkpt>
      <trkpt lat="45.29382" lon="5.17122">
        <ele>482.0315163104</ele>
        <time>2014-05-31T18:16:14Z</time>
      </trkpt>
      <trkpt lat="45.2938" lon="5.17114">
        <ele>482.0315163104</ele>
        <time>2014-05-31T18:16:19Z</time>
      </trkpt>
      <trkpt lat="45.29382" lon="5.17104">
        <ele>481.62398268352</ele>
        <time>2014-05-31T18:16:24Z</time>
      </trkpt>
      <trkpt lat="45.29384" lon="5.17097">
        <ele>481.62398268352</ele>
        <time>2014-05-31T18:16:29Z</time>
      </trkpt>
      <trkpt lat="45.29389" lon="5.1709">
        <ele>481.41674393615</ele>
        <time>2014-05-31T18:16:34Z</time>
      </trkpt>
      <trkpt lat="45.29388" lon="5.17083">
        <ele>481.41674393615</ele>
        <time>2014-05-31T18:16:39Z</time>
      </trkpt>
      <trkpt lat="45.29388" lon="5.17074">
        <ele>481.03443051941</ele>
        <time>2014-05-31T18:16:44Z</time>
      </trkpt>
      <trkpt lat="45.29391" lon="5.17064">
        <ele>481.03443051941</ele>
        <time>2014-05-31T18:16:49Z</time>
      </trkpt>
      <trkpt lat="45.2939" lon="5.17053">
        <ele>480.1873327798</ele>
        <time>2014-05-31T18:16:54Z</time>
      </trkpt>
      <trkpt lat="45.29393" lon="5.17048">
        <ele>480.1873327798</ele>
        <time>2014-05-31T18:16:59Z</time>
      </trkpt>
      <trkpt lat="45.29397" lon="5.1704">
        <ele>479.19913474097</ele>
        <time>2014-05-31T18:17:04Z</time>
      </trkpt>
      <trkpt lat="45.29403" lon="5.1703">
        <ele>479.22034940994</ele>
        <time>2014-05-31T18:17:09Z</time>
      </trkpt>
      <trkpt lat="45.29407" lon="5.17019">
        <ele>479.22034940994</ele>
        <time>2014-05-31T18:17:14Z</time>
      </trkpt>
      <trkpt lat="45.2941" lon="5.17005">
        <ele>479.16684308346</ele>
        <time>2014-05-31T18:17:19Z</time>
      </trkpt>
      <trkpt lat="45.29411" lon="5.16994">
        <ele>479.16684308346</ele>
        <time>2014-05-31T18:17:24Z</time>
      </trkpt>
      <trkpt lat="45.29413" lon="5.16985">
        <ele>479.08630381971</ele>
        <time>2014-05-31T18:17:29Z</time>
      </trkpt>
      <trkpt lat="45.29415" lon="5.16975">
        <ele>479.08630381971</ele>
        <time>2014-05-31T18:17:34Z</time>
      </trkpt>
      <trkpt lat="45.29418" lon="5.16966">
        <ele>478.89325785144</ele>
        <time>2014-05-31T18:17:39Z</time>
      </trkpt>
      <trkpt lat="45.29418" lon="5.16964">
        <ele>478.89325785144</ele>
        <time>2014-05-31T18:17:44Z</time>
      </trkpt>
      <trkpt lat="45.29421" lon="5.16957">
        <ele>478.89325785144</ele>
        <time>2014-05-31T18:17:49Z</time>
      </trkpt>
      <trkpt lat="45.29422" lon="5.16954">
        <ele>480.10843328016</ele>
        <time>2014-05-31T18:17:54Z</time>
      </trkpt>
      <trkpt lat="45.29421" lon="5.16944">
        <ele>480.10843328016</ele>
        <time>2014-05-31T18:17:59Z</time>
      </trkpt>
      <trkpt lat="45.29421" lon="5.16933">
        <ele>480.9376097299</ele>
        <time>2014-05-31T18:18:04Z</time>
      </trkpt>
      <trkpt lat="45.29422" lon="5.16924">
        <ele>480.9376097299</ele>
        <time>2014-05-31T18:18:09Z</time>
      </trkpt>
      <trkpt lat="45.29422" lon="5.16913">
        <ele>481.57847722856</ele>
        <time>2014-05-31T18:18:14Z</time>
      </trkpt>
      <trkpt lat="45.2942" lon="5.16904">
        <ele>481.57847722856</ele>
        <time>2014-05-31T18:18:19Z</time>
      </trkpt>
      <trkpt lat="45.29417" lon="5.16894">
        <ele>482.40207821445</ele>
        <time>2014-05-31T18:18:24Z</time>
      </trkpt>
      <trkpt lat="45.2942" lon="5.16887">
        <ele>482.40207821445</ele>
        <time>2014-05-31T18:18:29Z</time>
      </trkpt>
      <trkpt lat="45.2942" lon="5.16879">
        <ele>482.022362545</ele>
        <time>2014-05-31T18:18:34Z</time>
      </trkpt>
      <trkpt lat="45.29418" lon="5.16871">
        <ele>482.022362545</ele>
        <time>2014-05-31T18:18:39Z</time>
      </trkpt>
      <trkpt lat="45.29423" lon="5.16865">
        <ele>481.69484731771</ele>
        <time>2014-05-31T18:18:44Z</time>
      </trkpt>
      <trkpt lat="45.29426" lon="5.16857">
        <ele>481.69484731771</ele>
        <time>2014-05-31T18:18:49Z</time>
      </trkpt>
      <trkpt lat="45.29427" lon="5.16846">
        <ele>481.55950453675</ele>
        <time>2014-05-31T18:18:54Z</time>
      </trkpt>
      <trkpt lat="45.29426" lon="5.16836">
        <ele>481.55950453675</ele>
        <time>2014-05-31T18:18:59Z</time>
      </trkpt>
      <trkpt lat="45.29424" lon="5.16827">
        <ele>480.66467138474</ele>
        <time>2014-05-31T18:19:04Z</time>
      </trkpt>
      <trkpt lat="45.29422" lon="5.16819">
        <ele>480.66467138474</ele>
        <time>2014-05-31T18:19:09Z</time>
      </trkpt>
      <trkpt lat="45.29423" lon="5.16815">
        <ele>480.66467138474</ele>
        <time>2014-05-31T18:19:14Z</time>
      </trkpt>
      <trkpt lat="45.29423" lon="5.16808">
        <ele>478.99540806136</ele>
        <time>2014-05-31T18:19:19Z</time>
      </trkpt>
      <trkpt lat="45.29425" lon="5.16802">
        <ele>478.99540806136</ele>
        <time>2014-05-31T18:19:24Z</time>
      </trkpt>
      <trkpt lat="45.29426" lon="5.168">
        <ele>478.99540806136</ele>
        <time>2014-05-31T18:19:29Z</time>
      </trkpt>
      <trkpt lat="45.29427" lon="5.16795">
        <ele>478.91789319639</ele>
        <time>2014-05-31T18:19:34Z</time>
      </trkpt>
      <trkpt lat="45.29429" lon="5.16792">
        <ele>478.91789319639</ele>
        <time>2014-05-31T18:19:39Z</time>
      </trkpt>
      <trkpt lat="45.2943" lon="5.16791">
        <ele>478.91789319639</ele>
        <time>2014-05-31T18:19:44Z</time>
      </trkpt>
      <trkpt lat="45.2943" lon="5.16789">
        <ele>478.91789319639</ele>
        <time>2014-05-31T18:19:49Z</time>
      </trkpt>
      <trkpt lat="45.2943" lon="5.16788">
        <ele>478.91789319639</ele>
        <time>2014-05-31T18:19:54Z</time>
      </trkpt>
      <trkpt lat="45.2943" lon="5.16787">
        <ele>478.91789319639</ele>
        <time>2014-05-31T18:19:59Z</time>
      </trkpt>
      <trkpt lat="45.29431" lon="5.1679">
        <ele>478.91789319639</ele>
        <time>2014-05-31T18:20:04Z</time>
      </trkpt>
      <trkpt lat="45.29429" lon="5.16793">
        <ele>479.06048760573</ele>
        <time>2014-05-31T18:20:09Z</time>
      </trkpt>
      <trkpt lat="45.29428" lon="5.16797">
        <ele>479.06048760573</ele>
        <time>2014-05-31T18:20:14Z</time>
      </trkpt>
      <trkpt lat="45.2943" lon="5.16804">
        <ele>479.06048760573</ele>
        <time>2014-05-31T18:20:19Z</time>
      </trkpt>
      <trkpt lat="45.2943" lon="5.16809">
        <ele>478.95872634213</ele>
        <time>2014-05-31T18:20:24Z</time>
      </trkpt>
      <trkpt lat="45.29431" lon="5.16819">
        <ele>478.95872634213</ele>
        <time>2014-05-31T18:20:29Z</time>
      </trkpt>
      <trkpt lat="45.29431" lon="5.16825">
        <ele>478.87469259523</ele>
        <time>2014-05-31T18:20:34Z</time>
      </trkpt>
      <trkpt lat="45.2943" lon="5.16832">
        <ele>478.87469259523</ele>
        <time>2014-05-31T18:20:39Z</time>
      </trkpt>
      <trkpt lat="45.29429" lon="5.1684">
        <ele>478.8638351068</ele>
        <time>2014-05-31T18:20:44Z</time>
      </trkpt>
      <trkpt lat="45.29427" lon="5.1685">
        <ele>478.8638351068</ele>
        <time>2014-05-31T18:20:49Z</time>
      </trkpt>
      <trkpt lat="45.29425" lon="5.16861">
        <ele>479.29438398164</ele>
        <time>2014-05-31T18:20:54Z</time>
      </trkpt>
      <trkpt lat="45.29422" lon="5.16873">
        <ele>479.29438398164</ele>
        <time>2014-05-31T18:20:59Z</time>
      </trkpt>
      <trkpt lat="45.29416" lon="5.16876">
        <ele>480.16043355124</ele>
        <time>2014-05-31T18:21:04Z</time>
      </trkpt>
      <trkpt lat="45.29415" lon="5.16877">
        <ele>480.16043355124</ele>
        <time>2014-05-31T18:21:09Z</time>
      </trkpt>
      <trkpt lat="45.29411" lon="5.1687">
        <ele>480.16043355124</ele>
        <time>2014-05-31T18:21:14Z</time>
      </trkpt>
      <trkpt lat="45.29408" lon="5.16861">
        <ele>481.00857014817</ele>
        <time>2014-05-31T18:21:19Z</time>
      </trkpt>
      <trkpt lat="45.29407" lon="5.16853">
        <ele>481.00857014817</ele>
        <time>2014-05-31T18:21:24Z</time>
      </trkpt>
      <trkpt lat="45.29406" lon="5.16846">
        <ele>481.93756930392</ele>
        <time>2014-05-31T18:21:29Z</time>
      </trkpt>
      <trkpt lat="45.29404" lon="5.16837">
        <ele>481.93756930392</ele>
        <time>2014-05-31T18:21:34Z</time>
      </trkpt>
      <trkpt lat="45.29402" lon="5.16829">
        <ele>482.49113955439</ele>
        <time>2014-05-31T18:21:39Z</time>
      </trkpt>
      <trkpt lat="45.294" lon="5.16823">
        <ele>482.49113955439</ele>
        <time>2014-05-31T18:21:44Z</time>
      </trkpt>
      <trkpt lat="45.29398" lon="5.16818">
        <ele>482.49113955439</ele>
        <time>2014-05-31T18:21:49Z</time>
      </trkpt>
      <trkpt lat="45.29393" lon="5.16808">
        <ele>482.75199496687</ele>
        <time>2014-05-31T18:21:54Z</time>
      </trkpt>
      <trkpt lat="45.2939" lon="5.16798">
        <ele>482.75199496687</ele>
        <time>2014-05-31T18:21:59Z</time>
      </trkpt>
      <trkpt lat="45.29392" lon="5.16792">
        <ele>483.25879960863</ele>
        <time>2014-05-31T18:22:04Z</time>
      </trkpt>
      <trkpt lat="45.29391" lon="5.16792">
        <ele>483.25879960863</ele>
        <time>2014-05-31T18:22:09Z</time>
      </trkpt>
      <trkpt lat="45.29392" lon="5.1679">
        <ele>483.25879960863</ele>
        <time>2014-05-31T18:22:14Z</time>
      </trkpt>
      <trkpt lat="45.29392" lon="5.16788">
        <ele>483.25879960863</ele>
        <time>2014-05-31T18:22:19Z</time>
      </trkpt>
      <trkpt lat="45.29395" lon="5.16782">
        <ele>483.25879960863</ele>
        <time>2014-05-31T18:22:24Z</time>
      </trkpt>
      <trkpt lat="45.29397" lon="5.16779">
        <ele>483.38594257765</ele>
        <time>2014-05-31T18:22:29Z</time>
      </trkpt>
      <trkpt lat="45.294" lon="5.16779">
        <ele>483.38594257765</ele>
        <time>2014-05-31T18:22:34Z</time>
      </trkpt>
      <trkpt lat="45.29405" lon="5.16776">
        <ele>483.38594257765</ele>
        <time>2014-05-31T18:22:39Z</time>
      </trkpt>
      <trkpt lat="45.29409" lon="5.16772">
        <ele>481.48846225261</ele>
        <time>2014-05-31T18:22:44Z</time>
      </trkpt>
      <trkpt lat="45.29412" lon="5.16768">
        <ele>481.48846225261</ele>
        <time>2014-05-31T18:22:49Z</time>
      </trkpt>
      <trkpt lat="45.29412" lon="5.16768">
        <ele>481.48846225261</ele>
        <time>2014-05-31T18:22:54Z</time>
      </trkpt>
      <trkpt lat="45.29413" lon="5.1677">
        <ele>481.48846225261</ele>
        <time>2014-05-31T18:22:59Z</time>
      </trkpt>
      <trkpt lat="45.29411" lon="5.16771">
        <ele>481.48846225261</ele>
        <time>2014-05-31T18:23:04Z</time>
      </trkpt>
      <trkpt lat="45.29409" lon="5.16772">
        <ele>480.47217319371</ele>
        <time>2014-05-31T18:23:09Z</time>
      </trkpt>
      <trkpt lat="45.29405" lon="5.16775">
        <ele>480.47217319371</ele>
        <time>2014-05-31T18:23:14Z</time>
      </trkpt>
      <trkpt lat="45.29401" lon="5.16778">
        <ele>480.4618200197</ele>
        <time>2014-05-31T18:23:19Z</time>
      </trkpt>
      <trkpt lat="45.29394" lon="5.16781">
        <ele>480.4618200197</ele>
        <time>2014-05-31T18:23:24Z</time>
      </trkpt>
      <trkpt lat="45.2939" lon="5.16778">
        <ele>480.77758451493</ele>
        <time>2014-05-31T18:23:29Z</time>
      </trkpt>
      <trkpt lat="45.29387" lon="5.16772">
        <ele>480.77758451493</ele>
        <time>2014-05-31T18:23:34Z</time>
      </trkpt>
      <trkpt lat="45.29384" lon="5.16766">
        <ele>481.30750323351</ele>
        <time>2014-05-31T18:23:39Z</time>
      </trkpt>
      <trkpt lat="45.2938" lon="5.16759">
        <ele>481.30750323351</ele>
        <time>2014-05-31T18:23:44Z</time>
      </trkpt>
      <trkpt lat="45.29378" lon="5.16752">
        <ele>482.10579040746</ele>
        <time>2014-05-31T18:23:49Z</time>
      </trkpt>
      <trkpt lat="45.29374" lon="5.16743">
        <ele>482.10579040746</ele>
        <time>2014-05-31T18:23:54Z</time>
      </trkpt>
      <trkpt lat="45.29372" lon="5.16734">
        <ele>483.7407615728</ele>
        <time>2014-05-31T18:23:59Z</time>
      </trkpt>
      <trkpt lat="45.29371" lon="5.16725">
        <ele>483.7407615728</ele>
        <time>2014-05-31T18:24:04Z</time>
      </trkpt>
      <trkpt lat="45.29367" lon="5.16718">
        <ele>485.03616829807</ele>
        <time>2014-05-31T18:24:09Z</time>
      </trkpt>
      <trkpt lat="45.29366" lon="5.16715">
        <ele>485.03616829807</ele>
        <time>2014-05-31T18:24:15Z</time>
      </trkpt>
      <trkpt lat="45.29364" lon="5.16706">
        <ele>485.03616829807</ele>
        <time>2014-05-31T18:24:19Z</time>
      </trkpt>
      <trkpt lat="45.29362" lon="5.16695">
        <ele>485.91194977822</ele>
        <time>2014-05-31T18:24:24Z</time>
      </trkpt>
      <trkpt lat="45.29357" lon="5.16687">
        <ele>485.91194977822</ele>
        <time>2014-05-31T18:24:29Z</time>
      </trkpt>
      <trkpt lat="45.29356" lon="5.16678">
        <ele>486.43927188347</ele>
        <time>2014-05-31T18:24:34Z</time>
      </trkpt>
      <trkpt lat="45.29356" lon="5.16669">
        <ele>486.43927188347</ele>
        <time>2014-05-31T18:24:39Z</time>
      </trkpt>
      <trkpt lat="45.29357" lon="5.16661">
        <ele>487.0742128591</ele>
        <time>2014-05-31T18:24:44Z</time>
      </trkpt>
      <trkpt lat="45.29356" lon="5.16654">
        <ele>487.0742128591</ele>
        <time>2014-05-31T18:24:49Z</time>
      </trkpt>
      <trkpt lat="45.29354" lon="5.16646">
        <ele>487.12945422591</ele>
        <time>2014-05-31T18:24:54Z</time>
      </trkpt>
      <trkpt lat="45.29352" lon="5.16637">
        <ele>487.12945422591</ele>
        <time>2014-05-31T18:24:59Z</time>
      </trkpt>
      <trkpt lat="45.29352" lon="5.16628">
        <ele>486.96422455244</ele>
        <time>2014-05-31T18:25:04Z</time>
      </trkpt>
      <trkpt lat="45.2935" lon="5.16618">
        <ele>486.96422455244</ele>
        <time>2014-05-31T18:25:09Z</time>
      </trkpt>
      <trkpt lat="45.2935" lon="5.16615">
        <ele>487.18585528953</ele>
        <time>2014-05-31T18:25:14Z</time>
      </trkpt>
      <trkpt lat="45.29348" lon="5.16611">
        <ele>487.18585528953</ele>
        <time>2014-05-31T18:25:19Z</time>
      </trkpt>
      <trkpt lat="45.29345" lon="5.166">
        <ele>487.30402577349</ele>
        <time>2014-05-31T18:25:24Z</time>
      </trkpt>
      <trkpt lat="45.29342" lon="5.1659">
        <ele>487.30402577349</ele>
        <time>2014-05-31T18:25:29Z</time>
      </trkpt>
      <trkpt lat="45.29338" lon="5.16584">
        <ele>487.64298025163</ele>
        <time>2014-05-31T18:25:34Z</time>
      </trkpt>
      <trkpt lat="45.29339" lon="5.16576">
        <ele>487.64298025163</ele>
        <time>2014-05-31T18:25:39Z</time>
      </trkpt>
      <trkpt lat="45.29336" lon="5.16569">
        <ele>487.34968755673</ele>
        <time>2014-05-31T18:25:44Z</time>
      </trkpt>
      <trkpt lat="45.29332" lon="5.16544">
        <ele>487.20641378965</ele>
        <time>2014-05-31T18:25:49Z</time>
      </trkpt>
      <trkpt lat="45.29329" lon="5.16532">
        <ele>487.38996225472</ele>
        <time>2014-05-31T18:25:54Z</time>
      </trkpt>
      <trkpt lat="45.29327" lon="5.16521">
        <ele>487.38996225472</ele>
        <time>2014-05-31T18:25:59Z</time>
      </trkpt>
      <trkpt lat="45.2933" lon="5.16512">
        <ele>486.91038282233</ele>
        <time>2014-05-31T18:26:04Z</time>
      </trkpt>
      <trkpt lat="45.29331" lon="5.16506">
        <ele>486.91038282233</ele>
        <time>2014-05-31T18:26:09Z</time>
      </trkpt>
      <trkpt lat="45.29328" lon="5.16498">
        <ele>486.61049869272</ele>
        <time>2014-05-31T18:26:14Z</time>
      </trkpt>
      <trkpt lat="45.29327" lon="5.1649">
        <ele>486.61049869272</ele>
        <time>2014-05-31T18:26:19Z</time>
      </trkpt>
      <trkpt lat="45.29326" lon="5.16477">
        <ele>486.83841383981</ele>
        <time>2014-05-31T18:26:24Z</time>
      </trkpt>
      <trkpt lat="45.29324" lon="5.1647">
        <ele>486.83841383981</ele>
        <time>2014-05-31T18:26:29Z</time>
      </trkpt>
      <trkpt lat="45.29322" lon="5.16463">
        <ele>485.98411665051</ele>
        <time>2014-05-31T18:26:34Z</time>
      </trkpt>
      <trkpt lat="45.29322" lon="5.16455">
        <ele>485.98411665051</ele>
        <time>2014-05-31T18:26:39Z</time>
      </trkpt>
      <trkpt lat="45.29324" lon="5.16445">
        <ele>485.74377993247</ele>
        <time>2014-05-31T18:26:44Z</time>
      </trkpt>
      <trkpt lat="45.29325" lon="5.16434">
        <ele>485.74377993247</ele>
        <time>2014-05-31T18:26:49Z</time>
      </trkpt>
      <trkpt lat="45.29329" lon="5.16427">
        <ele>484.68975705513</ele>
        <time>2014-05-31T18:26:54Z</time>
      </trkpt>
      <trkpt lat="45.29334" lon="5.1643">
        <ele>484.68975705513</ele>
        <time>2014-05-31T18:26:59Z</time>
      </trkpt>
      <trkpt lat="45.29335" lon="5.16433">
        <ele>484.68975705513</ele>
        <time>2014-05-31T18:27:04Z</time>
      </trkpt>
      <trkpt lat="45.29335" lon="5.16435">
        <ele>484.68975705513</ele>
        <time>2014-05-31T18:27:09Z</time>
      </trkpt>
      <trkpt lat="45.29336" lon="5.1644">
        <ele>484.47025757471</ele>
        <time>2014-05-31T18:27:14Z</time>
      </trkpt>
      <trkpt lat="45.29341" lon="5.16448">
        <ele>484.47025757471</ele>
        <time>2014-05-31T18:27:26Z</time>
      </trkpt>
      <trkpt lat="45.29345" lon="5.16452">
        <ele>483.59815240606</ele>
        <time>2014-05-31T18:27:29Z</time>
      </trkpt>
      <trkpt lat="45.2935" lon="5.16457">
        <ele>483.59815240606</ele>
        <time>2014-05-31T18:27:34Z</time>
      </trkpt>
      <trkpt lat="45.29355" lon="5.16461">
        <ele>481.95114844563</ele>
        <time>2014-05-31T18:27:39Z</time>
      </trkpt>
      <trkpt lat="45.29361" lon="5.16466">
        <ele>481.95114844563</ele>
        <time>2014-05-31T18:27:44Z</time>
      </trkpt>
      <trkpt lat="45.29365" lon="5.16472">
        <ele>480.74391885705</ele>
        <time>2014-05-31T18:27:49Z</time>
      </trkpt>
      <trkpt lat="45.2937" lon="5.16479">
        <ele>480.74391885705</ele>
        <time>2014-05-31T18:27:54Z</time>
      </trkpt>
      <trkpt lat="45.29375" lon="5.16485">
        <ele>479.22720555154</ele>
        <time>2014-05-31T18:27:59Z</time>
      </trkpt>
      <trkpt lat="45.29385" lon="5.16496">
        <ele>477.41376916904</ele>
        <time>2014-05-31T18:28:04Z</time>
      </trkpt>
      <trkpt lat="45.29397" lon="5.16505">
        <ele>475.61885330774</ele>
        <time>2014-05-31T18:28:09Z</time>
      </trkpt>
      <trkpt lat="45.29404" lon="5.16512">
        <ele>475.61885330774</ele>
        <time>2014-05-31T18:28:14Z</time>
      </trkpt>
      <trkpt lat="45.29416" lon="5.16528">
        <ele>474.73970412651</ele>
        <time>2014-05-31T18:28:19Z</time>
      </trkpt>
      <trkpt lat="45.29437" lon="5.16549">
        <ele>474.264791546</ele>
        <time>2014-05-31T18:28:24Z</time>
      </trkpt>
      <trkpt lat="45.29451" lon="5.16564">
        <ele>474.28099573869</ele>
        <time>2014-05-31T18:28:29Z</time>
      </trkpt>
      <trkpt lat="45.29456" lon="5.16572">
        <ele>474.28099573869</ele>
        <time>2014-05-31T18:28:34Z</time>
      </trkpt>
      <trkpt lat="45.29462" lon="5.16579">
        <ele>474.62238262583</ele>
        <time>2014-05-31T18:28:39Z</time>
      </trkpt>
      <trkpt lat="45.29468" lon="5.16587">
        <ele>474.62238262583</ele>
        <time>2014-05-31T18:28:44Z</time>
      </trkpt>
      <trkpt lat="45.29473" lon="5.16596">
        <ele>474.860422811</ele>
        <time>2014-05-31T18:28:49Z</time>
      </trkpt>
      <trkpt lat="45.2948" lon="5.16605">
        <ele>475.14592357955</ele>
        <time>2014-05-31T18:28:54Z</time>
      </trkpt>
      <trkpt lat="45.29487" lon="5.16611">
        <ele>475.14592357955</ele>
        <time>2014-05-31T18:28:59Z</time>
      </trkpt>
      <trkpt lat="45.29491" lon="5.16619">
        <ele>475.40226584392</ele>
        <time>2014-05-31T18:29:04Z</time>
      </trkpt>
      <trkpt lat="45.29496" lon="5.16627">
        <ele>475.40226584392</ele>
        <time>2014-05-31T18:29:09Z</time>
      </trkpt>
      <trkpt lat="45.295" lon="5.16633">
        <ele>475.88995535695</ele>
        <time>2014-05-31T18:29:14Z</time>
      </trkpt>
      <trkpt lat="45.29505" lon="5.16641">
        <ele>475.88995535695</ele>
        <time>2014-05-31T18:29:19Z</time>
      </trkpt>
      <trkpt lat="45.29509" lon="5.16647">
        <ele>475.89854371976</ele>
        <time>2014-05-31T18:29:24Z</time>
      </trkpt>
      <trkpt lat="45.29514" lon="5.16656">
        <ele>475.89854371976</ele>
        <time>2014-05-31T18:29:29Z</time>
      </trkpt>
      <trkpt lat="45.2952" lon="5.16668">
        <ele>476.25543209179</ele>
        <time>2014-05-31T18:29:34Z</time>
      </trkpt>
      <trkpt lat="45.29525" lon="5.16677">
        <ele>476.25543209179</ele>
        <time>2014-05-31T18:29:39Z</time>
      </trkpt>
      <trkpt lat="45.2953" lon="5.16686">
        <ele>476.91921931803</ele>
        <time>2014-05-31T18:29:44Z</time>
      </trkpt>
      <trkpt lat="45.29536" lon="5.16692">
        <ele>476.91921931803</ele>
        <time>2014-05-31T18:29:49Z</time>
      </trkpt>
      <trkpt lat="45.29541" lon="5.16699">
        <ele>477.28863462796</ele>
        <time>2014-05-31T18:29:55Z</time>
      </trkpt>
      <trkpt lat="45.29547" lon="5.16704">
        <ele>477.28863462796</ele>
        <time>2014-05-31T18:29:59Z</time>
      </trkpt>
      <trkpt lat="45.29549" lon="5.16707">
        <ele>477.58559154128</ele>
        <time>2014-05-31T18:30:04Z</time>
      </trkpt>
      <trkpt lat="45.29553" lon="5.16711">
        <ele>477.58559154128</ele>
        <time>2014-05-31T18:30:09Z</time>
      </trkpt>
      <trkpt lat="45.2956" lon="5.16718">
        <ele>477.94384453364</ele>
        <time>2014-05-31T18:30:14Z</time>
      </trkpt>
      <trkpt lat="45.29565" lon="5.16725">
        <ele>477.94384453364</ele>
        <time>2014-05-31T18:30:19Z</time>
      </trkpt>
      <trkpt lat="45.29571" lon="5.16732">
        <ele>478.27098376479</ele>
        <time>2014-05-31T18:30:24Z</time>
      </trkpt>
      <trkpt lat="45.29577" lon="5.16738">
        <ele>478.27098376479</ele>
        <time>2014-05-31T18:30:29Z</time>
      </trkpt>
      <trkpt lat="45.29584" lon="5.16741">
        <ele>478.46706778101</ele>
        <time>2014-05-31T18:30:34Z</time>
      </trkpt>
      <trkpt lat="45.2959" lon="5.16745">
        <ele>478.46706778101</ele>
        <time>2014-05-31T18:30:39Z</time>
      </trkpt>
      <trkpt lat="45.29595" lon="5.16751">
        <ele>478.42546014197</ele>
        <time>2014-05-31T18:30:44Z</time>
      </trkpt>
      <trkpt lat="45.29601" lon="5.16756">
        <ele>478.42546014197</ele>
        <time>2014-05-31T18:30:49Z</time>
      </trkpt>
      <trkpt lat="45.29606" lon="5.1676">
        <ele>477.93274395378</ele>
        <time>2014-05-31T18:30:54Z</time>
      </trkpt>
      <trkpt lat="45.29611" lon="5.16765">
        <ele>477.93274395378</ele>
        <time>2014-05-31T18:30:59Z</time>
      </trkpt>
      <trkpt lat="45.29617" lon="5.16771">
        <ele>477.77240990335</ele>
        <time>2014-05-31T18:31:04Z</time>
      </trkpt>
      <trkpt lat="45.29622" lon="5.16778">
        <ele>477.77240990335</ele>
        <time>2014-05-31T18:31:09Z</time>
      </trkpt>
      <trkpt lat="45.29627" lon="5.16785">
        <ele>477.01218994911</ele>
        <time>2014-05-31T18:31:14Z</time>
      </trkpt>
      <trkpt lat="45.29632" lon="5.16793">
        <ele>477.01218994911</ele>
        <time>2014-05-31T18:31:19Z</time>
      </trkpt>
      <trkpt lat="45.29639" lon="5.16803">
        <ele>476.01493113168</ele>
        <time>2014-05-31T18:31:24Z</time>
      </trkpt>
      <trkpt lat="45.29645" lon="5.16814">
        <ele>475.18954557015</ele>
        <time>2014-05-31T18:31:29Z</time>
      </trkpt>
      <trkpt lat="45.29651" lon="5.16824">
        <ele>475.18954557015</ele>
        <time>2014-05-31T18:31:34Z</time>
      </trkpt>
      <trkpt lat="45.29656" lon="5.16833">
        <ele>474.29474065918</ele>
        <time>2014-05-31T18:31:39Z</time>
      </trkpt>
      <trkpt lat="45.29661" lon="5.16841">
        <ele>474.29474065918</ele>
        <time>2014-05-31T18:31:44Z</time>
      </trkpt>
      <trkpt lat="45.29666" lon="5.16849">
        <ele>473.13595362813</ele>
        <time>2014-05-31T18:31:49Z</time>
      </trkpt>
      <trkpt lat="45.29667" lon="5.1685">
        <ele>473.13595362813</ele>
        <time>2014-05-31T18:31:54Z</time>
      </trkpt>
      <trkpt lat="45.29697" lon="5.16883">
        <ele>471.72098023175</ele>
        <time>2014-05-31T18:32:24Z</time>
      </trkpt>
      <trkpt lat="45.29706" lon="5.16888">
        <ele>470.53330359144</ele>
        <time>2014-05-31T18:32:29Z</time>
      </trkpt>
      <trkpt lat="45.29714" lon="5.16891">
        <ele>470.53330359144</ele>
        <time>2014-05-31T18:32:34Z</time>
      </trkpt>
      <trkpt lat="45.29722" lon="5.16892">
        <ele>468.91056382511</ele>
        <time>2014-05-31T18:32:39Z</time>
      </trkpt>
      <trkpt lat="45.29729" lon="5.16893">
        <ele>468.91056382511</ele>
        <time>2014-05-31T18:32:44Z</time>
      </trkpt>
      <trkpt lat="45.29736" lon="5.16893">
        <ele>467.13372623786</ele>
        <time>2014-05-31T18:32:49Z</time>
      </trkpt>
      <trkpt lat="45.29743" lon="5.16889">
        <ele>467.13372623786</ele>
        <time>2014-05-31T18:32:54Z</time>
      </trkpt>
      <trkpt lat="45.29748" lon="5.16884">
        <ele>464.57000883743</ele>
        <time>2014-05-31T18:32:59Z</time>
      </trkpt>
      <trkpt lat="45.29753" lon="5.16882">
        <ele>464.57000883743</ele>
        <time>2014-05-31T18:33:04Z</time>
      </trkpt>
      <trkpt lat="45.29761" lon="5.16882">
        <ele>462.10519336433</ele>
        <time>2014-05-31T18:33:09Z</time>
      </trkpt>
      <trkpt lat="45.29767" lon="5.1688">
        <ele>462.10519336433</ele>
        <time>2014-05-31T18:33:14Z</time>
      </trkpt>
      <trkpt lat="45.29774" lon="5.16879">
        <ele>460.34347621597</ele>
        <time>2014-05-31T18:33:19Z</time>
      </trkpt>
      <trkpt lat="45.29782" lon="5.16878">
        <ele>460.34347621597</ele>
        <time>2014-05-31T18:33:25Z</time>
      </trkpt>
      <trkpt lat="45.29788" lon="5.16877">
        <ele>458.22856931953</ele>
        <time>2014-05-31T18:33:29Z</time>
      </trkpt>
      <trkpt lat="45.29795" lon="5.16878">
        <ele>458.22856931953</ele>
        <time>2014-05-31T18:33:34Z</time>
      </trkpt>
      <trkpt lat="45.29802" lon="5.16881">
        <ele>456.15173298876</ele>
        <time>2014-05-31T18:33:39Z</time>
      </trkpt>
      <trkpt lat="45.29808" lon="5.16881">
        <ele>456.15173298876</ele>
        <time>2014-05-31T18:33:44Z</time>
      </trkpt>
      <trkpt lat="45.29816" lon="5.16882">
        <ele>453.98530024448</ele>
        <time>2014-05-31T18:33:49Z</time>
      </trkpt>
      <trkpt lat="45.29822" lon="5.16876">
        <ele>453.98530024448</ele>
        <time>2014-05-31T18:33:54Z</time>
      </trkpt>
      <trkpt lat="45.29826" lon="5.16865">
        <ele>453.08106225619</ele>
        <time>2014-05-31T18:33:59Z</time>
      </trkpt>
      <trkpt lat="45.2983" lon="5.1686">
        <ele>453.08106225619</ele>
        <time>2014-05-31T18:34:04Z</time>
      </trkpt>
      <trkpt lat="45.29831" lon="5.1686">
        <ele>453.08106225619</ele>
        <time>2014-05-31T18:34:09Z</time>
      </trkpt>
      <trkpt lat="45.29832" lon="5.16857">
        <ele>453.08106225619</ele>
        <time>2014-05-31T18:34:14Z</time>
      </trkpt>
      <trkpt lat="45.29831" lon="5.16855">
        <ele>452.26679182299</ele>
        <time>2014-05-31T18:34:19Z</time>
      </trkpt>
      <trkpt lat="45.2983" lon="5.16847">
        <ele>452.26679182299</ele>
        <time>2014-05-31T18:34:24Z</time>
      </trkpt>
      <trkpt lat="45.2983" lon="5.16836">
        <ele>451.58008004154</ele>
        <time>2014-05-31T18:34:29Z</time>
      </trkpt>
      <trkpt lat="45.29831" lon="5.16826">
        <ele>451.58008004154</ele>
        <time>2014-05-31T18:34:34Z</time>
      </trkpt>
      <trkpt lat="45.29831" lon="5.16816">
        <ele>451.05529514525</ele>
        <time>2014-05-31T18:34:39Z</time>
      </trkpt>
      <trkpt lat="45.29831" lon="5.16805">
        <ele>451.05529514525</ele>
        <time>2014-05-31T18:34:44Z</time>
      </trkpt>
      <trkpt lat="45.2983" lon="5.16794">
        <ele>450.66608493009</ele>
        <time>2014-05-31T18:34:49Z</time>
      </trkpt>
      <trkpt lat="45.29829" lon="5.16784">
        <ele>450.66608493009</ele>
        <time>2014-05-31T18:34:54Z</time>
      </trkpt>
      <trkpt lat="45.29826" lon="5.16774">
        <ele>449.9696399587</ele>
        <time>2014-05-31T18:34:59Z</time>
      </trkpt>
      <trkpt lat="45.29824" lon="5.16765">
        <ele>449.9696399587</ele>
        <time>2014-05-31T18:35:04Z</time>
      </trkpt>
      <trkpt lat="45.29821" lon="5.16757">
        <ele>449.46435837097</ele>
        <time>2014-05-31T18:35:09Z</time>
      </trkpt>
      <trkpt lat="45.29822" lon="5.16747">
        <ele>449.46435837097</ele>
        <time>2014-05-31T18:35:14Z</time>
      </trkpt>
      <trkpt lat="45.2982" lon="5.16738">
        <ele>449.32319211009</ele>
        <time>2014-05-31T18:35:19Z</time>
      </trkpt>
      <trkpt lat="45.29819" lon="5.16728">
        <ele>449.32319211009</ele>
        <time>2014-05-31T18:35:24Z</time>
      </trkpt>
      <trkpt lat="45.29817" lon="5.16718">
        <ele>449.17208754581</ele>
        <time>2014-05-31T18:35:29Z</time>
      </trkpt>
      <trkpt lat="45.29814" lon="5.16709">
        <ele>449.17208754581</ele>
        <time>2014-05-31T18:35:34Z</time>
      </trkpt>
      <trkpt lat="45.29811" lon="5.167">
        <ele>449.06794819584</ele>
        <time>2014-05-31T18:35:39Z</time>
      </trkpt>
      <trkpt lat="45.29807" lon="5.16692">
        <ele>449.06794819584</ele>
        <time>2014-05-31T18:35:44Z</time>
      </trkpt>
      <trkpt lat="45.29801" lon="5.16684">
        <ele>448.97684798418</ele>
        <time>2014-05-31T18:35:49Z</time>
      </trkpt>
      <trkpt lat="45.29796" lon="5.16678">
        <ele>448.97684798418</ele>
        <time>2014-05-31T18:35:54Z</time>
      </trkpt>
      <trkpt lat="45.2979" lon="5.16674">
        <ele>448.98256329701</ele>
        <time>2014-05-31T18:35:59Z</time>
      </trkpt>
      <trkpt lat="45.29784" lon="5.16671">
        <ele>448.98256329701</ele>
        <time>2014-05-31T18:36:04Z</time>
      </trkpt>
      <trkpt lat="45.29778" lon="5.16666">
        <ele>449.40740103249</ele>
        <time>2014-05-31T18:36:09Z</time>
      </trkpt>
      <trkpt lat="45.29775" lon="5.16659">
        <ele>449.40740103249</ele>
        <time>2014-05-31T18:36:14Z</time>
      </trkpt>
      <trkpt lat="45.29771" lon="5.16651">
        <ele>450.08763745862</ele>
        <time>2014-05-31T18:36:19Z</time>
      </trkpt>
      <trkpt lat="45.29766" lon="5.16642">
        <ele>450.08763745862</ele>
        <time>2014-05-31T18:36:24Z</time>
      </trkpt>
      <trkpt lat="45.29763" lon="5.16639">
        <ele>450.36645775163</ele>
        <time>2014-05-31T18:36:29Z</time>
      </trkpt>
      <trkpt lat="45.29763" lon="5.16641">
        <ele>450.36645775163</ele>
        <time>2014-05-31T18:36:34Z</time>
      </trkpt>
      <trkpt lat="45.29763" lon="5.16644">
        <ele>450.36645775163</ele>
        <time>2014-05-31T18:36:39Z</time>
      </trkpt>
      <trkpt lat="45.29764" lon="5.16647">
        <ele>450.36645775163</ele>
        <time>2014-05-31T18:36:44Z</time>
      </trkpt>
      <trkpt lat="45.29763" lon="5.16654">
        <ele>451.38016650713</ele>
        <time>2014-05-31T18:36:49Z</time>
      </trkpt>
      <trkpt lat="45.29763" lon="5.16654">
        <ele>451.38016650713</ele>
        <time>2014-05-31T18:36:54Z</time>
      </trkpt>
      <trkpt lat="45.29764" lon="5.16655">
        <ele>451.38016650713</ele>
        <time>2014-05-31T18:36:59Z</time>
      </trkpt>
      <trkpt lat="45.29763" lon="5.16646">
        <ele>451.38016650713</ele>
        <time>2014-05-31T18:37:04Z</time>
      </trkpt>
      <trkpt lat="45.29762" lon="5.1664">
        <ele>451.61436526961</ele>
        <time>2014-05-31T18:37:09Z</time>
      </trkpt>
      <trkpt lat="45.29762" lon="5.16632">
        <ele>451.61436526961</ele>
        <time>2014-05-31T18:37:14Z</time>
      </trkpt>
      <trkpt lat="45.29759" lon="5.1662">
        <ele>451.71448680378</ele>
        <time>2014-05-31T18:37:19Z</time>
      </trkpt>
      <trkpt lat="45.29758" lon="5.16611">
        <ele>451.71448680378</ele>
        <time>2014-05-31T18:37:24Z</time>
      </trkpt>
      <trkpt lat="45.29755" lon="5.16598">
        <ele>452.33659921612</ele>
        <time>2014-05-31T18:37:29Z</time>
      </trkpt>
      <trkpt lat="45.29753" lon="5.1659">
        <ele>452.33659921612</ele>
        <time>2014-05-31T18:37:34Z</time>
      </trkpt>
      <trkpt lat="45.29751" lon="5.16576">
        <ele>452.61721316121</ele>
        <time>2014-05-31T18:37:39Z</time>
      </trkpt>
      <trkpt lat="45.2975" lon="5.16567">
        <ele>452.61721316121</ele>
        <time>2014-05-31T18:37:44Z</time>
      </trkpt>
      <trkpt lat="45.29747" lon="5.16554">
        <ele>452.7804588859</ele>
        <time>2014-05-31T18:37:49Z</time>
      </trkpt>
      <trkpt lat="45.29745" lon="5.16546">
        <ele>452.7804588859</ele>
        <time>2014-05-31T18:37:54Z</time>
      </trkpt>
      <trkpt lat="45.29743" lon="5.16536">
        <ele>453.03437761971</ele>
        <time>2014-05-31T18:37:59Z</time>
      </trkpt>
      <trkpt lat="45.29743" lon="5.16524">
        <ele>453.03437761971</ele>
        <time>2014-05-31T18:38:04Z</time>
      </trkpt>
      <trkpt lat="45.29742" lon="5.16516">
        <ele>453.00949049636</ele>
        <time>2014-05-31T18:38:09Z</time>
      </trkpt>
      <trkpt lat="45.29742" lon="5.1651">
        <ele>453.00949049636</ele>
        <time>2014-05-31T18:38:14Z</time>
      </trkpt>
      <trkpt lat="45.2974" lon="5.16503">
        <ele>453.09926287586</ele>
        <time>2014-05-31T18:38:19Z</time>
      </trkpt>
      <trkpt lat="45.29736" lon="5.16495">
        <ele>453.09926287586</ele>
        <time>2014-05-31T18:38:24Z</time>
      </trkpt>
      <trkpt lat="45.29732" lon="5.16488">
        <ele>452.38539964293</ele>
        <time>2014-05-31T18:38:29Z</time>
      </trkpt>
      <trkpt lat="45.2973" lon="5.1648">
        <ele>452.38539964293</ele>
        <time>2014-05-31T18:38:34Z</time>
      </trkpt>
      <trkpt lat="45.29726" lon="5.16474">
        <ele>451.22990420812</ele>
        <time>2014-05-31T18:38:39Z</time>
      </trkpt>
      <trkpt lat="45.29728" lon="5.16466">
        <ele>451.22990420812</ele>
        <time>2014-05-31T18:38:44Z</time>
      </trkpt>
      <trkpt lat="45.29727" lon="5.1646">
        <ele>450.4018094054</ele>
        <time>2014-05-31T18:38:49Z</time>
      </trkpt>
      <trkpt lat="45.29727" lon="5.16453">
        <ele>450.4018094054</ele>
        <time>2014-05-31T18:38:54Z</time>
      </trkpt>
      <trkpt lat="45.29727" lon="5.16441">
        <ele>450.67042774617</ele>
        <time>2014-05-31T18:38:59Z</time>
      </trkpt>
      <trkpt lat="45.29725" lon="5.16431">
        <ele>450.67042774617</ele>
        <time>2014-05-31T18:39:04Z</time>
      </trkpt>
      <trkpt lat="45.29723" lon="5.16423">
        <ele>451.131480599</ele>
        <time>2014-05-31T18:39:09Z</time>
      </trkpt>
      <trkpt lat="45.2972" lon="5.16413">
        <ele>451.131480599</ele>
        <time>2014-05-31T18:39:14Z</time>
      </trkpt>
      <trkpt lat="45.29717" lon="5.16404">
        <ele>452.56066783002</ele>
        <time>2014-05-31T18:39:19Z</time>
      </trkpt>
      <trkpt lat="45.29715" lon="5.16395">
        <ele>452.56066783002</ele>
        <time>2014-05-31T18:39:24Z</time>
      </trkpt>
      <trkpt lat="45.2971" lon="5.16387">
        <ele>454.36263124847</ele>
        <time>2014-05-31T18:39:29Z</time>
      </trkpt>
      <trkpt lat="45.29706" lon="5.16378">
        <ele>454.36263124847</ele>
        <time>2014-05-31T18:39:34Z</time>
      </trkpt>
      <trkpt lat="45.29701" lon="5.16367">
        <ele>456.24416387797</ele>
        <time>2014-05-31T18:39:39Z</time>
      </trkpt>
      <trkpt lat="45.29697" lon="5.16358">
        <ele>456.24416387797</ele>
        <time>2014-05-31T18:39:44Z</time>
      </trkpt>
      <trkpt lat="45.29691" lon="5.16349">
        <ele>456.85261295056</ele>
        <time>2014-05-31T18:39:49Z</time>
      </trkpt>
      <trkpt lat="45.29688" lon="5.16342">
        <ele>456.85261295056</ele>
        <time>2014-05-31T18:39:54Z</time>
      </trkpt>
      <trkpt lat="45.29686" lon="5.16332">
        <ele>456.73973251913</ele>
        <time>2014-05-31T18:39:59Z</time>
      </trkpt>
      <trkpt lat="45.2968" lon="5.16324">
        <ele>456.73973251913</ele>
        <time>2014-05-31T18:40:04Z</time>
      </trkpt>
      <trkpt lat="45.29676" lon="5.16318">
        <ele>457.19705534644</ele>
        <time>2014-05-31T18:40:09Z</time>
      </trkpt>
      <trkpt lat="45.2967" lon="5.16307">
        <ele>457.6327490358</ele>
        <time>2014-05-31T18:40:14Z</time>
      </trkpt>
      <trkpt lat="45.29666" lon="5.16301">
        <ele>457.6327490358</ele>
        <time>2014-05-31T18:40:19Z</time>
      </trkpt>
      <trkpt lat="45.29663" lon="5.16292">
        <ele>457.42654827047</ele>
        <time>2014-05-31T18:40:24Z</time>
      </trkpt>
      <trkpt lat="45.2966" lon="5.16282">
        <ele>457.42654827047</ele>
        <time>2014-05-31T18:40:29Z</time>
      </trkpt>
      <trkpt lat="45.2966" lon="5.16271">
        <ele>457.02882536237</ele>
        <time>2014-05-31T18:40:34Z</time>
      </trkpt>
      <trkpt lat="45.29662" lon="5.16258">
        <ele>457.96714355867</ele>
        <time>2014-05-31T18:40:39Z</time>
      </trkpt>
      <trkpt lat="45.29666" lon="5.16244">
        <ele>459.07359479836</ele>
        <time>2014-05-31T18:40:44Z</time>
      </trkpt>
      <trkpt lat="45.29665" lon="5.16236">
        <ele>459.07359479836</ele>
        <time>2014-05-31T18:40:49Z</time>
      </trkpt>
      <trkpt lat="45.29665" lon="5.16227">
        <ele>459.36655033334</ele>
        <time>2014-05-31T18:40:54Z</time>
      </trkpt>
      <trkpt lat="45.29664" lon="5.16217">
        <ele>459.36655033334</ele>
        <time>2014-05-31T18:41:00Z</time>
      </trkpt>
      <trkpt lat="45.29663" lon="5.16209">
        <ele>459.45201995288</ele>
        <time>2014-05-31T18:41:04Z</time>
      </trkpt>
      <trkpt lat="45.29663" lon="5.16199">
        <ele>459.45201995288</ele>
        <time>2014-05-31T18:41:09Z</time>
      </trkpt>
      <trkpt lat="45.2966" lon="5.16192">
        <ele>459.01307863897</ele>
        <time>2014-05-31T18:41:14Z</time>
      </trkpt>
      <trkpt lat="45.29657" lon="5.16185">
        <ele>459.01307863897</ele>
        <time>2014-05-31T18:41:19Z</time>
      </trkpt>
      <trkpt lat="45.29658" lon="5.16174">
        <ele>459.42931937802</ele>
        <time>2014-05-31T18:41:24Z</time>
      </trkpt>
      <trkpt lat="45.29657" lon="5.16162">
        <ele>459.42931937802</ele>
        <time>2014-05-31T18:41:29Z</time>
      </trkpt>
      <trkpt lat="45.29655" lon="5.16148">
        <ele>460.62202096471</ele>
        <time>2014-05-31T18:41:34Z</time>
      </trkpt>
      <trkpt lat="45.29651" lon="5.16138">
        <ele>460.62202096471</ele>
        <time>2014-05-31T18:41:39Z</time>
      </trkpt>
      <trkpt lat="45.29648" lon="5.16127">
        <ele>461.43530540634</ele>
        <time>2014-05-31T18:41:44Z</time>
      </trkpt>
      <trkpt lat="45.29646" lon="5.16108">
        <ele>462.47103190165</ele>
        <time>2014-05-31T18:41:49Z</time>
      </trkpt>
      <trkpt lat="45.29645" lon="5.1609">
        <ele>462.49931911867</ele>
        <time>2014-05-31T18:41:54Z</time>
      </trkpt>
      <trkpt lat="45.29642" lon="5.16076">
        <ele>461.96875439253</ele>
        <time>2014-05-31T18:41:59Z</time>
      </trkpt>
      <trkpt lat="45.29643" lon="5.16058">
        <ele>461.61365411233</ele>
        <time>2014-05-31T18:42:04Z</time>
      </trkpt>
      <trkpt lat="45.29647" lon="5.16038">
        <ele>462.27248757571</ele>
        <time>2014-05-31T18:42:09Z</time>
      </trkpt>
      <trkpt lat="45.29654" lon="5.16021">
        <ele>463.27823545539</ele>
        <time>2014-05-31T18:42:14Z</time>
      </trkpt>
      <trkpt lat="45.29663" lon="5.16005">
        <ele>464.45870775438</ele>
        <time>2014-05-31T18:42:19Z</time>
      </trkpt>
      <trkpt lat="45.29671" lon="5.15992">
        <ele>465.65393373381</ele>
        <time>2014-05-31T18:42:24Z</time>
      </trkpt>
      <trkpt lat="45.29677" lon="5.15978">
        <ele>466.96070576806</ele>
        <time>2014-05-31T18:42:29Z</time>
      </trkpt>
      <trkpt lat="45.29683" lon="5.15969">
        <ele>466.96070576806</ele>
        <time>2014-05-31T18:42:34Z</time>
      </trkpt>
      <trkpt lat="45.2969" lon="5.15957">
        <ele>468.00730522576</ele>
        <time>2014-05-31T18:42:39Z</time>
      </trkpt>
      <trkpt lat="45.29696" lon="5.15945">
        <ele>469.25714385939</ele>
        <time>2014-05-31T18:42:44Z</time>
      </trkpt>
      <trkpt lat="45.29697" lon="5.15936">
        <ele>469.25714385939</ele>
        <time>2014-05-31T18:42:49Z</time>
      </trkpt>
      <trkpt lat="45.29699" lon="5.15931">
        <ele>469.49622729716</ele>
        <time>2014-05-31T18:42:54Z</time>
      </trkpt>
      <trkpt lat="45.29702" lon="5.15924">
        <ele>469.49622729716</ele>
        <time>2014-05-31T18:42:59Z</time>
      </trkpt>
      <trkpt lat="45.29706" lon="5.15917">
        <ele>469.10140412489</ele>
        <time>2014-05-31T18:43:04Z</time>
      </trkpt>
      <trkpt lat="45.29713" lon="5.15906">
        <ele>468.52456346367</ele>
        <time>2014-05-31T18:43:09Z</time>
      </trkpt>
      <trkpt lat="45.29718" lon="5.15894">
        <ele>467.55087952298</ele>
        <time>2014-05-31T18:43:14Z</time>
      </trkpt>
      <trkpt lat="45.29722" lon="5.15886">
        <ele>467.55087952298</ele>
        <time>2014-05-31T18:43:19Z</time>
      </trkpt>
      <trkpt lat="45.29726" lon="5.15879">
        <ele>466.67420217144</ele>
        <time>2014-05-31T18:43:24Z</time>
      </trkpt>
      <trkpt lat="45.29732" lon="5.15872">
        <ele>466.67420217144</ele>
        <time>2014-05-31T18:43:29Z</time>
      </trkpt>
      <trkpt lat="45.29735" lon="5.15866">
        <ele>465.51602130055</ele>
        <time>2014-05-31T18:43:34Z</time>
      </trkpt>
      <trkpt lat="45.29738" lon="5.15857">
        <ele>465.51602130055</ele>
        <time>2014-05-31T18:43:39Z</time>
      </trkpt>
      <trkpt lat="45.29742" lon="5.15846">
        <ele>465.23961194409</ele>
        <time>2014-05-31T18:43:44Z</time>
      </trkpt>
      <trkpt lat="45.2975" lon="5.15831">
        <ele>465.27746762634</ele>
        <time>2014-05-31T18:43:49Z</time>
      </trkpt>
      <trkpt lat="45.29754" lon="5.1582">
        <ele>465.27746762634</ele>
        <time>2014-05-31T18:43:54Z</time>
      </trkpt>
      <trkpt lat="45.29758" lon="5.15809">
        <ele>465.72257299506</ele>
        <time>2014-05-31T18:43:59Z</time>
      </trkpt>
      <trkpt lat="45.29762" lon="5.15799">
        <ele>465.72257299506</ele>
        <time>2014-05-31T18:44:04Z</time>
      </trkpt>
      <trkpt lat="45.29763" lon="5.15791">
        <ele>465.49264022339</ele>
        <time>2014-05-31T18:44:09Z</time>
      </trkpt>
      <trkpt lat="45.29764" lon="5.15784">
        <ele>465.49264022339</ele>
        <time>2014-05-31T18:44:14Z</time>
      </trkpt>
      <trkpt lat="45.29768" lon="5.15776">
        <ele>464.98465539193</ele>
        <time>2014-05-31T18:44:19Z</time>
      </trkpt>
      <trkpt lat="45.29773" lon="5.15764">
        <ele>464.40869391276</ele>
        <time>2014-05-31T18:44:24Z</time>
      </trkpt>
      <trkpt lat="45.29774" lon="5.15755">
        <ele>464.40869391276</ele>
        <time>2014-05-31T18:44:29Z</time>
      </trkpt>
      <trkpt lat="45.29776" lon="5.15744">
        <ele>464.34868000725</ele>
        <time>2014-05-31T18:44:34Z</time>
      </trkpt>
      <trkpt lat="45.29777" lon="5.15733">
        <ele>464.34868000725</ele>
        <time>2014-05-31T18:44:39Z</time>
      </trkpt>
      <trkpt lat="45.29777" lon="5.15722">
        <ele>464.50833681476</ele>
        <time>2014-05-31T18:44:44Z</time>
      </trkpt>
      <trkpt lat="45.29776" lon="5.1571">
        <ele>464.50833681476</ele>
        <time>2014-05-31T18:44:49Z</time>
      </trkpt>
      <trkpt lat="45.29773" lon="5.15699">
        <ele>464.43958458192</ele>
        <time>2014-05-31T18:44:54Z</time>
      </trkpt>
      <trkpt lat="45.29771" lon="5.1569">
        <ele>464.43958458192</ele>
        <time>2014-05-31T18:44:59Z</time>
      </trkpt>
      <trkpt lat="45.29768" lon="5.1568">
        <ele>464.14580241854</ele>
        <time>2014-05-31T18:45:04Z</time>
      </trkpt>
      <trkpt lat="45.29765" lon="5.1567">
        <ele>464.14580241854</ele>
        <time>2014-05-31T18:45:09Z</time>
      </trkpt>
      <trkpt lat="45.29765" lon="5.1566">
        <ele>463.31368526486</ele>
        <time>2014-05-31T18:45:14Z</time>
      </trkpt>
      <trkpt lat="45.29764" lon="5.1565">
        <ele>463.31368526486</ele>
        <time>2014-05-31T18:45:19Z</time>
      </trkpt>
      <trkpt lat="45.29766" lon="5.15639">
        <ele>463.38376260158</ele>
        <time>2014-05-31T18:45:24Z</time>
      </trkpt>
      <trkpt lat="45.29768" lon="5.15626">
        <ele>463.84356282015</ele>
        <time>2014-05-31T18:45:29Z</time>
      </trkpt>
      <trkpt lat="45.29772" lon="5.15601">
        <ele>464.36125066026</ele>
        <time>2014-05-31T18:45:34Z</time>
      </trkpt>
      <trkpt lat="45.29776" lon="5.15579">
        <ele>464.90299022671</ele>
        <time>2014-05-31T18:45:39Z</time>
      </trkpt>
      <trkpt lat="45.29779" lon="5.15557">
        <ele>465.39410802466</ele>
        <time>2014-05-31T18:45:44Z</time>
      </trkpt>
      <trkpt lat="45.29782" lon="5.15532">
        <ele>465.33320520151</ele>
        <time>2014-05-31T18:45:49Z</time>
      </trkpt>
      <trkpt lat="45.29783" lon="5.15517">
        <ele>465.22279145717</ele>
        <time>2014-05-31T18:45:54Z</time>
      </trkpt>
      <trkpt lat="45.29785" lon="5.15505">
        <ele>465.22279145717</ele>
        <time>2014-05-31T18:45:59Z</time>
      </trkpt>
      <trkpt lat="45.29787" lon="5.15497">
        <ele>464.34687176877</ele>
        <time>2014-05-31T18:46:04Z</time>
      </trkpt>
      <trkpt lat="45.2979" lon="5.15487">
        <ele>464.34687176877</ele>
        <time>2014-05-31T18:46:09Z</time>
      </trkpt>
      <trkpt lat="45.29793" lon="5.15476">
        <ele>463.36999686388</ele>
        <time>2014-05-31T18:46:14Z</time>
      </trkpt>
      <trkpt lat="45.29795" lon="5.15465">
        <ele>463.36999686388</ele>
        <time>2014-05-31T18:46:19Z</time>
      </trkpt>
      <trkpt lat="45.29798" lon="5.15453">
        <ele>462.24524522031</ele>
        <time>2014-05-31T18:46:24Z</time>
      </trkpt>
      <trkpt lat="45.29801" lon="5.15442">
        <ele>462.24524522031</ele>
        <time>2014-05-31T18:46:29Z</time>
      </trkpt>
      <trkpt lat="45.29803" lon="5.15431">
        <ele>461.70772465717</ele>
        <time>2014-05-31T18:46:34Z</time>
      </trkpt>
      <trkpt lat="45.29806" lon="5.15414">
        <ele>460.8083993806</ele>
        <time>2014-05-31T18:46:39Z</time>
      </trkpt>
      <trkpt lat="45.29816" lon="5.15381">
        <ele>459.89386364953</ele>
        <time>2014-05-31T18:46:44Z</time>
      </trkpt>
      <trkpt lat="45.29829" lon="5.15354">
        <ele>459.04025430229</ele>
        <time>2014-05-31T18:46:49Z</time>
      </trkpt>
      <trkpt lat="45.29845" lon="5.15331">
        <ele>458.26024506934</ele>
        <time>2014-05-31T18:46:54Z</time>
      </trkpt>
      <trkpt lat="45.29854" lon="5.15321">
        <ele>457.73824722949</ele>
        <time>2014-05-31T18:46:59Z</time>
      </trkpt>
      <trkpt lat="45.29861" lon="5.15315">
        <ele>457.73824722949</ele>
        <time>2014-05-31T18:47:04Z</time>
      </trkpt>
      <trkpt lat="45.29867" lon="5.15312">
        <ele>457.3128850596</ele>
        <time>2014-05-31T18:47:09Z</time>
      </trkpt>
      <trkpt lat="45.29872" lon="5.15307">
        <ele>457.3128850596</ele>
        <time>2014-05-31T18:47:14Z</time>
      </trkpt>
      <trkpt lat="45.29876" lon="5.15302">
        <ele>456.86312658153</ele>
        <time>2014-05-31T18:47:19Z</time>
      </trkpt>
      <trkpt lat="45.2988" lon="5.15296">
        <ele>456.86312658153</ele>
        <time>2014-05-31T18:47:24Z</time>
      </trkpt>
      <trkpt lat="45.29884" lon="5.15291">
        <ele>455.77244690685</ele>
        <time>2014-05-31T18:47:29Z</time>
      </trkpt>
      <trkpt lat="45.29893" lon="5.15284">
        <ele>454.9124562152</ele>
        <time>2014-05-31T18:47:34Z</time>
      </trkpt>
      <trkpt lat="45.29903" lon="5.15276">
        <ele>454.0812457389</ele>
        <time>2014-05-31T18:47:39Z</time>
      </trkpt>
      <trkpt lat="45.2991" lon="5.15271">
        <ele>454.0812457389</ele>
        <time>2014-05-31T18:47:44Z</time>
      </trkpt>
      <trkpt lat="45.29915" lon="5.15266">
        <ele>452.45749988673</ele>
        <time>2014-05-31T18:47:49Z</time>
      </trkpt>
      <trkpt lat="45.29922" lon="5.15262">
        <ele>452.45749988673</ele>
        <time>2014-05-31T18:47:54Z</time>
      </trkpt>
      <trkpt lat="45.29928" lon="5.15259">
        <ele>451.51611059697</ele>
        <time>2014-05-31T18:47:59Z</time>
      </trkpt>
      <trkpt lat="45.29932" lon="5.15254">
        <ele>451.51611059697</ele>
        <time>2014-05-31T18:48:04Z</time>
      </trkpt>
      <trkpt lat="45.29938" lon="5.1525">
        <ele>449.69617744696</ele>
        <time>2014-05-31T18:48:09Z</time>
      </trkpt>
      <trkpt lat="45.29946" lon="5.15244">
        <ele>448.43606964324</ele>
        <time>2014-05-31T18:48:14Z</time>
      </trkpt>
      <trkpt lat="45.29955" lon="5.15236">
        <ele>447.35191595619</ele>
        <time>2014-05-31T18:48:19Z</time>
      </trkpt>
      <trkpt lat="45.2996" lon="5.15228">
        <ele>447.35191595619</ele>
        <time>2014-05-31T18:48:24Z</time>
      </trkpt>
      <trkpt lat="45.29965" lon="5.15222">
        <ele>446.00099494444</ele>
        <time>2014-05-31T18:48:29Z</time>
      </trkpt>
      <trkpt lat="45.2997" lon="5.15217">
        <ele>446.00099494444</ele>
        <time>2014-05-31T18:48:34Z</time>
      </trkpt>
      <trkpt lat="45.29975" lon="5.15209">
        <ele>444.86725325615</ele>
        <time>2014-05-31T18:48:39Z</time>
      </trkpt>
      <trkpt lat="45.29982" lon="5.152">
        <ele>444.86725325615</ele>
        <time>2014-05-31T18:48:44Z</time>
      </trkpt>
      <trkpt lat="45.29989" lon="5.15192">
        <ele>444.28309695204</ele>
        <time>2014-05-31T18:48:49Z</time>
      </trkpt>
      <trkpt lat="45.29993" lon="5.15187">
        <ele>444.28309695204</ele>
        <time>2014-05-31T18:48:54Z</time>
      </trkpt>
      <trkpt lat="45.29996" lon="5.15182">
        <ele>443.27229069563</ele>
        <time>2014-05-31T18:48:59Z</time>
      </trkpt>
      <trkpt lat="45.30001" lon="5.15173">
        <ele>443.27229069563</ele>
        <time>2014-05-31T18:49:04Z</time>
      </trkpt>
      <trkpt lat="45.30006" lon="5.15163">
        <ele>442.01225206296</ele>
        <time>2014-05-31T18:49:09Z</time>
      </trkpt>
      <trkpt lat="45.3001" lon="5.15155">
        <ele>442.01225206296</ele>
        <time>2014-05-31T18:49:14Z</time>
      </trkpt>
      <trkpt lat="45.30014" lon="5.15145">
        <ele>440.59591850363</ele>
        <time>2014-05-31T18:49:19Z</time>
      </trkpt>
      <trkpt lat="45.30016" lon="5.15137">
        <ele>440.59591850363</ele>
        <time>2014-05-31T18:49:24Z</time>
      </trkpt>
      <trkpt lat="45.30019" lon="5.15128">
        <ele>439.00887001789</ele>
        <time>2014-05-31T18:49:29Z</time>
      </trkpt>
      <trkpt lat="45.30023" lon="5.1512">
        <ele>439.00887001789</ele>
        <time>2014-05-31T18:49:34Z</time>
      </trkpt>
      <trkpt lat="45.30028" lon="5.15114">
        <ele>437.43988793838</ele>
        <time>2014-05-31T18:49:39Z</time>
      </trkpt>
      <trkpt lat="45.30033" lon="5.15111">
        <ele>437.43988793838</ele>
        <time>2014-05-31T18:49:44Z</time>
      </trkpt>
      <trkpt lat="45.3004" lon="5.15107">
        <ele>436.17903001255</ele>
        <time>2014-05-31T18:49:49Z</time>
      </trkpt>
      <trkpt lat="45.30046" lon="5.15104">
        <ele>436.17903001255</ele>
        <time>2014-05-31T18:49:54Z</time>
      </trkpt>
      <trkpt lat="45.30051" lon="5.15106">
        <ele>434.87440869719</ele>
        <time>2014-05-31T18:49:59Z</time>
      </trkpt>
      <trkpt lat="45.30056" lon="5.15113">
        <ele>434.87440869719</ele>
        <time>2014-05-31T18:50:04Z</time>
      </trkpt>
      <trkpt lat="45.30059" lon="5.15121">
        <ele>433.48823485601</ele>
        <time>2014-05-31T18:50:09Z</time>
      </trkpt>
      <trkpt lat="45.30064" lon="5.15125">
        <ele>433.48823485601</ele>
        <time>2014-05-31T18:50:14Z</time>
      </trkpt>
      <trkpt lat="45.30069" lon="5.15126">
        <ele>431.84151639449</ele>
        <time>2014-05-31T18:50:19Z</time>
      </trkpt>
      <trkpt lat="45.30075" lon="5.15129">
        <ele>431.84151639449</ele>
        <time>2014-05-31T18:50:24Z</time>
      </trkpt>
      <trkpt lat="45.30077" lon="5.15129">
        <ele>431.84151639449</ele>
        <time>2014-05-31T18:50:29Z</time>
      </trkpt>
      <trkpt lat="45.30078" lon="5.15128">
        <ele>430.31666662788</ele>
        <time>2014-05-31T18:50:34Z</time>
      </trkpt>
      <trkpt lat="45.30078" lon="5.15128">
        <ele>430.31666662788</ele>
        <time>2014-05-31T18:50:39Z</time>
      </trkpt>
      <trkpt lat="45.30078" lon="5.15128">
        <ele>430.31666662788</ele>
        <time>2014-05-31T18:50:44Z</time>
      </trkpt>
      <trkpt lat="45.3008" lon="5.15127">
        <ele>430.31666662788</ele>
        <time>2014-05-31T18:50:49Z</time>
      </trkpt>
      <trkpt lat="45.30083" lon="5.15125">
        <ele>430.31666662788</ele>
        <time>2014-05-31T18:50:54Z</time>
      </trkpt>
      <trkpt lat="45.30084" lon="5.15123">
        <ele>430.31666662788</ele>
        <time>2014-05-31T18:50:59Z</time>
      </trkpt>
      <trkpt lat="45.30084" lon="5.15124">
        <ele>430.31666662788</ele>
        <time>2014-05-31T18:51:04Z</time>
      </trkpt>
      <trkpt lat="45.30085" lon="5.15124">
        <ele>430.31666662788</ele>
        <time>2014-05-31T18:51:09Z</time>
      </trkpt>
      <trkpt lat="45.30085" lon="5.15124">
        <ele>430.31666662788</ele>
        <time>2014-05-31T18:51:14Z</time>
      </trkpt>
      <trkpt lat="45.30085" lon="5.15124">
        <ele>430.31666662788</ele>
        <time>2014-05-31T18:51:19Z</time>
      </trkpt>
      <trkpt lat="45.30085" lon="5.15124">
        <ele>430.31666662788</ele>
        <time>2014-05-31T18:51:24Z</time>
      </trkpt>
      <trkpt lat="45.30085" lon="5.15124">
        <ele>430.31666662788</ele>
        <time>2014-05-31T18:51:29Z</time>
      </trkpt>
      <trkpt lat="45.30082" lon="5.15124">
        <ele>429.54138073244</ele>
        <time>2014-05-31T18:51:34Z</time>
      </trkpt>
      <trkpt lat="45.30077" lon="5.15126">
        <ele>429.54138073244</ele>
        <time>2014-05-31T18:51:39Z</time>
      </trkpt>
      <trkpt lat="45.30072" lon="5.15125">
        <ele>428.78363561624</ele>
        <time>2014-05-31T18:51:44Z</time>
      </trkpt>
      <trkpt lat="45.30067" lon="5.15122">
        <ele>428.78363561624</ele>
        <time>2014-05-31T18:51:49Z</time>
      </trkpt>
      <trkpt lat="45.30062" lon="5.1512">
        <ele>428.24412110744</ele>
        <time>2014-05-31T18:51:54Z</time>
      </trkpt>
      <trkpt lat="45.30059" lon="5.15115">
        <ele>428.24412110744</ele>
        <time>2014-05-31T18:51:59Z</time>
      </trkpt>
      <trkpt lat="45.30058" lon="5.15111">
        <ele>428.24412110744</ele>
        <time>2014-05-31T18:52:04Z</time>
      </trkpt>
      <trkpt lat="45.30051" lon="5.15105">
        <ele>427.3875316998</ele>
        <time>2014-05-31T18:52:09Z</time>
      </trkpt>
      <trkpt lat="45.30045" lon="5.15105">
        <ele>427.3875316998</ele>
        <time>2014-05-31T18:52:14Z</time>
      </trkpt>
      <trkpt lat="45.30039" lon="5.15108">
        <ele>426.85717480752</ele>
        <time>2014-05-31T18:52:19Z</time>
      </trkpt>
      <trkpt lat="45.30032" lon="5.15108">
        <ele>426.85717480752</ele>
        <time>2014-05-31T18:52:24Z</time>
      </trkpt>
      <trkpt lat="45.30029" lon="5.151">
        <ele>426.81578172026</ele>
        <time>2014-05-31T18:52:29Z</time>
      </trkpt>
      <trkpt lat="45.30031" lon="5.1509">
        <ele>426.81578172026</ele>
        <time>2014-05-31T18:52:34Z</time>
      </trkpt>
      <trkpt lat="45.30029" lon="5.1508">
        <ele>426.85066219481</ele>
        <time>2014-05-31T18:52:39Z</time>
      </trkpt>
      <trkpt lat="45.30025" lon="5.15069">
        <ele>426.85066219481</ele>
        <time>2014-05-31T18:52:44Z</time>
      </trkpt>
      <trkpt lat="45.30021" lon="5.15059">
        <ele>427.29973159585</ele>
        <time>2014-05-31T18:52:49Z</time>
      </trkpt>
      <trkpt lat="45.3002" lon="5.15049">
        <ele>427.29973159585</ele>
        <time>2014-05-31T18:52:54Z</time>
      </trkpt>
      <trkpt lat="45.30018" lon="5.15039">
        <ele>427.88402396289</ele>
        <time>2014-05-31T18:52:59Z</time>
      </trkpt>
      <trkpt lat="45.30016" lon="5.15029">
        <ele>427.88402396289</ele>
        <time>2014-05-31T18:53:04Z</time>
      </trkpt>
      <trkpt lat="45.30016" lon="5.15018">
        <ele>428.48877007923</ele>
        <time>2014-05-31T18:53:09Z</time>
      </trkpt>
      <trkpt lat="45.30017" lon="5.15009">
        <ele>428.48877007923</ele>
        <time>2014-05-31T18:53:14Z</time>
      </trkpt>
      <trkpt lat="45.30016" lon="5.15003">
        <ele>428.99314832097</ele>
        <time>2014-05-31T18:53:19Z</time>
      </trkpt>
      <trkpt lat="45.30017" lon="5.14996">
        <ele>428.99314832097</ele>
        <time>2014-05-31T18:53:24Z</time>
      </trkpt>
      <trkpt lat="45.30017" lon="5.14985">
        <ele>429.14138029695</ele>
        <time>2014-05-31T18:53:29Z</time>
      </trkpt>
      <trkpt lat="45.30019" lon="5.14973">
        <ele>429.72067419115</ele>
        <time>2014-05-31T18:53:34Z</time>
      </trkpt>
      <trkpt lat="45.30019" lon="5.1496">
        <ele>429.72067419115</ele>
        <time>2014-05-31T18:53:39Z</time>
      </trkpt>
      <trkpt lat="45.30018" lon="5.14948">
        <ele>430.70984287875</ele>
        <time>2014-05-31T18:53:44Z</time>
      </trkpt>
      <trkpt lat="45.30016" lon="5.14937">
        <ele>430.70984287875</ele>
        <time>2014-05-31T18:53:49Z</time>
      </trkpt>
      <trkpt lat="45.30013" lon="5.14927">
        <ele>431.828736486</ele>
        <time>2014-05-31T18:53:54Z</time>
      </trkpt>
      <trkpt lat="45.3001" lon="5.14918">
        <ele>431.828736486</ele>
        <time>2014-05-31T18:53:59Z</time>
      </trkpt>
      <trkpt lat="45.30007" lon="5.14909">
        <ele>433.13450791642</ele>
        <time>2014-05-31T18:54:04Z</time>
      </trkpt>
      <trkpt lat="45.30003" lon="5.149">
        <ele>433.13450791642</ele>
        <time>2014-05-31T18:54:09Z</time>
      </trkpt>
      <trkpt lat="45.29999" lon="5.14891">
        <ele>434.23289751797</ele>
        <time>2014-05-31T18:54:14Z</time>
      </trkpt>
      <trkpt lat="45.29997" lon="5.14881">
        <ele>434.23289751797</ele>
        <time>2014-05-31T18:54:19Z</time>
      </trkpt>
      <trkpt lat="45.29993" lon="5.14874">
        <ele>435.35011209685</ele>
        <time>2014-05-31T18:54:24Z</time>
      </trkpt>
      <trkpt lat="45.29991" lon="5.14866">
        <ele>435.35011209685</ele>
        <time>2014-05-31T18:54:29Z</time>
      </trkpt>
      <trkpt lat="45.29987" lon="5.14856">
        <ele>436.36431071635</ele>
        <time>2014-05-31T18:54:34Z</time>
      </trkpt>
      <trkpt lat="45.29984" lon="5.14845">
        <ele>436.36431071635</ele>
        <time>2014-05-31T18:54:39Z</time>
      </trkpt>
      <trkpt lat="45.2998" lon="5.14834">
        <ele>437.86912474503</ele>
        <time>2014-05-31T18:54:44Z</time>
      </trkpt>
      <trkpt lat="45.29977" lon="5.14825">
        <ele>437.86912474503</ele>
        <time>2014-05-31T18:54:49Z</time>
      </trkpt>
      <trkpt lat="45.29975" lon="5.14813">
        <ele>439.96655567281</ele>
        <time>2014-05-31T18:54:54Z</time>
      </trkpt>
      <trkpt lat="45.29974" lon="5.14802">
        <ele>439.96655567281</ele>
        <time>2014-05-31T18:54:59Z</time>
      </trkpt>
      <trkpt lat="45.29973" lon="5.14791">
        <ele>442.57662706502</ele>
        <time>2014-05-31T18:55:04Z</time>
      </trkpt>
      <trkpt lat="45.29971" lon="5.1478">
        <ele>442.57662706502</ele>
        <time>2014-05-31T18:55:09Z</time>
      </trkpt>
      <trkpt lat="45.29969" lon="5.1477">
        <ele>445.29246834328</ele>
        <time>2014-05-31T18:55:14Z</time>
      </trkpt>
      <trkpt lat="45.29966" lon="5.1476">
        <ele>445.29246834328</ele>
        <time>2014-05-31T18:55:19Z</time>
      </trkpt>
      <trkpt lat="45.29964" lon="5.14751">
        <ele>447.29019478392</ele>
        <time>2014-05-31T18:55:24Z</time>
      </trkpt>
      <trkpt lat="45.29961" lon="5.14741">
        <ele>447.29019478392</ele>
        <time>2014-05-31T18:55:29Z</time>
      </trkpt>
      <trkpt lat="45.29958" lon="5.14732">
        <ele>449.36501139514</ele>
        <time>2014-05-31T18:55:34Z</time>
      </trkpt>
      <trkpt lat="45.29956" lon="5.14723">
        <ele>449.36501139514</ele>
        <time>2014-05-31T18:55:39Z</time>
      </trkpt>
      <trkpt lat="45.29953" lon="5.14714">
        <ele>451.54751145327</ele>
        <time>2014-05-31T18:55:44Z</time>
      </trkpt>
      <trkpt lat="45.2995" lon="5.14704">
        <ele>451.54751145327</ele>
        <time>2014-05-31T18:55:49Z</time>
      </trkpt>
      <trkpt lat="45.29947" lon="5.14695">
        <ele>453.3471120748</ele>
        <time>2014-05-31T18:55:54Z</time>
      </trkpt>
      <trkpt lat="45.29943" lon="5.14688">
        <ele>453.3471120748</ele>
        <time>2014-05-31T18:55:59Z</time>
      </trkpt>
      <trkpt lat="45.29941" lon="5.1468">
        <ele>455.01666705855</ele>
        <time>2014-05-31T18:56:04Z</time>
      </trkpt>
      <trkpt lat="45.29943" lon="5.14675">
        <ele>455.01666705855</ele>
        <time>2014-05-31T18:56:09Z</time>
      </trkpt>
      <trkpt lat="45.29945" lon="5.14675">
        <ele>455.01666705855</ele>
        <time>2014-05-31T18:56:14Z</time>
      </trkpt>
      <trkpt lat="45.29949" lon="5.14675">
        <ele>456.7765941865</ele>
        <time>2014-05-31T18:56:19Z</time>
      </trkpt>
      <trkpt lat="45.29952" lon="5.14676">
        <ele>456.7765941865</ele>
        <time>2014-05-31T18:56:24Z</time>
      </trkpt>
      <trkpt lat="45.29956" lon="5.14679">
        <ele>456.7765941865</ele>
        <time>2014-05-31T18:56:29Z</time>
      </trkpt>
      <trkpt lat="45.29959" lon="5.14679">
        <ele>457.14495085611</ele>
        <time>2014-05-31T18:56:34Z</time>
      </trkpt>
      <trkpt lat="45.29961" lon="5.14678">
        <ele>457.14495085611</ele>
        <time>2014-05-31T18:56:39Z</time>
      </trkpt>
      <trkpt lat="45.29962" lon="5.14678">
        <ele>457.14495085611</ele>
        <time>2014-05-31T18:56:44Z</time>
      </trkpt>
      <trkpt lat="45.29963" lon="5.14679">
        <ele>457.14495085611</ele>
        <time>2014-05-31T18:56:49Z</time>
      </trkpt>
      <trkpt lat="45.29962" lon="5.14679">
        <ele>457.14495085611</ele>
        <time>2014-05-31T18:56:54Z</time>
      </trkpt>
      <trkpt lat="45.29963" lon="5.14679">
        <ele>457.14495085611</ele>
        <time>2014-05-31T18:56:59Z</time>
      </trkpt>
      <trkpt lat="45.29964" lon="5.14676">
        <ele>457.79349019783</ele>
        <time>2014-05-31T18:57:04Z</time>
      </trkpt>
      <trkpt lat="45.29964" lon="5.14678">
        <ele>457.79349019783</ele>
        <time>2014-05-31T18:57:09Z</time>
      </trkpt>
      <trkpt lat="45.29965" lon="5.14678">
        <ele>457.79349019783</ele>
        <time>2014-05-31T18:57:14Z</time>
      </trkpt>
      <trkpt lat="45.29965" lon="5.14679">
        <ele>457.79349019783</ele>
        <time>2014-05-31T18:57:19Z</time>
      </trkpt>
      <trkpt lat="45.29965" lon="5.14678">
        <ele>457.79349019783</ele>
        <time>2014-05-31T18:57:24Z</time>
      </trkpt>
      <trkpt lat="45.29966" lon="5.14679">
        <ele>457.79349019783</ele>
        <time>2014-05-31T18:57:29Z</time>
      </trkpt>
      <trkpt lat="45.29966" lon="5.14679">
        <ele>457.79349019783</ele>
        <time>2014-05-31T18:57:34Z</time>
      </trkpt>
      <trkpt lat="45.29966" lon="5.1468">
        <ele>457.79349019783</ele>
        <time>2014-05-31T18:57:39Z</time>
      </trkpt>
      <trkpt lat="45.29967" lon="5.14683">
        <ele>457.79349019783</ele>
        <time>2014-05-31T18:57:44Z</time>
      </trkpt>
      <trkpt lat="45.29972" lon="5.1469">
        <ele>458.59886308382</ele>
        <time>2014-05-31T18:57:49Z</time>
      </trkpt>
      <trkpt lat="45.29977" lon="5.14698">
        <ele>458.59886308382</ele>
        <time>2014-05-31T18:57:54Z</time>
      </trkpt>
      <trkpt lat="45.29982" lon="5.14707">
        <ele>459.01418015053</ele>
        <time>2014-05-31T18:57:59Z</time>
      </trkpt>
      <trkpt lat="45.29986" lon="5.14717">
        <ele>459.01418015053</ele>
        <time>2014-05-31T18:58:04Z</time>
      </trkpt>
      <trkpt lat="45.29987" lon="5.14726">
        <ele>459.7012847212</ele>
        <time>2014-05-31T18:58:09Z</time>
      </trkpt>
      <trkpt lat="45.2999" lon="5.14736">
        <ele>459.7012847212</ele>
        <time>2014-05-31T18:58:14Z</time>
      </trkpt>
      <trkpt lat="45.29991" lon="5.14744">
        <ele>459.55787073173</ele>
        <time>2014-05-31T18:58:19Z</time>
      </trkpt>
      <trkpt lat="45.29992" lon="5.14752">
        <ele>459.55787073173</ele>
        <time>2014-05-31T18:58:24Z</time>
      </trkpt>
      <trkpt lat="45.29992" lon="5.14762">
        <ele>459.5538154582</ele>
        <time>2014-05-31T18:58:29Z</time>
      </trkpt>
      <trkpt lat="45.29992" lon="5.14771">
        <ele>459.5538154582</ele>
        <time>2014-05-31T18:58:34Z</time>
      </trkpt>
      <trkpt lat="45.29994" lon="5.1478">
        <ele>459.20402434421</ele>
        <time>2014-05-31T18:58:39Z</time>
      </trkpt>
      <trkpt lat="45.29996" lon="5.14791">
        <ele>459.20402434421</ele>
        <time>2014-05-31T18:58:44Z</time>
      </trkpt>
      <trkpt lat="45.29996" lon="5.148">
        <ele>458.60774972559</ele>
        <time>2014-05-31T18:58:49Z</time>
      </trkpt>
      <trkpt lat="45.29998" lon="5.1481">
        <ele>458.60774972559</ele>
        <time>2014-05-31T18:58:54Z</time>
      </trkpt>
      <trkpt lat="45.29999" lon="5.14817">
        <ele>457.72804927351</ele>
        <time>2014-05-31T18:58:59Z</time>
      </trkpt>
      <trkpt lat="45.3" lon="5.14822">
        <ele>457.72804927351</ele>
        <time>2014-05-31T18:59:04Z</time>
      </trkpt>
      <trkpt lat="45.30002" lon="5.14829">
        <ele>457.72804927351</ele>
        <time>2014-05-31T18:59:09Z</time>
      </trkpt>
      <trkpt lat="45.30006" lon="5.14839">
        <ele>455.91189937987</ele>
        <time>2014-05-31T18:59:14Z</time>
      </trkpt>
      <trkpt lat="45.3001" lon="5.14847">
        <ele>455.91189937987</ele>
        <time>2014-05-31T18:59:19Z</time>
      </trkpt>
      <trkpt lat="45.30013" lon="5.14858">
        <ele>454.37274441757</ele>
        <time>2014-05-31T18:59:24Z</time>
      </trkpt>
      <trkpt lat="45.30016" lon="5.14868">
        <ele>454.37274441757</ele>
        <time>2014-05-31T18:59:29Z</time>
      </trkpt>
      <trkpt lat="45.30021" lon="5.14879">
        <ele>452.64893956721</ele>
        <time>2014-05-31T18:59:34Z</time>
      </trkpt>
      <trkpt lat="45.30026" lon="5.14888">
        <ele>452.64893956721</ele>
        <time>2014-05-31T18:59:39Z</time>
      </trkpt>
      <trkpt lat="45.3003" lon="5.14897">
        <ele>450.91856616073</ele>
        <time>2014-05-31T18:59:44Z</time>
      </trkpt>
      <trkpt lat="45.30032" lon="5.14909">
        <ele>450.91856616073</ele>
        <time>2014-05-31T18:59:49Z</time>
      </trkpt>
      <trkpt lat="45.30036" lon="5.14918">
        <ele>448.79902805734</ele>
        <time>2014-05-31T18:59:54Z</time>
      </trkpt>
      <trkpt lat="45.30038" lon="5.14923">
        <ele>448.79902805734</ele>
        <time>2014-05-31T18:59:59Z</time>
      </trkpt>
      <trkpt lat="45.30044" lon="5.1493">
        <ele>446.58541471492</ele>
        <time>2014-05-31T19:00:04Z</time>
      </trkpt>
      <trkpt lat="45.30048" lon="5.14937">
        <ele>446.58541471492</ele>
        <time>2014-05-31T19:00:09Z</time>
      </trkpt>
      <trkpt lat="45.30053" lon="5.14943">
        <ele>444.73871631849</ele>
        <time>2014-05-31T19:00:14Z</time>
      </trkpt>
      <trkpt lat="45.30054" lon="5.14947">
        <ele>444.73871631849</ele>
        <time>2014-05-31T19:00:19Z</time>
      </trkpt>
      <trkpt lat="45.30054" lon="5.14948">
        <ele>444.73871631849</ele>
        <time>2014-05-31T19:00:24Z</time>
      </trkpt>
      <trkpt lat="45.30055" lon="5.14949">
        <ele>444.73871631849</ele>
        <time>2014-05-31T19:00:29Z</time>
      </trkpt>
      <trkpt lat="45.30056" lon="5.14952">
        <ele>444.73871631849</ele>
        <time>2014-05-31T19:00:34Z</time>
      </trkpt>
      <trkpt lat="45.30055" lon="5.14958">
        <ele>442.56091351685</ele>
        <time>2014-05-31T19:00:39Z</time>
      </trkpt>
      <trkpt lat="45.30055" lon="5.1496">
        <ele>442.56091351685</ele>
        <time>2014-05-31T19:00:44Z</time>
      </trkpt>
      <trkpt lat="45.30055" lon="5.14961">
        <ele>442.56091351685</ele>
        <time>2014-05-31T19:00:49Z</time>
      </trkpt>
      <trkpt lat="45.30055" lon="5.14963">
        <ele>442.56091351685</ele>
        <time>2014-05-31T19:00:54Z</time>
      </trkpt>
      <trkpt lat="45.30055" lon="5.14963">
        <ele>442.56091351685</ele>
        <time>2014-05-31T19:00:59Z</time>
      </trkpt>
      <trkpt lat="45.30055" lon="5.14963">
        <ele>442.56091351685</ele>
        <time>2014-05-31T19:01:04Z</time>
      </trkpt>
      <trkpt lat="45.30055" lon="5.14963">
        <ele>442.56091351685</ele>
        <time>2014-05-31T19:01:09Z</time>
      </trkpt>
      <trkpt lat="45.30055" lon="5.14963">
        <ele>442.56091351685</ele>
        <time>2014-05-31T19:01:14Z</time>
      </trkpt>
      <trkpt lat="45.30055" lon="5.14963">
        <ele>442.56091351685</ele>
        <time>2014-05-31T19:01:19Z</time>
      </trkpt>
      <trkpt lat="45.30055" lon="5.14963">
        <ele>442.56091351685</ele>
        <time>2014-05-31T19:01:24Z</time>
      </trkpt>
      <trkpt lat="45.30055" lon="5.14964">
        <ele>442.56091351685</ele>
        <time>2014-05-31T19:01:29Z</time>
      </trkpt>
      <trkpt lat="45.30057" lon="5.1497">
        <ele>442.56091351685</ele>
        <time>2014-05-31T19:01:34Z</time>
      </trkpt>
      <trkpt lat="45.30057" lon="5.14976">
        <ele>439.53582409357</ele>
        <time>2014-05-31T19:01:39Z</time>
      </trkpt>
      <trkpt lat="45.30058" lon="5.14981">
        <ele>439.53582409357</ele>
        <time>2014-05-31T19:01:44Z</time>
      </trkpt>
      <trkpt lat="45.30062" lon="5.1499">
        <ele>437.10415449453</ele>
        <time>2014-05-31T19:01:49Z</time>
      </trkpt>
      <trkpt lat="45.30067" lon="5.14998">
        <ele>437.10415449453</ele>
        <time>2014-05-31T19:01:54Z</time>
      </trkpt>
      <trkpt lat="45.30074" lon="5.15003">
        <ele>435.24436698424</ele>
        <time>2014-05-31T19:01:59Z</time>
      </trkpt>
      <trkpt lat="45.30078" lon="5.15011">
        <ele>435.24436698424</ele>
        <time>2014-05-31T19:02:04Z</time>
      </trkpt>
      <trkpt lat="45.30081" lon="5.15019">
        <ele>433.66097539153</ele>
        <time>2014-05-31T19:02:09Z</time>
      </trkpt>
      <trkpt lat="45.30084" lon="5.15028">
        <ele>433.66097539153</ele>
        <time>2014-05-31T19:02:14Z</time>
      </trkpt>
      <trkpt lat="45.30089" lon="5.15034">
        <ele>432.19458745517</ele>
        <time>2014-05-31T19:02:19Z</time>
      </trkpt>
      <trkpt lat="45.30093" lon="5.15041">
        <ele>432.19458745517</ele>
        <time>2014-05-31T19:02:24Z</time>
      </trkpt>
      <trkpt lat="45.30097" lon="5.15051">
        <ele>430.22149098085</ele>
        <time>2014-05-31T19:02:29Z</time>
      </trkpt>
      <trkpt lat="45.301" lon="5.15059">
        <ele>430.22149098085</ele>
        <time>2014-05-31T19:02:34Z</time>
      </trkpt>
      <trkpt lat="45.30103" lon="5.15066">
        <ele>428.49089627616</ele>
        <time>2014-05-31T19:02:39Z</time>
      </trkpt>
      <trkpt lat="45.30104" lon="5.15074">
        <ele>428.49089627616</ele>
        <time>2014-05-31T19:02:44Z</time>
      </trkpt>
      <trkpt lat="45.30106" lon="5.15081">
        <ele>425.99563970933</ele>
        <time>2014-05-31T19:02:49Z</time>
      </trkpt>
      <trkpt lat="45.30111" lon="5.15088">
        <ele>425.99563970933</ele>
        <time>2014-05-31T19:02:54Z</time>
      </trkpt>
      <trkpt lat="45.30117" lon="5.1509">
        <ele>423.79327108818</ele>
        <time>2014-05-31T19:02:59Z</time>
      </trkpt>
      <trkpt lat="45.30118" lon="5.15088">
        <ele>423.79327108818</ele>
        <time>2014-05-31T19:03:04Z</time>
      </trkpt>
      <trkpt lat="45.30119" lon="5.15088">
        <ele>423.79327108818</ele>
        <time>2014-05-31T19:03:09Z</time>
      </trkpt>
      <trkpt lat="45.3012" lon="5.15093">
        <ele>423.79327108818</ele>
        <time>2014-05-31T19:03:14Z</time>
      </trkpt>
      <trkpt lat="45.30126" lon="5.15098">
        <ele>421.10451657463</ele>
        <time>2014-05-31T19:03:19Z</time>
      </trkpt>
      <trkpt lat="45.30128" lon="5.151">
        <ele>421.10451657463</ele>
        <time>2014-05-31T19:03:24Z</time>
      </trkpt>
      <trkpt lat="45.30129" lon="5.15101">
        <ele>421.10451657463</ele>
        <time>2014-05-31T19:03:29Z</time>
      </trkpt>
      <trkpt lat="45.3013" lon="5.15103">
        <ele>421.10451657463</ele>
        <time>2014-05-31T19:03:34Z</time>
      </trkpt>
      <trkpt lat="45.30134" lon="5.15109">
        <ele>418.82259118371</ele>
        <time>2014-05-31T19:03:39Z</time>
      </trkpt>
      <trkpt lat="45.30138" lon="5.15116">
        <ele>418.82259118371</ele>
        <time>2014-05-31T19:03:44Z</time>
      </trkpt>
      <trkpt lat="45.3014" lon="5.15124">
        <ele>416.60648084514</ele>
        <time>2014-05-31T19:03:49Z</time>
      </trkpt>
      <trkpt lat="45.30143" lon="5.15131">
        <ele>416.60648084514</ele>
        <time>2014-05-31T19:03:54Z</time>
      </trkpt>
      <trkpt lat="45.30144" lon="5.1513">
        <ele>416.60648084514</ele>
        <time>2014-05-31T19:03:59Z</time>
      </trkpt>
      <trkpt lat="45.30144" lon="5.15129">
        <ele>416.60648084514</ele>
        <time>2014-05-31T19:04:04Z</time>
      </trkpt>
      <trkpt lat="45.30144" lon="5.15132">
        <ele>414.50013808375</ele>
        <time>2014-05-31T19:04:09Z</time>
      </trkpt>
      <trkpt lat="45.30146" lon="5.15137">
        <ele>414.50013808375</ele>
        <time>2014-05-31T19:04:14Z</time>
      </trkpt>
      <trkpt lat="45.30147" lon="5.15136">
        <ele>414.50013808375</ele>
        <time>2014-05-31T19:04:19Z</time>
      </trkpt>
      <trkpt lat="45.30147" lon="5.15136">
        <ele>414.50013808375</ele>
        <time>2014-05-31T19:04:24Z</time>
      </trkpt>
      <trkpt lat="45.30147" lon="5.15136">
        <ele>414.50013808375</ele>
        <time>2014-05-31T19:04:29Z</time>
      </trkpt>
      <trkpt lat="45.30148" lon="5.15136">
        <ele>414.50013808375</ele>
        <time>2014-05-31T19:04:34Z</time>
      </trkpt>
      <trkpt lat="45.30147" lon="5.1514">
        <ele>412.31321966104</ele>
        <time>2014-05-31T19:04:39Z</time>
      </trkpt>
      <trkpt lat="45.30145" lon="5.1514">
        <ele>412.31321966104</ele>
        <time>2014-05-31T19:04:44Z</time>
      </trkpt>
      <trkpt lat="45.30145" lon="5.1514">
        <ele>412.31321966104</ele>
        <time>2014-05-31T19:04:49Z</time>
      </trkpt>
      <trkpt lat="45.30146" lon="5.1514">
        <ele>412.31321966104</ele>
        <time>2014-05-31T19:04:54Z</time>
      </trkpt>
      <trkpt lat="45.30145" lon="5.15141">
        <ele>412.31321966104</ele>
        <time>2014-05-31T19:04:59Z</time>
      </trkpt>
      <trkpt lat="45.30145" lon="5.15141">
        <ele>412.31321966104</ele>
        <time>2014-05-31T19:05:04Z</time>
      </trkpt>
      <trkpt lat="45.30144" lon="5.15141">
        <ele>412.31321966104</ele>
        <time>2014-05-31T19:05:09Z</time>
      </trkpt>
      <trkpt lat="45.30144" lon="5.15141">
        <ele>412.31321966104</ele>
        <time>2014-05-31T19:05:14Z</time>
      </trkpt>
      <trkpt lat="45.30144" lon="5.15141">
        <ele>412.31321966104</ele>
        <time>2014-05-31T19:05:19Z</time>
      </trkpt>
      <trkpt lat="45.30143" lon="5.1514">
        <ele>412.31321966104</ele>
        <time>2014-05-31T19:05:24Z</time>
      </trkpt>
      <trkpt lat="45.30143" lon="5.15141">
        <ele>412.31321966104</ele>
        <time>2014-05-31T19:05:29Z</time>
      </trkpt>
      <trkpt lat="45.30144" lon="5.15142">
        <ele>412.31321966104</ele>
        <time>2014-05-31T19:05:34Z</time>
      </trkpt>
      <trkpt lat="45.30144" lon="5.15142">
        <ele>412.31321966104</ele>
        <time>2014-05-31T19:05:39Z</time>
      </trkpt>
      <trkpt lat="45.30144" lon="5.15143">
        <ele>412.31321966104</ele>
        <time>2014-05-31T19:05:44Z</time>
      </trkpt>
      <trkpt lat="45.30144" lon="5.15143">
        <ele>412.31321966104</ele>
        <time>2014-05-31T19:05:49Z</time>
      </trkpt>
      <trkpt lat="45.30144" lon="5.15143">
        <ele>412.31321966104</ele>
        <time>2014-05-31T19:05:54Z</time>
      </trkpt>
      <trkpt lat="45.30143" lon="5.15144">
        <ele>412.31321966104</ele>
        <time>2014-05-31T19:05:59Z</time>
      </trkpt>
      <trkpt lat="45.30143" lon="5.15144">
        <ele>412.31321966104</ele>
        <time>2014-05-31T19:06:04Z</time>
      </trkpt>
      <trkpt lat="45.30144" lon="5.15143">
        <ele>411.26728772644</ele>
        <time>2014-05-31T19:06:09Z</time>
      </trkpt>
      <trkpt lat="45.30145" lon="5.15143">
        <ele>411.26728772644</ele>
        <time>2014-05-31T19:06:14Z</time>
      </trkpt>
      <trkpt lat="45.30145" lon="5.15144">
        <ele>411.26728772644</ele>
        <time>2014-05-31T19:06:19Z</time>
      </trkpt>
      <trkpt lat="45.30145" lon="5.15145">
        <ele>411.26728772644</ele>
        <time>2014-05-31T19:06:24Z</time>
      </trkpt>
      <trkpt lat="45.30147" lon="5.15147">
        <ele>411.26728772644</ele>
        <time>2014-05-31T19:06:29Z</time>
      </trkpt>
      <trkpt lat="45.30147" lon="5.15148">
        <ele>411.26728772644</ele>
        <time>2014-05-31T19:06:34Z</time>
      </trkpt>
      <trkpt lat="45.30147" lon="5.1515">
        <ele>411.26728772644</ele>
        <time>2014-05-31T19:06:39Z</time>
      </trkpt>
      <trkpt lat="45.3015" lon="5.15156">
        <ele>409.82473166148</ele>
        <time>2014-05-31T19:06:44Z</time>
      </trkpt>
      <trkpt lat="45.30154" lon="5.15164">
        <ele>409.82473166148</ele>
        <time>2014-05-31T19:06:49Z</time>
      </trkpt>
      <trkpt lat="45.30158" lon="5.15173">
        <ele>408.43527414804</ele>
        <time>2014-05-31T19:06:54Z</time>
      </trkpt>
      <trkpt lat="45.3016" lon="5.15182">
        <ele>408.43527414804</ele>
        <time>2014-05-31T19:06:59Z</time>
      </trkpt>
      <trkpt lat="45.30164" lon="5.1519">
        <ele>406.7947251311</ele>
        <time>2014-05-31T19:07:04Z</time>
      </trkpt>
      <trkpt lat="45.30166" lon="5.152">
        <ele>406.7947251311</ele>
        <time>2014-05-31T19:07:09Z</time>
      </trkpt>
      <trkpt lat="45.30167" lon="5.15202">
        <ele>406.7947251311</ele>
        <time>2014-05-31T19:07:14Z</time>
      </trkpt>
      <trkpt lat="45.30169" lon="5.15202">
        <ele>405.25586786792</ele>
        <time>2014-05-31T19:07:19Z</time>
      </trkpt>
      <trkpt lat="45.30171" lon="5.15209">
        <ele>405.25586786792</ele>
        <time>2014-05-31T19:07:24Z</time>
      </trkpt>
      <trkpt lat="45.30175" lon="5.15218">
        <ele>403.77043532561</ele>
        <time>2014-05-31T19:07:29Z</time>
      </trkpt>
      <trkpt lat="45.30179" lon="5.15228">
        <ele>403.77043532561</ele>
        <time>2014-05-31T19:07:34Z</time>
      </trkpt>
      <trkpt lat="45.30185" lon="5.15237">
        <ele>402.72573484949</ele>
        <time>2014-05-31T19:07:39Z</time>
      </trkpt>
      <trkpt lat="45.30187" lon="5.15246">
        <ele>402.72573484949</ele>
        <time>2014-05-31T19:07:44Z</time>
      </trkpt>
      <trkpt lat="45.30191" lon="5.15255">
        <ele>401.54251469353</ele>
        <time>2014-05-31T19:07:49Z</time>
      </trkpt>
      <trkpt lat="45.30196" lon="5.15263">
        <ele>401.54251469353</ele>
        <time>2014-05-31T19:07:54Z</time>
      </trkpt>
      <trkpt lat="45.30199" lon="5.1527">
        <ele>400.82280056603</ele>
        <time>2014-05-31T19:07:59Z</time>
      </trkpt>
      <trkpt lat="45.30201" lon="5.15276">
        <ele>400.82280056603</ele>
        <time>2014-05-31T19:08:04Z</time>
      </trkpt>
      <trkpt lat="45.30204" lon="5.15283">
        <ele>399.5089155331</ele>
        <time>2014-05-31T19:08:09Z</time>
      </trkpt>
      <trkpt lat="45.30205" lon="5.15292">
        <ele>399.5089155331</ele>
        <time>2014-05-31T19:08:14Z</time>
      </trkpt>
      <trkpt lat="45.30209" lon="5.15299">
        <ele>398.16441065081</ele>
        <time>2014-05-31T19:08:19Z</time>
      </trkpt>
      <trkpt lat="45.30214" lon="5.15309">
        <ele>398.16441065081</ele>
        <time>2014-05-31T19:08:24Z</time>
      </trkpt>
      <trkpt lat="45.3022" lon="5.15318">
        <ele>396.97995212969</ele>
        <time>2014-05-31T19:08:29Z</time>
      </trkpt>
      <trkpt lat="45.30227" lon="5.15327">
        <ele>396.04517485244</ele>
        <time>2014-05-31T19:08:34Z</time>
      </trkpt>
      <trkpt lat="45.30233" lon="5.15336">
        <ele>396.04517485244</ele>
        <time>2014-05-31T19:08:39Z</time>
      </trkpt>
      <trkpt lat="45.30238" lon="5.15344">
        <ele>395.73054979752</ele>
        <time>2014-05-31T19:08:44Z</time>
      </trkpt>
      <trkpt lat="45.30243" lon="5.1535">
        <ele>395.73054979752</ele>
        <time>2014-05-31T19:08:49Z</time>
      </trkpt>
      <trkpt lat="45.30247" lon="5.15358">
        <ele>395.26784558147</ele>
        <time>2014-05-31T19:08:54Z</time>
      </trkpt>
      <trkpt lat="45.30251" lon="5.15366">
        <ele>395.26784558147</ele>
        <time>2014-05-31T19:08:59Z</time>
      </trkpt>
      <trkpt lat="45.30255" lon="5.15374">
        <ele>394.26264214827</ele>
        <time>2014-05-31T19:09:04Z</time>
      </trkpt>
      <trkpt lat="45.30258" lon="5.15382">
        <ele>394.26264214827</ele>
        <time>2014-05-31T19:09:09Z</time>
      </trkpt>
      <trkpt lat="45.30261" lon="5.1539">
        <ele>393.2588427368</ele>
        <time>2014-05-31T19:09:14Z</time>
      </trkpt>
      <trkpt lat="45.30263" lon="5.15399">
        <ele>393.2588427368</ele>
        <time>2014-05-31T19:09:19Z</time>
      </trkpt>
      <trkpt lat="45.30266" lon="5.15407">
        <ele>392.65945052748</ele>
        <time>2014-05-31T19:09:24Z</time>
      </trkpt>
      <trkpt lat="45.30267" lon="5.15415">
        <ele>392.65945052748</ele>
        <time>2014-05-31T19:09:29Z</time>
      </trkpt>
      <trkpt lat="45.3027" lon="5.15425">
        <ele>392.3899303536</ele>
        <time>2014-05-31T19:09:34Z</time>
      </trkpt>
      <trkpt lat="45.30273" lon="5.15432">
        <ele>392.3899303536</ele>
        <time>2014-05-31T19:09:39Z</time>
      </trkpt>
      <trkpt lat="45.30276" lon="5.15441">
        <ele>391.97673924846</ele>
        <time>2014-05-31T19:09:44Z</time>
      </trkpt>
      <trkpt lat="45.30278" lon="5.15449">
        <ele>391.97673924846</ele>
        <time>2014-05-31T19:09:49Z</time>
      </trkpt>
      <trkpt lat="45.30282" lon="5.15459">
        <ele>391.73086458498</ele>
        <time>2014-05-31T19:09:54Z</time>
      </trkpt>
      <trkpt lat="45.30285" lon="5.15471">
        <ele>391.73086458498</ele>
        <time>2014-05-31T19:09:59Z</time>
      </trkpt>
      <trkpt lat="45.30289" lon="5.15481">
        <ele>391.34909646642</ele>
        <time>2014-05-31T19:10:04Z</time>
      </trkpt>
      <trkpt lat="45.30293" lon="5.15491">
        <ele>391.34909646642</ele>
        <time>2014-05-31T19:10:09Z</time>
      </trkpt>
      <trkpt lat="45.30298" lon="5.15501">
        <ele>390.81026194696</ele>
        <time>2014-05-31T19:10:14Z</time>
      </trkpt>
      <trkpt lat="45.30302" lon="5.1551">
        <ele>390.81026194696</ele>
        <time>2014-05-31T19:10:19Z</time>
      </trkpt>
      <trkpt lat="45.30307" lon="5.15519">
        <ele>390.22487420603</ele>
        <time>2014-05-31T19:10:24Z</time>
      </trkpt>
      <trkpt lat="45.30312" lon="5.15527">
        <ele>390.22487420603</ele>
        <time>2014-05-31T19:10:29Z</time>
      </trkpt>
      <trkpt lat="45.30317" lon="5.15532">
        <ele>389.11901039996</ele>
        <time>2014-05-31T19:10:34Z</time>
      </trkpt>
      <trkpt lat="45.30321" lon="5.15538">
        <ele>389.11901039996</ele>
        <time>2014-05-31T19:10:39Z</time>
      </trkpt>
      <trkpt lat="45.30326" lon="5.1554">
        <ele>387.68911114094</ele>
        <time>2014-05-31T19:10:44Z</time>
      </trkpt>
      <trkpt lat="45.30331" lon="5.15548">
        <ele>387.68911114094</ele>
        <time>2014-05-31T19:10:49Z</time>
      </trkpt>
      <trkpt lat="45.30337" lon="5.15558">
        <ele>386.7233652452</ele>
        <time>2014-05-31T19:10:54Z</time>
      </trkpt>
      <trkpt lat="45.30344" lon="5.15569">
        <ele>386.31667530845</ele>
        <time>2014-05-31T19:10:59Z</time>
      </trkpt>
      <trkpt lat="45.30349" lon="5.15577">
        <ele>386.31667530845</ele>
        <time>2014-05-31T19:11:04Z</time>
      </trkpt>
      <trkpt lat="45.30356" lon="5.15581">
        <ele>385.58986598998</ele>
        <time>2014-05-31T19:11:09Z</time>
      </trkpt>
      <trkpt lat="45.30362" lon="5.15586">
        <ele>385.58986598998</ele>
        <time>2014-05-31T19:11:14Z</time>
      </trkpt>
      <trkpt lat="45.30369" lon="5.1559">
        <ele>384.52186403675</ele>
        <time>2014-05-31T19:11:19Z</time>
      </trkpt>
      <trkpt lat="45.30375" lon="5.15593">
        <ele>384.52186403675</ele>
        <time>2014-05-31T19:11:24Z</time>
      </trkpt>
      <trkpt lat="45.30382" lon="5.15596">
        <ele>383.62732461051</ele>
        <time>2014-05-31T19:11:29Z</time>
      </trkpt>
      <trkpt lat="45.30389" lon="5.15598">
        <ele>383.62732461051</ele>
        <time>2014-05-31T19:11:34Z</time>
      </trkpt>
      <trkpt lat="45.30395" lon="5.15603">
        <ele>382.74853518598</ele>
        <time>2014-05-31T19:11:39Z</time>
      </trkpt>
      <trkpt lat="45.30401" lon="5.15608">
        <ele>382.74853518598</ele>
        <time>2014-05-31T19:11:44Z</time>
      </trkpt>
      <trkpt lat="45.30408" lon="5.15614">
        <ele>381.85462919308</ele>
        <time>2014-05-31T19:11:49Z</time>
      </trkpt>
      <trkpt lat="45.30416" lon="5.15621">
        <ele>381.85462919308</ele>
        <time>2014-05-31T19:11:54Z</time>
      </trkpt>
      <trkpt lat="45.30423" lon="5.15628">
        <ele>381.10441156092</ele>
        <time>2014-05-31T19:11:59Z</time>
      </trkpt>
      <trkpt lat="45.3043" lon="5.15627">
        <ele>381.10441156092</ele>
        <time>2014-05-31T19:12:04Z</time>
      </trkpt>
      <trkpt lat="45.30436" lon="5.15618">
        <ele>380.35641489095</ele>
        <time>2014-05-31T19:12:09Z</time>
      </trkpt>
      <trkpt lat="45.3044" lon="5.15608">
        <ele>380.35641489095</ele>
        <time>2014-05-31T19:12:14Z</time>
      </trkpt>
      <trkpt lat="45.30444" lon="5.15599">
        <ele>379.68133401575</ele>
        <time>2014-05-31T19:12:19Z</time>
      </trkpt>
      <trkpt lat="45.30449" lon="5.1559">
        <ele>379.68133401575</ele>
        <time>2014-05-31T19:12:24Z</time>
      </trkpt>
      <trkpt lat="45.30453" lon="5.15581">
        <ele>379.20213360684</ele>
        <time>2014-05-31T19:12:29Z</time>
      </trkpt>
      <trkpt lat="45.30456" lon="5.15573">
        <ele>379.20213360684</ele>
        <time>2014-05-31T19:12:34Z</time>
      </trkpt>
      <trkpt lat="45.3046" lon="5.15564">
        <ele>378.78723293894</ele>
        <time>2014-05-31T19:12:39Z</time>
      </trkpt>
      <trkpt lat="45.30463" lon="5.15557">
        <ele>378.78723293894</ele>
        <time>2014-05-31T19:12:44Z</time>
      </trkpt>
      <trkpt lat="45.30467" lon="5.1555">
        <ele>378.22809901742</ele>
        <time>2014-05-31T19:12:49Z</time>
      </trkpt>
      <trkpt lat="45.30471" lon="5.15542">
        <ele>378.22809901742</ele>
        <time>2014-05-31T19:12:54Z</time>
      </trkpt>
      <trkpt lat="45.30475" lon="5.15535">
        <ele>377.60576533062</ele>
        <time>2014-05-31T19:12:59Z</time>
      </trkpt>
      <trkpt lat="45.30478" lon="5.15523">
        <ele>377.60576533062</ele>
        <time>2014-05-31T19:13:04Z</time>
      </trkpt>
      <trkpt lat="45.30481" lon="5.15512">
        <ele>376.93788004171</ele>
        <time>2014-05-31T19:13:09Z</time>
      </trkpt>
      <trkpt lat="45.30483" lon="5.15503">
        <ele>376.93788004171</ele>
        <time>2014-05-31T19:13:14Z</time>
      </trkpt>
      <trkpt lat="45.30484" lon="5.15491">
        <ele>376.14008104193</ele>
        <time>2014-05-31T19:13:19Z</time>
      </trkpt>
      <trkpt lat="45.30487" lon="5.1548">
        <ele>376.14008104193</ele>
        <time>2014-05-31T19:13:24Z</time>
      </trkpt>
      <trkpt lat="45.30489" lon="5.15468">
        <ele>375.75428361137</ele>
        <time>2014-05-31T19:13:29Z</time>
      </trkpt>
      <trkpt lat="45.30491" lon="5.15461">
        <ele>375.75428361137</ele>
        <time>2014-05-31T19:13:34Z</time>
      </trkpt>
      <trkpt lat="45.30493" lon="5.15452">
        <ele>375.93561181748</ele>
        <time>2014-05-31T19:13:39Z</time>
      </trkpt>
      <trkpt lat="45.30496" lon="5.15442">
        <ele>375.93561181748</ele>
        <time>2014-05-31T19:13:44Z</time>
      </trkpt>
      <trkpt lat="45.30498" lon="5.15433">
        <ele>376.12010228782</ele>
        <time>2014-05-31T19:13:49Z</time>
      </trkpt>
      <trkpt lat="45.30501" lon="5.15423">
        <ele>376.12010228782</ele>
        <time>2014-05-31T19:13:54Z</time>
      </trkpt>
      <trkpt lat="45.30503" lon="5.15412">
        <ele>376.41934890951</ele>
        <time>2014-05-31T19:13:59Z</time>
      </trkpt>
      <trkpt lat="45.30505" lon="5.15402">
        <ele>376.41934890951</ele>
        <time>2014-05-31T19:14:04Z</time>
      </trkpt>
      <trkpt lat="45.30507" lon="5.15392">
        <ele>376.79236991245</ele>
        <time>2014-05-31T19:14:09Z</time>
      </trkpt>
      <trkpt lat="45.3051" lon="5.15382">
        <ele>376.79236991245</ele>
        <time>2014-05-31T19:14:14Z</time>
      </trkpt>
      <trkpt lat="45.30513" lon="5.15373">
        <ele>377.22987139189</ele>
        <time>2014-05-31T19:14:19Z</time>
      </trkpt>
      <trkpt lat="45.30514" lon="5.15363">
        <ele>377.22987139189</ele>
        <time>2014-05-31T19:14:24Z</time>
      </trkpt>
      <trkpt lat="45.30515" lon="5.15355">
        <ele>377.4493185653</ele>
        <time>2014-05-31T19:14:29Z</time>
      </trkpt>
      <trkpt lat="45.30516" lon="5.15345">
        <ele>377.4493185653</ele>
        <time>2014-05-31T19:14:34Z</time>
      </trkpt>
      <trkpt lat="45.30516" lon="5.15335">
        <ele>377.43460612587</ele>
        <time>2014-05-31T19:14:39Z</time>
      </trkpt>
      <trkpt lat="45.30517" lon="5.15325">
        <ele>377.43460612587</ele>
        <time>2014-05-31T19:14:44Z</time>
      </trkpt>
      <trkpt lat="45.30518" lon="5.15315">
        <ele>377.3877136541</ele>
        <time>2014-05-31T19:14:49Z</time>
      </trkpt>
      <trkpt lat="45.30519" lon="5.15304">
        <ele>377.3877136541</ele>
        <time>2014-05-31T19:14:54Z</time>
      </trkpt>
      <trkpt lat="45.30519" lon="5.15295">
        <ele>377.45272150004</ele>
        <time>2014-05-31T19:14:59Z</time>
      </trkpt>
      <trkpt lat="45.30521" lon="5.15286">
        <ele>377.45272150004</ele>
        <time>2014-05-31T19:15:04Z</time>
      </trkpt>
      <trkpt lat="45.30522" lon="5.15277">
        <ele>377.58996174437</ele>
        <time>2014-05-31T19:15:09Z</time>
      </trkpt>
      <trkpt lat="45.30523" lon="5.15268">
        <ele>377.58996174437</ele>
        <time>2014-05-31T19:15:14Z</time>
      </trkpt>
      <trkpt lat="45.30523" lon="5.15257">
        <ele>377.79138476297</ele>
        <time>2014-05-31T19:15:19Z</time>
      </trkpt>
      <trkpt lat="45.30523" lon="5.15247">
        <ele>377.79138476297</ele>
        <time>2014-05-31T19:15:24Z</time>
      </trkpt>
      <trkpt lat="45.30524" lon="5.15238">
        <ele>378.16472779209</ele>
        <time>2014-05-31T19:15:29Z</time>
      </trkpt>
      <trkpt lat="45.30524" lon="5.1523">
        <ele>378.16472779209</ele>
        <time>2014-05-31T19:15:34Z</time>
      </trkpt>
      <trkpt lat="45.30523" lon="5.15221">
        <ele>378.4347311063</ele>
        <time>2014-05-31T19:15:39Z</time>
      </trkpt>
      <trkpt lat="45.30523" lon="5.15212">
        <ele>378.4347311063</ele>
        <time>2014-05-31T19:15:44Z</time>
      </trkpt>
      <trkpt lat="45.30522" lon="5.15202">
        <ele>378.59172478717</ele>
        <time>2014-05-31T19:15:49Z</time>
      </trkpt>
      <trkpt lat="45.30521" lon="5.15192">
        <ele>378.59172478717</ele>
        <time>2014-05-31T19:15:54Z</time>
      </trkpt>
      <trkpt lat="45.30521" lon="5.15181">
        <ele>378.84332519835</ele>
        <time>2014-05-31T19:15:59Z</time>
      </trkpt>
      <trkpt lat="45.30522" lon="5.1517">
        <ele>378.84332519835</ele>
        <time>2014-05-31T19:16:04Z</time>
      </trkpt>
      <trkpt lat="45.30522" lon="5.15159">
        <ele>379.46819260662</ele>
        <time>2014-05-31T19:16:09Z</time>
      </trkpt>
      <trkpt lat="45.30523" lon="5.15149">
        <ele>379.46819260662</ele>
        <time>2014-05-31T19:16:14Z</time>
      </trkpt>
      <trkpt lat="45.30525" lon="5.15141">
        <ele>380.0174207922</ele>
        <time>2014-05-31T19:16:19Z</time>
      </trkpt>
      <trkpt lat="45.30525" lon="5.1513">
        <ele>380.0174207922</ele>
        <time>2014-05-31T19:16:24Z</time>
      </trkpt>
      <trkpt lat="45.30526" lon="5.15119">
        <ele>380.55095639218</ele>
        <time>2014-05-31T19:16:29Z</time>
      </trkpt>
      <trkpt lat="45.30527" lon="5.15109">
        <ele>380.55095639218</ele>
        <time>2014-05-31T19:16:34Z</time>
      </trkpt>
      <trkpt lat="45.30528" lon="5.15098">
        <ele>381.19654174601</ele>
        <time>2014-05-31T19:16:39Z</time>
      </trkpt>
      <trkpt lat="45.30528" lon="5.15087">
        <ele>381.19654174601</ele>
        <time>2014-05-31T19:16:44Z</time>
      </trkpt>
      <trkpt lat="45.30527" lon="5.15076">
        <ele>381.7264560319</ele>
        <time>2014-05-31T19:16:49Z</time>
      </trkpt>
      <trkpt lat="45.30525" lon="5.15067">
        <ele>381.7264560319</ele>
        <time>2014-05-31T19:16:54Z</time>
      </trkpt>
      <trkpt lat="45.30522" lon="5.15058">
        <ele>381.85807830861</ele>
        <time>2014-05-31T19:16:59Z</time>
      </trkpt>
      <trkpt lat="45.30519" lon="5.15049">
        <ele>381.85807830861</ele>
        <time>2014-05-31T19:17:04Z</time>
      </trkpt>
      <trkpt lat="45.30517" lon="5.1504">
        <ele>381.63340163231</ele>
        <time>2014-05-31T19:17:09Z</time>
      </trkpt>
      <trkpt lat="45.30516" lon="5.1503">
        <ele>381.63340163231</ele>
        <time>2014-05-31T19:17:14Z</time>
      </trkpt>
      <trkpt lat="45.30514" lon="5.15017">
        <ele>381.59682294609</ele>
        <time>2014-05-31T19:17:19Z</time>
      </trkpt>
      <trkpt lat="45.30514" lon="5.15006">
        <ele>381.59682294609</ele>
        <time>2014-05-31T19:17:24Z</time>
      </trkpt>
      <trkpt lat="45.30515" lon="5.14995">
        <ele>381.6614613319</ele>
        <time>2014-05-31T19:17:29Z</time>
      </trkpt>
      <trkpt lat="45.30517" lon="5.14985">
        <ele>381.6614613319</ele>
        <time>2014-05-31T19:17:34Z</time>
      </trkpt>
      <trkpt lat="45.30518" lon="5.14975">
        <ele>381.66015984936</ele>
        <time>2014-05-31T19:17:39Z</time>
      </trkpt>
      <trkpt lat="45.30519" lon="5.14964">
        <ele>381.66015984936</ele>
        <time>2014-05-31T19:17:44Z</time>
      </trkpt>
      <trkpt lat="45.30519" lon="5.14954">
        <ele>381.87064784298</ele>
        <time>2014-05-31T19:17:49Z</time>
      </trkpt>
      <trkpt lat="45.30519" lon="5.14946">
        <ele>381.87064784298</ele>
        <time>2014-05-31T19:17:54Z</time>
      </trkpt>
      <trkpt lat="45.30519" lon="5.14935">
        <ele>381.54096492501</ele>
        <time>2014-05-31T19:17:59Z</time>
      </trkpt>
      <trkpt lat="45.30517" lon="5.14926">
        <ele>381.54096492501</ele>
        <time>2014-05-31T19:18:04Z</time>
      </trkpt>
      <trkpt lat="45.30516" lon="5.14917">
        <ele>381.41709666131</ele>
        <time>2014-05-31T19:18:09Z</time>
      </trkpt>
      <trkpt lat="45.30513" lon="5.14909">
        <ele>381.41709666131</ele>
        <time>2014-05-31T19:18:14Z</time>
      </trkpt>
      <trkpt lat="45.30511" lon="5.14902">
        <ele>381.41152741658</ele>
        <time>2014-05-31T19:18:19Z</time>
      </trkpt>
      <trkpt lat="45.30507" lon="5.14891">
        <ele>381.41152741658</ele>
        <time>2014-05-31T19:18:24Z</time>
      </trkpt>
      <trkpt lat="45.30503" lon="5.14883">
        <ele>380.93852040852</ele>
        <time>2014-05-31T19:18:29Z</time>
      </trkpt>
      <trkpt lat="45.305" lon="5.14875">
        <ele>380.93852040852</ele>
        <time>2014-05-31T19:18:34Z</time>
      </trkpt>
      <trkpt lat="45.30497" lon="5.14865">
        <ele>380.71051085764</ele>
        <time>2014-05-31T19:18:39Z</time>
      </trkpt>
      <trkpt lat="45.30495" lon="5.14855">
        <ele>380.71051085764</ele>
        <time>2014-05-31T19:18:44Z</time>
      </trkpt>
      <trkpt lat="45.30495" lon="5.14845">
        <ele>380.46466060615</ele>
        <time>2014-05-31T19:18:49Z</time>
      </trkpt>
      <trkpt lat="45.30496" lon="5.14835">
        <ele>380.46466060615</ele>
        <time>2014-05-31T19:18:54Z</time>
      </trkpt>
      <trkpt lat="45.30501" lon="5.14813">
        <ele>380.1881224452</ele>
        <time>2014-05-31T19:18:59Z</time>
      </trkpt>
      <trkpt lat="45.3051" lon="5.14777">
        <ele>379.89795097453</ele>
        <time>2014-05-31T19:19:04Z</time>
      </trkpt>
      <trkpt lat="45.30516" lon="5.14739">
        <ele>379.8117870592</ele>
        <time>2014-05-31T19:19:09Z</time>
      </trkpt>
      <trkpt lat="45.30509" lon="5.14699">
        <ele>379.87135269247</ele>
        <time>2014-05-31T19:19:14Z</time>
      </trkpt>
      <trkpt lat="45.30496" lon="5.14668">
        <ele>380.16639180765</ele>
        <time>2014-05-31T19:19:19Z</time>
      </trkpt>
      <trkpt lat="45.30486" lon="5.14633">
        <ele>380.9235440384</ele>
        <time>2014-05-31T19:19:24Z</time>
      </trkpt>
      <trkpt lat="45.30488" lon="5.14609">
        <ele>381.81833115488</ele>
        <time>2014-05-31T19:19:29Z</time>
      </trkpt>
      <trkpt lat="45.30493" lon="5.14599">
        <ele>381.81833115488</ele>
        <time>2014-05-31T19:19:34Z</time>
      </trkpt>
      <trkpt lat="45.30496" lon="5.14591">
        <ele>382.65064373718</ele>
        <time>2014-05-31T19:19:39Z</time>
      </trkpt>
      <trkpt lat="45.30499" lon="5.14584">
        <ele>382.65064373718</ele>
        <time>2014-05-31T19:19:44Z</time>
      </trkpt>
      <trkpt lat="45.30503" lon="5.14577">
        <ele>383.27852527501</ele>
        <time>2014-05-31T19:19:49Z</time>
      </trkpt>
      <trkpt lat="45.30506" lon="5.14572">
        <ele>383.27852527501</ele>
        <time>2014-05-31T19:19:54Z</time>
      </trkpt>
      <trkpt lat="45.30509" lon="5.1457">
        <ele>383.27852527501</ele>
        <time>2014-05-31T19:19:59Z</time>
      </trkpt>
      <trkpt lat="45.3051" lon="5.14563">
        <ele>382.34612091727</ele>
        <time>2014-05-31T19:20:04Z</time>
      </trkpt>
      <trkpt lat="45.30512" lon="5.14557">
        <ele>382.34612091727</ele>
        <time>2014-05-31T19:20:09Z</time>
      </trkpt>
      <trkpt lat="45.30515" lon="5.1455">
        <ele>380.23005036753</ele>
        <time>2014-05-31T19:20:14Z</time>
      </trkpt>
      <trkpt lat="45.30518" lon="5.14542">
        <ele>380.23005036753</ele>
        <time>2014-05-31T19:20:19Z</time>
      </trkpt>
      <trkpt lat="45.30521" lon="5.14534">
        <ele>377.74377456019</ele>
        <time>2014-05-31T19:20:24Z</time>
      </trkpt>
      <trkpt lat="45.30522" lon="5.14526">
        <ele>377.74377456019</ele>
        <time>2014-05-31T19:20:29Z</time>
      </trkpt>
      <trkpt lat="45.30524" lon="5.14517">
        <ele>374.82061796942</ele>
        <time>2014-05-31T19:20:34Z</time>
      </trkpt>
      <trkpt lat="45.30526" lon="5.14508">
        <ele>374.82061796942</ele>
        <time>2014-05-31T19:20:39Z</time>
      </trkpt>
      <trkpt lat="45.30531" lon="5.1449">
        <ele>372.92760291875</ele>
        <time>2014-05-31T19:20:44Z</time>
      </trkpt>
      <trkpt lat="45.30535" lon="5.14475">
        <ele>371.83585035135</ele>
        <time>2014-05-31T19:20:49Z</time>
      </trkpt>
      <trkpt lat="45.30538" lon="5.14461">
        <ele>371.97951225507</ele>
        <time>2014-05-31T19:20:54Z</time>
      </trkpt>
      <trkpt lat="45.30542" lon="5.1445">
        <ele>371.97951225507</ele>
        <time>2014-05-31T19:20:59Z</time>
      </trkpt>
      <trkpt lat="45.30547" lon="5.14442">
        <ele>373.35383167925</ele>
        <time>2014-05-31T19:21:04Z</time>
      </trkpt>
      <trkpt lat="45.30552" lon="5.14434">
        <ele>373.35383167925</ele>
        <time>2014-05-31T19:21:09Z</time>
      </trkpt>
      <trkpt lat="45.30555" lon="5.14429">
        <ele>374.58185599425</ele>
        <time>2014-05-31T19:21:14Z</time>
      </trkpt>
      <trkpt lat="45.30558" lon="5.14421">
        <ele>374.58185599425</ele>
        <time>2014-05-31T19:21:19Z</time>
      </trkpt>
      <trkpt lat="45.30564" lon="5.14416">
        <ele>375.87251007034</ele>
        <time>2014-05-31T19:21:24Z</time>
      </trkpt>
      <trkpt lat="45.3057" lon="5.14409">
        <ele>375.87251007034</ele>
        <time>2014-05-31T19:21:29Z</time>
      </trkpt>
      <trkpt lat="45.30575" lon="5.14401">
        <ele>377.57770251817</ele>
        <time>2014-05-31T19:21:34Z</time>
      </trkpt>
      <trkpt lat="45.30582" lon="5.14392">
        <ele>378.91266991137</ele>
        <time>2014-05-31T19:21:39Z</time>
      </trkpt>
      <trkpt lat="45.3059" lon="5.1438">
        <ele>380.1745351556</ele>
        <time>2014-05-31T19:21:44Z</time>
      </trkpt>
      <trkpt lat="45.30595" lon="5.14371">
        <ele>380.1745351556</ele>
        <time>2014-05-31T19:21:49Z</time>
      </trkpt>
      <trkpt lat="45.30595" lon="5.1437">
        <ele>380.91826465265</ele>
        <time>2014-05-31T19:21:54Z</time>
      </trkpt>
      <trkpt lat="45.30618" lon="5.14287">
        <ele>380.37271945016</ele>
        <time>2014-05-31T19:22:24Z</time>
      </trkpt>
      <trkpt lat="45.3062" lon="5.14277">
        <ele>380.37271945016</ele>
        <time>2014-05-31T19:22:29Z</time>
      </trkpt>
      <trkpt lat="45.30622" lon="5.14265">
        <ele>380.93985745686</ele>
        <time>2014-05-31T19:22:34Z</time>
      </trkpt>
      <trkpt lat="45.30622" lon="5.14254">
        <ele>380.93985745686</ele>
        <time>2014-05-31T19:22:39Z</time>
      </trkpt>
      <trkpt lat="45.30625" lon="5.14244">
        <ele>381.83017900313</ele>
        <time>2014-05-31T19:22:44Z</time>
      </trkpt>
      <trkpt lat="45.30627" lon="5.14236">
        <ele>381.83017900313</ele>
        <time>2014-05-31T19:22:49Z</time>
      </trkpt>
      <trkpt lat="45.30631" lon="5.14229">
        <ele>382.45541965336</ele>
        <time>2014-05-31T19:22:54Z</time>
      </trkpt>
      <trkpt lat="45.30635" lon="5.14221">
        <ele>382.45541965336</ele>
        <time>2014-05-31T19:22:59Z</time>
      </trkpt>
      <trkpt lat="45.30639" lon="5.14212">
        <ele>382.84775242621</ele>
        <time>2014-05-31T19:23:04Z</time>
      </trkpt>
      <trkpt lat="45.30643" lon="5.14205">
        <ele>382.84775242621</ele>
        <time>2014-05-31T19:23:09Z</time>
      </trkpt>
      <trkpt lat="45.3065" lon="5.14197">
        <ele>383.02326660418</ele>
        <time>2014-05-31T19:23:14Z</time>
      </trkpt>
      <trkpt lat="45.30656" lon="5.14191">
        <ele>383.02326660418</ele>
        <time>2014-05-31T19:23:19Z</time>
      </trkpt>
      <trkpt lat="45.30662" lon="5.1419">
        <ele>383.54513895825</ele>
        <time>2014-05-31T19:23:24Z</time>
      </trkpt>
      <trkpt lat="45.30664" lon="5.14189">
        <ele>383.54513895825</ele>
        <time>2014-05-31T19:23:29Z</time>
      </trkpt>
      <trkpt lat="45.30665" lon="5.14189">
        <ele>383.54513895825</ele>
        <time>2014-05-31T19:23:34Z</time>
      </trkpt>
      <trkpt lat="45.30666" lon="5.14191">
        <ele>383.54513895825</ele>
        <time>2014-05-31T19:23:39Z</time>
      </trkpt>
      <trkpt lat="45.30667" lon="5.14191">
        <ele>383.54513895825</ele>
        <time>2014-05-31T19:23:44Z</time>
      </trkpt>
      <trkpt lat="45.30668" lon="5.14192">
        <ele>383.54513895825</ele>
        <time>2014-05-31T19:23:49Z</time>
      </trkpt>
      <trkpt lat="45.30668" lon="5.14192">
        <ele>383.54513895825</ele>
        <time>2014-05-31T19:23:54Z</time>
      </trkpt>
      <trkpt lat="45.30668" lon="5.14191">
        <ele>383.54513895825</ele>
        <time>2014-05-31T19:23:59Z</time>
      </trkpt>
      <trkpt lat="45.30668" lon="5.14191">
        <ele>383.54513895825</ele>
        <time>2014-05-31T19:24:04Z</time>
      </trkpt>
      <trkpt lat="45.30671" lon="5.14195">
        <ele>384.24250970471</ele>
        <time>2014-05-31T19:24:09Z</time>
      </trkpt>
      <trkpt lat="45.30674" lon="5.14202">
        <ele>384.24250970471</ele>
        <time>2014-05-31T19:24:14Z</time>
      </trkpt>
      <trkpt lat="45.30679" lon="5.1421">
        <ele>384.71162855677</ele>
        <time>2014-05-31T19:24:19Z</time>
      </trkpt>
      <trkpt lat="45.30684" lon="5.14217">
        <ele>384.71162855677</ele>
        <time>2014-05-31T19:24:24Z</time>
      </trkpt>
      <trkpt lat="45.30689" lon="5.14224">
        <ele>384.67996183477</ele>
        <time>2014-05-31T19:24:29Z</time>
      </trkpt>
      <trkpt lat="45.30694" lon="5.14231">
        <ele>384.67996183477</ele>
        <time>2014-05-31T19:24:34Z</time>
      </trkpt>
      <trkpt lat="45.30698" lon="5.14238">
        <ele>384.21348316006</ele>
        <time>2014-05-31T19:24:39Z</time>
      </trkpt>
      <trkpt lat="45.30704" lon="5.14244">
        <ele>384.21348316006</ele>
        <time>2014-05-31T19:24:44Z</time>
      </trkpt>
      <trkpt lat="45.30713" lon="5.14249">
        <ele>383.7204406908</ele>
        <time>2014-05-31T19:24:49Z</time>
      </trkpt>
      <trkpt lat="45.30719" lon="5.14255">
        <ele>383.7204406908</ele>
        <time>2014-05-31T19:24:54Z</time>
      </trkpt>
      <trkpt lat="45.30724" lon="5.14261">
        <ele>383.13245153862</ele>
        <time>2014-05-31T19:24:59Z</time>
      </trkpt>
      <trkpt lat="45.30728" lon="5.14268">
        <ele>383.13245153862</ele>
        <time>2014-05-31T19:25:04Z</time>
      </trkpt>
      <trkpt lat="45.30732" lon="5.14274">
        <ele>381.95410971755</ele>
        <time>2014-05-31T19:25:09Z</time>
      </trkpt>
      <trkpt lat="45.30736" lon="5.14282">
        <ele>381.95410971755</ele>
        <time>2014-05-31T19:25:14Z</time>
      </trkpt>
      <trkpt lat="45.3074" lon="5.14288">
        <ele>380.69361382312</ele>
        <time>2014-05-31T19:25:19Z</time>
      </trkpt>
      <trkpt lat="45.30744" lon="5.14295">
        <ele>380.69361382312</ele>
        <time>2014-05-31T19:25:24Z</time>
      </trkpt>
      <trkpt lat="45.30748" lon="5.14303">
        <ele>379.27443951845</ele>
        <time>2014-05-31T19:25:29Z</time>
      </trkpt>
      <trkpt lat="45.30755" lon="5.14308">
        <ele>379.27443951845</ele>
        <time>2014-05-31T19:25:34Z</time>
      </trkpt>
      <trkpt lat="45.3076" lon="5.14311">
        <ele>378.17374171715</ele>
        <time>2014-05-31T19:25:39Z</time>
      </trkpt>
      <trkpt lat="45.30763" lon="5.14311">
        <ele>378.17374171715</ele>
        <time>2014-05-31T19:25:44Z</time>
      </trkpt>
      <trkpt lat="45.30763" lon="5.14311">
        <ele>378.17374171715</ele>
        <time>2014-05-31T19:25:49Z</time>
      </trkpt>
      <trkpt lat="45.30763" lon="5.14311">
        <ele>378.17374171715</ele>
        <time>2014-05-31T19:25:54Z</time>
      </trkpt>
      <trkpt lat="45.30766" lon="5.14316">
        <ele>378.17374171715</ele>
        <time>2014-05-31T19:26:00Z</time>
      </trkpt>
      <trkpt lat="45.3077" lon="5.14324">
        <ele>376.86716469082</ele>
        <time>2014-05-31T19:26:04Z</time>
      </trkpt>
      <trkpt lat="45.30771" lon="5.14331">
        <ele>376.86716469082</ele>
        <time>2014-05-31T19:26:09Z</time>
      </trkpt>
      <trkpt lat="45.30767" lon="5.14338">
        <ele>375.96466353964</ele>
        <time>2014-05-31T19:26:14Z</time>
      </trkpt>
      <trkpt lat="45.30762" lon="5.14342">
        <ele>375.96466353964</ele>
        <time>2014-05-31T19:26:19Z</time>
      </trkpt>
      <trkpt lat="45.30757" lon="5.14339">
        <ele>375.09349168189</ele>
        <time>2014-05-31T19:26:24Z</time>
      </trkpt>
      <trkpt lat="45.30757" lon="5.14341">
        <ele>375.09349168189</ele>
        <time>2014-05-31T19:26:29Z</time>
      </trkpt>
      <trkpt lat="45.30758" lon="5.14341">
        <ele>375.09349168189</ele>
        <time>2014-05-31T19:26:34Z</time>
      </trkpt>
      <trkpt lat="45.30757" lon="5.14341">
        <ele>375.09349168189</ele>
        <time>2014-05-31T19:26:39Z</time>
      </trkpt>
      <trkpt lat="45.30757" lon="5.14342">
        <ele>375.09349168189</ele>
        <time>2014-05-31T19:26:44Z</time>
      </trkpt>
      <trkpt lat="45.30757" lon="5.14341">
        <ele>375.09349168189</ele>
        <time>2014-05-31T19:26:49Z</time>
      </trkpt>
      <trkpt lat="45.30757" lon="5.14341">
        <ele>375.09349168189</ele>
        <time>2014-05-31T19:26:54Z</time>
      </trkpt>
      <trkpt lat="45.30758" lon="5.1434">
        <ele>375.09349168189</ele>
        <time>2014-05-31T19:26:59Z</time>
      </trkpt>
      <trkpt lat="45.30758" lon="5.14339">
        <ele>375.09349168189</ele>
        <time>2014-05-31T19:27:04Z</time>
      </trkpt>
      <trkpt lat="45.30759" lon="5.14338">
        <ele>375.09349168189</ele>
        <time>2014-05-31T19:27:09Z</time>
      </trkpt>
      <trkpt lat="45.30758" lon="5.14338">
        <ele>375.09349168189</ele>
        <time>2014-05-31T19:27:14Z</time>
      </trkpt>
      <trkpt lat="45.30758" lon="5.14338">
        <ele>375.09349168189</ele>
        <time>2014-05-31T19:27:19Z</time>
      </trkpt>
      <trkpt lat="45.30758" lon="5.14338">
        <ele>375.09349168189</ele>
        <time>2014-05-31T19:27:24Z</time>
      </trkpt>
    </trkseg>
  </trk>
</gpx>